<?xml version='1.0' encoding='UTF-8'?><gpx version="1.1" creator="JPX - https://github.com/jenetics/jpx" xmlns="http://www.topografix.com/GPX/1/1"><trk><trkseg><trkpt lat="44.4022034750375" lon="8.97996743697467"><ele>53.833333333333336</ele><time>2026-04-19T07:40:05.989Z</time></trkpt><trkpt lat="44.40213878036296" lon="8.980078350824941"><ele>53.66666666666667</ele><time>2026-04-19T07:41:21Z</time></trkpt><trkpt lat="44.40207991434116" lon="8.980138412923358"><ele>53.5</ele><time>2026-04-19T07:41:22Z</time></trkpt><trkpt lat="44.40199275790419" lon="8.980173448094044"><ele>53.333333333333336</ele><time>2026-04-19T07:41:23Z</time></trkpt><trkpt lat="44.4019222269143" lon="8.980174376557432"><ele>53.16666666666667</ele><time>2026-04-19T07:41:24Z</time></trkpt><trkpt lat="44.401859049690074" lon="8.980186323405363"><ele>53.0</ele><time>2026-04-19T07:41:25Z</time></trkpt><trkpt lat="44.40178519173511" lon="8.98021440304985"><ele>53.00000000000001</ele><time>2026-04-19T07:41:26Z</time></trkpt><trkpt lat="44.40169655715026" lon="8.98022931764395"><ele>53.0</ele><time>2026-04-19T07:41:27Z</time></trkpt><trkpt lat="44.40162751580338" lon="8.98027504007976"><ele>53.0</ele><time>2026-04-19T07:41:28Z</time></trkpt><trkpt lat="44.401571496806675" lon="8.980345499397608"><ele>53.0</ele><time>2026-04-19T07:41:29Z</time></trkpt><trkpt lat="44.40154294188396" lon="8.980490862546695"><ele>53.00000000000001</ele><time>2026-04-19T07:41:31Z</time></trkpt><trkpt lat="44.40157991556708" lon="8.980622071126078"><ele>53.0</ele><time>2026-04-19T07:41:33Z</time></trkpt><trkpt lat="44.40168688324968" lon="8.980699692861501"><ele>53.0</ele><time>2026-04-19T07:41:35Z</time></trkpt><trkpt lat="44.40175625179893" lon="8.98069182829886"><ele>53.0</ele><time>2026-04-19T07:41:36Z</time></trkpt><trkpt lat="44.40182805049893" lon="8.980674803676587"><ele>53.0</ele><time>2026-04-19T07:41:37Z</time></trkpt><trkpt lat="44.40190208373711" lon="8.980660683212783"><ele>53.0</ele><time>2026-04-19T07:41:38Z</time></trkpt><trkpt lat="44.401977340195415" lon="8.980624727530937"><ele>53.0</ele><time>2026-04-19T07:41:39Z</time></trkpt><trkpt lat="44.40204172516902" lon="8.980593207388381"><ele>53.0</ele><time>2026-04-19T07:41:40Z</time></trkpt><trkpt lat="44.40212315815919" lon="8.980564926747194"><ele>53.0</ele><time>2026-04-19T07:41:41Z</time></trkpt><trkpt lat="44.40219707838307" lon="8.980528825413"><ele>54.333333333333336</ele><time>2026-04-19T07:41:42Z</time></trkpt><trkpt lat="44.40230744994478" lon="8.98047661150884"><ele>55.66666666666667</ele><time>2026-04-19T07:41:44Z</time></trkpt><trkpt lat="44.40237454042297" lon="8.980488064705542"><ele>57.0</ele><time>2026-04-19T07:41:45Z</time></trkpt><trkpt lat="44.40245034540214" lon="8.980477404578252"><ele>58.33333333333333</ele><time>2026-04-19T07:41:46Z</time></trkpt><trkpt lat="44.40252811225062" lon="8.98048610088238"><ele>59.666666666666664</ele><time>2026-04-19T07:41:47Z</time></trkpt><trkpt lat="44.402595541185974" lon="8.980477872836781"><ele>61.0</ele><time>2026-04-19T07:41:48Z</time></trkpt><trkpt lat="44.40267403989032" lon="8.980433839112603"><ele>60.99999999999999</ele><time>2026-04-19T07:41:49Z</time></trkpt><trkpt lat="44.40274713285996" lon="8.980398677005192"><ele>61.0</ele><time>2026-04-19T07:41:50Z</time></trkpt><trkpt lat="44.402817506459456" lon="8.980357625166032"><ele>61.0</ele><time>2026-04-19T07:41:51Z</time></trkpt><trkpt lat="44.40288963781076" lon="8.980317787155636"><ele>61.0</ele><time>2026-04-19T07:41:52Z</time></trkpt><trkpt lat="44.402976431232" lon="8.980251440867997"><ele>60.99999999999999</ele><time>2026-04-19T07:41:53Z</time></trkpt><trkpt lat="44.40304982239255" lon="8.98021099550848"><ele>61.0</ele><time>2026-04-19T07:41:54Z</time></trkpt><trkpt lat="44.40315587023151" lon="8.980151411004684"><ele>61.166666666666664</ele><time>2026-04-19T07:41:55.999Z</time></trkpt><trkpt lat="44.40321380339073" lon="8.980107490903263"><ele>61.33333333333333</ele><time>2026-04-19T07:41:56.999Z</time></trkpt><trkpt lat="44.40328735688962" lon="8.98005378001181"><ele>61.5</ele><time>2026-04-19T07:41:57.999Z</time></trkpt><trkpt lat="44.403354442334496" lon="8.979975905913196"><ele>61.66666666666667</ele><time>2026-04-19T07:41:58.999Z</time></trkpt><trkpt lat="44.40343209225596" lon="8.979885879562572"><ele>61.833333333333336</ele><time>2026-04-19T07:41:59.999Z</time></trkpt><trkpt lat="44.40350271619858" lon="8.979780085497909"><ele>62.0</ele><time>2026-04-19T07:42:00.999Z</time></trkpt><trkpt lat="44.40355675314442" lon="8.979675544702625"><ele>62.0</ele><time>2026-04-19T07:42:01.999Z</time></trkpt><trkpt lat="44.403599056646094" lon="8.97958806307082"><ele>62.0</ele><time>2026-04-19T07:42:02.999Z</time></trkpt><trkpt lat="44.403667870343924" lon="8.97945474930316"><ele>62.0</ele><time>2026-04-19T07:42:04.999Z</time></trkpt><trkpt lat="44.40367696509298" lon="8.979352692851839"><ele>62.0</ele><time>2026-04-19T07:42:06.999Z</time></trkpt><trkpt lat="44.40371763392453" lon="8.979251354593343"><ele>62.0</ele><time>2026-04-19T07:42:10Z</time></trkpt><trkpt lat="44.40383296173569" lon="8.979275419473213"><ele>60.833333333333336</ele><time>2026-04-19T07:42:13Z</time></trkpt><trkpt lat="44.403904331991306" lon="8.979275279574525"><ele>59.66666666666667</ele><time>2026-04-19T07:42:14Z</time></trkpt><trkpt lat="44.40397614946341" lon="8.979291279551823"><ele>58.5</ele><time>2026-04-19T07:42:15Z</time></trkpt><trkpt lat="44.404054703559055" lon="8.979285463525356"><ele>57.33333333333333</ele><time>2026-04-19T07:42:16Z</time></trkpt><trkpt lat="44.40414164110885" lon="8.979272694623708"><ele>56.166666666666664</ele><time>2026-04-19T07:42:17Z</time></trkpt><trkpt lat="44.40421513622182" lon="8.979255834168468"><ele>55.0</ele><time>2026-04-19T07:42:18Z</time></trkpt><trkpt lat="44.40429968564824" lon="8.979223362798095"><ele>54.4</ele><time>2026-04-19T07:42:19Z</time></trkpt><trkpt lat="44.40438213129028" lon="8.979176163682144"><ele>53.8</ele><time>2026-04-19T07:42:20Z</time></trkpt><trkpt lat="44.40446736495151" lon="8.979130284589436"><ele>53.2</ele><time>2026-04-19T07:42:21Z</time></trkpt><trkpt lat="44.40455998541011" lon="8.979088296866854"><ele>52.6</ele><time>2026-04-19T07:42:22Z</time></trkpt><trkpt lat="44.404641400447346" lon="8.979116005417298"><ele>52.0</ele><time>2026-04-19T07:42:23Z</time></trkpt><trkpt lat="44.404736952350305" lon="8.979113889430776"><ele>52.0</ele><time>2026-04-19T07:42:24Z</time></trkpt><trkpt lat="44.4048142212036" lon="8.979125379944621"><ele>52.0</ele><time>2026-04-19T07:42:25Z</time></trkpt><trkpt lat="44.40487816457184" lon="8.979130506653641"><ele>52.0</ele><time>2026-04-19T07:42:26Z</time></trkpt><trkpt lat="44.404967836799685" lon="8.979163202263257"><ele>52.0</ele><time>2026-04-19T07:42:28Z</time></trkpt><trkpt lat="44.40505458087249" lon="8.979162203144657"><ele>52.0</ele><time>2026-04-19T07:42:33Z</time></trkpt><trkpt lat="44.405122711210886" lon="8.979005603473206"><ele>52.0</ele><time>2026-04-19T07:42:35Z</time></trkpt><trkpt lat="44.40512760684368" lon="8.978916935758717"><ele>52.0</ele><time>2026-04-19T07:42:36Z</time></trkpt><trkpt lat="44.40516243658063" lon="8.978778507120003"><ele>52.0</ele><time>2026-04-19T07:42:38Z</time></trkpt><trkpt lat="44.405255850753534" lon="8.978722597924996"><ele>52.0</ele><time>2026-04-19T07:42:40Z</time></trkpt><trkpt lat="44.40531616576329" lon="8.978540766128914"><ele>52.0</ele><time>2026-04-19T07:42:42Z</time></trkpt><trkpt lat="44.405366489243264" lon="8.978393725272758"><ele>53.6</ele><time>2026-04-19T07:42:43Z</time></trkpt><trkpt lat="44.40541537300357" lon="8.978239658692756"><ele>55.2</ele><time>2026-04-19T07:42:44Z</time></trkpt><trkpt lat="44.405452115765314" lon="8.978137064420084"><ele>56.8</ele><time>2026-04-19T07:42:45Z</time></trkpt><trkpt lat="44.405491310638794" lon="8.977968342184678"><ele>58.4</ele><time>2026-04-19T07:42:47Z</time></trkpt><trkpt lat="44.40550462887183" lon="8.977879542760304"><ele>60.0</ele><time>2026-04-19T07:42:48Z</time></trkpt><trkpt lat="44.405536104162586" lon="8.9777746463901"><ele>60.0</ele><time>2026-04-19T07:42:49Z</time></trkpt><trkpt lat="44.40558882397659" lon="8.977692603892788"><ele>60.0</ele><time>2026-04-19T07:42:51Z</time></trkpt><trkpt lat="44.40559927872465" lon="8.977587048193842"><ele>60.0</ele><time>2026-04-19T07:42:55Z</time></trkpt><trkpt lat="44.40560920314482" lon="8.977467777217406"><ele>60.0</ele><time>2026-04-19T07:42:58Z</time></trkpt><trkpt lat="44.405646899252886" lon="8.977318515767816"><ele>60.0</ele><time>2026-04-19T07:43:00Z</time></trkpt><trkpt lat="44.405707400875" lon="8.977186118238047"><ele>62.4</ele><time>2026-04-19T07:43:02Z</time></trkpt><trkpt lat="44.40575015427954" lon="8.977032564346754"><ele>64.8</ele><time>2026-04-19T07:43:04Z</time></trkpt><trkpt lat="44.405781000046986" lon="8.976929526479005"><ele>67.2</ele><time>2026-04-19T07:43:05Z</time></trkpt><trkpt lat="44.40583269529005" lon="8.976805531941947"><ele>69.6</ele><time>2026-04-19T07:43:06Z</time></trkpt><trkpt lat="44.40588404967768" lon="8.976690446003957"><ele>72.0</ele><time>2026-04-19T07:43:07Z</time></trkpt><trkpt lat="44.40591824146846" lon="8.97658696828928"><ele>72.0</ele><time>2026-04-19T07:43:09Z</time></trkpt><trkpt lat="44.40593331106331" lon="8.97679917519001"><ele>72.0</ele><time>2026-04-19T07:43:25.999Z</time></trkpt><trkpt lat="44.40590384599964" lon="8.976923866180325"><ele>72.0</ele><time>2026-04-19T07:43:26.999Z</time></trkpt><trkpt lat="44.40588028834943" lon="8.977023557991213"><ele>72.0</ele><time>2026-04-19T07:43:27.999Z</time></trkpt><trkpt lat="44.40584521415347" lon="8.977171985779295"><ele>72.0</ele><time>2026-04-19T07:43:29.999Z</time></trkpt><trkpt lat="44.40569740348886" lon="8.977259716836706"><ele>72.0</ele><time>2026-04-19T07:43:31.999Z</time></trkpt><trkpt lat="44.40565169792782" lon="8.977400593604692"><ele>72.0</ele><time>2026-04-19T07:43:33.999Z</time></trkpt><trkpt lat="44.40558919663544" lon="8.977436289719439"><ele>72.0</ele><time>2026-04-19T07:43:34.999Z</time></trkpt><trkpt lat="44.40555463114971" lon="8.977555097489635"><ele>72.0</ele><time>2026-04-19T07:43:36.999Z</time></trkpt><trkpt lat="44.40552694500987" lon="8.9776707506475"><ele>72.0</ele><time>2026-04-19T07:43:39.999Z</time></trkpt><trkpt lat="44.40561273940014" lon="8.977705724215085"><ele>72.0</ele><time>2026-04-19T07:43:43.999Z</time></trkpt><trkpt lat="44.40551974668278" lon="8.977726167564128"><ele>72.0</ele><time>2026-04-19T07:44:18Z</time></trkpt><trkpt lat="44.4056402510478" lon="8.977722212995696"><ele>72.0</ele><time>2026-04-19T07:45:01Z</time></trkpt><trkpt lat="44.40559718179976" lon="8.977543068301118"><ele>72.0</ele><time>2026-04-19T07:45:04Z</time></trkpt><trkpt lat="44.40560476102907" lon="8.977381427668398"><ele>72.0</ele><time>2026-04-19T07:45:06Z</time></trkpt><trkpt lat="44.40565786848172" lon="8.977247599896666"><ele>72.0</ele><time>2026-04-19T07:45:07Z</time></trkpt><trkpt lat="44.405724962931664" lon="8.97707527989347"><ele>72.0</ele><time>2026-04-19T07:45:08Z</time></trkpt><trkpt lat="44.40579512156144" lon="8.976886688119441"><ele>72.0</ele><time>2026-04-19T07:45:09Z</time></trkpt><trkpt lat="44.40585189993601" lon="8.976718452720597"><ele>72.0</ele><time>2026-04-19T07:45:10Z</time></trkpt><trkpt lat="44.4058955460671" lon="8.976608386672737"><ele>73.6</ele><time>2026-04-19T07:45:11Z</time></trkpt><trkpt lat="44.405931090006035" lon="8.976475007900888"><ele>75.2</ele><time>2026-04-19T07:45:12Z</time></trkpt><trkpt lat="44.4059572284587" lon="8.976386076219717"><ele>76.8</ele><time>2026-04-19T07:45:13Z</time></trkpt><trkpt lat="44.40601749868863" lon="8.976321935306236"><ele>78.4</ele><time>2026-04-19T07:45:17Z</time></trkpt><trkpt lat="44.406126426571205" lon="8.976434872949282"><ele>80.0</ele><time>2026-04-19T07:45:19Z</time></trkpt><trkpt lat="44.406205716604795" lon="8.976564597860367"><ele>80.0</ele><time>2026-04-19T07:45:20Z</time></trkpt><trkpt lat="44.40629858382381" lon="8.97667656316747"><ele>80.0</ele><time>2026-04-19T07:45:20.999Z</time></trkpt><trkpt lat="44.406346377211285" lon="8.976762887246345"><ele>80.0</ele><time>2026-04-19T07:45:21.999Z</time></trkpt><trkpt lat="44.40641757039247" lon="8.976834789870608"><ele>80.0</ele><time>2026-04-19T07:45:22.999Z</time></trkpt><trkpt lat="44.406520951542554" lon="8.97687999568568"><ele>80.0</ele><time>2026-04-19T07:45:23.999Z</time></trkpt><trkpt lat="44.40658863459027" lon="8.976900683157266"><ele>78.5</ele><time>2026-04-19T07:45:24.999Z</time></trkpt><trkpt lat="44.406665765890274" lon="8.976911033019482"><ele>77.0</ele><time>2026-04-19T07:45:25.999Z</time></trkpt><trkpt lat="44.406773476082634" lon="8.976920199761288"><ele>75.5</ele><time>2026-04-19T07:45:26.999Z</time></trkpt><trkpt lat="44.40690573792252" lon="8.976976410551687"><ele>74.0</ele><time>2026-04-19T07:45:27.999Z</time></trkpt><trkpt lat="44.40704886663994" lon="8.977020517892068"><ele>74.0</ele><time>2026-04-19T07:45:28.999Z</time></trkpt><trkpt lat="44.40721171859833" lon="8.977069428905782"><ele>74.0</ele><time>2026-04-19T07:45:29.999Z</time></trkpt><trkpt lat="44.40735885579531" lon="8.977107450339677"><ele>74.0</ele><time>2026-04-19T07:45:30.999Z</time></trkpt><trkpt lat="44.40749694556541" lon="8.977123089960342"><ele>74.0</ele><time>2026-04-19T07:45:31.999Z</time></trkpt><trkpt lat="44.407616710022594" lon="8.977141790124625"><ele>74.0</ele><time>2026-04-19T07:45:32.999Z</time></trkpt><trkpt lat="44.40772932123305" lon="8.977142187790895"><ele>74.0</ele><time>2026-04-19T07:45:33.999Z</time></trkpt><trkpt lat="44.407824194526725" lon="8.977143188983076"><ele>74.0</ele><time>2026-04-19T07:45:34.999Z</time></trkpt><trkpt lat="44.40791542488199" lon="8.977151880638305"><ele>74.0</ele><time>2026-04-19T07:45:35.999Z</time></trkpt><trkpt lat="44.407994139481076" lon="8.977155005930662"><ele>74.60000000000001</ele><time>2026-04-19T07:45:36.999Z</time></trkpt><trkpt lat="44.4080569981863" lon="8.977169663063624"><ele>75.2</ele><time>2026-04-19T07:45:37.999Z</time></trkpt><trkpt lat="44.40817639120215" lon="8.977187461329184"><ele>75.80000000000001</ele><time>2026-04-19T07:45:39.999Z</time></trkpt><trkpt lat="44.40824678185423" lon="8.977128877662222"><ele>76.4</ele><time>2026-04-19T07:45:40.999Z</time></trkpt><trkpt lat="44.40834474448941" lon="8.977114296408955"><ele>77.0</ele><time>2026-04-19T07:45:42.999Z</time></trkpt><trkpt lat="44.408413956283084" lon="8.976884302910992"><ele>77.0</ele><time>2026-04-19T07:45:43.999Z</time></trkpt><trkpt lat="44.40846546797923" lon="8.976752034942361"><ele>77.0</ele><time>2026-04-19T07:45:44.999Z</time></trkpt><trkpt lat="44.40850140058291" lon="8.97660610289955"><ele>77.0</ele><time>2026-04-19T07:45:45.999Z</time></trkpt><trkpt lat="44.408504144954534" lon="8.97644979805912"><ele>77.0</ele><time>2026-04-19T07:45:46.999Z</time></trkpt><trkpt lat="44.408499572905974" lon="8.976304572067571"><ele>77.0</ele><time>2026-04-19T07:45:47.999Z</time></trkpt><trkpt lat="44.40848739450369" lon="8.976146034618365"><ele>77.0</ele><time>2026-04-19T07:45:48.999Z</time></trkpt><trkpt lat="44.408461864895585" lon="8.975948524512397"><ele>77.0</ele><time>2026-04-19T07:45:49.999Z</time></trkpt><trkpt lat="44.40840772269886" lon="8.975714802656922"><ele>77.0</ele><time>2026-04-19T07:45:50.999Z</time></trkpt><trkpt lat="44.40833873919902" lon="8.975505110294714"><ele>75.75</ele><time>2026-04-19T07:45:51.999Z</time></trkpt><trkpt lat="44.40826316866094" lon="8.975326405917444"><ele>74.5</ele><time>2026-04-19T07:45:52.999Z</time></trkpt><trkpt lat="44.408187033144685" lon="8.975174300439681"><ele>73.25</ele><time>2026-04-19T07:45:53.999Z</time></trkpt><trkpt lat="44.40810529545464" lon="8.97503371739791"><ele>72.0</ele><time>2026-04-19T07:45:54.999Z</time></trkpt><trkpt lat="44.40800990830386" lon="8.974902456792801"><ele>70.75</ele><time>2026-04-19T07:45:55.999Z</time></trkpt><trkpt lat="44.407891460876925" lon="8.974780525763489"><ele>69.5</ele><time>2026-04-19T07:45:56.999Z</time></trkpt><trkpt lat="44.40777518198511" lon="8.974696559133804"><ele>68.25</ele><time>2026-04-19T07:45:57.999Z</time></trkpt><trkpt lat="44.40767831960145" lon="8.974611662880022"><ele>67.0</ele><time>2026-04-19T07:45:58.999Z</time></trkpt><trkpt lat="44.40759929859698" lon="8.974519808580698"><ele>67.0</ele><time>2026-04-19T07:45:59.999Z</time></trkpt><trkpt lat="44.4075343447663" lon="8.974457207743747"><ele>67.0</ele><time>2026-04-19T07:46:00.999Z</time></trkpt><trkpt lat="44.40747547209302" lon="8.974400824920176"><ele>67.0</ele><time>2026-04-19T07:46:01.999Z</time></trkpt><trkpt lat="44.40741229548682" lon="8.974309026404752"><ele>67.0</ele><time>2026-04-19T07:46:02.999Z</time></trkpt><trkpt lat="44.40735468027268" lon="8.97417897082652"><ele>67.0</ele><time>2026-04-19T07:46:03.999Z</time></trkpt><trkpt lat="44.40729666423286" lon="8.974029922633283"><ele>67.5</ele><time>2026-04-19T07:46:04.999Z</time></trkpt><trkpt lat="44.407242434812524" lon="8.973863209679884"><ele>68.0</ele><time>2026-04-19T07:46:05.999Z</time></trkpt><trkpt lat="44.40719601253121" lon="8.973697582714394"><ele>68.5</ele><time>2026-04-19T07:46:06.999Z</time></trkpt><trkpt lat="44.40714002232009" lon="8.973526038439834"><ele>69.0</ele><time>2026-04-19T07:46:07.999Z</time></trkpt><trkpt lat="44.40708793270596" lon="8.973359204358776"><ele>70.25</ele><time>2026-04-19T07:46:08.999Z</time></trkpt><trkpt lat="44.407044746907786" lon="8.973215814641245"><ele>71.5</ele><time>2026-04-19T07:46:09.999Z</time></trkpt><trkpt lat="44.40699727017347" lon="8.973058989934646"><ele>72.75</ele><time>2026-04-19T07:46:10.999Z</time></trkpt><trkpt lat="44.40695691381597" lon="8.972907487477583"><ele>74.0</ele><time>2026-04-19T07:46:11.999Z</time></trkpt><trkpt lat="44.406913204851925" lon="8.972749994761879"><ele>74.0</ele><time>2026-04-19T07:46:12.999Z</time></trkpt><trkpt lat="44.406872054453025" lon="8.972593728331079"><ele>74.0</ele><time>2026-04-19T07:46:13.999Z</time></trkpt><trkpt lat="44.406834717248174" lon="8.972425868328756"><ele>74.0</ele><time>2026-04-19T07:46:14.999Z</time></trkpt><trkpt lat="44.40678540090471" lon="8.97226918745981"><ele>74.0</ele><time>2026-04-19T07:46:15.999Z</time></trkpt><trkpt lat="44.406736281248385" lon="8.972111792497088"><ele>73.60000000000001</ele><time>2026-04-19T07:46:16.999Z</time></trkpt><trkpt lat="44.40669807109524" lon="8.971945728245629"><ele>73.2</ele><time>2026-04-19T07:46:17.999Z</time></trkpt><trkpt lat="44.40666090764545" lon="8.971793009465511"><ele>72.80000000000001</ele><time>2026-04-19T07:46:18.999Z</time></trkpt><trkpt lat="44.406622968991925" lon="8.971661146712357"><ele>72.4</ele><time>2026-04-19T07:46:20Z</time></trkpt><trkpt lat="44.40658872474472" lon="8.971554340149536"><ele>72.0</ele><time>2026-04-19T07:46:21Z</time></trkpt><trkpt lat="44.40655707954487" lon="8.97144514087275"><ele>71.5</ele><time>2026-04-19T07:46:22Z</time></trkpt><trkpt lat="44.40652312315903" lon="8.971323307460208"><ele>71.0</ele><time>2026-04-19T07:46:23Z</time></trkpt><trkpt lat="44.406478134107" lon="8.971210556139498"><ele>70.5</ele><time>2026-04-19T07:46:24Z</time></trkpt><trkpt lat="44.40643971613581" lon="8.97113166291114"><ele>70.0</ele><time>2026-04-19T07:46:25Z</time></trkpt><trkpt lat="44.4063677603939" lon="8.971021187513172"><ele>69.5</ele><time>2026-04-19T07:46:27Z</time></trkpt><trkpt lat="44.40632932292156" lon="8.970948334038823"><ele>69.0</ele><time>2026-04-19T07:46:31Z</time></trkpt><trkpt lat="44.406272679378155" lon="8.970833537792846"><ele>69.0</ele><time>2026-04-19T07:46:45Z</time></trkpt><trkpt lat="44.406217492124334" lon="8.970721363782532"><ele>69.0</ele><time>2026-04-19T07:46:46Z</time></trkpt><trkpt lat="44.4061551011463" lon="8.97061482155539"><ele>69.0</ele><time>2026-04-19T07:46:47Z</time></trkpt><trkpt lat="44.406084022110065" lon="8.970473670584077"><ele>69.0</ele><time>2026-04-19T07:46:48Z</time></trkpt><trkpt lat="44.406009265471745" lon="8.970334988296761"><ele>69.0</ele><time>2026-04-19T07:46:49Z</time></trkpt><trkpt lat="44.40593191164387" lon="8.970174557722915"><ele>69.0</ele><time>2026-04-19T07:46:50Z</time></trkpt><trkpt lat="44.405862723069816" lon="8.970021637099677"><ele>69.0</ele><time>2026-04-19T07:46:51Z</time></trkpt><trkpt lat="44.405785865776075" lon="8.96987002852725"><ele>69.0</ele><time>2026-04-19T07:46:52Z</time></trkpt><trkpt lat="44.40570759127305" lon="8.969711393038134"><ele>69.0</ele><time>2026-04-19T07:46:53Z</time></trkpt><trkpt lat="44.40562087697281" lon="8.969554898468107"><ele>69.0</ele><time>2026-04-19T07:46:54Z</time></trkpt><trkpt lat="44.40554463923197" lon="8.969397372999609"><ele>69.0</ele><time>2026-04-19T07:46:55Z</time></trkpt><trkpt lat="44.405470581453336" lon="8.96924577149769"><ele>69.0</ele><time>2026-04-19T07:46:56Z</time></trkpt><trkpt lat="44.40539373216943" lon="8.969098369896196"><ele>69.0</ele><time>2026-04-19T07:46:57Z</time></trkpt><trkpt lat="44.405326203746235" lon="8.96894036286781"><ele>68.75</ele><time>2026-04-19T07:46:58Z</time></trkpt><trkpt lat="44.405264326941094" lon="8.968775090012755"><ele>68.5</ele><time>2026-04-19T07:46:59Z</time></trkpt><trkpt lat="44.40521599560897" lon="8.96860271428311"><ele>68.25</ele><time>2026-04-19T07:47:00Z</time></trkpt><trkpt lat="44.40517530581125" lon="8.96843055973672"><ele>68.0</ele><time>2026-04-19T07:47:01Z</time></trkpt><trkpt lat="44.40514190266718" lon="8.968242813514902"><ele>65.0</ele><time>2026-04-19T07:47:02Z</time></trkpt><trkpt lat="44.405112876251636" lon="8.968047367404942"><ele>62.0</ele><time>2026-04-19T07:47:03Z</time></trkpt><trkpt lat="44.40508303871551" lon="8.967856523488702"><ele>59.0</ele><time>2026-04-19T07:47:04Z</time></trkpt><trkpt lat="44.40505427061453" lon="8.967655545446693"><ele>56.0</ele><time>2026-04-19T07:47:05Z</time></trkpt><trkpt lat="44.405018515644656" lon="8.967459418723394"><ele>55.5</ele><time>2026-04-19T07:47:06Z</time></trkpt><trkpt lat="44.404977948224634" lon="8.967273063473057"><ele>55.0</ele><time>2026-04-19T07:47:07Z</time></trkpt><trkpt lat="44.40494283497524" lon="8.967117607522283"><ele>54.5</ele><time>2026-04-19T07:47:08Z</time></trkpt><trkpt lat="44.40491737316891" lon="8.966930295558651"><ele>54.0</ele><time>2026-04-19T07:47:09Z</time></trkpt><trkpt lat="44.40487971048891" lon="8.966739338131719"><ele>51.666666666666664</ele><time>2026-04-19T07:47:10Z</time></trkpt><trkpt lat="44.404840181763" lon="8.966540292602712"><ele>49.33333333333333</ele><time>2026-04-19T07:47:11Z</time></trkpt><trkpt lat="44.40479696054649" lon="8.966336614727256"><ele>47.0</ele><time>2026-04-19T07:47:12Z</time></trkpt><trkpt lat="44.40475769144683" lon="8.966132765974328"><ele>47.0</ele><time>2026-04-19T07:47:13Z</time></trkpt><trkpt lat="44.40472883788451" lon="8.965938722688378"><ele>47.0</ele><time>2026-04-19T07:47:14Z</time></trkpt><trkpt lat="44.40469746617442" lon="8.965750695916135"><ele>47.0</ele><time>2026-04-19T07:47:15Z</time></trkpt><trkpt lat="44.40467222077635" lon="8.965568648018138"><ele>47.0</ele><time>2026-04-19T07:47:16Z</time></trkpt><trkpt lat="44.40464186094437" lon="8.965377046160228"><ele>48.5</ele><time>2026-04-19T07:47:17Z</time></trkpt><trkpt lat="44.40464364309648" lon="8.965183256702478"><ele>50.0</ele><time>2026-04-19T07:47:18Z</time></trkpt><trkpt lat="44.40465009340095" lon="8.964994201839001"><ele>51.5</ele><time>2026-04-19T07:47:19Z</time></trkpt><trkpt lat="44.40465868831149" lon="8.964812333007133"><ele>53.0</ele><time>2026-04-19T07:47:20Z</time></trkpt><trkpt lat="44.404658891326335" lon="8.964633418137815"><ele>52.25</ele><time>2026-04-19T07:47:21Z</time></trkpt><trkpt lat="44.40466399320665" lon="8.964442872804273"><ele>51.5</ele><time>2026-04-19T07:47:22Z</time></trkpt><trkpt lat="44.404662835588304" lon="8.964262982034125"><ele>50.75</ele><time>2026-04-19T07:47:23Z</time></trkpt><trkpt lat="44.404656295538416" lon="8.96407395838904"><ele>50.0</ele><time>2026-04-19T07:47:24Z</time></trkpt><trkpt lat="44.404656346800834" lon="8.963866021705698"><ele>50.0</ele><time>2026-04-19T07:47:25Z</time></trkpt><trkpt lat="44.40465556060426" lon="8.963649204751675"><ele>50.0</ele><time>2026-04-19T07:47:26Z</time></trkpt><trkpt lat="44.40465941703839" lon="8.96341802200744"><ele>50.0</ele><time>2026-04-19T07:47:27Z</time></trkpt><trkpt lat="44.40467248134327" lon="8.963175223943557"><ele>40.66666666666667</ele><time>2026-04-19T07:47:27.999Z</time></trkpt><trkpt lat="44.40468435016335" lon="8.962947625962808"><ele>31.333333333333336</ele><time>2026-04-19T07:47:28.999Z</time></trkpt><trkpt lat="44.40468704704971" lon="8.962740563099922"><ele>22.0</ele><time>2026-04-19T07:47:29.999Z</time></trkpt><trkpt lat="44.40468609294982" lon="8.962541482020457"><ele>21.25</ele><time>2026-04-19T07:47:30.999Z</time></trkpt><trkpt lat="44.40469122064759" lon="8.962334795392259"><ele>20.5</ele><time>2026-04-19T07:47:31.999Z</time></trkpt><trkpt lat="44.40469387557518" lon="8.962131027601448"><ele>19.75</ele><time>2026-04-19T07:47:32.999Z</time></trkpt><trkpt lat="44.40469514391461" lon="8.961948142682026"><ele>19.0</ele><time>2026-04-19T07:47:33.999Z</time></trkpt><trkpt lat="44.404697338883445" lon="8.96177846722458"><ele>18.75</ele><time>2026-04-19T07:47:34.999Z</time></trkpt><trkpt lat="44.404698883490184" lon="8.961618920211336"><ele>18.5</ele><time>2026-04-19T07:47:35.999Z</time></trkpt><trkpt lat="44.40469898784735" lon="8.961450192120115"><ele>18.25</ele><time>2026-04-19T07:47:36.999Z</time></trkpt><trkpt lat="44.40470389632328" lon="8.961259799163258"><ele>18.0</ele><time>2026-04-19T07:47:37.999Z</time></trkpt><trkpt lat="44.404706496205606" lon="8.961076630894873"><ele>18.0</ele><time>2026-04-19T07:47:38.999Z</time></trkpt><trkpt lat="44.40471104907673" lon="8.960920476380528"><ele>18.0</ele><time>2026-04-19T07:47:39.999Z</time></trkpt><trkpt lat="44.404708471439044" lon="8.960775615884573"><ele>18.0</ele><time>2026-04-19T07:47:40.999Z</time></trkpt><trkpt lat="44.40470900995761" lon="8.960632409508818"><ele>18.0</ele><time>2026-04-19T07:47:41.999Z</time></trkpt><trkpt lat="44.40471077222318" lon="8.960502802303855"><ele>18.0</ele><time>2026-04-19T07:47:42.999Z</time></trkpt><trkpt lat="44.40471328063852" lon="8.960362131440242"><ele>17.833333333333332</ele><time>2026-04-19T07:47:43.999Z</time></trkpt><trkpt lat="44.4047148551213" lon="8.96023926769867"><ele>17.666666666666668</ele><time>2026-04-19T07:47:44.999Z</time></trkpt><trkpt lat="44.40471616321637" lon="8.960128023134288"><ele>17.5</ele><time>2026-04-19T07:47:45.999Z</time></trkpt><trkpt lat="44.40471705038793" lon="8.960024909146156"><ele>17.333333333333336</ele><time>2026-04-19T07:47:46.999Z</time></trkpt><trkpt lat="44.404728135482365" lon="8.95992169553929"><ele>17.166666666666668</ele><time>2026-04-19T07:47:47.999Z</time></trkpt><trkpt lat="44.404743503007495" lon="8.959803067347277"><ele>17.0</ele><time>2026-04-19T07:47:48.999Z</time></trkpt><trkpt lat="44.404745091421766" lon="8.95967877941911"><ele>17.0</ele><time>2026-04-19T07:47:49.999Z</time></trkpt><trkpt lat="44.404748138771616" lon="8.959558417860942"><ele>17.0</ele><time>2026-04-19T07:47:50.999Z</time></trkpt><trkpt lat="44.40475026108517" lon="8.959455505973112"><ele>17.0</ele><time>2026-04-19T07:47:51.999Z</time></trkpt><trkpt lat="44.4047517096141" lon="8.959361187577581"><ele>17.0</ele><time>2026-04-19T07:47:52.999Z</time></trkpt><trkpt lat="44.40475278798988" lon="8.959199772746068"><ele>17.0</ele><time>2026-04-19T07:47:54.999Z</time></trkpt><trkpt lat="44.404778735628206" lon="8.95908160240879"><ele>17.0</ele><time>2026-04-19T07:47:56.999Z</time></trkpt><trkpt lat="44.40499068045481" lon="8.959071847655869"><ele>17.0</ele><time>2026-04-19T07:48:00.999Z</time></trkpt><trkpt lat="44.40508094501436" lon="8.959072982711394"><ele>17.0</ele><time>2026-04-19T07:48:01.999Z</time></trkpt><trkpt lat="44.405171992048494" lon="8.959079445749179"><ele>17.0</ele><time>2026-04-19T07:48:02.999Z</time></trkpt><trkpt lat="44.405257826065075" lon="8.959089938193403"><ele>17.0</ele><time>2026-04-19T07:48:03.999Z</time></trkpt><trkpt lat="44.40534002674816" lon="8.959107592198439"><ele>17.0</ele><time>2026-04-19T07:48:04.999Z</time></trkpt><trkpt lat="44.40542519331588" lon="8.959118563156682"><ele>17.0</ele><time>2026-04-19T07:48:05.999Z</time></trkpt><trkpt lat="44.4055181630235" lon="8.959125303844221"><ele>16.4</ele><time>2026-04-19T07:48:06.999Z</time></trkpt><trkpt lat="44.40562089502182" lon="8.959133215604664"><ele>15.799999999999999</ele><time>2026-04-19T07:48:07.999Z</time></trkpt><trkpt lat="44.40573030126348" lon="8.959143953429201"><ele>15.2</ele><time>2026-04-19T07:48:08.999Z</time></trkpt><trkpt lat="44.40582858809605" lon="8.959154685106931"><ele>14.6</ele><time>2026-04-19T07:48:09.999Z</time></trkpt><trkpt lat="44.40592018348248" lon="8.95915922680889"><ele>14.0</ele><time>2026-04-19T07:48:10.999Z</time></trkpt><trkpt lat="44.40600848399041" lon="8.959167665685799"><ele>14.000000000000002</ele><time>2026-04-19T07:48:11.999Z</time></trkpt><trkpt lat="44.40608062212683" lon="8.95919968420607"><ele>14.0</ele><time>2026-04-19T07:48:12.999Z</time></trkpt><trkpt lat="44.40614331150336" lon="8.959262621007639"><ele>14.0</ele><time>2026-04-19T07:48:13.999Z</time></trkpt><trkpt lat="44.4061876796838" lon="8.959348224513912"><ele>14.0</ele><time>2026-04-19T07:48:14.999Z</time></trkpt><trkpt lat="44.406213398150925" lon="8.95945036727306"><ele>14.000000000000002</ele><time>2026-04-19T07:48:15.999Z</time></trkpt><trkpt lat="44.40621951260579" lon="8.959560052382686"><ele>14.0</ele><time>2026-04-19T07:48:16.999Z</time></trkpt><trkpt lat="44.40621966281123" lon="8.959672351824073"><ele>13.833333333333334</ele><time>2026-04-19T07:48:17.999Z</time></trkpt><trkpt lat="44.40624042333157" lon="8.959787521106616"><ele>13.666666666666668</ele><time>2026-04-19T07:48:18.999Z</time></trkpt><trkpt lat="44.40627723901687" lon="8.959903679742885"><ele>13.5</ele><time>2026-04-19T07:48:19.999Z</time></trkpt><trkpt lat="44.40632917933103" lon="8.96002051894628"><ele>13.333333333333332</ele><time>2026-04-19T07:48:20.999Z</time></trkpt><trkpt lat="44.40637598938001" lon="8.960132290939331"><ele>13.166666666666666</ele><time>2026-04-19T07:48:21.999Z</time></trkpt><trkpt lat="44.40641202828544" lon="8.960232696068006"><ele>13.0</ele><time>2026-04-19T07:48:22.999Z</time></trkpt><trkpt lat="44.40644536058119" lon="8.960321426709921"><ele>12.999999999999998</ele><time>2026-04-19T07:48:23.999Z</time></trkpt><trkpt lat="44.40647377085505" lon="8.960401761051422"><ele>13.0</ele><time>2026-04-19T07:48:24.999Z</time></trkpt><trkpt lat="44.40652687747165" lon="8.960538999338574"><ele>13.0</ele><time>2026-04-19T07:48:27Z</time></trkpt><trkpt lat="44.40656790644807" lon="8.960615632937404"><ele>13.0</ele><time>2026-04-19T07:48:29Z</time></trkpt><trkpt lat="44.40662747038561" lon="8.960737353234757"><ele>12.999999999999998</ele><time>2026-04-19T07:49:07Z</time></trkpt><trkpt lat="44.406705244953805" lon="8.960786594049708"><ele>13.0</ele><time>2026-04-19T07:49:08Z</time></trkpt><trkpt lat="44.406790531390236" lon="8.960841406872925"><ele>13.4</ele><time>2026-04-19T07:49:09Z</time></trkpt><trkpt lat="44.406906010406125" lon="8.960868951426677"><ele>13.8</ele><time>2026-04-19T07:49:10Z</time></trkpt><trkpt lat="44.40699541388108" lon="8.960886380443167"><ele>14.2</ele><time>2026-04-19T07:49:11Z</time></trkpt><trkpt lat="44.40707565438515" lon="8.960897319284616"><ele>14.6</ele><time>2026-04-19T07:49:12Z</time></trkpt><trkpt lat="44.40714005594332" lon="8.960909008645462"><ele>15.0</ele><time>2026-04-19T07:49:13Z</time></trkpt><trkpt lat="44.40724286978144" lon="8.960930468093244"><ele>16.0</ele><time>2026-04-19T07:49:15Z</time></trkpt><trkpt lat="44.40732423908369" lon="8.960627461802675"><ele>17.0</ele><time>2026-04-19T07:49:17Z</time></trkpt><trkpt lat="44.407332704668704" lon="8.960495469622366"><ele>18.0</ele><time>2026-04-19T07:49:18Z</time></trkpt><trkpt lat="44.407343806960796" lon="8.960330615891392"><ele>19.0</ele><time>2026-04-19T07:49:19Z</time></trkpt><trkpt lat="44.40735113847899" lon="8.960216991274352"><ele>19.0</ele><time>2026-04-19T07:49:20Z</time></trkpt><trkpt lat="44.407359093493454" lon="8.960094439263813"><ele>19.0</ele><time>2026-04-19T07:49:22Z</time></trkpt><trkpt lat="44.40737109698209" lon="8.959980997932393"><ele>19.0</ele><time>2026-04-19T07:49:42.999Z</time></trkpt><trkpt lat="44.40739274928551" lon="8.959760814028845"><ele>19.0</ele><time>2026-04-19T07:49:44.999Z</time></trkpt><trkpt lat="44.40740474075383" lon="8.959617151551253"><ele>19.0</ele><time>2026-04-19T07:49:45.999Z</time></trkpt><trkpt lat="44.40742924090546" lon="8.959423645467078"><ele>19.25</ele><time>2026-04-19T07:49:46.999Z</time></trkpt><trkpt lat="44.40744652328152" lon="8.95922567774268"><ele>19.5</ele><time>2026-04-19T07:49:47.999Z</time></trkpt><trkpt lat="44.407449503537514" lon="8.959053481964796"><ele>19.75</ele><time>2026-04-19T07:49:48.999Z</time></trkpt><trkpt lat="44.40746372373759" lon="8.958904786589086"><ele>20.0</ele><time>2026-04-19T07:49:49.999Z</time></trkpt><trkpt lat="44.407468461620624" lon="8.958745214937275"><ele>20.0</ele><time>2026-04-19T07:49:50.999Z</time></trkpt><trkpt lat="44.40748067477232" lon="8.95860953274629"><ele>20.0</ele><time>2026-04-19T07:49:51.999Z</time></trkpt><trkpt lat="44.40749029462428" lon="8.958468555898156"><ele>20.0</ele><time>2026-04-19T07:49:52.999Z</time></trkpt><trkpt lat="44.40749189562292" lon="8.958298684932009"><ele>20.0</ele><time>2026-04-19T07:49:53.999Z</time></trkpt><trkpt lat="44.40750265798062" lon="8.95813893190099"><ele>20.0</ele><time>2026-04-19T07:49:54.999Z</time></trkpt><trkpt lat="44.407516906115085" lon="8.957993469153333"><ele>20.2</ele><time>2026-04-19T07:49:55.999Z</time></trkpt><trkpt lat="44.40751647705942" lon="8.957867632378978"><ele>20.4</ele><time>2026-04-19T07:49:56.999Z</time></trkpt><trkpt lat="44.40753053310729" lon="8.957740533241031"><ele>20.6</ele><time>2026-04-19T07:49:57.999Z</time></trkpt><trkpt lat="44.40753291754355" lon="8.957598289227827"><ele>20.8</ele><time>2026-04-19T07:49:58.999Z</time></trkpt><trkpt lat="44.40753617013684" lon="8.957431537380408"><ele>21.0</ele><time>2026-04-19T07:49:59.999Z</time></trkpt><trkpt lat="44.407547128891494" lon="8.95727186463748"><ele>20.166666666666668</ele><time>2026-04-19T07:50:00.999Z</time></trkpt><trkpt lat="44.40755240158938" lon="8.957148326420338"><ele>19.333333333333332</ele><time>2026-04-19T07:50:01.999Z</time></trkpt><trkpt lat="44.40755775999209" lon="8.957026448509003"><ele>18.5</ele><time>2026-04-19T07:50:02.999Z</time></trkpt><trkpt lat="44.407563977738995" lon="8.956914022159651"><ele>17.666666666666664</ele><time>2026-04-19T07:50:03.999Z</time></trkpt><trkpt lat="44.40757279593863" lon="8.956811883052806"><ele>16.833333333333332</ele><time>2026-04-19T07:50:04.999Z</time></trkpt><trkpt lat="44.40758609907581" lon="8.956725457754517"><ele>16.0</ele><time>2026-04-19T07:50:05.999Z</time></trkpt><trkpt lat="44.40760965180441" lon="8.956586230814723"><ele>16.0</ele><time>2026-04-19T07:50:07.999Z</time></trkpt><trkpt lat="44.40763990832389" lon="8.956400746921194"><ele>16.0</ele><time>2026-04-19T07:50:09.999Z</time></trkpt><trkpt lat="44.4076734168347" lon="8.956250061962205"><ele>16.0</ele><time>2026-04-19T07:50:10.999Z</time></trkpt><trkpt lat="44.40771618053031" lon="8.956102423374052"><ele>16.0</ele><time>2026-04-19T07:50:11.999Z</time></trkpt><trkpt lat="44.40776905641327" lon="8.95600740260106"><ele>16.0</ele><time>2026-04-19T07:50:12.999Z</time></trkpt><trkpt lat="44.407802117700584" lon="8.955883503945826"><ele>16.0</ele><time>2026-04-19T07:50:14.999Z</time></trkpt><trkpt lat="44.40792881642841" lon="8.955953094606384"><ele>16.0</ele><time>2026-04-19T07:50:15.999Z</time></trkpt><trkpt lat="44.408007385515184" lon="8.955987030082536"><ele>16.0</ele><time>2026-04-19T07:50:16.999Z</time></trkpt><trkpt lat="44.40808759925629" lon="8.95602679902428"><ele>16.0</ele><time>2026-04-19T07:50:17.999Z</time></trkpt><trkpt lat="44.408159243404846" lon="8.956044722924888"><ele>16.0</ele><time>2026-04-19T07:50:18.999Z</time></trkpt><trkpt lat="44.40820248461656" lon="8.955822145040056"><ele>16.2</ele><time>2026-04-19T07:50:20.999Z</time></trkpt><trkpt lat="44.408231830065276" lon="8.955703563721135"><ele>16.400000000000002</ele><time>2026-04-19T07:50:21.999Z</time></trkpt><trkpt lat="44.40825593378272" lon="8.955608326963343"><ele>16.6</ele><time>2026-04-19T07:50:22.999Z</time></trkpt><trkpt lat="44.4082863642854" lon="8.955488092305577"><ele>16.8</ele><time>2026-04-19T07:50:24.999Z</time></trkpt><trkpt lat="44.40846718263817" lon="8.955549135756078"><ele>17.0</ele><time>2026-04-19T07:50:25.999Z</time></trkpt><trkpt lat="44.40856160553253" lon="8.955601474815024"><ele>17.0</ele><time>2026-04-19T07:50:26.999Z</time></trkpt><trkpt lat="44.408695286391534" lon="8.955670929444462"><ele>17.0</ele><time>2026-04-19T07:50:27.999Z</time></trkpt><trkpt lat="44.40880521978361" lon="8.955730775855372"><ele>17.0</ele><time>2026-04-19T07:50:28.999Z</time></trkpt><trkpt lat="44.408899265973815" lon="8.955780839414043"><ele>17.0</ele><time>2026-04-19T07:50:29.999Z</time></trkpt><trkpt lat="44.408986799643344" lon="8.955813080926594"><ele>17.4</ele><time>2026-04-19T07:50:30.999Z</time></trkpt><trkpt lat="44.409070346754646" lon="8.955863535811107"><ele>17.799999999999997</ele><time>2026-04-19T07:50:32Z</time></trkpt><trkpt lat="44.40917344652176" lon="8.955907973967832"><ele>18.2</ele><time>2026-04-19T07:50:33Z</time></trkpt><trkpt lat="44.40929607781468" lon="8.95596444345764"><ele>18.599999999999998</ele><time>2026-04-19T07:50:34Z</time></trkpt><trkpt lat="44.40938729938109" lon="8.956002686471468"><ele>19.0</ele><time>2026-04-19T07:50:35Z</time></trkpt><trkpt lat="44.409452486454825" lon="8.95603631768434"><ele>19.0</ele><time>2026-04-19T07:50:36Z</time></trkpt><trkpt lat="44.409555155000696" lon="8.956028340044918"><ele>19.0</ele><time>2026-04-19T07:50:38Z</time></trkpt><trkpt lat="44.40960277481025" lon="8.955839646189945"><ele>19.0</ele><time>2026-04-19T07:50:40Z</time></trkpt><trkpt lat="44.409619023547705" lon="8.95573821644358"><ele>19.0</ele><time>2026-04-19T07:50:41Z</time></trkpt><trkpt lat="44.40965963262742" lon="8.955598458120738"><ele>19.0</ele><time>2026-04-19T07:50:43Z</time></trkpt><trkpt lat="44.40969295461073" lon="8.955506025346935"><ele>18.666666666666664</ele><time>2026-04-19T07:50:47Z</time></trkpt><trkpt lat="44.40973061495695" lon="8.955380628202017"><ele>18.333333333333332</ele><time>2026-04-19T07:50:49Z</time></trkpt><trkpt lat="44.40975140339544" lon="8.955286021151283"><ele>18.0</ele><time>2026-04-19T07:50:50Z</time></trkpt><trkpt lat="44.40977022780689" lon="8.955177435321199"><ele>17.666666666666668</ele><time>2026-04-19T07:50:51Z</time></trkpt><trkpt lat="44.40979567718884" lon="8.955064759506946"><ele>17.333333333333336</ele><time>2026-04-19T07:50:52Z</time></trkpt><trkpt lat="44.40982225975061" lon="8.954952157135432"><ele>17.0</ele><time>2026-04-19T07:50:53Z</time></trkpt><trkpt lat="44.40984835563002" lon="8.954861418144894"><ele>17.0</ele><time>2026-04-19T07:50:54Z</time></trkpt><trkpt lat="44.40988706905553" lon="8.954731679804324"><ele>17.0</ele><time>2026-04-19T07:50:56Z</time></trkpt><trkpt lat="44.40991789674957" lon="8.954650733667524"><ele>17.0</ele><time>2026-04-19T07:50:59Z</time></trkpt><trkpt lat="44.40994692091819" lon="8.954549246275558"><ele>17.0</ele><time>2026-04-19T07:51:02Z</time></trkpt><trkpt lat="44.41004440191969" lon="8.954565367992268"><ele>17.0</ele><time>2026-04-19T07:51:03Z</time></trkpt><trkpt lat="44.41011932312452" lon="8.95457913384323"><ele>17.0</ele><time>2026-04-19T07:51:04Z</time></trkpt><trkpt lat="44.4102176604036" lon="8.954622708000352"><ele>17.0</ele><time>2026-04-19T07:51:05Z</time></trkpt><trkpt lat="44.410329248678" lon="8.954673919319118"><ele>17.0</ele><time>2026-04-19T07:51:06Z</time></trkpt><trkpt lat="44.41045802586773" lon="8.95475910780282"><ele>17.0</ele><time>2026-04-19T07:51:07Z</time></trkpt><trkpt lat="44.410595590353196" lon="8.954799529373178"><ele>17.0</ele><time>2026-04-19T07:51:08Z</time></trkpt><trkpt lat="44.41070700264656" lon="8.954866200036705"><ele>18.0</ele><time>2026-04-19T07:51:09Z</time></trkpt><trkpt lat="44.41081418401012" lon="8.954919662333248"><ele>19.0</ele><time>2026-04-19T07:51:10Z</time></trkpt><trkpt lat="44.41091620498278" lon="8.954965351531541"><ele>20.0</ele><time>2026-04-19T07:51:11Z</time></trkpt><trkpt lat="44.410997544891" lon="8.955007279465423"><ele>21.0</ele><time>2026-04-19T07:51:12Z</time></trkpt><trkpt lat="44.411063403701164" lon="8.955038245319894"><ele>22.0</ele><time>2026-04-19T07:51:14Z</time></trkpt><trkpt lat="44.411154615298905" lon="8.955040820485516"><ele>23.0</ele><time>2026-04-19T07:52:07.999Z</time></trkpt><trkpt lat="44.41124125359707" lon="8.955098519237795"><ele>24.0</ele><time>2026-04-19T07:52:08.999Z</time></trkpt><trkpt lat="44.411354147507105" lon="8.955177051521938"><ele>25.000000000000004</ele><time>2026-04-19T07:52:09.999Z</time></trkpt><trkpt lat="44.41143236594075" lon="8.955217778723632"><ele>26.0</ele><time>2026-04-19T07:52:10.999Z</time></trkpt><trkpt lat="44.41153894364759" lon="8.95526751068811"><ele>27.0</ele><time>2026-04-19T07:52:12.999Z</time></trkpt><trkpt lat="44.41160200317775" lon="8.955296936440412"><ele>27.75</ele><time>2026-04-19T07:52:14.999Z</time></trkpt><trkpt lat="44.41164771996571" lon="8.955135304513265"><ele>28.5</ele><time>2026-04-19T07:53:15Z</time></trkpt><trkpt lat="44.41162089710742" lon="8.955054532884885"><ele>29.25</ele><time>2026-04-19T07:53:42.999Z</time></trkpt><trkpt lat="44.41169018086508" lon="8.95523919948468"><ele>30.0</ele><time>2026-04-19T07:54:11.999Z</time></trkpt><trkpt lat="44.41172844391023" lon="8.955396793044669"><ele>30.0</ele><time>2026-04-19T07:57:42Z</time></trkpt><trkpt lat="44.4118208585884" lon="8.955447954899357"><ele>30.0</ele><time>2026-04-19T07:57:43Z</time></trkpt><trkpt lat="44.41190404739681" lon="8.955484510784947"><ele>30.0</ele><time>2026-04-19T07:57:44Z</time></trkpt><trkpt lat="44.411992304075206" lon="8.955502459249203"><ele>30.0</ele><time>2026-04-19T07:57:45Z</time></trkpt><trkpt lat="44.41210010511305" lon="8.955552128767224"><ele>30.0</ele><time>2026-04-19T07:57:46Z</time></trkpt><trkpt lat="44.412199321214764" lon="8.955600657767281"><ele>29.4</ele><time>2026-04-19T07:57:47Z</time></trkpt><trkpt lat="44.412319052992196" lon="8.955657992036542"><ele>28.8</ele><time>2026-04-19T07:57:49Z</time></trkpt><trkpt lat="44.41240469381364" lon="8.955717056518637"><ele>28.200000000000003</ele><time>2026-04-19T07:57:51.999Z</time></trkpt><trkpt lat="44.412513399507574" lon="8.955737955960425"><ele>27.6</ele><time>2026-04-19T07:57:53.999Z</time></trkpt><trkpt lat="44.41260815055099" lon="8.955771443765196"><ele>27.0</ele><time>2026-04-19T07:57:54.999Z</time></trkpt><trkpt lat="44.41268887854632" lon="8.95582240089055"><ele>27.0</ele><time>2026-04-19T07:57:55.999Z</time></trkpt><trkpt lat="44.41276457576664" lon="8.955868344986785"><ele>27.0</ele><time>2026-04-19T07:57:56.999Z</time></trkpt><trkpt lat="44.41284324655084" lon="8.955893249572737"><ele>27.0</ele><time>2026-04-19T07:57:57.999Z</time></trkpt><trkpt lat="44.41292300505603" lon="8.95593219258729"><ele>27.0</ele><time>2026-04-19T07:57:58.999Z</time></trkpt><trkpt lat="44.41300743222594" lon="8.955966896000785"><ele>27.0</ele><time>2026-04-19T07:57:59.999Z</time></trkpt><trkpt lat="44.41306858242114" lon="8.955991215662698"><ele>27.0</ele><time>2026-04-19T07:58:00.999Z</time></trkpt><trkpt lat="44.41317353037609" lon="8.956041989229576"><ele>28.200000000000003</ele><time>2026-04-19T07:58:02.999Z</time></trkpt><trkpt lat="44.413247323580336" lon="8.956071832883422"><ele>29.400000000000002</ele><time>2026-04-19T07:58:04.999Z</time></trkpt><trkpt lat="44.41331336576501" lon="8.956114359201163"><ele>30.599999999999998</ele><time>2026-04-19T07:58:06.999Z</time></trkpt><trkpt lat="44.41343107705771" lon="8.956182159491766"><ele>31.799999999999997</ele><time>2026-04-19T07:58:37.999Z</time></trkpt><trkpt lat="44.4135274894529" lon="8.95622997653685"><ele>33.0</ele><time>2026-04-19T07:58:38.999Z</time></trkpt><trkpt lat="44.413636822335846" lon="8.956278657412323"><ele>33.0</ele><time>2026-04-19T07:58:39.999Z</time></trkpt><trkpt lat="44.41373799876889" lon="8.956331719112049"><ele>33.0</ele><time>2026-04-19T07:58:40.999Z</time></trkpt><trkpt lat="44.41384495510429" lon="8.95638101707754"><ele>33.0</ele><time>2026-04-19T07:58:41.999Z</time></trkpt><trkpt lat="44.413961372145955" lon="8.956435673760248"><ele>33.0</ele><time>2026-04-19T07:58:42.999Z</time></trkpt><trkpt lat="44.41407349063776" lon="8.956480671743735"><ele>32.199999999999996</ele><time>2026-04-19T07:58:43.999Z</time></trkpt><trkpt lat="44.414170110859125" lon="8.956527423608364"><ele>31.4</ele><time>2026-04-19T07:58:44.999Z</time></trkpt><trkpt lat="44.41427983290613" lon="8.956573363464816"><ele>30.599999999999998</ele><time>2026-04-19T07:58:45.999Z</time></trkpt><trkpt lat="44.41437912679481" lon="8.956623952608458"><ele>29.799999999999997</ele><time>2026-04-19T07:58:46.999Z</time></trkpt><trkpt lat="44.41446298124531" lon="8.956663290342567"><ele>29.0</ele><time>2026-04-19T07:58:47.999Z</time></trkpt><trkpt lat="44.414534075601225" lon="8.956685134330852"><ele>28.2</ele><time>2026-04-19T07:58:48.999Z</time></trkpt><trkpt lat="44.4146132690927" lon="8.956714276804453"><ele>27.4</ele><time>2026-04-19T07:58:49.999Z</time></trkpt><trkpt lat="44.41468931291944" lon="8.956707108346025"><ele>26.6</ele><time>2026-04-19T07:58:50.999Z</time></trkpt><trkpt lat="44.414817471810935" lon="8.956646499388231"><ele>25.8</ele><time>2026-04-19T07:58:52.999Z</time></trkpt><trkpt lat="44.41488872397997" lon="8.956584321615898"><ele>25.0</ele><time>2026-04-19T07:58:53.999Z</time></trkpt><trkpt lat="44.414973432819515" lon="8.956497829554573"><ele>25.000000000000004</ele><time>2026-04-19T07:58:54.999Z</time></trkpt><trkpt lat="44.41505823043067" lon="8.956414322116787"><ele>25.0</ele><time>2026-04-19T07:58:56Z</time></trkpt><trkpt lat="44.415128957353105" lon="8.956348392002448"><ele>25.0</ele><time>2026-04-19T07:58:57Z</time></trkpt><trkpt lat="44.415188717814615" lon="8.956286655229308"><ele>25.0</ele><time>2026-04-19T07:58:58Z</time></trkpt><trkpt lat="44.41524184319372" lon="8.956229139843407"><ele>25.000000000000004</ele><time>2026-04-19T07:58:59Z</time></trkpt><trkpt lat="44.41532650557466" lon="8.956115693571482"><ele>25.0</ele><time>2026-04-19T07:59:01Z</time></trkpt><trkpt lat="44.41537763670302" lon="8.956060770476402"><ele>25.0</ele><time>2026-04-19T07:59:02Z</time></trkpt><trkpt lat="44.41543073572513" lon="8.956013305952492"><ele>25.0</ele><time>2026-04-19T07:59:03Z</time></trkpt><trkpt lat="44.41549754011825" lon="8.955924407764495"><ele>25.0</ele><time>2026-04-19T07:59:04Z</time></trkpt><trkpt lat="44.41559014763597" lon="8.955810776927997"><ele>25.0</ele><time>2026-04-19T07:59:05Z</time></trkpt><trkpt lat="44.41566638970977" lon="8.955708762061551"><ele>25.0</ele><time>2026-04-19T07:59:06Z</time></trkpt><trkpt lat="44.41572398067674" lon="8.955637076874197"><ele>24.333333333333336</ele><time>2026-04-19T07:59:07Z</time></trkpt><trkpt lat="44.415785394742805" lon="8.955558995825333"><ele>23.666666666666668</ele><time>2026-04-19T07:59:08Z</time></trkpt><trkpt lat="44.415855694912764" lon="8.955461784363848"><ele>23.0</ele><time>2026-04-19T07:59:09Z</time></trkpt><trkpt lat="44.41592210963255" lon="8.955389078497788"><ele>22.333333333333336</ele><time>2026-04-19T07:59:10Z</time></trkpt><trkpt lat="44.41597309782154" lon="8.955331824359947"><ele>21.666666666666668</ele><time>2026-04-19T07:59:11Z</time></trkpt><trkpt lat="44.416031855706336" lon="8.955255162376318"><ele>21.0</ele><time>2026-04-19T07:59:12Z</time></trkpt><trkpt lat="44.41610176463068" lon="8.955171614042262"><ele>21.0</ele><time>2026-04-19T07:59:13Z</time></trkpt><trkpt lat="44.41617459618122" lon="8.955067746220863"><ele>21.0</ele><time>2026-04-19T07:59:15Z</time></trkpt><trkpt lat="44.416249681686935" lon="8.954971983999576"><ele>21.0</ele><time>2026-04-19T07:59:17Z</time></trkpt><trkpt lat="44.41631240043796" lon="8.954887272008918"><ele>21.0</ele><time>2026-04-19T07:59:21Z</time></trkpt><trkpt lat="44.41640446232339" lon="8.954765472414175"><ele>21.0</ele><time>2026-04-19T07:59:23Z</time></trkpt><trkpt lat="44.41649117340652" lon="8.954680425689032"><ele>21.666666666666668</ele><time>2026-04-19T07:59:25Z</time></trkpt><trkpt lat="44.4165663887476" lon="8.95458591909122"><ele>22.333333333333336</ele><time>2026-04-19T07:59:27Z</time></trkpt><trkpt lat="44.41661593420104" lon="8.954523666053968"><ele>23.0</ele><time>2026-04-19T07:59:28Z</time></trkpt><trkpt lat="44.41666467451819" lon="8.95446242485507"><ele>23.666666666666668</ele><time>2026-04-19T07:59:29Z</time></trkpt><trkpt lat="44.41673904347764" lon="8.954368979182119"><ele>24.333333333333336</ele><time>2026-04-19T07:59:31Z</time></trkpt><trkpt lat="44.41679995577558" lon="8.954292438751146"><ele>25.0</ele><time>2026-04-19T07:59:33Z</time></trkpt><trkpt lat="44.416853970426374" lon="8.954224786651558"><ele>24.833333333333336</ele><time>2026-04-19T07:59:35Z</time></trkpt><trkpt lat="44.416902604461605" lon="8.95416375048598"><ele>24.666666666666668</ele><time>2026-04-19T08:00:06.999Z</time></trkpt><trkpt lat="44.41698719476385" lon="8.954041084696737"><ele>24.5</ele><time>2026-04-19T08:00:08.999Z</time></trkpt><trkpt lat="44.41705962305946" lon="8.953989524246094"><ele>24.333333333333336</ele><time>2026-04-19T08:00:09.999Z</time></trkpt><trkpt lat="44.41710935873183" lon="8.95392309165798"><ele>24.166666666666668</ele><time>2026-04-19T08:00:10.999Z</time></trkpt><trkpt lat="44.41716818455763" lon="8.95385292827052"><ele>24.0</ele><time>2026-04-19T08:00:11.999Z</time></trkpt><trkpt lat="44.417229642149074" lon="8.953773135538635"><ele>23.799999999999997</ele><time>2026-04-19T08:00:12.999Z</time></trkpt><trkpt lat="44.41729683746586" lon="8.953687770710147"><ele>23.599999999999998</ele><time>2026-04-19T08:00:13.999Z</time></trkpt><trkpt lat="44.417367504315486" lon="8.953589332736078"><ele>23.4</ele><time>2026-04-19T08:00:14.999Z</time></trkpt><trkpt lat="44.41743861823168" lon="8.953499945486664"><ele>23.2</ele><time>2026-04-19T08:00:15.999Z</time></trkpt><trkpt lat="44.41751244956866" lon="8.953411592487464"><ele>23.0</ele><time>2026-04-19T08:00:16.999Z</time></trkpt><trkpt lat="44.41758626053589" lon="8.953333260755526"><ele>22.799999999999997</ele><time>2026-04-19T08:00:17.999Z</time></trkpt><trkpt lat="44.417650929419125" lon="8.953240010919114"><ele>22.6</ele><time>2026-04-19T08:00:18.999Z</time></trkpt><trkpt lat="44.417739002809284" lon="8.95315023044726"><ele>22.4</ele><time>2026-04-19T08:00:19.999Z</time></trkpt><trkpt lat="44.41780996466813" lon="8.953043323820776"><ele>22.200000000000003</ele><time>2026-04-19T08:00:20.999Z</time></trkpt><trkpt lat="44.41789278920782" lon="8.952936250269632"><ele>22.0</ele><time>2026-04-19T08:00:21.999Z</time></trkpt><trkpt lat="44.41797610664985" lon="8.952840786992606"><ele>22.8</ele><time>2026-04-19T08:00:22.999Z</time></trkpt><trkpt lat="44.41805528337089" lon="8.952736889681022"><ele>23.6</ele><time>2026-04-19T08:00:23.999Z</time></trkpt><trkpt lat="44.41814128279506" lon="8.952639523494032"><ele>24.400000000000002</ele><time>2026-04-19T08:00:24.999Z</time></trkpt><trkpt lat="44.418215233996605" lon="8.9525431679495"><ele>25.200000000000003</ele><time>2026-04-19T08:00:25.999Z</time></trkpt><trkpt lat="44.41828483971287" lon="8.952456260929216"><ele>26.0</ele><time>2026-04-19T08:00:26.999Z</time></trkpt><trkpt lat="44.418340554887514" lon="8.952384453625475"><ele>25.999999999999996</ele><time>2026-04-19T08:00:27.999Z</time></trkpt><trkpt lat="44.41839356312876" lon="8.952307517164519"><ele>26.0</ele><time>2026-04-19T08:00:28.999Z</time></trkpt><trkpt lat="44.41844338514848" lon="8.952239009839127"><ele>26.0</ele><time>2026-04-19T08:00:29.999Z</time></trkpt><trkpt lat="44.41850814206542" lon="8.952155931571886"><ele>26.0</ele><time>2026-04-19T08:00:31.999Z</time></trkpt><trkpt lat="44.41855434145077" lon="8.952093365794287"><ele>25.999999999999996</ele><time>2026-04-19T08:00:39.999Z</time></trkpt><trkpt lat="44.418624767758445" lon="8.951999795321225"><ele>26.0</ele><time>2026-04-19T08:00:43.999Z</time></trkpt><trkpt lat="44.4186915796247" lon="8.951918320681742"><ele>26.0</ele><time>2026-04-19T08:00:44.999Z</time></trkpt><trkpt lat="44.41876589255054" lon="8.951821603571325"><ele>26.0</ele><time>2026-04-19T08:00:45.999Z</time></trkpt><trkpt lat="44.418839929087405" lon="8.951732035062708"><ele>26.0</ele><time>2026-04-19T08:00:46.999Z</time></trkpt><trkpt lat="44.41893390275703" lon="8.95161713993829"><ele>26.0</ele><time>2026-04-19T08:00:47.999Z</time></trkpt><trkpt lat="44.41902974603516" lon="8.951498583477226"><ele>26.5</ele><time>2026-04-19T08:00:48.999Z</time></trkpt><trkpt lat="44.41913171012157" lon="8.951371102464362"><ele>27.0</ele><time>2026-04-19T08:00:49.999Z</time></trkpt><trkpt lat="44.41923066401105" lon="8.951242290077118"><ele>27.5</ele><time>2026-04-19T08:00:50.999Z</time></trkpt><trkpt lat="44.419329457830294" lon="8.951122600363274"><ele>28.0</ele><time>2026-04-19T08:00:51.999Z</time></trkpt><trkpt lat="44.419417634273785" lon="8.951014228099302"><ele>28.0</ele><time>2026-04-19T08:00:52.999Z</time></trkpt><trkpt lat="44.41950802554666" lon="8.950897877005497"><ele>28.0</ele><time>2026-04-19T08:00:53.999Z</time></trkpt><trkpt lat="44.4196089272483" lon="8.9507671328728"><ele>28.0</ele><time>2026-04-19T08:00:54.999Z</time></trkpt><trkpt lat="44.419716834489705" lon="8.950624241011038"><ele>28.0</ele><time>2026-04-19T08:00:55.999Z</time></trkpt><trkpt lat="44.419818392571806" lon="8.950496425785"><ele>28.25</ele><time>2026-04-19T08:00:56.999Z</time></trkpt><trkpt lat="44.41991730037637" lon="8.950371492812254"><ele>28.5</ele><time>2026-04-19T08:00:57.999Z</time></trkpt><trkpt lat="44.42002332885878" lon="8.950240760810821"><ele>28.75</ele><time>2026-04-19T08:00:58.999Z</time></trkpt><trkpt lat="44.42012295095008" lon="8.950118560623986"><ele>29.0</ele><time>2026-04-19T08:00:59.999Z</time></trkpt><trkpt lat="44.42020966803384" lon="8.950006612693324"><ele>28.25</ele><time>2026-04-19T08:01:00.999Z</time></trkpt><trkpt lat="44.42029193354027" lon="8.949905521093907"><ele>27.5</ele><time>2026-04-19T08:01:02Z</time></trkpt><trkpt lat="44.420370569567126" lon="8.949815927418053"><ele>26.75</ele><time>2026-04-19T08:01:03Z</time></trkpt><trkpt lat="44.42045909113578" lon="8.949714265168959"><ele>26.0</ele><time>2026-04-19T08:01:04Z</time></trkpt><trkpt lat="44.42056855441169" lon="8.94961145201387"><ele>30.0</ele><time>2026-04-19T08:01:05Z</time></trkpt><trkpt lat="44.42068703201825" lon="8.949516187469339"><ele>34.0</ele><time>2026-04-19T08:01:06Z</time></trkpt><trkpt lat="44.42080588331788" lon="8.949413914918631"><ele>38.0</ele><time>2026-04-19T08:01:07Z</time></trkpt><trkpt lat="44.4209114862051" lon="8.949327595863345"><ele>42.0</ele><time>2026-04-19T08:01:08Z</time></trkpt><trkpt lat="44.42100722876091" lon="8.949245740365717"><ele>41.4</ele><time>2026-04-19T08:01:09Z</time></trkpt><trkpt lat="44.42110508741593" lon="8.94916278846785"><ele>40.800000000000004</ele><time>2026-04-19T08:01:10Z</time></trkpt><trkpt lat="44.421192488156464" lon="8.949090096179624"><ele>40.2</ele><time>2026-04-19T08:01:11Z</time></trkpt><trkpt lat="44.42126719390718" lon="8.94902738596456"><ele>39.6</ele><time>2026-04-19T08:01:12Z</time></trkpt><trkpt lat="44.4213402285576" lon="8.948964406639616"><ele>39.0</ele><time>2026-04-19T08:01:13Z</time></trkpt><trkpt lat="44.42142019504167" lon="8.948895386241874"><ele>39.0</ele><time>2026-04-19T08:01:14Z</time></trkpt><trkpt lat="44.42149368353342" lon="8.948835649020754"><ele>39.0</ele><time>2026-04-19T08:01:15Z</time></trkpt><trkpt lat="44.42156915106752" lon="8.948771903684467"><ele>39.0</ele><time>2026-04-19T08:01:16Z</time></trkpt><trkpt lat="44.42164874433112" lon="8.948705175280121"><ele>39.0</ele><time>2026-04-19T08:01:17Z</time></trkpt><trkpt lat="44.421733086681485" lon="8.9486349982103"><ele>39.0</ele><time>2026-04-19T08:01:18Z</time></trkpt><trkpt lat="44.421805581776226" lon="8.9485734382679"><ele>39.0</ele><time>2026-04-19T08:01:19Z</time></trkpt><trkpt lat="44.421878642837065" lon="8.948512739880877"><ele>39.0</ele><time>2026-04-19T08:01:20Z</time></trkpt><trkpt lat="44.421951547341024" lon="8.948452636137484"><ele>39.0</ele><time>2026-04-19T08:01:21Z</time></trkpt><trkpt lat="44.42201222671132" lon="8.948401496796619"><ele>39.0</ele><time>2026-04-19T08:01:22Z</time></trkpt><trkpt lat="44.422108616774416" lon="8.948318766915968"><ele>39.0</ele><time>2026-04-19T08:01:24Z</time></trkpt><trkpt lat="44.42220015877692" lon="8.948247009411682"><ele>39.0</ele><time>2026-04-19T08:01:26Z</time></trkpt><trkpt lat="44.42227372961146" lon="8.948224351620256"><ele>39.0</ele><time>2026-04-19T08:01:28Z</time></trkpt><trkpt lat="44.42235724632212" lon="8.948209662415243"><ele>36.833333333333336</ele><time>2026-04-19T08:01:30Z</time></trkpt><trkpt lat="44.42242579356432" lon="8.948196270335298"><ele>34.666666666666664</ele><time>2026-04-19T08:01:32Z</time></trkpt><trkpt lat="44.42249641809874" lon="8.948199612617502"><ele>32.5</ele><time>2026-04-19T08:02:14.999Z</time></trkpt><trkpt lat="44.42258238371335" lon="8.94821045158824"><ele>30.333333333333332</ele><time>2026-04-19T08:02:17.999Z</time></trkpt><trkpt lat="44.42267510339605" lon="8.948227797052798"><ele>28.166666666666664</ele><time>2026-04-19T08:02:19.999Z</time></trkpt><trkpt lat="44.422763935130526" lon="8.948244870852132"><ele>26.0</ele><time>2026-04-19T08:02:21.999Z</time></trkpt><trkpt lat="44.42284713309667" lon="8.948250134253632"><ele>26.0</ele><time>2026-04-19T08:02:23.999Z</time></trkpt><trkpt lat="44.42291078149685" lon="8.948211093984503"><ele>26.0</ele><time>2026-04-19T08:02:27.999Z</time></trkpt><trkpt lat="44.42300264357466" lon="8.948224535972251"><ele>26.0</ele><time>2026-04-19T08:02:31.999Z</time></trkpt><trkpt lat="44.423096189836144" lon="8.94823727793743"><ele>26.0</ele><time>2026-04-19T08:02:33.999Z</time></trkpt><trkpt lat="44.42322733074907" lon="8.94825448006118"><ele>26.0</ele><time>2026-04-19T08:02:35.999Z</time></trkpt><trkpt lat="44.42332406053426" lon="8.948267612581562"><ele>29.5</ele><time>2026-04-19T08:02:36.999Z</time></trkpt><trkpt lat="44.42341335018484" lon="8.948450634451348"><ele>33.0</ele><time>2026-04-19T08:02:37.999Z</time></trkpt><trkpt lat="44.42351092360713" lon="8.94851717353282"><ele>36.5</ele><time>2026-04-19T08:02:38.999Z</time></trkpt><trkpt lat="44.423606967964496" lon="8.94858228907722"><ele>40.0</ele><time>2026-04-19T08:02:39.999Z</time></trkpt><trkpt lat="44.42369474337727" lon="8.94864272215929"><ele>40.0</ele><time>2026-04-19T08:02:40.999Z</time></trkpt><trkpt lat="44.42379900769328" lon="8.948712157037276"><ele>40.0</ele><time>2026-04-19T08:02:41.999Z</time></trkpt><trkpt lat="44.42390431635528" lon="8.94878253828192"><ele>40.0</ele><time>2026-04-19T08:02:42.999Z</time></trkpt><trkpt lat="44.42402020023568" lon="8.948857388583079"><ele>40.0</ele><time>2026-04-19T08:02:43.999Z</time></trkpt><trkpt lat="44.42412800467372" lon="8.948931835288057"><ele>37.8</ele><time>2026-04-19T08:02:44.999Z</time></trkpt><trkpt lat="44.42423282315492" lon="8.949001325686986"><ele>35.6</ele><time>2026-04-19T08:02:45.999Z</time></trkpt><trkpt lat="44.424332172738445" lon="8.949066529815736"><ele>33.4</ele><time>2026-04-19T08:02:46.999Z</time></trkpt><trkpt lat="44.42442498340388" lon="8.949107618952192"><ele>31.2</ele><time>2026-04-19T08:02:47.999Z</time></trkpt><trkpt lat="44.42451835255715" lon="8.949162240827455"><ele>29.0</ele><time>2026-04-19T08:02:48.999Z</time></trkpt><trkpt lat="44.42460898362237" lon="8.949231086065714"><ele>30.4</ele><time>2026-04-19T08:02:49.999Z</time></trkpt><trkpt lat="44.424709530717614" lon="8.949286373286622"><ele>31.799999999999997</ele><time>2026-04-19T08:02:50.999Z</time></trkpt><trkpt lat="44.42480595906815" lon="8.949289576736525"><ele>33.2</ele><time>2026-04-19T08:02:51.999Z</time></trkpt><trkpt lat="44.4249200273379" lon="8.949303389000008"><ele>34.6</ele><time>2026-04-19T08:02:52.999Z</time></trkpt><trkpt lat="44.425016194701584" lon="8.949318768192592"><ele>36.0</ele><time>2026-04-19T08:02:53.999Z</time></trkpt><trkpt lat="44.425105903127836" lon="8.94934203331057"><ele>36.0</ele><time>2026-04-19T08:02:54.999Z</time></trkpt><trkpt lat="44.42520296047147" lon="8.949358902554646"><ele>36.0</ele><time>2026-04-19T08:02:55.999Z</time></trkpt><trkpt lat="44.425304394565956" lon="8.949390402691234"><ele>36.0</ele><time>2026-04-19T08:02:56.999Z</time></trkpt><trkpt lat="44.425426361195115" lon="8.949377345914902"><ele>36.0</ele><time>2026-04-19T08:02:57.999Z</time></trkpt><trkpt lat="44.42555109492144" lon="8.949393611862128"><ele>36.0</ele><time>2026-04-19T08:02:58.999Z</time></trkpt><trkpt lat="44.42567511041145" lon="8.94940941417694"><ele>36.0</ele><time>2026-04-19T08:02:59.999Z</time></trkpt><trkpt lat="44.42579824734078" lon="8.949425866693112"><ele>36.0</ele><time>2026-04-19T08:03:00.999Z</time></trkpt><trkpt lat="44.4259216436768" lon="8.949449644350254"><ele>36.0</ele><time>2026-04-19T08:03:01.999Z</time></trkpt><trkpt lat="44.42603849652877" lon="8.949474545733969"><ele>36.0</ele><time>2026-04-19T08:03:02.999Z</time></trkpt><trkpt lat="44.426149835856" lon="8.949498819825047"><ele>36.0</ele><time>2026-04-19T08:03:03.999Z</time></trkpt><trkpt lat="44.42624702519054" lon="8.94951346142985"><ele>36.0</ele><time>2026-04-19T08:03:04.999Z</time></trkpt><trkpt lat="44.426337184260895" lon="8.94953469299326"><ele>36.0</ele><time>2026-04-19T08:03:05.999Z</time></trkpt><trkpt lat="44.426423838227734" lon="8.949558738593797"><ele>36.0</ele><time>2026-04-19T08:03:06.999Z</time></trkpt><trkpt lat="44.42650218532417" lon="8.94955640336679"><ele>36.0</ele><time>2026-04-19T08:03:08Z</time></trkpt><trkpt lat="44.42657632621284" lon="8.949588752854751"><ele>36.0</ele><time>2026-04-19T08:03:09Z</time></trkpt><trkpt lat="44.4267016144356" lon="8.949584893260726"><ele>35.0</ele><time>2026-04-19T08:03:11Z</time></trkpt><trkpt lat="44.42676657782042" lon="8.949594173748366"><ele>34.0</ele><time>2026-04-19T08:03:12Z</time></trkpt><trkpt lat="44.42688611578668" lon="8.949861090464353"><ele>33.0</ele><time>2026-04-19T08:03:14Z</time></trkpt><trkpt lat="44.42695941700955" lon="8.949997166844797"><ele>32.0</ele><time>2026-04-19T08:03:15Z</time></trkpt><trkpt lat="44.427032747214334" lon="8.95014789189721"><ele>34.5</ele><time>2026-04-19T08:03:16Z</time></trkpt><trkpt lat="44.42710123554013" lon="8.950312105200123"><ele>37.0</ele><time>2026-04-19T08:03:17Z</time></trkpt><trkpt lat="44.42715587418076" lon="8.95046494937905"><ele>39.5</ele><time>2026-04-19T08:03:18Z</time></trkpt><trkpt lat="44.42721283034568" lon="8.950629837737788"><ele>42.0</ele><time>2026-04-19T08:03:19Z</time></trkpt><trkpt lat="44.427271274118084" lon="8.950791063857721"><ele>38.5</ele><time>2026-04-19T08:03:20Z</time></trkpt><trkpt lat="44.42731171865766" lon="8.95096523802069"><ele>35.0</ele><time>2026-04-19T08:03:21Z</time></trkpt><trkpt lat="44.42734132972127" lon="8.951154779806371"><ele>31.5</ele><time>2026-04-19T08:03:22Z</time></trkpt><trkpt lat="44.42738180227203" lon="8.95135285717276"><ele>28.0</ele><time>2026-04-19T08:03:23Z</time></trkpt><trkpt lat="44.42742198589503" lon="8.951537086777519"><ele>31.25</ele><time>2026-04-19T08:03:24Z</time></trkpt><trkpt lat="44.42746552399763" lon="8.951717095081474"><ele>34.5</ele><time>2026-04-19T08:03:25Z</time></trkpt><trkpt lat="44.42750990176982" lon="8.951905697841765"><ele>37.75</ele><time>2026-04-19T08:03:26Z</time></trkpt><trkpt lat="44.42756492215223" lon="8.952112742860551"><ele>41.0</ele><time>2026-04-19T08:03:27Z</time></trkpt><trkpt lat="44.42761912169397" lon="8.952326332943356"><ele>41.0</ele><time>2026-04-19T08:03:28Z</time></trkpt><trkpt lat="44.427659655989224" lon="8.95252958573793"><ele>41.0</ele><time>2026-04-19T08:03:29Z</time></trkpt><trkpt lat="44.427696750026215" lon="8.952723440598271"><ele>41.0</ele><time>2026-04-19T08:03:30Z</time></trkpt><trkpt lat="44.427733453177524" lon="8.95291266476816"><ele>41.0</ele><time>2026-04-19T08:03:31Z</time></trkpt><trkpt lat="44.42777465050509" lon="8.953111218011472"><ele>44.25</ele><time>2026-04-19T08:03:32Z</time></trkpt><trkpt lat="44.42781947416833" lon="8.953302233135664"><ele>47.5</ele><time>2026-04-19T08:03:33Z</time></trkpt><trkpt lat="44.42786407111043" lon="8.953498307280364"><ele>50.75</ele><time>2026-04-19T08:03:34Z</time></trkpt><trkpt lat="44.42790766554422" lon="8.95370793970129"><ele>54.0</ele><time>2026-04-19T08:03:35Z</time></trkpt><trkpt lat="44.42795805220936" lon="8.953919652803952"><ele>48.25</ele><time>2026-04-19T08:03:36Z</time></trkpt><trkpt lat="44.42800543887689" lon="8.954120429096866"><ele>42.5</ele><time>2026-04-19T08:03:37Z</time></trkpt><trkpt lat="44.42806432810748" lon="8.954306974918072"><ele>36.75</ele><time>2026-04-19T08:03:38Z</time></trkpt><trkpt lat="44.42812831333978" lon="8.954492200205847"><ele>31.0</ele><time>2026-04-19T08:03:39Z</time></trkpt><trkpt lat="44.42819050112946" lon="8.954674307075978"><ele>31.0</ele><time>2026-04-19T08:03:40Z</time></trkpt><trkpt lat="44.42826056832604" lon="8.954860728804288"><ele>31.0</ele><time>2026-04-19T08:03:41Z</time></trkpt><trkpt lat="44.428337427014355" lon="8.955047593887704"><ele>31.0</ele><time>2026-04-19T08:03:42Z</time></trkpt><trkpt lat="44.42841573566826" lon="8.955234988458916"><ele>32.5</ele><time>2026-04-19T08:03:43Z</time></trkpt><trkpt lat="44.4284947419116" lon="8.955405404732124"><ele>34.0</ele><time>2026-04-19T08:03:44Z</time></trkpt><trkpt lat="44.42856721277926" lon="8.955581488873753"><ele>35.5</ele><time>2026-04-19T08:03:45Z</time></trkpt><trkpt lat="44.4286477882086" lon="8.955756089636763"><ele>37.0</ele><time>2026-04-19T08:03:46Z</time></trkpt><trkpt lat="44.428732196037515" lon="8.95592722137909"><ele>34.5</ele><time>2026-04-19T08:03:47Z</time></trkpt><trkpt lat="44.428823542823075" lon="8.956095269169815"><ele>32.0</ele><time>2026-04-19T08:03:48Z</time></trkpt><trkpt lat="44.428912131971806" lon="8.956253501264564"><ele>29.5</ele><time>2026-04-19T08:03:49Z</time></trkpt><trkpt lat="44.4289962008128" lon="8.956400090757548"><ele>27.0</ele><time>2026-04-19T08:03:50Z</time></trkpt><trkpt lat="44.42907649917284" lon="8.956540246641179"><ele>27.0</ele><time>2026-04-19T08:03:51Z</time></trkpt><trkpt lat="44.42915367365522" lon="8.956667439062125"><ele>27.0</ele><time>2026-04-19T08:03:52Z</time></trkpt><trkpt lat="44.42923309613079" lon="8.956782959750061"><ele>27.0</ele><time>2026-04-19T08:03:53Z</time></trkpt><trkpt lat="44.42931467600954" lon="8.956894752636838"><ele>27.0</ele><time>2026-04-19T08:03:54Z</time></trkpt><trkpt lat="44.42940044834464" lon="8.957011866508465"><ele>26.75</ele><time>2026-04-19T08:03:55Z</time></trkpt><trkpt lat="44.42949173745815" lon="8.957132839814568"><ele>26.5</ele><time>2026-04-19T08:03:56Z</time></trkpt><trkpt lat="44.4295754735297" lon="8.95723986300268"><ele>26.25</ele><time>2026-04-19T08:03:57Z</time></trkpt><trkpt lat="44.429658193242794" lon="8.957342742904606"><ele>26.0</ele><time>2026-04-19T08:03:58Z</time></trkpt><trkpt lat="44.429744307917005" lon="8.957447430342324"><ele>26.4</ele><time>2026-04-19T08:03:59Z</time></trkpt><trkpt lat="44.42983262149092" lon="8.957558169967589"><ele>26.8</ele><time>2026-04-19T08:04:00Z</time></trkpt><trkpt lat="44.42991079013741" lon="8.957657252866426"><ele>27.199999999999996</ele><time>2026-04-19T08:04:01Z</time></trkpt><trkpt lat="44.42998517107538" lon="8.957746956236344"><ele>27.599999999999998</ele><time>2026-04-19T08:04:02Z</time></trkpt><trkpt lat="44.43005613704535" lon="8.95782911344946"><ele>28.0</ele><time>2026-04-19T08:04:03Z</time></trkpt><trkpt lat="44.430117801894326" lon="8.957904847588871"><ele>28.0</ele><time>2026-04-19T08:04:04Z</time></trkpt><trkpt lat="44.43018366221085" lon="8.957979996002463"><ele>27.999999999999996</ele><time>2026-04-19T08:04:05Z</time></trkpt><trkpt lat="44.4302561442546" lon="8.958065370221748"><ele>27.999999999999996</ele><time>2026-04-19T08:04:06Z</time></trkpt><trkpt lat="44.43033548398567" lon="8.958156002273569"><ele>28.0</ele><time>2026-04-19T08:04:07Z</time></trkpt><trkpt lat="44.43043020465477" lon="8.95826030845377"><ele>28.0</ele><time>2026-04-19T08:04:08Z</time></trkpt><trkpt lat="44.43053713824775" lon="8.9583770414485"><ele>29.0</ele><time>2026-04-19T08:04:09Z</time></trkpt><trkpt lat="44.43063303874798" lon="8.958482386586505"><ele>30.0</ele><time>2026-04-19T08:04:10Z</time></trkpt><trkpt lat="44.43073968920073" lon="8.958606927756593"><ele>31.0</ele><time>2026-04-19T08:04:11Z</time></trkpt><trkpt lat="44.430847435161205" lon="8.958730187959677"><ele>32.0</ele><time>2026-04-19T08:04:12Z</time></trkpt><trkpt lat="44.430943072679554" lon="8.958838475081928"><ele>32.0</ele><time>2026-04-19T08:04:12.999Z</time></trkpt><trkpt lat="44.43104525708681" lon="8.958945497158807"><ele>32.0</ele><time>2026-04-19T08:04:13.999Z</time></trkpt><trkpt lat="44.43113892226191" lon="8.959059050533845"><ele>32.0</ele><time>2026-04-19T08:04:14.999Z</time></trkpt><trkpt lat="44.43123191492054" lon="8.959168628785937"><ele>32.0</ele><time>2026-04-19T08:04:15.999Z</time></trkpt><trkpt lat="44.43132369374781" lon="8.959278824556524"><ele>31.75</ele><time>2026-04-19T08:04:16.999Z</time></trkpt><trkpt lat="44.43142242816732" lon="8.959394206278727"><ele>31.5</ele><time>2026-04-19T08:04:17.999Z</time></trkpt><trkpt lat="44.43152584232072" lon="8.959518462560412"><ele>31.25</ele><time>2026-04-19T08:04:18.999Z</time></trkpt><trkpt lat="44.431633758588774" lon="8.95965271031427"><ele>31.0</ele><time>2026-04-19T08:04:19.999Z</time></trkpt><trkpt lat="44.43173189197243" lon="8.95976683122282"><ele>31.0</ele><time>2026-04-19T08:04:20.999Z</time></trkpt><trkpt lat="44.43183310594265" lon="8.959886336071762"><ele>31.0</ele><time>2026-04-19T08:04:21.999Z</time></trkpt><trkpt lat="44.43194010864641" lon="8.96002256306767"><ele>31.0</ele><time>2026-04-19T08:04:22.999Z</time></trkpt><trkpt lat="44.43205033126384" lon="8.960160092421171"><ele>31.0</ele><time>2026-04-19T08:04:23.999Z</time></trkpt><trkpt lat="44.4321626205651" lon="8.960296347698717"><ele>31.5</ele><time>2026-04-19T08:04:24.999Z</time></trkpt><trkpt lat="44.43226429261756" lon="8.960417798744444"><ele>32.0</ele><time>2026-04-19T08:04:25.999Z</time></trkpt><trkpt lat="44.432366561322404" lon="8.96052968119476"><ele>32.5</ele><time>2026-04-19T08:04:26.999Z</time></trkpt><trkpt lat="44.43247261879469" lon="8.960640765934047"><ele>33.0</ele><time>2026-04-19T08:04:27.999Z</time></trkpt><trkpt lat="44.432586379102645" lon="8.960775117111401"><ele>32.5</ele><time>2026-04-19T08:04:28.999Z</time></trkpt><trkpt lat="44.4327069028476" lon="8.960915180434062"><ele>32.0</ele><time>2026-04-19T08:04:29.999Z</time></trkpt><trkpt lat="44.43281315220651" lon="8.961031153242269"><ele>31.5</ele><time>2026-04-19T08:04:30.999Z</time></trkpt><trkpt lat="44.43291929056036" lon="8.961152642987106"><ele>31.0</ele><time>2026-04-19T08:04:31.999Z</time></trkpt><trkpt lat="44.43303689980915" lon="8.96127722974473"><ele>31.0</ele><time>2026-04-19T08:04:32.999Z</time></trkpt><trkpt lat="44.43315280234746" lon="8.961394173890586"><ele>31.0</ele><time>2026-04-19T08:04:33.999Z</time></trkpt><trkpt lat="44.43329172320869" lon="8.961524456475692"><ele>31.0</ele><time>2026-04-19T08:04:34.999Z</time></trkpt><trkpt lat="44.4334066039647" lon="8.961631764970468"><ele>31.0</ele><time>2026-04-19T08:04:35.999Z</time></trkpt><trkpt lat="44.43353751496149" lon="8.961752159506307"><ele>31.0</ele><time>2026-04-19T08:04:36.999Z</time></trkpt><trkpt lat="44.43366222616901" lon="8.961855010353851"><ele>31.0</ele><time>2026-04-19T08:04:37.999Z</time></trkpt><trkpt lat="44.43379042809445" lon="8.961959002052778"><ele>31.0</ele><time>2026-04-19T08:04:38.999Z</time></trkpt><trkpt lat="44.433926149605526" lon="8.962055299225012"><ele>31.0</ele><time>2026-04-19T08:04:39.999Z</time></trkpt><trkpt lat="44.434064700329095" lon="8.962144529960382"><ele>31.0</ele><time>2026-04-19T08:04:40.999Z</time></trkpt><trkpt lat="44.43419793113442" lon="8.96226436232196"><ele>31.0</ele><time>2026-04-19T08:04:41.999Z</time></trkpt><trkpt lat="44.434340399623174" lon="8.962336912575847"><ele>31.0</ele><time>2026-04-19T08:04:42.999Z</time></trkpt><trkpt lat="44.434469584142334" lon="8.962414533506186"><ele>31.0</ele><time>2026-04-19T08:04:43.999Z</time></trkpt><trkpt lat="44.4345897818199" lon="8.962491215320973"><ele>31.0</ele><time>2026-04-19T08:04:44.999Z</time></trkpt><trkpt lat="44.434695418442345" lon="8.962563889615808"><ele>31.0</ele><time>2026-04-19T08:04:45.999Z</time></trkpt><trkpt lat="44.43478608143734" lon="8.962622657060521"><ele>31.0</ele><time>2026-04-19T08:04:46.999Z</time></trkpt><trkpt lat="44.4348896172442" lon="8.962673220898372"><ele>32.75</ele><time>2026-04-19T08:04:47.999Z</time></trkpt><trkpt lat="44.435004216111295" lon="8.962721988747203"><ele>34.5</ele><time>2026-04-19T08:04:48.999Z</time></trkpt><trkpt lat="44.435115969635746" lon="8.962773234578089"><ele>36.25</ele><time>2026-04-19T08:04:49.999Z</time></trkpt><trkpt lat="44.435223383708355" lon="8.962825032403638"><ele>38.0</ele><time>2026-04-19T08:04:50.999Z</time></trkpt><trkpt lat="44.435316425153" lon="8.962870886069565"><ele>38.0</ele><time>2026-04-19T08:04:51.999Z</time></trkpt><trkpt lat="44.43540730209661" lon="8.962903224079412"><ele>38.0</ele><time>2026-04-19T08:04:52.999Z</time></trkpt><trkpt lat="44.435486754946965" lon="8.962931624899326"><ele>38.0</ele><time>2026-04-19T08:04:53.999Z</time></trkpt><trkpt lat="44.43556534991609" lon="8.962974831886703"><ele>38.0</ele><time>2026-04-19T08:04:55.999Z</time></trkpt><trkpt lat="44.43562086354644" lon="8.963020276782064"><ele>38.0</ele><time>2026-04-19T08:04:58.999Z</time></trkpt><trkpt lat="44.435671617769195" lon="8.963107291450987"><ele>38.0</ele><time>2026-04-19T08:05:00.999Z</time></trkpt><trkpt lat="44.43569403506667" lon="8.963206124725206"><ele>37.0</ele><time>2026-04-19T08:05:01.999Z</time></trkpt><trkpt lat="44.43575362333979" lon="8.963272290465815"><ele>36.0</ele><time>2026-04-19T08:05:02.999Z</time></trkpt><trkpt lat="44.43583838989081" lon="8.963313781903064"><ele>35.0</ele><time>2026-04-19T08:05:03.999Z</time></trkpt><trkpt lat="44.43593819322249" lon="8.963248519953074"><ele>34.0</ele><time>2026-04-19T08:05:04.999Z</time></trkpt><trkpt lat="44.43607082190046" lon="8.963218614052588"><ele>33.0</ele><time>2026-04-19T08:05:05.999Z</time></trkpt><trkpt lat="44.43621277734248" lon="8.963206896301816"><ele>33.5</ele><time>2026-04-19T08:05:06.999Z</time></trkpt><trkpt lat="44.436364794291656" lon="8.963214067447602"><ele>34.0</ele><time>2026-04-19T08:05:07.999Z</time></trkpt><trkpt lat="44.43649761758796" lon="8.963233896395051"><ele>34.5</ele><time>2026-04-19T08:05:08.999Z</time></trkpt><trkpt lat="44.43663625816615" lon="8.963255252318842"><ele>35.0</ele><time>2026-04-19T08:05:09.999Z</time></trkpt><trkpt lat="44.43680888312121" lon="8.9632796993139"><ele>35.0</ele><time>2026-04-19T08:05:10.999Z</time></trkpt><trkpt lat="44.43697486375645" lon="8.963302449784804"><ele>35.0</ele><time>2026-04-19T08:05:11.999Z</time></trkpt><trkpt lat="44.43711169935078" lon="8.963325365689172"><ele>35.0</ele><time>2026-04-19T08:05:12.999Z</time></trkpt><trkpt lat="44.43725058824265" lon="8.963352326208241"><ele>35.0</ele><time>2026-04-19T08:05:14Z</time></trkpt><trkpt lat="44.4374129896104" lon="8.963383905919798"><ele>36.0</ele><time>2026-04-19T08:05:15Z</time></trkpt><trkpt lat="44.4375674501697" lon="8.963415908963796"><ele>37.0</ele><time>2026-04-19T08:05:16Z</time></trkpt><trkpt lat="44.4377182381578" lon="8.96345192080775"><ele>38.0</ele><time>2026-04-19T08:05:17Z</time></trkpt><trkpt lat="44.43787223937916" lon="8.963493192869796"><ele>38.0</ele><time>2026-04-19T08:05:18Z</time></trkpt><trkpt lat="44.438040742752456" lon="8.963550986848615"><ele>38.0</ele><time>2026-04-19T08:05:19Z</time></trkpt><trkpt lat="44.43820106132332" lon="8.963609368817007"><ele>38.0</ele><time>2026-04-19T08:05:20Z</time></trkpt><trkpt lat="44.43835601733407" lon="8.963660829158663"><ele>38.0</ele><time>2026-04-19T08:05:21Z</time></trkpt><trkpt lat="44.43852749291069" lon="8.963696355260305"><ele>38.0</ele><time>2026-04-19T08:05:22Z</time></trkpt><trkpt lat="44.43838116360058" lon="8.963624320593544"><ele>38.0</ele><time>2026-04-19T08:05:23Z</time></trkpt><trkpt lat="44.438463277179345" lon="8.963652660523902"><ele>38.0</ele><time>2026-04-19T08:05:24Z</time></trkpt><trkpt lat="44.43853053720642" lon="8.96368159250682"><ele>38.0</ele><time>2026-04-19T08:05:25Z</time></trkpt><trkpt lat="44.4386041875234" lon="8.963691922018443"><ele>38.0</ele><time>2026-04-19T08:05:27Z</time></trkpt><trkpt lat="44.438680921586176" lon="8.963671316732107"><ele>38.0</ele><time>2026-04-19T08:05:54Z</time></trkpt><trkpt lat="44.4387618903766" lon="8.96369682508948"><ele>38.0</ele><time>2026-04-19T08:05:55Z</time></trkpt><trkpt lat="44.43883206131943" lon="8.963715328346929"><ele>38.0</ele><time>2026-04-19T08:05:56Z</time></trkpt><trkpt lat="44.438913173598735" lon="8.963745014431801"><ele>38.0</ele><time>2026-04-19T08:05:57Z</time></trkpt><trkpt lat="44.43900411481379" lon="8.963773961979246"><ele>37.83333333333333</ele><time>2026-04-19T08:05:58Z</time></trkpt><trkpt lat="44.43910330889797" lon="8.963815503540806"><ele>37.666666666666664</ele><time>2026-04-19T08:05:59Z</time></trkpt><trkpt lat="44.439189391085506" lon="8.963844898075466"><ele>37.5</ele><time>2026-04-19T08:06:00Z</time></trkpt><trkpt lat="44.43926673271702" lon="8.963869238761742"><ele>37.333333333333336</ele><time>2026-04-19T08:06:01Z</time></trkpt><trkpt lat="44.439347745473896" lon="8.963892451353447"><ele>37.16666666666667</ele><time>2026-04-19T08:06:02Z</time></trkpt><trkpt lat="44.43941760755889" lon="8.963913245038457"><ele>37.0</ele><time>2026-04-19T08:06:03Z</time></trkpt><trkpt lat="44.439479744457074" lon="8.963935671824702"><ele>37.0</ele><time>2026-04-19T08:06:04Z</time></trkpt><trkpt lat="44.43955096652671" lon="8.963962851940975"><ele>37.0</ele><time>2026-04-19T08:06:06Z</time></trkpt><trkpt lat="44.439665534577124" lon="8.96400315039571"><ele>37.0</ele><time>2026-04-19T08:06:22.999Z</time></trkpt><trkpt lat="44.43975543832897" lon="8.964035978861368"><ele>37.0</ele><time>2026-04-19T08:06:23.999Z</time></trkpt><trkpt lat="44.43985091402722" lon="8.964071004419262"><ele>37.0</ele><time>2026-04-19T08:06:24.999Z</time></trkpt><trkpt lat="44.43996678159268" lon="8.964105690243048"><ele>37.25</ele><time>2026-04-19T08:06:25.999Z</time></trkpt><trkpt lat="44.44008077519416" lon="8.9641453784883"><ele>37.5</ele><time>2026-04-19T08:06:26.999Z</time></trkpt><trkpt lat="44.44019477197795" lon="8.964185533091017"><ele>37.75</ele><time>2026-04-19T08:06:27.999Z</time></trkpt><trkpt lat="44.4403121019649" lon="8.964233955987583"><ele>38.0</ele><time>2026-04-19T08:06:28.999Z</time></trkpt><trkpt lat="44.44041394624897" lon="8.964279244590683"><ele>38.599999999999994</ele><time>2026-04-19T08:06:29.999Z</time></trkpt><trkpt lat="44.44051296247018" lon="8.964328058919422"><ele>39.199999999999996</ele><time>2026-04-19T08:06:30.999Z</time></trkpt><trkpt lat="44.44062411976573" lon="8.964381503183233"><ele>39.8</ele><time>2026-04-19T08:06:31.999Z</time></trkpt><trkpt lat="44.44073065067263" lon="8.964441507241828"><ele>40.4</ele><time>2026-04-19T08:06:32.999Z</time></trkpt><trkpt lat="44.4408217653851" lon="8.96449188755812"><ele>41.0</ele><time>2026-04-19T08:06:33.999Z</time></trkpt><trkpt lat="44.44090735666731" lon="8.964546548821525"><ele>41.0</ele><time>2026-04-19T08:06:34.999Z</time></trkpt><trkpt lat="44.440992258910356" lon="8.96458996075302"><ele>41.0</ele><time>2026-04-19T08:06:35.999Z</time></trkpt><trkpt lat="44.44106855270467" lon="8.964634003983104"><ele>41.0</ele><time>2026-04-19T08:06:36.999Z</time></trkpt><trkpt lat="44.44113144395591" lon="8.964670531629789"><ele>41.0</ele><time>2026-04-19T08:06:37.999Z</time></trkpt><trkpt lat="44.44121757734715" lon="8.964726649883426"><ele>41.0</ele><time>2026-04-19T08:06:39.999Z</time></trkpt><trkpt lat="44.44127598461598" lon="8.964762305917791"><ele>41.0</ele><time>2026-04-19T08:06:57.999Z</time></trkpt><trkpt lat="44.44138582146364" lon="8.964841433992321"><ele>40.666666666666664</ele><time>2026-04-19T08:06:59.999Z</time></trkpt><trkpt lat="44.44145966760805" lon="8.964888234429779"><ele>40.33333333333333</ele><time>2026-04-19T08:07:00.999Z</time></trkpt><trkpt lat="44.441532385017446" lon="8.964932326349018"><ele>40.0</ele><time>2026-04-19T08:07:01.999Z</time></trkpt><trkpt lat="44.441594810709915" lon="8.964972614114231"><ele>39.666666666666664</ele><time>2026-04-19T08:07:02.999Z</time></trkpt><trkpt lat="44.44165971553685" lon="8.965011419074546"><ele>39.333333333333336</ele><time>2026-04-19T08:07:03.999Z</time></trkpt><trkpt lat="44.44171527836564" lon="8.965055439367092"><ele>39.0</ele><time>2026-04-19T08:07:04.999Z</time></trkpt><trkpt lat="44.44178419380446" lon="8.965177386013652"><ele>39.0</ele><time>2026-04-19T08:07:06.999Z</time></trkpt><trkpt lat="44.441821695050265" lon="8.96525442010546"><ele>39.0</ele><time>2026-04-19T08:07:07.999Z</time></trkpt><trkpt lat="44.44194731509646" lon="8.965321002975555"><ele>39.0</ele><time>2026-04-19T08:07:09.999Z</time></trkpt><trkpt lat="44.44204542739966" lon="8.965322379984197"><ele>39.0</ele><time>2026-04-19T08:07:10.999Z</time></trkpt><trkpt lat="44.44215400482593" lon="8.96535163052706"><ele>39.0</ele><time>2026-04-19T08:07:11.999Z</time></trkpt><trkpt lat="44.442258643457436" lon="8.965425250501387"><ele>39.5</ele><time>2026-04-19T08:07:12.999Z</time></trkpt><trkpt lat="44.44236932760534" lon="8.965518691600995"><ele>40.0</ele><time>2026-04-19T08:07:13.999Z</time></trkpt><trkpt lat="44.44249220068102" lon="8.965614122110445"><ele>40.5</ele><time>2026-04-19T08:07:14.999Z</time></trkpt><trkpt lat="44.44261232632306" lon="8.96571651966353"><ele>41.0</ele><time>2026-04-19T08:07:15.999Z</time></trkpt><trkpt lat="44.44273581649678" lon="8.965815738025672"><ele>41.25</ele><time>2026-04-19T08:07:16.999Z</time></trkpt><trkpt lat="44.44285380966693" lon="8.965920290229482"><ele>41.5</ele><time>2026-04-19T08:07:17.999Z</time></trkpt><trkpt lat="44.4429713690315" lon="8.966024400923207"><ele>41.75</ele><time>2026-04-19T08:07:18.999Z</time></trkpt><trkpt lat="44.44308195436908" lon="8.966115298983697"><ele>42.0</ele><time>2026-04-19T08:07:20Z</time></trkpt><trkpt lat="44.443198333841494" lon="8.966207806233585"><ele>42.0</ele><time>2026-04-19T08:07:21Z</time></trkpt><trkpt lat="44.4433168892695" lon="8.966305688751172"><ele>42.0</ele><time>2026-04-19T08:07:22Z</time></trkpt><trkpt lat="44.44343261103595" lon="8.966405711921334"><ele>42.0</ele><time>2026-04-19T08:07:23Z</time></trkpt><trkpt lat="44.44356080021843" lon="8.966518386654984"><ele>42.0</ele><time>2026-04-19T08:07:24Z</time></trkpt><trkpt lat="44.443687467011486" lon="8.96663868576979"><ele>42.0</ele><time>2026-04-19T08:07:25Z</time></trkpt><trkpt lat="44.44381364217818" lon="8.966755178344409"><ele>42.0</ele><time>2026-04-19T08:07:26Z</time></trkpt><trkpt lat="44.44393321419756" lon="8.966887682884224"><ele>42.0</ele><time>2026-04-19T08:07:27Z</time></trkpt><trkpt lat="44.44404992306808" lon="8.96702663017705"><ele>42.0</ele><time>2026-04-19T08:07:28Z</time></trkpt><trkpt lat="44.44415842596036" lon="8.967161668033981"><ele>42.0</ele><time>2026-04-19T08:07:29Z</time></trkpt><trkpt lat="44.4442640414616" lon="8.967297039886153"><ele>42.0</ele><time>2026-04-19T08:07:30Z</time></trkpt><trkpt lat="44.44437228917292" lon="8.967438068815422"><ele>42.0</ele><time>2026-04-19T08:07:31Z</time></trkpt><trkpt lat="44.44447971075712" lon="8.967573934317485"><ele>42.0</ele><time>2026-04-19T08:07:32Z</time></trkpt><trkpt lat="44.44458697779189" lon="8.96771313018201"><ele>42.0</ele><time>2026-04-19T08:07:33Z</time></trkpt><trkpt lat="44.444689204423256" lon="8.967853095729096"><ele>42.0</ele><time>2026-04-19T08:07:34Z</time></trkpt><trkpt lat="44.44479220184607" lon="8.967989930476731"><ele>42.0</ele><time>2026-04-19T08:07:35Z</time></trkpt><trkpt lat="44.444898165822174" lon="8.968132257520175"><ele>42.25</ele><time>2026-04-19T08:07:36Z</time></trkpt><trkpt lat="44.445006113603284" lon="8.968271136030758"><ele>42.5</ele><time>2026-04-19T08:07:37Z</time></trkpt><trkpt lat="44.445116783781245" lon="8.968407470057443"><ele>42.75</ele><time>2026-04-19T08:07:38Z</time></trkpt><trkpt lat="44.44522707099609" lon="8.968552246628814"><ele>43.0</ele><time>2026-04-19T08:07:39Z</time></trkpt><trkpt lat="44.44533307348992" lon="8.968697035793575"><ele>43.0</ele><time>2026-04-19T08:07:40Z</time></trkpt><trkpt lat="44.445441382682176" lon="8.968844136328741"><ele>43.0</ele><time>2026-04-19T08:07:41Z</time></trkpt><trkpt lat="44.44554489894858" lon="8.968978883188168"><ele>43.0</ele><time>2026-04-19T08:07:42Z</time></trkpt><trkpt lat="44.44564173590994" lon="8.969107628460758"><ele>43.0</ele><time>2026-04-19T08:07:43Z</time></trkpt><trkpt lat="44.44574374961637" lon="8.969244999035359"><ele>43.66666666666667</ele><time>2026-04-19T08:07:44Z</time></trkpt><trkpt lat="44.445852884490286" lon="8.969381126914662"><ele>44.333333333333336</ele><time>2026-04-19T08:07:45Z</time></trkpt><trkpt lat="44.445963685220505" lon="8.969524330868857"><ele>45.0</ele><time>2026-04-19T08:07:46Z</time></trkpt><trkpt lat="44.446078126637005" lon="8.969671387892832"><ele>45.0</ele><time>2026-04-19T08:07:47Z</time></trkpt><trkpt lat="44.446183386128915" lon="8.96980851248002"><ele>45.0</ele><time>2026-04-19T08:07:48Z</time></trkpt><trkpt lat="44.44629019730204" lon="8.969943801040863"><ele>45.0</ele><time>2026-04-19T08:07:49Z</time></trkpt><trkpt lat="44.44639139860041" lon="8.970078195486684"><ele>45.0</ele><time>2026-04-19T08:07:50Z</time></trkpt><trkpt lat="44.44649243975572" lon="8.97020693493817"><ele>45.0</ele><time>2026-04-19T08:07:51Z</time></trkpt><trkpt lat="44.446582660952224" lon="8.970324144411377"><ele>45.0</ele><time>2026-04-19T08:07:52Z</time></trkpt><trkpt lat="44.44666642778149" lon="8.970432478082163"><ele>45.0</ele><time>2026-04-19T08:07:53Z</time></trkpt><trkpt lat="44.4467442489028" lon="8.970531297928506"><ele>45.0</ele><time>2026-04-19T08:07:54Z</time></trkpt><trkpt lat="44.44681197718639" lon="8.970619492443705"><ele>45.0</ele><time>2026-04-19T08:07:55Z</time></trkpt><trkpt lat="44.446873732444494" lon="8.97069730089119"><ele>45.0</ele><time>2026-04-19T08:07:56Z</time></trkpt><trkpt lat="44.446930626340205" lon="8.970766974575909"><ele>45.0</ele><time>2026-04-19T08:07:57Z</time></trkpt><trkpt lat="44.44698574957397" lon="8.97082338522466"><ele>45.0</ele><time>2026-04-19T08:07:58Z</time></trkpt><trkpt lat="44.447065282325426" lon="8.970902100938284"><ele>45.0</ele><time>2026-04-19T08:08:00Z</time></trkpt><trkpt lat="44.4471489516194" lon="8.970999641860141"><ele>45.0</ele><time>2026-04-19T08:08:02Z</time></trkpt><trkpt lat="44.44723233058703" lon="8.971119499264342"><ele>45.333333333333336</ele><time>2026-04-19T08:08:04Z</time></trkpt><trkpt lat="44.44728353683727" lon="8.971190084572548"><ele>45.666666666666664</ele><time>2026-04-19T08:08:05Z</time></trkpt><trkpt lat="44.44733691220437" lon="8.971267894063025"><ele>46.0</ele><time>2026-04-19T08:08:06Z</time></trkpt><trkpt lat="44.44739345953344" lon="8.971340755251097"><ele>46.33333333333333</ele><time>2026-04-19T08:08:07Z</time></trkpt><trkpt lat="44.44745987431276" lon="8.971422412892927"><ele>46.666666666666664</ele><time>2026-04-19T08:08:08Z</time></trkpt><trkpt lat="44.44754726947692" lon="8.97152763240056"><ele>47.0</ele><time>2026-04-19T08:08:09Z</time></trkpt><trkpt lat="44.44764165050973" lon="8.971653824509858"><ele>46.5</ele><time>2026-04-19T08:08:10Z</time></trkpt><trkpt lat="44.44774536344819" lon="8.971782983970515"><ele>46.0</ele><time>2026-04-19T08:08:11Z</time></trkpt><trkpt lat="44.4478525102805" lon="8.971910865589775"><ele>45.5</ele><time>2026-04-19T08:08:12Z</time></trkpt><trkpt lat="44.44797306954469" lon="8.972047512443169"><ele>45.0</ele><time>2026-04-19T08:08:13Z</time></trkpt><trkpt lat="44.448110272163085" lon="8.972196190821139"><ele>45.0</ele><time>2026-04-19T08:08:14Z</time></trkpt><trkpt lat="44.44825221409904" lon="8.97235336615755"><ele>45.0</ele><time>2026-04-19T08:08:15Z</time></trkpt><trkpt lat="44.44838816712103" lon="8.972518826603812"><ele>45.0</ele><time>2026-04-19T08:08:16Z</time></trkpt><trkpt lat="44.4485154581325" lon="8.972688045827715"><ele>46.0</ele><time>2026-04-19T08:08:17Z</time></trkpt><trkpt lat="44.44863569536308" lon="8.97283584488018"><ele>47.0</ele><time>2026-04-19T08:08:18Z</time></trkpt><trkpt lat="44.44877157749677" lon="8.973000282130611"><ele>48.0</ele><time>2026-04-19T08:08:19Z</time></trkpt><trkpt lat="44.44896995870892" lon="8.973212346573064"><ele>50.66666666666667</ele><time>2026-04-19T08:08:20Z</time></trkpt><trkpt lat="44.44910958249158" lon="8.97338721919306"><ele>53.333333333333336</ele><time>2026-04-19T08:08:21Z</time></trkpt><trkpt lat="44.44924921153516" lon="8.973560026394898"><ele>56.0</ele><time>2026-04-19T08:08:22Z</time></trkpt><trkpt lat="44.44938450617282" lon="8.973729001250998"><ele>56.0</ele><time>2026-04-19T08:08:23Z</time></trkpt><trkpt lat="44.44950962897993" lon="8.973886411396489"><ele>56.0</ele><time>2026-04-19T08:08:24Z</time></trkpt><trkpt lat="44.44962864517976" lon="8.974054343758418"><ele>56.0</ele><time>2026-04-19T08:08:25Z</time></trkpt><trkpt lat="44.449740929940965" lon="8.974221025170943"><ele>56.66666666666667</ele><time>2026-04-19T08:08:26Z</time></trkpt><trkpt lat="44.4498599139988" lon="8.97437784477565"><ele>57.33333333333333</ele><time>2026-04-19T08:08:26.999Z</time></trkpt><trkpt lat="44.449977104852714" lon="8.974535061256814"><ele>58.0</ele><time>2026-04-19T08:08:27.999Z</time></trkpt><trkpt lat="44.45010104544727" lon="8.97469662670963"><ele>58.0</ele><time>2026-04-19T08:08:28.999Z</time></trkpt><trkpt lat="44.450226943357315" lon="8.974866864957006"><ele>58.0</ele><time>2026-04-19T08:08:29.999Z</time></trkpt><trkpt lat="44.45034818428145" lon="8.97502572371468"><ele>58.0</ele><time>2026-04-19T08:08:30.999Z</time></trkpt><trkpt lat="44.45045657569818" lon="8.975174384992268"><ele>55.0</ele><time>2026-04-19T08:08:31.999Z</time></trkpt><trkpt lat="44.45056580976216" lon="8.975313089990411"><ele>52.0</ele><time>2026-04-19T08:08:32.999Z</time></trkpt><trkpt lat="44.450678481894684" lon="8.975457721436793"><ele>49.0</ele><time>2026-04-19T08:08:33.999Z</time></trkpt><trkpt lat="44.450796174015814" lon="8.975608832110442"><ele>49.0</ele><time>2026-04-19T08:08:34.999Z</time></trkpt><trkpt lat="44.45091280424414" lon="8.975770554008134"><ele>49.0</ele><time>2026-04-19T08:08:35.999Z</time></trkpt><trkpt lat="44.45103154107298" lon="8.975935707263618"><ele>49.0</ele><time>2026-04-19T08:08:36.999Z</time></trkpt><trkpt lat="44.4511502725782" lon="8.976105677565904"><ele>51.666666666666664</ele><time>2026-04-19T08:08:37.999Z</time></trkpt><trkpt lat="44.451255210558514" lon="8.976272114494662"><ele>54.33333333333333</ele><time>2026-04-19T08:08:38.999Z</time></trkpt><trkpt lat="44.45135729942129" lon="8.976432559761014"><ele>57.0</ele><time>2026-04-19T08:08:39.999Z</time></trkpt><trkpt lat="44.45145630416341" lon="8.976609811252866"><ele>60.0</ele><time>2026-04-19T08:08:40.999Z</time></trkpt><trkpt lat="44.451555140878234" lon="8.976780994355055"><ele>63.0</ele><time>2026-04-19T08:08:41.999Z</time></trkpt><trkpt lat="44.45163509962024" lon="8.976954037517565"><ele>66.0</ele><time>2026-04-19T08:08:42.999Z</time></trkpt><trkpt lat="44.45172270727932" lon="8.97711860388217"><ele>66.0</ele><time>2026-04-19T08:08:43.999Z</time></trkpt><trkpt lat="44.45181567561401" lon="8.977293956548568"><ele>66.0</ele><time>2026-04-19T08:08:44.999Z</time></trkpt><trkpt lat="44.45189904847787" lon="8.977481371492617"><ele>66.0</ele><time>2026-04-19T08:08:45.999Z</time></trkpt><trkpt lat="44.45198426200539" lon="8.977665934360937"><ele>64.66666666666667</ele><time>2026-04-19T08:08:46.999Z</time></trkpt><trkpt lat="44.45206807962594" lon="8.977856641639024"><ele>63.333333333333336</ele><time>2026-04-19T08:08:47.999Z</time></trkpt><trkpt lat="44.452148556532485" lon="8.978058900389874"><ele>62.0</ele><time>2026-04-19T08:08:48.999Z</time></trkpt><trkpt lat="44.45221962642429" lon="8.978238435644483"><ele>63.333333333333336</ele><time>2026-04-19T08:08:49.999Z</time></trkpt><trkpt lat="44.45228853996603" lon="8.978395734856598"><ele>64.66666666666667</ele><time>2026-04-19T08:08:50.999Z</time></trkpt><trkpt lat="44.45235687577016" lon="8.978598640405542"><ele>66.0</ele><time>2026-04-19T08:08:51.999Z</time></trkpt><trkpt lat="44.45242056266069" lon="8.978811152485148"><ele>66.0</ele><time>2026-04-19T08:08:52.999Z</time></trkpt><trkpt lat="44.4524912824653" lon="8.97902402417611"><ele>66.0</ele><time>2026-04-19T08:08:53.999Z</time></trkpt><trkpt lat="44.452568416910246" lon="8.97924034392413"><ele>66.0</ele><time>2026-04-19T08:08:54.999Z</time></trkpt><trkpt lat="44.452624151413204" lon="8.979464922353042"><ele>66.33333333333333</ele><time>2026-04-19T08:08:55.999Z</time></trkpt><trkpt lat="44.45268151964024" lon="8.97969360455366"><ele>66.66666666666666</ele><time>2026-04-19T08:08:56.999Z</time></trkpt><trkpt lat="44.4527330471859" lon="8.979924940268958"><ele>67.0</ele><time>2026-04-19T08:08:57.999Z</time></trkpt><trkpt lat="44.45278134637888" lon="8.980151321445124"><ele>66.0</ele><time>2026-04-19T08:08:58.999Z</time></trkpt><trkpt lat="44.452833903366276" lon="8.98035183364183"><ele>65.0</ele><time>2026-04-19T08:08:59.999Z</time></trkpt><trkpt lat="44.452882498622266" lon="8.980555737869002"><ele>64.0</ele><time>2026-04-19T08:09:00.999Z</time></trkpt><trkpt lat="44.452936721804036" lon="8.980762195850101"><ele>60.33333333333333</ele><time>2026-04-19T08:09:01.999Z</time></trkpt><trkpt lat="44.45299207250027" lon="8.980980889655429"><ele>56.66666666666667</ele><time>2026-04-19T08:09:02.999Z</time></trkpt><trkpt lat="44.45304783605572" lon="8.981208650332443"><ele>53.0</ele><time>2026-04-19T08:09:03.999Z</time></trkpt><trkpt lat="44.45310170661293" lon="8.981438716404837"><ele>53.0</ele><time>2026-04-19T08:09:04.999Z</time></trkpt><trkpt lat="44.45315967030977" lon="8.981673949326785"><ele>53.0</ele><time>2026-04-19T08:09:05.999Z</time></trkpt><trkpt lat="44.45321585506031" lon="8.981914211812018"><ele>53.0</ele><time>2026-04-19T08:09:06.999Z</time></trkpt><trkpt lat="44.45326562104537" lon="8.982138090253644"><ele>53.333333333333336</ele><time>2026-04-19T08:09:07.999Z</time></trkpt><trkpt lat="44.45331740634012" lon="8.98236376239019"><ele>53.66666666666667</ele><time>2026-04-19T08:09:08.999Z</time></trkpt><trkpt lat="44.45336949081834" lon="8.98258678217235"><ele>54.0</ele><time>2026-04-19T08:09:09.999Z</time></trkpt><trkpt lat="44.453422196117266" lon="8.982799459709916"><ele>54.33333333333333</ele><time>2026-04-19T08:09:10.999Z</time></trkpt><trkpt lat="44.45347415246469" lon="8.983012805019365"><ele>54.666666666666664</ele><time>2026-04-19T08:09:11.999Z</time></trkpt><trkpt lat="44.45352747545001" lon="8.983230327021943"><ele>55.0</ele><time>2026-04-19T08:09:12.999Z</time></trkpt><trkpt lat="44.45357976111422" lon="8.98345017307236"><ele>56.0</ele><time>2026-04-19T08:09:13.999Z</time></trkpt><trkpt lat="44.45363057557667" lon="8.983672942532738"><ele>57.0</ele><time>2026-04-19T08:09:14.999Z</time></trkpt><trkpt lat="44.45368006878396" lon="8.983901180042679"><ele>58.0</ele><time>2026-04-19T08:09:15.999Z</time></trkpt><trkpt lat="44.45372380918741" lon="8.98411687739353"><ele>59.33333333333333</ele><time>2026-04-19T08:09:16.999Z</time></trkpt><trkpt lat="44.45375572403687" lon="8.984348501821627"><ele>60.66666666666667</ele><time>2026-04-19T08:09:17.999Z</time></trkpt><trkpt lat="44.45377398305955" lon="8.98457771926684"><ele>62.0</ele><time>2026-04-19T08:09:18.999Z</time></trkpt><trkpt lat="44.45378300269098" lon="8.984806641247088"><ele>65.66666666666667</ele><time>2026-04-19T08:09:19.999Z</time></trkpt><trkpt lat="44.453784647640006" lon="8.985038954281707"><ele>69.33333333333333</ele><time>2026-04-19T08:09:20.999Z</time></trkpt><trkpt lat="44.45378635445539" lon="8.985267684930554"><ele>73.0</ele><time>2026-04-19T08:09:21.999Z</time></trkpt><trkpt lat="44.45378852930322" lon="8.985483072528186"><ele>75.75</ele><time>2026-04-19T08:09:22.999Z</time></trkpt><trkpt lat="44.45378980826276" lon="8.985681328780272"><ele>78.5</ele><time>2026-04-19T08:09:23.999Z</time></trkpt><trkpt lat="44.45377990346292" lon="8.985868395494695"><ele>81.25</ele><time>2026-04-19T08:09:24.999Z</time></trkpt><trkpt lat="44.453767658103764" lon="8.986045902677846"><ele>84.0</ele><time>2026-04-19T08:09:26Z</time></trkpt><trkpt lat="44.4537453339266" lon="8.986225218482414"><ele>84.0</ele><time>2026-04-19T08:09:27Z</time></trkpt><trkpt lat="44.453715835195744" lon="8.986405565870681"><ele>84.0</ele><time>2026-04-19T08:09:28Z</time></trkpt><trkpt lat="44.45368662493891" lon="8.986570581926989"><ele>84.0</ele><time>2026-04-19T08:09:29Z</time></trkpt><trkpt lat="44.45365604781478" lon="8.986757015424653"><ele>84.0</ele><time>2026-04-19T08:09:30Z</time></trkpt><trkpt lat="44.453616845701646" lon="8.986954261858777"><ele>80.33333333333333</ele><time>2026-04-19T08:09:31Z</time></trkpt><trkpt lat="44.4535667980082" lon="8.987166590320763"><ele>76.66666666666666</ele><time>2026-04-19T08:09:32Z</time></trkpt><trkpt lat="44.45350276116424" lon="8.987385779090738"><ele>73.0</ele><time>2026-04-19T08:09:33Z</time></trkpt><trkpt lat="44.45344225064859" lon="8.987624059990152"><ele>68.33333333333333</ele><time>2026-04-19T08:09:34Z</time></trkpt><trkpt lat="44.45337923221656" lon="8.987841834066327"><ele>63.66666666666667</ele><time>2026-04-19T08:09:35Z</time></trkpt><trkpt lat="44.4533210419957" lon="8.988048381879823"><ele>59.0</ele><time>2026-04-19T08:09:36Z</time></trkpt><trkpt lat="44.45326629257072" lon="8.988264771179965"><ele>59.333333333333336</ele><time>2026-04-19T08:09:37Z</time></trkpt><trkpt lat="44.453211514555974" lon="8.988475539547842"><ele>59.66666666666667</ele><time>2026-04-19T08:09:38Z</time></trkpt><trkpt lat="44.453155641978796" lon="8.988690712567085"><ele>60.0</ele><time>2026-04-19T08:09:39Z</time></trkpt><trkpt lat="44.453098197733595" lon="8.988904660857964"><ele>60.0</ele><time>2026-04-19T08:09:40Z</time></trkpt><trkpt lat="44.453041077047715" lon="8.989115350295737"><ele>60.0</ele><time>2026-04-19T08:09:41Z</time></trkpt><trkpt lat="44.452986647870546" lon="8.989320409707885"><ele>60.0</ele><time>2026-04-19T08:09:42Z</time></trkpt><trkpt lat="44.45293455976317" lon="8.98952103309009"><ele>61.33333333333333</ele><time>2026-04-19T08:09:43Z</time></trkpt><trkpt lat="44.45287318234803" lon="8.989727939342679"><ele>62.666666666666664</ele><time>2026-04-19T08:09:44Z</time></trkpt><trkpt lat="44.45280436701722" lon="8.989918528634854"><ele>64.0</ele><time>2026-04-19T08:09:45Z</time></trkpt><trkpt lat="44.452731947330086" lon="8.99009707360794"><ele>64.0</ele><time>2026-04-19T08:09:46Z</time></trkpt><trkpt lat="44.452655319373974" lon="8.990278098510823"><ele>64.0</ele><time>2026-04-19T08:09:47Z</time></trkpt><trkpt lat="44.45256775771399" lon="8.990461684942202"><ele>64.0</ele><time>2026-04-19T08:09:48Z</time></trkpt><trkpt lat="44.45246932474363" lon="8.99063618065216"><ele>64.0</ele><time>2026-04-19T08:09:49Z</time></trkpt><trkpt lat="44.4523609379682" lon="8.990803183966355"><ele>64.0</ele><time>2026-04-19T08:09:50Z</time></trkpt><trkpt lat="44.45224304442622" lon="8.990967062235631"><ele>64.0</ele><time>2026-04-19T08:09:51Z</time></trkpt><trkpt lat="44.45211931925457" lon="8.991117527615835"><ele>64.75</ele><time>2026-04-19T08:09:52Z</time></trkpt><trkpt lat="44.45199978498847" lon="8.99125002122843"><ele>65.5</ele><time>2026-04-19T08:09:53Z</time></trkpt><trkpt lat="44.451883410511165" lon="8.991363371181867"><ele>66.25</ele><time>2026-04-19T08:09:54Z</time></trkpt><trkpt lat="44.451763119734984" lon="8.991447184227566"><ele>67.0</ele><time>2026-04-19T08:09:55Z</time></trkpt><trkpt lat="44.451629960064274" lon="8.991495275605791"><ele>67.0</ele><time>2026-04-19T08:09:56Z</time></trkpt><trkpt lat="44.451492528824296" lon="8.99150401250616"><ele>67.0</ele><time>2026-04-19T08:09:57Z</time></trkpt><trkpt lat="44.45136586501626" lon="8.991486167649114"><ele>67.0</ele><time>2026-04-19T08:09:58Z</time></trkpt><trkpt lat="44.451243215435454" lon="8.99144543221649"><ele>67.0</ele><time>2026-04-19T08:09:59Z</time></trkpt><trkpt lat="44.45111662509774" lon="8.991399414441563"><ele>68.5</ele><time>2026-04-19T08:10:00Z</time></trkpt><trkpt lat="44.45098495303216" lon="8.991370015896395"><ele>70.0</ele><time>2026-04-19T08:10:01Z</time></trkpt><trkpt lat="44.450852430694795" lon="8.991367092626392"><ele>71.5</ele><time>2026-04-19T08:10:02Z</time></trkpt><trkpt lat="44.450727872126016" lon="8.991383633235838"><ele>73.0</ele><time>2026-04-19T08:10:03Z</time></trkpt><trkpt lat="44.45060964453185" lon="8.991410423218396"><ele>73.0</ele><time>2026-04-19T08:10:04Z</time></trkpt><trkpt lat="44.45049203052371" lon="8.991447956486777"><ele>73.0</ele><time>2026-04-19T08:10:05Z</time></trkpt><trkpt lat="44.45037810130375" lon="8.991501600185124"><ele>73.0</ele><time>2026-04-19T08:10:06Z</time></trkpt><trkpt lat="44.45026582191194" lon="8.991570772781445"><ele>73.0</ele><time>2026-04-19T08:10:07Z</time></trkpt><trkpt lat="44.45015032608294" lon="8.991669632247815"><ele>71.0</ele><time>2026-04-19T08:10:08Z</time></trkpt><trkpt lat="44.45004064316689" lon="8.991778356881358"><ele>69.0</ele><time>2026-04-19T08:10:09Z</time></trkpt><trkpt lat="44.44994611696865" lon="8.991883452296875"><ele>67.0</ele><time>2026-04-19T08:10:10Z</time></trkpt><trkpt lat="44.44985692410583" lon="8.992007105101967"><ele>65.0</ele><time>2026-04-19T08:10:11Z</time></trkpt><trkpt lat="44.44977234502671" lon="8.992144589773808"><ele>65.0</ele><time>2026-04-19T08:10:12Z</time></trkpt><trkpt lat="44.44969022927987" lon="8.992294993367972"><ele>65.0</ele><time>2026-04-19T08:10:13Z</time></trkpt><trkpt lat="44.44960253556858" lon="8.992459431211824"><ele>65.0</ele><time>2026-04-19T08:10:14Z</time></trkpt><trkpt lat="44.44950384892084" lon="8.992638928565379"><ele>65.0</ele><time>2026-04-19T08:10:15Z</time></trkpt><trkpt lat="44.44940659756286" lon="8.992815448884944"><ele>66.0</ele><time>2026-04-19T08:10:16Z</time></trkpt><trkpt lat="44.449310455714674" lon="8.992990981942091"><ele>67.0</ele><time>2026-04-19T08:10:17Z</time></trkpt><trkpt lat="44.449221590648236" lon="8.99318121437131"><ele>68.0</ele><time>2026-04-19T08:10:18Z</time></trkpt><trkpt lat="44.44913390290319" lon="8.993387991085477"><ele>68.0</ele><time>2026-04-19T08:10:19Z</time></trkpt><trkpt lat="44.44905708134213" lon="8.993590784627598"><ele>68.0</ele><time>2026-04-19T08:10:20Z</time></trkpt><trkpt lat="44.44898639487562" lon="8.993790691212132"><ele>68.0</ele><time>2026-04-19T08:10:21Z</time></trkpt><trkpt lat="44.44893191124135" lon="8.993986534517068"><ele>68.66666666666667</ele><time>2026-04-19T08:10:22Z</time></trkpt><trkpt lat="44.448881043247006" lon="8.994193930792923"><ele>69.33333333333333</ele><time>2026-04-19T08:10:23Z</time></trkpt><trkpt lat="44.44882900725368" lon="8.994404390771603"><ele>70.0</ele><time>2026-04-19T08:10:24Z</time></trkpt><trkpt lat="44.44876882578411" lon="8.994617387852841"><ele>70.66666666666666</ele><time>2026-04-19T08:10:25Z</time></trkpt><trkpt lat="44.44870657352456" lon="8.994838130613164"><ele>71.33333333333333</ele><time>2026-04-19T08:10:26Z</time></trkpt><trkpt lat="44.44864542861724" lon="8.995059096832804"><ele>72.0</ele><time>2026-04-19T08:10:27Z</time></trkpt><trkpt lat="44.448586052727784" lon="8.995268318553448"><ele>71.0</ele><time>2026-04-19T08:10:28Z</time></trkpt><trkpt lat="44.44853332185215" lon="8.995455866392332"><ele>70.0</ele><time>2026-04-19T08:10:29Z</time></trkpt><trkpt lat="44.448482878263576" lon="8.995643448626469"><ele>69.0</ele><time>2026-04-19T08:10:30Z</time></trkpt><trkpt lat="44.44842871579987" lon="8.99582531978342"><ele>68.0</ele><time>2026-04-19T08:10:31Z</time></trkpt><trkpt lat="44.44837716315698" lon="8.996006566190621"><ele>68.0</ele><time>2026-04-19T08:10:32Z</time></trkpt><trkpt lat="44.448328381250626" lon="8.996192313144489"><ele>68.0</ele><time>2026-04-19T08:10:32.999Z</time></trkpt><trkpt lat="44.44827977167778" lon="8.996379145031586"><ele>68.0</ele><time>2026-04-19T08:10:33.999Z</time></trkpt><trkpt lat="44.44823163984605" lon="8.996563486160904"><ele>68.0</ele><time>2026-04-19T08:10:34.999Z</time></trkpt><trkpt lat="44.44818765564247" lon="8.996755022424303"><ele>68.0</ele><time>2026-04-19T08:10:35.999Z</time></trkpt><trkpt lat="44.44814072242403" lon="8.996948644740115"><ele>68.0</ele><time>2026-04-19T08:10:36.999Z</time></trkpt><trkpt lat="44.44809318764819" lon="8.997138237361069"><ele>68.0</ele><time>2026-04-19T08:10:37.999Z</time></trkpt><trkpt lat="44.44804272859831" lon="8.997331194524428"><ele>68.0</ele><time>2026-04-19T08:10:38.999Z</time></trkpt><trkpt lat="44.44799292730861" lon="8.997525397450374"><ele>69.25</ele><time>2026-04-19T08:10:39.999Z</time></trkpt><trkpt lat="44.44793954147251" lon="8.997719771236401"><ele>70.5</ele><time>2026-04-19T08:10:40.999Z</time></trkpt><trkpt lat="44.447888688469696" lon="8.997914879704155"><ele>71.75</ele><time>2026-04-19T08:10:41.999Z</time></trkpt><trkpt lat="44.44783873298767" lon="8.998102736424489"><ele>73.0</ele><time>2026-04-19T08:10:42.999Z</time></trkpt><trkpt lat="44.44779373665021" lon="8.99827208119684"><ele>73.75</ele><time>2026-04-19T08:10:43.999Z</time></trkpt><trkpt lat="44.44775389158787" lon="8.998423781183437"><ele>74.5</ele><time>2026-04-19T08:10:44.999Z</time></trkpt><trkpt lat="44.4477200894144" lon="8.998574031554693"><ele>75.25</ele><time>2026-04-19T08:10:45.999Z</time></trkpt><trkpt lat="44.447684411574066" lon="8.998746405317172"><ele>76.0</ele><time>2026-04-19T08:10:46.999Z</time></trkpt><trkpt lat="44.44764729769242" lon="8.998928335506575"><ele>76.0</ele><time>2026-04-19T08:10:47.999Z</time></trkpt><trkpt lat="44.44758300740413" lon="8.999122643778938"><ele>76.0</ele><time>2026-04-19T08:10:48.999Z</time></trkpt><trkpt lat="44.447536025518616" lon="8.999303363055153"><ele>76.0</ele><time>2026-04-19T08:10:49.999Z</time></trkpt><trkpt lat="44.44750386532202" lon="8.999475421641407"><ele>76.0</ele><time>2026-04-19T08:10:50.999Z</time></trkpt><trkpt lat="44.44745467587562" lon="8.99961628040489"><ele>75.66666666666666</ele><time>2026-04-19T08:10:51.999Z</time></trkpt><trkpt lat="44.44740876133457" lon="8.999749955518446"><ele>75.33333333333333</ele><time>2026-04-19T08:10:52.999Z</time></trkpt><trkpt lat="44.447381448516246" lon="8.999867581034527"><ele>75.0</ele><time>2026-04-19T08:10:53.999Z</time></trkpt><trkpt lat="44.447350694211615" lon="8.999974496111859"><ele>74.66666666666667</ele><time>2026-04-19T08:10:54.999Z</time></trkpt><trkpt lat="44.447329669263375" lon="9.000082809856927"><ele>74.33333333333334</ele><time>2026-04-19T08:10:55.999Z</time></trkpt><trkpt lat="44.44729930859358" lon="9.000182014662066"><ele>74.0</ele><time>2026-04-19T08:10:56.999Z</time></trkpt><trkpt lat="44.44728049578828" lon="9.000266378677276"><ele>74.0</ele><time>2026-04-19T08:10:57.999Z</time></trkpt><trkpt lat="44.44726288890532" lon="9.000355015885319"><ele>74.0</ele><time>2026-04-19T08:10:58.999Z</time></trkpt><trkpt lat="44.44724063043422" lon="9.000454379662516"><ele>74.0</ele><time>2026-04-19T08:11:00.999Z</time></trkpt><trkpt lat="44.44721348512176" lon="9.000548900898746"><ele>74.0</ele><time>2026-04-19T08:11:03.999Z</time></trkpt><trkpt lat="44.44718974281367" lon="9.0006643686778"><ele>74.0</ele><time>2026-04-19T08:11:07.999Z</time></trkpt><trkpt lat="44.44713281210342" lon="9.00085506595975"><ele>74.0</ele><time>2026-04-19T08:11:09.999Z</time></trkpt><trkpt lat="44.44710770701176" lon="9.000949240514593"><ele>74.4</ele><time>2026-04-19T08:11:10.999Z</time></trkpt><trkpt lat="44.44708078621242" lon="9.00106399814721"><ele>74.80000000000001</ele><time>2026-04-19T08:11:11.999Z</time></trkpt><trkpt lat="44.44705285098406" lon="9.001203664429157"><ele>75.19999999999999</ele><time>2026-04-19T08:11:12.999Z</time></trkpt><trkpt lat="44.44702589136007" lon="9.00136776448787"><ele>75.6</ele><time>2026-04-19T08:11:13.999Z</time></trkpt><trkpt lat="44.44700557031912" lon="9.001532793234057"><ele>76.0</ele><time>2026-04-19T08:11:14.999Z</time></trkpt><trkpt lat="44.44698739311458" lon="9.001701793427566"><ele>76.0</ele><time>2026-04-19T08:11:15.999Z</time></trkpt><trkpt lat="44.44696937795744" lon="9.001854459012344"><ele>76.0</ele><time>2026-04-19T08:11:16.999Z</time></trkpt><trkpt lat="44.44695042082711" lon="9.002015107465212"><ele>76.0</ele><time>2026-04-19T08:11:17.999Z</time></trkpt><trkpt lat="44.44694938580098" lon="9.002184783898652"><ele>76.0</ele><time>2026-04-19T08:11:18.999Z</time></trkpt><trkpt lat="44.44692619748305" lon="9.002361280613178"><ele>77.0</ele><time>2026-04-19T08:11:19.999Z</time></trkpt><trkpt lat="44.44689880585927" lon="9.002553712215304"><ele>78.0</ele><time>2026-04-19T08:11:20.999Z</time></trkpt><trkpt lat="44.446875435369144" lon="9.002758541873241"><ele>79.0</ele><time>2026-04-19T08:11:21.999Z</time></trkpt><trkpt lat="44.446853241308894" lon="9.00295605814055"><ele>80.0</ele><time>2026-04-19T08:11:22.999Z</time></trkpt><trkpt lat="44.4468294343596" lon="9.003142738009208"><ele>82.0</ele><time>2026-04-19T08:11:23.999Z</time></trkpt><trkpt lat="44.44680780221002" lon="9.00333917648132"><ele>84.0</ele><time>2026-04-19T08:11:24.999Z</time></trkpt><trkpt lat="44.44678800568089" lon="9.00354440749852"><ele>86.0</ele><time>2026-04-19T08:11:25.999Z</time></trkpt><trkpt lat="44.44677769694554" lon="9.003758394667786"><ele>88.0</ele><time>2026-04-19T08:11:26.999Z</time></trkpt><trkpt lat="44.4467763621699" lon="9.003971150418892"><ele>89.0</ele><time>2026-04-19T08:11:27.999Z</time></trkpt><trkpt lat="44.446778024288875" lon="9.004170651042061"><ele>90.0</ele><time>2026-04-19T08:11:28.999Z</time></trkpt><trkpt lat="44.44676198799812" lon="9.00437679987684"><ele>91.0</ele><time>2026-04-19T08:11:29.999Z</time></trkpt><trkpt lat="44.446775942898824" lon="9.004594151350735"><ele>92.0</ele><time>2026-04-19T08:11:30.999Z</time></trkpt><trkpt lat="44.44679790261263" lon="9.004812220504412"><ele>92.25</ele><time>2026-04-19T08:11:32Z</time></trkpt><trkpt lat="44.44682497372372" lon="9.005037554373331"><ele>92.5</ele><time>2026-04-19T08:11:33Z</time></trkpt><trkpt lat="44.44686726390386" lon="9.00523330775678"><ele>92.75</ele><time>2026-04-19T08:11:34Z</time></trkpt><trkpt lat="44.4468923739983" lon="9.005424643672647"><ele>93.0</ele><time>2026-04-19T08:11:35Z</time></trkpt><trkpt lat="44.44691875640993" lon="9.005597645753221"><ele>93.0</ele><time>2026-04-19T08:11:36Z</time></trkpt><trkpt lat="44.446942219377156" lon="9.005753275528129"><ele>93.0</ele><time>2026-04-19T08:11:37Z</time></trkpt><trkpt lat="44.44695240248053" lon="9.005900944744225"><ele>93.0</ele><time>2026-04-19T08:11:38Z</time></trkpt><trkpt lat="44.44697670000145" lon="9.006025837740166"><ele>93.0</ele><time>2026-04-19T08:11:39Z</time></trkpt><trkpt lat="44.44700314849092" lon="9.00613914653898"><ele>93.0</ele><time>2026-04-19T08:11:40Z</time></trkpt><trkpt lat="44.447028411728" lon="9.006232975403467"><ele>94.33333333333333</ele><time>2026-04-19T08:11:41Z</time></trkpt><trkpt lat="44.44705108140531" lon="9.006315789290783"><ele>95.66666666666666</ele><time>2026-04-19T08:11:42Z</time></trkpt><trkpt lat="44.44704194672851" lon="9.006464808556563"><ele>97.0</ele><time>2026-04-19T08:11:44Z</time></trkpt><trkpt lat="44.447121395003286" lon="9.006512689467133"><ele>98.33333333333333</ele><time>2026-04-19T08:11:45Z</time></trkpt><trkpt lat="44.44714443508515" lon="9.006607635438787"><ele>99.66666666666666</ele><time>2026-04-19T08:11:47Z</time></trkpt><trkpt lat="44.44718044167902" lon="9.006726534014247"><ele>101.0</ele><time>2026-04-19T08:11:49Z</time></trkpt><trkpt lat="44.447208703586085" lon="9.006830297621834"><ele>96.2</ele><time>2026-04-19T08:11:50Z</time></trkpt><trkpt lat="44.447247816042264" lon="9.006953253293402"><ele>91.39999999999999</ele><time>2026-04-19T08:11:51Z</time></trkpt><trkpt lat="44.44729206124042" lon="9.007075039727464"><ele>86.6</ele><time>2026-04-19T08:11:52Z</time></trkpt><trkpt lat="44.4473444106494" lon="9.007203629032839"><ele>81.8</ele><time>2026-04-19T08:11:53Z</time></trkpt><trkpt lat="44.447396988933086" lon="9.007342136346967"><ele>77.0</ele><time>2026-04-19T08:11:54Z</time></trkpt><trkpt lat="44.44744040290425" lon="9.007470922539081"><ele>77.25</ele><time>2026-04-19T08:11:55Z</time></trkpt><trkpt lat="44.44749308539942" lon="9.007633673218013"><ele>77.5</ele><time>2026-04-19T08:11:56Z</time></trkpt><trkpt lat="44.44755281535445" lon="9.007811913067414"><ele>77.75</ele><time>2026-04-19T08:11:57Z</time></trkpt><trkpt lat="44.44760543093025" lon="9.00796502459245"><ele>78.0</ele><time>2026-04-19T08:11:58Z</time></trkpt><trkpt lat="44.44766410370644" lon="9.008134043830708"><ele>78.0</ele><time>2026-04-19T08:11:59Z</time></trkpt><trkpt lat="44.44773054140163" lon="9.008320503821842"><ele>78.0</ele><time>2026-04-19T08:12:00Z</time></trkpt><trkpt lat="44.44781515444841" lon="9.008547497298531"><ele>78.0</ele><time>2026-04-19T08:12:01Z</time></trkpt><trkpt lat="44.447878922368076" lon="9.008814965478587"><ele>78.25</ele><time>2026-04-19T08:12:02Z</time></trkpt><trkpt lat="44.44791912006281" lon="9.008966837272167"><ele>78.5</ele><time>2026-04-19T08:12:04Z</time></trkpt><trkpt lat="44.4479645969078" lon="9.009132325328137"><ele>78.75</ele><time>2026-04-19T08:12:05Z</time></trkpt><trkpt lat="44.44800418007483" lon="9.009276753287681"><ele>79.0</ele><time>2026-04-19T08:12:06Z</time></trkpt><trkpt lat="44.44803718666384" lon="9.009404396159747"><ele>79.0</ele><time>2026-04-19T08:12:07Z</time></trkpt><trkpt lat="44.44806543790725" lon="9.009517742384967"><ele>79.0</ele><time>2026-04-19T08:12:08Z</time></trkpt><trkpt lat="44.448081873371414" lon="9.00962348076555"><ele>79.0</ele><time>2026-04-19T08:12:09Z</time></trkpt><trkpt lat="44.448118840233036" lon="9.00977011524859"><ele>79.0</ele><time>2026-04-19T08:12:11Z</time></trkpt><trkpt lat="44.448140316267306" lon="9.009864158363204"><ele>79.0</ele><time>2026-04-19T08:12:14Z</time></trkpt><trkpt lat="44.44816425093119" lon="9.009978149313175"><ele>79.0</ele><time>2026-04-19T08:12:24Z</time></trkpt><trkpt lat="44.44819397905573" lon="9.010104701789189"><ele>79.0</ele><time>2026-04-19T08:12:25Z</time></trkpt><trkpt lat="44.44821710156722" lon="9.010257295267277"><ele>79.0</ele><time>2026-04-19T08:12:26Z</time></trkpt><trkpt lat="44.44823866484698" lon="9.010385760775549"><ele>79.0</ele><time>2026-04-19T08:12:27Z</time></trkpt><trkpt lat="44.44827056308498" lon="9.010525570099853"><ele>79.0</ele><time>2026-04-19T08:12:28Z</time></trkpt><trkpt lat="44.44830642614997" lon="9.010677452980834"><ele>79.0</ele><time>2026-04-19T08:12:29Z</time></trkpt><trkpt lat="44.44834580846084" lon="9.010839702065022"><ele>81.0</ele><time>2026-04-19T08:12:30Z</time></trkpt><trkpt lat="44.44838601848539" lon="9.011027316832433"><ele>83.0</ele><time>2026-04-19T08:12:31Z</time></trkpt><trkpt lat="44.44841881783312" lon="9.01121306033896"><ele>85.0</ele><time>2026-04-19T08:12:32Z</time></trkpt><trkpt lat="44.44845955838919" lon="9.011403462187904"><ele>87.0</ele><time>2026-04-19T08:12:33Z</time></trkpt><trkpt lat="44.44849583044413" lon="9.01159784909325"><ele>85.75</ele><time>2026-04-19T08:12:34Z</time></trkpt><trkpt lat="44.448529912137616" lon="9.011777630740468"><ele>84.5</ele><time>2026-04-19T08:12:35Z</time></trkpt><trkpt lat="44.448545902349885" lon="9.011957876728895"><ele>83.25</ele><time>2026-04-19T08:12:36Z</time></trkpt><trkpt lat="44.44857352700113" lon="9.012150415980207"><ele>82.0</ele><time>2026-04-19T08:12:36.999Z</time></trkpt><trkpt lat="44.44861676417726" lon="9.01235598343947"><ele>81.66666666666666</ele><time>2026-04-19T08:12:37.999Z</time></trkpt><trkpt lat="44.44863808044907" lon="9.012577659702972"><ele>81.33333333333333</ele><time>2026-04-19T08:12:38.999Z</time></trkpt><trkpt lat="44.44866505041286" lon="9.012803745601692"><ele>81.0</ele><time>2026-04-19T08:12:39.999Z</time></trkpt><trkpt lat="44.448683670954374" lon="9.013016767036683"><ele>81.0</ele><time>2026-04-19T08:12:40.999Z</time></trkpt><trkpt lat="44.44870269506997" lon="9.01321108059149"><ele>81.0</ele><time>2026-04-19T08:12:41.999Z</time></trkpt><trkpt lat="44.44871502211214" lon="9.013395240611324"><ele>81.0</ele><time>2026-04-19T08:12:42.999Z</time></trkpt><trkpt lat="44.44872559945348" lon="9.01356054836415"><ele>81.0</ele><time>2026-04-19T08:12:43.999Z</time></trkpt><trkpt lat="44.4487349612152" lon="9.01371406159712"><ele>81.33333333333333</ele><time>2026-04-19T08:12:44.999Z</time></trkpt><trkpt lat="44.44874301964967" lon="9.01385688231576"><ele>81.66666666666667</ele><time>2026-04-19T08:12:45.999Z</time></trkpt><trkpt lat="44.44874798648708" lon="9.013986921580653"><ele>82.0</ele><time>2026-04-19T08:12:46.999Z</time></trkpt><trkpt lat="44.44874502623366" lon="9.014106118493675"><ele>82.33333333333334</ele><time>2026-04-19T08:12:47.999Z</time></trkpt><trkpt lat="44.4487366130661" lon="9.01421461628141"><ele>82.66666666666667</ele><time>2026-04-19T08:12:48.999Z</time></trkpt><trkpt lat="44.44873128078032" lon="9.01430611787299"><ele>83.0</ele><time>2026-04-19T08:12:49.999Z</time></trkpt><trkpt lat="44.448713380725344" lon="9.014456776849434"><ele>83.16666666666667</ele><time>2026-04-19T08:12:51.999Z</time></trkpt><trkpt lat="44.448679264128494" lon="9.014640130735216"><ele>83.33333333333334</ele><time>2026-04-19T08:12:53.999Z</time></trkpt><trkpt lat="44.44865240400731" lon="9.014743035286251"><ele>83.5</ele><time>2026-04-19T08:12:54.999Z</time></trkpt><trkpt lat="44.44862945313" lon="9.014830475418076"><ele>83.66666666666667</ele><time>2026-04-19T08:12:55.999Z</time></trkpt><trkpt lat="44.44862548101819" lon="9.014922355601376"><ele>83.83333333333333</ele><time>2026-04-19T08:12:56.999Z</time></trkpt><trkpt lat="44.448647283474315" lon="9.015017463618218"><ele>84.0</ele><time>2026-04-19T08:12:57.999Z</time></trkpt><trkpt lat="44.44868660858909" lon="9.015094964099225"><ele>84.2</ele><time>2026-04-19T08:12:58.999Z</time></trkpt><trkpt lat="44.448739237271226" lon="9.015202669302239"><ele>84.4</ele><time>2026-04-19T08:12:59.999Z</time></trkpt><trkpt lat="44.44880049624593" lon="9.015298300456122"><ele>84.6</ele><time>2026-04-19T08:13:00.999Z</time></trkpt><trkpt lat="44.448827395663" lon="9.01543412665556"><ele>84.8</ele><time>2026-04-19T08:13:01.999Z</time></trkpt><trkpt lat="44.448820819484226" lon="9.015621295776441"><ele>85.0</ele><time>2026-04-19T08:13:02.999Z</time></trkpt><trkpt lat="44.448809780751574" lon="9.015814880120033"><ele>84.33333333333333</ele><time>2026-04-19T08:13:03.999Z</time></trkpt><trkpt lat="44.44880652351422" lon="9.016029451150166"><ele>83.66666666666667</ele><time>2026-04-19T08:13:04.999Z</time></trkpt><trkpt lat="44.44880904727547" lon="9.016258657522153"><ele>83.0</ele><time>2026-04-19T08:13:05.999Z</time></trkpt><trkpt lat="44.448811572155506" lon="9.016469464227939"><ele>83.33333333333334</ele><time>2026-04-19T08:13:06.999Z</time></trkpt><trkpt lat="44.448811418359675" lon="9.016689383578457"><ele>83.66666666666667</ele><time>2026-04-19T08:13:07.999Z</time></trkpt><trkpt lat="44.44881273110264" lon="9.016931746579905"><ele>84.0</ele><time>2026-04-19T08:13:08.999Z</time></trkpt><trkpt lat="44.44881312447834" lon="9.017161417139732"><ele>84.0</ele><time>2026-04-19T08:13:09.999Z</time></trkpt><trkpt lat="44.44879857049281" lon="9.017398244820216"><ele>84.0</ele><time>2026-04-19T08:13:10.999Z</time></trkpt><trkpt lat="44.44879834858105" lon="9.017637391637432"><ele>84.0</ele><time>2026-04-19T08:13:11.999Z</time></trkpt><trkpt lat="44.44879749140337" lon="9.017872754728096"><ele>84.0</ele><time>2026-04-19T08:13:12.999Z</time></trkpt><trkpt lat="44.44879515002728" lon="9.018101205176137"><ele>84.0</ele><time>2026-04-19T08:13:13.999Z</time></trkpt><trkpt lat="44.44878828571385" lon="9.018322599587103"><ele>84.0</ele><time>2026-04-19T08:13:14.999Z</time></trkpt><trkpt lat="44.44879947879852" lon="9.018554133375888"><ele>86.0</ele><time>2026-04-19T08:13:15.999Z</time></trkpt><trkpt lat="44.44877879943027" lon="9.018798763784496"><ele>88.0</ele><time>2026-04-19T08:13:16.999Z</time></trkpt><trkpt lat="44.448755661183924" lon="9.019055487888451"><ele>90.0</ele><time>2026-04-19T08:13:17.999Z</time></trkpt><trkpt lat="44.44873088499933" lon="9.019314304414824"><ele>93.0</ele><time>2026-04-19T08:13:18.999Z</time></trkpt><trkpt lat="44.44868529966509" lon="9.019543223290018"><ele>96.0</ele><time>2026-04-19T08:13:19.999Z</time></trkpt><trkpt lat="44.44867199643692" lon="9.019756652333848"><ele>99.0</ele><time>2026-04-19T08:13:20.999Z</time></trkpt><trkpt lat="44.448641019945114" lon="9.019943832456027"><ele>100.66666666666666</ele><time>2026-04-19T08:13:21.999Z</time></trkpt><trkpt lat="44.44861018168538" lon="9.02013627813687"><ele>102.33333333333333</ele><time>2026-04-19T08:13:22.999Z</time></trkpt><trkpt lat="44.44857724052724" lon="9.020354318806833"><ele>104.0</ele><time>2026-04-19T08:13:23.999Z</time></trkpt><trkpt lat="44.44852542683403" lon="9.020590096147254"><ele>101.0</ele><time>2026-04-19T08:13:24.999Z</time></trkpt><trkpt lat="44.44850623169274" lon="9.020820042678105"><ele>98.0</ele><time>2026-04-19T08:13:25.999Z</time></trkpt><trkpt lat="44.4484651154258" lon="9.021006913509412"><ele>95.0</ele><time>2026-04-19T08:13:26.999Z</time></trkpt><trkpt lat="44.44844214545764" lon="9.021213223527718"><ele>95.0</ele><time>2026-04-19T08:13:27.999Z</time></trkpt><trkpt lat="44.448424211706545" lon="9.021460047545649"><ele>95.0</ele><time>2026-04-19T08:13:28.999Z</time></trkpt><trkpt lat="44.44841139820575" lon="9.02173513902511"><ele>95.0</ele><time>2026-04-19T08:13:29.999Z</time></trkpt><trkpt lat="44.448403414703456" lon="9.02204073683121"><ele>94.0</ele><time>2026-04-19T08:13:30.999Z</time></trkpt><trkpt lat="44.44839905252373" lon="9.02234736815628"><ele>93.0</ele><time>2026-04-19T08:13:31.999Z</time></trkpt><trkpt lat="44.448393140316966" lon="9.022622234703896"><ele>92.0</ele><time>2026-04-19T08:13:32.999Z</time></trkpt><trkpt lat="44.448387818247944" lon="9.022870465516158"><ele>95.33333333333334</ele><time>2026-04-19T08:13:33.999Z</time></trkpt><trkpt lat="44.448387336347544" lon="9.023122789927545"><ele>98.66666666666667</ele><time>2026-04-19T08:13:34.999Z</time></trkpt><trkpt lat="44.448399153134844" lon="9.023396000782379"><ele>102.0</ele><time>2026-04-19T08:13:35.999Z</time></trkpt><trkpt lat="44.44839446428344" lon="9.023685321390854"><ele>110.0</ele><time>2026-04-19T08:13:36.999Z</time></trkpt><trkpt lat="44.44838809013167" lon="9.023979143270353"><ele>118.0</ele><time>2026-04-19T08:13:38Z</time></trkpt><trkpt lat="44.44842769021467" lon="9.024268179246292"><ele>126.0</ele><time>2026-04-19T08:13:39.015Z</time></trkpt><trkpt lat="44.44846621319973" lon="9.024545776916279"><ele>135.33333333333334</ele><time>2026-04-19T08:13:40.014Z</time></trkpt><trkpt lat="44.44851755471108" lon="9.02483057915864"><ele>144.66666666666669</ele><time>2026-04-19T08:13:41.016Z</time></trkpt><trkpt lat="44.448578875712684" lon="9.025096844799592"><ele>154.0</ele><time>2026-04-19T08:13:42.016Z</time></trkpt><trkpt lat="44.44864530571917" lon="9.025341827448008"><ele>148.0</ele><time>2026-04-19T08:13:43.019Z</time></trkpt><trkpt lat="44.44897003150728" lon="9.026171298114107"><ele>148.0</ele><time>2026-04-19T08:13:46.293Z</time></trkpt><trkpt lat="44.44910361977432" lon="9.02639883364033"><ele>148.0</ele><time>2026-04-19T08:13:47.293Z</time></trkpt><trkpt lat="44.44923023917279" lon="9.026632087659733"><ele>148.0</ele><time>2026-04-19T08:13:48.293Z</time></trkpt><trkpt lat="44.44954344541249" lon="9.027134533979956"><ele>137.66666666666669</ele><time>2026-04-19T08:13:51Z</time></trkpt><trkpt lat="44.44967622636047" lon="9.027317639295777"><ele>127.33333333333334</ele><time>2026-04-19T08:13:52Z</time></trkpt><trkpt lat="44.44981783488485" lon="9.027456075638204"><ele>117.0</ele><time>2026-04-19T08:13:53Z</time></trkpt><trkpt lat="44.44994301998615" lon="9.02758217775892"><ele>117.0</ele><time>2026-04-19T08:13:54Z</time></trkpt><trkpt lat="44.45009913631023" lon="9.02772347629695"><ele>117.0</ele><time>2026-04-19T08:13:55Z</time></trkpt><trkpt lat="44.450272960134185" lon="9.027870000189223"><ele>117.0</ele><time>2026-04-19T08:13:56Z</time></trkpt><trkpt lat="44.45036370925181" lon="9.027974990585628"><ele>116.66666666666666</ele><time>2026-04-19T08:13:57Z</time></trkpt><trkpt lat="44.450504023343065" lon="9.028086255981968"><ele>116.33333333333333</ele><time>2026-04-19T08:13:58Z</time></trkpt><trkpt lat="44.45062711360081" lon="9.028222672709003"><ele>116.0</ele><time>2026-04-19T08:13:59Z</time></trkpt><trkpt lat="44.450730619477426" lon="9.02835403078904"><ele>116.0</ele><time>2026-04-19T08:14:00Z</time></trkpt><trkpt lat="44.45079406618899" lon="9.0284745923447"><ele>116.0</ele><time>2026-04-19T08:14:01Z</time></trkpt><trkpt lat="44.450856030965994" lon="9.028607952112276"><ele>116.0</ele><time>2026-04-19T08:14:02Z</time></trkpt><trkpt lat="44.450876628836625" lon="9.028756386092073"><ele>116.0</ele><time>2026-04-19T08:14:03Z</time></trkpt><trkpt lat="44.45084618758829" lon="9.028906169533967"><ele>116.0</ele><time>2026-04-19T08:14:04Z</time></trkpt><trkpt lat="44.45076333724777" lon="9.029074098104516"><ele>113.66666666666666</ele><time>2026-04-19T08:14:05Z</time></trkpt><trkpt lat="44.45066329319034" lon="9.029235481166186"><ele>111.33333333333334</ele><time>2026-04-19T08:14:06Z</time></trkpt><trkpt lat="44.450545280447834" lon="9.029395835548307"><ele>109.0</ele><time>2026-04-19T08:14:07Z</time></trkpt><trkpt lat="44.45044502227742" lon="9.029533353488608"><ele>117.25</ele><time>2026-04-19T08:14:08Z</time></trkpt><trkpt lat="44.45035211040938" lon="9.029670978032891"><ele>125.5</ele><time>2026-04-19T08:14:09Z</time></trkpt><trkpt lat="44.45026397532164" lon="9.02984207701011"><ele>133.75</ele><time>2026-04-19T08:14:10Z</time></trkpt><trkpt lat="44.45021479156739" lon="9.030041469274732"><ele>142.0</ele><time>2026-04-19T08:14:11Z</time></trkpt><trkpt lat="44.45015787555235" lon="9.030252504414591"><ele>142.0</ele><time>2026-04-19T08:14:12Z</time></trkpt><trkpt lat="44.45014440409799" lon="9.030480348417354"><ele>142.0</ele><time>2026-04-19T08:14:13Z</time></trkpt><trkpt lat="44.4501675024596" lon="9.03068682525856"><ele>142.0</ele><time>2026-04-19T08:14:14Z</time></trkpt><trkpt lat="44.45021705125376" lon="9.030903006639825"><ele>143.33333333333334</ele><time>2026-04-19T08:14:15Z</time></trkpt><trkpt lat="44.45030107627933" lon="9.031098348601589"><ele>144.66666666666666</ele><time>2026-04-19T08:14:16Z</time></trkpt><trkpt lat="44.450397593722684" lon="9.031299474905053"><ele>146.0</ele><time>2026-04-19T08:14:17Z</time></trkpt><trkpt lat="44.45055948969029" lon="9.031456957568608"><ele>139.0</ele><time>2026-04-19T08:14:18Z</time></trkpt><trkpt lat="44.45071597518217" lon="9.031596541111579"><ele>132.0</ele><time>2026-04-19T08:14:19Z</time></trkpt><trkpt lat="44.45086428381039" lon="9.031727649947575"><ele>125.0</ele><time>2026-04-19T08:14:20Z</time></trkpt><trkpt lat="44.45099576165671" lon="9.03181202439237"><ele>124.5</ele><time>2026-04-19T08:14:21Z</time></trkpt><trkpt lat="44.45113915031393" lon="9.03192197677987"><ele>124.0</ele><time>2026-04-19T08:14:22Z</time></trkpt><trkpt lat="44.45124932535392" lon="9.032027822242306"><ele>123.5</ele><time>2026-04-19T08:14:23Z</time></trkpt><trkpt lat="44.45133779453079" lon="9.0321317630902"><ele>123.0</ele><time>2026-04-19T08:14:24Z</time></trkpt><trkpt lat="44.45139372238335" lon="9.03225789737836"><ele>123.0</ele><time>2026-04-19T08:14:25Z</time></trkpt><trkpt lat="44.45143454341414" lon="9.032425437585413"><ele>123.0</ele><time>2026-04-19T08:14:26Z</time></trkpt><trkpt lat="44.451421959350256" lon="9.032617019366858"><ele>123.0</ele><time>2026-04-19T08:14:27Z</time></trkpt><trkpt lat="44.45134999518691" lon="9.03277713164468"><ele>123.0</ele><time>2026-04-19T08:14:28Z</time></trkpt><trkpt lat="44.4512523628698" lon="9.0328944061001"><ele>124.33333333333334</ele><time>2026-04-19T08:14:29Z</time></trkpt><trkpt lat="44.45109537103715" lon="9.032921027133659"><ele>125.66666666666667</ele><time>2026-04-19T08:14:30Z</time></trkpt><trkpt lat="44.45091482532593" lon="9.03300843741826"><ele>127.0</ele><time>2026-04-19T08:14:31Z</time></trkpt><trkpt lat="44.4507132277367" lon="9.033067486595229"><ele>127.0</ele><time>2026-04-19T08:14:32Z</time></trkpt><trkpt lat="44.450525152774716" lon="9.033134674773997"><ele>127.0</ele><time>2026-04-19T08:14:33Z</time></trkpt><trkpt lat="44.450340118092235" lon="9.033211405385863"><ele>127.0</ele><time>2026-04-19T08:14:34Z</time></trkpt><trkpt lat="44.45017984523787" lon="9.033312170078757"><ele>130.0</ele><time>2026-04-19T08:14:35Z</time></trkpt><trkpt lat="44.450028015734034" lon="9.033419242597128"><ele>133.0</ele><time>2026-04-19T08:14:36Z</time></trkpt><trkpt lat="44.44989857524795" lon="9.033532058124957"><ele>136.0</ele><time>2026-04-19T08:14:37Z</time></trkpt><trkpt lat="44.44977023831791" lon="9.033662910300063"><ele>136.0</ele><time>2026-04-19T08:14:38Z</time></trkpt><trkpt lat="44.44963199640985" lon="9.033803812934085"><ele>136.0</ele><time>2026-04-19T08:14:39Z</time></trkpt><trkpt lat="44.449508627472206" lon="9.033926883749647"><ele>136.0</ele><time>2026-04-19T08:14:40Z</time></trkpt><trkpt lat="44.44940860644899" lon="9.034058523564626"><ele>145.33333333333334</ele><time>2026-04-19T08:14:41Z</time></trkpt><trkpt lat="44.44931958510325" lon="9.034208392570605"><ele>154.66666666666666</ele><time>2026-04-19T08:14:42Z</time></trkpt><trkpt lat="44.44926458399419" lon="9.03440214829547"><ele>164.0</ele><time>2026-04-19T08:14:43Z</time></trkpt><trkpt lat="44.44921195108362" lon="9.034638274200045"><ele>164.0</ele><time>2026-04-19T08:14:44Z</time></trkpt><trkpt lat="44.44914689549434" lon="9.034890186317577"><ele>164.0</ele><time>2026-04-19T08:14:44.999Z</time></trkpt><trkpt lat="44.44909522135298" lon="9.035124408341547"><ele>164.0</ele><time>2026-04-19T08:14:45.999Z</time></trkpt><trkpt lat="44.44906680897585" lon="9.035372390020198"><ele>157.0</ele><time>2026-04-19T08:14:46.999Z</time></trkpt><trkpt lat="44.44905238472963" lon="9.035596464708329"><ele>150.0</ele><time>2026-04-19T08:14:47.999Z</time></trkpt><trkpt lat="44.44903927580763" lon="9.035807243152735"><ele>143.0</ele><time>2026-04-19T08:14:48.999Z</time></trkpt><trkpt lat="44.448993398660704" lon="9.036016005873234"><ele>143.25</ele><time>2026-04-19T08:14:49.999Z</time></trkpt><trkpt lat="44.448950937922774" lon="9.036185374088499"><ele>143.5</ele><time>2026-04-19T08:14:50.999Z</time></trkpt><trkpt lat="44.44893723234005" lon="9.036340949225618"><ele>143.75</ele><time>2026-04-19T08:14:51.999Z</time></trkpt><trkpt lat="44.44897306738207" lon="9.036495690563413"><ele>144.0</ele><time>2026-04-19T08:14:52.999Z</time></trkpt><trkpt lat="44.44903481121965" lon="9.036657214955474"><ele>144.0</ele><time>2026-04-19T08:14:53.999Z</time></trkpt><trkpt lat="44.44911995628675" lon="9.036809416462262"><ele>144.0</ele><time>2026-04-19T08:14:54.999Z</time></trkpt><trkpt lat="44.449178277241124" lon="9.036929887275367"><ele>144.0</ele><time>2026-04-19T08:14:55.999Z</time></trkpt><trkpt lat="44.44920809932061" lon="9.037054379210995"><ele>144.0</ele><time>2026-04-19T08:14:56.999Z</time></trkpt><trkpt lat="44.44917594094609" lon="9.037172939245425"><ele>144.0</ele><time>2026-04-19T08:14:57.999Z</time></trkpt><trkpt lat="44.44913472796181" lon="9.037288738247131"><ele>144.0</ele><time>2026-04-19T08:14:58.999Z</time></trkpt><trkpt lat="44.44906511715695" lon="9.037399967437013"><ele>144.0</ele><time>2026-04-19T08:14:59.999Z</time></trkpt><trkpt lat="44.44896071788485" lon="9.037450352149806"><ele>144.0</ele><time>2026-04-19T08:15:00.999Z</time></trkpt><trkpt lat="44.448841941614994" lon="9.037446120575236"><ele>144.0</ele><time>2026-04-19T08:15:01.999Z</time></trkpt><trkpt lat="44.44869370653612" lon="9.03743832359389"><ele>146.5</ele><time>2026-04-19T08:15:02.999Z</time></trkpt><trkpt lat="44.44854870293164" lon="9.037431176488125"><ele>149.0</ele><time>2026-04-19T08:15:03.999Z</time></trkpt><trkpt lat="44.448406840019025" lon="9.037432521330597"><ele>151.5</ele><time>2026-04-19T08:15:04.999Z</time></trkpt><trkpt lat="44.44827421230418" lon="9.037457080202154"><ele>154.0</ele><time>2026-04-19T08:15:05.999Z</time></trkpt><trkpt lat="44.44814912429182" lon="9.037530518777768"><ele>154.0</ele><time>2026-04-19T08:15:06.999Z</time></trkpt><trkpt lat="44.44801631540603" lon="9.037595478298963"><ele>154.0</ele><time>2026-04-19T08:15:07.999Z</time></trkpt><trkpt lat="44.44788884882495" lon="9.037660226019765"><ele>154.0</ele><time>2026-04-19T08:15:08.999Z</time></trkpt><trkpt lat="44.447783323487585" lon="9.037715586301966"><ele>154.0</ele><time>2026-04-19T08:15:09.999Z</time></trkpt><trkpt lat="44.44766790660935" lon="9.037767823481795"><ele>160.0</ele><time>2026-04-19T08:15:10.999Z</time></trkpt><trkpt lat="44.44754142417589" lon="9.037814522643425"><ele>166.0</ele><time>2026-04-19T08:15:11.999Z</time></trkpt><trkpt lat="44.44740985818733" lon="9.037833699658233"><ele>172.0</ele><time>2026-04-19T08:15:12.999Z</time></trkpt><trkpt lat="44.44726566038367" lon="9.037790647618527"><ele>178.0</ele><time>2026-04-19T08:15:13.999Z</time></trkpt><trkpt lat="44.44711538993721" lon="9.03778814229064"><ele>182.5</ele><time>2026-04-19T08:15:14.999Z</time></trkpt><trkpt lat="44.44697057641927" lon="9.037779938090548"><ele>187.0</ele><time>2026-04-19T08:15:15.999Z</time></trkpt><trkpt lat="44.446852083479904" lon="9.037781390962488"><ele>191.5</ele><time>2026-04-19T08:15:16.999Z</time></trkpt><trkpt lat="44.44673086206608" lon="9.037832798379362"><ele>196.0</ele><time>2026-04-19T08:15:17.999Z</time></trkpt><trkpt lat="44.446614990555226" lon="9.037871362901953"><ele>196.0</ele><time>2026-04-19T08:15:18.999Z</time></trkpt><trkpt lat="44.44648678553965" lon="9.037920335639914"><ele>196.0</ele><time>2026-04-19T08:15:19.999Z</time></trkpt><trkpt lat="44.446373311556385" lon="9.037974732730929"><ele>196.0</ele><time>2026-04-19T08:15:20.999Z</time></trkpt><trkpt lat="44.44624963457629" lon="9.03807322573374"><ele>196.0</ele><time>2026-04-19T08:15:21.999Z</time></trkpt><trkpt lat="44.446110497328256" lon="9.038228968367795"><ele>188.33333333333331</ele><time>2026-04-19T08:15:22.999Z</time></trkpt><trkpt lat="44.44595887093382" lon="9.038405169240907"><ele>180.66666666666666</ele><time>2026-04-19T08:15:23.999Z</time></trkpt><trkpt lat="44.44579804905067" lon="9.038595140077224"><ele>173.0</ele><time>2026-04-19T08:15:24.999Z</time></trkpt><trkpt lat="44.44565124044619" lon="9.038766549796252"><ele>173.0</ele><time>2026-04-19T08:15:25.999Z</time></trkpt><trkpt lat="44.44552043805102" lon="9.038943463422683"><ele>173.0</ele><time>2026-04-19T08:15:26.999Z</time></trkpt><trkpt lat="44.44539521003344" lon="9.03907458747603"><ele>173.0</ele><time>2026-04-19T08:15:27.999Z</time></trkpt><trkpt lat="44.445289903361996" lon="9.039204526964294"><ele>173.66666666666666</ele><time>2026-04-19T08:15:28.999Z</time></trkpt><trkpt lat="44.44516787367962" lon="9.039339108272316"><ele>174.33333333333334</ele><time>2026-04-19T08:15:29.999Z</time></trkpt><trkpt lat="44.44504737135559" lon="9.039494646570944"><ele>175.0</ele><time>2026-04-19T08:15:30.999Z</time></trkpt><trkpt lat="44.44492011728476" lon="9.039651109064419"><ele>175.0</ele><time>2026-04-19T08:15:31.999Z</time></trkpt><trkpt lat="44.4448123450759" lon="9.039804076444549"><ele>175.0</ele><time>2026-04-19T08:15:32.999Z</time></trkpt><trkpt lat="44.444712719408486" lon="9.039940507927183"><ele>175.0</ele><time>2026-04-19T08:15:33.999Z</time></trkpt><trkpt lat="44.444596132349716" lon="9.040077631695649"><ele>175.0</ele><time>2026-04-19T08:15:34.999Z</time></trkpt><trkpt lat="44.44446182288819" lon="9.040256148397852"><ele>176.0</ele><time>2026-04-19T08:15:35.999Z</time></trkpt><trkpt lat="44.444315272546724" lon="9.040476080654916"><ele>177.0</ele><time>2026-04-19T08:15:36.999Z</time></trkpt><trkpt lat="44.444155356014825" lon="9.040691845378502"><ele>178.0</ele><time>2026-04-19T08:15:37.999Z</time></trkpt><trkpt lat="44.444017166673866" lon="9.04092054195566"><ele>183.66666666666669</ele><time>2026-04-19T08:15:38.999Z</time></trkpt><trkpt lat="44.443899274549004" lon="9.04112651822444"><ele>189.33333333333334</ele><time>2026-04-19T08:15:39.999Z</time></trkpt><trkpt lat="44.443786225848015" lon="9.041320286974294"><ele>195.0</ele><time>2026-04-19T08:15:40.999Z</time></trkpt><trkpt lat="44.443681784611016" lon="9.041495090176083"><ele>182.66666666666666</ele><time>2026-04-19T08:15:41.999Z</time></trkpt><trkpt lat="44.44357523768572" lon="9.041634998643325"><ele>170.33333333333331</ele><time>2026-04-19T08:15:42.999Z</time></trkpt><trkpt lat="44.443434990496556" lon="9.041716054263489"><ele>158.0</ele><time>2026-04-19T08:15:44Z</time></trkpt><trkpt lat="44.443258121431455" lon="9.041781494777881"><ele>158.0</ele><time>2026-04-19T08:15:45Z</time></trkpt><trkpt lat="44.443057316432046" lon="9.041804978435906"><ele>158.0</ele><time>2026-04-19T08:15:46Z</time></trkpt><trkpt lat="44.44283746898913" lon="9.04178737708727"><ele>158.0</ele><time>2026-04-19T08:15:47Z</time></trkpt><trkpt lat="44.44263262112542" lon="9.041822096665099"><ele>163.0</ele><time>2026-04-19T08:15:48Z</time></trkpt><trkpt lat="44.44244951437525" lon="9.041858700486403"><ele>168.0</ele><time>2026-04-19T08:15:49Z</time></trkpt><trkpt lat="44.44229184816263" lon="9.041871252999725"><ele>173.0</ele><time>2026-04-19T08:15:50Z</time></trkpt><trkpt lat="44.44214892092022" lon="9.041911092927844"><ele>179.5</ele><time>2026-04-19T08:15:51Z</time></trkpt><trkpt lat="44.44201988247003" lon="9.041974134726964"><ele>186.0</ele><time>2026-04-19T08:15:52Z</time></trkpt><trkpt lat="44.441906714629084" lon="9.042059296026217"><ele>192.5</ele><time>2026-04-19T08:15:53Z</time></trkpt><trkpt lat="44.44181111369343" lon="9.042185868295151"><ele>199.0</ele><time>2026-04-19T08:15:54Z</time></trkpt><trkpt lat="44.44175647230127" lon="9.0423585301051"><ele>188.66666666666666</ele><time>2026-04-19T08:15:55Z</time></trkpt><trkpt lat="44.44172004477437" lon="9.042560453210001"><ele>178.33333333333331</ele><time>2026-04-19T08:15:56Z</time></trkpt><trkpt lat="44.44168262090774" lon="9.042826414914481"><ele>168.0</ele><time>2026-04-19T08:15:57Z</time></trkpt><trkpt lat="44.44162358179619" lon="9.043095048818765"><ele>166.33333333333334</ele><time>2026-04-19T08:15:58Z</time></trkpt><trkpt lat="44.44156448275694" lon="9.043350243166124"><ele>164.66666666666669</ele><time>2026-04-19T08:15:59Z</time></trkpt><trkpt lat="44.44150696830995" lon="9.04361944797542"><ele>163.0</ele><time>2026-04-19T08:16:00Z</time></trkpt><trkpt lat="44.441463609738" lon="9.043879790596892"><ele>163.0</ele><time>2026-04-19T08:16:01Z</time></trkpt><trkpt lat="44.441369554662586" lon="9.044085484241734"><ele>163.0</ele><time>2026-04-19T08:16:02Z</time></trkpt><trkpt lat="44.44126981328747" lon="9.044293360452643"><ele>163.0</ele><time>2026-04-19T08:16:03Z</time></trkpt><trkpt lat="44.44118514730115" lon="9.044542009169009"><ele>170.66666666666669</ele><time>2026-04-19T08:16:04Z</time></trkpt><trkpt lat="44.44110243533331" lon="9.044797169482955"><ele>178.33333333333334</ele><time>2026-04-19T08:16:05Z</time></trkpt><trkpt lat="44.44105593299434" lon="9.045098530196679"><ele>186.0</ele><time>2026-04-19T08:16:06Z</time></trkpt><trkpt lat="44.44102228382213" lon="9.045395132538346"><ele>186.0</ele><time>2026-04-19T08:16:07Z</time></trkpt><trkpt lat="44.44098583323158" lon="9.045718081673575"><ele>186.0</ele><time>2026-04-19T08:16:08Z</time></trkpt><trkpt lat="44.44092764866592" lon="9.045991160487482"><ele>186.0</ele><time>2026-04-19T08:16:09Z</time></trkpt><trkpt lat="44.44087912786095" lon="9.046238886114356"><ele>183.0</ele><time>2026-04-19T08:16:10Z</time></trkpt><trkpt lat="44.440860120279844" lon="9.046474903858863"><ele>180.0</ele><time>2026-04-19T08:16:11Z</time></trkpt><trkpt lat="44.440813999789235" lon="9.04672581944796"><ele>177.0</ele><time>2026-04-19T08:16:12Z</time></trkpt><trkpt lat="44.440779795086485" lon="9.046991686500792"><ele>173.33333333333334</ele><time>2026-04-19T08:16:13Z</time></trkpt><trkpt lat="44.44074977347417" lon="9.047250210126988"><ele>169.66666666666669</ele><time>2026-04-19T08:16:14Z</time></trkpt><trkpt lat="44.440716624143" lon="9.047453615390538"><ele>166.0</ele><time>2026-04-19T08:16:15Z</time></trkpt><trkpt lat="44.44067715308252" lon="9.047687096438734"><ele>163.66666666666669</ele><time>2026-04-19T08:16:16Z</time></trkpt><trkpt lat="44.44064404224963" lon="9.047909312213369"><ele>161.33333333333334</ele><time>2026-04-19T08:16:17Z</time></trkpt><trkpt lat="44.44056532039833" lon="9.048115892929607"><ele>159.0</ele><time>2026-04-19T08:16:18Z</time></trkpt><trkpt lat="44.440490232295" lon="9.048289373426792"><ele>159.25</ele><time>2026-04-19T08:16:19Z</time></trkpt><trkpt lat="44.44044207288452" lon="9.048459488477162"><ele>159.5</ele><time>2026-04-19T08:16:20Z</time></trkpt><trkpt lat="44.44041315126864" lon="9.04865278765425"><ele>159.75</ele><time>2026-04-19T08:16:21Z</time></trkpt><trkpt lat="44.440426651604746" lon="9.048859012023687"><ele>160.0</ele><time>2026-04-19T08:16:22Z</time></trkpt><trkpt lat="44.44047083757676" lon="9.04906691550141"><ele>162.0</ele><time>2026-04-19T08:16:23Z</time></trkpt><trkpt lat="44.44055203310194" lon="9.049279594875006"><ele>164.0</ele><time>2026-04-19T08:16:24Z</time></trkpt><trkpt lat="44.4406323127885" lon="9.049510958274528"><ele>166.0</ele><time>2026-04-19T08:16:25Z</time></trkpt><trkpt lat="44.44071099610673" lon="9.049737781147588"><ele>166.0</ele><time>2026-04-19T08:16:26Z</time></trkpt><trkpt lat="44.44077264649274" lon="9.049915502590391"><ele>166.0</ele><time>2026-04-19T08:16:27Z</time></trkpt><trkpt lat="44.44082750470662" lon="9.050072263744976"><ele>166.0</ele><time>2026-04-19T08:16:28Z</time></trkpt><trkpt lat="44.440876616831744" lon="9.050203033599084"><ele>166.0</ele><time>2026-04-19T08:16:29Z</time></trkpt><trkpt lat="44.44094292336212" lon="9.050357379828332"><ele>167.33333333333334</ele><time>2026-04-19T08:16:30Z</time></trkpt><trkpt lat="44.441049447149645" lon="9.050538641880411"><ele>168.66666666666666</ele><time>2026-04-19T08:16:31Z</time></trkpt><trkpt lat="44.441170705849466" lon="9.050726287647295"><ele>170.0</ele><time>2026-04-19T08:16:32Z</time></trkpt><trkpt lat="44.44128941951484" lon="9.050906997574518"><ele>171.66666666666666</ele><time>2026-04-19T08:16:33Z</time></trkpt><trkpt lat="44.44139559781586" lon="9.05106861178126"><ele>173.33333333333334</ele><time>2026-04-19T08:16:34Z</time></trkpt><trkpt lat="44.441509562514575" lon="9.051244887567272"><ele>175.0</ele><time>2026-04-19T08:16:35Z</time></trkpt><trkpt lat="44.44160348515386" lon="9.051402186078038"><ele>175.0</ele><time>2026-04-19T08:16:36Z</time></trkpt><trkpt lat="44.44167768678682" lon="9.051548929049924"><ele>175.0</ele><time>2026-04-19T08:16:37Z</time></trkpt><trkpt lat="44.44171804401783" lon="9.051704807161876"><ele>175.0</ele><time>2026-04-19T08:16:38Z</time></trkpt><trkpt lat="44.441699930905145" lon="9.051868276300572"><ele>175.0</ele><time>2026-04-19T08:16:39Z</time></trkpt><trkpt lat="44.441675163977806" lon="9.052074412377376"><ele>175.75</ele><time>2026-04-19T08:16:40Z</time></trkpt><trkpt lat="44.44165172965635" lon="9.052280072982686"><ele>176.5</ele><time>2026-04-19T08:16:41Z</time></trkpt><trkpt lat="44.44163012203586" lon="9.052441370355064"><ele>177.25</ele><time>2026-04-19T08:16:42Z</time></trkpt><trkpt lat="44.44166118173811" lon="9.052612657417129"><ele>178.0</ele><time>2026-04-19T08:16:43Z</time></trkpt><trkpt lat="44.44174392800308" lon="9.052764299262945"><ele>178.0</ele><time>2026-04-19T08:16:44Z</time></trkpt><trkpt lat="44.4418541197083" lon="9.052911447868428"><ele>178.0</ele><time>2026-04-19T08:16:45Z</time></trkpt><trkpt lat="44.44200658848166" lon="9.053044050673488"><ele>178.0</ele><time>2026-04-19T08:16:46Z</time></trkpt><trkpt lat="44.44216585519615" lon="9.053196002837597"><ele>180.0</ele><time>2026-04-19T08:16:46.999Z</time></trkpt><trkpt lat="44.44231091076833" lon="9.05334239055516"><ele>182.0</ele><time>2026-04-19T08:16:47.999Z</time></trkpt><trkpt lat="44.4424539408081" lon="9.053488345170091"><ele>184.0</ele><time>2026-04-19T08:16:48.999Z</time></trkpt><trkpt lat="44.44263107991626" lon="9.053604963774358"><ele>184.0</ele><time>2026-04-19T08:16:49.999Z</time></trkpt><trkpt lat="44.44280354171601" lon="9.053693775503948"><ele>184.0</ele><time>2026-04-19T08:16:50.999Z</time></trkpt><trkpt lat="44.442951118896936" lon="9.05374933554895"><ele>184.0</ele><time>2026-04-19T08:16:51.999Z</time></trkpt><trkpt lat="44.44308345692958" lon="9.05381824339077"><ele>183.75</ele><time>2026-04-19T08:16:52.999Z</time></trkpt><trkpt lat="44.443168323181" lon="9.053912885521456"><ele>183.5</ele><time>2026-04-19T08:16:53.999Z</time></trkpt><trkpt lat="44.44323314261849" lon="9.054040513218272"><ele>183.25</ele><time>2026-04-19T08:16:54.999Z</time></trkpt><trkpt lat="44.44326824515537" lon="9.054205748840296"><ele>183.0</ele><time>2026-04-19T08:16:55.999Z</time></trkpt><trkpt lat="44.44326525630988" lon="9.054370071319555"><ele>185.33333333333334</ele><time>2026-04-19T08:16:56.999Z</time></trkpt><trkpt lat="44.44319442561705" lon="9.054535104305963"><ele>187.66666666666669</ele><time>2026-04-19T08:16:57.999Z</time></trkpt><trkpt lat="44.44311848470625" lon="9.054745587740937"><ele>190.0</ele><time>2026-04-19T08:16:58.999Z</time></trkpt><trkpt lat="44.44304334203002" lon="9.054952653084452"><ele>191.66666666666669</ele><time>2026-04-19T08:16:59.999Z</time></trkpt><trkpt lat="44.44297521413821" lon="9.05519423455698"><ele>193.33333333333334</ele><time>2026-04-19T08:17:00.999Z</time></trkpt><trkpt lat="44.44291375546723" lon="9.055435529834826"><ele>195.0</ele><time>2026-04-19T08:17:01.999Z</time></trkpt><trkpt lat="44.44286189613018" lon="9.055627672863391"><ele>212.33333333333331</ele><time>2026-04-19T08:17:02.999Z</time></trkpt><trkpt lat="44.442788919749795" lon="9.055813835271758"><ele>229.66666666666666</ele><time>2026-04-19T08:17:03.999Z</time></trkpt><trkpt lat="44.442735649635246" lon="9.0560349325202"><ele>247.0</ele><time>2026-04-19T08:17:04.999Z</time></trkpt><trkpt lat="44.4427160322458" lon="9.056306941411114"><ele>247.0</ele><time>2026-04-19T08:17:05.999Z</time></trkpt><trkpt lat="44.442699481786185" lon="9.056555663163147"><ele>247.0</ele><time>2026-04-19T08:17:06.999Z</time></trkpt><trkpt lat="44.44268509778531" lon="9.05680435492442"><ele>247.0</ele><time>2026-04-19T08:17:07.999Z</time></trkpt><trkpt lat="44.442684116577986" lon="9.05702414107731"><ele>247.0</ele><time>2026-04-19T08:17:08.999Z</time></trkpt><trkpt lat="44.44270020815637" lon="9.05724947539792"><ele>247.0</ele><time>2026-04-19T08:17:09.999Z</time></trkpt><trkpt lat="44.4427078520169" lon="9.057441421006738"><ele>247.0</ele><time>2026-04-19T08:17:10.999Z</time></trkpt><trkpt lat="44.44270105450186" lon="9.057622444101813"><ele>247.0</ele><time>2026-04-19T08:17:11.999Z</time></trkpt><trkpt lat="44.44266036311561" lon="9.057815470005531"><ele>242.33333333333331</ele><time>2026-04-19T08:17:12.999Z</time></trkpt><trkpt lat="44.442586849818476" lon="9.058004133440722"><ele>237.66666666666669</ele><time>2026-04-19T08:17:13.999Z</time></trkpt><trkpt lat="44.44249569326671" lon="9.058208315141956"><ele>233.0</ele><time>2026-04-19T08:17:14.999Z</time></trkpt><trkpt lat="44.44241349924253" lon="9.058406350806047"><ele>229.5</ele><time>2026-04-19T08:17:15.999Z</time></trkpt><trkpt lat="44.44233873687553" lon="9.058613874274272"><ele>226.0</ele><time>2026-04-19T08:17:16.999Z</time></trkpt><trkpt lat="44.442282613426805" lon="9.058806030224922"><ele>222.5</ele><time>2026-04-19T08:17:17.999Z</time></trkpt><trkpt lat="44.44223947375576" lon="9.058983549932762"><ele>219.0</ele><time>2026-04-19T08:17:18.999Z</time></trkpt><trkpt lat="44.44221268944227" lon="9.05917923218626"><ele>218.33333333333331</ele><time>2026-04-19T08:17:19.999Z</time></trkpt><trkpt lat="44.44218684011146" lon="9.059391025798655"><ele>217.66666666666666</ele><time>2026-04-19T08:17:20.999Z</time></trkpt><trkpt lat="44.44216151972213" lon="9.059615269920032"><ele>217.0</ele><time>2026-04-19T08:17:21.999Z</time></trkpt><trkpt lat="44.442142774455974" lon="9.059859062483149"><ele>218.33333333333331</ele><time>2026-04-19T08:17:22.999Z</time></trkpt><trkpt lat="44.4421764206005" lon="9.060112700391656"><ele>219.66666666666669</ele><time>2026-04-19T08:17:23.999Z</time></trkpt><trkpt lat="44.44221951358292" lon="9.060379710607931"><ele>221.0</ele><time>2026-04-19T08:17:24.999Z</time></trkpt><trkpt lat="44.44226339272295" lon="9.06064634379392"><ele>222.33333333333334</ele><time>2026-04-19T08:17:25.999Z</time></trkpt><trkpt lat="44.44229931649155" lon="9.060878112838425"><ele>223.66666666666669</ele><time>2026-04-19T08:17:26.999Z</time></trkpt><trkpt lat="44.44232029606924" lon="9.061068243497555"><ele>225.0</ele><time>2026-04-19T08:17:27.999Z</time></trkpt><trkpt lat="44.44231610841878" lon="9.061281073557591"><ele>225.0</ele><time>2026-04-19T08:17:28.999Z</time></trkpt><trkpt lat="44.44228684063456" lon="9.061496922211822"><ele>225.0</ele><time>2026-04-19T08:17:29.999Z</time></trkpt><trkpt lat="44.44225990806261" lon="9.061711685881354"><ele>225.0</ele><time>2026-04-19T08:17:30.999Z</time></trkpt><trkpt lat="44.44221927447002" lon="9.061914068846647"><ele>225.66666666666669</ele><time>2026-04-19T08:17:31.999Z</time></trkpt><trkpt lat="44.44217366296033" lon="9.062133743876268"><ele>226.33333333333334</ele><time>2026-04-19T08:17:32.999Z</time></trkpt><trkpt lat="44.44217412268796" lon="9.062376864112457"><ele>227.0</ele><time>2026-04-19T08:17:33.999Z</time></trkpt><trkpt lat="44.44220258890351" lon="9.062608569154285"><ele>227.66666666666669</ele><time>2026-04-19T08:17:34.999Z</time></trkpt><trkpt lat="44.44224226884008" lon="9.062843055250577"><ele>228.33333333333331</ele><time>2026-04-19T08:17:35.999Z</time></trkpt><trkpt lat="44.442282119216856" lon="9.063080600224737"><ele>229.0</ele><time>2026-04-19T08:17:36.999Z</time></trkpt><trkpt lat="44.442320921830714" lon="9.063311899949007"><ele>230.79999999999998</ele><time>2026-04-19T08:17:37.999Z</time></trkpt><trkpt lat="44.442360958374124" lon="9.063507977856215"><ele>232.59999999999997</ele><time>2026-04-19T08:17:38.999Z</time></trkpt><trkpt lat="44.442358930219804" lon="9.063673914562957"><ele>234.4</ele><time>2026-04-19T08:17:39.999Z</time></trkpt><trkpt lat="44.442395453216115" lon="9.06380438387534"><ele>236.2</ele><time>2026-04-19T08:17:40.999Z</time></trkpt><trkpt lat="44.44239299014131" lon="9.063923845480325"><ele>238.0</ele><time>2026-04-19T08:17:41.999Z</time></trkpt><trkpt lat="44.44238341146619" lon="9.064070612132024"><ele>239.66666666666666</ele><time>2026-04-19T08:17:42.999Z</time></trkpt><trkpt lat="44.44234703149199" lon="9.064277394057624"><ele>241.33333333333331</ele><time>2026-04-19T08:17:43.999Z</time></trkpt><trkpt lat="44.442224680604376" lon="9.064434990941704"><ele>243.0</ele><time>2026-04-19T08:17:44.999Z</time></trkpt><trkpt lat="44.44210283360335" lon="9.064553949668307"><ele>251.5</ele><time>2026-04-19T08:17:45.999Z</time></trkpt><trkpt lat="44.442079131514724" lon="9.064706669559987"><ele>260.0</ele><time>2026-04-19T08:17:46.999Z</time></trkpt><trkpt lat="44.441999942931325" lon="9.064823982941551"><ele>268.5</ele><time>2026-04-19T08:17:47.999Z</time></trkpt><trkpt lat="44.4419295258519" lon="9.064956168094643"><ele>277.0</ele><time>2026-04-19T08:17:48.999Z</time></trkpt><trkpt lat="44.44188888702013" lon="9.065124132802108"><ele>277.0</ele><time>2026-04-19T08:17:50Z</time></trkpt><trkpt lat="44.44189082330048" lon="9.065323722246998"><ele>277.0</ele><time>2026-04-19T08:17:51Z</time></trkpt><trkpt lat="44.44191991382981" lon="9.065494071703306"><ele>277.0</ele><time>2026-04-19T08:17:52Z</time></trkpt><trkpt lat="44.44196937163571" lon="9.065666860552941"><ele>277.0</ele><time>2026-04-19T08:17:53Z</time></trkpt><trkpt lat="44.44202125314843" lon="9.065850086198804"><ele>276.75</ele><time>2026-04-19T08:17:54Z</time></trkpt><trkpt lat="44.442065572042495" lon="9.066029008452228"><ele>276.5</ele><time>2026-04-19T08:17:55Z</time></trkpt><trkpt lat="44.44210380195065" lon="9.066175558941422"><ele>276.25</ele><time>2026-04-19T08:17:56Z</time></trkpt><trkpt lat="44.44211602813643" lon="9.066323397806448"><ele>276.0</ele><time>2026-04-19T08:17:57Z</time></trkpt><trkpt lat="44.442105557439845" lon="9.066470066170075"><ele>276.0</ele><time>2026-04-19T08:17:58Z</time></trkpt><trkpt lat="44.44207879821698" lon="9.066601792672758"><ele>276.0</ele><time>2026-04-19T08:17:59Z</time></trkpt><trkpt lat="44.44203728626654" lon="9.066729333554578"><ele>276.0</ele><time>2026-04-19T08:18:00Z</time></trkpt><trkpt lat="44.44196721336037" lon="9.066847129418626"><ele>276.0</ele><time>2026-04-19T08:18:01Z</time></trkpt><trkpt lat="44.44186354934484" lon="9.066978027562607"><ele>276.0</ele><time>2026-04-19T08:18:02Z</time></trkpt><trkpt lat="44.441745340956565" lon="9.067129653525472"><ele>276.0</ele><time>2026-04-19T08:18:03Z</time></trkpt><trkpt lat="44.44161655092395" lon="9.067294852403387"><ele>276.0</ele><time>2026-04-19T08:18:04Z</time></trkpt><trkpt lat="44.44150149454765" lon="9.067442411886576"><ele>276.0</ele><time>2026-04-19T08:18:05Z</time></trkpt><trkpt lat="44.441377929231535" lon="9.067615392626587"><ele>286.3333333333333</ele><time>2026-04-19T08:18:06Z</time></trkpt><trkpt lat="44.44127362879399" lon="9.06782729293137"><ele>296.66666666666663</ele><time>2026-04-19T08:18:07Z</time></trkpt><trkpt lat="44.441182521144206" lon="9.068015266272107"><ele>307.0</ele><time>2026-04-19T08:18:08Z</time></trkpt><trkpt lat="44.44111019125897" lon="9.068179626050107"><ele>304.0</ele><time>2026-04-19T08:18:09Z</time></trkpt><trkpt lat="44.44103991072013" lon="9.06833289786363"><ele>301.0</ele><time>2026-04-19T08:18:10Z</time></trkpt><trkpt lat="44.441009116816865" lon="9.0684869309266"><ele>298.0</ele><time>2026-04-19T08:18:11Z</time></trkpt><trkpt lat="44.44101358717496" lon="9.068663126551417"><ele>295.0</ele><time>2026-04-19T08:18:12Z</time></trkpt><trkpt lat="44.44104807236428" lon="9.068852778782155"><ele>295.0</ele><time>2026-04-19T08:18:13Z</time></trkpt><trkpt lat="44.44109913320368" lon="9.069053452679695"><ele>295.0</ele><time>2026-04-19T08:18:14Z</time></trkpt><trkpt lat="44.44115352556262" lon="9.069236259370486"><ele>295.0</ele><time>2026-04-19T08:18:15Z</time></trkpt><trkpt lat="44.441166852312996" lon="9.069414145969164"><ele>295.0</ele><time>2026-04-19T08:18:16Z</time></trkpt><trkpt lat="44.44112408828345" lon="9.069608900799581"><ele>295.25</ele><time>2026-04-19T08:18:17Z</time></trkpt><trkpt lat="44.441047896244726" lon="9.06978989307522"><ele>295.5</ele><time>2026-04-19T08:18:18Z</time></trkpt><trkpt lat="44.44096691158377" lon="9.06994294341849"><ele>295.75</ele><time>2026-04-19T08:18:19Z</time></trkpt><trkpt lat="44.440876675930944" lon="9.07006499237341"><ele>296.0</ele><time>2026-04-19T08:18:20Z</time></trkpt><trkpt lat="44.44078032320082" lon="9.070184829481793"><ele>294.0</ele><time>2026-04-19T08:18:21Z</time></trkpt><trkpt lat="44.44069525356109" lon="9.070301104614355"><ele>292.0</ele><time>2026-04-19T08:18:22Z</time></trkpt><trkpt lat="44.44062860039282" lon="9.07042061224524"><ele>290.0</ele><time>2026-04-19T08:18:23Z</time></trkpt><trkpt lat="44.44058949024442" lon="9.070562599225482"><ele>288.0</ele><time>2026-04-19T08:18:24Z</time></trkpt><trkpt lat="44.44058778025912" lon="9.070736651604806"><ele>286.0</ele><time>2026-04-19T08:18:25Z</time></trkpt><trkpt lat="44.440600772118636" lon="9.070941901862058"><ele>284.0</ele><time>2026-04-19T08:18:26Z</time></trkpt><trkpt lat="44.44063304903685" lon="9.071132878371557"><ele>282.0</ele><time>2026-04-19T08:18:27Z</time></trkpt><trkpt lat="44.440680295004626" lon="9.071346791306478"><ele>280.0</ele><time>2026-04-19T08:18:28Z</time></trkpt><trkpt lat="44.44072041071225" lon="9.071546498477723"><ele>281.25</ele><time>2026-04-19T08:18:29Z</time></trkpt><trkpt lat="44.440755296448984" lon="9.071759822994325"><ele>282.5</ele><time>2026-04-19T08:18:30Z</time></trkpt><trkpt lat="44.44079008843497" lon="9.071946639929198"><ele>283.75</ele><time>2026-04-19T08:18:31Z</time></trkpt><trkpt lat="44.44079555220135" lon="9.072118244954583"><ele>285.0</ele><time>2026-04-19T08:18:32Z</time></trkpt><trkpt lat="44.44077243877688" lon="9.072287216700085"><ele>283.25</ele><time>2026-04-19T08:18:33Z</time></trkpt><trkpt lat="44.44070609372983" lon="9.072442107814865"><ele>281.5</ele><time>2026-04-19T08:18:34Z</time></trkpt><trkpt lat="44.44060889915069" lon="9.072583482346715"><ele>279.75</ele><time>2026-04-19T08:18:35Z</time></trkpt><trkpt lat="44.4404651301302" lon="9.072710517568886"><ele>278.0</ele><time>2026-04-19T08:18:36Z</time></trkpt><trkpt lat="44.44034937263528" lon="9.072848109050325"><ele>287.0</ele><time>2026-04-19T08:18:37Z</time></trkpt><trkpt lat="44.440255832433174" lon="9.072981408360047"><ele>296.0</ele><time>2026-04-19T08:18:38Z</time></trkpt><trkpt lat="44.44017975469784" lon="9.073133093982047"><ele>305.0</ele><time>2026-04-19T08:18:39Z</time></trkpt><trkpt lat="44.44012240145131" lon="9.073321474804152"><ele>314.0</ele><time>2026-04-19T08:18:40Z</time></trkpt><trkpt lat="44.44009278561116" lon="9.07355377087616"><ele>314.0</ele><time>2026-04-19T08:18:41Z</time></trkpt><trkpt lat="44.44004319245641" lon="9.073786090994302"><ele>314.0</ele><time>2026-04-19T08:18:42Z</time></trkpt><trkpt lat="44.43999091764071" lon="9.074002546025062"><ele>314.0</ele><time>2026-04-19T08:18:43Z</time></trkpt><trkpt lat="44.439948057695986" lon="9.074173757460501"><ele>310.75</ele><time>2026-04-19T08:18:44Z</time></trkpt><trkpt lat="44.43989976775463" lon="9.074324307229872"><ele>307.5</ele><time>2026-04-19T08:18:45Z</time></trkpt><trkpt lat="44.43987459568559" lon="9.074484963396834"><ele>304.25</ele><time>2026-04-19T08:18:46Z</time></trkpt><trkpt lat="44.439902461711185" lon="9.074661344855455"><ele>301.0</ele><time>2026-04-19T08:18:47Z</time></trkpt><trkpt lat="44.43993427916853" lon="9.074882917501458"><ele>300.75</ele><time>2026-04-19T08:18:48Z</time></trkpt><trkpt lat="44.43999349326233" lon="9.07508180211953"><ele>300.5</ele><time>2026-04-19T08:18:49Z</time></trkpt><trkpt lat="44.44004070945014" lon="9.075265265411417"><ele>300.25</ele><time>2026-04-19T08:18:50Z</time></trkpt><trkpt lat="44.440063988819084" lon="9.075435212890184"><ele>300.0</ele><time>2026-04-19T08:18:51Z</time></trkpt><trkpt lat="44.44006559835633" lon="9.075627351601536"><ele>298.6666666666667</ele><time>2026-04-19T08:18:52Z</time></trkpt><trkpt lat="44.44003036448005" lon="9.075828498117364"><ele>297.33333333333337</ele><time>2026-04-19T08:18:53Z</time></trkpt><trkpt lat="44.43997758447868" lon="9.076029899811045"><ele>296.0</ele><time>2026-04-19T08:18:53.999Z</time></trkpt><trkpt lat="44.43987255739923" lon="9.076193817729871"><ele>296.0</ele><time>2026-04-19T08:18:54.999Z</time></trkpt><trkpt lat="44.43973145798568" lon="9.076341875352067"><ele>296.0</ele><time>2026-04-19T08:18:55.999Z</time></trkpt><trkpt lat="44.43959502835166" lon="9.076447973552742"><ele>296.0</ele><time>2026-04-19T08:18:56.999Z</time></trkpt><trkpt lat="44.43945417374673" lon="9.076515660567857"><ele>303.25</ele><time>2026-04-19T08:18:57.999Z</time></trkpt><trkpt lat="44.439304987359044" lon="9.076593659664695"><ele>310.5</ele><time>2026-04-19T08:18:58.999Z</time></trkpt><trkpt lat="44.43918331438662" lon="9.07668844566988"><ele>317.75</ele><time>2026-04-19T08:18:59.999Z</time></trkpt><trkpt lat="44.43908554782982" lon="9.076805677407354"><ele>325.0</ele><time>2026-04-19T08:19:00.999Z</time></trkpt><trkpt lat="44.4390007762836" lon="9.076949202560703"><ele>325.0</ele><time>2026-04-19T08:19:01.999Z</time></trkpt><trkpt lat="44.43894606113482" lon="9.077120464178384"><ele>325.0</ele><time>2026-04-19T08:19:02.999Z</time></trkpt><trkpt lat="44.4388611631999" lon="9.07729508187775"><ele>325.0</ele><time>2026-04-19T08:19:03.999Z</time></trkpt><trkpt lat="44.43876963248994" lon="9.077486916824645"><ele>327.75</ele><time>2026-04-19T08:19:04.999Z</time></trkpt><trkpt lat="44.43867963050344" lon="9.077661874341334"><ele>330.5</ele><time>2026-04-19T08:19:05.999Z</time></trkpt><trkpt lat="44.438598962041645" lon="9.077821369301862"><ele>333.25</ele><time>2026-04-19T08:19:06.999Z</time></trkpt><trkpt lat="44.43851580464671" lon="9.077991227508937"><ele>336.0</ele><time>2026-04-19T08:19:07.999Z</time></trkpt><trkpt lat="44.43842677295953" lon="9.078156918163362"><ele>331.0</ele><time>2026-04-19T08:19:08.999Z</time></trkpt><trkpt lat="44.43835414650608" lon="9.07830698175929"><ele>326.0</ele><time>2026-04-19T08:19:09.999Z</time></trkpt><trkpt lat="44.438293112405724" lon="9.078445205370825"><ele>321.0</ele><time>2026-04-19T08:19:10.999Z</time></trkpt><trkpt lat="44.4382365222189" lon="9.078578015901781"><ele>316.0</ele><time>2026-04-19T08:19:11.999Z</time></trkpt><trkpt lat="44.43822399069782" lon="9.078742473879139"><ele>316.0</ele><time>2026-04-19T08:19:12.999Z</time></trkpt><trkpt lat="44.438219884138945" lon="9.078922168443036"><ele>316.0</ele><time>2026-04-19T08:19:13.999Z</time></trkpt><trkpt lat="44.438229660904824" lon="9.079113480717727"><ele>316.0</ele><time>2026-04-19T08:19:14.999Z</time></trkpt><trkpt lat="44.438233077027945" lon="9.079308864807343"><ele>316.0</ele><time>2026-04-19T08:19:15.999Z</time></trkpt><trkpt lat="44.438238167908615" lon="9.079515235501326"><ele>313.75</ele><time>2026-04-19T08:19:16.999Z</time></trkpt><trkpt lat="44.43824691144924" lon="9.079721424236569"><ele>311.5</ele><time>2026-04-19T08:19:17.999Z</time></trkpt><trkpt lat="44.438260820523354" lon="9.079924421268958"><ele>309.25</ele><time>2026-04-19T08:19:18.999Z</time></trkpt><trkpt lat="44.438316420841474" lon="9.080128317089828"><ele>307.0</ele><time>2026-04-19T08:19:19.999Z</time></trkpt><trkpt lat="44.43838521245562" lon="9.080341028723172"><ele>306.66666666666663</ele><time>2026-04-19T08:19:20.999Z</time></trkpt><trkpt lat="44.43845509015896" lon="9.0805701055258"><ele>306.3333333333333</ele><time>2026-04-19T08:19:21.999Z</time></trkpt><trkpt lat="44.438548118892115" lon="9.080805333928321"><ele>306.0</ele><time>2026-04-19T08:19:22.999Z</time></trkpt><trkpt lat="44.438645460406256" lon="9.081050448656153"><ele>306.6666666666667</ele><time>2026-04-19T08:19:23.999Z</time></trkpt><trkpt lat="44.43874470266534" lon="9.081299070551076"><ele>307.33333333333337</ele><time>2026-04-19T08:19:24.999Z</time></trkpt><trkpt lat="44.43883725680259" lon="9.081533924046996"><ele>308.0</ele><time>2026-04-19T08:19:25.999Z</time></trkpt><trkpt lat="44.438923826921545" lon="9.081751078473623"><ele>308.0</ele><time>2026-04-19T08:19:26.999Z</time></trkpt><trkpt lat="44.43901214288641" lon="9.08195632464215"><ele>308.0</ele><time>2026-04-19T08:19:27.999Z</time></trkpt><trkpt lat="44.43910364952964" lon="9.08212841063361"><ele>308.0</ele><time>2026-04-19T08:19:28.999Z</time></trkpt><trkpt lat="44.439214087328814" lon="9.082310803044932"><ele>315.33333333333337</ele><time>2026-04-19T08:19:29.999Z</time></trkpt><trkpt lat="44.4393435428972" lon="9.082481147478907"><ele>322.6666666666667</ele><time>2026-04-19T08:19:30.999Z</time></trkpt><trkpt lat="44.439467990746195" lon="9.082622799406797"><ele>330.0</ele><time>2026-04-19T08:19:31.999Z</time></trkpt><trkpt lat="44.43957912996864" lon="9.082746499437942"><ele>326.25</ele><time>2026-04-19T08:19:32.999Z</time></trkpt><trkpt lat="44.43969337417267" lon="9.082873654762341"><ele>322.5</ele><time>2026-04-19T08:19:33.999Z</time></trkpt><trkpt lat="44.43980675855061" lon="9.082998257943613"><ele>318.75</ele><time>2026-04-19T08:19:34.999Z</time></trkpt><trkpt lat="44.43991930591287" lon="9.08312146296502"><ele>315.0</ele><time>2026-04-19T08:19:35.999Z</time></trkpt><trkpt lat="44.44003980829175" lon="9.083254484443186"><ele>321.0</ele><time>2026-04-19T08:19:36.999Z</time></trkpt><trkpt lat="44.4401665088084" lon="9.083404483922271"><ele>327.0</ele><time>2026-04-19T08:19:37.999Z</time></trkpt><trkpt lat="44.44028009172918" lon="9.08356769830856"><ele>333.0</ele><time>2026-04-19T08:19:38.999Z</time></trkpt><trkpt lat="44.44039195400182" lon="9.083755209165801"><ele>330.0</ele><time>2026-04-19T08:19:39.999Z</time></trkpt><trkpt lat="44.44048826562311" lon="9.083960070885777"><ele>327.0</ele><time>2026-04-19T08:19:40.999Z</time></trkpt><trkpt lat="44.44057230402093" lon="9.084187880520147"><ele>324.0</ele><time>2026-04-19T08:19:41.999Z</time></trkpt><trkpt lat="44.44063927192331" lon="9.084426613789871"><ele>324.0</ele><time>2026-04-19T08:19:42.999Z</time></trkpt><trkpt lat="44.44070404641962" lon="9.084670338038997"><ele>324.0</ele><time>2026-04-19T08:19:43.999Z</time></trkpt><trkpt lat="44.44077658213991" lon="9.0849283219057"><ele>324.0</ele><time>2026-04-19T08:19:44.999Z</time></trkpt><trkpt lat="44.44084865531795" lon="9.085177740749398"><ele>326.3333333333333</ele><time>2026-04-19T08:19:45.999Z</time></trkpt><trkpt lat="44.4409136948626" lon="9.08540228474098"><ele>328.66666666666663</ele><time>2026-04-19T08:19:46.999Z</time></trkpt><trkpt lat="44.44099174685075" lon="9.085602933231824"><ele>331.0</ele><time>2026-04-19T08:19:47.999Z</time></trkpt><trkpt lat="44.441068049734945" lon="9.085815287190655"><ele>330.3333333333333</ele><time>2026-04-19T08:19:48.999Z</time></trkpt><trkpt lat="44.44117712151334" lon="9.086012484457353"><ele>329.6666666666667</ele><time>2026-04-19T08:19:49.999Z</time></trkpt><trkpt lat="44.44130950124575" lon="9.086205699358082"><ele>329.0</ele><time>2026-04-19T08:19:50.999Z</time></trkpt><trkpt lat="44.44145986258112" lon="9.086388715419156"><ele>335.33333333333337</ele><time>2026-04-19T08:19:51.999Z</time></trkpt><trkpt lat="44.44159176292754" lon="9.086598288208807"><ele>341.6666666666667</ele><time>2026-04-19T08:19:52.999Z</time></trkpt><trkpt lat="44.44170300367986" lon="9.086790465363908"><ele>348.0</ele><time>2026-04-19T08:19:53.999Z</time></trkpt><trkpt lat="44.44176852719335" lon="9.086987929493462"><ele>348.0</ele><time>2026-04-19T08:19:54.999Z</time></trkpt><trkpt lat="44.441818656583045" lon="9.087231172108378"><ele>348.0</ele><time>2026-04-19T08:19:56Z</time></trkpt><trkpt lat="44.44186271201247" lon="9.087489065143881"><ele>348.0</ele><time>2026-04-19T08:19:57Z</time></trkpt><trkpt lat="44.441904985653984" lon="9.087735838241006"><ele>351.5</ele><time>2026-04-19T08:19:58Z</time></trkpt><trkpt lat="44.44194133727021" lon="9.087951417009362"><ele>355.0</ele><time>2026-04-19T08:19:59Z</time></trkpt><trkpt lat="44.44197220141591" lon="9.088136514333042"><ele>358.5</ele><time>2026-04-19T08:20:00Z</time></trkpt><trkpt lat="44.44200503184345" lon="9.088321583446513"><ele>362.0</ele><time>2026-04-19T08:20:01Z</time></trkpt><trkpt lat="44.44204935103109" lon="9.088507307232767"><ele>363.40000000000003</ele><time>2026-04-19T08:20:02Z</time></trkpt><trkpt lat="44.44210478814215" lon="9.088664595086904"><ele>364.8</ele><time>2026-04-19T08:20:03Z</time></trkpt><trkpt lat="44.4421624830836" lon="9.088789588377047"><ele>366.2</ele><time>2026-04-19T08:20:04Z</time></trkpt><trkpt lat="44.4422192626113" lon="9.088908913449224"><ele>367.6</ele><time>2026-04-19T08:20:05Z</time></trkpt><trkpt lat="44.442269923936124" lon="9.0890155786744"><ele>369.0</ele><time>2026-04-19T08:20:06Z</time></trkpt><trkpt lat="44.44232549520997" lon="9.089132600657383"><ele>364.1666666666667</ele><time>2026-04-19T08:20:07Z</time></trkpt><trkpt lat="44.442385100483136" lon="9.089260161412316"><ele>359.3333333333333</ele><time>2026-04-19T08:20:08Z</time></trkpt><trkpt lat="44.442429922072265" lon="9.089375534141965"><ele>354.5</ele><time>2026-04-19T08:20:09Z</time></trkpt><trkpt lat="44.442460292544624" lon="9.089487250600508"><ele>349.66666666666663</ele><time>2026-04-19T08:20:10Z</time></trkpt><trkpt lat="44.442478292675716" lon="9.089601790115015"><ele>344.8333333333333</ele><time>2026-04-19T08:20:11Z</time></trkpt><trkpt lat="44.442483871062656" lon="9.089695685221908"><ele>340.0</ele><time>2026-04-19T08:20:12Z</time></trkpt><trkpt lat="44.44247125252482" lon="9.08980636189977"><ele>341.0</ele><time>2026-04-19T08:20:13Z</time></trkpt><trkpt lat="44.44244805136088" lon="9.089938939212251"><ele>342.0</ele><time>2026-04-19T08:20:14Z</time></trkpt><trkpt lat="44.44242941930125" lon="9.090062207097995"><ele>343.0</ele><time>2026-04-19T08:20:15Z</time></trkpt><trkpt lat="44.442408581666584" lon="9.090159881378607"><ele>344.0</ele><time>2026-04-19T08:20:16Z</time></trkpt><trkpt lat="44.44239011465193" lon="9.090265044624429"><ele>345.0</ele><time>2026-04-19T08:20:17Z</time></trkpt><trkpt lat="44.442362655217494" lon="9.090385803299762"><ele>346.0</ele><time>2026-04-19T08:20:18Z</time></trkpt><trkpt lat="44.442341354828066" lon="9.090477099503135"><ele>346.0</ele><time>2026-04-19T08:20:19Z</time></trkpt><trkpt lat="44.44232544589382" lon="9.09063555392278"><ele>346.0</ele><time>2026-04-19T08:20:21Z</time></trkpt><trkpt lat="44.44236055692532" lon="9.090823416543751"><ele>346.0</ele><time>2026-04-19T08:20:23Z</time></trkpt><trkpt lat="44.442397551878024" lon="9.090932523360543"><ele>346.0</ele><time>2026-04-19T08:20:24Z</time></trkpt><trkpt lat="44.44243600191912" lon="9.091040803660484"><ele>346.0</ele><time>2026-04-19T08:20:25Z</time></trkpt><trkpt lat="44.442467492693154" lon="9.091131172209947"><ele>346.4</ele><time>2026-04-19T08:20:26Z</time></trkpt><trkpt lat="44.44250623524227" lon="9.091286758460859"><ele>346.8</ele><time>2026-04-19T08:20:28Z</time></trkpt><trkpt lat="44.442500181911875" lon="9.091379391843725"><ele>347.2</ele><time>2026-04-19T08:20:29Z</time></trkpt><trkpt lat="44.4424427956471" lon="9.09153465928894"><ele>347.59999999999997</ele><time>2026-04-19T08:20:31Z</time></trkpt><trkpt lat="44.442474036655064" lon="9.091686736164673"><ele>348.0</ele><time>2026-04-19T08:20:33Z</time></trkpt><trkpt lat="44.44255920533326" lon="9.091767952372448"><ele>348.0</ele><time>2026-04-19T08:20:35Z</time></trkpt><trkpt lat="44.442624743447446" lon="9.091776589873033"><ele>348.0</ele><time>2026-04-19T08:20:36Z</time></trkpt><trkpt lat="44.442690530584876" lon="9.091748976540766"><ele>348.0</ele><time>2026-04-19T08:20:37Z</time></trkpt><trkpt lat="44.442751908963956" lon="9.091684396357417"><ele>348.0</ele><time>2026-04-19T08:20:38Z</time></trkpt><trkpt lat="44.44280604161857" lon="9.091618735897876"><ele>348.0</ele><time>2026-04-19T08:20:39Z</time></trkpt><trkpt lat="44.442854033997534" lon="9.091544330774909"><ele>348.0</ele><time>2026-04-19T08:20:40Z</time></trkpt><trkpt lat="44.442919410893765" lon="9.091506141621055"><ele>348.0</ele><time>2026-04-19T08:20:41Z</time></trkpt><trkpt lat="44.44299943673601" lon="9.091463007162071"><ele>347.75</ele><time>2026-04-19T08:20:42Z</time></trkpt><trkpt lat="44.443119192924925" lon="9.091402099391685"><ele>347.5</ele><time>2026-04-19T08:20:43Z</time></trkpt><trkpt lat="44.44326010046075" lon="9.091323583250688"><ele>347.25</ele><time>2026-04-19T08:20:44Z</time></trkpt><trkpt lat="44.443372313991986" lon="9.091192598479987"><ele>347.0</ele><time>2026-04-19T08:20:45Z</time></trkpt><trkpt lat="44.44345737254299" lon="9.091042048744427"><ele>347.0</ele><time>2026-04-19T08:20:46Z</time></trkpt><trkpt lat="44.443527126716184" lon="9.090826989314381"><ele>347.0</ele><time>2026-04-19T08:20:47Z</time></trkpt><trkpt lat="44.44361360839759" lon="9.090610690429347"><ele>347.0</ele><time>2026-04-19T08:20:48Z</time></trkpt><trkpt lat="44.44370836319735" lon="9.090379440606519"><ele>352.0</ele><time>2026-04-19T08:20:49Z</time></trkpt><trkpt lat="44.44380756070464" lon="9.09015616653539"><ele>357.0</ele><time>2026-04-19T08:20:50Z</time></trkpt><trkpt lat="44.443893436557744" lon="9.089945459783126"><ele>362.0</ele><time>2026-04-19T08:20:51Z</time></trkpt><trkpt lat="44.44393724097605" lon="9.089751447723483"><ele>362.0</ele><time>2026-04-19T08:20:52Z</time></trkpt><trkpt lat="44.443956846100974" lon="9.08953646787963"><ele>362.0</ele><time>2026-04-19T08:20:53Z</time></trkpt><trkpt lat="44.443973285087154" lon="9.0893524535671"><ele>362.0</ele><time>2026-04-19T08:20:54Z</time></trkpt><trkpt lat="44.44401948047022" lon="9.08920825396752"><ele>362.0</ele><time>2026-04-19T08:20:55Z</time></trkpt><trkpt lat="44.44409923927378" lon="9.089069191497465"><ele>357.0</ele><time>2026-04-19T08:20:56Z</time></trkpt><trkpt lat="44.444200158146835" lon="9.088918047403455"><ele>352.0</ele><time>2026-04-19T08:20:57Z</time></trkpt><trkpt lat="44.444334123123745" lon="9.088743227513465"><ele>347.0</ele><time>2026-04-19T08:20:58Z</time></trkpt><trkpt lat="44.4444404543514" lon="9.08861363666031"><ele>347.0</ele><time>2026-04-19T08:20:59Z</time></trkpt><trkpt lat="44.444542878437076" lon="9.088515073916708"><ele>347.0</ele><time>2026-04-19T08:21:00Z</time></trkpt><trkpt lat="44.44465882154564" lon="9.088476653402623"><ele>347.0</ele><time>2026-04-19T08:21:00.999Z</time></trkpt><trkpt lat="44.44476213114662" lon="9.08848491073132"><ele>347.0</ele><time>2026-04-19T08:21:01.999Z</time></trkpt><trkpt lat="44.44483855011019" lon="9.08857314120512"><ele>347.0</ele><time>2026-04-19T08:21:02.999Z</time></trkpt><trkpt lat="44.44494103302733" lon="9.08866728404754"><ele>350.75</ele><time>2026-04-19T08:21:03.999Z</time></trkpt><trkpt lat="44.44506247500435" lon="9.088778517816202"><ele>354.5</ele><time>2026-04-19T08:21:04.999Z</time></trkpt><trkpt lat="44.44516651165936" lon="9.088869337949818"><ele>358.25</ele><time>2026-04-19T08:21:05.999Z</time></trkpt><trkpt lat="44.4452435685757" lon="9.088936084715986"><ele>362.0</ele><time>2026-04-19T08:21:06.999Z</time></trkpt><trkpt lat="44.445448719656206" lon="9.089006903476156"><ele>362.25</ele><time>2026-04-19T08:21:07.999Z</time></trkpt><trkpt lat="44.44557131379884" lon="9.089061200011054"><ele>362.5</ele><time>2026-04-19T08:21:08.999Z</time></trkpt><trkpt lat="44.44571203764693" lon="9.089080961535588"><ele>362.75</ele><time>2026-04-19T08:21:09.999Z</time></trkpt><trkpt lat="44.4458550046953" lon="9.089064740159618"><ele>363.0</ele><time>2026-04-19T08:21:10.999Z</time></trkpt><trkpt lat="44.44600831119381" lon="9.08898831244586"><ele>363.0</ele><time>2026-04-19T08:21:11.999Z</time></trkpt><trkpt lat="44.446157217642934" lon="9.088874996152757"><ele>363.0</ele><time>2026-04-19T08:21:12.999Z</time></trkpt><trkpt lat="44.44631323367382" lon="9.0887362929547"><ele>363.0</ele><time>2026-04-19T08:21:13.999Z</time></trkpt><trkpt lat="44.44645733474036" lon="9.088606686953758"><ele>360.3333333333333</ele><time>2026-04-19T08:21:14.999Z</time></trkpt><trkpt lat="44.44660228197839" lon="9.088482489113828"><ele>357.66666666666663</ele><time>2026-04-19T08:21:15.999Z</time></trkpt><trkpt lat="44.44674150559797" lon="9.088362773529571"><ele>355.0</ele><time>2026-04-19T08:21:16.999Z</time></trkpt><trkpt lat="44.44688205707606" lon="9.088239924818293"><ele>355.0</ele><time>2026-04-19T08:21:17.999Z</time></trkpt><trkpt lat="44.44701227754198" lon="9.088092624578843"><ele>355.0</ele><time>2026-04-19T08:21:18.999Z</time></trkpt><trkpt lat="44.447146987920306" lon="9.08793753652653"><ele>355.0</ele><time>2026-04-19T08:21:19.999Z</time></trkpt><trkpt lat="44.44728127665994" lon="9.08777479283683"><ele>358.0</ele><time>2026-04-19T08:21:20.999Z</time></trkpt><trkpt lat="44.44741390342287" lon="9.08761030655077"><ele>361.0</ele><time>2026-04-19T08:21:21.999Z</time></trkpt><trkpt lat="44.447550743382095" lon="9.08744487293181"><ele>364.0</ele><time>2026-04-19T08:21:22.999Z</time></trkpt><trkpt lat="44.44767505215093" lon="9.087290950432664"><ele>364.0</ele><time>2026-04-19T08:21:23.999Z</time></trkpt><trkpt lat="44.447779191136505" lon="9.08716814467564"><ele>364.0</ele><time>2026-04-19T08:21:24.999Z</time></trkpt><trkpt lat="44.44789842342155" lon="9.087125171459132"><ele>364.0</ele><time>2026-04-19T08:21:25.999Z</time></trkpt><trkpt lat="44.44803067731907" lon="9.087065075724238"><ele>364.0</ele><time>2026-04-19T08:21:26.999Z</time></trkpt><trkpt lat="44.448179427406906" lon="9.08699783644576"><ele>373.0</ele><time>2026-04-19T08:21:27.999Z</time></trkpt><trkpt lat="44.448337994607584" lon="9.086926422202172"><ele>382.0</ele><time>2026-04-19T08:21:28.999Z</time></trkpt><trkpt lat="44.44848820046635" lon="9.086858827152366"><ele>391.0</ele><time>2026-04-19T08:21:29.999Z</time></trkpt><trkpt lat="44.44861277779852" lon="9.086798025471689"><ele>391.0</ele><time>2026-04-19T08:21:30.999Z</time></trkpt><trkpt lat="44.44875972006596" lon="9.086755068123216"><ele>391.0</ele><time>2026-04-19T08:21:31.999Z</time></trkpt><trkpt lat="44.448904484423736" lon="9.086757438545517"><ele>391.0</ele><time>2026-04-19T08:21:32.999Z</time></trkpt><trkpt lat="44.44904596012991" lon="9.08675581063985"><ele>391.0</ele><time>2026-04-19T08:21:33.999Z</time></trkpt><trkpt lat="44.44917326197945" lon="9.086836749031706"><ele>393.6666666666667</ele><time>2026-04-19T08:21:34.999Z</time></trkpt><trkpt lat="44.449319237710235" lon="9.086906743267246"><ele>396.33333333333337</ele><time>2026-04-19T08:21:35.999Z</time></trkpt><trkpt lat="44.44947981084987" lon="9.086955474508565"><ele>399.0</ele><time>2026-04-19T08:21:36.999Z</time></trkpt><trkpt lat="44.44962054452462" lon="9.086982987031167"><ele>399.6</ele><time>2026-04-19T08:21:37.999Z</time></trkpt><trkpt lat="44.449731201163814" lon="9.08699431054241"><ele>400.2</ele><time>2026-04-19T08:21:38.999Z</time></trkpt><trkpt lat="44.449831180084665" lon="9.086996567116838"><ele>400.8</ele><time>2026-04-19T08:21:39.999Z</time></trkpt><trkpt lat="44.44991889908055" lon="9.086996928432054"><ele>401.40000000000003</ele><time>2026-04-19T08:21:40.999Z</time></trkpt><trkpt lat="44.44999138418265" lon="9.087000524667358"><ele>402.0</ele><time>2026-04-19T08:21:41.999Z</time></trkpt><trkpt lat="44.45007069157437" lon="9.087001312094014"><ele>402.0</ele><time>2026-04-19T08:21:43.999Z</time></trkpt><trkpt lat="44.450195121556135" lon="9.086959796174632"><ele>402.0</ele><time>2026-04-19T08:22:17Z</time></trkpt><trkpt lat="44.45027600247004" lon="9.086926975486504"><ele>402.0</ele><time>2026-04-19T08:22:18Z</time></trkpt><trkpt lat="44.45035444572125" lon="9.086873579526069"><ele>402.0</ele><time>2026-04-19T08:22:19Z</time></trkpt><trkpt lat="44.450427991789795" lon="9.086800292306783"><ele>402.0</ele><time>2026-04-19T08:22:20Z</time></trkpt><trkpt lat="44.45050536994167" lon="9.086734800424534"><ele>404.5</ele><time>2026-04-19T08:22:21Z</time></trkpt><trkpt lat="44.450606013975566" lon="9.086697699954135"><ele>407.0</ele><time>2026-04-19T08:22:22Z</time></trkpt><trkpt lat="44.45072187609051" lon="9.086753106612885"><ele>409.5</ele><time>2026-04-19T08:22:23Z</time></trkpt><trkpt lat="44.450856194692555" lon="9.086801484373566"><ele>412.0</ele><time>2026-04-19T08:22:24Z</time></trkpt><trkpt lat="44.45101834039814" lon="9.086793561225154"><ele>412.0</ele><time>2026-04-19T08:22:25Z</time></trkpt><trkpt lat="44.451166053299154" lon="9.086775244120753"><ele>412.0</ele><time>2026-04-19T08:22:26Z</time></trkpt><trkpt lat="44.451302726009075" lon="9.086722364027118"><ele>412.0</ele><time>2026-04-19T08:22:27Z</time></trkpt><trkpt lat="44.451426879044654" lon="9.08665135483863"><ele>412.0</ele><time>2026-04-19T08:22:28Z</time></trkpt><trkpt lat="44.45155813945704" lon="9.08656500501986"><ele>411.25</ele><time>2026-04-19T08:22:29Z</time></trkpt><trkpt lat="44.45166577924881" lon="9.086521733597808"><ele>410.5</ele><time>2026-04-19T08:22:30Z</time></trkpt><trkpt lat="44.451761238378744" lon="9.08658171579707"><ele>409.75</ele><time>2026-04-19T08:22:31Z</time></trkpt><trkpt lat="44.45185593873053" lon="9.08668050451098"><ele>409.0</ele><time>2026-04-19T08:22:32Z</time></trkpt><trkpt lat="44.45196940813845" lon="9.086774654425538"><ele>411.5</ele><time>2026-04-19T08:22:33Z</time></trkpt><trkpt lat="44.45210365150367" lon="9.0868496837806"><ele>414.0</ele><time>2026-04-19T08:22:34Z</time></trkpt><trkpt lat="44.452216502519654" lon="9.086901764253934"><ele>416.5</ele><time>2026-04-19T08:22:35Z</time></trkpt><trkpt lat="44.45233213088289" lon="9.086900161691274"><ele>419.0</ele><time>2026-04-19T08:22:36Z</time></trkpt><trkpt lat="44.45245067851491" lon="9.086832860513406"><ele>420.5</ele><time>2026-04-19T08:22:37Z</time></trkpt><trkpt lat="44.4525670400295" lon="9.086735912883727"><ele>422.0</ele><time>2026-04-19T08:22:38Z</time></trkpt><trkpt lat="44.45267992868776" lon="9.08662762003909"><ele>423.5</ele><time>2026-04-19T08:22:39Z</time></trkpt><trkpt lat="44.45280866517456" lon="9.08656870575001"><ele>425.0</ele><time>2026-04-19T08:22:40Z</time></trkpt><trkpt lat="44.452929520244666" lon="9.086543416106737"><ele>427.0</ele><time>2026-04-19T08:22:41Z</time></trkpt><trkpt lat="44.45303846397802" lon="9.086581299688163"><ele>429.0</ele><time>2026-04-19T08:22:42Z</time></trkpt><trkpt lat="44.45315416453994" lon="9.086669621371295"><ele>431.0</ele><time>2026-04-19T08:22:43Z</time></trkpt><trkpt lat="44.45328785300883" lon="9.08671689444813"><ele>433.0</ele><time>2026-04-19T08:22:44Z</time></trkpt><trkpt lat="44.45339811087816" lon="9.086853532740413"><ele>433.0</ele><time>2026-04-19T08:22:45Z</time></trkpt><trkpt lat="44.45352444169935" lon="9.086958421024617"><ele>433.0</ele><time>2026-04-19T08:22:46Z</time></trkpt><trkpt lat="44.45366459843317" lon="9.087019074266571"><ele>433.0</ele><time>2026-04-19T08:22:47Z</time></trkpt><trkpt lat="44.4538049394842" lon="9.086978784613164"><ele>433.0</ele><time>2026-04-19T08:22:48Z</time></trkpt><trkpt lat="44.45393857792615" lon="9.086874110646947"><ele>434.5</ele><time>2026-04-19T08:22:49Z</time></trkpt><trkpt lat="44.454071272308184" lon="9.08673353438676"><ele>436.0</ele><time>2026-04-19T08:22:50Z</time></trkpt><trkpt lat="44.4541703007821" lon="9.086605413509554"><ele>437.5</ele><time>2026-04-19T08:22:51Z</time></trkpt><trkpt lat="44.45427605393285" lon="9.086551918474871"><ele>439.0</ele><time>2026-04-19T08:22:52Z</time></trkpt><trkpt lat="44.45438989996226" lon="9.086528176207766"><ele>431.0</ele><time>2026-04-19T08:22:53Z</time></trkpt><trkpt lat="44.454537563044326" lon="9.08654883916944"><ele>423.0</ele><time>2026-04-19T08:22:54Z</time></trkpt><trkpt lat="44.45471068444304" lon="9.086538330689661"><ele>415.0</ele><time>2026-04-19T08:22:55Z</time></trkpt><trkpt lat="44.4548813888972" lon="9.086560396088919"><ele>415.0</ele><time>2026-04-19T08:22:56Z</time></trkpt><trkpt lat="44.455068043158725" lon="9.0865730168011"><ele>415.0</ele><time>2026-04-19T08:22:57Z</time></trkpt><trkpt lat="44.45524062559217" lon="9.086591637524428"><ele>415.0</ele><time>2026-04-19T08:22:58Z</time></trkpt><trkpt lat="44.45540737498597" lon="9.086595524039632"><ele>428.0</ele><time>2026-04-19T08:22:59Z</time></trkpt><trkpt lat="44.4555899142486" lon="9.086614976712495"><ele>441.0</ele><time>2026-04-19T08:23:00Z</time></trkpt><trkpt lat="44.45575508256201" lon="9.0866231106744"><ele>454.0</ele><time>2026-04-19T08:23:01Z</time></trkpt><trkpt lat="44.45591153483619" lon="9.086637925574228"><ele>454.0</ele><time>2026-04-19T08:23:02Z</time></trkpt><trkpt lat="44.45605647214382" lon="9.08664551481576"><ele>454.0</ele><time>2026-04-19T08:23:03Z</time></trkpt><trkpt lat="44.4562090473833" lon="9.086658255699117"><ele>454.0</ele><time>2026-04-19T08:23:04Z</time></trkpt><trkpt lat="44.45636855209322" lon="9.08668257158259"><ele>451.0</ele><time>2026-04-19T08:23:05Z</time></trkpt><trkpt lat="44.45651085896987" lon="9.086750833397975"><ele>448.0</ele><time>2026-04-19T08:23:06Z</time></trkpt><trkpt lat="44.45666091689301" lon="9.086891947850267"><ele>445.0</ele><time>2026-04-19T08:23:07Z</time></trkpt><trkpt lat="44.45677175865238" lon="9.08706843581932"><ele>445.0</ele><time>2026-04-19T08:23:07.999Z</time></trkpt><trkpt lat="44.45687216067613" lon="9.087262972239477"><ele>445.0</ele><time>2026-04-19T08:23:08.999Z</time></trkpt><trkpt lat="44.45695367084928" lon="9.087469955411635"><ele>445.0</ele><time>2026-04-19T08:23:09.999Z</time></trkpt><trkpt lat="44.45702930078464" lon="9.087653374646653"><ele>447.0</ele><time>2026-04-19T08:23:10.999Z</time></trkpt><trkpt lat="44.45713271592435" lon="9.087805565473378"><ele>449.0</ele><time>2026-04-19T08:23:11.999Z</time></trkpt><trkpt lat="44.45725076539003" lon="9.087940113809127"><ele>451.0</ele><time>2026-04-19T08:23:12.999Z</time></trkpt><trkpt lat="44.45740415560617" lon="9.088037001629916"><ele>451.0</ele><time>2026-04-19T08:23:13.999Z</time></trkpt><trkpt lat="44.457572219007794" lon="9.088098038187571"><ele>451.0</ele><time>2026-04-19T08:23:14.999Z</time></trkpt><trkpt lat="44.45774923734266" lon="9.088165167077065"><ele>451.0</ele><time>2026-04-19T08:23:15.999Z</time></trkpt><trkpt lat="44.457930255807014" lon="9.088236305765383"><ele>455.6666666666667</ele><time>2026-04-19T08:23:16.999Z</time></trkpt><trkpt lat="44.458113463158405" lon="9.088308174701337"><ele>460.33333333333337</ele><time>2026-04-19T08:23:17.999Z</time></trkpt><trkpt lat="44.458280949140175" lon="9.088396212648764"><ele>465.0</ele><time>2026-04-19T08:23:18.999Z</time></trkpt><trkpt lat="44.458442637570556" lon="9.088466264475361"><ele>465.0</ele><time>2026-04-19T08:23:19.999Z</time></trkpt><trkpt lat="44.45857820812594" lon="9.088571930511513"><ele>465.0</ele><time>2026-04-19T08:23:20.999Z</time></trkpt><trkpt lat="44.45867564236528" lon="9.088704150809313"><ele>465.0</ele><time>2026-04-19T08:23:21.999Z</time></trkpt><trkpt lat="44.458745176756075" lon="9.08888871189156"><ele>465.0</ele><time>2026-04-19T08:23:22.999Z</time></trkpt><trkpt lat="44.458777579349096" lon="9.089105650203292"><ele>472.66666666666663</ele><time>2026-04-19T08:23:23.999Z</time></trkpt><trkpt lat="44.4587601603562" lon="9.089334499248297"><ele>480.3333333333333</ele><time>2026-04-19T08:23:24.999Z</time></trkpt><trkpt lat="44.45870323147323" lon="9.089537005826989"><ele>488.0</ele><time>2026-04-19T08:23:25.999Z</time></trkpt><trkpt lat="44.45866197959225" lon="9.089726654580316"><ele>488.0</ele><time>2026-04-19T08:23:26.999Z</time></trkpt><trkpt lat="44.458663913182754" lon="9.089925029865586"><ele>488.0</ele><time>2026-04-19T08:23:27.999Z</time></trkpt><trkpt lat="44.458678975911575" lon="9.090125734548552"><ele>488.0</ele><time>2026-04-19T08:23:28.999Z</time></trkpt><trkpt lat="44.458729228730206" lon="9.090356423731038"><ele>482.66666666666663</ele><time>2026-04-19T08:23:29.999Z</time></trkpt><trkpt lat="44.45878955288479" lon="9.090596342929349"><ele>477.33333333333337</ele><time>2026-04-19T08:23:30.999Z</time></trkpt><trkpt lat="44.4588290887754" lon="9.090862363949665"><ele>472.0</ele><time>2026-04-19T08:23:31.999Z</time></trkpt><trkpt lat="44.45888631574142" lon="9.09113781121114"><ele>472.0</ele><time>2026-04-19T08:23:32.999Z</time></trkpt><trkpt lat="44.45894089488147" lon="9.091401790776658"><ele>472.0</ele><time>2026-04-19T08:23:33.999Z</time></trkpt><trkpt lat="44.45898272906632" lon="9.091636546121817"><ele>472.0</ele><time>2026-04-19T08:23:34.999Z</time></trkpt><trkpt lat="44.458990582106296" lon="9.091847436797872"><ele>475.33333333333337</ele><time>2026-04-19T08:23:35.999Z</time></trkpt><trkpt lat="44.45896651241384" lon="9.09205730474485"><ele>478.66666666666663</ele><time>2026-04-19T08:23:36.999Z</time></trkpt><trkpt lat="44.45889729657182" lon="9.092271832331889"><ele>482.0</ele><time>2026-04-19T08:23:37.999Z</time></trkpt><trkpt lat="44.45881767061188" lon="9.09248185663954"><ele>492.0</ele><time>2026-04-19T08:23:38.999Z</time></trkpt><trkpt lat="44.45872474008322" lon="9.092630022482082"><ele>502.0</ele><time>2026-04-19T08:23:39.999Z</time></trkpt><trkpt lat="44.45864099874033" lon="9.092781665375217"><ele>512.0</ele><time>2026-04-19T08:23:40.999Z</time></trkpt><trkpt lat="44.45857395945845" lon="9.092945666330651"><ele>522.0</ele><time>2026-04-19T08:23:41.999Z</time></trkpt><trkpt lat="44.458531668120756" lon="9.093111006587462"><ele>522.6666666666666</ele><time>2026-04-19T08:23:42.999Z</time></trkpt><trkpt lat="44.45852650949856" lon="9.093290852410272"><ele>523.3333333333333</ele><time>2026-04-19T08:23:43.999Z</time></trkpt><trkpt lat="44.45857078604831" lon="9.093489090431133"><ele>524.0</ele><time>2026-04-19T08:23:44.999Z</time></trkpt><trkpt lat="44.458673433902995" lon="9.093691430554617"><ele>510.66666666666663</ele><time>2026-04-19T08:23:45.999Z</time></trkpt><trkpt lat="44.45880221828826" lon="9.093799081350765"><ele>497.33333333333337</ele><time>2026-04-19T08:23:46.999Z</time></trkpt><trkpt lat="44.4589387135565" lon="9.093905647699128"><ele>484.0</ele><time>2026-04-19T08:23:47.999Z</time></trkpt><trkpt lat="44.459074727105715" lon="9.094024789852378"><ele>490.6666666666667</ele><time>2026-04-19T08:23:48.999Z</time></trkpt><trkpt lat="44.459207053804356" lon="9.094131201472186"><ele>497.33333333333337</ele><time>2026-04-19T08:23:49.999Z</time></trkpt><trkpt lat="44.459340848098385" lon="9.09423945556716"><ele>504.0</ele><time>2026-04-19T08:23:50.999Z</time></trkpt><trkpt lat="44.4594904479383" lon="9.094265040636296"><ele>503.5</ele><time>2026-04-19T08:23:51.999Z</time></trkpt><trkpt lat="44.45964021160029" lon="9.094267190348345"><ele>503.0</ele><time>2026-04-19T08:23:52.999Z</time></trkpt><trkpt lat="44.45978036107905" lon="9.0942822482217"><ele>502.5</ele><time>2026-04-19T08:23:53.999Z</time></trkpt><trkpt lat="44.45990111169281" lon="9.094340503216655"><ele>502.0</ele><time>2026-04-19T08:23:54.999Z</time></trkpt><trkpt lat="44.460009146686126" lon="9.094429529188613"><ele>502.0</ele><time>2026-04-19T08:23:55.999Z</time></trkpt><trkpt lat="44.460111580681236" lon="9.094552379721863"><ele>502.0</ele><time>2026-04-19T08:23:56.999Z</time></trkpt><trkpt lat="44.4602174218932" lon="9.094720242902927"><ele>502.0</ele><time>2026-04-19T08:23:57.999Z</time></trkpt><trkpt lat="44.460336402456385" lon="9.094908161935148"><ele>502.33333333333337</ele><time>2026-04-19T08:23:58.999Z</time></trkpt><trkpt lat="44.46044147141867" lon="9.095073305845741"><ele>502.66666666666663</ele><time>2026-04-19T08:23:59.999Z</time></trkpt><trkpt lat="44.46056759554635" lon="9.095271543560765"><ele>503.0</ele><time>2026-04-19T08:24:00.999Z</time></trkpt><trkpt lat="44.460692791190944" lon="9.09546621914914"><ele>503.0</ele><time>2026-04-19T08:24:01.999Z</time></trkpt><trkpt lat="44.46080036246281" lon="9.095635040865465"><ele>503.0</ele><time>2026-04-19T08:24:02.999Z</time></trkpt><trkpt lat="44.46089139642435" lon="9.095795596419297"><ele>503.0</ele><time>2026-04-19T08:24:03.999Z</time></trkpt><trkpt lat="44.46096465044163" lon="9.095969898782851"><ele>509.66666666666663</ele><time>2026-04-19T08:24:04.999Z</time></trkpt><trkpt lat="44.461019009288634" lon="9.09616824009418"><ele>516.3333333333334</ele><time>2026-04-19T08:24:05.999Z</time></trkpt><trkpt lat="44.46105058908774" lon="9.09637990449453"><ele>523.0</ele><time>2026-04-19T08:24:06.999Z</time></trkpt><trkpt lat="44.461047517206346" lon="9.09660681314635"><ele>528.6666666666667</ele><time>2026-04-19T08:24:08Z</time></trkpt><trkpt lat="44.46101234554629" lon="9.096847750083693"><ele>534.3333333333334</ele><time>2026-04-19T08:24:09Z</time></trkpt><trkpt lat="44.46096494878566" lon="9.09710896642188"><ele>540.0</ele><time>2026-04-19T08:24:10Z</time></trkpt><trkpt lat="44.46091688172057" lon="9.097373486190584"><ele>539.3333333333334</ele><time>2026-04-19T08:24:11Z</time></trkpt><trkpt lat="44.46087442858406" lon="9.097605378630034"><ele>538.6666666666667</ele><time>2026-04-19T08:24:12Z</time></trkpt><trkpt lat="44.46084851446952" lon="9.097833116149124"><ele>538.0</ele><time>2026-04-19T08:24:13Z</time></trkpt><trkpt lat="44.46084139853223" lon="9.098047019365463"><ele>538.0</ele><time>2026-04-19T08:24:14Z</time></trkpt><trkpt lat="44.46087421913227" lon="9.098241206203657"><ele>538.0</ele><time>2026-04-19T08:24:15Z</time></trkpt><trkpt lat="44.460929877883835" lon="9.098426829228037"><ele>538.0</ele><time>2026-04-19T08:24:16Z</time></trkpt><trkpt lat="44.461008799020775" lon="9.098605904460577"><ele>538.0</ele><time>2026-04-19T08:24:17Z</time></trkpt><trkpt lat="44.461136964617985" lon="9.098755691845339"><ele>532.6666666666667</ele><time>2026-04-19T08:24:18Z</time></trkpt><trkpt lat="44.46129827547962" lon="9.098872949503805"><ele>527.3333333333334</ele><time>2026-04-19T08:24:19Z</time></trkpt><trkpt lat="44.46144619729315" lon="9.09896106551733"><ele>522.0</ele><time>2026-04-19T08:24:20Z</time></trkpt><trkpt lat="44.461571722407456" lon="9.099023135859978"><ele>527.25</ele><time>2026-04-19T08:24:21Z</time></trkpt><trkpt lat="44.461666094407754" lon="9.099140601152904"><ele>532.5</ele><time>2026-04-19T08:24:22Z</time></trkpt><trkpt lat="44.46172115242454" lon="9.09933307680935"><ele>537.75</ele><time>2026-04-19T08:24:23Z</time></trkpt><trkpt lat="44.4617421374186" lon="9.099537182924719"><ele>543.0</ele><time>2026-04-19T08:24:24Z</time></trkpt><trkpt lat="44.461736515605764" lon="9.099740352276044"><ele>547.0</ele><time>2026-04-19T08:24:25Z</time></trkpt><trkpt lat="44.46173709765536" lon="9.099958343643554"><ele>551.0</ele><time>2026-04-19T08:24:26Z</time></trkpt><trkpt lat="44.46176530604165" lon="9.100143003052052"><ele>555.0</ele><time>2026-04-19T08:24:27Z</time></trkpt><trkpt lat="44.46180876828917" lon="9.100307858522752"><ele>559.0</ele><time>2026-04-19T08:24:28Z</time></trkpt><trkpt lat="44.461879126164945" lon="9.100479345285338"><ele>559.0</ele><time>2026-04-19T08:24:29Z</time></trkpt><trkpt lat="44.46200567019642" lon="9.1006177794329"><ele>559.0</ele><time>2026-04-19T08:24:30Z</time></trkpt><trkpt lat="44.46213861921705" lon="9.100720402238826"><ele>559.0</ele><time>2026-04-19T08:24:31Z</time></trkpt><trkpt lat="44.46226058533775" lon="9.100812335323214"><ele>558.25</ele><time>2026-04-19T08:24:32Z</time></trkpt><trkpt lat="44.46238297425231" lon="9.10090353225295"><ele>557.5</ele><time>2026-04-19T08:24:33Z</time></trkpt><trkpt lat="44.46250730893757" lon="9.100996488144398"><ele>556.75</ele><time>2026-04-19T08:24:34Z</time></trkpt><trkpt lat="44.46264856144433" lon="9.10110164706349"><ele>556.0</ele><time>2026-04-19T08:24:35Z</time></trkpt><trkpt lat="44.462788492458834" lon="9.10120570202353"><ele>556.0</ele><time>2026-04-19T08:24:36Z</time></trkpt><trkpt lat="44.46292683377741" lon="9.101308574915752"><ele>556.0</ele><time>2026-04-19T08:24:37Z</time></trkpt><trkpt lat="44.463057922597024" lon="9.10140402507373"><ele>556.0</ele><time>2026-04-19T08:24:38Z</time></trkpt><trkpt lat="44.46318572692542" lon="9.101497435464658"><ele>556.0</ele><time>2026-04-19T08:24:39Z</time></trkpt><trkpt lat="44.46330721708415" lon="9.101587808454543"><ele>556.5</ele><time>2026-04-19T08:24:40Z</time></trkpt><trkpt lat="44.46343092149356" lon="9.101681561118527"><ele>557.0</ele><time>2026-04-19T08:24:41Z</time></trkpt><trkpt lat="44.46355621307036" lon="9.10177626323978"><ele>557.5</ele><time>2026-04-19T08:24:42Z</time></trkpt><trkpt lat="44.4636956924108" lon="9.101879689796544"><ele>558.0</ele><time>2026-04-19T08:24:43Z</time></trkpt><trkpt lat="44.463817309791764" lon="9.101969869822819"><ele>555.5</ele><time>2026-04-19T08:24:44Z</time></trkpt><trkpt lat="44.46393425638627" lon="9.102058185593258"><ele>553.0</ele><time>2026-04-19T08:24:45Z</time></trkpt><trkpt lat="44.464050121790926" lon="9.102145511707922"><ele>550.5</ele><time>2026-04-19T08:24:46Z</time></trkpt><trkpt lat="44.46416306314962" lon="9.102230635550074"><ele>548.0</ele><time>2026-04-19T08:24:47Z</time></trkpt><trkpt lat="44.46428101577757" lon="9.10231958318507"><ele>548.0</ele><time>2026-04-19T08:24:48Z</time></trkpt><trkpt lat="44.4643925149305" lon="9.102404162081083"><ele>548.0</ele><time>2026-04-19T08:24:49Z</time></trkpt><trkpt lat="44.464510244625515" lon="9.102493467226198"><ele>548.0</ele><time>2026-04-19T08:24:50Z</time></trkpt><trkpt lat="44.464627664792104" lon="9.102582537571388"><ele>548.0</ele><time>2026-04-19T08:24:51Z</time></trkpt><trkpt lat="44.46474470289031" lon="9.102671360554021"><ele>551.0</ele><time>2026-04-19T08:24:52Z</time></trkpt><trkpt lat="44.464858156100156" lon="9.102757814519698"><ele>554.0</ele><time>2026-04-19T08:24:53Z</time></trkpt><trkpt lat="44.46497606037792" lon="9.102847660409703"><ele>557.0</ele><time>2026-04-19T08:24:54Z</time></trkpt><trkpt lat="44.465095293585144" lon="9.102936374900127"><ele>560.0</ele><time>2026-04-19T08:24:55Z</time></trkpt><trkpt lat="44.46521686967589" lon="9.10302733864045"><ele>560.0</ele><time>2026-04-19T08:24:56Z</time></trkpt><trkpt lat="44.46533859688424" lon="9.1031187166239"><ele>560.0</ele><time>2026-04-19T08:24:57Z</time></trkpt><trkpt lat="44.46546210008854" lon="9.103212196561453"><ele>560.0</ele><time>2026-04-19T08:24:58Z</time></trkpt><trkpt lat="44.46556780195967" lon="9.103298260258486"><ele>560.0</ele><time>2026-04-19T08:24:59Z</time></trkpt><trkpt lat="44.46566429541575" lon="9.103392817699136"><ele>559.25</ele><time>2026-04-19T08:25:00Z</time></trkpt><trkpt lat="44.46576423114584" lon="9.103531295217312"><ele>558.5</ele><time>2026-04-19T08:25:01Z</time></trkpt><trkpt lat="44.46584436989415" lon="9.103695480653412"><ele>557.75</ele><time>2026-04-19T08:25:02Z</time></trkpt><trkpt lat="44.46591159950124" lon="9.103889328818063"><ele>557.0</ele><time>2026-04-19T08:25:03Z</time></trkpt><trkpt lat="44.46593320853656" lon="9.104101292060923"><ele>561.6666666666666</ele><time>2026-04-19T08:25:04Z</time></trkpt><trkpt lat="44.46590738169306" lon="9.104315500573753"><ele>566.3333333333334</ele><time>2026-04-19T08:25:05Z</time></trkpt><trkpt lat="44.465848150250665" lon="9.104529635304283"><ele>571.0</ele><time>2026-04-19T08:25:06Z</time></trkpt><trkpt lat="44.465757118659575" lon="9.104751505407679"><ele>569.0</ele><time>2026-04-19T08:25:07Z</time></trkpt><trkpt lat="44.46565596604232" lon="9.104960724492758"><ele>567.0</ele><time>2026-04-19T08:25:08Z</time></trkpt><trkpt lat="44.46558560167002" lon="9.105172023209935"><ele>565.0</ele><time>2026-04-19T08:25:09Z</time></trkpt><trkpt lat="44.465479361377156" lon="9.105377991358614"><ele>573.75</ele><time>2026-04-19T08:25:10Z</time></trkpt><trkpt lat="44.46538033477125" lon="9.105537205044541"><ele>582.5</ele><time>2026-04-19T08:25:11Z</time></trkpt><trkpt lat="44.4653050636797" lon="9.105686604557237"><ele>591.25</ele><time>2026-04-19T08:25:12Z</time></trkpt><trkpt lat="44.46526041179633" lon="9.105848884672229"><ele>600.0</ele><time>2026-04-19T08:25:13Z</time></trkpt><trkpt lat="44.46524589470033" lon="9.106041984475153"><ele>600.0</ele><time>2026-04-19T08:25:13.999Z</time></trkpt><trkpt lat="44.46524494885967" lon="9.106231346896086"><ele>600.0</ele><time>2026-04-19T08:25:14.999Z</time></trkpt><trkpt lat="44.465294078571915" lon="9.106403010645723"><ele>600.0</ele><time>2026-04-19T08:25:15.999Z</time></trkpt><trkpt lat="44.465356055365696" lon="9.106580966931688"><ele>600.0</ele><time>2026-04-19T08:25:16.999Z</time></trkpt><trkpt lat="44.46546607725011" lon="9.106723973095242"><ele>590.0</ele><time>2026-04-19T08:25:17.999Z</time></trkpt><trkpt lat="44.465606041286605" lon="9.10682563956103"><ele>580.0</ele><time>2026-04-19T08:25:18.999Z</time></trkpt><trkpt lat="44.4657733558637" lon="9.106870710789936"><ele>570.0</ele><time>2026-04-19T08:25:19.999Z</time></trkpt><trkpt lat="44.46594028166976" lon="9.106960790068907"><ele>570.0</ele><time>2026-04-19T08:25:20.999Z</time></trkpt><trkpt lat="44.46608561615353" lon="9.107021894897956"><ele>570.0</ele><time>2026-04-19T08:25:21.999Z</time></trkpt><trkpt lat="44.46621088809887" lon="9.107083432440021"><ele>570.0</ele><time>2026-04-19T08:25:22.999Z</time></trkpt><trkpt lat="44.46632775240389" lon="9.107176181236987"><ele>570.0</ele><time>2026-04-19T08:25:23.999Z</time></trkpt><trkpt lat="44.46642530340485" lon="9.10731187500616"><ele>569.25</ele><time>2026-04-19T08:25:24.999Z</time></trkpt><trkpt lat="44.46647270449391" lon="9.107489859352182"><ele>568.5</ele><time>2026-04-19T08:25:25.999Z</time></trkpt><trkpt lat="44.46646300068891" lon="9.107691381827212"><ele>567.75</ele><time>2026-04-19T08:25:26.999Z</time></trkpt><trkpt lat="44.46644549743946" lon="9.107922970372844"><ele>567.0</ele><time>2026-04-19T08:25:27.999Z</time></trkpt><trkpt lat="44.46642417427274" lon="9.10816493178486"><ele>567.0</ele><time>2026-04-19T08:25:28.999Z</time></trkpt><trkpt lat="44.46639004947683" lon="9.108369429877024"><ele>567.0</ele><time>2026-04-19T08:25:29.999Z</time></trkpt><trkpt lat="44.46631854721836" lon="9.108551229954543"><ele>567.0</ele><time>2026-04-19T08:25:30.999Z</time></trkpt><trkpt lat="44.46623814063761" lon="9.108761197442494"><ele>577.0</ele><time>2026-04-19T08:25:31.999Z</time></trkpt><trkpt lat="44.46614547304436" lon="9.108942868475651"><ele>587.0</ele><time>2026-04-19T08:25:32.999Z</time></trkpt><trkpt lat="44.466067952434074" lon="9.10913729071489"><ele>597.0</ele><time>2026-04-19T08:25:33.999Z</time></trkpt><trkpt lat="44.46599603293864" lon="9.109347396836444"><ele>597.0</ele><time>2026-04-19T08:25:34.999Z</time></trkpt><trkpt lat="44.46596922914327" lon="9.10959463935226"><ele>597.0</ele><time>2026-04-19T08:25:35.999Z</time></trkpt><trkpt lat="44.46597499372108" lon="9.109849744017849"><ele>597.0</ele><time>2026-04-19T08:25:36.999Z</time></trkpt><trkpt lat="44.466015966437894" lon="9.110105326134617"><ele>597.3333333333334</ele><time>2026-04-19T08:25:37.999Z</time></trkpt><trkpt lat="44.46607870612344" lon="9.110361072485237"><ele>597.6666666666667</ele><time>2026-04-19T08:25:38.999Z</time></trkpt><trkpt lat="44.46614264930655" lon="9.11061535254538"><ele>598.0</ele><time>2026-04-19T08:25:39.999Z</time></trkpt><trkpt lat="44.46620697412381" lon="9.110871150200536"><ele>594.3333333333334</ele><time>2026-04-19T08:25:40.999Z</time></trkpt><trkpt lat="44.466273647920104" lon="9.111136288955969"><ele>590.6666666666666</ele><time>2026-04-19T08:25:41.999Z</time></trkpt><trkpt lat="44.46633493191226" lon="9.111379994267827"><ele>587.0</ele><time>2026-04-19T08:25:42.999Z</time></trkpt><trkpt lat="44.46638576883221" lon="9.111582155146191"><ele>587.0</ele><time>2026-04-19T08:25:43.999Z</time></trkpt><trkpt lat="44.46644698871236" lon="9.111770125078335"><ele>587.0</ele><time>2026-04-19T08:25:44.999Z</time></trkpt><trkpt lat="44.46649659931975" lon="9.111981955307625"><ele>587.0</ele><time>2026-04-19T08:25:45.999Z</time></trkpt><trkpt lat="44.46657618269169" lon="9.112204244727842"><ele>592.0</ele><time>2026-04-19T08:25:46.999Z</time></trkpt><trkpt lat="44.466701443477646" lon="9.112453109761224"><ele>597.0</ele><time>2026-04-19T08:25:47.999Z</time></trkpt><trkpt lat="44.46685946648406" lon="9.112812289226648"><ele>597.0</ele><time>2026-04-19T08:25:48.999Z</time></trkpt><trkpt lat="44.466976786214495" lon="9.113054499414579"><ele>597.0</ele><time>2026-04-19T08:25:49.999Z</time></trkpt><trkpt lat="44.46709326885655" lon="9.113294216420927"><ele>597.0</ele><time>2026-04-19T08:25:50.999Z</time></trkpt><trkpt lat="44.467214467834076" lon="9.113545183323863"><ele>597.3333333333334</ele><time>2026-04-19T08:25:51.999Z</time></trkpt><trkpt lat="44.46733410990799" lon="9.1137942171557"><ele>597.6666666666667</ele><time>2026-04-19T08:25:52.999Z</time></trkpt><trkpt lat="44.46744347697295" lon="9.114021319459818"><ele>598.0</ele><time>2026-04-19T08:25:53.999Z</time></trkpt><trkpt lat="44.46754367754495" lon="9.114228630652123"><ele>598.0</ele><time>2026-04-19T08:25:54.999Z</time></trkpt><trkpt lat="44.467637840119956" lon="9.11442403042264"><ele>598.0</ele><time>2026-04-19T08:25:55.999Z</time></trkpt><trkpt lat="44.467721783406475" lon="9.11459962892232"><ele>598.0</ele><time>2026-04-19T08:25:56.999Z</time></trkpt><trkpt lat="44.46778441944778" lon="9.114778320741834"><ele>597.25</ele><time>2026-04-19T08:25:57.999Z</time></trkpt><trkpt lat="44.46780432988864" lon="9.114962119789027"><ele>596.5</ele><time>2026-04-19T08:25:58.999Z</time></trkpt><trkpt lat="44.46782706214699" lon="9.11515872149388"><ele>595.75</ele><time>2026-04-19T08:25:59.999Z</time></trkpt><trkpt lat="44.46787641950571" lon="9.115342546979624"><ele>595.0</ele><time>2026-04-19T08:26:00.999Z</time></trkpt><trkpt lat="44.467947533298876" lon="9.115483987683557"><ele>595.0</ele><time>2026-04-19T08:26:01.999Z</time></trkpt><trkpt lat="44.468052885219144" lon="9.115599025230448"><ele>595.0</ele><time>2026-04-19T08:26:02.999Z</time></trkpt><trkpt lat="44.468192676620724" lon="9.115680016784975"><ele>595.0</ele><time>2026-04-19T08:26:03.999Z</time></trkpt><trkpt lat="44.468341204007665" lon="9.115740227176733"><ele>595.0</ele><time>2026-04-19T08:26:04.999Z</time></trkpt><trkpt lat="44.46845451294893" lon="9.11578587109999"><ele>599.2</ele><time>2026-04-19T08:26:05.999Z</time></trkpt><trkpt lat="44.468581996994466" lon="9.115833188174308"><ele>603.4</ele><time>2026-04-19T08:26:06.999Z</time></trkpt><trkpt lat="44.468688888290934" lon="9.115871735176553"><ele>607.6</ele><time>2026-04-19T08:26:07.999Z</time></trkpt><trkpt lat="44.468780467300796" lon="9.115907673687053"><ele>611.8</ele><time>2026-04-19T08:26:08.999Z</time></trkpt><trkpt lat="44.46886712452715" lon="9.115945296799307"><ele>616.0</ele><time>2026-04-19T08:26:09.999Z</time></trkpt><trkpt lat="44.468957188431354" lon="9.115975425406317"><ele>616.0</ele><time>2026-04-19T08:26:10.999Z</time></trkpt><trkpt lat="44.46905049074714" lon="9.11605232076178"><ele>616.0</ele><time>2026-04-19T08:26:11.999Z</time></trkpt><trkpt lat="44.46914785320897" lon="9.11611304153203"><ele>616.0</ele><time>2026-04-19T08:26:12.999Z</time></trkpt><trkpt lat="44.46922907004064" lon="9.116164850942136"><ele>616.0</ele><time>2026-04-19T08:26:14Z</time></trkpt><trkpt lat="44.469303546678425" lon="9.116197509237578"><ele>616.0</ele><time>2026-04-19T08:26:15Z</time></trkpt><trkpt lat="44.469357276733525" lon="9.11624561863751"><ele>616.0</ele><time>2026-04-19T08:26:17Z</time></trkpt><trkpt lat="44.469415626196415" lon="9.116288259470576"><ele>616.0</ele><time>2026-04-19T08:27:09Z</time></trkpt><trkpt lat="44.46949860185683" lon="9.116344310039546"><ele>616.0</ele><time>2026-04-19T08:27:10Z</time></trkpt><trkpt lat="44.46959565843489" lon="9.116406645665238"><ele>616.0</ele><time>2026-04-19T08:27:11Z</time></trkpt><trkpt lat="44.46973580807612" lon="9.11646216357969"><ele>616.0</ele><time>2026-04-19T08:27:12Z</time></trkpt><trkpt lat="44.46989365525586" lon="9.116494532958502"><ele>616.25</ele><time>2026-04-19T08:27:13Z</time></trkpt><trkpt lat="44.47004698186225" lon="9.116532048397643"><ele>616.5</ele><time>2026-04-19T08:27:14Z</time></trkpt><trkpt lat="44.47017245874247" lon="9.116564397120555"><ele>616.75</ele><time>2026-04-19T08:27:15Z</time></trkpt><trkpt lat="44.47028206222778" lon="9.116593883016264"><ele>617.0</ele><time>2026-04-19T08:27:16Z</time></trkpt><trkpt lat="44.4703603107354" lon="9.116616576569522"><ele>619.6666666666666</ele><time>2026-04-19T08:27:16.999Z</time></trkpt><trkpt lat="44.47042839387503" lon="9.116641888867667"><ele>622.3333333333333</ele><time>2026-04-19T08:27:17.999Z</time></trkpt><trkpt lat="44.47048891072747" lon="9.116666479614349"><ele>625.0</ele><time>2026-04-19T08:27:18.999Z</time></trkpt><trkpt lat="44.47055217249556" lon="9.116694159104506"><ele>627.6666666666666</ele><time>2026-04-19T08:27:20.999Z</time></trkpt><trkpt lat="44.47062727861464" lon="9.116720762824405"><ele>630.3333333333334</ele><time>2026-04-19T08:27:41.999Z</time></trkpt><trkpt lat="44.470727889696214" lon="9.116771295563536"><ele>633.0</ele><time>2026-04-19T08:27:43.999Z</time></trkpt><trkpt lat="44.4708086234978" lon="9.116809363113234"><ele>634.5</ele><time>2026-04-19T08:27:44.999Z</time></trkpt><trkpt lat="44.47090681870182" lon="9.116867835081981"><ele>636.0</ele><time>2026-04-19T08:27:45.999Z</time></trkpt><trkpt lat="44.47101874622032" lon="9.116949910501932"><ele>637.5</ele><time>2026-04-19T08:27:46.999Z</time></trkpt><trkpt lat="44.47114431850196" lon="9.117051177289417"><ele>639.0</ele><time>2026-04-19T08:27:47.999Z</time></trkpt><trkpt lat="44.47127093818614" lon="9.117145824735625"><ele>648.6666666666666</ele><time>2026-04-19T08:27:48.999Z</time></trkpt><trkpt lat="44.471403877014254" lon="9.11724350201004"><ele>658.3333333333333</ele><time>2026-04-19T08:27:50.019Z</time></trkpt><trkpt lat="44.471550352088855" lon="9.117345768132221"><ele>668.0</ele><time>2026-04-19T08:27:51.018Z</time></trkpt><trkpt lat="44.47167969590092" lon="9.11744358814412"><ele>668.0</ele><time>2026-04-19T08:27:52.018Z</time></trkpt><trkpt lat="44.47181240242484" lon="9.117505045095124"><ele>668.0</ele><time>2026-04-19T08:27:53.019Z</time></trkpt><trkpt lat="44.47431922557163" lon="9.118786256432381"><ele>720.0</ele><time>2026-04-19T08:27:57.285Z</time></trkpt><trkpt lat="44.47490428055357" lon="9.119114230653876"><ele>714.0</ele><time>2026-04-19T08:27:58.286Z</time></trkpt><trkpt lat="44.475486835116236" lon="9.119446783233274"><ele>714.0</ele><time>2026-04-19T08:27:59.285Z</time></trkpt><trkpt lat="44.476070195851676" lon="9.119779147476557"><ele>724.0</ele><time>2026-04-19T08:28:00.285Z</time></trkpt><trkpt lat="44.4766395" lon="9.1201023"><ele>652.0</ele><time>2026-04-19T08:28:01.285Z</time></trkpt><trkpt lat="44.48259576227933" lon="9.12347093225375"><ele>652.0</ele><time>2026-04-19T08:29:03.998Z</time></trkpt><trkpt lat="44.48273316385429" lon="9.123576567240727"><ele>652.0</ele><time>2026-04-19T08:29:04.998Z</time></trkpt><trkpt lat="44.482863839501604" lon="9.123771742505447"><ele>652.0</ele><time>2026-04-19T08:29:05.998Z</time></trkpt><trkpt lat="44.48295378016775" lon="9.123951545309252"><ele>648.6666666666667</ele><time>2026-04-19T08:29:06.998Z</time></trkpt><trkpt lat="44.4830528187299" lon="9.124117683063144"><ele>645.3333333333334</ele><time>2026-04-19T08:29:07.998Z</time></trkpt><trkpt lat="44.483144403077716" lon="9.124278891861163"><ele>642.0</ele><time>2026-04-19T08:29:08.998Z</time></trkpt><trkpt lat="44.48324611056549" lon="9.12445739129237"><ele>642.0</ele><time>2026-04-19T08:29:10Z</time></trkpt><trkpt lat="44.48335166022757" lon="9.124642029689115"><ele>642.0</ele><time>2026-04-19T08:29:11Z</time></trkpt><trkpt lat="44.483459721110464" lon="9.124831106624836"><ele>642.0</ele><time>2026-04-19T08:29:12Z</time></trkpt><trkpt lat="44.48356351049503" lon="9.125012052981525"><ele>637.3333333333334</ele><time>2026-04-19T08:29:13Z</time></trkpt><trkpt lat="44.48366893948986" lon="9.125194094637015"><ele>632.6666666666667</ele><time>2026-04-19T08:29:14Z</time></trkpt><trkpt lat="44.483775883421636" lon="9.125379580820026"><ele>628.0</ele><time>2026-04-19T08:29:15Z</time></trkpt><trkpt lat="44.4838857392099" lon="9.125570498561764"><ele>629.6666666666667</ele><time>2026-04-19T08:29:16Z</time></trkpt><trkpt lat="44.48399623398788" lon="9.125762542900596"><ele>631.3333333333334</ele><time>2026-04-19T08:29:17Z</time></trkpt><trkpt lat="44.484097334438594" lon="9.125938372828736"><ele>633.0</ele><time>2026-04-19T08:29:18Z</time></trkpt><trkpt lat="44.48419045483828" lon="9.126099533295362"><ele>633.0</ele><time>2026-04-19T08:29:19Z</time></trkpt><trkpt lat="44.484283968402245" lon="9.126260901115153"><ele>633.0</ele><time>2026-04-19T08:29:20Z</time></trkpt><trkpt lat="44.484379691041944" lon="9.126426080930626"><ele>633.0</ele><time>2026-04-19T08:29:21Z</time></trkpt><trkpt lat="44.48447487470183" lon="9.12659033068086"><ele>632.0</ele><time>2026-04-19T08:29:22Z</time></trkpt><trkpt lat="44.48457140473924" lon="9.126756903748738"><ele>631.0</ele><time>2026-04-19T08:29:23Z</time></trkpt><trkpt lat="44.484668464226765" lon="9.12692439043974"><ele>630.0</ele><time>2026-04-19T08:29:24Z</time></trkpt><trkpt lat="44.484771188065565" lon="9.127098762947297"><ele>630.0</ele><time>2026-04-19T08:29:25Z</time></trkpt><trkpt lat="44.484881082481984" lon="9.127280672759648"><ele>630.0</ele><time>2026-04-19T08:29:26Z</time></trkpt><trkpt lat="44.48499147467749" lon="9.127429467774666"><ele>630.0</ele><time>2026-04-19T08:29:27Z</time></trkpt><trkpt lat="44.4850824285648" lon="9.12758585880716"><ele>631.25</ele><time>2026-04-19T08:29:28Z</time></trkpt><trkpt lat="44.48517309131384" lon="9.127747901548766"><ele>632.5</ele><time>2026-04-19T08:29:29Z</time></trkpt><trkpt lat="44.48526477256636" lon="9.127921497793512"><ele>633.75</ele><time>2026-04-19T08:29:30Z</time></trkpt><trkpt lat="44.4853497092812" lon="9.128076092872083"><ele>635.0</ele><time>2026-04-19T08:29:31Z</time></trkpt><trkpt lat="44.48543153084979" lon="9.128223156706085"><ele>634.0</ele><time>2026-04-19T08:29:32Z</time></trkpt><trkpt lat="44.4855262762204" lon="9.128381911766452"><ele>633.0</ele><time>2026-04-19T08:29:33Z</time></trkpt><trkpt lat="44.48561526663561" lon="9.128543563014267"><ele>632.0</ele><time>2026-04-19T08:29:34Z</time></trkpt><trkpt lat="44.48569826747562" lon="9.128705397826218"><ele>631.0</ele><time>2026-04-19T08:29:35Z</time></trkpt><trkpt lat="44.48578949674388" lon="9.128866049884927"><ele>631.0</ele><time>2026-04-19T08:29:36Z</time></trkpt><trkpt lat="44.48589189115774" lon="9.129033236977309"><ele>631.0</ele><time>2026-04-19T08:29:37Z</time></trkpt><trkpt lat="44.48599764826984" lon="9.129193154088284"><ele>631.0</ele><time>2026-04-19T08:29:38Z</time></trkpt><trkpt lat="44.48611844367608" lon="9.129350436346414"><ele>627.3333333333334</ele><time>2026-04-19T08:29:39Z</time></trkpt><trkpt lat="44.48624390017583" lon="9.12948467143621"><ele>623.6666666666666</ele><time>2026-04-19T08:29:40Z</time></trkpt><trkpt lat="44.48636508295117" lon="9.129637525608077"><ele>620.0</ele><time>2026-04-19T08:29:41Z</time></trkpt><trkpt lat="44.48651638175419" lon="9.129748679727559"><ele>620.0</ele><time>2026-04-19T08:29:42Z</time></trkpt><trkpt lat="44.486670992047664" lon="9.12985282363013"><ele>620.0</ele><time>2026-04-19T08:29:43Z</time></trkpt><trkpt lat="44.48682542452164" lon="9.129954655093718"><ele>620.0</ele><time>2026-04-19T08:29:44Z</time></trkpt><trkpt lat="44.486997717976834" lon="9.130068263940103"><ele>620.3333333333333</ele><time>2026-04-19T08:29:45Z</time></trkpt><trkpt lat="44.4871572979211" lon="9.130173542454603"><ele>620.6666666666666</ele><time>2026-04-19T08:29:46Z</time></trkpt><trkpt lat="44.487308606834745" lon="9.130273410028483"><ele>621.0</ele><time>2026-04-19T08:29:47Z</time></trkpt><trkpt lat="44.487458047490286" lon="9.13037210377176"><ele>621.0</ele><time>2026-04-19T08:29:48Z</time></trkpt><trkpt lat="44.487610152429475" lon="9.130473365351495"><ele>621.0</ele><time>2026-04-19T08:29:49Z</time></trkpt><trkpt lat="44.48776699803521" lon="9.130549280369388"><ele>621.0</ele><time>2026-04-19T08:29:50Z</time></trkpt><trkpt lat="44.487906101975206" lon="9.130665867311922"><ele>627.0</ele><time>2026-04-19T08:29:51Z</time></trkpt><trkpt lat="44.48806247906178" lon="9.130760145198524"><ele>633.0</ele><time>2026-04-19T08:29:52Z</time></trkpt><trkpt lat="44.48822744432781" lon="9.130822273052228"><ele>639.0</ele><time>2026-04-19T08:29:53Z</time></trkpt><trkpt lat="44.48838929019748" lon="9.130908329016101"><ele>639.0</ele><time>2026-04-19T08:29:54Z</time></trkpt><trkpt lat="44.488561850064485" lon="9.130970645828207"><ele>639.0</ele><time>2026-04-19T08:29:55Z</time></trkpt><trkpt lat="44.48874340711656" lon="9.131018933720611"><ele>639.0</ele><time>2026-04-19T08:29:56Z</time></trkpt><trkpt lat="44.48892350906076" lon="9.13104355706338"><ele>637.3333333333334</ele><time>2026-04-19T08:29:57Z</time></trkpt><trkpt lat="44.48910014703874" lon="9.131030322623841"><ele>635.6666666666667</ele><time>2026-04-19T08:29:58Z</time></trkpt><trkpt lat="44.48926313487814" lon="9.131018113640142"><ele>634.0</ele><time>2026-04-19T08:29:59Z</time></trkpt><trkpt lat="44.489426631630415" lon="9.131023983045855"><ele>632.3333333333334</ele><time>2026-04-19T08:30:00Z</time></trkpt><trkpt lat="44.48959603922208" lon="9.130983980471228"><ele>630.6666666666666</ele><time>2026-04-19T08:30:01Z</time></trkpt><trkpt lat="44.48976863832277" lon="9.130970656679846"><ele>629.0</ele><time>2026-04-19T08:30:02Z</time></trkpt><trkpt lat="44.489938619359044" lon="9.130967816833389"><ele>629.0</ele><time>2026-04-19T08:30:03Z</time></trkpt><trkpt lat="44.49010433146874" lon="9.130928714200603"><ele>629.0</ele><time>2026-04-19T08:30:04Z</time></trkpt><trkpt lat="44.49026751941791" lon="9.130931501552187"><ele>629.0</ele><time>2026-04-19T08:30:05Z</time></trkpt><trkpt lat="44.490449284240626" lon="9.130907073947288"><ele>626.75</ele><time>2026-04-19T08:30:06Z</time></trkpt><trkpt lat="44.49058671926804" lon="9.130890174225431"><ele>624.5</ele><time>2026-04-19T08:30:07Z</time></trkpt><trkpt lat="44.49072453425871" lon="9.130868222571252"><ele>622.25</ele><time>2026-04-19T08:30:08Z</time></trkpt><trkpt lat="44.49086096373225" lon="9.130858795434445"><ele>620.0</ele><time>2026-04-19T08:30:09Z</time></trkpt><trkpt lat="44.49099879708739" lon="9.130839372946085"><ele>620.0</ele><time>2026-04-19T08:30:10Z</time></trkpt><trkpt lat="44.49115472913896" lon="9.13082491958671"><ele>620.0</ele><time>2026-04-19T08:30:11Z</time></trkpt><trkpt lat="44.491310804693775" lon="9.130799938342824"><ele>620.0</ele><time>2026-04-19T08:30:12Z</time></trkpt><trkpt lat="44.49146958694974" lon="9.13078439938425"><ele>613.0</ele><time>2026-04-19T08:30:12.999Z</time></trkpt><trkpt lat="44.49161564388157" lon="9.130771670863313"><ele>606.0</ele><time>2026-04-19T08:30:13.999Z</time></trkpt><trkpt lat="44.491753266857565" lon="9.130757953600908"><ele>599.0</ele><time>2026-04-19T08:30:14.999Z</time></trkpt><trkpt lat="44.49188933442007" lon="9.1307456037097"><ele>592.0</ele><time>2026-04-19T08:30:15.999Z</time></trkpt><trkpt lat="44.49203244036799" lon="9.130737415893217"><ele>593.25</ele><time>2026-04-19T08:30:16.999Z</time></trkpt><trkpt lat="44.49216649393026" lon="9.130728743324845"><ele>594.5</ele><time>2026-04-19T08:30:17.999Z</time></trkpt><trkpt lat="44.49229853154944" lon="9.130730814710189"><ele>595.75</ele><time>2026-04-19T08:30:18.999Z</time></trkpt><trkpt lat="44.49243337427531" lon="9.130760826790182"><ele>597.0</ele><time>2026-04-19T08:30:19.999Z</time></trkpt><trkpt lat="44.492561589510196" lon="9.130795074514342"><ele>597.0</ele><time>2026-04-19T08:30:20.999Z</time></trkpt><trkpt lat="44.49269025985354" lon="9.130847209030355"><ele>597.0</ele><time>2026-04-19T08:30:21.999Z</time></trkpt><trkpt lat="44.49282348386364" lon="9.130917750734406"><ele>597.0</ele><time>2026-04-19T08:30:22.999Z</time></trkpt><trkpt lat="44.49295259459053" lon="9.131007814315854"><ele>597.0</ele><time>2026-04-19T08:30:23.999Z</time></trkpt><trkpt lat="44.493090829164885" lon="9.131082460670436"><ele>601.75</ele><time>2026-04-19T08:30:24.999Z</time></trkpt><trkpt lat="44.49322275963467" lon="9.131168485741753"><ele>606.5</ele><time>2026-04-19T08:30:25.999Z</time></trkpt><trkpt lat="44.493340851368764" lon="9.131236804971982"><ele>611.25</ele><time>2026-04-19T08:30:26.999Z</time></trkpt><trkpt lat="44.4934510850197" lon="9.131300032184889"><ele>616.0</ele><time>2026-04-19T08:30:27.999Z</time></trkpt><trkpt lat="44.49355383060612" lon="9.1313668625536"><ele>616.0</ele><time>2026-04-19T08:30:28.999Z</time></trkpt><trkpt lat="44.4936551882866" lon="9.131427091536288"><ele>616.0</ele><time>2026-04-19T08:30:29.999Z</time></trkpt><trkpt lat="44.49377574375436" lon="9.131524746626917"><ele>616.0</ele><time>2026-04-19T08:30:30.999Z</time></trkpt><trkpt lat="44.49387858835478" lon="9.131622069821628"><ele>616.0</ele><time>2026-04-19T08:30:31.999Z</time></trkpt><trkpt lat="44.49401535907288" lon="9.131745395039838"><ele>620.5</ele><time>2026-04-19T08:30:32.999Z</time></trkpt><trkpt lat="44.494139766619355" lon="9.13182138617385"><ele>625.0</ele><time>2026-04-19T08:30:33.999Z</time></trkpt><trkpt lat="44.49426026284609" lon="9.131927884599813"><ele>629.5</ele><time>2026-04-19T08:30:34.999Z</time></trkpt><trkpt lat="44.494355503699225" lon="9.132009031973798"><ele>634.0</ele><time>2026-04-19T08:30:35.999Z</time></trkpt><trkpt lat="44.49444633997446" lon="9.132091198043275"><ele>634.0</ele><time>2026-04-19T08:30:36.999Z</time></trkpt><trkpt lat="44.49453524730145" lon="9.132174781607041"><ele>634.0</ele><time>2026-04-19T08:30:38.021Z</time></trkpt><trkpt lat="44.49462460523346" lon="9.132257884879165"><ele>634.0</ele><time>2026-04-19T08:30:39.021Z</time></trkpt><trkpt lat="44.49471449008907" lon="9.132340163851792"><ele>634.0</ele><time>2026-04-19T08:30:40.021Z</time></trkpt><trkpt lat="44.49482912821002" lon="9.132434051481471"><ele>639.0</ele><time>2026-04-19T08:30:41.021Z</time></trkpt><trkpt lat="44.494924834580615" lon="9.132533448174817"><ele>644.0</ele><time>2026-04-19T08:30:42.019Z</time></trkpt><trkpt lat="44.49502240941382" lon="9.132620006883071"><ele>649.0</ele><time>2026-04-19T08:30:43.019Z</time></trkpt><trkpt lat="44.49510600997903" lon="9.132705062914601"><ele>654.0</ele><time>2026-04-19T08:30:44.018Z</time></trkpt><trkpt lat="44.49519405567297" lon="9.132783890694343"><ele>659.0</ele><time>2026-04-19T08:30:45.019Z</time></trkpt><trkpt lat="44.495281723681984" lon="9.132869914983809"><ele>659.0</ele><time>2026-04-19T08:30:46.02Z</time></trkpt><trkpt lat="44.49536266972242" lon="9.132955415657568"><ele>659.0</ele><time>2026-04-19T08:30:47.02Z</time></trkpt><trkpt lat="44.49567427816179" lon="9.133162884988943"><ele>659.0</ele><time>2026-04-19T08:30:50.283Z</time></trkpt><trkpt lat="44.49577139755365" lon="9.13322242629654"><ele>658.75</ele><time>2026-04-19T08:30:51.284Z</time></trkpt><trkpt lat="44.49585033605243" lon="9.133321013811097"><ele>658.5</ele><time>2026-04-19T08:30:52.283Z</time></trkpt><trkpt lat="44.495947370110514" lon="9.133380557955492"><ele>658.25</ele><time>2026-04-19T08:30:53.283Z</time></trkpt><trkpt lat="44.49602524582911" lon="9.133480986410415"><ele>658.0</ele><time>2026-04-19T08:30:54.283Z</time></trkpt><trkpt lat="44.497077469755425" lon="9.134716009729667"><ele>655.0</ele><time>2026-04-19T08:30:54.999Z</time></trkpt><trkpt lat="44.49722255287876" lon="9.134870238719172"><ele>652.0</ele><time>2026-04-19T08:30:55.999Z</time></trkpt><trkpt lat="44.497376295227255" lon="9.135038435454414"><ele>649.0</ele><time>2026-04-19T08:30:57.999Z</time></trkpt><trkpt lat="44.49751108012416" lon="9.13520937879752"><ele>649.0</ele><time>2026-04-19T08:30:58.999Z</time></trkpt><trkpt lat="44.49765061550403" lon="9.135386348940532"><ele>649.0</ele><time>2026-04-19T08:30:59.999Z</time></trkpt><trkpt lat="44.497791517246256" lon="9.135565049504526"><ele>649.0</ele><time>2026-04-19T08:31:00.999Z</time></trkpt><trkpt lat="44.49793873221488" lon="9.135751757854013"><ele>651.3333333333334</ele><time>2026-04-19T08:31:01.999Z</time></trkpt><trkpt lat="44.498082398670235" lon="9.135937118474661"><ele>653.6666666666666</ele><time>2026-04-19T08:31:02.999Z</time></trkpt><trkpt lat="44.4982399031947" lon="9.136109855896475"><ele>656.0</ele><time>2026-04-19T08:31:03.999Z</time></trkpt><trkpt lat="44.49838081387154" lon="9.136321889167881"><ele>656.0</ele><time>2026-04-19T08:31:04.999Z</time></trkpt><trkpt lat="44.498518730383566" lon="9.136498028937796"><ele>656.0</ele><time>2026-04-19T08:31:05.999Z</time></trkpt><trkpt lat="44.498651026821115" lon="9.136668217962084"><ele>656.0</ele><time>2026-04-19T08:31:06.999Z</time></trkpt><trkpt lat="44.49878546901661" lon="9.13684656210763"><ele>658.0</ele><time>2026-04-19T08:31:07.999Z</time></trkpt><trkpt lat="44.498920298848674" lon="9.137030936722626"><ele>660.0</ele><time>2026-04-19T08:31:08.999Z</time></trkpt><trkpt lat="44.49905091077756" lon="9.137213015553728"><ele>662.0</ele><time>2026-04-19T08:31:09.999Z</time></trkpt><trkpt lat="44.49919544461786" lon="9.13739266727255"><ele>666.0</ele><time>2026-04-19T08:31:10.999Z</time></trkpt><trkpt lat="44.499318980148914" lon="9.137608145398039"><ele>670.0</ele><time>2026-04-19T08:31:11.999Z</time></trkpt><trkpt lat="44.49944325291313" lon="9.137801403802525"><ele>674.0</ele><time>2026-04-19T08:31:12.999Z</time></trkpt><trkpt lat="44.4995728821022" lon="9.138009678524869"><ele>674.6666666666666</ele><time>2026-04-19T08:31:13.999Z</time></trkpt><trkpt lat="44.499698635548874" lon="9.138214580533043"><ele>675.3333333333334</ele><time>2026-04-19T08:31:14.999Z</time></trkpt><trkpt lat="44.499826933569096" lon="9.138427071828003"><ele>676.0</ele><time>2026-04-19T08:31:16Z</time></trkpt><trkpt lat="44.49994818688306" lon="9.138636146064535"><ele>676.0</ele><time>2026-04-19T08:31:17Z</time></trkpt><trkpt lat="44.500069037646035" lon="9.138815695271726"><ele>676.0</ele><time>2026-04-19T08:31:18Z</time></trkpt><trkpt lat="44.50017660941372" lon="9.139015377542394"><ele>676.0</ele><time>2026-04-19T08:31:19Z</time></trkpt><trkpt lat="44.500288496450175" lon="9.139217530839893"><ele>679.6666666666667</ele><time>2026-04-19T08:31:20Z</time></trkpt><trkpt lat="44.500393751928094" lon="9.139419393870684"><ele>683.3333333333334</ele><time>2026-04-19T08:31:21Z</time></trkpt><trkpt lat="44.5004993779044" lon="9.139628043467747"><ele>687.0</ele><time>2026-04-19T08:31:22Z</time></trkpt><trkpt lat="44.50060531182195" lon="9.139841840108526"><ele>692.0</ele><time>2026-04-19T08:31:23Z</time></trkpt><trkpt lat="44.50068941174296" lon="9.140057807679089"><ele>697.0</ele><time>2026-04-19T08:31:24Z</time></trkpt><trkpt lat="44.50078537451182" lon="9.140270296106843"><ele>702.0</ele><time>2026-04-19T08:31:25Z</time></trkpt><trkpt lat="44.50088259799652" lon="9.140485377978464"><ele>702.0</ele><time>2026-04-19T08:31:26.019Z</time></trkpt><trkpt lat="44.500976363808846" lon="9.140694976070957"><ele>702.0</ele><time>2026-04-19T08:31:27.021Z</time></trkpt><trkpt lat="44.501066579342556" lon="9.14090233415642"><ele>702.0</ele><time>2026-04-19T08:31:28.021Z</time></trkpt><trkpt lat="44.50115616759749" lon="9.141112349934533"><ele>706.3333333333334</ele><time>2026-04-19T08:31:29.019Z</time></trkpt><trkpt lat="44.501242817572745" lon="9.14132224290904"><ele>710.6666666666667</ele><time>2026-04-19T08:31:30.019Z</time></trkpt><trkpt lat="44.50132325449428" lon="9.141534435615325"><ele>715.0</ele><time>2026-04-19T08:31:31.021Z</time></trkpt><trkpt lat="44.50158006115653" lon="9.142256090116845"><ele>724.0</ele><time>2026-04-19T08:31:34.283Z</time></trkpt><trkpt lat="44.50167135890351" lon="9.142469147626484"><ele>733.0</ele><time>2026-04-19T08:31:35.282Z</time></trkpt><trkpt lat="44.501731804120034" lon="9.14270275679642"><ele>742.0</ele><time>2026-04-19T08:31:36.282Z</time></trkpt><trkpt lat="44.501806150115655" lon="9.142927153998357"><ele>742.0</ele><time>2026-04-19T08:31:37.283Z</time></trkpt><trkpt lat="44.50189328819681" lon="9.143143160184875"><ele>742.0</ele><time>2026-04-19T08:31:38.282Z</time></trkpt><trkpt lat="44.50194769800617" lon="9.143379207809213"><ele>742.0</ele><time>2026-04-19T08:31:39.282Z</time></trkpt><trkpt lat="44.50201461231747" lon="9.14360817309936"><ele>740.3333333333334</ele><time>2026-04-19T08:31:40.282Z</time></trkpt><trkpt lat="44.50208072959132" lon="9.143837292536304"><ele>738.6666666666666</ele><time>2026-04-19T08:31:41.282Z</time></trkpt><trkpt lat="44.50214541983957" lon="9.144067346521894"><ele>737.0</ele><time>2026-04-19T08:31:42.283Z</time></trkpt><trkpt lat="44.50222428162257" lon="9.144290125623522"><ele>733.0</ele><time>2026-04-19T08:31:43.283Z</time></trkpt><trkpt lat="44.50227196298887" lon="9.144529215006475"><ele>729.0</ele><time>2026-04-19T08:31:44.282Z</time></trkpt><trkpt lat="44.5023504678894" lon="9.144752042205669"><ele>725.0</ele><time>2026-04-19T08:31:45.282Z</time></trkpt><trkpt lat="44.502412000528615" lon="9.14498394048448"><ele>719.5</ele><time>2026-04-19T08:31:46.282Z</time></trkpt><trkpt lat="44.502473534884295" lon="9.145215845232125"><ele>714.0</ele><time>2026-04-19T08:31:47.282Z</time></trkpt><trkpt lat="44.50260891688825" lon="9.145801155558596"><ele>711.6666666666666</ele><time>2026-04-19T08:31:48Z</time></trkpt><trkpt lat="44.502669902269986" lon="9.14603666771241"><ele>709.3333333333333</ele><time>2026-04-19T08:31:49Z</time></trkpt><trkpt lat="44.50273274212344" lon="9.146275905781026"><ele>707.0</ele><time>2026-04-19T08:31:50Z</time></trkpt><trkpt lat="44.50279703967546" lon="9.146510392281286"><ele>704.6666666666666</ele><time>2026-04-19T08:31:51Z</time></trkpt><trkpt lat="44.50286038401909" lon="9.146739355870425"><ele>702.3333333333334</ele><time>2026-04-19T08:31:52Z</time></trkpt><trkpt lat="44.50292898635584" lon="9.146970824641532"><ele>700.0</ele><time>2026-04-19T08:31:53Z</time></trkpt><trkpt lat="44.50299823082345" lon="9.147191246656465"><ele>705.0</ele><time>2026-04-19T08:31:54Z</time></trkpt><trkpt lat="44.50308294092708" lon="9.147425994716375"><ele>710.0</ele><time>2026-04-19T08:31:55Z</time></trkpt><trkpt lat="44.503178068069325" lon="9.147656074353598"><ele>715.0</ele><time>2026-04-19T08:31:56Z</time></trkpt><trkpt lat="44.50327819362586" lon="9.14787903893523"><ele>715.0</ele><time>2026-04-19T08:31:57Z</time></trkpt><trkpt lat="44.50338752765067" lon="9.14810057660919"><ele>715.0</ele><time>2026-04-19T08:31:58Z</time></trkpt><trkpt lat="44.503501392915155" lon="9.148317526104943"><ele>715.0</ele><time>2026-04-19T08:31:59Z</time></trkpt><trkpt lat="44.503620696986964" lon="9.14852761394876"><ele>714.0</ele><time>2026-04-19T08:32:00Z</time></trkpt><trkpt lat="44.50374894496743" lon="9.14873007818759"><ele>713.0</ele><time>2026-04-19T08:32:01Z</time></trkpt><trkpt lat="44.50388164815783" lon="9.148920994286884"><ele>712.0</ele><time>2026-04-19T08:32:02Z</time></trkpt><trkpt lat="44.5040331736099" lon="9.14909572713904"><ele>712.0</ele><time>2026-04-19T08:32:03Z</time></trkpt><trkpt lat="44.50418202201784" lon="9.149278204641037"><ele>712.0</ele><time>2026-04-19T08:32:04Z</time></trkpt><trkpt lat="44.50433432392869" lon="9.149451366676628"><ele>712.0</ele><time>2026-04-19T08:32:05Z</time></trkpt><trkpt lat="44.50449499590061" lon="9.149626558934138"><ele>721.0</ele><time>2026-04-19T08:32:06Z</time></trkpt><trkpt lat="44.50465499735777" lon="9.149777664744684"><ele>730.0</ele><time>2026-04-19T08:32:07Z</time></trkpt><trkpt lat="44.50483918703523" lon="9.149970171306714"><ele>739.0</ele><time>2026-04-19T08:32:08Z</time></trkpt><trkpt lat="44.50501173418738" lon="9.150150584670888"><ele>740.0</ele><time>2026-04-19T08:32:09Z</time></trkpt><trkpt lat="44.50518773712013" lon="9.150334872576481"><ele>741.0</ele><time>2026-04-19T08:32:10.02Z</time></trkpt><trkpt lat="44.505360269599116" lon="9.150514864181721"><ele>742.0</ele><time>2026-04-19T08:32:11.016Z</time></trkpt><trkpt lat="44.50573294217062" lon="9.150847948736248"><ele>749.0</ele><time>2026-04-19T08:32:13.016Z</time></trkpt><trkpt lat="44.5059081438479" lon="9.151018630429137"><ele>756.0</ele><time>2026-04-19T08:32:14.016Z</time></trkpt><trkpt lat="44.506776406866" lon="9.151857783107184"><ele>746.6666666666666</ele><time>2026-04-19T08:32:19.999Z</time></trkpt><trkpt lat="44.50692524212162" lon="9.1520016677704"><ele>737.3333333333333</ele><time>2026-04-19T08:32:20.999Z</time></trkpt><trkpt lat="44.5070787805899" lon="9.152150005720427"><ele>728.0</ele><time>2026-04-19T08:32:21.999Z</time></trkpt><trkpt lat="44.507233030985184" lon="9.152299225580222"><ele>729.6666666666666</ele><time>2026-04-19T08:32:22.999Z</time></trkpt><trkpt lat="44.50737559387284" lon="9.152437741161327"><ele>731.3333333333334</ele><time>2026-04-19T08:32:23.999Z</time></trkpt><trkpt lat="44.50750402541579" lon="9.152562528331282"><ele>733.0</ele><time>2026-04-19T08:32:24.999Z</time></trkpt><trkpt lat="44.50764102205498" lon="9.152696232327566"><ele>733.0</ele><time>2026-04-19T08:32:25.999Z</time></trkpt><trkpt lat="44.507779825347704" lon="9.152824719944281"><ele>733.0</ele><time>2026-04-19T08:32:26.999Z</time></trkpt><trkpt lat="44.50792797875351" lon="9.152923363909377"><ele>733.0</ele><time>2026-04-19T08:32:27.999Z</time></trkpt><trkpt lat="44.508070407869866" lon="9.153040151777445"><ele>736.6666666666667</ele><time>2026-04-19T08:32:29.02Z</time></trkpt><trkpt lat="44.5082108150956" lon="9.15315811451636"><ele>740.3333333333334</ele><time>2026-04-19T08:32:30.019Z</time></trkpt><trkpt lat="44.50835251663718" lon="9.153276245017716"><ele>744.0</ele><time>2026-04-19T08:32:31.02Z</time></trkpt><trkpt lat="44.508495666429084" lon="9.153389285780525"><ele>744.0</ele><time>2026-04-19T08:32:32.02Z</time></trkpt><trkpt lat="44.50863766748419" lon="9.15350145248015"><ele>744.0</ele><time>2026-04-19T08:32:33.021Z</time></trkpt><trkpt lat="44.5089361025435" lon="9.153545033195199"><ele>741.6666666666666</ele><time>2026-04-19T08:32:33.999Z</time></trkpt><trkpt lat="44.50909485303051" lon="9.15366186885967"><ele>739.3333333333333</ele><time>2026-04-19T08:32:34.999Z</time></trkpt><trkpt lat="44.50931172634355" lon="9.153683988302124"><ele>737.0</ele><time>2026-04-19T08:32:35.999Z</time></trkpt><trkpt lat="44.50948525559445" lon="9.15372729822636"><ele>738.0</ele><time>2026-04-19T08:32:36.999Z</time></trkpt><trkpt lat="44.509664160668954" lon="9.153815271343872"><ele>739.0</ele><time>2026-04-19T08:32:37.999Z</time></trkpt><trkpt lat="44.50983622171755" lon="9.153858571406145"><ele>740.0</ele><time>2026-04-19T08:32:38.999Z</time></trkpt><trkpt lat="44.5100306612062" lon="9.153925618485802"><ele>740.0</ele><time>2026-04-19T08:32:39.999Z</time></trkpt><trkpt lat="44.51022606942228" lon="9.153994147508566"><ele>740.0</ele><time>2026-04-19T08:32:40.999Z</time></trkpt><trkpt lat="44.51042767635837" lon="9.15407078171343"><ele>740.0</ele><time>2026-04-19T08:32:41.999Z</time></trkpt><trkpt lat="44.510624615228124" lon="9.154144726412593"><ele>738.3333333333333</ele><time>2026-04-19T08:32:42.999Z</time></trkpt><trkpt lat="44.5108075092458" lon="9.154221213833813"><ele>736.6666666666666</ele><time>2026-04-19T08:32:43.999Z</time></trkpt><trkpt lat="44.51099749137186" lon="9.154297829037588"><ele>735.0</ele><time>2026-04-19T08:32:44.999Z</time></trkpt><trkpt lat="44.511180725633814" lon="9.154380208459449"><ele>740.6666666666666</ele><time>2026-04-19T08:32:45.999Z</time></trkpt><trkpt lat="44.511359379058376" lon="9.154477930924905"><ele>746.3333333333333</ele><time>2026-04-19T08:32:46.999Z</time></trkpt><trkpt lat="44.511524489768526" lon="9.154590112229199"><ele>752.0</ele><time>2026-04-19T08:32:47.999Z</time></trkpt><trkpt lat="44.51169323639727" lon="9.154713566896701"><ele>752.0</ele><time>2026-04-19T08:32:48.999Z</time></trkpt><trkpt lat="44.51184939672926" lon="9.154845163043104"><ele>752.0</ele><time>2026-04-19T08:32:49.999Z</time></trkpt><trkpt lat="44.512004770082534" lon="9.154987422361124"><ele>752.0</ele><time>2026-04-19T08:32:50.999Z</time></trkpt><trkpt lat="44.51217125673503" lon="9.155140705884401"><ele>750.6666666666666</ele><time>2026-04-19T08:32:51.999Z</time></trkpt><trkpt lat="44.51232310744798" lon="9.155306473160037"><ele>749.3333333333334</ele><time>2026-04-19T08:32:52.999Z</time></trkpt><trkpt lat="44.51247436589826" lon="9.155472308294915"><ele>748.0</ele><time>2026-04-19T08:32:53.999Z</time></trkpt><trkpt lat="44.512632082961346" lon="9.155663435258596"><ele>746.6666666666667</ele><time>2026-04-19T08:32:54.999Z</time></trkpt><trkpt lat="44.51277292417341" lon="9.155846989060471"><ele>745.3333333333334</ele><time>2026-04-19T08:32:55.999Z</time></trkpt><trkpt lat="44.51290145783021" lon="9.156027979040001"><ele>744.0</ele><time>2026-04-19T08:32:56.999Z</time></trkpt><trkpt lat="44.5130141862328" lon="9.156218146606665"><ele>744.0</ele><time>2026-04-19T08:32:57.999Z</time></trkpt><trkpt lat="44.51312832438445" lon="9.156415177239536"><ele>744.0</ele><time>2026-04-19T08:32:58.999Z</time></trkpt><trkpt lat="44.5132339141448" lon="9.156617332106002"><ele>744.0</ele><time>2026-04-19T08:32:59.999Z</time></trkpt><trkpt lat="44.51332213857835" lon="9.156842930266222"><ele>744.0</ele><time>2026-04-19T08:33:00.999Z</time></trkpt><trkpt lat="44.51341476685065" lon="9.15706744429642"><ele>744.0</ele><time>2026-04-19T08:33:02.016Z</time></trkpt><trkpt lat="44.513502315339174" lon="9.157296487377574"><ele>744.0</ele><time>2026-04-19T08:33:03.022Z</time></trkpt><trkpt lat="44.51358489055008" lon="9.157528147947588"><ele>744.0</ele><time>2026-04-19T08:33:04.019Z</time></trkpt><trkpt lat="44.513649782390985" lon="9.157745058003504"><ele>744.0</ele><time>2026-04-19T08:33:05.02Z</time></trkpt><trkpt lat="44.51371289052493" lon="9.157975329201543"><ele>744.0</ele><time>2026-04-19T08:33:06.017Z</time></trkpt><trkpt lat="44.51378865156653" lon="9.158310550139486"><ele>744.0</ele><time>2026-04-19T08:33:06.999Z</time></trkpt><trkpt lat="44.51385088586232" lon="9.15857260309262"><ele>744.0</ele><time>2026-04-19T08:33:07.999Z</time></trkpt><trkpt lat="44.513895197889106" lon="9.158850666763096"><ele>744.0</ele><time>2026-04-19T08:33:08.999Z</time></trkpt><trkpt lat="44.5139261985158" lon="9.159121356726592"><ele>739.6666666666666</ele><time>2026-04-19T08:33:09.999Z</time></trkpt><trkpt lat="44.51394795876954" lon="9.159388068739904"><ele>735.3333333333333</ele><time>2026-04-19T08:33:10.999Z</time></trkpt><trkpt lat="44.51396334809357" lon="9.15962970603242"><ele>731.0</ele><time>2026-04-19T08:33:11.999Z</time></trkpt><trkpt lat="44.51396713739902" lon="9.159870188762614"><ele>728.3333333333333</ele><time>2026-04-19T08:33:12.999Z</time></trkpt><trkpt lat="44.51396641076762" lon="9.160112003757478"><ele>725.6666666666666</ele><time>2026-04-19T08:33:13.999Z</time></trkpt><trkpt lat="44.513974408284476" lon="9.16034780215283"><ele>723.0</ele><time>2026-04-19T08:33:14.999Z</time></trkpt><trkpt lat="44.51396258367604" lon="9.160595448043985"><ele>723.0</ele><time>2026-04-19T08:33:15.999Z</time></trkpt><trkpt lat="44.51393866494093" lon="9.160839074319522"><ele>723.0</ele><time>2026-04-19T08:33:16.999Z</time></trkpt><trkpt lat="44.5139057418679" lon="9.161070867327474"><ele>723.0</ele><time>2026-04-19T08:33:17.999Z</time></trkpt><trkpt lat="44.51386331629359" lon="9.161309208234382"><ele>728.3333333333334</ele><time>2026-04-19T08:33:18.999Z</time></trkpt><trkpt lat="44.51383540255786" lon="9.16155439626165"><ele>733.6666666666667</ele><time>2026-04-19T08:33:19.999Z</time></trkpt><trkpt lat="44.51377138792396" lon="9.161784880573954"><ele>739.0</ele><time>2026-04-19T08:33:20.999Z</time></trkpt><trkpt lat="44.5137177199767" lon="9.162024183387595"><ele>742.6666666666667</ele><time>2026-04-19T08:33:22Z</time></trkpt><trkpt lat="44.51366331454362" lon="9.1622608061115"><ele>746.3333333333334</ele><time>2026-04-19T08:33:23Z</time></trkpt><trkpt lat="44.51360771089593" lon="9.162499741839294"><ele>750.0</ele><time>2026-04-19T08:33:24Z</time></trkpt><trkpt lat="44.51355808932407" lon="9.16270963512127"><ele>756.3333333333333</ele><time>2026-04-19T08:33:25Z</time></trkpt><trkpt lat="44.51350933337678" lon="9.16291309464554"><ele>762.6666666666666</ele><time>2026-04-19T08:33:26Z</time></trkpt><trkpt lat="44.51345936910251" lon="9.163116224446927"><ele>769.0</ele><time>2026-04-19T08:33:27.021Z</time></trkpt><trkpt lat="44.5134092416205" lon="9.163320018064079"><ele>774.3333333333333</ele><time>2026-04-19T08:33:28.018Z</time></trkpt><trkpt lat="44.51336029743845" lon="9.163521876593142"><ele>779.6666666666667</ele><time>2026-04-19T08:33:29.015Z</time></trkpt><trkpt lat="44.51331242716096" lon="9.163723883611707"><ele>785.0</ele><time>2026-04-19T08:33:30.019Z</time></trkpt><trkpt lat="44.51326512917253" lon="9.16392347519834"><ele>875.0</ele><time>2026-04-19T08:33:31.015Z</time></trkpt><trkpt lat="44.512637590051725" lon="9.16661468000879"><ele>857.0</ele><time>2026-04-19T08:33:34.281Z</time></trkpt><trkpt lat="44.512880539992466" lon="9.166059559502546"><ele>806.0</ele><time>2026-04-19T08:33:44.289Z</time></trkpt><trkpt lat="44.50901166540059" lon="9.183104150005786"><ele>803.3333333333334</ele><time>2026-04-19T08:34:53.999Z</time></trkpt><trkpt lat="44.508976741148736" lon="9.183341875817904"><ele>800.6666666666667</ele><time>2026-04-19T08:34:54.999Z</time></trkpt><trkpt lat="44.508962086965035" lon="9.183585361659949"><ele>798.0</ele><time>2026-04-19T08:34:55.999Z</time></trkpt><trkpt lat="44.50892583770334" lon="9.18383381319464"><ele>796.3333333333333</ele><time>2026-04-19T08:34:56.999Z</time></trkpt><trkpt lat="44.508890579532306" lon="9.184076886814006"><ele>794.6666666666666</ele><time>2026-04-19T08:34:57.999Z</time></trkpt><trkpt lat="44.50885787335693" lon="9.184318710612471"><ele>793.0</ele><time>2026-04-19T08:34:58.999Z</time></trkpt><trkpt lat="44.50882681454613" lon="9.184555314855436"><ele>793.0</ele><time>2026-04-19T08:34:59.999Z</time></trkpt><trkpt lat="44.50879799779348" lon="9.184793032167983"><ele>793.0</ele><time>2026-04-19T08:35:00.999Z</time></trkpt><trkpt lat="44.50877096452293" lon="9.185013411153282"><ele>793.0</ele><time>2026-04-19T08:35:01.999Z</time></trkpt><trkpt lat="44.50873863669291" lon="9.185228315705283"><ele>800.0</ele><time>2026-04-19T08:35:02.999Z</time></trkpt><trkpt lat="44.50871370682203" lon="9.185450898752066"><ele>807.0</ele><time>2026-04-19T08:35:03.999Z</time></trkpt><trkpt lat="44.50868285285583" lon="9.185685741788827"><ele>814.0</ele><time>2026-04-19T08:35:04.999Z</time></trkpt><trkpt lat="44.50864525604114" lon="9.185906553764395"><ele>815.3333333333333</ele><time>2026-04-19T08:35:05.999Z</time></trkpt><trkpt lat="44.50861535077611" lon="9.186147803561463"><ele>816.6666666666667</ele><time>2026-04-19T08:35:06.999Z</time></trkpt><trkpt lat="44.508582748906726" lon="9.186401535757549"><ele>818.0</ele><time>2026-04-19T08:35:07.999Z</time></trkpt><trkpt lat="44.50855644313691" lon="9.186585065900514"><ele>814.3333333333334</ele><time>2026-04-19T08:35:08.999Z</time></trkpt><trkpt lat="44.508513685484715" lon="9.18683744679582"><ele>810.6666666666667</ele><time>2026-04-19T08:35:09.999Z</time></trkpt><trkpt lat="44.5084781365587" lon="9.187063424624615"><ele>807.0</ele><time>2026-04-19T08:35:10.999Z</time></trkpt><trkpt lat="44.508443891603136" lon="9.187276799199605"><ele>805.5</ele><time>2026-04-19T08:35:11.999Z</time></trkpt><trkpt lat="44.50842543930542" lon="9.187479554364712"><ele>804.0</ele><time>2026-04-19T08:35:12.999Z</time></trkpt><trkpt lat="44.508421133729136" lon="9.187680850558856"><ele>802.5</ele><time>2026-04-19T08:35:13.999Z</time></trkpt><trkpt lat="44.50844315593769" lon="9.187883138455275"><ele>801.0</ele><time>2026-04-19T08:35:14.999Z</time></trkpt><trkpt lat="44.5084864096947" lon="9.188082401998365"><ele>802.75</ele><time>2026-04-19T08:35:15.999Z</time></trkpt><trkpt lat="44.50854504548965" lon="9.18827194739189"><ele>804.5</ele><time>2026-04-19T08:35:16.999Z</time></trkpt><trkpt lat="44.50861510975357" lon="9.18846555657451"><ele>806.25</ele><time>2026-04-19T08:35:17.999Z</time></trkpt><trkpt lat="44.508699802822555" lon="9.188630142001308"><ele>808.0</ele><time>2026-04-19T08:35:18.999Z</time></trkpt><trkpt lat="44.50879481632471" lon="9.188775243306631"><ele>803.75</ele><time>2026-04-19T08:35:19.999Z</time></trkpt><trkpt lat="44.50888949092727" lon="9.188901779140458"><ele>799.5</ele><time>2026-04-19T08:35:20.999Z</time></trkpt><trkpt lat="44.50899224728197" lon="9.189008417742361"><ele>795.25</ele><time>2026-04-19T08:35:21.999Z</time></trkpt><trkpt lat="44.50909462411851" lon="9.1891113711347"><ele>791.0</ele><time>2026-04-19T08:35:22.999Z</time></trkpt><trkpt lat="44.50920258886478" lon="9.189209352501633"><ele>791.0</ele><time>2026-04-19T08:35:23.999Z</time></trkpt><trkpt lat="44.50931494252884" lon="9.18930431165872"><ele>791.0</ele><time>2026-04-19T08:35:24.999Z</time></trkpt><trkpt lat="44.509423900492024" lon="9.189410982447688"><ele>791.0</ele><time>2026-04-19T08:35:25.999Z</time></trkpt><trkpt lat="44.50952740727435" lon="9.189521806008344"><ele>791.0</ele><time>2026-04-19T08:35:26.999Z</time></trkpt><trkpt lat="44.509629257152355" lon="9.189650589727458"><ele>790.0</ele><time>2026-04-19T08:35:28Z</time></trkpt><trkpt lat="44.509699823658444" lon="9.189816775930595"><ele>789.0</ele><time>2026-04-19T08:35:29Z</time></trkpt><trkpt lat="44.509771492204166" lon="9.18998146558271"><ele>788.0</ele><time>2026-04-19T08:35:30Z</time></trkpt><trkpt lat="44.50983365921875" lon="9.190160117181684"><ele>787.0</ele><time>2026-04-19T08:35:31Z</time></trkpt><trkpt lat="44.50986831801137" lon="9.190334115013773"><ele>784.5</ele><time>2026-04-19T08:35:32Z</time></trkpt><trkpt lat="44.50988986250858" lon="9.190513514902237"><ele>782.0</ele><time>2026-04-19T08:35:33Z</time></trkpt><trkpt lat="44.50989792138299" lon="9.190698094496321"><ele>779.5</ele><time>2026-04-19T08:35:34Z</time></trkpt><trkpt lat="44.50989469886967" lon="9.190867010094328"><ele>777.0</ele><time>2026-04-19T08:35:35Z</time></trkpt><trkpt lat="44.50987251205472" lon="9.191031008623005"><ele>777.0</ele><time>2026-04-19T08:35:36Z</time></trkpt><trkpt lat="44.50983962585485" lon="9.191192535194395"><ele>777.0</ele><time>2026-04-19T08:35:37Z</time></trkpt><trkpt lat="44.509800948397995" lon="9.191378928525953"><ele>777.0</ele><time>2026-04-19T08:35:38Z</time></trkpt><trkpt lat="44.509765260979954" lon="9.191559196540142"><ele>777.0</ele><time>2026-04-19T08:35:39Z</time></trkpt><trkpt lat="44.509741410908475" lon="9.19174915197816"><ele>779.5</ele><time>2026-04-19T08:35:40.019Z</time></trkpt><trkpt lat="44.50969943516295" lon="9.1919307394632"><ele>782.0</ele><time>2026-04-19T08:35:41.018Z</time></trkpt><trkpt lat="44.50965657943787" lon="9.192107363514125"><ele>784.5</ele><time>2026-04-19T08:35:42.018Z</time></trkpt><trkpt lat="44.50961367101265" lon="9.192275081610788"><ele>787.0</ele><time>2026-04-19T08:35:43.018Z</time></trkpt><trkpt lat="44.50957499045865" lon="9.192443841429657"><ele>773.0</ele><time>2026-04-19T08:35:44.019Z</time></trkpt><trkpt lat="44.50964254394713" lon="9.193173897978832"><ele>773.0</ele><time>2026-04-19T08:35:48Z</time></trkpt><trkpt lat="44.50964739649556" lon="9.19335276492478"><ele>773.0</ele><time>2026-04-19T08:35:49Z</time></trkpt><trkpt lat="44.50964198874444" lon="9.193557962775246"><ele>773.0</ele><time>2026-04-19T08:35:50Z</time></trkpt><trkpt lat="44.5096289461299" lon="9.193740487480888"><ele>773.0</ele><time>2026-04-19T08:35:51Z</time></trkpt><trkpt lat="44.509589096022204" lon="9.193930721329282"><ele>776.5</ele><time>2026-04-19T08:35:52Z</time></trkpt><trkpt lat="44.50952505075589" lon="9.194109944420228"><ele>780.0</ele><time>2026-04-19T08:35:53Z</time></trkpt><trkpt lat="44.50946345345303" lon="9.194267967573666"><ele>783.5</ele><time>2026-04-19T08:35:54Z</time></trkpt><trkpt lat="44.50938570118349" lon="9.194435104963071"><ele>787.0</ele><time>2026-04-19T08:35:55Z</time></trkpt><trkpt lat="44.50928212336273" lon="9.19457480606008"><ele>787.0</ele><time>2026-04-19T08:35:56Z</time></trkpt><trkpt lat="44.50915129681505" lon="9.19465360548382"><ele>787.0</ele><time>2026-04-19T08:35:57Z</time></trkpt><trkpt lat="44.50902804388646" lon="9.194731642763186"><ele>787.0</ele><time>2026-04-19T08:35:58Z</time></trkpt><trkpt lat="44.50893699731105" lon="9.194802577378244"><ele>787.0</ele><time>2026-04-19T08:35:59Z</time></trkpt><trkpt lat="44.50886913243164" lon="9.194912598477933"><ele>782.75</ele><time>2026-04-19T08:36:00Z</time></trkpt><trkpt lat="44.5088297985366" lon="9.195059179936855"><ele>778.5</ele><time>2026-04-19T08:36:01Z</time></trkpt><trkpt lat="44.50886042069043" lon="9.195229772646892"><ele>774.25</ele><time>2026-04-19T08:36:02Z</time></trkpt><trkpt lat="44.5088959410622" lon="9.195398609087105"><ele>770.0</ele><time>2026-04-19T08:36:03Z</time></trkpt><trkpt lat="44.50893868376084" lon="9.195559302571818"><ele>770.2</ele><time>2026-04-19T08:36:04Z</time></trkpt><trkpt lat="44.50897565986914" lon="9.195708943392408"><ele>770.4</ele><time>2026-04-19T08:36:05Z</time></trkpt><trkpt lat="44.50900363695622" lon="9.195839898789133"><ele>770.5999999999999</ele><time>2026-04-19T08:36:06Z</time></trkpt><trkpt lat="44.50902598885288" lon="9.195962347396897"><ele>770.8</ele><time>2026-04-19T08:36:07Z</time></trkpt><trkpt lat="44.509036750838256" lon="9.196059779020889"><ele>771.0</ele><time>2026-04-19T08:36:08Z</time></trkpt><trkpt lat="44.50902330832457" lon="9.196175903711367"><ele>771.0</ele><time>2026-04-19T08:36:10Z</time></trkpt><trkpt lat="44.50901096357707" lon="9.196286804212004"><ele>771.0</ele><time>2026-04-19T08:36:12Z</time></trkpt><trkpt lat="44.50899985244087" lon="9.19639083580021"><ele>771.0</ele><time>2026-04-19T08:36:14Z</time></trkpt><trkpt lat="44.508992351150724" lon="9.19648051233663"><ele>771.0</ele><time>2026-04-19T08:36:17Z</time></trkpt><trkpt lat="44.50899739114044" lon="9.196657605269728"><ele>771.0</ele><time>2026-04-19T08:37:20.999Z</time></trkpt><trkpt lat="44.50901999104339" lon="9.196768605325227"><ele>771.0</ele><time>2026-04-19T08:37:21.999Z</time></trkpt><trkpt lat="44.509137417024974" lon="9.196865648373853"><ele>771.1666666666666</ele><time>2026-04-19T08:37:22.999Z</time></trkpt><trkpt lat="44.50927422905169" lon="9.196910638041224"><ele>771.3333333333333</ele><time>2026-04-19T08:37:24.999Z</time></trkpt><trkpt lat="44.509357756285645" lon="9.196954598070455"><ele>771.5</ele><time>2026-04-19T08:37:25.999Z</time></trkpt><trkpt lat="44.50941587061883" lon="9.197004042175859"><ele>771.6666666666666</ele><time>2026-04-19T08:37:26.999Z</time></trkpt><trkpt lat="44.509446752333105" lon="9.197083433660627"><ele>771.8333333333333</ele><time>2026-04-19T08:37:27.999Z</time></trkpt><trkpt lat="44.5094498436387" lon="9.197185565943599"><ele>772.0</ele><time>2026-04-19T08:37:28.999Z</time></trkpt><trkpt lat="44.50942353367505" lon="9.19729643518022"><ele>772.8</ele><time>2026-04-19T08:37:29.999Z</time></trkpt><trkpt lat="44.50936835374288" lon="9.19734710786416"><ele>773.6</ele><time>2026-04-19T08:37:30.999Z</time></trkpt><trkpt lat="44.50928063948125" lon="9.197376815844036"><ele>774.4</ele><time>2026-04-19T08:37:31.999Z</time></trkpt><trkpt lat="44.50917808380929" lon="9.1973666722857"><ele>775.1999999999999</ele><time>2026-04-19T08:37:32.999Z</time></trkpt><trkpt lat="44.5090765239522" lon="9.197354901111858"><ele>776.0</ele><time>2026-04-19T08:37:34Z</time></trkpt><trkpt lat="44.50897053849058" lon="9.197375755089897"><ele>776.0</ele><time>2026-04-19T08:37:35Z</time></trkpt><trkpt lat="44.508881769399764" lon="9.197428515203725"><ele>776.0</ele><time>2026-04-19T08:37:36Z</time></trkpt><trkpt lat="44.5088368578196" lon="9.197517435440306"><ele>776.0</ele><time>2026-04-19T08:37:37Z</time></trkpt><trkpt lat="44.50881927187931" lon="9.197636168282564"><ele>776.0</ele><time>2026-04-19T08:37:38Z</time></trkpt><trkpt lat="44.50881029563695" lon="9.197791043036114"><ele>776.0</ele><time>2026-04-19T08:37:39Z</time></trkpt><trkpt lat="44.508829471862825" lon="9.197960542025012"><ele>776.0</ele><time>2026-04-19T08:37:40Z</time></trkpt><trkpt lat="44.508848396697644" lon="9.198119368216755"><ele>776.0</ele><time>2026-04-19T08:37:41Z</time></trkpt><trkpt lat="44.508866216159504" lon="9.198263051676824"><ele>776.0</ele><time>2026-04-19T08:37:42Z</time></trkpt><trkpt lat="44.50888213904376" lon="9.198384703167365"><ele>776.0</ele><time>2026-04-19T08:37:43Z</time></trkpt><trkpt lat="44.50889961737868" lon="9.198498396722643"><ele>776.0</ele><time>2026-04-19T08:37:44Z</time></trkpt><trkpt lat="44.50892661390906" lon="9.198611465530881"><ele>776.8</ele><time>2026-04-19T08:37:45Z</time></trkpt><trkpt lat="44.508985008020986" lon="9.198718725989401"><ele>777.5999999999999</ele><time>2026-04-19T08:37:46Z</time></trkpt><trkpt lat="44.50909571943401" lon="9.198749311368518"><ele>778.4</ele><time>2026-04-19T08:37:47Z</time></trkpt><trkpt lat="44.5091933645509" lon="9.198765740227573"><ele>779.2</ele><time>2026-04-19T08:37:48Z</time></trkpt><trkpt lat="44.509306191163" lon="9.19875937592219"><ele>780.0</ele><time>2026-04-19T08:37:49Z</time></trkpt><trkpt lat="44.50943151484988" lon="9.19876806405374"><ele>780.0</ele><time>2026-04-19T08:37:50Z</time></trkpt><trkpt lat="44.50954191021659" lon="9.198786026448985"><ele>780.0</ele><time>2026-04-19T08:37:51Z</time></trkpt><trkpt lat="44.509667826054404" lon="9.1988220841078"><ele>780.0</ele><time>2026-04-19T08:37:52Z</time></trkpt><trkpt lat="44.50978252439799" lon="9.1988007420178"><ele>780.0</ele><time>2026-04-19T08:37:53Z</time></trkpt><trkpt lat="44.5098783546877" lon="9.198836551881506"><ele>781.0</ele><time>2026-04-19T08:37:54Z</time></trkpt><trkpt lat="44.50991628698822" lon="9.198978119452818"><ele>782.0</ele><time>2026-04-19T08:37:55Z</time></trkpt><trkpt lat="44.50998958167107" lon="9.199113193313314"><ele>783.0</ele><time>2026-04-19T08:37:56Z</time></trkpt><trkpt lat="44.51006737025843" lon="9.199256713482109"><ele>784.0</ele><time>2026-04-19T08:37:57Z</time></trkpt><trkpt lat="44.510163701443346" lon="9.199418153959867"><ele>784.0</ele><time>2026-04-19T08:37:58Z</time></trkpt><trkpt lat="44.510253184738545" lon="9.199581604208419"><ele>784.0</ele><time>2026-04-19T08:37:59Z</time></trkpt><trkpt lat="44.51033921755613" lon="9.199739616119475"><ele>784.0</ele><time>2026-04-19T08:38:00Z</time></trkpt><trkpt lat="44.510412863374654" lon="9.199890633282761"><ele>784.0</ele><time>2026-04-19T08:38:01Z</time></trkpt><trkpt lat="44.510439114003695" lon="9.2000546006838"><ele>789.25</ele><time>2026-04-19T08:38:02Z</time></trkpt><trkpt lat="44.51044504844694" lon="9.20023805795256"><ele>794.5</ele><time>2026-04-19T08:38:03Z</time></trkpt><trkpt lat="44.51044795181438" lon="9.20042230679288"><ele>799.75</ele><time>2026-04-19T08:38:04Z</time></trkpt><trkpt lat="44.510459641391385" lon="9.200593299032837"><ele>805.0</ele><time>2026-04-19T08:38:05Z</time></trkpt><trkpt lat="44.51041924920551" lon="9.200764013949781"><ele>795.0</ele><time>2026-04-19T08:38:06Z</time></trkpt><trkpt lat="44.51035872707422" lon="9.200922467267231"><ele>785.0</ele><time>2026-04-19T08:38:07Z</time></trkpt><trkpt lat="44.51029676906946" lon="9.201079973915055"><ele>775.0</ele><time>2026-04-19T08:38:08Z</time></trkpt><trkpt lat="44.51023119714815" lon="9.201233553037905"><ele>765.0</ele><time>2026-04-19T08:38:09Z</time></trkpt><trkpt lat="44.510179384556274" lon="9.201402999991833"><ele>766.0</ele><time>2026-04-19T08:38:10Z</time></trkpt><trkpt lat="44.51011557085365" lon="9.201574078472484"><ele>767.0</ele><time>2026-04-19T08:38:11Z</time></trkpt><trkpt lat="44.5100490169366" lon="9.201743442557573"><ele>768.0</ele><time>2026-04-19T08:38:12Z</time></trkpt><trkpt lat="44.50998126592724" lon="9.201922277814342"><ele>769.0</ele><time>2026-04-19T08:38:13Z</time></trkpt><trkpt lat="44.50989795442708" lon="9.202096985356368"><ele>769.0</ele><time>2026-04-19T08:38:14Z</time></trkpt><trkpt lat="44.50981447116146" lon="9.202275733983452"><ele>769.0</ele><time>2026-04-19T08:38:15Z</time></trkpt><trkpt lat="44.50974278785024" lon="9.2024286138307"><ele>769.0</ele><time>2026-04-19T08:38:16Z</time></trkpt><trkpt lat="44.50966898454631" lon="9.202587440866502"><ele>769.0</ele><time>2026-04-19T08:38:17Z</time></trkpt><trkpt lat="44.50959757738627" lon="9.202751462753223"><ele>769.0</ele><time>2026-04-19T08:38:18Z</time></trkpt><trkpt lat="44.50954747108193" lon="9.202912193359621"><ele>769.0</ele><time>2026-04-19T08:38:19Z</time></trkpt><trkpt lat="44.509527257298956" lon="9.203080731395374"><ele>769.0</ele><time>2026-04-19T08:38:20Z</time></trkpt><trkpt lat="44.50952874901791" lon="9.20328292016873"><ele>769.0</ele><time>2026-04-19T08:38:21Z</time></trkpt><trkpt lat="44.509547192335425" lon="9.203468024866709"><ele>769.0</ele><time>2026-04-19T08:38:22Z</time></trkpt><trkpt lat="44.50955581206567" lon="9.20366491604428"><ele>769.0</ele><time>2026-04-19T08:38:23Z</time></trkpt><trkpt lat="44.50954187575172" lon="9.203908260238608"><ele>769.0</ele><time>2026-04-19T08:38:24Z</time></trkpt><trkpt lat="44.509510394873814" lon="9.204138741583515"><ele>769.5</ele><time>2026-04-19T08:38:25Z</time></trkpt><trkpt lat="44.50948796543347" lon="9.204330026335445"><ele>770.0</ele><time>2026-04-19T08:38:26Z</time></trkpt><trkpt lat="44.509464843024624" lon="9.204514926600787"><ele>770.5</ele><time>2026-04-19T08:38:27Z</time></trkpt><trkpt lat="44.50942292426848" lon="9.204697244014815"><ele>771.0</ele><time>2026-04-19T08:38:28Z</time></trkpt><trkpt lat="44.50934611840198" lon="9.204878731890611"><ele>775.6666666666667</ele><time>2026-04-19T08:38:29Z</time></trkpt><trkpt lat="44.50924428590204" lon="9.205053444050645"><ele>780.3333333333334</ele><time>2026-04-19T08:38:30Z</time></trkpt><trkpt lat="44.50913779668341" lon="9.20523331696445"><ele>785.0</ele><time>2026-04-19T08:38:31Z</time></trkpt><trkpt lat="44.50902270895129" lon="9.205427023864619"><ele>785.0</ele><time>2026-04-19T08:38:32Z</time></trkpt><trkpt lat="44.50891941254212" lon="9.205612317681814"><ele>785.0</ele><time>2026-04-19T08:38:33Z</time></trkpt><trkpt lat="44.50882544789374" lon="9.205778531556218"><ele>785.0</ele><time>2026-04-19T08:38:34Z</time></trkpt><trkpt lat="44.508738650279994" lon="9.205937029703657"><ele>782.5</ele><time>2026-04-19T08:38:35Z</time></trkpt><trkpt lat="44.50866801175109" lon="9.206087866713032"><ele>780.0</ele><time>2026-04-19T08:38:36Z</time></trkpt><trkpt lat="44.50861436423373" lon="9.206239896820232"><ele>777.5</ele><time>2026-04-19T08:38:37Z</time></trkpt><trkpt lat="44.50855822804085" lon="9.20640187463514"><ele>775.0</ele><time>2026-04-19T08:38:38Z</time></trkpt><trkpt lat="44.50851352507729" lon="9.206537652079867"><ele>775.0</ele><time>2026-04-19T08:38:39Z</time></trkpt><trkpt lat="44.50847683879813" lon="9.20670058135361"><ele>775.0</ele><time>2026-04-19T08:38:40Z</time></trkpt><trkpt lat="44.50847520751938" lon="9.206940029989044"><ele>775.0</ele><time>2026-04-19T08:38:40.999Z</time></trkpt><trkpt lat="44.50853743722203" lon="9.207153473152824"><ele>775.0</ele><time>2026-04-19T08:38:41.999Z</time></trkpt><trkpt lat="44.50860068807493" lon="9.207317861510358"><ele>775.0</ele><time>2026-04-19T08:38:42.999Z</time></trkpt><trkpt lat="44.508685574976944" lon="9.20744882439339"><ele>775.0</ele><time>2026-04-19T08:38:43.999Z</time></trkpt><trkpt lat="44.50881238886649" lon="9.207552224933048"><ele>775.0</ele><time>2026-04-19T08:38:44.999Z</time></trkpt><trkpt lat="44.50896073530205" lon="9.207629150576858"><ele>781.25</ele><time>2026-04-19T08:38:45.999Z</time></trkpt><trkpt lat="44.509110757293165" lon="9.20770573994139"><ele>787.5</ele><time>2026-04-19T08:38:46.999Z</time></trkpt><trkpt lat="44.509251311473506" lon="9.207741144794932"><ele>793.75</ele><time>2026-04-19T08:38:47.999Z</time></trkpt><trkpt lat="44.50937047883662" lon="9.207738704882784"><ele>800.0</ele><time>2026-04-19T08:38:48.999Z</time></trkpt><trkpt lat="44.5094750399938" lon="9.207734969989376"><ele>800.0</ele><time>2026-04-19T08:38:49.999Z</time></trkpt><trkpt lat="44.509557906300785" lon="9.207741819008023"><ele>800.0</ele><time>2026-04-19T08:38:50.999Z</time></trkpt><trkpt lat="44.50964267685193" lon="9.207856297238976"><ele>800.0</ele><time>2026-04-19T08:38:52.999Z</time></trkpt><trkpt lat="44.509639691709104" lon="9.20796991875245"><ele>800.0</ele><time>2026-04-19T08:38:53.999Z</time></trkpt><trkpt lat="44.50959220385096" lon="9.20809193083894"><ele>800.0</ele><time>2026-04-19T08:38:54.999Z</time></trkpt><trkpt lat="44.50949619690201" lon="9.20818960352103"><ele>795.0</ele><time>2026-04-19T08:38:55.999Z</time></trkpt><trkpt lat="44.50939986188001" lon="9.20829991414348"><ele>790.0</ele><time>2026-04-19T08:38:56.999Z</time></trkpt><trkpt lat="44.50932132040646" lon="9.208437133030024"><ele>785.0</ele><time>2026-04-19T08:38:57.999Z</time></trkpt><trkpt lat="44.50927233261955" lon="9.208637894083271"><ele>780.0</ele><time>2026-04-19T08:38:58.999Z</time></trkpt><trkpt lat="44.50929096555603" lon="9.208854344829556"><ele>779.75</ele><time>2026-04-19T08:38:59.999Z</time></trkpt><trkpt lat="44.50940939380908" lon="9.209014962913576"><ele>779.5</ele><time>2026-04-19T08:39:02.999Z</time></trkpt><trkpt lat="44.509509249684555" lon="9.209078020277753"><ele>779.25</ele><time>2026-04-19T08:39:03.999Z</time></trkpt><trkpt lat="44.5096036215365" lon="9.209086585432544"><ele>779.0</ele><time>2026-04-19T08:39:04.999Z</time></trkpt><trkpt lat="44.50968995437541" lon="9.209027713488966"><ele>783.75</ele><time>2026-04-19T08:39:05.999Z</time></trkpt><trkpt lat="44.509767893591935" lon="9.208925057705493"><ele>788.5</ele><time>2026-04-19T08:39:06.999Z</time></trkpt><trkpt lat="44.50986913945444" lon="9.208789672283224"><ele>793.25</ele><time>2026-04-19T08:39:07.999Z</time></trkpt><trkpt lat="44.509994701088445" lon="9.208651369824256"><ele>798.0</ele><time>2026-04-19T08:39:08.999Z</time></trkpt><trkpt lat="44.51012594666138" lon="9.208493203525954"><ele>798.0</ele><time>2026-04-19T08:39:09.999Z</time></trkpt><trkpt lat="44.51024829228159" lon="9.208368310959877"><ele>798.0</ele><time>2026-04-19T08:39:10.999Z</time></trkpt><trkpt lat="44.51040119540056" lon="9.208264646887876"><ele>798.0</ele><time>2026-04-19T08:39:11.999Z</time></trkpt><trkpt lat="44.51057730902239" lon="9.208187022502898"><ele>805.3333333333333</ele><time>2026-04-19T08:39:12.999Z</time></trkpt><trkpt lat="44.510737158123916" lon="9.208128741690896"><ele>812.6666666666666</ele><time>2026-04-19T08:39:13.999Z</time></trkpt><trkpt lat="44.510887511454584" lon="9.208123463995538"><ele>820.0</ele><time>2026-04-19T08:39:14.999Z</time></trkpt><trkpt lat="44.51105323261733" lon="9.208125007402952"><ele>820.0</ele><time>2026-04-19T08:39:15.999Z</time></trkpt><trkpt lat="44.511219089641365" lon="9.208127285563823"><ele>820.0</ele><time>2026-04-19T08:39:16.999Z</time></trkpt><trkpt lat="44.51137888948061" lon="9.208129906308889"><ele>820.0</ele><time>2026-04-19T08:39:17.999Z</time></trkpt><trkpt lat="44.51151765016355" lon="9.208133245334672"><ele>820.75</ele><time>2026-04-19T08:39:18.999Z</time></trkpt><trkpt lat="44.511638906188345" lon="9.208139734809052"><ele>821.5</ele><time>2026-04-19T08:39:19.999Z</time></trkpt><trkpt lat="44.511738577937926" lon="9.208174584627166"><ele>822.25</ele><time>2026-04-19T08:39:20.999Z</time></trkpt><trkpt lat="44.51181916352086" lon="9.208249320994229"><ele>823.0</ele><time>2026-04-19T08:39:21.999Z</time></trkpt><trkpt lat="44.51190426499779" lon="9.20839029579372"><ele>819.6666666666666</ele><time>2026-04-19T08:39:22.999Z</time></trkpt><trkpt lat="44.512039025412506" lon="9.208588353372802"><ele>816.3333333333333</ele><time>2026-04-19T08:39:23.999Z</time></trkpt><trkpt lat="44.512163202513904" lon="9.208793606890454"><ele>813.0</ele><time>2026-04-19T08:39:24.999Z</time></trkpt><trkpt lat="44.512250993356666" lon="9.20899651373098"><ele>805.75</ele><time>2026-04-19T08:39:25.999Z</time></trkpt><trkpt lat="44.51231689933804" lon="9.209186361835542"><ele>798.5</ele><time>2026-04-19T08:39:26.999Z</time></trkpt><trkpt lat="44.51236828554087" lon="9.209371676516371"><ele>791.25</ele><time>2026-04-19T08:39:27.999Z</time></trkpt><trkpt lat="44.512427782454786" lon="9.209519508847418"><ele>784.0</ele><time>2026-04-19T08:39:28.999Z</time></trkpt><trkpt lat="44.51247472787894" lon="9.20965312802039"><ele>784.0</ele><time>2026-04-19T08:39:29.999Z</time></trkpt><trkpt lat="44.5125420638594" lon="9.209758503211596"><ele>784.0</ele><time>2026-04-19T08:39:30.999Z</time></trkpt><trkpt lat="44.51261644668747" lon="9.209820497209346"><ele>784.0</ele><time>2026-04-19T08:39:31.999Z</time></trkpt><trkpt lat="44.51269338036701" lon="9.209820780166707"><ele>784.0</ele><time>2026-04-19T08:39:32.999Z</time></trkpt><trkpt lat="44.51278846962458" lon="9.209790163741193"><ele>784.0</ele><time>2026-04-19T08:39:33.999Z</time></trkpt><trkpt lat="44.512866044540246" lon="9.209643766913485"><ele>786.6</ele><time>2026-04-19T08:39:34.999Z</time></trkpt><trkpt lat="44.51294779039431" lon="9.209496389113"><ele>789.2</ele><time>2026-04-19T08:39:35.999Z</time></trkpt><trkpt lat="44.513019547588904" lon="9.20938722576358"><ele>791.8000000000001</ele><time>2026-04-19T08:39:36.999Z</time></trkpt><trkpt lat="44.51309256016532" lon="9.209351128952134"><ele>794.4000000000001</ele><time>2026-04-19T08:39:37.999Z</time></trkpt><trkpt lat="44.51316168369724" lon="9.209419128279313"><ele>797.0</ele><time>2026-04-19T08:39:38.999Z</time></trkpt><trkpt lat="44.51319854040019" lon="9.209540385556181"><ele>797.0</ele><time>2026-04-19T08:39:40Z</time></trkpt><trkpt lat="44.51318876503459" lon="9.209657091603477"><ele>797.0</ele><time>2026-04-19T08:39:41Z</time></trkpt><trkpt lat="44.51315397845624" lon="9.209796673782305"><ele>797.0</ele><time>2026-04-19T08:39:42Z</time></trkpt><trkpt lat="44.51311579957981" lon="9.209965090727803"><ele>797.0</ele><time>2026-04-19T08:39:43Z</time></trkpt><trkpt lat="44.51308563323397" lon="9.210146438300233"><ele>797.0</ele><time>2026-04-19T08:39:44Z</time></trkpt><trkpt lat="44.5130543151072" lon="9.210353137958839"><ele>795.6666666666667</ele><time>2026-04-19T08:39:45Z</time></trkpt><trkpt lat="44.51302134796568" lon="9.21060631949614"><ele>794.3333333333333</ele><time>2026-04-19T08:39:46Z</time></trkpt><trkpt lat="44.512987194969796" lon="9.210843417096157"><ele>793.0</ele><time>2026-04-19T08:39:47Z</time></trkpt><trkpt lat="44.512946551220814" lon="9.211078552778975"><ele>792.6666666666666</ele><time>2026-04-19T08:39:48Z</time></trkpt><trkpt lat="44.512907762183126" lon="9.211315071914433"><ele>792.3333333333333</ele><time>2026-04-19T08:39:49Z</time></trkpt><trkpt lat="44.512880129515125" lon="9.211538985734766"><ele>792.0</ele><time>2026-04-19T08:39:50Z</time></trkpt><trkpt lat="44.51284964260339" lon="9.21175539556225"><ele>781.0</ele><time>2026-04-19T08:39:51Z</time></trkpt><trkpt lat="44.51281231167019" lon="9.211963310350336"><ele>770.0</ele><time>2026-04-19T08:39:52Z</time></trkpt><trkpt lat="44.51277272519822" lon="9.212163842099832"><ele>759.0</ele><time>2026-04-19T08:39:53Z</time></trkpt><trkpt lat="44.5127140415782" lon="9.212356812252452"><ele>759.0</ele><time>2026-04-19T08:39:54Z</time></trkpt><trkpt lat="44.51262319974287" lon="9.212528225065185"><ele>759.0</ele><time>2026-04-19T08:39:55Z</time></trkpt><trkpt lat="44.51252500948071" lon="9.212687590774308"><ele>759.0</ele><time>2026-04-19T08:39:56Z</time></trkpt><trkpt lat="44.51242270749603" lon="9.212810455451923"><ele>759.0</ele><time>2026-04-19T08:39:57Z</time></trkpt><trkpt lat="44.512332401316435" lon="9.212915100267095"><ele>759.0</ele><time>2026-04-19T08:39:58Z</time></trkpt><trkpt lat="44.51228533651482" lon="9.213031265054278"><ele>759.0</ele><time>2026-04-19T08:39:59Z</time></trkpt><trkpt lat="44.512271998035736" lon="9.213208033928437"><ele>759.0</ele><time>2026-04-19T08:40:00Z</time></trkpt><trkpt lat="44.51227120917838" lon="9.213419545435293"><ele>759.0</ele><time>2026-04-19T08:40:01Z</time></trkpt><trkpt lat="44.51224414064638" lon="9.21369060144724"><ele>758.0</ele><time>2026-04-19T08:40:02Z</time></trkpt><trkpt lat="44.51224797155412" lon="9.213906844997329"><ele>757.0</ele><time>2026-04-19T08:40:03Z</time></trkpt><trkpt lat="44.512243132271244" lon="9.214073070268858"><ele>756.0</ele><time>2026-04-19T08:40:04Z</time></trkpt><trkpt lat="44.512251340928096" lon="9.2142112857894"><ele>755.0</ele><time>2026-04-19T08:40:05Z</time></trkpt><trkpt lat="44.51227846006491" lon="9.214326268457784"><ele>755.0</ele><time>2026-04-19T08:40:06Z</time></trkpt><trkpt lat="44.51233462216651" lon="9.214449630304134"><ele>755.0</ele><time>2026-04-19T08:40:07Z</time></trkpt><trkpt lat="44.51244987328142" lon="9.214514333111147"><ele>755.0</ele><time>2026-04-19T08:40:08Z</time></trkpt><trkpt lat="44.51256575029713" lon="9.214493962273616"><ele>755.0</ele><time>2026-04-19T08:40:09Z</time></trkpt><trkpt lat="44.512665084225475" lon="9.214368989185276"><ele>755.0</ele><time>2026-04-19T08:40:10Z</time></trkpt><trkpt lat="44.51277651348767" lon="9.214244987749845"><ele>755.0</ele><time>2026-04-19T08:40:11Z</time></trkpt><trkpt lat="44.51291774175009" lon="9.214135941784868"><ele>755.0</ele><time>2026-04-19T08:40:12Z</time></trkpt><trkpt lat="44.51304651718551" lon="9.214037170871993"><ele>762.6666666666666</ele><time>2026-04-19T08:40:13Z</time></trkpt><trkpt lat="44.51319674662121" lon="9.213956336543319"><ele>770.3333333333333</ele><time>2026-04-19T08:40:14Z</time></trkpt><trkpt lat="44.513356390284095" lon="9.213835289854782"><ele>778.0</ele><time>2026-04-19T08:40:15Z</time></trkpt><trkpt lat="44.513539232256775" lon="9.213723451323144"><ele>778.0</ele><time>2026-04-19T08:40:16Z</time></trkpt><trkpt lat="44.513692207020654" lon="9.213618402527427"><ele>778.0</ele><time>2026-04-19T08:40:17Z</time></trkpt><trkpt lat="44.513841090674845" lon="9.213510583000472"><ele>778.0</ele><time>2026-04-19T08:40:18Z</time></trkpt><trkpt lat="44.51398161648909" lon="9.213387793056022"><ele>782.0</ele><time>2026-04-19T08:40:19Z</time></trkpt><trkpt lat="44.514100218259486" lon="9.2132866149882"><ele>786.0</ele><time>2026-04-19T08:40:20Z</time></trkpt><trkpt lat="44.5141978083895" lon="9.213192776197326"><ele>790.0</ele><time>2026-04-19T08:40:21Z</time></trkpt><trkpt lat="44.514293024419395" lon="9.21313868587107"><ele>794.0</ele><time>2026-04-19T08:40:22Z</time></trkpt><trkpt lat="44.51438453781643" lon="9.21310608555398"><ele>794.0</ele><time>2026-04-19T08:40:23Z</time></trkpt><trkpt lat="44.51445273315478" lon="9.21312603683764"><ele>794.0</ele><time>2026-04-19T08:40:24Z</time></trkpt><trkpt lat="44.51452847530899" lon="9.21317215904856"><ele>794.0</ele><time>2026-04-19T08:40:25Z</time></trkpt><trkpt lat="44.51459828875999" lon="9.213267166202652"><ele>794.0</ele><time>2026-04-19T08:40:26Z</time></trkpt><trkpt lat="44.51464041789909" lon="9.213415685494704"><ele>794.0</ele><time>2026-04-19T08:40:27Z</time></trkpt><trkpt lat="44.514623586110794" lon="9.213576296436706"><ele>781.0</ele><time>2026-04-19T08:40:28Z</time></trkpt><trkpt lat="44.514517912752055" lon="9.21373166663575"><ele>768.0</ele><time>2026-04-19T08:40:29Z</time></trkpt><trkpt lat="44.5144275869855" lon="9.213894112774085"><ele>755.0</ele><time>2026-04-19T08:40:30Z</time></trkpt><trkpt lat="44.5142926022837" lon="9.214077036674656"><ele>753.3333333333333</ele><time>2026-04-19T08:40:31Z</time></trkpt><trkpt lat="44.514164190845854" lon="9.214261805482542"><ele>751.6666666666666</ele><time>2026-04-19T08:40:32Z</time></trkpt><trkpt lat="44.514026226839725" lon="9.214414785080862"><ele>750.0</ele><time>2026-04-19T08:40:33Z</time></trkpt><trkpt lat="44.513841618859374" lon="9.214566407072542"><ele>750.5</ele><time>2026-04-19T08:40:34Z</time></trkpt><trkpt lat="44.513715976803496" lon="9.214700162996664"><ele>751.0</ele><time>2026-04-19T08:40:35Z</time></trkpt><trkpt lat="44.51360832961678" lon="9.214810783052476"><ele>751.5</ele><time>2026-04-19T08:40:36Z</time></trkpt><trkpt lat="44.5135150401645" lon="9.21495093146355"><ele>752.0</ele><time>2026-04-19T08:40:37Z</time></trkpt><trkpt lat="44.51343374526116" lon="9.215054638101224"><ele>751.0</ele><time>2026-04-19T08:40:38Z</time></trkpt><trkpt lat="44.51337979026035" lon="9.215145518305716"><ele>750.0</ele><time>2026-04-19T08:40:39Z</time></trkpt><trkpt lat="44.51336422176687" lon="9.215284114219655"><ele>749.0</ele><time>2026-04-19T08:40:40Z</time></trkpt><trkpt lat="44.513377343328564" lon="9.215449761076249"><ele>748.0</ele><time>2026-04-19T08:40:41Z</time></trkpt><trkpt lat="44.51345401692296" lon="9.215566951647041"><ele>747.0</ele><time>2026-04-19T08:40:42Z</time></trkpt><trkpt lat="44.513573544401474" lon="9.21567228573364"><ele>744.0</ele><time>2026-04-19T08:40:43Z</time></trkpt><trkpt lat="44.51371131651398" lon="9.21577245387851"><ele>741.0</ele><time>2026-04-19T08:40:44Z</time></trkpt><trkpt lat="44.513810375616266" lon="9.215877083272527"><ele>738.0</ele><time>2026-04-19T08:40:45Z</time></trkpt><trkpt lat="44.513900940780104" lon="9.21592853028923"><ele>735.0</ele><time>2026-04-19T08:40:46Z</time></trkpt><trkpt lat="44.51402650777726" lon="9.215915725817187"><ele>743.3333333333334</ele><time>2026-04-19T08:40:47Z</time></trkpt><trkpt lat="44.51417505744788" lon="9.2158484211475"><ele>751.6666666666667</ele><time>2026-04-19T08:40:48Z</time></trkpt><trkpt lat="44.51435249385373" lon="9.215771403749319"><ele>760.0</ele><time>2026-04-19T08:40:48.999Z</time></trkpt><trkpt lat="44.51450869396183" lon="9.215741844117845"><ele>761.0</ele><time>2026-04-19T08:40:49.999Z</time></trkpt><trkpt lat="44.514635754205536" lon="9.215661025316239"><ele>762.0</ele><time>2026-04-19T08:40:50.999Z</time></trkpt><trkpt lat="44.51474390149756" lon="9.215586746674433"><ele>763.0</ele><time>2026-04-19T08:40:51.999Z</time></trkpt><trkpt lat="44.51483080487084" lon="9.215554152574146"><ele>764.0</ele><time>2026-04-19T08:40:52.999Z</time></trkpt><trkpt lat="44.51490941311169" lon="9.215529011509577"><ele>765.0</ele><time>2026-04-19T08:40:53.999Z</time></trkpt><trkpt lat="44.51501856377631" lon="9.21561610286974"><ele>765.0</ele><time>2026-04-19T08:40:55.999Z</time></trkpt><trkpt lat="44.51502230595774" lon="9.215731147436745"><ele>765.0</ele><time>2026-04-19T08:40:56.999Z</time></trkpt><trkpt lat="44.51498218819775" lon="9.215845371142905"><ele>765.0</ele><time>2026-04-19T08:40:57.999Z</time></trkpt><trkpt lat="44.51488396259801" lon="9.215922075447821"><ele>765.0</ele><time>2026-04-19T08:40:58.999Z</time></trkpt><trkpt lat="44.514785402233564" lon="9.216015072069661"><ele>765.0</ele><time>2026-04-19T08:40:59.999Z</time></trkpt><trkpt lat="44.5147082626458" lon="9.216189279810104"><ele>765.0</ele><time>2026-04-19T08:41:00.999Z</time></trkpt><trkpt lat="44.51462789814093" lon="9.216387234399138"><ele>765.0</ele><time>2026-04-19T08:41:01.999Z</time></trkpt><trkpt lat="44.51454487461644" lon="9.216606285710673"><ele>765.0</ele><time>2026-04-19T08:41:02.999Z</time></trkpt><trkpt lat="44.514483413487184" lon="9.216778362046929"><ele>759.25</ele><time>2026-04-19T08:41:03.999Z</time></trkpt><trkpt lat="44.51443388408279" lon="9.216943443671681"><ele>753.5</ele><time>2026-04-19T08:41:04.999Z</time></trkpt><trkpt lat="44.51441233413235" lon="9.217090764494875"><ele>747.75</ele><time>2026-04-19T08:41:05.999Z</time></trkpt><trkpt lat="44.51443305958732" lon="9.217287421874806"><ele>742.0</ele><time>2026-04-19T08:41:06.999Z</time></trkpt><trkpt lat="44.51448851556688" lon="9.217530545000024"><ele>740.75</ele><time>2026-04-19T08:41:07.999Z</time></trkpt><trkpt lat="44.51449925373325" lon="9.217742675868646"><ele>739.5</ele><time>2026-04-19T08:41:08.999Z</time></trkpt><trkpt lat="44.514508338962536" lon="9.217914316183245"><ele>738.25</ele><time>2026-04-19T08:41:09.999Z</time></trkpt><trkpt lat="44.51444659701402" lon="9.21806231678624"><ele>737.0</ele><time>2026-04-19T08:41:10.999Z</time></trkpt><trkpt lat="44.5144069627048" lon="9.218260263354301"><ele>739.75</ele><time>2026-04-19T08:41:11.999Z</time></trkpt><trkpt lat="44.51435577045347" lon="9.218418190178417"><ele>742.5</ele><time>2026-04-19T08:41:12.999Z</time></trkpt><trkpt lat="44.514297476674685" lon="9.218548108552122"><ele>745.25</ele><time>2026-04-19T08:41:13.999Z</time></trkpt><trkpt lat="44.51418989959208" lon="9.21862195380677"><ele>748.0</ele><time>2026-04-19T08:41:14.999Z</time></trkpt><trkpt lat="44.51405715281679" lon="9.218748118093165"><ele>748.0</ele><time>2026-04-19T08:41:15.999Z</time></trkpt><trkpt lat="44.51390602091069" lon="9.218870539146488"><ele>748.0</ele><time>2026-04-19T08:41:16.999Z</time></trkpt><trkpt lat="44.51379344331078" lon="9.218980148106702"><ele>748.0</ele><time>2026-04-19T08:41:17.999Z</time></trkpt><trkpt lat="44.51363624474363" lon="9.219070906211456"><ele>753.0</ele><time>2026-04-19T08:41:18.999Z</time></trkpt><trkpt lat="44.51348036976807" lon="9.21915360325294"><ele>758.0</ele><time>2026-04-19T08:41:19.999Z</time></trkpt><trkpt lat="44.51333238138619" lon="9.21921484698765"><ele>763.0</ele><time>2026-04-19T08:41:20.999Z</time></trkpt><trkpt lat="44.51317288320978" lon="9.219226570210717"><ele>763.0</ele><time>2026-04-19T08:41:21.999Z</time></trkpt><trkpt lat="44.51299774532734" lon="9.219226761400934"><ele>763.0</ele><time>2026-04-19T08:41:22.999Z</time></trkpt><trkpt lat="44.51281216108837" lon="9.21920033521152"><ele>763.0</ele><time>2026-04-19T08:41:23.999Z</time></trkpt><trkpt lat="44.512666521438234" lon="9.219211546954917"><ele>761.0</ele><time>2026-04-19T08:41:24.999Z</time></trkpt><trkpt lat="44.51250144499181" lon="9.219236135869252"><ele>759.0</ele><time>2026-04-19T08:41:25.999Z</time></trkpt><trkpt lat="44.51235608807142" lon="9.21924015830689"><ele>757.0</ele><time>2026-04-19T08:41:26.999Z</time></trkpt><trkpt lat="44.512210385060406" lon="9.219269040603947"><ele>754.6666666666667</ele><time>2026-04-19T08:41:27.999Z</time></trkpt><trkpt lat="44.51206954382901" lon="9.219334378239271"><ele>752.3333333333334</ele><time>2026-04-19T08:41:28.999Z</time></trkpt><trkpt lat="44.511927428537895" lon="9.219457625756387"><ele>750.0</ele><time>2026-04-19T08:41:29.999Z</time></trkpt><trkpt lat="44.511761066385844" lon="9.219571928025383"><ele>750.0</ele><time>2026-04-19T08:41:30.999Z</time></trkpt><trkpt lat="44.511614118450396" lon="9.219654588927115"><ele>750.0</ele><time>2026-04-19T08:41:31.999Z</time></trkpt><trkpt lat="44.51147836347661" lon="9.219753024304678"><ele>750.0</ele><time>2026-04-19T08:41:32.999Z</time></trkpt><trkpt lat="44.51137674782166" lon="9.219828532753601"><ele>750.0</ele><time>2026-04-19T08:41:33.999Z</time></trkpt><trkpt lat="44.51130005153013" lon="9.219919549530198"><ele>748.8</ele><time>2026-04-19T08:41:34.999Z</time></trkpt><trkpt lat="44.51121900932877" lon="9.219982858943814"><ele>747.6</ele><time>2026-04-19T08:41:35.999Z</time></trkpt><trkpt lat="44.51120559680502" lon="9.220115651891636"><ele>746.4000000000001</ele><time>2026-04-19T08:41:36.999Z</time></trkpt><trkpt lat="44.51122340071786" lon="9.22025037530472"><ele>745.2</ele><time>2026-04-19T08:41:37.999Z</time></trkpt><trkpt lat="44.51128066601186" lon="9.220370988107248"><ele>744.0</ele><time>2026-04-19T08:41:38.999Z</time></trkpt><trkpt lat="44.51138137810663" lon="9.220505616697032"><ele>751.3333333333334</ele><time>2026-04-19T08:41:39.999Z</time></trkpt><trkpt lat="44.51149761892677" lon="9.220653736792642"><ele>758.6666666666667</ele><time>2026-04-19T08:41:40.999Z</time></trkpt><trkpt lat="44.51160848269431" lon="9.220803058026036"><ele>766.0</ele><time>2026-04-19T08:41:41.999Z</time></trkpt><trkpt lat="44.511713474440015" lon="9.220954821894715"><ele>766.0</ele><time>2026-04-19T08:41:42.999Z</time></trkpt><trkpt lat="44.51180291968335" lon="9.221127922437292"><ele>766.0</ele><time>2026-04-19T08:41:43.999Z</time></trkpt><trkpt lat="44.5118770526515" lon="9.22133041525038"><ele>766.0</ele><time>2026-04-19T08:41:44.999Z</time></trkpt><trkpt lat="44.511994615707174" lon="9.221527278748864"><ele>772.0</ele><time>2026-04-19T08:41:46Z</time></trkpt><trkpt lat="44.51212414304366" lon="9.221706082381816"><ele>778.0</ele><time>2026-04-19T08:41:47Z</time></trkpt><trkpt lat="44.51224015380194" lon="9.221872538015873"><ele>784.0</ele><time>2026-04-19T08:41:48Z</time></trkpt><trkpt lat="44.512336641774375" lon="9.222011630414794"><ele>784.0</ele><time>2026-04-19T08:41:49Z</time></trkpt><trkpt lat="44.51241337898054" lon="9.222122705456721"><ele>784.0</ele><time>2026-04-19T08:41:50Z</time></trkpt><trkpt lat="44.5124975588101" lon="9.22221164053097"><ele>784.0</ele><time>2026-04-19T08:41:51Z</time></trkpt><trkpt lat="44.51261258971709" lon="9.22225035167506"><ele>784.0</ele><time>2026-04-19T08:41:52Z</time></trkpt><trkpt lat="44.51274489778859" lon="9.222238533608321"><ele>788.6666666666666</ele><time>2026-04-19T08:41:53Z</time></trkpt><trkpt lat="44.51291409858171" lon="9.222191077535808"><ele>793.3333333333333</ele><time>2026-04-19T08:41:54Z</time></trkpt><trkpt lat="44.513084410043156" lon="9.222146492223324"><ele>798.0</ele><time>2026-04-19T08:41:55Z</time></trkpt><trkpt lat="44.51328050588942" lon="9.222144809514134"><ele>798.0</ele><time>2026-04-19T08:41:56Z</time></trkpt><trkpt lat="44.51348072827183" lon="9.222212902591604"><ele>798.0</ele><time>2026-04-19T08:41:57Z</time></trkpt><trkpt lat="44.51368644724524" lon="9.222241966413625"><ele>798.0</ele><time>2026-04-19T08:41:58Z</time></trkpt><trkpt lat="44.5139124106794" lon="9.222238933944858"><ele>797.3333333333333</ele><time>2026-04-19T08:41:59Z</time></trkpt><trkpt lat="44.51410215851791" lon="9.222253996975063"><ele>796.6666666666666</ele><time>2026-04-19T08:42:00Z</time></trkpt><trkpt lat="44.51428356849938" lon="9.22226905457294"><ele>796.0</ele><time>2026-04-19T08:42:01Z</time></trkpt><trkpt lat="44.51444043162557" lon="9.222283134562957"><ele>795.3333333333333</ele><time>2026-04-19T08:42:02Z</time></trkpt><trkpt lat="44.51459754663065" lon="9.222265026890188"><ele>794.6666666666667</ele><time>2026-04-19T08:42:03Z</time></trkpt><trkpt lat="44.51475367585248" lon="9.222202739990891"><ele>794.0</ele><time>2026-04-19T08:42:04Z</time></trkpt><trkpt lat="44.51489505140765" lon="9.222155048439271"><ele>794.0</ele><time>2026-04-19T08:42:05Z</time></trkpt><trkpt lat="44.51505114669892" lon="9.222151008028739"><ele>794.0</ele><time>2026-04-19T08:42:06Z</time></trkpt><trkpt lat="44.515213128685204" lon="9.222210528655568"><ele>794.0</ele><time>2026-04-19T08:42:07Z</time></trkpt><trkpt lat="44.515378959640096" lon="9.222203373136368"><ele>796.5</ele><time>2026-04-19T08:42:08Z</time></trkpt><trkpt lat="44.515532725547885" lon="9.222173285203603"><ele>799.0</ele><time>2026-04-19T08:42:09Z</time></trkpt><trkpt lat="44.51564724210601" lon="9.222149469691631"><ele>801.5</ele><time>2026-04-19T08:42:10Z</time></trkpt><trkpt lat="44.5157470103881" lon="9.222173886104132"><ele>804.0</ele><time>2026-04-19T08:42:11Z</time></trkpt><trkpt lat="44.51582954048985" lon="9.222244988053458"><ele>797.8000000000001</ele><time>2026-04-19T08:42:12Z</time></trkpt><trkpt lat="44.51587718740079" lon="9.222340683478839"><ele>791.6</ele><time>2026-04-19T08:42:13Z</time></trkpt><trkpt lat="44.51588282516793" lon="9.222460736555112"><ele>785.4</ele><time>2026-04-19T08:42:14Z</time></trkpt><trkpt lat="44.51581971650699" lon="9.222575927640294"><ele>779.2</ele><time>2026-04-19T08:42:15Z</time></trkpt><trkpt lat="44.51572307252556" lon="9.222706998908304"><ele>773.0</ele><time>2026-04-19T08:42:16Z</time></trkpt><trkpt lat="44.51561397597694" lon="9.222818113106708"><ele>773.0</ele><time>2026-04-19T08:42:17Z</time></trkpt><trkpt lat="44.51550055327989" lon="9.222939501122461"><ele>773.0</ele><time>2026-04-19T08:42:18Z</time></trkpt><trkpt lat="44.51540348243934" lon="9.223087567194712"><ele>773.0</ele><time>2026-04-19T08:42:19Z</time></trkpt><trkpt lat="44.515382760026" lon="9.223290659888495"><ele>773.0</ele><time>2026-04-19T08:42:21Z</time></trkpt><trkpt lat="44.515458921817995" lon="9.223392285539013"><ele>773.2</ele><time>2026-04-19T08:42:22Z</time></trkpt><trkpt lat="44.515542790617545" lon="9.223467877288984"><ele>773.4</ele><time>2026-04-19T08:42:23Z</time></trkpt><trkpt lat="44.515654031144464" lon="9.223529394708699"><ele>773.6</ele><time>2026-04-19T08:42:24Z</time></trkpt><trkpt lat="44.51574579521567" lon="9.223586863098241"><ele>773.8000000000001</ele><time>2026-04-19T08:42:25Z</time></trkpt><trkpt lat="44.515803091386104" lon="9.223669743676517"><ele>774.0</ele><time>2026-04-19T08:42:26Z</time></trkpt><trkpt lat="44.515809345291395" lon="9.223781838241562"><ele>774.0</ele><time>2026-04-19T08:42:27Z</time></trkpt><trkpt lat="44.5157780334799" lon="9.223910089840484"><ele>774.0</ele><time>2026-04-19T08:42:28Z</time></trkpt><trkpt lat="44.51576497334273" lon="9.224083440554068"><ele>774.0</ele><time>2026-04-19T08:42:29Z</time></trkpt><trkpt lat="44.51578619623311" lon="9.22426696582566"><ele>774.0</ele><time>2026-04-19T08:42:30Z</time></trkpt><trkpt lat="44.51581602825243" lon="9.2244471485776"><ele>769.75</ele><time>2026-04-19T08:42:31Z</time></trkpt><trkpt lat="44.515862308643214" lon="9.224581197109597"><ele>765.5</ele><time>2026-04-19T08:42:32Z</time></trkpt><trkpt lat="44.51596483637688" lon="9.224666767656354"><ele>761.25</ele><time>2026-04-19T08:42:33Z</time></trkpt><trkpt lat="44.516092301529206" lon="9.22473903046578"><ele>757.0</ele><time>2026-04-19T08:42:34Z</time></trkpt><trkpt lat="44.516238411138715" lon="9.224798015376626"><ele>761.4000000000001</ele><time>2026-04-19T08:42:35Z</time></trkpt><trkpt lat="44.516362498320596" lon="9.224824446001623"><ele>765.8000000000001</ele><time>2026-04-19T08:42:36Z</time></trkpt><trkpt lat="44.51647557191744" lon="9.224806897924884"><ele>770.2</ele><time>2026-04-19T08:42:37Z</time></trkpt><trkpt lat="44.51657780521657" lon="9.224824182027039"><ele>774.6</ele><time>2026-04-19T08:42:38Z</time></trkpt><trkpt lat="44.51665381461184" lon="9.224914870936349"><ele>779.0</ele><time>2026-04-19T08:42:39Z</time></trkpt><trkpt lat="44.51667551652064" lon="9.225050413371383"><ele>779.0</ele><time>2026-04-19T08:42:40Z</time></trkpt><trkpt lat="44.51663972921896" lon="9.22519963886825"><ele>779.0</ele><time>2026-04-19T08:42:41Z</time></trkpt><trkpt lat="44.51655039453513" lon="9.225367724941298"><ele>779.0</ele><time>2026-04-19T08:42:42Z</time></trkpt><trkpt lat="44.516491154430206" lon="9.225549616281683"><ele>779.0</ele><time>2026-04-19T08:42:43Z</time></trkpt><trkpt lat="44.51641954075476" lon="9.22573375613268"><ele>777.6666666666667</ele><time>2026-04-19T08:42:44Z</time></trkpt><trkpt lat="44.516363472950204" lon="9.22595520877857"><ele>776.3333333333333</ele><time>2026-04-19T08:42:45Z</time></trkpt><trkpt lat="44.5163213380983" lon="9.22619991813232"><ele>775.0</ele><time>2026-04-19T08:42:46Z</time></trkpt><trkpt lat="44.51631531328025" lon="9.226446269003477"><ele>777.6666666666666</ele><time>2026-04-19T08:42:47Z</time></trkpt><trkpt lat="44.516305766904075" lon="9.226667345353919"><ele>780.3333333333333</ele><time>2026-04-19T08:42:48Z</time></trkpt><trkpt lat="44.51626251059288" lon="9.226874389880862"><ele>783.0</ele><time>2026-04-19T08:42:49Z</time></trkpt><trkpt lat="44.5161980956155" lon="9.22708827583526"><ele>767.0</ele><time>2026-04-19T08:42:50Z</time></trkpt><trkpt lat="44.516129427747224" lon="9.227340381454862"><ele>751.0</ele><time>2026-04-19T08:42:51Z</time></trkpt><trkpt lat="44.51605186939202" lon="9.227578512886078"><ele>735.0</ele><time>2026-04-19T08:42:52Z</time></trkpt><trkpt lat="44.51600497573202" lon="9.227833262073508"><ele>735.0</ele><time>2026-04-19T08:42:53Z</time></trkpt><trkpt lat="44.51595109664011" lon="9.22806332552467"><ele>735.0</ele><time>2026-04-19T08:42:54Z</time></trkpt><trkpt lat="44.51589610866792" lon="9.22826570607456"><ele>735.0</ele><time>2026-04-19T08:42:55Z</time></trkpt><trkpt lat="44.51586537516095" lon="9.228428331226064"><ele>735.0</ele><time>2026-04-19T08:42:56Z</time></trkpt><trkpt lat="44.515840589985196" lon="9.228561697869214"><ele>734.75</ele><time>2026-04-19T08:42:57Z</time></trkpt><trkpt lat="44.515819870476854" lon="9.228693868071963"><ele>734.5</ele><time>2026-04-19T08:42:57.999Z</time></trkpt><trkpt lat="44.51581786106755" lon="9.228851699744025"><ele>734.25</ele><time>2026-04-19T08:42:58.999Z</time></trkpt><trkpt lat="44.51587120038459" lon="9.229128332060922"><ele>734.0</ele><time>2026-04-19T08:42:59.999Z</time></trkpt><trkpt lat="44.51593847566321" lon="9.229320174035706"><ele>734.0</ele><time>2026-04-19T08:43:00.999Z</time></trkpt><trkpt lat="44.51599489705756" lon="9.229478431234352"><ele>734.0</ele><time>2026-04-19T08:43:01.999Z</time></trkpt><trkpt lat="44.51606153270618" lon="9.22961512578673"><ele>734.0</ele><time>2026-04-19T08:43:02.999Z</time></trkpt><trkpt lat="44.51616123151645" lon="9.229709518654412"><ele>734.0</ele><time>2026-04-19T08:43:03.999Z</time></trkpt><trkpt lat="44.51629378457545" lon="9.229780402350368"><ele>743.0</ele><time>2026-04-19T08:43:04.999Z</time></trkpt><trkpt lat="44.51643569023496" lon="9.229805202796612"><ele>752.0</ele><time>2026-04-19T08:43:05.999Z</time></trkpt><trkpt lat="44.51659605854919" lon="9.229784063218354"><ele>761.0</ele><time>2026-04-19T08:43:06.999Z</time></trkpt><trkpt lat="44.51676145596588" lon="9.229714745364985"><ele>761.0</ele><time>2026-04-19T08:43:07.999Z</time></trkpt><trkpt lat="44.51692460480243" lon="9.229627972811745"><ele>761.0</ele><time>2026-04-19T08:43:08.999Z</time></trkpt><trkpt lat="44.51710036572504" lon="9.229558631626757"><ele>761.0</ele><time>2026-04-19T08:43:09.999Z</time></trkpt><trkpt lat="44.517298470469335" lon="9.229560153968018"><ele>759.0</ele><time>2026-04-19T08:43:10.999Z</time></trkpt><trkpt lat="44.51751244175886" lon="9.229558902205058"><ele>757.0</ele><time>2026-04-19T08:43:11.999Z</time></trkpt><trkpt lat="44.51772059827838" lon="9.229567086683268"><ele>755.0</ele><time>2026-04-19T08:43:12.999Z</time></trkpt><trkpt lat="44.517903558357226" lon="9.229540870094924"><ele>749.6666666666666</ele><time>2026-04-19T08:43:13.999Z</time></trkpt><trkpt lat="44.518062615355255" lon="9.229503029823418"><ele>744.3333333333334</ele><time>2026-04-19T08:43:14.999Z</time></trkpt><trkpt lat="44.51822817003892" lon="9.22952689831727"><ele>739.0</ele><time>2026-04-19T08:43:15.999Z</time></trkpt><trkpt lat="44.518387722212715" lon="9.229591020364714"><ele>739.0</ele><time>2026-04-19T08:43:16.999Z</time></trkpt><trkpt lat="44.51857836225306" lon="9.22968417856881"><ele>739.0</ele><time>2026-04-19T08:43:17.999Z</time></trkpt><trkpt lat="44.518784028031455" lon="9.229784810805372"><ele>739.0</ele><time>2026-04-19T08:43:18.999Z</time></trkpt><trkpt lat="44.519001566035435" lon="9.229891905904312"><ele>733.6666666666667</ele><time>2026-04-19T08:43:19.999Z</time></trkpt><trkpt lat="44.51920413154997" lon="9.229991179060988"><ele>728.3333333333334</ele><time>2026-04-19T08:43:20.999Z</time></trkpt><trkpt lat="44.519386451401736" lon="9.230080047689313"><ele>723.0</ele><time>2026-04-19T08:43:21.999Z</time></trkpt><trkpt lat="44.51955587225584" lon="9.230162012909332"><ele>731.0</ele><time>2026-04-19T08:43:22.999Z</time></trkpt><trkpt lat="44.51971490302754" lon="9.230247323793547"><ele>739.0</ele><time>2026-04-19T08:43:23.999Z</time></trkpt><trkpt lat="44.51986004072466" lon="9.230364802850373"><ele>747.0</ele><time>2026-04-19T08:43:24.999Z</time></trkpt><trkpt lat="44.520005358400944" lon="9.230539254150505"><ele>745.0</ele><time>2026-04-19T08:43:25.999Z</time></trkpt><trkpt lat="44.52014066714372" lon="9.230763468348682"><ele>743.0</ele><time>2026-04-19T08:43:26.999Z</time></trkpt><trkpt lat="44.52028626504025" lon="9.230961663378046"><ele>741.0</ele><time>2026-04-19T08:43:27.999Z</time></trkpt><trkpt lat="44.52042395428793" lon="9.231121677968408"><ele>741.0</ele><time>2026-04-19T08:43:28.999Z</time></trkpt><trkpt lat="44.52054615158278" lon="9.231285759789309"><ele>741.0</ele><time>2026-04-19T08:43:29.999Z</time></trkpt><trkpt lat="44.520675758238944" lon="9.231443154882598"><ele>741.0</ele><time>2026-04-19T08:43:30.999Z</time></trkpt><trkpt lat="44.52081843663381" lon="9.231582723493522"><ele>736.3333333333334</ele><time>2026-04-19T08:43:31.999Z</time></trkpt><trkpt lat="44.52098304890455" lon="9.231688796712847"><ele>731.6666666666667</ele><time>2026-04-19T08:43:32.999Z</time></trkpt><trkpt lat="44.52112674678829" lon="9.23178980070101"><ele>727.0</ele><time>2026-04-19T08:43:33.999Z</time></trkpt><trkpt lat="44.52126449249157" lon="9.231925276248957"><ele>727.0</ele><time>2026-04-19T08:43:34.999Z</time></trkpt><trkpt lat="44.52139200825344" lon="9.232094564987234"><ele>727.0</ele><time>2026-04-19T08:43:35.999Z</time></trkpt><trkpt lat="44.521499016455294" lon="9.232250873007159"><ele>727.0</ele><time>2026-04-19T08:43:36.999Z</time></trkpt><trkpt lat="44.521594523645675" lon="9.232402037470425"><ele>722.0</ele><time>2026-04-19T08:43:37.999Z</time></trkpt><trkpt lat="44.52165988403765" lon="9.232562916572117"><ele>717.0</ele><time>2026-04-19T08:43:38.999Z</time></trkpt><trkpt lat="44.52170023177222" lon="9.232759865811039"><ele>712.0</ele><time>2026-04-19T08:43:39.999Z</time></trkpt><trkpt lat="44.52172748845805" lon="9.232972798698976"><ele>707.0</ele><time>2026-04-19T08:43:40.999Z</time></trkpt><trkpt lat="44.521759828795375" lon="9.23321153583515"><ele>705.5</ele><time>2026-04-19T08:43:41.999Z</time></trkpt><trkpt lat="44.52178608427815" lon="9.233441661618146"><ele>704.0</ele><time>2026-04-19T08:43:42.999Z</time></trkpt><trkpt lat="44.52180011841998" lon="9.233639184494432"><ele>702.5</ele><time>2026-04-19T08:43:43.999Z</time></trkpt><trkpt lat="44.52181174883179" lon="9.233833557754883"><ele>701.0</ele><time>2026-04-19T08:43:44.999Z</time></trkpt><trkpt lat="44.52184025045657" lon="9.2340119806703"><ele>702.75</ele><time>2026-04-19T08:43:45.999Z</time></trkpt><trkpt lat="44.52186369388778" lon="9.234196057465045"><ele>704.5</ele><time>2026-04-19T08:43:46.999Z</time></trkpt><trkpt lat="44.52195148118506" lon="9.234360308467224"><ele>706.25</ele><time>2026-04-19T08:43:47.999Z</time></trkpt><trkpt lat="44.52206896927785" lon="9.234514847395287"><ele>708.0</ele><time>2026-04-19T08:43:48.999Z</time></trkpt><trkpt lat="44.52221683590931" lon="9.23468685254849"><ele>701.6666666666666</ele><time>2026-04-19T08:43:49.999Z</time></trkpt><trkpt lat="44.5223467842128" lon="9.234868913735474"><ele>695.3333333333333</ele><time>2026-04-19T08:43:50.999Z</time></trkpt><trkpt lat="44.52248688098686" lon="9.235034941654986"><ele>689.0</ele><time>2026-04-19T08:43:52Z</time></trkpt><trkpt lat="44.52264760621659" lon="9.235200503832127"><ele>689.0</ele><time>2026-04-19T08:43:53Z</time></trkpt><trkpt lat="44.52281530589464" lon="9.235338849118582"><ele>689.0</ele><time>2026-04-19T08:43:54Z</time></trkpt><trkpt lat="44.52299510652137" lon="9.235455592118994"><ele>689.0</ele><time>2026-04-19T08:43:55Z</time></trkpt><trkpt lat="44.523190423785714" lon="9.235530618788985"><ele>689.6666666666666</ele><time>2026-04-19T08:43:56Z</time></trkpt><trkpt lat="44.523381043749076" lon="9.235625209983192"><ele>690.3333333333334</ele><time>2026-04-19T08:43:57Z</time></trkpt><trkpt lat="44.523582955959945" lon="9.235697341325599"><ele>691.0</ele><time>2026-04-19T08:43:58Z</time></trkpt><trkpt lat="44.52378770543741" lon="9.235770952749109"><ele>691.0</ele><time>2026-04-19T08:43:59Z</time></trkpt><trkpt lat="44.5239727695243" lon="9.235838407500271"><ele>691.0</ele><time>2026-04-19T08:44:00Z</time></trkpt><trkpt lat="44.52414523910104" lon="9.235900627750487"><ele>691.0</ele><time>2026-04-19T08:44:01Z</time></trkpt><trkpt lat="44.52431591837667" lon="9.235961760918066"><ele>691.0</ele><time>2026-04-19T08:44:02Z</time></trkpt><trkpt lat="44.52447556700526" lon="9.236018405249"><ele>691.0</ele><time>2026-04-19T08:44:03Z</time></trkpt><trkpt lat="44.524630544465154" lon="9.236072765576365"><ele>691.0</ele><time>2026-04-19T08:44:04Z</time></trkpt><trkpt lat="44.52477756723118" lon="9.23613177842952"><ele>693.5</ele><time>2026-04-19T08:44:05Z</time></trkpt><trkpt lat="44.52490328338861" lon="9.236199203133635"><ele>696.0</ele><time>2026-04-19T08:44:06Z</time></trkpt><trkpt lat="44.5250080221646" lon="9.236293607736565"><ele>698.5</ele><time>2026-04-19T08:44:07Z</time></trkpt><trkpt lat="44.525110832401474" lon="9.236420441126267"><ele>701.0</ele><time>2026-04-19T08:44:08Z</time></trkpt><trkpt lat="44.52521314394651" lon="9.236605609000584"><ele>698.6666666666666</ele><time>2026-04-19T08:44:09Z</time></trkpt><trkpt lat="44.52530021853682" lon="9.236771294910804"><ele>696.3333333333334</ele><time>2026-04-19T08:44:10Z</time></trkpt><trkpt lat="44.525388180444175" lon="9.23693051532399"><ele>694.0</ele><time>2026-04-19T08:44:11Z</time></trkpt><trkpt lat="44.52550325708629" lon="9.237106982911302"><ele>694.0</ele><time>2026-04-19T08:44:12Z</time></trkpt><trkpt lat="44.52565155291174" lon="9.23725752598155"><ele>694.0</ele><time>2026-04-19T08:44:13Z</time></trkpt><trkpt lat="44.52580790886715" lon="9.23735904758425"><ele>694.0</ele><time>2026-04-19T08:44:14Z</time></trkpt><trkpt lat="44.52592808170481" lon="9.23751571067059"><ele>696.3333333333334</ele><time>2026-04-19T08:44:15Z</time></trkpt><trkpt lat="44.52603912065253" lon="9.237681315780927"><ele>698.6666666666666</ele><time>2026-04-19T08:44:16Z</time></trkpt><trkpt lat="44.526148201928336" lon="9.23785086723798"><ele>701.0</ele><time>2026-04-19T08:44:17Z</time></trkpt><trkpt lat="44.526239007658326" lon="9.23800024457103"><ele>698.75</ele><time>2026-04-19T08:44:18Z</time></trkpt><trkpt lat="44.52631386459778" lon="9.238150424325937"><ele>696.5</ele><time>2026-04-19T08:44:19Z</time></trkpt><trkpt lat="44.52635410520131" lon="9.238312887631322"><ele>694.25</ele><time>2026-04-19T08:44:20Z</time></trkpt><trkpt lat="44.526383353444" lon="9.23848928609457"><ele>692.0</ele><time>2026-04-19T08:44:21Z</time></trkpt><trkpt lat="44.52638685253544" lon="9.23869427649969"><ele>692.0</ele><time>2026-04-19T08:44:22Z</time></trkpt><trkpt lat="44.52637016282476" lon="9.238886707262358"><ele>692.0</ele><time>2026-04-19T08:44:23Z</time></trkpt><trkpt lat="44.52629539954861" lon="9.239074369276967"><ele>692.0</ele><time>2026-04-19T08:44:24Z</time></trkpt><trkpt lat="44.52622515071626" lon="9.239275464924052"><ele>686.75</ele><time>2026-04-19T08:44:25Z</time></trkpt><trkpt lat="44.52615537113194" lon="9.23944667203741"><ele>681.5</ele><time>2026-04-19T08:44:26Z</time></trkpt><trkpt lat="44.526081984793805" lon="9.239634469144812"><ele>676.25</ele><time>2026-04-19T08:44:27Z</time></trkpt><trkpt lat="44.52603327197955" lon="9.239788894073637"><ele>671.0</ele><time>2026-04-19T08:44:28Z</time></trkpt><trkpt lat="44.525997615448574" lon="9.239942152836308"><ele>670.0</ele><time>2026-04-19T08:44:29Z</time></trkpt><trkpt lat="44.52599536885906" lon="9.240112844438011"><ele>669.0</ele><time>2026-04-19T08:44:30Z</time></trkpt><trkpt lat="44.5260351154391" lon="9.240305222639622"><ele>668.0</ele><time>2026-04-19T08:44:31Z</time></trkpt><trkpt lat="44.526078294064995" lon="9.240513822193885"><ele>667.0</ele><time>2026-04-19T08:44:32Z</time></trkpt><trkpt lat="44.52613456041339" lon="9.240735276675071"><ele>667.25</ele><time>2026-04-19T08:44:33Z</time></trkpt><trkpt lat="44.52618508602958" lon="9.24094666423443"><ele>667.5</ele><time>2026-04-19T08:44:34Z</time></trkpt><trkpt lat="44.526244056890285" lon="9.24111377410424"><ele>667.75</ele><time>2026-04-19T08:44:35Z</time></trkpt><trkpt lat="44.52626786315652" lon="9.241285809164582"><ele>668.0</ele><time>2026-04-19T08:44:36Z</time></trkpt><trkpt lat="44.526293948737575" lon="9.241440982733561"><ele>670.5</ele><time>2026-04-19T08:44:37Z</time></trkpt><trkpt lat="44.526318131438636" lon="9.241609329680797"><ele>673.0</ele><time>2026-04-19T08:44:38Z</time></trkpt><trkpt lat="44.52626411849162" lon="9.241817802842501"><ele>675.5</ele><time>2026-04-19T08:44:39Z</time></trkpt><trkpt lat="44.52624991887629" lon="9.242030511433873"><ele>678.0</ele><time>2026-04-19T08:44:40Z</time></trkpt><trkpt lat="44.526229878433746" lon="9.24222052389917"><ele>674.5</ele><time>2026-04-19T08:44:41Z</time></trkpt><trkpt lat="44.52621165414737" lon="9.242401477040216"><ele>671.0</ele><time>2026-04-19T08:44:42Z</time></trkpt><trkpt lat="44.52619452293803" lon="9.242590341228798"><ele>667.5</ele><time>2026-04-19T08:44:43Z</time></trkpt><trkpt lat="44.526159641403254" lon="9.242773199218684"><ele>664.0</ele><time>2026-04-19T08:44:44Z</time></trkpt><trkpt lat="44.52613284212386" lon="9.242951225993085"><ele>664.0</ele><time>2026-04-19T08:44:45Z</time></trkpt><trkpt lat="44.52610552270955" lon="9.243117936793732"><ele>664.0</ele><time>2026-04-19T08:44:46Z</time></trkpt><trkpt lat="44.526028904801535" lon="9.243263987994682"><ele>664.0</ele><time>2026-04-19T08:44:47Z</time></trkpt><trkpt lat="44.52593263168565" lon="9.243382566879838"><ele>664.0</ele><time>2026-04-19T08:44:48Z</time></trkpt><trkpt lat="44.52584953319456" lon="9.243523182391662"><ele>665.6666666666667</ele><time>2026-04-19T08:44:49Z</time></trkpt><trkpt lat="44.52579659547891" lon="9.24371066067118"><ele>667.3333333333334</ele><time>2026-04-19T08:44:50Z</time></trkpt><trkpt lat="44.525739825053975" lon="9.243932136505084"><ele>669.0</ele><time>2026-04-19T08:44:51Z</time></trkpt><trkpt lat="44.52568640434041" lon="9.244143273448374"><ele>670.75</ele><time>2026-04-19T08:44:52Z</time></trkpt><trkpt lat="44.52562552717481" lon="9.244331628918165"><ele>672.5</ele><time>2026-04-19T08:44:53Z</time></trkpt><trkpt lat="44.525583697838954" lon="9.244485896474252"><ele>674.25</ele><time>2026-04-19T08:44:54Z</time></trkpt><trkpt lat="44.525540490264014" lon="9.244630792534513"><ele>676.0</ele><time>2026-04-19T08:44:55Z</time></trkpt><trkpt lat="44.525495843645416" lon="9.244774318338392"><ele>677.25</ele><time>2026-04-19T08:44:56Z</time></trkpt><trkpt lat="44.52544974858662" lon="9.24492792882136"><ele>678.5</ele><time>2026-04-19T08:44:57Z</time></trkpt><trkpt lat="44.525405271542446" lon="9.24508985355819"><ele>679.75</ele><time>2026-04-19T08:44:58Z</time></trkpt><trkpt lat="44.52535949747138" lon="9.245267077759888"><ele>681.0</ele><time>2026-04-19T08:44:59Z</time></trkpt><trkpt lat="44.52532284429656" lon="9.245495107265059"><ele>675.5</ele><time>2026-04-19T08:45:00Z</time></trkpt><trkpt lat="44.52530231606949" lon="9.245724975341107"><ele>670.0</ele><time>2026-04-19T08:45:01Z</time></trkpt><trkpt lat="44.52529362823967" lon="9.245912544984924"><ele>664.5</ele><time>2026-04-19T08:45:02Z</time></trkpt><trkpt lat="44.52526638380774" lon="9.246090466094913"><ele>659.0</ele><time>2026-04-19T08:45:02.999Z</time></trkpt><trkpt lat="44.52523074795702" lon="9.246263412008913"><ele>659.0</ele><time>2026-04-19T08:45:03.999Z</time></trkpt><trkpt lat="44.525198619414816" lon="9.246415903693991"><ele>659.0</ele><time>2026-04-19T08:45:04.999Z</time></trkpt><trkpt lat="44.52516692895341" lon="9.246550439175307"><ele>659.0</ele><time>2026-04-19T08:45:05.999Z</time></trkpt><trkpt lat="44.5251745667873" lon="9.246693609354192"><ele>659.0</ele><time>2026-04-19T08:45:06.999Z</time></trkpt><trkpt lat="44.525217645174905" lon="9.246852121053163"><ele>659.0</ele><time>2026-04-19T08:45:07.999Z</time></trkpt><trkpt lat="44.52527071878713" lon="9.247005681877706"><ele>659.4000000000001</ele><time>2026-04-19T08:45:08.999Z</time></trkpt><trkpt lat="44.525330320577815" lon="9.247125749896272"><ele>659.8</ele><time>2026-04-19T08:45:09.999Z</time></trkpt><trkpt lat="44.5253921161002" lon="9.247243396137636"><ele>660.2</ele><time>2026-04-19T08:45:10.999Z</time></trkpt><trkpt lat="44.52544610408161" lon="9.24736202531217"><ele>660.5999999999999</ele><time>2026-04-19T08:45:11.999Z</time></trkpt><trkpt lat="44.52549765915444" lon="9.247454005053315"><ele>661.0</ele><time>2026-04-19T08:45:12.999Z</time></trkpt><trkpt lat="44.525550471007655" lon="9.247548227747794"><ele>662.1999999999999</ele><time>2026-04-19T08:45:13.999Z</time></trkpt><trkpt lat="44.52560375519155" lon="9.247645926634059"><ele>663.4</ele><time>2026-04-19T08:45:14.999Z</time></trkpt><trkpt lat="44.52564925174524" lon="9.247734095116373"><ele>664.6</ele><time>2026-04-19T08:45:15.999Z</time></trkpt><trkpt lat="44.525713688844114" lon="9.24786896141288"><ele>665.8</ele><time>2026-04-19T08:45:17.999Z</time></trkpt><trkpt lat="44.525778141584425" lon="9.247971729891194"><ele>667.0</ele><time>2026-04-19T08:45:19.999Z</time></trkpt><trkpt lat="44.52580990390391" lon="9.248081030937048"><ele>667.0</ele><time>2026-04-19T08:45:22.999Z</time></trkpt><trkpt lat="44.52587684020187" lon="9.248079357700473"><ele>667.0</ele><time>2026-04-19T08:48:04Z</time></trkpt><trkpt lat="44.52593858302175" lon="9.248137309213522"><ele>667.0</ele><time>2026-04-19T08:48:11Z</time></trkpt><trkpt lat="44.52589803489843" lon="9.24806024784446"><ele>667.0</ele><time>2026-04-19T08:51:48Z</time></trkpt><trkpt lat="44.52591258717595" lon="9.247963804955955"><ele>667.0</ele><time>2026-04-19T08:51:53Z</time></trkpt><trkpt lat="44.525907649806804" lon="9.248064572896554"><ele>667.0</ele><time>2026-04-19T08:56:29Z</time></trkpt><trkpt lat="44.525994529416856" lon="9.248216067071645"><ele>666.2</ele><time>2026-04-19T08:56:31Z</time></trkpt><trkpt lat="44.52603566546823" lon="9.248332176427306"><ele>665.4000000000001</ele><time>2026-04-19T08:56:32Z</time></trkpt><trkpt lat="44.52601664291993" lon="9.248502353145122"><ele>664.5999999999999</ele><time>2026-04-19T08:56:33Z</time></trkpt><trkpt lat="44.52606834622123" lon="9.2486094745742"><ele>663.8</ele><time>2026-04-19T08:56:34Z</time></trkpt><trkpt lat="44.526123613311434" lon="9.248723979500287"><ele>663.0</ele><time>2026-04-19T08:56:35Z</time></trkpt><trkpt lat="44.52618302007705" lon="9.24884743525418"><ele>663.4</ele><time>2026-04-19T08:56:36Z</time></trkpt><trkpt lat="44.526232639426915" lon="9.248951560011038"><ele>663.8</ele><time>2026-04-19T08:56:37Z</time></trkpt><trkpt lat="44.52627752756364" lon="9.249045756693633"><ele>664.2</ele><time>2026-04-19T08:56:38Z</time></trkpt><trkpt lat="44.52632765436289" lon="9.249146559371502"><ele>664.6</ele><time>2026-04-19T08:56:39Z</time></trkpt><trkpt lat="44.52638652325388" lon="9.249260717849369"><ele>665.0</ele><time>2026-04-19T08:56:40Z</time></trkpt><trkpt lat="44.526487730881975" lon="9.249403131500527"><ele>665.0</ele><time>2026-04-19T08:56:41Z</time></trkpt><trkpt lat="44.526580705622955" lon="9.249543232659963"><ele>665.0</ele><time>2026-04-19T08:56:42Z</time></trkpt><trkpt lat="44.52666163457873" lon="9.249665285247138"><ele>665.0</ele><time>2026-04-19T08:56:43Z</time></trkpt><trkpt lat="44.5267375661406" lon="9.24977800121073"><ele>665.0</ele><time>2026-04-19T08:56:44Z</time></trkpt><trkpt lat="44.526818179935944" lon="9.249894876295185"><ele>665.25</ele><time>2026-04-19T08:56:45Z</time></trkpt><trkpt lat="44.52690931047189" lon="9.25002603347477"><ele>665.5</ele><time>2026-04-19T08:56:46Z</time></trkpt><trkpt lat="44.527010032179916" lon="9.250170994686382"><ele>665.75</ele><time>2026-04-19T08:56:47Z</time></trkpt><trkpt lat="44.52709921851021" lon="9.25029905818495"><ele>666.0</ele><time>2026-04-19T08:56:48Z</time></trkpt><trkpt lat="44.52718510674294" lon="9.25041874396159"><ele>666.0</ele><time>2026-04-19T08:56:49Z</time></trkpt><trkpt lat="44.52727344183981" lon="9.25054446223222"><ele>666.0</ele><time>2026-04-19T08:56:50Z</time></trkpt><trkpt lat="44.52736630941202" lon="9.25067906052704"><ele>666.0</ele><time>2026-04-19T08:56:51Z</time></trkpt><trkpt lat="44.527471414067406" lon="9.250808004367673"><ele>666.0</ele><time>2026-04-19T08:56:52Z</time></trkpt><trkpt lat="44.527581677134286" lon="9.250913828489276"><ele>663.5</ele><time>2026-04-19T08:56:53Z</time></trkpt><trkpt lat="44.527710679995984" lon="9.251016787805787"><ele>661.0</ele><time>2026-04-19T08:56:54Z</time></trkpt><trkpt lat="44.52783886335186" lon="9.251128574640664"><ele>658.5</ele><time>2026-04-19T08:56:55Z</time></trkpt><trkpt lat="44.52794039711671" lon="9.251237309728621"><ele>656.0</ele><time>2026-04-19T08:56:56Z</time></trkpt><trkpt lat="44.52801999859424" lon="9.251346147154415"><ele>660.5</ele><time>2026-04-19T08:56:57Z</time></trkpt><trkpt lat="44.52809927869469" lon="9.251473553420526"><ele>665.0</ele><time>2026-04-19T08:56:58Z</time></trkpt><trkpt lat="44.52816513334176" lon="9.251625972055983"><ele>669.5</ele><time>2026-04-19T08:56:59Z</time></trkpt><trkpt lat="44.52822062735006" lon="9.251793627899914"><ele>674.0</ele><time>2026-04-19T08:57:00Z</time></trkpt><trkpt lat="44.52826648371325" lon="9.251960293451424"><ele>674.0</ele><time>2026-04-19T08:57:01Z</time></trkpt><trkpt lat="44.52828711438729" lon="9.25213814835894"><ele>674.0</ele><time>2026-04-19T08:57:02Z</time></trkpt><trkpt lat="44.52829668284829" lon="9.252345915037196"><ele>674.0</ele><time>2026-04-19T08:57:03Z</time></trkpt><trkpt lat="44.52829339814261" lon="9.25257742807898"><ele>674.0</ele><time>2026-04-19T08:57:04Z</time></trkpt><trkpt lat="44.52828421557012" lon="9.252787789119214"><ele>673.5</ele><time>2026-04-19T08:57:05Z</time></trkpt><trkpt lat="44.528250280350115" lon="9.252955314389718"><ele>673.0</ele><time>2026-04-19T08:57:05.999Z</time></trkpt><trkpt lat="44.528186668244686" lon="9.253113573088031"><ele>672.5</ele><time>2026-04-19T08:57:06.999Z</time></trkpt><trkpt lat="44.52808340066318" lon="9.253297046949017"><ele>672.0</ele><time>2026-04-19T08:57:07.999Z</time></trkpt><trkpt lat="44.52796860388289" lon="9.253505912863558"><ele>667.0</ele><time>2026-04-19T08:57:08.999Z</time></trkpt><trkpt lat="44.527853812272916" lon="9.253714769188324"><ele>662.0</ele><time>2026-04-19T08:57:09.999Z</time></trkpt><trkpt lat="44.52774120545239" lon="9.253921970969508"><ele>657.0</ele><time>2026-04-19T08:57:10.999Z</time></trkpt><trkpt lat="44.527641403081624" lon="9.254107931439453"><ele>657.0</ele><time>2026-04-19T08:57:11.999Z</time></trkpt><trkpt lat="44.5275416863603" lon="9.254290351724256"><ele>657.0</ele><time>2026-04-19T08:57:12.999Z</time></trkpt><trkpt lat="44.52743781528957" lon="9.254480372150985"><ele>657.0</ele><time>2026-04-19T08:57:13.999Z</time></trkpt><trkpt lat="44.52733039637538" lon="9.25467688262985"><ele>656.0</ele><time>2026-04-19T08:57:14.999Z</time></trkpt><trkpt lat="44.52723236082934" lon="9.25489277448608"><ele>655.0</ele><time>2026-04-19T08:57:15.999Z</time></trkpt><trkpt lat="44.52711748319734" lon="9.255095021646204"><ele>654.0</ele><time>2026-04-19T08:57:16.999Z</time></trkpt><trkpt lat="44.527008335279994" lon="9.255296326911349"><ele>654.0</ele><time>2026-04-19T08:57:17.999Z</time></trkpt><trkpt lat="44.526911224683246" lon="9.255487206545261"><ele>654.0</ele><time>2026-04-19T08:57:18.999Z</time></trkpt><trkpt lat="44.526824043950306" lon="9.255670694971581"><ele>654.0</ele><time>2026-04-19T08:57:19.999Z</time></trkpt><trkpt lat="44.52673436926186" lon="9.255870908423624"><ele>656.0</ele><time>2026-04-19T08:57:20.999Z</time></trkpt><trkpt lat="44.526641822496444" lon="9.25607495804217"><ele>658.0</ele><time>2026-04-19T08:57:21.999Z</time></trkpt><trkpt lat="44.52656019048383" lon="9.256257126935926"><ele>660.0</ele><time>2026-04-19T08:57:22.999Z</time></trkpt><trkpt lat="44.52648056691513" lon="9.256423474391767"><ele>662.3333333333334</ele><time>2026-04-19T08:57:23.999Z</time></trkpt><trkpt lat="44.526419147843974" lon="9.256637881210784"><ele>664.6666666666667</ele><time>2026-04-19T08:57:24.999Z</time></trkpt><trkpt lat="44.52637465861767" lon="9.256885187263512"><ele>667.0</ele><time>2026-04-19T08:57:25.999Z</time></trkpt><trkpt lat="44.526351380718424" lon="9.257129064034851"><ele>668.0</ele><time>2026-04-19T08:57:26.999Z</time></trkpt><trkpt lat="44.52636218265497" lon="9.257359768589884"><ele>669.0</ele><time>2026-04-19T08:57:27.999Z</time></trkpt><trkpt lat="44.52639896279704" lon="9.257599083485493"><ele>670.0</ele><time>2026-04-19T08:57:28.999Z</time></trkpt><trkpt lat="44.52645654167801" lon="9.257825972374897"><ele>670.0</ele><time>2026-04-19T08:57:29.999Z</time></trkpt><trkpt lat="44.52654127626399" lon="9.258054130473857"><ele>670.0</ele><time>2026-04-19T08:57:30.999Z</time></trkpt><trkpt lat="44.526648839748006" lon="9.258262895320819"><ele>670.0</ele><time>2026-04-19T08:57:31.999Z</time></trkpt><trkpt lat="44.5267799228769" lon="9.258452362978414"><ele>666.0</ele><time>2026-04-19T08:57:32.999Z</time></trkpt><trkpt lat="44.52692340155547" lon="9.258613989438103"><ele>662.0</ele><time>2026-04-19T08:57:33.999Z</time></trkpt><trkpt lat="44.527074955195964" lon="9.258755567656534"><ele>658.0</ele><time>2026-04-19T08:57:34.999Z</time></trkpt><trkpt lat="44.527228969028954" lon="9.258864324291281"><ele>658.0</ele><time>2026-04-19T08:57:35.999Z</time></trkpt><trkpt lat="44.52738241492103" lon="9.258962459319282"><ele>658.0</ele><time>2026-04-19T08:57:36.999Z</time></trkpt><trkpt lat="44.52754606947124" lon="9.259066196392215"><ele>658.0</ele><time>2026-04-19T08:57:37.999Z</time></trkpt><trkpt lat="44.527709369969976" lon="9.259181195012475"><ele>658.0</ele><time>2026-04-19T08:57:38.999Z</time></trkpt><trkpt lat="44.527839481437915" lon="9.259336392977644"><ele>658.0</ele><time>2026-04-19T08:57:39.999Z</time></trkpt><trkpt lat="44.52795596686187" lon="9.259473983150864"><ele>658.0</ele><time>2026-04-19T08:57:40.999Z</time></trkpt><trkpt lat="44.52809154483877" lon="9.259616693183402"><ele>656.0</ele><time>2026-04-19T08:57:41.999Z</time></trkpt><trkpt lat="44.528212382321954" lon="9.259772276400142"><ele>654.0</ele><time>2026-04-19T08:57:42.999Z</time></trkpt><trkpt lat="44.52833243666919" lon="9.259896792199138"><ele>652.0</ele><time>2026-04-19T08:57:43.999Z</time></trkpt><trkpt lat="44.528456898751415" lon="9.260008386133876"><ele>652.0</ele><time>2026-04-19T08:57:44.999Z</time></trkpt><trkpt lat="44.528594142977205" lon="9.260091464212259"><ele>652.0</ele><time>2026-04-19T08:57:45.999Z</time></trkpt><trkpt lat="44.52874351662406" lon="9.260129437537488"><ele>652.0</ele><time>2026-04-19T08:57:46.999Z</time></trkpt><trkpt lat="44.52890528638286" lon="9.260166409870262"><ele>656.0</ele><time>2026-04-19T08:57:47.999Z</time></trkpt><trkpt lat="44.529068749256886" lon="9.260207623986568"><ele>660.0</ele><time>2026-04-19T08:57:48.999Z</time></trkpt><trkpt lat="44.529222909673805" lon="9.260274789613662"><ele>664.0</ele><time>2026-04-19T08:57:49.999Z</time></trkpt><trkpt lat="44.52935105413908" lon="9.260345459947953"><ele>664.0</ele><time>2026-04-19T08:57:50.999Z</time></trkpt><trkpt lat="44.5294732300831" lon="9.260408176281196"><ele>664.0</ele><time>2026-04-19T08:57:51.999Z</time></trkpt><trkpt lat="44.52959673423826" lon="9.26047668273549"><ele>664.0</ele><time>2026-04-19T08:57:52.999Z</time></trkpt><trkpt lat="44.529732922700994" lon="9.26049326174685"><ele>664.0</ele><time>2026-04-19T08:57:53.999Z</time></trkpt><trkpt lat="44.52987502761104" lon="9.260476630796525"><ele>660.0</ele><time>2026-04-19T08:57:54.999Z</time></trkpt><trkpt lat="44.53000579560031" lon="9.260439698671576"><ele>656.0</ele><time>2026-04-19T08:57:55.999Z</time></trkpt><trkpt lat="44.530126179421416" lon="9.260369445218124"><ele>652.0</ele><time>2026-04-19T08:57:56.999Z</time></trkpt><trkpt lat="44.53023961853518" lon="9.260253986385928"><ele>648.0</ele><time>2026-04-19T08:57:57.999Z</time></trkpt><trkpt lat="44.53033065334942" lon="9.260106295960453"><ele>647.75</ele><time>2026-04-19T08:57:58.999Z</time></trkpt><trkpt lat="44.53040511638109" lon="9.259948895482195"><ele>647.5</ele><time>2026-04-19T08:57:59.999Z</time></trkpt><trkpt lat="44.530452422333056" lon="9.259784099955528"><ele>647.25</ele><time>2026-04-19T08:58:00.999Z</time></trkpt><trkpt lat="44.53047574821587" lon="9.259593785983316"><ele>647.0</ele><time>2026-04-19T08:58:01.999Z</time></trkpt><trkpt lat="44.53046815287436" lon="9.259371548826973"><ele>647.0</ele><time>2026-04-19T08:58:02.999Z</time></trkpt><trkpt lat="44.53046058224291" lon="9.259122052155613"><ele>647.0</ele><time>2026-04-19T08:58:03.999Z</time></trkpt><trkpt lat="44.53044815644348" lon="9.258863855367046"><ele>647.0</ele><time>2026-04-19T08:58:04.999Z</time></trkpt><trkpt lat="44.53043700384858" lon="9.258617672536921"><ele>646.6666666666666</ele><time>2026-04-19T08:58:06Z</time></trkpt><trkpt lat="44.53042629546707" lon="9.258345467983528"><ele>646.3333333333334</ele><time>2026-04-19T08:58:07Z</time></trkpt><trkpt lat="44.53041869267625" lon="9.25808295755638"><ele>646.0</ele><time>2026-04-19T08:58:08Z</time></trkpt><trkpt lat="44.530419362359794" lon="9.25784551306843"><ele>645.6666666666667</ele><time>2026-04-19T08:58:09Z</time></trkpt><trkpt lat="44.530425124671716" lon="9.257612581871856"><ele>645.3333333333334</ele><time>2026-04-19T08:58:10Z</time></trkpt><trkpt lat="44.530435257245294" lon="9.25734970668356"><ele>645.0</ele><time>2026-04-19T08:58:11Z</time></trkpt><trkpt lat="44.530446684204215" lon="9.257118960199834"><ele>644.75</ele><time>2026-04-19T08:58:12Z</time></trkpt><trkpt lat="44.530457250673344" lon="9.25690808118366"><ele>644.5</ele><time>2026-04-19T08:58:13Z</time></trkpt><trkpt lat="44.53047207292998" lon="9.256699210775587"><ele>644.25</ele><time>2026-04-19T08:58:14Z</time></trkpt><trkpt lat="44.53051301874692" lon="9.256526139343366"><ele>644.0</ele><time>2026-04-19T08:58:15Z</time></trkpt><trkpt lat="44.530586339989576" lon="9.256314249976855"><ele>645.6666666666666</ele><time>2026-04-19T08:58:16Z</time></trkpt><trkpt lat="44.53066588569013" lon="9.25607905864797"><ele>647.3333333333334</ele><time>2026-04-19T08:58:17Z</time></trkpt><trkpt lat="44.530752446145705" lon="9.25584209526498"><ele>649.0</ele><time>2026-04-19T08:58:18Z</time></trkpt><trkpt lat="44.53084901511193" lon="9.255643817609482"><ele>655.0</ele><time>2026-04-19T08:58:19Z</time></trkpt><trkpt lat="44.53094745954176" lon="9.255462928932058"><ele>661.0</ele><time>2026-04-19T08:58:20Z</time></trkpt><trkpt lat="44.531060482950636" lon="9.25526018068471"><ele>667.0</ele><time>2026-04-19T08:58:21Z</time></trkpt><trkpt lat="44.53116578177401" lon="9.255080935832822"><ele>665.6666666666667</ele><time>2026-04-19T08:58:22Z</time></trkpt><trkpt lat="44.53127376487992" lon="9.254911551166481"><ele>664.3333333333334</ele><time>2026-04-19T08:58:23Z</time></trkpt><trkpt lat="44.53140044459167" lon="9.25474033436202"><ele>663.0</ele><time>2026-04-19T08:58:24Z</time></trkpt><trkpt lat="44.531551301347065" lon="9.254565301970016"><ele>663.0</ele><time>2026-04-19T08:58:25Z</time></trkpt><trkpt lat="44.53171529909559" lon="9.254421231527939"><ele>663.0</ele><time>2026-04-19T08:58:26Z</time></trkpt><trkpt lat="44.53185932645557" lon="9.254313931627873"><ele>663.0</ele><time>2026-04-19T08:58:27Z</time></trkpt><trkpt lat="44.532010426353786" lon="9.254235107495466"><ele>658.3333333333334</ele><time>2026-04-19T08:58:28Z</time></trkpt><trkpt lat="44.53216666556686" lon="9.254196814504109"><ele>653.6666666666667</ele><time>2026-04-19T08:58:29Z</time></trkpt><trkpt lat="44.53232142467834" lon="9.254192336606359"><ele>649.0</ele><time>2026-04-19T08:58:30Z</time></trkpt><trkpt lat="44.532473303233644" lon="9.254204858956705"><ele>649.0</ele><time>2026-04-19T08:58:31Z</time></trkpt><trkpt lat="44.532612172272735" lon="9.254217101374225"><ele>649.0</ele><time>2026-04-19T08:58:32Z</time></trkpt><trkpt lat="44.53274848164332" lon="9.254240097874007"><ele>649.0</ele><time>2026-04-19T08:58:33Z</time></trkpt><trkpt lat="44.53286361187254" lon="9.254314101325749"><ele>649.0</ele><time>2026-04-19T08:58:34Z</time></trkpt><trkpt lat="44.53298250274338" lon="9.254423342912915"><ele>647.3333333333334</ele><time>2026-04-19T08:58:35Z</time></trkpt><trkpt lat="44.53312016361069" lon="9.254541549089513"><ele>645.6666666666666</ele><time>2026-04-19T08:58:36Z</time></trkpt><trkpt lat="44.533255622103574" lon="9.254679111959089"><ele>644.0</ele><time>2026-04-19T08:58:37Z</time></trkpt><trkpt lat="44.53340973666172" lon="9.254825228436424"><ele>644.0</ele><time>2026-04-19T08:58:38Z</time></trkpt><trkpt lat="44.53356953500823" lon="9.254982434428058"><ele>644.0</ele><time>2026-04-19T08:58:39Z</time></trkpt><trkpt lat="44.53369461860663" lon="9.255153689941304"><ele>644.0</ele><time>2026-04-19T08:58:40Z</time></trkpt><trkpt lat="44.53380015985897" lon="9.25533491561108"><ele>647.75</ele><time>2026-04-19T08:58:41Z</time></trkpt><trkpt lat="44.533908936835154" lon="9.255504042976796"><ele>651.5</ele><time>2026-04-19T08:58:42Z</time></trkpt><trkpt lat="44.533988953445345" lon="9.25566758452866"><ele>655.25</ele><time>2026-04-19T08:58:43Z</time></trkpt><trkpt lat="44.5340256419244" lon="9.255835285035715"><ele>659.0</ele><time>2026-04-19T08:58:44Z</time></trkpt><trkpt lat="44.5340220533865" lon="9.25600453909029"><ele>659.0</ele><time>2026-04-19T08:58:45Z</time></trkpt><trkpt lat="44.533980296876" lon="9.256187579393542"><ele>659.0</ele><time>2026-04-19T08:58:46Z</time></trkpt><trkpt lat="44.53395984203728" lon="9.256393604800873"><ele>659.0</ele><time>2026-04-19T08:58:47Z</time></trkpt><trkpt lat="44.53394123084234" lon="9.256593898964448"><ele>659.0</ele><time>2026-04-19T08:58:48Z</time></trkpt><trkpt lat="44.53392698721463" lon="9.256832968521962"><ele>659.0</ele><time>2026-04-19T08:58:49Z</time></trkpt><trkpt lat="44.53389485105614" lon="9.257082193615568"><ele>659.0</ele><time>2026-04-19T08:58:50Z</time></trkpt><trkpt lat="44.533864013166365" lon="9.25729853220018"><ele>659.0</ele><time>2026-04-19T08:58:51Z</time></trkpt><trkpt lat="44.5338317502202" lon="9.257522992591339"><ele>659.0</ele><time>2026-04-19T08:58:52Z</time></trkpt><trkpt lat="44.53380608108552" lon="9.25773266323705"><ele>659.0</ele><time>2026-04-19T08:58:53Z</time></trkpt><trkpt lat="44.53378452028511" lon="9.257927076707354"><ele>659.0</ele><time>2026-04-19T08:58:54Z</time></trkpt><trkpt lat="44.53378112277869" lon="9.258130809172162"><ele>659.0</ele><time>2026-04-19T08:58:55Z</time></trkpt><trkpt lat="44.53379349943846" lon="9.25834393901856"><ele>659.0</ele><time>2026-04-19T08:58:56Z</time></trkpt><trkpt lat="44.53381231373006" lon="9.25855847983123"><ele>659.0</ele><time>2026-04-19T08:58:57Z</time></trkpt><trkpt lat="44.533827371763294" lon="9.258774214668529"><ele>659.0</ele><time>2026-04-19T08:58:58Z</time></trkpt><trkpt lat="44.53384508141407" lon="9.258990782103776"><ele>659.0</ele><time>2026-04-19T08:58:59Z</time></trkpt><trkpt lat="44.53384589071541" lon="9.259215811918127"><ele>659.0</ele><time>2026-04-19T08:59:00Z</time></trkpt><trkpt lat="44.53383006305118" lon="9.259433957309732"><ele>659.0</ele><time>2026-04-19T08:59:01Z</time></trkpt><trkpt lat="44.533799259217716" lon="9.259654339622378"><ele>658.75</ele><time>2026-04-19T08:59:02Z</time></trkpt><trkpt lat="44.53378036948524" lon="9.259870638250856"><ele>658.5</ele><time>2026-04-19T08:59:03Z</time></trkpt><trkpt lat="44.5337873650243" lon="9.260073201277327"><ele>658.25</ele><time>2026-04-19T08:59:04Z</time></trkpt><trkpt lat="44.53380067822109" lon="9.260259118790923"><ele>658.0</ele><time>2026-04-19T08:59:05Z</time></trkpt><trkpt lat="44.53381359351074" lon="9.260437870884264"><ele>658.0</ele><time>2026-04-19T08:59:06Z</time></trkpt><trkpt lat="44.53381807273474" lon="9.2606074278819"><ele>658.0</ele><time>2026-04-19T08:59:07Z</time></trkpt><trkpt lat="44.53382227143923" lon="9.260767020780095"><ele>658.0</ele><time>2026-04-19T08:59:08Z</time></trkpt><trkpt lat="44.53381383775225" lon="9.260935431437993"><ele>658.0</ele><time>2026-04-19T08:59:09Z</time></trkpt><trkpt lat="44.533794186768056" lon="9.261121461780034"><ele>656.25</ele><time>2026-04-19T08:59:09.999Z</time></trkpt><trkpt lat="44.533785611118795" lon="9.261319689713648"><ele>654.5</ele><time>2026-04-19T08:59:10.999Z</time></trkpt><trkpt lat="44.53380440922083" lon="9.261519365486894"><ele>652.75</ele><time>2026-04-19T08:59:11.999Z</time></trkpt><trkpt lat="44.53384185477224" lon="9.261687661825567"><ele>651.0</ele><time>2026-04-19T08:59:12.999Z</time></trkpt><trkpt lat="44.5339017060117" lon="9.261827064196007"><ele>647.75</ele><time>2026-04-19T08:59:13.999Z</time></trkpt><trkpt lat="44.53399042078615" lon="9.261932700159667"><ele>644.5</ele><time>2026-04-19T08:59:14.999Z</time></trkpt><trkpt lat="44.5341127319161" lon="9.261986777052476"><ele>641.25</ele><time>2026-04-19T08:59:15.999Z</time></trkpt><trkpt lat="44.534228710716185" lon="9.261987828733897"><ele>638.0</ele><time>2026-04-19T08:59:16.999Z</time></trkpt><trkpt lat="44.53435607062939" lon="9.261955811516266"><ele>638.0</ele><time>2026-04-19T08:59:17.999Z</time></trkpt><trkpt lat="44.53448824223688" lon="9.26190854359639"><ele>638.0</ele><time>2026-04-19T08:59:18.999Z</time></trkpt><trkpt lat="44.53461841074214" lon="9.261851260811063"><ele>638.0</ele><time>2026-04-19T08:59:19.999Z</time></trkpt><trkpt lat="44.53475907534659" lon="9.261780554094749"><ele>638.0</ele><time>2026-04-19T08:59:20.999Z</time></trkpt><trkpt lat="44.53489234604308" lon="9.261674590608667"><ele>638.0</ele><time>2026-04-19T08:59:21.999Z</time></trkpt><trkpt lat="44.535012404421146" lon="9.261564002886612"><ele>638.0</ele><time>2026-04-19T08:59:22.999Z</time></trkpt><trkpt lat="44.53513657792366" lon="9.26144667216472"><ele>638.0</ele><time>2026-04-19T08:59:23.999Z</time></trkpt><trkpt lat="44.53526431302208" lon="9.261333877658535"><ele>638.0</ele><time>2026-04-19T08:59:24.999Z</time></trkpt><trkpt lat="44.53540962793673" lon="9.261251047972939"><ele>643.25</ele><time>2026-04-19T08:59:25.999Z</time></trkpt><trkpt lat="44.535555689175126" lon="9.261175854191043"><ele>648.5</ele><time>2026-04-19T08:59:26.999Z</time></trkpt><trkpt lat="44.53569132580358" lon="9.261161824869978"><ele>653.75</ele><time>2026-04-19T08:59:27.999Z</time></trkpt><trkpt lat="44.53583358863642" lon="9.261189426541161"><ele>659.0</ele><time>2026-04-19T08:59:28.999Z</time></trkpt><trkpt lat="44.53600049294232" lon="9.26119521741586"><ele>659.0</ele><time>2026-04-19T08:59:29.999Z</time></trkpt><trkpt lat="44.53619077945273" lon="9.261212037947745"><ele>659.0</ele><time>2026-04-19T08:59:30.999Z</time></trkpt><trkpt lat="44.536402007082934" lon="9.261189722713167"><ele>659.0</ele><time>2026-04-19T08:59:31.999Z</time></trkpt><trkpt lat="44.53661731807362" lon="9.26112896870954"><ele>652.3333333333333</ele><time>2026-04-19T08:59:32.999Z</time></trkpt><trkpt lat="44.53683366575855" lon="9.26106640879316"><ele>645.6666666666666</ele><time>2026-04-19T08:59:33.999Z</time></trkpt><trkpt lat="44.537045908890825" lon="9.261040126307439"><ele>639.0</ele><time>2026-04-19T08:59:34.999Z</time></trkpt><trkpt lat="44.53726580062229" lon="9.261038041467593"><ele>637.5</ele><time>2026-04-19T08:59:35.999Z</time></trkpt><trkpt lat="44.53747842778756" lon="9.261041843490839"><ele>636.0</ele><time>2026-04-19T08:59:36.999Z</time></trkpt><trkpt lat="44.537724141147166" lon="9.26103440581132"><ele>637.5</ele><time>2026-04-19T08:59:37.999Z</time></trkpt><trkpt lat="44.53797765925954" lon="9.261026731883799"><ele>639.0</ele><time>2026-04-19T08:59:38.999Z</time></trkpt><trkpt lat="44.538238056979836" lon="9.261000393288555"><ele>639.0</ele><time>2026-04-19T08:59:39.999Z</time></trkpt><trkpt lat="44.538505404628886" lon="9.260992880563892"><ele>639.0</ele><time>2026-04-19T08:59:40.999Z</time></trkpt><trkpt lat="44.538749248782466" lon="9.260986974580527"><ele>642.0</ele><time>2026-04-19T08:59:41.999Z</time></trkpt><trkpt lat="44.53898228179684" lon="9.260980368728982"><ele>645.0</ele><time>2026-04-19T08:59:42.999Z</time></trkpt><trkpt lat="44.53918900681747" lon="9.260973968101855"><ele>648.0</ele><time>2026-04-19T08:59:43.999Z</time></trkpt><trkpt lat="44.539370471509734" lon="9.260963119718985"><ele>648.0</ele><time>2026-04-19T08:59:44.999Z</time></trkpt><trkpt lat="44.539541661179804" lon="9.260956441324169"><ele>648.0</ele><time>2026-04-19T08:59:45.999Z</time></trkpt><trkpt lat="44.53971185298926" lon="9.260954793761542"><ele>648.0</ele><time>2026-04-19T08:59:46.999Z</time></trkpt><trkpt lat="44.5398847130139" lon="9.260942208099397"><ele>646.0</ele><time>2026-04-19T08:59:47.999Z</time></trkpt><trkpt lat="44.54004610816471" lon="9.260956838855872"><ele>644.0</ele><time>2026-04-19T08:59:48.999Z</time></trkpt><trkpt lat="44.54020625915432" lon="9.260950473788352"><ele>642.0</ele><time>2026-04-19T08:59:49.999Z</time></trkpt><trkpt lat="44.54035216579615" lon="9.260944674852176"><ele>639.5</ele><time>2026-04-19T08:59:50.999Z</time></trkpt><trkpt lat="44.540487480355615" lon="9.260938075697842"><ele>637.0</ele><time>2026-04-19T08:59:51.999Z</time></trkpt><trkpt lat="44.54062918763997" lon="9.260928939559319"><ele>634.5</ele><time>2026-04-19T08:59:52.999Z</time></trkpt><trkpt lat="44.540781332330745" lon="9.260918789544675"><ele>632.0</ele><time>2026-04-19T08:59:53.999Z</time></trkpt><trkpt lat="44.54092748826511" lon="9.260896442762295"><ele>632.0</ele><time>2026-04-19T08:59:54.999Z</time></trkpt><trkpt lat="44.541058558065096" lon="9.260860015168454"><ele>632.0</ele><time>2026-04-19T08:59:55.999Z</time></trkpt><trkpt lat="44.54117454241297" lon="9.26077717196293"><ele>632.0</ele><time>2026-04-19T08:59:56.999Z</time></trkpt><trkpt lat="44.54128287728621" lon="9.260726794694875"><ele>632.0</ele><time>2026-04-19T08:59:57.999Z</time></trkpt><trkpt lat="44.54137059012971" lon="9.260660128644938"><ele>631.1666666666666</ele><time>2026-04-19T08:59:58.999Z</time></trkpt><trkpt lat="44.541456531306785" lon="9.260590869471224"><ele>630.3333333333333</ele><time>2026-04-19T09:00:00.999Z</time></trkpt><trkpt lat="44.541524028953944" lon="9.260519603038965"><ele>629.5</ele><time>2026-04-19T09:00:02.999Z</time></trkpt><trkpt lat="44.54157334528588" lon="9.260459529740062"><ele>628.6666666666666</ele><time>2026-04-19T09:00:06.999Z</time></trkpt><trkpt lat="44.541620752024784" lon="9.260395953462245"><ele>627.8333333333334</ele><time>2026-04-19T09:00:35Z</time></trkpt><trkpt lat="44.541706458283144" lon="9.260269105291234"><ele>627.0</ele><time>2026-04-19T09:00:37Z</time></trkpt><trkpt lat="44.54177721077553" lon="9.260163945056707"><ele>627.0</ele><time>2026-04-19T09:00:38Z</time></trkpt><trkpt lat="44.5418400515916" lon="9.260072285862448"><ele>627.0</ele><time>2026-04-19T09:00:39Z</time></trkpt><trkpt lat="44.541911338851286" lon="9.259973895439252"><ele>627.0</ele><time>2026-04-19T09:00:40Z</time></trkpt><trkpt lat="44.54197416392594" lon="9.259898838752289"><ele>627.0</ele><time>2026-04-19T09:00:41Z</time></trkpt><trkpt lat="44.54203850600071" lon="9.259835834059357"><ele>627.0</ele><time>2026-04-19T09:00:42Z</time></trkpt><trkpt lat="44.542129478499064" lon="9.25977319590789"><ele>626.25</ele><time>2026-04-19T09:00:43Z</time></trkpt><trkpt lat="44.54223351648029" lon="9.259761116651086"><ele>625.5</ele><time>2026-04-19T09:00:44Z</time></trkpt><trkpt lat="44.54234594758281" lon="9.259744440985601"><ele>624.75</ele><time>2026-04-19T09:00:45Z</time></trkpt><trkpt lat="44.54246828539128" lon="9.25977918981588"><ele>624.0</ele><time>2026-04-19T09:00:46Z</time></trkpt><trkpt lat="44.54258458097467" lon="9.25982627666191"><ele>623.5</ele><time>2026-04-19T09:00:47Z</time></trkpt><trkpt lat="44.54271100296109" lon="9.259881717056809"><ele>623.0</ele><time>2026-04-19T09:00:48Z</time></trkpt><trkpt lat="44.542822575721296" lon="9.25992918038762"><ele>622.5</ele><time>2026-04-19T09:00:49Z</time></trkpt><trkpt lat="44.542923616180104" lon="9.259973942771255"><ele>622.0</ele><time>2026-04-19T09:00:50Z</time></trkpt><trkpt lat="44.54303366356022" lon="9.26001721540204"><ele>622.0</ele><time>2026-04-19T09:00:51Z</time></trkpt><trkpt lat="44.54315117716799" lon="9.260073769825038"><ele>622.0</ele><time>2026-04-19T09:00:52Z</time></trkpt><trkpt lat="44.54325578697481" lon="9.26011743337318"><ele>622.0</ele><time>2026-04-19T09:00:53Z</time></trkpt><trkpt lat="44.54335024072924" lon="9.260160107076135"><ele>622.0</ele><time>2026-04-19T09:00:54Z</time></trkpt><trkpt lat="44.543451344508306" lon="9.260193576392783"><ele>622.0</ele><time>2026-04-19T09:00:55Z</time></trkpt><trkpt lat="44.54355314525046" lon="9.260252361702099"><ele>622.0</ele><time>2026-04-19T09:00:56Z</time></trkpt><trkpt lat="44.54365228190918" lon="9.2602939822431"><ele>622.0</ele><time>2026-04-19T09:00:57Z</time></trkpt><trkpt lat="44.543742910257144" lon="9.260320123180254"><ele>622.0</ele><time>2026-04-19T09:00:58Z</time></trkpt><trkpt lat="44.5438241824701" lon="9.26035759005157"><ele>622.0</ele><time>2026-04-19T09:00:59Z</time></trkpt><trkpt lat="44.54389417526637" lon="9.260382085442368"><ele>622.0</ele><time>2026-04-19T09:01:00Z</time></trkpt><trkpt lat="44.543983093563995" lon="9.26041814548334"><ele>622.0</ele><time>2026-04-19T09:01:01Z</time></trkpt><trkpt lat="44.54406026855572" lon="9.26045034469973"><ele>622.4</ele><time>2026-04-19T09:01:02Z</time></trkpt><trkpt lat="44.544122167345776" lon="9.260513137376098"><ele>622.8000000000001</ele><time>2026-04-19T09:01:03Z</time></trkpt><trkpt lat="44.54419498568535" lon="9.260572830131501"><ele>623.2</ele><time>2026-04-19T09:01:04Z</time></trkpt><trkpt lat="44.544244171446365" lon="9.260701838848457"><ele>623.6</ele><time>2026-04-19T09:01:05Z</time></trkpt><trkpt lat="44.54427492561322" lon="9.260876697242779"><ele>624.0</ele><time>2026-04-19T09:01:06Z</time></trkpt><trkpt lat="44.54431011731073" lon="9.261082240105162"><ele>624.0</ele><time>2026-04-19T09:01:07Z</time></trkpt><trkpt lat="44.54434245486245" lon="9.261293232969912"><ele>624.0</ele><time>2026-04-19T09:01:08Z</time></trkpt><trkpt lat="44.544386339111824" lon="9.26150869182325"><ele>624.0</ele><time>2026-04-19T09:01:09Z</time></trkpt><trkpt lat="44.5444378156013" lon="9.261749967736199"><ele>622.3333333333334</ele><time>2026-04-19T09:01:10Z</time></trkpt><trkpt lat="44.54449965147523" lon="9.262018242369953"><ele>620.6666666666667</ele><time>2026-04-19T09:01:11Z</time></trkpt><trkpt lat="44.54457825878659" lon="9.262282000309918"><ele>619.0</ele><time>2026-04-19T09:01:12Z</time></trkpt><trkpt lat="44.544666196401906" lon="9.262540169570439"><ele>624.0</ele><time>2026-04-19T09:01:13Z</time></trkpt><trkpt lat="44.54476660359877" lon="9.262807267384545"><ele>629.0</ele><time>2026-04-19T09:01:14Z</time></trkpt><trkpt lat="44.54485092861013" lon="9.263060593369282"><ele>634.0</ele><time>2026-04-19T09:01:15Z</time></trkpt><trkpt lat="44.54492383827831" lon="9.263289635402396"><ele>634.0</ele><time>2026-04-19T09:01:15.999Z</time></trkpt><trkpt lat="44.54499801445886" lon="9.263504442687422"><ele>634.0</ele><time>2026-04-19T09:01:16.999Z</time></trkpt><trkpt lat="44.545077217341564" lon="9.263728133814356"><ele>634.0</ele><time>2026-04-19T09:01:17.999Z</time></trkpt><trkpt lat="44.54516297634194" lon="9.263969214762696"><ele>629.6666666666667</ele><time>2026-04-19T09:01:18.999Z</time></trkpt><trkpt lat="44.545245413361826" lon="9.264237835393422"><ele>625.3333333333334</ele><time>2026-04-19T09:01:19.999Z</time></trkpt><trkpt lat="44.54533405586078" lon="9.26450846358776"><ele>621.0</ele><time>2026-04-19T09:01:20.999Z</time></trkpt><trkpt lat="44.545405891812955" lon="9.264763557785502"><ele>625.3333333333334</ele><time>2026-04-19T09:01:21.999Z</time></trkpt><trkpt lat="44.545476689830004" lon="9.265019981424485"><ele>629.6666666666667</ele><time>2026-04-19T09:01:22.999Z</time></trkpt><trkpt lat="44.5455434896785" lon="9.26526569537566"><ele>634.0</ele><time>2026-04-19T09:01:23.999Z</time></trkpt><trkpt lat="44.54560454627796" lon="9.265508103732845"><ele>631.3333333333334</ele><time>2026-04-19T09:01:24.999Z</time></trkpt><trkpt lat="44.545670638260965" lon="9.265758041720316"><ele>628.6666666666666</ele><time>2026-04-19T09:01:25.999Z</time></trkpt><trkpt lat="44.54572667791694" lon="9.265995206176928"><ele>626.0</ele><time>2026-04-19T09:01:26.999Z</time></trkpt><trkpt lat="44.545770268297645" lon="9.266218256239474"><ele>626.0</ele><time>2026-04-19T09:01:27.999Z</time></trkpt><trkpt lat="44.54580000841785" lon="9.266422322739011"><ele>626.0</ele><time>2026-04-19T09:01:28.999Z</time></trkpt><trkpt lat="44.54581720210525" lon="9.266637980474359"><ele>626.0</ele><time>2026-04-19T09:01:29.999Z</time></trkpt><trkpt lat="44.54583099448164" lon="9.266853902899989"><ele>624.0</ele><time>2026-04-19T09:01:30.999Z</time></trkpt><trkpt lat="44.54585513463388" lon="9.267056205033164"><ele>622.0</ele><time>2026-04-19T09:01:31.999Z</time></trkpt><trkpt lat="44.54591075017032" lon="9.267248539615185"><ele>620.0</ele><time>2026-04-19T09:01:32.999Z</time></trkpt><trkpt lat="44.54601744836099" lon="9.2674151040412"><ele>621.6666666666666</ele><time>2026-04-19T09:01:33.999Z</time></trkpt><trkpt lat="44.54614735480911" lon="9.267597349101083"><ele>623.3333333333334</ele><time>2026-04-19T09:01:34.999Z</time></trkpt><trkpt lat="44.54628386291572" lon="9.267777006862488"><ele>625.0</ele><time>2026-04-19T09:01:35.999Z</time></trkpt><trkpt lat="44.54643126808134" lon="9.267962090023614"><ele>623.3333333333334</ele><time>2026-04-19T09:01:36.999Z</time></trkpt><trkpt lat="44.546579104622516" lon="9.26814771481424"><ele>621.6666666666666</ele><time>2026-04-19T09:01:37.999Z</time></trkpt><trkpt lat="44.54672138151391" lon="9.26832476358559"><ele>620.0</ele><time>2026-04-19T09:01:38.999Z</time></trkpt><trkpt lat="44.546859670392536" lon="9.268489144717828"><ele>620.0</ele><time>2026-04-19T09:01:39.999Z</time></trkpt><trkpt lat="44.54698233869017" lon="9.26864592147356"><ele>620.0</ele><time>2026-04-19T09:01:40.999Z</time></trkpt><trkpt lat="44.54707402184697" lon="9.268815945605407"><ele>620.0</ele><time>2026-04-19T09:01:41.999Z</time></trkpt><trkpt lat="44.54714969828224" lon="9.26901939307116"><ele>622.0</ele><time>2026-04-19T09:01:42.999Z</time></trkpt><trkpt lat="44.54722489080822" lon="9.2692527677768"><ele>624.0</ele><time>2026-04-19T09:01:43.999Z</time></trkpt><trkpt lat="44.54731541313161" lon="9.269484676274564"><ele>626.0</ele><time>2026-04-19T09:01:44.999Z</time></trkpt><trkpt lat="44.547380867937314" lon="9.269736725182689"><ele>622.3333333333333</ele><time>2026-04-19T09:01:45.999Z</time></trkpt><trkpt lat="44.5474605627138" lon="9.26996257377555"><ele>618.6666666666666</ele><time>2026-04-19T09:01:46.999Z</time></trkpt><trkpt lat="44.547553171066234" lon="9.27015328938078"><ele>615.0</ele><time>2026-04-19T09:01:47.999Z</time></trkpt><trkpt lat="44.547654434308704" lon="9.270316122434599"><ele>615.0</ele><time>2026-04-19T09:01:48.999Z</time></trkpt><trkpt lat="44.54777106996363" lon="9.270473179797559"><ele>615.0</ele><time>2026-04-19T09:01:49.999Z</time></trkpt><trkpt lat="44.547908211880895" lon="9.270609542900125"><ele>615.0</ele><time>2026-04-19T09:01:50.999Z</time></trkpt><trkpt lat="44.54806354931604" lon="9.270722948497443"><ele>615.6666666666666</ele><time>2026-04-19T09:01:51.999Z</time></trkpt><trkpt lat="44.54822331426745" lon="9.270836253060047"><ele>616.3333333333333</ele><time>2026-04-19T09:01:52.999Z</time></trkpt><trkpt lat="44.548384471023525" lon="9.270936545272015"><ele>617.0</ele><time>2026-04-19T09:01:53.999Z</time></trkpt><trkpt lat="44.54854644337811" lon="9.271022692279006"><ele>622.6666666666666</ele><time>2026-04-19T09:01:54.999Z</time></trkpt><trkpt lat="44.54872692897834" lon="9.271103998654853"><ele>628.3333333333334</ele><time>2026-04-19T09:01:55.999Z</time></trkpt><trkpt lat="44.548920642721434" lon="9.271175756155486"><ele>634.0</ele><time>2026-04-19T09:01:56.999Z</time></trkpt><trkpt lat="44.549117160149834" lon="9.271270864126116"><ele>634.0</ele><time>2026-04-19T09:01:57.999Z</time></trkpt><trkpt lat="44.54931364375201" lon="9.271390364179416"><ele>634.0</ele><time>2026-04-19T09:01:58.999Z</time></trkpt><trkpt lat="44.54951008983625" lon="9.27152733587508"><ele>634.0</ele><time>2026-04-19T09:01:59.999Z</time></trkpt><trkpt lat="44.54968453501065" lon="9.271654106436188"><ele>634.3333333333334</ele><time>2026-04-19T09:02:00.999Z</time></trkpt><trkpt lat="44.54984491345636" lon="9.271768040939333"><ele>634.6666666666666</ele><time>2026-04-19T09:02:01.999Z</time></trkpt><trkpt lat="44.550010648687014" lon="9.271884055595565"><ele>635.0</ele><time>2026-04-19T09:02:02.999Z</time></trkpt><trkpt lat="44.55016430991633" lon="9.271993082594324"><ele>635.0</ele><time>2026-04-19T09:02:03.999Z</time></trkpt><trkpt lat="44.550306881333896" lon="9.27209697694228"><ele>635.0</ele><time>2026-04-19T09:02:04.999Z</time></trkpt><trkpt lat="44.55042219398172" lon="9.272199812501299"><ele>635.0</ele><time>2026-04-19T09:02:05.999Z</time></trkpt><trkpt lat="44.55052358304763" lon="9.272324965027657"><ele>635.0</ele><time>2026-04-19T09:02:06.999Z</time></trkpt><trkpt lat="44.55062629273552" lon="9.27247303325474"><ele>635.6666666666666</ele><time>2026-04-19T09:02:07.999Z</time></trkpt><trkpt lat="44.55073101267262" lon="9.272655362038819"><ele>636.3333333333334</ele><time>2026-04-19T09:02:08.999Z</time></trkpt><trkpt lat="44.55085588971866" lon="9.272836354386156"><ele>637.0</ele><time>2026-04-19T09:02:09.999Z</time></trkpt><trkpt lat="44.55096435842575" lon="9.273054222240319"><ele>644.0</ele><time>2026-04-19T09:02:10.999Z</time></trkpt><trkpt lat="44.55107623390863" lon="9.273202636247408"><ele>651.0</ele><time>2026-04-19T09:02:11.999Z</time></trkpt><trkpt lat="44.55117067546343" lon="9.273374541264907"><ele>658.0</ele><time>2026-04-19T09:02:12.999Z</time></trkpt><trkpt lat="44.55126298440411" lon="9.273558388887558"><ele>658.0</ele><time>2026-04-19T09:02:13.999Z</time></trkpt><trkpt lat="44.55133973773164" lon="9.27376082803501"><ele>658.0</ele><time>2026-04-19T09:02:14.999Z</time></trkpt><trkpt lat="44.551393742077195" lon="9.273962935982714"><ele>658.0</ele><time>2026-04-19T09:02:15.999Z</time></trkpt><trkpt lat="44.55143481566944" lon="9.274155520104976"><ele>651.25</ele><time>2026-04-19T09:02:16.999Z</time></trkpt><trkpt lat="44.55146149110308" lon="9.27431180032176"><ele>644.5</ele><time>2026-04-19T09:02:18Z</time></trkpt><trkpt lat="44.551492774896104" lon="9.274488155533286"><ele>637.75</ele><time>2026-04-19T09:02:19Z</time></trkpt><trkpt lat="44.551599608292435" lon="9.274684544467796"><ele>631.0</ele><time>2026-04-19T09:02:20Z</time></trkpt><trkpt lat="44.551712285424365" lon="9.274861497584169"><ele>627.5</ele><time>2026-04-19T09:02:21Z</time></trkpt><trkpt lat="44.55182679015711" lon="9.275052249806025"><ele>624.0</ele><time>2026-04-19T09:02:22Z</time></trkpt><trkpt lat="44.551889167377624" lon="9.275274928883253"><ele>620.5</ele><time>2026-04-19T09:02:23Z</time></trkpt><trkpt lat="44.55185647067561" lon="9.275405091065114"><ele>617.0</ele><time>2026-04-19T09:02:25Z</time></trkpt><trkpt lat="44.551812403973415" lon="9.275569441127876"><ele>615.3333333333333</ele><time>2026-04-19T09:02:26Z</time></trkpt><trkpt lat="44.55176653145067" lon="9.275772789039566"><ele>613.6666666666666</ele><time>2026-04-19T09:02:27Z</time></trkpt><trkpt lat="44.551717139091295" lon="9.276000664201026"><ele>612.0</ele><time>2026-04-19T09:02:28Z</time></trkpt><trkpt lat="44.551666700321576" lon="9.276233367174472"><ele>615.0</ele><time>2026-04-19T09:02:29Z</time></trkpt><trkpt lat="44.551624592600554" lon="9.276484768338477"><ele>618.0</ele><time>2026-04-19T09:02:30Z</time></trkpt><trkpt lat="44.551567976347016" lon="9.27672222331048"><ele>621.0</ele><time>2026-04-19T09:02:31Z</time></trkpt><trkpt lat="44.55151949367935" lon="9.27693024493676"><ele>621.0</ele><time>2026-04-19T09:02:32Z</time></trkpt><trkpt lat="44.55147356075954" lon="9.277128256586295"><ele>621.0</ele><time>2026-04-19T09:02:33Z</time></trkpt><trkpt lat="44.55144275335518" lon="9.277343919465814"><ele>621.0</ele><time>2026-04-19T09:02:34Z</time></trkpt><trkpt lat="44.55141967190023" lon="9.277606299069655"><ele>621.6666666666666</ele><time>2026-04-19T09:02:35Z</time></trkpt><trkpt lat="44.5514044885639" lon="9.277885055404077"><ele>622.3333333333333</ele><time>2026-04-19T09:02:36Z</time></trkpt><trkpt lat="44.55138878996958" lon="9.278120741845017"><ele>623.0</ele><time>2026-04-19T09:02:37Z</time></trkpt><trkpt lat="44.551375135284" lon="9.278334275037743"><ele>621.0</ele><time>2026-04-19T09:02:38Z</time></trkpt><trkpt lat="44.55136586941108" lon="9.278533277560372"><ele>619.0</ele><time>2026-04-19T09:02:39Z</time></trkpt><trkpt lat="44.551372450165694" lon="9.278735704818923"><ele>617.0</ele><time>2026-04-19T09:02:40Z</time></trkpt><trkpt lat="44.55140850936804" lon="9.278937202769837"><ele>615.0</ele><time>2026-04-19T09:02:41Z</time></trkpt><trkpt lat="44.55147004512018" lon="9.279098386078285"><ele>613.0</ele><time>2026-04-19T09:02:42Z</time></trkpt><trkpt lat="44.55157059405478" lon="9.279235936927593"><ele>611.0</ele><time>2026-04-19T09:02:43Z</time></trkpt><trkpt lat="44.55170409852813" lon="9.279364492679168"><ele>609.0</ele><time>2026-04-19T09:02:44Z</time></trkpt><trkpt lat="44.551852280686965" lon="9.279471885239602"><ele>609.0</ele><time>2026-04-19T09:02:45Z</time></trkpt><trkpt lat="44.55202659461466" lon="9.27957475323319"><ele>609.0</ele><time>2026-04-19T09:02:46Z</time></trkpt><trkpt lat="44.55215355809833" lon="9.279674518588156"><ele>609.0</ele><time>2026-04-19T09:02:47Z</time></trkpt><trkpt lat="44.55227907075958" lon="9.279776183192316"><ele>609.75</ele><time>2026-04-19T09:02:48Z</time></trkpt><trkpt lat="44.55239714300329" lon="9.27987182109196"><ele>610.5</ele><time>2026-04-19T09:02:49Z</time></trkpt><trkpt lat="44.552498407973616" lon="9.279953879253815"><ele>611.25</ele><time>2026-04-19T09:02:50Z</time></trkpt><trkpt lat="44.55259382174602" lon="9.280031979380867"><ele>612.0</ele><time>2026-04-19T09:02:51Z</time></trkpt><trkpt lat="44.552683910972796" lon="9.280105583439774"><ele>612.0</ele><time>2026-04-19T09:02:52Z</time></trkpt><trkpt lat="44.55277386312733" lon="9.280176307144973"><ele>612.0</ele><time>2026-04-19T09:02:53Z</time></trkpt><trkpt lat="44.55287291527334" lon="9.280248923981924"><ele>612.0</ele><time>2026-04-19T09:02:54Z</time></trkpt><trkpt lat="44.5529815531378" lon="9.280312290303597"><ele>612.0</ele><time>2026-04-19T09:02:55Z</time></trkpt><trkpt lat="44.55309773528589" lon="9.280382584594255"><ele>611.0</ele><time>2026-04-19T09:02:56Z</time></trkpt><trkpt lat="44.55320780105288" lon="9.280449178248162"><ele>610.0</ele><time>2026-04-19T09:02:57Z</time></trkpt><trkpt lat="44.553327566927074" lon="9.28052164081089"><ele>609.0</ele><time>2026-04-19T09:02:58Z</time></trkpt><trkpt lat="44.55344660924838" lon="9.280593665599685"><ele>608.0</ele><time>2026-04-19T09:02:59Z</time></trkpt><trkpt lat="44.55357005526497" lon="9.280668477466799"><ele>608.0</ele><time>2026-04-19T09:03:00Z</time></trkpt><trkpt lat="44.55368629529795" lon="9.280739832356614"><ele>608.0</ele><time>2026-04-19T09:03:01Z</time></trkpt><trkpt lat="44.55379493945218" lon="9.280806524444843"><ele>608.0</ele><time>2026-04-19T09:03:02Z</time></trkpt><trkpt lat="44.553907103751826" lon="9.280874925652379"><ele>608.0</ele><time>2026-04-19T09:03:03Z</time></trkpt><trkpt lat="44.5540229818567" lon="9.280945082740535"><ele>612.5</ele><time>2026-04-19T09:03:04Z</time></trkpt><trkpt lat="44.55414587114673" lon="9.281002521656921"><ele>617.0</ele><time>2026-04-19T09:03:05Z</time></trkpt><trkpt lat="44.55423873908969" lon="9.281120031746665"><ele>621.5</ele><time>2026-04-19T09:03:06Z</time></trkpt><trkpt lat="44.554323179244" lon="9.281231912313357"><ele>626.0</ele><time>2026-04-19T09:03:07Z</time></trkpt><trkpt lat="44.55437874601418" lon="9.281359635374212"><ele>625.5</ele><time>2026-04-19T09:03:08Z</time></trkpt><trkpt lat="44.554438843394" lon="9.28149774308872"><ele>625.0</ele><time>2026-04-19T09:03:09Z</time></trkpt><trkpt lat="44.554520472289305" lon="9.281633565906835"><ele>624.5</ele><time>2026-04-19T09:03:10Z</time></trkpt><trkpt lat="44.55461909392331" lon="9.28176718607187"><ele>624.0</ele><time>2026-04-19T09:03:11Z</time></trkpt><trkpt lat="44.554726448165326" lon="9.281891574519289"><ele>624.0</ele><time>2026-04-19T09:03:12Z</time></trkpt><trkpt lat="44.55481743131335" lon="9.28204472364693"><ele>624.0</ele><time>2026-04-19T09:03:13Z</time></trkpt><trkpt lat="44.55490731377996" lon="9.282174089664712"><ele>624.0</ele><time>2026-04-19T09:03:14Z</time></trkpt><trkpt lat="44.55498803530904" lon="9.282303034168478"><ele>624.0</ele><time>2026-04-19T09:03:15Z</time></trkpt><trkpt lat="44.55508008853479" lon="9.282431971812043"><ele>618.5</ele><time>2026-04-19T09:03:16Z</time></trkpt><trkpt lat="44.55514906685937" lon="9.28257273191088"><ele>613.0</ele><time>2026-04-19T09:03:17Z</time></trkpt><trkpt lat="44.555183081077736" lon="9.282735639323462"><ele>607.5</ele><time>2026-04-19T09:03:18Z</time></trkpt><trkpt lat="44.555239837328266" lon="9.282891418431323"><ele>602.0</ele><time>2026-04-19T09:03:19Z</time></trkpt><trkpt lat="44.55527755407602" lon="9.283043070864583"><ele>601.4</ele><time>2026-04-19T09:03:20Z</time></trkpt><trkpt lat="44.55531949393522" lon="9.283185400225504"><ele>600.8000000000001</ele><time>2026-04-19T09:03:20.999Z</time></trkpt><trkpt lat="44.55537629347767" lon="9.283308783254348"><ele>600.2</ele><time>2026-04-19T09:03:21.999Z</time></trkpt><trkpt lat="44.55545328579361" lon="9.28342100536827"><ele>599.6</ele><time>2026-04-19T09:03:22.999Z</time></trkpt><trkpt lat="44.55553830318913" lon="9.283497575385368"><ele>599.0</ele><time>2026-04-19T09:03:23.999Z</time></trkpt><trkpt lat="44.5556285634607" lon="9.283549922057889"><ele>601.0</ele><time>2026-04-19T09:03:24.999Z</time></trkpt><trkpt lat="44.55571432993551" lon="9.283601834869312"><ele>603.0</ele><time>2026-04-19T09:03:25.999Z</time></trkpt><trkpt lat="44.55582829498003" lon="9.283571009553327"><ele>605.0</ele><time>2026-04-19T09:03:26.999Z</time></trkpt><trkpt lat="44.555943725434865" lon="9.283521351869739"><ele>607.0</ele><time>2026-04-19T09:03:27.999Z</time></trkpt><trkpt lat="44.55606056221173" lon="9.28344716331249"><ele>607.0</ele><time>2026-04-19T09:03:28.999Z</time></trkpt><trkpt lat="44.55617497540971" lon="9.283350279401791"><ele>607.0</ele><time>2026-04-19T09:03:29.999Z</time></trkpt><trkpt lat="44.556288819408834" lon="9.283302137355575"><ele>607.0</ele><time>2026-04-19T09:03:30.999Z</time></trkpt><trkpt lat="44.556397032268926" lon="9.283233383044793"><ele>607.0</ele><time>2026-04-19T09:03:31.999Z</time></trkpt><trkpt lat="44.55649839233889" lon="9.283168467996854"><ele>606.0</ele><time>2026-04-19T09:03:32.999Z</time></trkpt><trkpt lat="44.556600844842635" lon="9.283102679668318"><ele>605.0</ele><time>2026-04-19T09:03:33.999Z</time></trkpt><trkpt lat="44.556702623767904" lon="9.283037323839398"><ele>604.0</ele><time>2026-04-19T09:03:34.999Z</time></trkpt><trkpt lat="44.55680907710788" lon="9.282968966415293"><ele>603.0</ele><time>2026-04-19T09:03:35.999Z</time></trkpt><trkpt lat="44.55691864916746" lon="9.282898606350171"><ele>603.0</ele><time>2026-04-19T09:03:36.999Z</time></trkpt><trkpt lat="44.55703257076306" lon="9.282825453387929"><ele>603.0</ele><time>2026-04-19T09:03:37.999Z</time></trkpt><trkpt lat="44.5571403314665" lon="9.282757835600421"><ele>603.0</ele><time>2026-04-19T09:03:38.999Z</time></trkpt><trkpt lat="44.557231277607066" lon="9.282663093126308"><ele>603.0</ele><time>2026-04-19T09:03:39.999Z</time></trkpt><trkpt lat="44.557347591622204" lon="9.282596343395024"><ele>602.0</ele><time>2026-04-19T09:03:40.999Z</time></trkpt><trkpt lat="44.55745454175324" lon="9.28252707103584"><ele>601.0</ele><time>2026-04-19T09:03:41.999Z</time></trkpt><trkpt lat="44.55756597678127" lon="9.282463711874659"><ele>600.0</ele><time>2026-04-19T09:03:42.999Z</time></trkpt><trkpt lat="44.55769054670295" lon="9.282412088412226"><ele>599.0</ele><time>2026-04-19T09:03:43.999Z</time></trkpt><trkpt lat="44.55780858897425" lon="9.282337706809917"><ele>600.75</ele><time>2026-04-19T09:03:44.999Z</time></trkpt><trkpt lat="44.557932332689916" lon="9.282260672875088"><ele>602.5</ele><time>2026-04-19T09:03:45.999Z</time></trkpt><trkpt lat="44.55804639010869" lon="9.282189972816548"><ele>604.25</ele><time>2026-04-19T09:03:46.999Z</time></trkpt><trkpt lat="44.558164680578784" lon="9.282117448829089"><ele>606.0</ele><time>2026-04-19T09:03:47.999Z</time></trkpt><trkpt lat="44.55828412242757" lon="9.282045141175104"><ele>606.0</ele><time>2026-04-19T09:03:48.999Z</time></trkpt><trkpt lat="44.55841526916783" lon="9.281992568978136"><ele>606.0</ele><time>2026-04-19T09:03:49.999Z</time></trkpt><trkpt lat="44.5585495550152" lon="9.281971940170521"><ele>606.0</ele><time>2026-04-19T09:03:50.999Z</time></trkpt><trkpt lat="44.55869332258064" lon="9.281999371223561"><ele>606.0</ele><time>2026-04-19T09:03:51.999Z</time></trkpt><trkpt lat="44.558825278267236" lon="9.282059013687489"><ele>608.3333333333334</ele><time>2026-04-19T09:03:52.999Z</time></trkpt><trkpt lat="44.55894828522737" lon="9.282170195806296"><ele>610.6666666666667</ele><time>2026-04-19T09:03:53.999Z</time></trkpt><trkpt lat="44.559062134015925" lon="9.282321582732102"><ele>613.0</ele><time>2026-04-19T09:03:54.999Z</time></trkpt><trkpt lat="44.559142884704414" lon="9.282495098199375"><ele>613.0</ele><time>2026-04-19T09:03:55.999Z</time></trkpt><trkpt lat="44.55919478763299" lon="9.282697965780196"><ele>613.0</ele><time>2026-04-19T09:03:56.999Z</time></trkpt><trkpt lat="44.559208501053575" lon="9.282923805604494"><ele>613.0</ele><time>2026-04-19T09:03:57.999Z</time></trkpt><trkpt lat="44.559220457706054" lon="9.283123843834176"><ele>610.0</ele><time>2026-04-19T09:03:58.999Z</time></trkpt><trkpt lat="44.55922046761092" lon="9.283306837801407"><ele>607.0</ele><time>2026-04-19T09:03:59.999Z</time></trkpt><trkpt lat="44.55926716588504" lon="9.283481740399177"><ele>604.0</ele><time>2026-04-19T09:04:00.999Z</time></trkpt><trkpt lat="44.559352111627646" lon="9.283617510042086"><ele>601.0</ele><time>2026-04-19T09:04:01.999Z</time></trkpt><trkpt lat="44.55947464118531" lon="9.2837153406643"><ele>610.0</ele><time>2026-04-19T09:04:02.999Z</time></trkpt><trkpt lat="44.55961519840739" lon="9.283788516254798"><ele>619.0</ele><time>2026-04-19T09:04:03.999Z</time></trkpt><trkpt lat="44.55978548974579" lon="9.283814852289822"><ele>628.0</ele><time>2026-04-19T09:04:04.999Z</time></trkpt><trkpt lat="44.55996761100166" lon="9.283837134570254"><ele>628.0</ele><time>2026-04-19T09:04:05.999Z</time></trkpt><trkpt lat="44.56015141682665" lon="9.283852745595125"><ele>628.0</ele><time>2026-04-19T09:04:06.999Z</time></trkpt><trkpt lat="44.560344066570956" lon="9.28386757615066"><ele>628.0</ele><time>2026-04-19T09:04:07.999Z</time></trkpt><trkpt lat="44.560547605740695" lon="9.28387417431372"><ele>628.0</ele><time>2026-04-19T09:04:08.999Z</time></trkpt><trkpt lat="44.560768516997115" lon="9.283846023681797"><ele>628.0</ele><time>2026-04-19T09:04:09.999Z</time></trkpt><trkpt lat="44.56098589951849" lon="9.283789148900514"><ele>628.0</ele><time>2026-04-19T09:04:10.999Z</time></trkpt><trkpt lat="44.56118786685906" lon="9.283764732374708"><ele>623.6666666666667</ele><time>2026-04-19T09:04:11.999Z</time></trkpt><trkpt lat="44.56136911170831" lon="9.283730691610714"><ele>619.3333333333334</ele><time>2026-04-19T09:04:12.999Z</time></trkpt><trkpt lat="44.561546035570565" lon="9.283710472286192"><ele>615.0</ele><time>2026-04-19T09:04:13.999Z</time></trkpt><trkpt lat="44.56171219687288" lon="9.28364186981417"><ele>615.0</ele><time>2026-04-19T09:04:14.999Z</time></trkpt><trkpt lat="44.56188324440132" lon="9.283589042181916"><ele>615.0</ele><time>2026-04-19T09:04:15.999Z</time></trkpt><trkpt lat="44.5620629403358" lon="9.283484821989301"><ele>615.0</ele><time>2026-04-19T09:04:16.999Z</time></trkpt><trkpt lat="44.56224198861295" lon="9.283355243517876"><ele>611.3333333333334</ele><time>2026-04-19T09:04:17.999Z</time></trkpt><trkpt lat="44.56242900625598" lon="9.283224747702725"><ele>607.6666666666667</ele><time>2026-04-19T09:04:18.999Z</time></trkpt><trkpt lat="44.562605660668574" lon="9.283069210562108"><ele>604.0</ele><time>2026-04-19T09:04:19.999Z</time></trkpt><trkpt lat="44.562790900024886" lon="9.282898494960499"><ele>599.0</ele><time>2026-04-19T09:04:20.999Z</time></trkpt><trkpt lat="44.562975142665294" lon="9.282723572755147"><ele>594.0</ele><time>2026-04-19T09:04:21.999Z</time></trkpt><trkpt lat="44.56316081526372" lon="9.282547564137104"><ele>589.0</ele><time>2026-04-19T09:04:22.999Z</time></trkpt><trkpt lat="44.56334875561717" lon="9.282369405500868"><ele>589.5</ele><time>2026-04-19T09:04:24Z</time></trkpt><trkpt lat="44.563533393129056" lon="9.282171472170045"><ele>590.0</ele><time>2026-04-19T09:04:25Z</time></trkpt><trkpt lat="44.56374269546787" lon="9.281996745460951"><ele>590.0</ele><time>2026-04-19T09:04:26Z</time></trkpt><trkpt lat="44.56391965499992" lon="9.281830879582438"><ele>590.0</ele><time>2026-04-19T09:04:27Z</time></trkpt><trkpt lat="44.564084288511154" lon="9.281674789849138"><ele>590.0</ele><time>2026-04-19T09:04:28Z</time></trkpt><trkpt lat="44.56423684634486" lon="9.281526231661958"><ele>590.3333333333333</ele><time>2026-04-19T09:04:29Z</time></trkpt><trkpt lat="44.56438224404093" lon="9.281374562523444"><ele>590.6666666666666</ele><time>2026-04-19T09:04:30Z</time></trkpt><trkpt lat="44.56451058142236" lon="9.281192440683727"><ele>591.0</ele><time>2026-04-19T09:04:31Z</time></trkpt><trkpt lat="44.56462939576298" lon="9.281027908579729"><ele>591.0</ele><time>2026-04-19T09:04:32Z</time></trkpt><trkpt lat="44.564723194736416" lon="9.280890094950566"><ele>591.0</ele><time>2026-04-19T09:04:33Z</time></trkpt><trkpt lat="44.56482022269166" lon="9.280803070486241"><ele>591.0</ele><time>2026-04-19T09:04:34Z</time></trkpt><trkpt lat="44.56490494658933" lon="9.280747034550506"><ele>591.0</ele><time>2026-04-19T09:04:35Z</time></trkpt><trkpt lat="44.56500899445577" lon="9.280749174949422"><ele>591.0</ele><time>2026-04-19T09:04:36Z</time></trkpt><trkpt lat="44.56508160261722" lon="9.280853962797865"><ele>591.0</ele><time>2026-04-19T09:04:37Z</time></trkpt><trkpt lat="44.565201882707214" lon="9.280956919877173"><ele>591.0</ele><time>2026-04-19T09:04:38Z</time></trkpt><trkpt lat="44.56532543402903" lon="9.28105893749262"><ele>591.0</ele><time>2026-04-19T09:04:39Z</time></trkpt><trkpt lat="44.56542904890189" lon="9.281119481761811"><ele>591.0</ele><time>2026-04-19T09:04:40Z</time></trkpt><trkpt lat="44.565509627736056" lon="9.281201093226263"><ele>591.75</ele><time>2026-04-19T09:04:41Z</time></trkpt><trkpt lat="44.56559934776776" lon="9.281217062838335"><ele>592.5</ele><time>2026-04-19T09:04:42Z</time></trkpt><trkpt lat="44.565741531380425" lon="9.281234857493818"><ele>593.25</ele><time>2026-04-19T09:04:43Z</time></trkpt><trkpt lat="44.56581021506705" lon="9.28095779042027"><ele>594.0</ele><time>2026-04-19T09:04:44Z</time></trkpt><trkpt lat="44.565905362548484" lon="9.280781047039453"><ele>592.3333333333334</ele><time>2026-04-19T09:04:45Z</time></trkpt><trkpt lat="44.565989772005125" lon="9.280564818022176"><ele>590.6666666666667</ele><time>2026-04-19T09:04:46Z</time></trkpt><trkpt lat="44.56606868447832" lon="9.280351798119046"><ele>589.0</ele><time>2026-04-19T09:04:47Z</time></trkpt><trkpt lat="44.566167226032476" lon="9.280179216125314"><ele>588.75</ele><time>2026-04-19T09:04:48Z</time></trkpt><trkpt lat="44.56624100436106" lon="9.280002777397812"><ele>588.5</ele><time>2026-04-19T09:04:49Z</time></trkpt><trkpt lat="44.566314035018976" lon="9.279845255962003"><ele>588.25</ele><time>2026-04-19T09:04:50Z</time></trkpt><trkpt lat="44.56639708149541" lon="9.279696639698598"><ele>588.0</ele><time>2026-04-19T09:04:51Z</time></trkpt><trkpt lat="44.56651267716323" lon="9.27959205937486"><ele>588.0</ele><time>2026-04-19T09:04:52Z</time></trkpt><trkpt lat="44.56665853621005" lon="9.279474722376456"><ele>588.0</ele><time>2026-04-19T09:04:53Z</time></trkpt><trkpt lat="44.56682326981475" lon="9.279349257513736"><ele>588.0</ele><time>2026-04-19T09:04:54Z</time></trkpt><trkpt lat="44.56699698342574" lon="9.279195383480152"><ele>587.3333333333334</ele><time>2026-04-19T09:04:55Z</time></trkpt><trkpt lat="44.567181066162526" lon="9.279077729457718"><ele>586.6666666666667</ele><time>2026-04-19T09:04:56Z</time></trkpt><trkpt lat="44.5673858387438" lon="9.27892162727078"><ele>586.0</ele><time>2026-04-19T09:04:57Z</time></trkpt><trkpt lat="44.56756936802978" lon="9.27877166264728"><ele>586.0</ele><time>2026-04-19T09:04:58Z</time></trkpt><trkpt lat="44.567749809057894" lon="9.278577543242182"><ele>586.0</ele><time>2026-04-19T09:04:59Z</time></trkpt><trkpt lat="44.567930144661524" lon="9.278381449159653"><ele>584.6666666666667</ele><time>2026-04-19T09:05:00Z</time></trkpt><trkpt lat="44.56810763226557" lon="9.278214169311802"><ele>583.3333333333334</ele><time>2026-04-19T09:05:01Z</time></trkpt><trkpt lat="44.568255430312405" lon="9.278051189950595"><ele>582.0</ele><time>2026-04-19T09:05:02Z</time></trkpt><trkpt lat="44.568387284105" lon="9.277877864083893"><ele>582.0</ele><time>2026-04-19T09:05:03Z</time></trkpt><trkpt lat="44.568526390913945" lon="9.277733361068494"><ele>582.0</ele><time>2026-04-19T09:05:04Z</time></trkpt><trkpt lat="44.568674547300716" lon="9.277580189283285"><ele>582.0</ele><time>2026-04-19T09:05:05Z</time></trkpt><trkpt lat="44.568812251451234" lon="9.277437413296026"><ele>582.0</ele><time>2026-04-19T09:05:06Z</time></trkpt><trkpt lat="44.568930788590585" lon="9.277301670370829"><ele>582.0</ele><time>2026-04-19T09:05:07Z</time></trkpt><trkpt lat="44.56903593902956" lon="9.27715158569633"><ele>582.0</ele><time>2026-04-19T09:05:08Z</time></trkpt><trkpt lat="44.56911326079246" lon="9.276938864168935"><ele>582.0</ele><time>2026-04-19T09:05:09Z</time></trkpt><trkpt lat="44.56918379606715" lon="9.276635567092514"><ele>582.0</ele><time>2026-04-19T09:05:10Z</time></trkpt><trkpt lat="44.56931290126532" lon="9.276340453590933"><ele>581.75</ele><time>2026-04-19T09:05:11Z</time></trkpt><trkpt lat="44.56939071996928" lon="9.276220693216747"><ele>581.5</ele><time>2026-04-19T09:05:13Z</time></trkpt><trkpt lat="44.56952106393311" lon="9.276074377038105"><ele>581.25</ele><time>2026-04-19T09:05:14Z</time></trkpt><trkpt lat="44.56964491142651" lon="9.275976652707863"><ele>581.0</ele><time>2026-04-19T09:05:15Z</time></trkpt><trkpt lat="44.56978198099566" lon="9.275900301364086"><ele>582.0</ele><time>2026-04-19T09:05:16Z</time></trkpt><trkpt lat="44.56994153602044" lon="9.275844651599332"><ele>583.0</ele><time>2026-04-19T09:05:17Z</time></trkpt><trkpt lat="44.570115152929084" lon="9.275821178822286"><ele>584.0</ele><time>2026-04-19T09:05:18Z</time></trkpt><trkpt lat="44.57026414303435" lon="9.27582183117053"><ele>585.6666666666666</ele><time>2026-04-19T09:05:19Z</time></trkpt><trkpt lat="44.57042949710486" lon="9.275832898861443"><ele>587.3333333333334</ele><time>2026-04-19T09:05:20Z</time></trkpt><trkpt lat="44.570583187041734" lon="9.27586618677975"><ele>589.0</ele><time>2026-04-19T09:05:21Z</time></trkpt><trkpt lat="44.57071173674709" lon="9.275949746408838"><ele>589.0</ele><time>2026-04-19T09:05:22Z</time></trkpt><trkpt lat="44.57084382561975" lon="9.276045884754277"><ele>589.0</ele><time>2026-04-19T09:05:23Z</time></trkpt><trkpt lat="44.57096448227774" lon="9.276132966431735"><ele>589.0</ele><time>2026-04-19T09:05:24Z</time></trkpt><trkpt lat="44.571079302604566" lon="9.276199006977253"><ele>589.0</ele><time>2026-04-19T09:05:25Z</time></trkpt><trkpt lat="44.571194680442424" lon="9.276216877732542"><ele>589.0</ele><time>2026-04-19T09:05:26Z</time></trkpt><trkpt lat="44.571306811900385" lon="9.276154063902949"><ele>589.0</ele><time>2026-04-19T09:05:27Z</time></trkpt><trkpt lat="44.57142087342542" lon="9.27607154296892"><ele>589.0</ele><time>2026-04-19T09:05:27.999Z</time></trkpt><trkpt lat="44.571528992852556" lon="9.275936907139062"><ele>589.0</ele><time>2026-04-19T09:05:28.999Z</time></trkpt><trkpt lat="44.57164105584726" lon="9.27578936347246"><ele>589.0</ele><time>2026-04-19T09:05:29.999Z</time></trkpt><trkpt lat="44.57177330910275" lon="9.275641203836251"><ele>589.0</ele><time>2026-04-19T09:05:30.999Z</time></trkpt><trkpt lat="44.57191865311774" lon="9.275516487261294"><ele>589.0</ele><time>2026-04-19T09:05:31.999Z</time></trkpt><trkpt lat="44.57208035595326" lon="9.275433876678646"><ele>588.3333333333334</ele><time>2026-04-19T09:05:32.999Z</time></trkpt><trkpt lat="44.57224962338101" lon="9.275330091453394"><ele>587.6666666666666</ele><time>2026-04-19T09:05:33.999Z</time></trkpt><trkpt lat="44.57241753521025" lon="9.275213824461847"><ele>587.0</ele><time>2026-04-19T09:05:34.999Z</time></trkpt><trkpt lat="44.5725898288071" lon="9.275047344878063"><ele>587.0</ele><time>2026-04-19T09:05:35.999Z</time></trkpt><trkpt lat="44.572745257307645" lon="9.274946342499323"><ele>587.0</ele><time>2026-04-19T09:05:36.999Z</time></trkpt><trkpt lat="44.57289576647528" lon="9.274829278993812"><ele>587.0</ele><time>2026-04-19T09:05:37.999Z</time></trkpt><trkpt lat="44.57303517113038" lon="9.27470919776909"><ele>586.3333333333333</ele><time>2026-04-19T09:05:38.999Z</time></trkpt><trkpt lat="44.57317289429281" lon="9.274565728112565"><ele>585.6666666666666</ele><time>2026-04-19T09:05:39.999Z</time></trkpt><trkpt lat="44.573299545399934" lon="9.274391157772415"><ele>585.0</ele><time>2026-04-19T09:05:40.999Z</time></trkpt><trkpt lat="44.573445276391" lon="9.274243322181356"><ele>585.0</ele><time>2026-04-19T09:05:41.999Z</time></trkpt><trkpt lat="44.573576696150496" lon="9.274085798489436"><ele>585.0</ele><time>2026-04-19T09:05:42.999Z</time></trkpt><trkpt lat="44.57369528873804" lon="9.273943371945535"><ele>585.0</ele><time>2026-04-19T09:05:43.999Z</time></trkpt><trkpt lat="44.57380234373552" lon="9.27381391423644"><ele>585.6666666666666</ele><time>2026-04-19T09:05:44.999Z</time></trkpt><trkpt lat="44.57390726439912" lon="9.273684103105825"><ele>586.3333333333333</ele><time>2026-04-19T09:05:45.999Z</time></trkpt><trkpt lat="44.574023114357836" lon="9.273543808917504"><ele>587.0</ele><time>2026-04-19T09:05:46.999Z</time></trkpt><trkpt lat="44.57414672480672" lon="9.273399203009555"><ele>587.0</ele><time>2026-04-19T09:05:47.999Z</time></trkpt><trkpt lat="44.57426072362472" lon="9.27326955579734"><ele>587.0</ele><time>2026-04-19T09:05:48.999Z</time></trkpt><trkpt lat="44.5743538573717" lon="9.273132478511867"><ele>587.0</ele><time>2026-04-19T09:05:49.999Z</time></trkpt><trkpt lat="44.57443369126036" lon="9.273026182719951"><ele>587.0</ele><time>2026-04-19T09:05:50.999Z</time></trkpt><trkpt lat="44.57449403254803" lon="9.272902751427228"><ele>589.0</ele><time>2026-04-19T09:05:51.999Z</time></trkpt><trkpt lat="44.574540171097446" lon="9.272751212627965"><ele>591.0</ele><time>2026-04-19T09:05:52.999Z</time></trkpt><trkpt lat="44.57457640986953" lon="9.272595250045589"><ele>593.0</ele><time>2026-04-19T09:05:53.999Z</time></trkpt><trkpt lat="44.57463131033411" lon="9.272452981438775"><ele>595.0</ele><time>2026-04-19T09:05:54.999Z</time></trkpt><trkpt lat="44.57465967573996" lon="9.272315215593295"><ele>593.4</ele><time>2026-04-19T09:05:55.999Z</time></trkpt><trkpt lat="44.57470185705791" lon="9.272180939123817"><ele>591.8</ele><time>2026-04-19T09:05:56.999Z</time></trkpt><trkpt lat="44.574744899512524" lon="9.27204781971621"><ele>590.2</ele><time>2026-04-19T09:05:57.999Z</time></trkpt><trkpt lat="44.57478779123775" lon="9.271913919428902"><ele>588.6</ele><time>2026-04-19T09:05:58.999Z</time></trkpt><trkpt lat="44.574853396544874" lon="9.271803178572354"><ele>587.0</ele><time>2026-04-19T09:05:59.999Z</time></trkpt><trkpt lat="44.57490111803142" lon="9.271660405581745"><ele>587.0</ele><time>2026-04-19T09:06:00.999Z</time></trkpt><trkpt lat="44.57496900034631" lon="9.27153297340705"><ele>587.0</ele><time>2026-04-19T09:06:01.999Z</time></trkpt><trkpt lat="44.57503395244293" lon="9.271415943577475"><ele>587.0</ele><time>2026-04-19T09:06:02.999Z</time></trkpt><trkpt lat="44.57509125389989" lon="9.271306198588318"><ele>587.0</ele><time>2026-04-19T09:06:03.999Z</time></trkpt><trkpt lat="44.57514862187144" lon="9.271211577790957"><ele>587.0</ele><time>2026-04-19T09:06:04.999Z</time></trkpt><trkpt lat="44.5752035273873" lon="9.271112494804624"><ele>586.8333333333333</ele><time>2026-04-19T09:06:05.999Z</time></trkpt><trkpt lat="44.575258309669266" lon="9.271024147901247"><ele>586.6666666666666</ele><time>2026-04-19T09:06:06.999Z</time></trkpt><trkpt lat="44.57530715589493" lon="9.270941938715135"><ele>586.5</ele><time>2026-04-19T09:06:07.999Z</time></trkpt><trkpt lat="44.57535540761899" lon="9.27087663807932"><ele>586.3333333333334</ele><time>2026-04-19T09:06:08.999Z</time></trkpt><trkpt lat="44.57541152347786" lon="9.270798711803508"><ele>586.1666666666667</ele><time>2026-04-19T09:06:09.999Z</time></trkpt><trkpt lat="44.57548306597922" lon="9.270731263463029"><ele>586.0</ele><time>2026-04-19T09:06:10.999Z</time></trkpt><trkpt lat="44.57556799309314" lon="9.270650032795407"><ele>584.6</ele><time>2026-04-19T09:06:11.999Z</time></trkpt><trkpt lat="44.5756479676423" lon="9.270589565842329"><ele>583.2</ele><time>2026-04-19T09:06:12.999Z</time></trkpt><trkpt lat="44.575724563143574" lon="9.270535760281032"><ele>581.8</ele><time>2026-04-19T09:06:13.999Z</time></trkpt><trkpt lat="44.575821066894086" lon="9.270526145303911"><ele>580.4</ele><time>2026-04-19T09:06:14.999Z</time></trkpt><trkpt lat="44.57593042467031" lon="9.270510427431308"><ele>579.0</ele><time>2026-04-19T09:06:15.999Z</time></trkpt><trkpt lat="44.57605105033405" lon="9.270484506339447"><ele>579.0</ele><time>2026-04-19T09:06:16.999Z</time></trkpt><trkpt lat="44.57616159778097" lon="9.27042789066507"><ele>579.0</ele><time>2026-04-19T09:06:17.999Z</time></trkpt><trkpt lat="44.57627907699741" lon="9.2704067243862"><ele>579.0</ele><time>2026-04-19T09:06:18.999Z</time></trkpt><trkpt lat="44.57639395155328" lon="9.2703464988776"><ele>579.0</ele><time>2026-04-19T09:06:19.999Z</time></trkpt><trkpt lat="44.57652404414819" lon="9.270307810664296"><ele>578.5</ele><time>2026-04-19T09:06:20.999Z</time></trkpt><trkpt lat="44.576639137963646" lon="9.270273404804573"><ele>578.0</ele><time>2026-04-19T09:06:21.999Z</time></trkpt><trkpt lat="44.57674680065323" lon="9.270239285208262"><ele>577.5</ele><time>2026-04-19T09:06:22.999Z</time></trkpt><trkpt lat="44.5768602687377" lon="9.270212274506523"><ele>577.0</ele><time>2026-04-19T09:06:23.999Z</time></trkpt><trkpt lat="44.576981965754435" lon="9.270231242254136"><ele>576.5</ele><time>2026-04-19T09:06:24.999Z</time></trkpt><trkpt lat="44.577115762497755" lon="9.270248204854672"><ele>576.0</ele><time>2026-04-19T09:06:25.999Z</time></trkpt><trkpt lat="44.577242426551216" lon="9.270254735551292"><ele>575.5</ele><time>2026-04-19T09:06:26.999Z</time></trkpt><trkpt lat="44.577378766166476" lon="9.270277553138428"><ele>575.0</ele><time>2026-04-19T09:06:27.999Z</time></trkpt><trkpt lat="44.577524448773865" lon="9.270293476251624"><ele>575.0</ele><time>2026-04-19T09:06:28.999Z</time></trkpt><trkpt lat="44.57766049727273" lon="9.270297589646233"><ele>575.0</ele><time>2026-04-19T09:06:30Z</time></trkpt><trkpt lat="44.57780747017651" lon="9.270285636779217"><ele>575.0</ele><time>2026-04-19T09:06:31Z</time></trkpt><trkpt lat="44.57797247230014" lon="9.2702495929943"><ele>575.0</ele><time>2026-04-19T09:06:32Z</time></trkpt><trkpt lat="44.57813538899107" lon="9.270206617548526"><ele>575.0</ele><time>2026-04-19T09:06:33Z</time></trkpt><trkpt lat="44.5782962202502" lon="9.270158781501156"><ele>575.0</ele><time>2026-04-19T09:06:34Z</time></trkpt><trkpt lat="44.578444789392094" lon="9.270115112479896"><ele>575.0</ele><time>2026-04-19T09:06:35Z</time></trkpt><trkpt lat="44.578596598485866" lon="9.27006894101376"><ele>575.0</ele><time>2026-04-19T09:06:36Z</time></trkpt><trkpt lat="44.57876268970303" lon="9.270046115731649"><ele>575.0</ele><time>2026-04-19T09:06:37Z</time></trkpt><trkpt lat="44.57892736079232" lon="9.27001346031255"><ele>575.3333333333333</ele><time>2026-04-19T09:06:38Z</time></trkpt><trkpt lat="44.579099654811564" lon="9.270004189519623"><ele>575.6666666666666</ele><time>2026-04-19T09:06:39Z</time></trkpt><trkpt lat="44.579284310099844" lon="9.270024985820035"><ele>576.0</ele><time>2026-04-19T09:06:40Z</time></trkpt><trkpt lat="44.579479389533574" lon="9.270041641793076"><ele>576.0</ele><time>2026-04-19T09:06:41Z</time></trkpt><trkpt lat="44.579678019875075" lon="9.27006282725658"><ele>576.0</ele><time>2026-04-19T09:06:42Z</time></trkpt><trkpt lat="44.579871594674856" lon="9.270084898123805"><ele>576.0</ele><time>2026-04-19T09:06:43Z</time></trkpt><trkpt lat="44.580086355879516" lon="9.270112069796978"><ele>576.0</ele><time>2026-04-19T09:06:44Z</time></trkpt><trkpt lat="44.58030268906536" lon="9.27013975879716"><ele>576.0</ele><time>2026-04-19T09:06:45Z</time></trkpt><trkpt lat="44.58051657035056" lon="9.270167133998017"><ele>576.0</ele><time>2026-04-19T09:06:46Z</time></trkpt><trkpt lat="44.58071072031156" lon="9.27019637891995"><ele>575.0</ele><time>2026-04-19T09:06:47Z</time></trkpt><trkpt lat="44.58090728396573" lon="9.270234200758518"><ele>574.0</ele><time>2026-04-19T09:06:48Z</time></trkpt><trkpt lat="44.58110265328662" lon="9.270280878578149"><ele>573.0</ele><time>2026-04-19T09:06:49Z</time></trkpt><trkpt lat="44.581297069926" lon="9.270367775536892"><ele>571.0</ele><time>2026-04-19T09:06:50Z</time></trkpt><trkpt lat="44.581484135999126" lon="9.270491694965942"><ele>569.0</ele><time>2026-04-19T09:06:51Z</time></trkpt><trkpt lat="44.5816768910784" lon="9.270625353136243"><ele>567.0</ele><time>2026-04-19T09:06:52Z</time></trkpt><trkpt lat="44.581870566367435" lon="9.270763540598521"><ele>567.5</ele><time>2026-04-19T09:06:53Z</time></trkpt><trkpt lat="44.582073149396635" lon="9.270905784318225"><ele>568.0</ele><time>2026-04-19T09:06:54Z</time></trkpt><trkpt lat="44.58228772312918" lon="9.271029341283892"><ele>568.0</ele><time>2026-04-19T09:06:55Z</time></trkpt><trkpt lat="44.58249014502203" lon="9.271173707721639"><ele>568.0</ele><time>2026-04-19T09:06:56Z</time></trkpt><trkpt lat="44.582674348811175" lon="9.271302058581528"><ele>568.0</ele><time>2026-04-19T09:06:57Z</time></trkpt><trkpt lat="44.58283775474028" lon="9.271442690188362"><ele>569.3333333333334</ele><time>2026-04-19T09:06:58Z</time></trkpt><trkpt lat="44.5830057770442" lon="9.271560258193132"><ele>570.6666666666666</ele><time>2026-04-19T09:06:59Z</time></trkpt><trkpt lat="44.583163832925095" lon="9.271676513694883"><ele>572.0</ele><time>2026-04-19T09:07:00Z</time></trkpt><trkpt lat="44.583335863972316" lon="9.271796316774664"><ele>572.0</ele><time>2026-04-19T09:07:01Z</time></trkpt><trkpt lat="44.58349320757205" lon="9.271965189481103"><ele>572.0</ele><time>2026-04-19T09:07:02Z</time></trkpt><trkpt lat="44.583613577322055" lon="9.272188029481056"><ele>572.0</ele><time>2026-04-19T09:07:03Z</time></trkpt><trkpt lat="44.58374473608048" lon="9.272424878958084"><ele>571.0</ele><time>2026-04-19T09:07:04Z</time></trkpt><trkpt lat="44.583868865838184" lon="9.272650244828036"><ele>570.0</ele><time>2026-04-19T09:07:05Z</time></trkpt><trkpt lat="44.58399404136178" lon="9.272863885365402"><ele>569.0</ele><time>2026-04-19T09:07:06Z</time></trkpt><trkpt lat="44.58411889561529" lon="9.27309130726132"><ele>571.3333333333333</ele><time>2026-04-19T09:07:07Z</time></trkpt><trkpt lat="44.58425436358294" lon="9.273315282025342"><ele>573.6666666666666</ele><time>2026-04-19T09:07:08Z</time></trkpt><trkpt lat="44.584359683917114" lon="9.273539688275111"><ele>576.0</ele><time>2026-04-19T09:07:09Z</time></trkpt><trkpt lat="44.58447152043303" lon="9.273744566337795"><ele>572.0</ele><time>2026-04-19T09:07:10Z</time></trkpt><trkpt lat="44.58456472830993" lon="9.273954225495133"><ele>568.0</ele><time>2026-04-19T09:07:11Z</time></trkpt><trkpt lat="44.58465404912787" lon="9.274211087051999"><ele>564.0</ele><time>2026-04-19T09:07:12Z</time></trkpt><trkpt lat="44.58474784376115" lon="9.274475946368609"><ele>564.0</ele><time>2026-04-19T09:07:13Z</time></trkpt><trkpt lat="44.584828954216086" lon="9.274694426862792"><ele>564.0</ele><time>2026-04-19T09:07:14Z</time></trkpt><trkpt lat="44.58492586451643" lon="9.274907220930746"><ele>564.0</ele><time>2026-04-19T09:07:15Z</time></trkpt><trkpt lat="44.585000142454355" lon="9.275128179330071"><ele>565.3333333333334</ele><time>2026-04-19T09:07:16Z</time></trkpt><trkpt lat="44.58508776834895" lon="9.275337106946314"><ele>566.6666666666667</ele><time>2026-04-19T09:07:17Z</time></trkpt><trkpt lat="44.58513980723787" lon="9.275539306665626"><ele>568.0</ele><time>2026-04-19T09:07:18Z</time></trkpt><trkpt lat="44.585200050922964" lon="9.275718091475593"><ele>570.6666666666667</ele><time>2026-04-19T09:07:19Z</time></trkpt><trkpt lat="44.58523363152717" lon="9.275936602712234"><ele>573.3333333333334</ele><time>2026-04-19T09:07:20Z</time></trkpt><trkpt lat="44.585229617201534" lon="9.27615102699587"><ele>576.0</ele><time>2026-04-19T09:07:21Z</time></trkpt><trkpt lat="44.58523663081729" lon="9.27640624704309"><ele>575.0</ele><time>2026-04-19T09:07:22Z</time></trkpt><trkpt lat="44.58525714580968" lon="9.276663051924604"><ele>574.0</ele><time>2026-04-19T09:07:23Z</time></trkpt><trkpt lat="44.585257280992174" lon="9.27689885584851"><ele>573.0</ele><time>2026-04-19T09:07:24Z</time></trkpt><trkpt lat="44.5852685613022" lon="9.277115880289653"><ele>574.3333333333334</ele><time>2026-04-19T09:07:25Z</time></trkpt><trkpt lat="44.585306794112824" lon="9.27731246232508"><ele>575.6666666666667</ele><time>2026-04-19T09:07:26Z</time></trkpt><trkpt lat="44.585388310694505" lon="9.277515645616381"><ele>577.0</ele><time>2026-04-19T09:07:27Z</time></trkpt><trkpt lat="44.58549868784511" lon="9.277719538821302"><ele>572.6666666666667</ele><time>2026-04-19T09:07:28Z</time></trkpt><trkpt lat="44.58561466153549" lon="9.277942196792603"><ele>568.3333333333334</ele><time>2026-04-19T09:07:29Z</time></trkpt><trkpt lat="44.58570830990063" lon="9.278152767596593"><ele>564.0</ele><time>2026-04-19T09:07:30Z</time></trkpt><trkpt lat="44.58580971372474" lon="9.27835252866858"><ele>564.0</ele><time>2026-04-19T09:07:31Z</time></trkpt><trkpt lat="44.585890982437704" lon="9.278523310706843"><ele>564.0</ele><time>2026-04-19T09:07:32Z</time></trkpt><trkpt lat="44.58595035338134" lon="9.278671254238892"><ele>564.0</ele><time>2026-04-19T09:07:33Z</time></trkpt><trkpt lat="44.58599129899323" lon="9.27880214938746"><ele>564.0</ele><time>2026-04-19T09:07:34Z</time></trkpt><trkpt lat="44.5860211492245" lon="9.278918618810994"><ele>565.8333333333334</ele><time>2026-04-19T09:07:34.999Z</time></trkpt><trkpt lat="44.58603993041112" lon="9.279006196187183"><ele>567.6666666666666</ele><time>2026-04-19T09:07:35.999Z</time></trkpt><trkpt lat="44.58606513551" lon="9.279117695344775"><ele>569.5</ele><time>2026-04-19T09:07:37.999Z</time></trkpt><trkpt lat="44.58609067041313" lon="9.279203175549027"><ele>571.3333333333333</ele><time>2026-04-19T09:07:42.999Z</time></trkpt><trkpt lat="44.58613942359342" lon="9.279389427326326"><ele>573.1666666666666</ele><time>2026-04-19T09:08:38Z</time></trkpt><trkpt lat="44.58617332799725" lon="9.279496478087884"><ele>575.0</ele><time>2026-04-19T09:08:39Z</time></trkpt><trkpt lat="44.58620722040506" lon="9.27960136443071"><ele>570.2</ele><time>2026-04-19T09:08:40Z</time></trkpt><trkpt lat="44.5862486687246" lon="9.279719236919263"><ele>565.4</ele><time>2026-04-19T09:08:41Z</time></trkpt><trkpt lat="44.58628632996604" lon="9.27982441039266"><ele>560.6</ele><time>2026-04-19T09:08:42Z</time></trkpt><trkpt lat="44.58632807914164" lon="9.279935864663248"><ele>555.8</ele><time>2026-04-19T09:08:43Z</time></trkpt><trkpt lat="44.58637532839816" lon="9.280058880347719"><ele>551.0</ele><time>2026-04-19T09:08:44Z</time></trkpt><trkpt lat="44.586418481349966" lon="9.280169887340051"><ele>551.0</ele><time>2026-04-19T09:08:45Z</time></trkpt><trkpt lat="44.58646428068494" lon="9.280289288011092"><ele>551.0</ele><time>2026-04-19T09:08:46Z</time></trkpt><trkpt lat="44.58651522187984" lon="9.28042461449976"><ele>551.0</ele><time>2026-04-19T09:08:47Z</time></trkpt><trkpt lat="44.58656590307772" lon="9.28055925032494"><ele>551.0</ele><time>2026-04-19T09:08:48Z</time></trkpt><trkpt lat="44.586630396385" lon="9.28068297475872"><ele>551.0</ele><time>2026-04-19T09:08:49Z</time></trkpt><trkpt lat="44.58666747691531" lon="9.28082589266647"><ele>553.2</ele><time>2026-04-19T09:08:50Z</time></trkpt><trkpt lat="44.58672620885738" lon="9.280974667918706"><ele>555.4000000000001</ele><time>2026-04-19T09:08:51Z</time></trkpt><trkpt lat="44.58679457132698" lon="9.281088900250857"><ele>557.6</ele><time>2026-04-19T09:08:52Z</time></trkpt><trkpt lat="44.5868405529925" lon="9.281217347101094"><ele>559.8000000000001</ele><time>2026-04-19T09:08:53Z</time></trkpt><trkpt lat="44.58691371561332" lon="9.281333594217164"><ele>562.0</ele><time>2026-04-19T09:08:54Z</time></trkpt><trkpt lat="44.58699291953652" lon="9.281440574876747"><ele>561.6</ele><time>2026-04-19T09:08:55Z</time></trkpt><trkpt lat="44.58706689075578" lon="9.2815391741375"><ele>561.2</ele><time>2026-04-19T09:08:56Z</time></trkpt><trkpt lat="44.587130802144515" lon="9.281619774253665"><ele>560.8</ele><time>2026-04-19T09:08:57Z</time></trkpt><trkpt lat="44.58720628059436" lon="9.281706932707019"><ele>560.4</ele><time>2026-04-19T09:08:58Z</time></trkpt><trkpt lat="44.587291376212505" lon="9.28178838710592"><ele>560.0</ele><time>2026-04-19T09:08:59Z</time></trkpt><trkpt lat="44.58738449466779" lon="9.28184992556195"><ele>560.0</ele><time>2026-04-19T09:09:00Z</time></trkpt><trkpt lat="44.58747615682861" lon="9.281933211266074"><ele>560.0</ele><time>2026-04-19T09:09:01Z</time></trkpt><trkpt lat="44.58755466309643" lon="9.281991710593374"><ele>560.0</ele><time>2026-04-19T09:09:02Z</time></trkpt><trkpt lat="44.5876355681608" lon="9.282050740188371"><ele>560.0</ele><time>2026-04-19T09:09:03Z</time></trkpt><trkpt lat="44.58772713123976" lon="9.282081908028932"><ele>560.0</ele><time>2026-04-19T09:09:04Z</time></trkpt><trkpt lat="44.58781888016032" lon="9.282110293642218"><ele>560.0</ele><time>2026-04-19T09:09:05Z</time></trkpt><trkpt lat="44.58791710288249" lon="9.282089719775252"><ele>560.0</ele><time>2026-04-19T09:09:06Z</time></trkpt><trkpt lat="44.58801160687578" lon="9.282037994566416"><ele>560.0</ele><time>2026-04-19T09:09:07Z</time></trkpt><trkpt lat="44.58809988227967" lon="9.28198501373942"><ele>560.0</ele><time>2026-04-19T09:09:08Z</time></trkpt><trkpt lat="44.58817633468541" lon="9.281910608452403"><ele>560.0</ele><time>2026-04-19T09:09:09Z</time></trkpt><trkpt lat="44.588255385244146" lon="9.281864462396571"><ele>560.0</ele><time>2026-04-19T09:09:10Z</time></trkpt><trkpt lat="44.588335565433894" lon="9.281814380676755"><ele>560.0</ele><time>2026-04-19T09:09:11Z</time></trkpt><trkpt lat="44.588423484128676" lon="9.281761260283794"><ele>560.0</ele><time>2026-04-19T09:09:12Z</time></trkpt><trkpt lat="44.58852607591457" lon="9.281745822658813"><ele>560.0</ele><time>2026-04-19T09:09:13Z</time></trkpt><trkpt lat="44.58861519496148" lon="9.28176574165936"><ele>560.0</ele><time>2026-04-19T09:09:14Z</time></trkpt><trkpt lat="44.58869899074041" lon="9.281816995912749"><ele>560.0</ele><time>2026-04-19T09:09:15Z</time></trkpt><trkpt lat="44.58878721857897" lon="9.281898670525246"><ele>560.0</ele><time>2026-04-19T09:09:16Z</time></trkpt><trkpt lat="44.58886773066018" lon="9.282007186348197"><ele>560.0</ele><time>2026-04-19T09:09:17Z</time></trkpt><trkpt lat="44.58894565890372" lon="9.28216242764396"><ele>560.0</ele><time>2026-04-19T09:09:18Z</time></trkpt><trkpt lat="44.58900806565639" lon="9.28233732009456"><ele>560.0</ele><time>2026-04-19T09:09:19Z</time></trkpt><trkpt lat="44.58908271373514" lon="9.28254239115735"><ele>560.0</ele><time>2026-04-19T09:09:20Z</time></trkpt><trkpt lat="44.58913470236707" lon="9.282769383748102"><ele>560.0</ele><time>2026-04-19T09:09:21Z</time></trkpt><trkpt lat="44.58920380075933" lon="9.28296533838781"><ele>562.6666666666666</ele><time>2026-04-19T09:09:22Z</time></trkpt><trkpt lat="44.58924029423232" lon="9.283169826401275"><ele>565.3333333333334</ele><time>2026-04-19T09:09:23Z</time></trkpt><trkpt lat="44.589244264973644" lon="9.283396262811364"><ele>568.0</ele><time>2026-04-19T09:09:24Z</time></trkpt><trkpt lat="44.589236331636315" lon="9.283628819004106"><ele>568.0</ele><time>2026-04-19T09:09:25Z</time></trkpt><trkpt lat="44.589217371853294" lon="9.283818471833278"><ele>568.0</ele><time>2026-04-19T09:09:26Z</time></trkpt><trkpt lat="44.589212976029955" lon="9.283979489351086"><ele>568.0</ele><time>2026-04-19T09:09:27Z</time></trkpt><trkpt lat="44.589242818302516" lon="9.284172398244392"><ele>568.0</ele><time>2026-04-19T09:09:28Z</time></trkpt><trkpt lat="44.5893218625633" lon="9.28439227536724"><ele>568.0</ele><time>2026-04-19T09:09:29Z</time></trkpt><trkpt lat="44.58940945407938" lon="9.28462031274634"><ele>568.0</ele><time>2026-04-19T09:09:30Z</time></trkpt><trkpt lat="44.589510601930115" lon="9.284842570820901"><ele>568.0</ele><time>2026-04-19T09:09:31Z</time></trkpt><trkpt lat="44.589587578843364" lon="9.285068884400173"><ele>565.0</ele><time>2026-04-19T09:09:32Z</time></trkpt><trkpt lat="44.58966608416818" lon="9.285282245553534"><ele>562.0</ele><time>2026-04-19T09:09:33Z</time></trkpt><trkpt lat="44.589734488526" lon="9.285461208372764"><ele>559.0</ele><time>2026-04-19T09:09:34Z</time></trkpt><trkpt lat="44.58985267919918" lon="9.285618961807993"><ele>559.0</ele><time>2026-04-19T09:09:35Z</time></trkpt><trkpt lat="44.58998640382419" lon="9.285730859598932"><ele>559.0</ele><time>2026-04-19T09:09:36Z</time></trkpt><trkpt lat="44.590095875183344" lon="9.285852167804599"><ele>559.0</ele><time>2026-04-19T09:09:37Z</time></trkpt><trkpt lat="44.59019177120874" lon="9.285973252612603"><ele>559.0</ele><time>2026-04-19T09:09:38Z</time></trkpt><trkpt lat="44.59026716067735" lon="9.286150011243162"><ele>555.0</ele><time>2026-04-19T09:09:39Z</time></trkpt><trkpt lat="44.59034160490716" lon="9.286346583845267"><ele>551.0</ele><time>2026-04-19T09:09:39.999Z</time></trkpt><trkpt lat="44.59040842807126" lon="9.286535540318217"><ele>547.0</ele><time>2026-04-19T09:09:40.999Z</time></trkpt><trkpt lat="44.590468567830996" lon="9.286727099499593"><ele>547.0</ele><time>2026-04-19T09:09:41.999Z</time></trkpt><trkpt lat="44.59052800998805" lon="9.286925451853893"><ele>547.0</ele><time>2026-04-19T09:09:42.999Z</time></trkpt><trkpt lat="44.59060693139089" lon="9.287135123322013"><ele>547.0</ele><time>2026-04-19T09:09:43.999Z</time></trkpt><trkpt lat="44.59066324891808" lon="9.287376730085768"><ele>549.0</ele><time>2026-04-19T09:09:44.999Z</time></trkpt><trkpt lat="44.59074006263459" lon="9.287579582896555"><ele>551.0</ele><time>2026-04-19T09:09:45.999Z</time></trkpt><trkpt lat="44.59079924396343" lon="9.287785208301928"><ele>553.0</ele><time>2026-04-19T09:09:46.999Z</time></trkpt><trkpt lat="44.59085122727788" lon="9.28797406099872"><ele>552.25</ele><time>2026-04-19T09:09:47.999Z</time></trkpt><trkpt lat="44.59091497110009" lon="9.288142723903052"><ele>551.5</ele><time>2026-04-19T09:09:48.999Z</time></trkpt><trkpt lat="44.59099847538233" lon="9.288289383424534"><ele>550.75</ele><time>2026-04-19T09:09:49.999Z</time></trkpt><trkpt lat="44.591098014672056" lon="9.288430483939498"><ele>550.0</ele><time>2026-04-19T09:09:50.999Z</time></trkpt><trkpt lat="44.59123755675233" lon="9.28851448881885"><ele>550.0</ele><time>2026-04-19T09:09:51.999Z</time></trkpt><trkpt lat="44.59138377726755" lon="9.288594833405297"><ele>550.0</ele><time>2026-04-19T09:09:52.999Z</time></trkpt><trkpt lat="44.59151617538273" lon="9.288673701598627"><ele>550.0</ele><time>2026-04-19T09:09:53.999Z</time></trkpt><trkpt lat="44.59163827582548" lon="9.288742002922003"><ele>550.0</ele><time>2026-04-19T09:09:54.999Z</time></trkpt><trkpt lat="44.591749092938485" lon="9.288796577751237"><ele>550.0</ele><time>2026-04-19T09:09:55.999Z</time></trkpt><trkpt lat="44.5918566057572" lon="9.28882314563018"><ele>550.0</ele><time>2026-04-19T09:09:56.999Z</time></trkpt><trkpt lat="44.591977573961906" lon="9.28880877977686"><ele>550.0</ele><time>2026-04-19T09:09:57.999Z</time></trkpt><trkpt lat="44.59210695971987" lon="9.288773236893604"><ele>550.0</ele><time>2026-04-19T09:09:58.999Z</time></trkpt><trkpt lat="44.59222920141123" lon="9.288727074545436"><ele>548.25</ele><time>2026-04-19T09:09:59.999Z</time></trkpt><trkpt lat="44.59233796271339" lon="9.288692077010229"><ele>546.5</ele><time>2026-04-19T09:10:00.999Z</time></trkpt><trkpt lat="44.592458453887" lon="9.288665665497803"><ele>544.75</ele><time>2026-04-19T09:10:01.999Z</time></trkpt><trkpt lat="44.592576979996366" lon="9.288678751167797"><ele>543.0</ele><time>2026-04-19T09:10:02.999Z</time></trkpt><trkpt lat="44.592689214671864" lon="9.288737564349114"><ele>543.0</ele><time>2026-04-19T09:10:03.999Z</time></trkpt><trkpt lat="44.59279382933144" lon="9.28881462439488"><ele>543.0</ele><time>2026-04-19T09:10:04.999Z</time></trkpt><trkpt lat="44.59287655850239" lon="9.288949532396616"><ele>543.0</ele><time>2026-04-19T09:10:05.999Z</time></trkpt><trkpt lat="44.592970184175385" lon="9.289123382811757"><ele>543.0</ele><time>2026-04-19T09:10:06.999Z</time></trkpt><trkpt lat="44.59306173983464" lon="9.289356760358283"><ele>544.3333333333334</ele><time>2026-04-19T09:10:07.999Z</time></trkpt><trkpt lat="44.59317530043867" lon="9.289603858101293"><ele>545.6666666666667</ele><time>2026-04-19T09:10:08.999Z</time></trkpt><trkpt lat="44.59329412743492" lon="9.289842511487743"><ele>547.0</ele><time>2026-04-19T09:10:09.999Z</time></trkpt><trkpt lat="44.593452993822424" lon="9.290123027918096"><ele>543.0</ele><time>2026-04-19T09:10:10.999Z</time></trkpt><trkpt lat="44.5936392792847" lon="9.290431497803548"><ele>539.0</ele><time>2026-04-19T09:10:11.999Z</time></trkpt><trkpt lat="44.593799300528744" lon="9.290767478560914"><ele>539.0</ele><time>2026-04-19T09:10:12.999Z</time></trkpt><trkpt lat="44.59388582541685" lon="9.291039027746326"><ele>539.0</ele><time>2026-04-19T09:10:14.999Z</time></trkpt><trkpt lat="44.593957485310206" lon="9.29129546640745"><ele>539.0</ele><time>2026-04-19T09:10:15.999Z</time></trkpt><trkpt lat="44.59401980561799" lon="9.291541712625698"><ele>544.0</ele><time>2026-04-19T09:10:16.999Z</time></trkpt><trkpt lat="44.59409417243247" lon="9.291742751910117"><ele>549.0</ele><time>2026-04-19T09:10:17.999Z</time></trkpt><trkpt lat="44.59416322475717" lon="9.29193806005327"><ele>554.0</ele><time>2026-04-19T09:10:18.999Z</time></trkpt><trkpt lat="44.59423956899022" lon="9.29210228580847"><ele>554.0</ele><time>2026-04-19T09:10:19.999Z</time></trkpt><trkpt lat="44.5943479348572" lon="9.292226151758753"><ele>554.0</ele><time>2026-04-19T09:10:20.999Z</time></trkpt><trkpt lat="44.594488206015725" lon="9.292333859847316"><ele>554.0</ele><time>2026-04-19T09:10:21.999Z</time></trkpt><trkpt lat="44.5946530596089" lon="9.292390446071513"><ele>554.25</ele><time>2026-04-19T09:10:22.999Z</time></trkpt><trkpt lat="44.59481549756557" lon="9.292425371028168"><ele>554.5</ele><time>2026-04-19T09:10:23.999Z</time></trkpt><trkpt lat="44.59495296994583" lon="9.292447874785598"><ele>554.75</ele><time>2026-04-19T09:10:24.999Z</time></trkpt><trkpt lat="44.5950594184728" lon="9.292559651462192"><ele>555.0</ele><time>2026-04-19T09:10:25.999Z</time></trkpt><trkpt lat="44.59517321740321" lon="9.292678246627773"><ele>555.0</ele><time>2026-04-19T09:10:26.999Z</time></trkpt><trkpt lat="44.59530642008894" lon="9.29277160262474"><ele>555.0</ele><time>2026-04-19T09:10:27.999Z</time></trkpt><trkpt lat="44.595475237327136" lon="9.29279615315439"><ele>555.0</ele><time>2026-04-19T09:10:28.999Z</time></trkpt><trkpt lat="44.59568690673796" lon="9.292848743815354"><ele>545.5</ele><time>2026-04-19T09:10:29.999Z</time></trkpt><trkpt lat="44.59591708580925" lon="9.292917496758816"><ele>536.0</ele><time>2026-04-19T09:10:30.999Z</time></trkpt><trkpt lat="44.59616884338619" lon="9.292994202411723"><ele>535.0</ele><time>2026-04-19T09:10:31.999Z</time></trkpt><trkpt lat="44.596404555107455" lon="9.293059932783327"><ele>534.0</ele><time>2026-04-19T09:10:32.999Z</time></trkpt><trkpt lat="44.596621944741266" lon="9.293137689821178"><ele>539.0</ele><time>2026-04-19T09:10:33.999Z</time></trkpt><trkpt lat="44.59684366111493" lon="9.293213187807753"><ele>544.0</ele><time>2026-04-19T09:10:34.999Z</time></trkpt><trkpt lat="44.59705085418498" lon="9.293324358980405"><ele>544.0</ele><time>2026-04-19T09:10:35.999Z</time></trkpt><trkpt lat="44.597246215019055" lon="9.293419789073358"><ele>544.0</ele><time>2026-04-19T09:10:36.999Z</time></trkpt><trkpt lat="44.597404117770054" lon="9.293552966372678"><ele>544.0</ele><time>2026-04-19T09:10:37.999Z</time></trkpt><trkpt lat="44.59756189294349" lon="9.293657908907683"><ele>544.0</ele><time>2026-04-19T09:10:38.999Z</time></trkpt><trkpt lat="44.59772043926704" lon="9.293709483694984"><ele>544.0</ele><time>2026-04-19T09:10:39.999Z</time></trkpt><trkpt lat="44.59788134735243" lon="9.293685164263623"><ele>544.0</ele><time>2026-04-19T09:10:40.999Z</time></trkpt><trkpt lat="44.598064334619636" lon="9.293629039930893"><ele>544.6666666666667</ele><time>2026-04-19T09:10:42Z</time></trkpt><trkpt lat="44.598255495394824" lon="9.293533260612666"><ele>545.3333333333334</ele><time>2026-04-19T09:10:43Z</time></trkpt><trkpt lat="44.598468811505306" lon="9.293414581226116"><ele>546.0</ele><time>2026-04-19T09:10:44Z</time></trkpt><trkpt lat="44.59866277663843" lon="9.293281256294797"><ele>548.6666666666666</ele><time>2026-04-19T09:10:45Z</time></trkpt><trkpt lat="44.59886251951781" lon="9.293181231452355"><ele>551.3333333333333</ele><time>2026-04-19T09:10:46Z</time></trkpt><trkpt lat="44.59905635480457" lon="9.293075673196535"><ele>554.0</ele><time>2026-04-19T09:10:47Z</time></trkpt><trkpt lat="44.599228995234924" lon="9.292951993263815"><ele>556.75</ele><time>2026-04-19T09:10:48Z</time></trkpt><trkpt lat="44.59937680535033" lon="9.29287335576865"><ele>559.5</ele><time>2026-04-19T09:10:49Z</time></trkpt><trkpt lat="44.599486456615125" lon="9.292768135522273"><ele>562.25</ele><time>2026-04-19T09:10:50Z</time></trkpt><trkpt lat="44.599566358559656" lon="9.292613331139307"><ele>565.0</ele><time>2026-04-19T09:10:51Z</time></trkpt><trkpt lat="44.599635167644244" lon="9.292398293088507"><ele>558.0</ele><time>2026-04-19T09:10:52Z</time></trkpt><trkpt lat="44.599711868196586" lon="9.292151226515472"><ele>551.0</ele><time>2026-04-19T09:10:53Z</time></trkpt><trkpt lat="44.59981676976476" lon="9.291929406383543"><ele>544.0</ele><time>2026-04-19T09:10:54Z</time></trkpt><trkpt lat="44.59991106867422" lon="9.291702957930703"><ele>544.0</ele><time>2026-04-19T09:10:55Z</time></trkpt><trkpt lat="44.600018497885856" lon="9.291462496195514"><ele>544.0</ele><time>2026-04-19T09:10:56Z</time></trkpt><trkpt lat="44.60012640968233" lon="9.29123950131706"><ele>544.0</ele><time>2026-04-19T09:10:57Z</time></trkpt><trkpt lat="44.600227967607104" lon="9.29104032104861"><ele>544.6666666666667</ele><time>2026-04-19T09:10:58Z</time></trkpt><trkpt lat="44.60031777723101" lon="9.290870040181034"><ele>545.3333333333334</ele><time>2026-04-19T09:10:59Z</time></trkpt><trkpt lat="44.60041644458915" lon="9.29072198030727"><ele>546.0</ele><time>2026-04-19T09:11:00Z</time></trkpt><trkpt lat="44.60055123393851" lon="9.290568339757355"><ele>541.0</ele><time>2026-04-19T09:11:01Z</time></trkpt><trkpt lat="44.60073388411039" lon="9.290490577515726"><ele>536.0</ele><time>2026-04-19T09:11:02Z</time></trkpt><trkpt lat="44.6009263094829" lon="9.29043813696213"><ele>531.0</ele><time>2026-04-19T09:11:03Z</time></trkpt><trkpt lat="44.60109729111829" lon="9.290376552481487"><ele>531.0</ele><time>2026-04-19T09:11:04Z</time></trkpt><trkpt lat="44.60125196977325" lon="9.290317089340498"><ele>531.0</ele><time>2026-04-19T09:11:05Z</time></trkpt><trkpt lat="44.60142450164348" lon="9.290315707066503"><ele>531.0</ele><time>2026-04-19T09:11:06Z</time></trkpt><trkpt lat="44.60160397715282" lon="9.29035651126984"><ele>531.0</ele><time>2026-04-19T09:11:07Z</time></trkpt><trkpt lat="44.6017955331665" lon="9.290419675603227"><ele>531.0</ele><time>2026-04-19T09:11:08Z</time></trkpt><trkpt lat="44.60197576405803" lon="9.290525004424032"><ele>531.0</ele><time>2026-04-19T09:11:09Z</time></trkpt><trkpt lat="44.60215546830677" lon="9.290624415820997"><ele>531.0</ele><time>2026-04-19T09:11:10Z</time></trkpt><trkpt lat="44.602338544364656" lon="9.290706233073147"><ele>531.0</ele><time>2026-04-19T09:11:11Z</time></trkpt><trkpt lat="44.60252832084916" lon="9.290803087531057"><ele>531.0</ele><time>2026-04-19T09:11:12Z</time></trkpt><trkpt lat="44.60270845070662" lon="9.29089243505623"><ele>528.0</ele><time>2026-04-19T09:11:13Z</time></trkpt><trkpt lat="44.60289656307022" lon="9.290984348655316"><ele>525.0</ele><time>2026-04-19T09:11:14Z</time></trkpt><trkpt lat="44.60306981235153" lon="9.291071914769796"><ele>522.0</ele><time>2026-04-19T09:11:15Z</time></trkpt><trkpt lat="44.603239232839634" lon="9.291154451228271"><ele>522.0</ele><time>2026-04-19T09:11:16Z</time></trkpt><trkpt lat="44.603413092868244" lon="9.291239637156686"><ele>522.0</ele><time>2026-04-19T09:11:17Z</time></trkpt><trkpt lat="44.603586782743335" lon="9.291333774854564"><ele>522.0</ele><time>2026-04-19T09:11:18Z</time></trkpt><trkpt lat="44.60375540353834" lon="9.291416263457613"><ele>523.0</ele><time>2026-04-19T09:11:19Z</time></trkpt><trkpt lat="44.603912835187046" lon="9.291490733316957"><ele>524.0</ele><time>2026-04-19T09:11:20Z</time></trkpt><trkpt lat="44.60405711582316" lon="9.291564548779816"><ele>525.0</ele><time>2026-04-19T09:11:21Z</time></trkpt><trkpt lat="44.60419104014244" lon="9.291634872200952"><ele>525.0</ele><time>2026-04-19T09:11:22Z</time></trkpt><trkpt lat="44.604315697258684" lon="9.291698758197914"><ele>525.0</ele><time>2026-04-19T09:11:23Z</time></trkpt><trkpt lat="44.60443883793302" lon="9.291763652751113"><ele>525.0</ele><time>2026-04-19T09:11:24Z</time></trkpt><trkpt lat="44.60455006041392" lon="9.291828979162732"><ele>525.0</ele><time>2026-04-19T09:11:25Z</time></trkpt><trkpt lat="44.60467084057359" lon="9.291932913938458"><ele>525.0</ele><time>2026-04-19T09:11:26Z</time></trkpt><trkpt lat="44.60478435981354" lon="9.29206480095904"><ele>525.0</ele><time>2026-04-19T09:11:27Z</time></trkpt><trkpt lat="44.604868752773605" lon="9.29220684967557"><ele>525.0</ele><time>2026-04-19T09:11:28Z</time></trkpt><trkpt lat="44.6049344024106" lon="9.29234463522225"><ele>525.0</ele><time>2026-04-19T09:11:29Z</time></trkpt><trkpt lat="44.604990477057015" lon="9.292471370473454"><ele>525.0</ele><time>2026-04-19T09:11:30Z</time></trkpt><trkpt lat="44.605044998260674" lon="9.292582204191092"><ele>525.0</ele><time>2026-04-19T09:11:31Z</time></trkpt><trkpt lat="44.605105685351475" lon="9.292695777681251"><ele>525.0</ele><time>2026-04-19T09:11:32Z</time></trkpt><trkpt lat="44.60515603940036" lon="9.292801956486196"><ele>525.0</ele><time>2026-04-19T09:11:33Z</time></trkpt><trkpt lat="44.60520744096557" lon="9.29291329654578"><ele>525.0</ele><time>2026-04-19T09:11:34Z</time></trkpt><trkpt lat="44.605263415717936" lon="9.29302689736967"><ele>524.8</ele><time>2026-04-19T09:11:35Z</time></trkpt><trkpt lat="44.605320727677274" lon="9.293152501309047"><ele>524.6</ele><time>2026-04-19T09:11:36Z</time></trkpt><trkpt lat="44.60537487676333" lon="9.293272364053417"><ele>524.4</ele><time>2026-04-19T09:11:37Z</time></trkpt><trkpt lat="44.60542895086225" lon="9.293382706205271"><ele>524.2</ele><time>2026-04-19T09:11:38Z</time></trkpt><trkpt lat="44.6054856620309" lon="9.293504682547198"><ele>524.0</ele><time>2026-04-19T09:11:39Z</time></trkpt><trkpt lat="44.60554506085291" lon="9.29362626255944"><ele>524.0</ele><time>2026-04-19T09:11:40Z</time></trkpt><trkpt lat="44.60560903370695" lon="9.293759855267938"><ele>524.0</ele><time>2026-04-19T09:11:41Z</time></trkpt><trkpt lat="44.6056799469288" lon="9.293898830414415"><ele>524.0</ele><time>2026-04-19T09:11:42Z</time></trkpt><trkpt lat="44.6057618886198" lon="9.294059896285287"><ele>524.0</ele><time>2026-04-19T09:11:43Z</time></trkpt><trkpt lat="44.60585052590507" lon="9.294246018838084"><ele>524.0</ele><time>2026-04-19T09:11:44Z</time></trkpt><trkpt lat="44.605940373704534" lon="9.294433447897346"><ele>524.0</ele><time>2026-04-19T09:11:44.999Z</time></trkpt><trkpt lat="44.606029958132915" lon="9.294611639024293"><ele>524.0</ele><time>2026-04-19T09:11:45.999Z</time></trkpt><trkpt lat="44.60611240058365" lon="9.294780955626898"><ele>525.25</ele><time>2026-04-19T09:11:46.999Z</time></trkpt><trkpt lat="44.60618840746185" lon="9.294935810347877"><ele>526.5</ele><time>2026-04-19T09:11:47.999Z</time></trkpt><trkpt lat="44.60625933583833" lon="9.295082055493388"><ele>527.75</ele><time>2026-04-19T09:11:48.999Z</time></trkpt><trkpt lat="44.60631645996735" lon="9.295225577469026"><ele>529.0</ele><time>2026-04-19T09:11:49.999Z</time></trkpt><trkpt lat="44.60638777150806" lon="9.29536863406426"><ele>529.0</ele><time>2026-04-19T09:11:50.999Z</time></trkpt><trkpt lat="44.6064670951332" lon="9.29551788628158"><ele>529.0</ele><time>2026-04-19T09:11:51.999Z</time></trkpt><trkpt lat="44.60654241163257" lon="9.295672561652045"><ele>529.0</ele><time>2026-04-19T09:11:52.999Z</time></trkpt><trkpt lat="44.60660796259011" lon="9.295820035385196"><ele>529.0</ele><time>2026-04-19T09:11:53.999Z</time></trkpt><trkpt lat="44.60668181971011" lon="9.295974035199224"><ele>529.25</ele><time>2026-04-19T09:11:54.999Z</time></trkpt><trkpt lat="44.606766227183165" lon="9.296144802484168"><ele>529.5</ele><time>2026-04-19T09:11:55.999Z</time></trkpt><trkpt lat="44.60683716356164" lon="9.29632902834355"><ele>529.75</ele><time>2026-04-19T09:11:56.999Z</time></trkpt><trkpt lat="44.60683951562439" lon="9.296523762437376"><ele>530.0</ele><time>2026-04-19T09:11:57.999Z</time></trkpt><trkpt lat="44.60687373879354" lon="9.296721103383025"><ele>528.6666666666666</ele><time>2026-04-19T09:11:58.999Z</time></trkpt><trkpt lat="44.606920049106165" lon="9.296929870662767"><ele>527.3333333333334</ele><time>2026-04-19T09:11:59.999Z</time></trkpt><trkpt lat="44.607015995344156" lon="9.297120811969828"><ele>526.0</ele><time>2026-04-19T09:12:00.999Z</time></trkpt><trkpt lat="44.60712161965258" lon="9.297290373217917"><ele>528.0</ele><time>2026-04-19T09:12:01.999Z</time></trkpt><trkpt lat="44.60721896381614" lon="9.297439592545917"><ele>530.0</ele><time>2026-04-19T09:12:02.999Z</time></trkpt><trkpt lat="44.607294365083725" lon="9.297587760792124"><ele>532.0</ele><time>2026-04-19T09:12:03.999Z</time></trkpt><trkpt lat="44.607366075045555" lon="9.297708241646383"><ele>534.0</ele><time>2026-04-19T09:12:04.999Z</time></trkpt><trkpt lat="44.607439411991564" lon="9.297822211059998"><ele>534.0</ele><time>2026-04-19T09:12:05.999Z</time></trkpt><trkpt lat="44.6075469169791" lon="9.297920983988002"><ele>534.0</ele><time>2026-04-19T09:12:06.999Z</time></trkpt><trkpt lat="44.60768442515916" lon="9.298001230332762"><ele>534.0</ele><time>2026-04-19T09:12:07.999Z</time></trkpt><trkpt lat="44.60782171450781" lon="9.298054232935394"><ele>534.0</ele><time>2026-04-19T09:12:08.999Z</time></trkpt><trkpt lat="44.607936851327416" lon="9.298115365639104"><ele>538.75</ele><time>2026-04-19T09:12:09.999Z</time></trkpt><trkpt lat="44.60802233961697" lon="9.298217865785674"><ele>543.5</ele><time>2026-04-19T09:12:10.999Z</time></trkpt><trkpt lat="44.608078061146095" lon="9.298385674380809"><ele>548.25</ele><time>2026-04-19T09:12:11.999Z</time></trkpt><trkpt lat="44.60809714930087" lon="9.29860417720909"><ele>553.0</ele><time>2026-04-19T09:12:12.999Z</time></trkpt><trkpt lat="44.60813215792703" lon="9.29883384430561"><ele>551.0</ele><time>2026-04-19T09:12:13.999Z</time></trkpt><trkpt lat="44.60815544604509" lon="9.29905381221886"><ele>549.0</ele><time>2026-04-19T09:12:14.999Z</time></trkpt><trkpt lat="44.6081875046087" lon="9.29928788703319"><ele>547.0</ele><time>2026-04-19T09:12:15.999Z</time></trkpt><trkpt lat="44.6082212274396" lon="9.299527191797528"><ele>545.0</ele><time>2026-04-19T09:12:16.999Z</time></trkpt><trkpt lat="44.60825776289659" lon="9.299774473749789"><ele>543.0</ele><time>2026-04-19T09:12:17.999Z</time></trkpt><trkpt lat="44.60828793103799" lon="9.299989116330956"><ele>541.0</ele><time>2026-04-19T09:12:18.999Z</time></trkpt><trkpt lat="44.60829462635179" lon="9.300217364585258"><ele>541.0</ele><time>2026-04-19T09:12:19.999Z</time></trkpt><trkpt lat="44.60830855857032" lon="9.300428374950757"><ele>541.0</ele><time>2026-04-19T09:12:20.999Z</time></trkpt><trkpt lat="44.608306342051385" lon="9.300676864039374"><ele>541.0</ele><time>2026-04-19T09:12:21.999Z</time></trkpt><trkpt lat="44.60829798976642" lon="9.300912137386048"><ele>538.3333333333334</ele><time>2026-04-19T09:12:22.999Z</time></trkpt><trkpt lat="44.60831189075655" lon="9.301174464704001"><ele>535.6666666666666</ele><time>2026-04-19T09:12:23.999Z</time></trkpt><trkpt lat="44.60834242204282" lon="9.30142502157313"><ele>533.0</ele><time>2026-04-19T09:12:24.999Z</time></trkpt><trkpt lat="44.60838525363008" lon="9.301671420841611"><ele>532.6666666666666</ele><time>2026-04-19T09:12:25.999Z</time></trkpt><trkpt lat="44.60841205083999" lon="9.301900304849987"><ele>532.3333333333334</ele><time>2026-04-19T09:12:26.999Z</time></trkpt><trkpt lat="44.60842506144913" lon="9.30211876503742"><ele>532.0</ele><time>2026-04-19T09:12:27.999Z</time></trkpt><trkpt lat="44.60845313700627" lon="9.302316984220512"><ele>532.0</ele><time>2026-04-19T09:12:28.999Z</time></trkpt><trkpt lat="44.6084777060789" lon="9.30250474997197"><ele>532.0</ele><time>2026-04-19T09:12:29.999Z</time></trkpt><trkpt lat="44.608476256719314" lon="9.302673786941757"><ele>532.0</ele><time>2026-04-19T09:12:30.999Z</time></trkpt><trkpt lat="44.6084103945341" lon="9.302840575806195"><ele>532.0</ele><time>2026-04-19T09:12:31.999Z</time></trkpt><trkpt lat="44.60833517045468" lon="9.303030336270924"><ele>532.6666666666667</ele><time>2026-04-19T09:12:32.999Z</time></trkpt><trkpt lat="44.608246830186225" lon="9.303264378667883"><ele>533.3333333333334</ele><time>2026-04-19T09:12:33.999Z</time></trkpt><trkpt lat="44.608145747873444" lon="9.303462750837092"><ele>534.0</ele><time>2026-04-19T09:12:34.999Z</time></trkpt><trkpt lat="44.60802943395089" lon="9.30364285130805"><ele>534.0</ele><time>2026-04-19T09:12:35.999Z</time></trkpt><trkpt lat="44.60788111648545" lon="9.303802747943433"><ele>534.0</ele><time>2026-04-19T09:12:36.999Z</time></trkpt><trkpt lat="44.60773915990829" lon="9.30392408713358"><ele>534.0</ele><time>2026-04-19T09:12:37.999Z</time></trkpt><trkpt lat="44.60761490013139" lon="9.304036710529553"><ele>533.6666666666666</ele><time>2026-04-19T09:12:38.999Z</time></trkpt><trkpt lat="44.60748474257455" lon="9.304144757737609"><ele>533.3333333333333</ele><time>2026-04-19T09:12:39.999Z</time></trkpt><trkpt lat="44.607346785816155" lon="9.304219819310713"><ele>533.0</ele><time>2026-04-19T09:12:40.999Z</time></trkpt><trkpt lat="44.607195664368646" lon="9.30426579888998"><ele>533.0</ele><time>2026-04-19T09:12:41.999Z</time></trkpt><trkpt lat="44.60703610709572" lon="9.304270746466916"><ele>533.0</ele><time>2026-04-19T09:12:42.999Z</time></trkpt><trkpt lat="44.60691086788705" lon="9.30425661740709"><ele>533.0</ele><time>2026-04-19T09:12:43.999Z</time></trkpt><trkpt lat="44.606808477167135" lon="9.304277901621225"><ele>533.0</ele><time>2026-04-19T09:12:44.999Z</time></trkpt><trkpt lat="44.60671864122659" lon="9.30437493485511"><ele>531.5</ele><time>2026-04-19T09:12:45.999Z</time></trkpt><trkpt lat="44.60665545469854" lon="9.304527642161068"><ele>530.0</ele><time>2026-04-19T09:12:46.999Z</time></trkpt><trkpt lat="44.60665640130133" lon="9.304720856554882"><ele>528.5</ele><time>2026-04-19T09:12:48Z</time></trkpt><trkpt lat="44.6066604821087" lon="9.304913429243767"><ele>527.0</ele><time>2026-04-19T09:12:49Z</time></trkpt><trkpt lat="44.606682368551816" lon="9.30514095371233"><ele>527.0</ele><time>2026-04-19T09:12:50Z</time></trkpt><trkpt lat="44.60670901503866" lon="9.305349040477386"><ele>527.0</ele><time>2026-04-19T09:12:51Z</time></trkpt><trkpt lat="44.60674417755956" lon="9.305600098196408"><ele>527.0</ele><time>2026-04-19T09:12:52Z</time></trkpt><trkpt lat="44.60678170947077" lon="9.305839209407148"><ele>527.0</ele><time>2026-04-19T09:12:53Z</time></trkpt><trkpt lat="44.60682151187277" lon="9.306047327616128"><ele>527.0</ele><time>2026-04-19T09:12:54Z</time></trkpt><trkpt lat="44.606865406615036" lon="9.306210727617444"><ele>527.0</ele><time>2026-04-19T09:12:55Z</time></trkpt><trkpt lat="44.60692881475343" lon="9.306361398522439"><ele>527.0</ele><time>2026-04-19T09:12:56Z</time></trkpt><trkpt lat="44.607018622708566" lon="9.306531185612181"><ele>526.6666666666666</ele><time>2026-04-19T09:12:57Z</time></trkpt><trkpt lat="44.60716832361204" lon="9.306696892447379"><ele>526.3333333333334</ele><time>2026-04-19T09:12:58Z</time></trkpt><trkpt lat="44.60732358949246" lon="9.306858857285205"><ele>526.0</ele><time>2026-04-19T09:12:59Z</time></trkpt><trkpt lat="44.607489333538496" lon="9.30700435704246"><ele>526.0</ele><time>2026-04-19T09:13:00Z</time></trkpt><trkpt lat="44.60765708462399" lon="9.307120502703137"><ele>526.0</ele><time>2026-04-19T09:13:01Z</time></trkpt><trkpt lat="44.60785522756814" lon="9.307098775969813"><ele>526.0</ele><time>2026-04-19T09:13:02Z</time></trkpt><trkpt lat="44.607813085614104" lon="9.307015963042437"><ele>526.6666666666667</ele><time>2026-04-19T09:13:03Z</time></trkpt><trkpt lat="44.6080087578772" lon="9.30700548220913"><ele>527.3333333333334</ele><time>2026-04-19T09:13:04Z</time></trkpt><trkpt lat="44.60820896587234" lon="9.307012942727102"><ele>528.0</ele><time>2026-04-19T09:13:05Z</time></trkpt><trkpt lat="44.60837877052924" lon="9.30704177386771"><ele>528.0</ele><time>2026-04-19T09:13:06Z</time></trkpt><trkpt lat="44.60852975205541" lon="9.307073928601305"><ele>528.0</ele><time>2026-04-19T09:13:07Z</time></trkpt><trkpt lat="44.6086660329535" lon="9.30707967893927"><ele>528.0</ele><time>2026-04-19T09:13:08Z</time></trkpt><trkpt lat="44.60880673628661" lon="9.307029976784007"><ele>528.0</ele><time>2026-04-19T09:13:09Z</time></trkpt><trkpt lat="44.608981207917644" lon="9.30694889321732"><ele>528.6666666666666</ele><time>2026-04-19T09:13:10Z</time></trkpt><trkpt lat="44.60913702523959" lon="9.30688280323065"><ele>529.3333333333333</ele><time>2026-04-19T09:13:11Z</time></trkpt><trkpt lat="44.60931674800668" lon="9.306810511793483"><ele>530.0</ele><time>2026-04-19T09:13:12Z</time></trkpt><trkpt lat="44.6094871066815" lon="9.30676380025208"><ele>531.6666666666666</ele><time>2026-04-19T09:13:13Z</time></trkpt><trkpt lat="44.6096474736141" lon="9.306733209786081"><ele>533.3333333333334</ele><time>2026-04-19T09:13:14Z</time></trkpt><trkpt lat="44.60979794607331" lon="9.306731100222754"><ele>535.0</ele><time>2026-04-19T09:13:15Z</time></trkpt><trkpt lat="44.60994222372831" lon="9.306709000512752"><ele>535.0</ele><time>2026-04-19T09:13:16Z</time></trkpt><trkpt lat="44.610075950054906" lon="9.306698231278709"><ele>535.0</ele><time>2026-04-19T09:13:17Z</time></trkpt><trkpt lat="44.6102025366179" lon="9.30673761846749"><ele>535.0</ele><time>2026-04-19T09:13:18Z</time></trkpt><trkpt lat="44.61033579998852" lon="9.3068231691239"><ele>535.0</ele><time>2026-04-19T09:13:19Z</time></trkpt><trkpt lat="44.61047299439502" lon="9.306937445720072"><ele>532.6</ele><time>2026-04-19T09:13:20Z</time></trkpt><trkpt lat="44.610568892588084" lon="9.307049058416787"><ele>530.2</ele><time>2026-04-19T09:13:21Z</time></trkpt><trkpt lat="44.61061052227451" lon="9.307170852789302"><ele>527.8</ele><time>2026-04-19T09:13:22Z</time></trkpt><trkpt lat="44.61058763014794" lon="9.307292753797004"><ele>525.4</ele><time>2026-04-19T09:13:23Z</time></trkpt><trkpt lat="44.6105736991999" lon="9.307467165210591"><ele>523.0</ele><time>2026-04-19T09:13:24Z</time></trkpt><trkpt lat="44.61058551958708" lon="9.307637097517128"><ele>523.0</ele><time>2026-04-19T09:13:25Z</time></trkpt><trkpt lat="44.61063524532084" lon="9.307796470890473"><ele>523.0</ele><time>2026-04-19T09:13:26Z</time></trkpt><trkpt lat="44.61072502549867" lon="9.30796912788369"><ele>523.0</ele><time>2026-04-19T09:13:27Z</time></trkpt><trkpt lat="44.610841336756366" lon="9.308142272994317"><ele>523.0</ele><time>2026-04-19T09:13:28Z</time></trkpt><trkpt lat="44.61095809575988" lon="9.308308755666639"><ele>525.0</ele><time>2026-04-19T09:13:29Z</time></trkpt><trkpt lat="44.61106162883162" lon="9.308482790785197"><ele>527.0</ele><time>2026-04-19T09:13:30Z</time></trkpt><trkpt lat="44.61115819594467" lon="9.308645859656822"><ele>529.0</ele><time>2026-04-19T09:13:31Z</time></trkpt><trkpt lat="44.611223729153366" lon="9.308772824302592"><ele>531.0</ele><time>2026-04-19T09:13:32Z</time></trkpt><trkpt lat="44.61125713533508" lon="9.30888496816166"><ele>534.5</ele><time>2026-04-19T09:13:33Z</time></trkpt><trkpt lat="44.61124115916175" lon="9.309036209600803"><ele>538.0</ele><time>2026-04-19T09:13:34Z</time></trkpt><trkpt lat="44.611185698304915" lon="9.309193730981285"><ele>541.5</ele><time>2026-04-19T09:13:35Z</time></trkpt><trkpt lat="44.61113357815867" lon="9.309381298164531"><ele>545.0</ele><time>2026-04-19T09:13:36Z</time></trkpt><trkpt lat="44.61110458009" lon="9.309609186843982"><ele>537.5</ele><time>2026-04-19T09:13:37Z</time></trkpt><trkpt lat="44.611086149674044" lon="9.309805395539017"><ele>530.0</ele><time>2026-04-19T09:13:38Z</time></trkpt><trkpt lat="44.61105562871865" lon="9.309994920827556"><ele>522.5</ele><time>2026-04-19T09:13:39Z</time></trkpt><trkpt lat="44.61097577299599" lon="9.310163123582695"><ele>515.0</ele><time>2026-04-19T09:13:40Z</time></trkpt><trkpt lat="44.610854072789124" lon="9.310321874549384"><ele>515.0</ele><time>2026-04-19T09:13:41Z</time></trkpt><trkpt lat="44.610738347448475" lon="9.310490176875273"><ele>515.0</ele><time>2026-04-19T09:13:42Z</time></trkpt><trkpt lat="44.61062396156166" lon="9.31067021146066"><ele>515.0</ele><time>2026-04-19T09:13:43Z</time></trkpt><trkpt lat="44.610508057016986" lon="9.31084116887655"><ele>513.5</ele><time>2026-04-19T09:13:44Z</time></trkpt><trkpt lat="44.61041326675399" lon="9.310992244113233"><ele>512.0</ele><time>2026-04-19T09:13:45Z</time></trkpt><trkpt lat="44.61032715890476" lon="9.311137672042507"><ele>510.5</ele><time>2026-04-19T09:13:46Z</time></trkpt><trkpt lat="44.610245881750444" lon="9.311276268314934"><ele>509.0</ele><time>2026-04-19T09:13:47Z</time></trkpt><trkpt lat="44.61017297265037" lon="9.311403959496634"><ele>509.5</ele><time>2026-04-19T09:13:48Z</time></trkpt><trkpt lat="44.61010499749535" lon="9.311539682774484"><ele>510.0</ele><time>2026-04-19T09:13:49Z</time></trkpt><trkpt lat="44.610069028494486" lon="9.311693780229206"><ele>510.5</ele><time>2026-04-19T09:13:50Z</time></trkpt><trkpt lat="44.61007051260444" lon="9.311866220611305"><ele>511.0</ele><time>2026-04-19T09:13:51Z</time></trkpt><trkpt lat="44.61009889040667" lon="9.312055537725481"><ele>511.0</ele><time>2026-04-19T09:13:52Z</time></trkpt><trkpt lat="44.61015263378943" lon="9.312234929408895"><ele>511.0</ele><time>2026-04-19T09:13:52.999Z</time></trkpt><trkpt lat="44.61022053396227" lon="9.312394268309268"><ele>511.0</ele><time>2026-04-19T09:13:53.999Z</time></trkpt><trkpt lat="44.61028509907096" lon="9.312572676342873"><ele>511.0</ele><time>2026-04-19T09:13:54.999Z</time></trkpt><trkpt lat="44.61033902424562" lon="9.312745722697375"><ele>515.0</ele><time>2026-04-19T09:13:55.999Z</time></trkpt><trkpt lat="44.61038296853227" lon="9.31293068217253"><ele>519.0</ele><time>2026-04-19T09:13:56.999Z</time></trkpt><trkpt lat="44.61041691369488" lon="9.31312020267232"><ele>523.0</ele><time>2026-04-19T09:13:57.999Z</time></trkpt><trkpt lat="44.61045458624385" lon="9.313300944484846"><ele>527.0</ele><time>2026-04-19T09:13:58.999Z</time></trkpt><trkpt lat="44.61048433807751" lon="9.313475403902912"><ele>527.0</ele><time>2026-04-19T09:13:59.999Z</time></trkpt><trkpt lat="44.61049517519937" lon="9.313661639214262"><ele>527.0</ele><time>2026-04-19T09:14:00.999Z</time></trkpt><trkpt lat="44.61048920626329" lon="9.313862301004901"><ele>527.0</ele><time>2026-04-19T09:14:01.999Z</time></trkpt><trkpt lat="44.61048657880148" lon="9.314045850386831"><ele>527.0</ele><time>2026-04-19T09:14:02.999Z</time></trkpt><trkpt lat="44.61049344376439" lon="9.314214401508899"><ele>527.0</ele><time>2026-04-19T09:14:03.999Z</time></trkpt><trkpt lat="44.61049560215262" lon="9.314395230939407"><ele>527.0</ele><time>2026-04-19T09:14:04.999Z</time></trkpt><trkpt lat="44.61049887741953" lon="9.314593638300925"><ele>527.0</ele><time>2026-04-19T09:14:05.999Z</time></trkpt><trkpt lat="44.610534121867744" lon="9.314788995254233"><ele>527.0</ele><time>2026-04-19T09:14:06.999Z</time></trkpt><trkpt lat="44.610583138987344" lon="9.31497834067367"><ele>525.0</ele><time>2026-04-19T09:14:07.999Z</time></trkpt><trkpt lat="44.61062929927962" lon="9.315181069208592"><ele>523.0</ele><time>2026-04-19T09:14:08.999Z</time></trkpt><trkpt lat="44.610686375222016" lon="9.315361431071622"><ele>521.0</ele><time>2026-04-19T09:14:09.999Z</time></trkpt><trkpt lat="44.610727831844144" lon="9.315514537618707"><ele>519.0</ele><time>2026-04-19T09:14:10.999Z</time></trkpt><trkpt lat="44.61076107583137" lon="9.315662210932386"><ele>518.75</ele><time>2026-04-19T09:14:11.999Z</time></trkpt><trkpt lat="44.6107895688389" lon="9.315815247525537"><ele>518.5</ele><time>2026-04-19T09:14:12.999Z</time></trkpt><trkpt lat="44.610814903259175" lon="9.315974077863135"><ele>518.25</ele><time>2026-04-19T09:14:13.999Z</time></trkpt><trkpt lat="44.61083439438245" lon="9.316149987731109"><ele>518.0</ele><time>2026-04-19T09:14:14.999Z</time></trkpt><trkpt lat="44.610832204667" lon="9.316328972807108"><ele>517.75</ele><time>2026-04-19T09:14:15.999Z</time></trkpt><trkpt lat="44.61080298096243" lon="9.316485917949192"><ele>517.5</ele><time>2026-04-19T09:14:16.999Z</time></trkpt><trkpt lat="44.61073925506215" lon="9.316642861204388"><ele>517.25</ele><time>2026-04-19T09:14:17.999Z</time></trkpt><trkpt lat="44.61070055282472" lon="9.316802857640855"><ele>517.0</ele><time>2026-04-19T09:14:18.999Z</time></trkpt><trkpt lat="44.6107108529377" lon="9.316995524347158"><ele>517.0</ele><time>2026-04-19T09:14:19.999Z</time></trkpt><trkpt lat="44.61074406433785" lon="9.317190351502822"><ele>517.0</ele><time>2026-04-19T09:14:20.999Z</time></trkpt><trkpt lat="44.61076286702803" lon="9.317368726513926"><ele>517.0</ele><time>2026-04-19T09:14:21.999Z</time></trkpt><trkpt lat="44.61076537204761" lon="9.317560380145913"><ele>517.0</ele><time>2026-04-19T09:14:22.999Z</time></trkpt><trkpt lat="44.61075397147606" lon="9.317734899481101"><ele>515.75</ele><time>2026-04-19T09:14:23.999Z</time></trkpt><trkpt lat="44.61074946504923" lon="9.317888834720536"><ele>514.5</ele><time>2026-04-19T09:14:24.999Z</time></trkpt><trkpt lat="44.61079265608828" lon="9.318023972602138"><ele>513.25</ele><time>2026-04-19T09:14:25.999Z</time></trkpt><trkpt lat="44.610882557118416" lon="9.318144349509902"><ele>512.0</ele><time>2026-04-19T09:14:26.999Z</time></trkpt><trkpt lat="44.61101128791068" lon="9.318185165244932"><ele>509.3333333333333</ele><time>2026-04-19T09:14:27.999Z</time></trkpt><trkpt lat="44.61115655116879" lon="9.318283218542248"><ele>506.66666666666663</ele><time>2026-04-19T09:14:28.999Z</time></trkpt><trkpt lat="44.611300351335075" lon="9.318414745231038"><ele>504.0</ele><time>2026-04-19T09:14:29.999Z</time></trkpt><trkpt lat="44.61144471243763" lon="9.318550071842077"><ele>504.25</ele><time>2026-04-19T09:14:30.999Z</time></trkpt><trkpt lat="44.611572404430966" lon="9.318670691221742"><ele>504.5</ele><time>2026-04-19T09:14:31.999Z</time></trkpt><trkpt lat="44.61167953789489" lon="9.318768140680351"><ele>504.75</ele><time>2026-04-19T09:14:32.999Z</time></trkpt><trkpt lat="44.611769154082616" lon="9.318849585782232"><ele>505.0</ele><time>2026-04-19T09:14:33.999Z</time></trkpt><trkpt lat="44.6118410738198" lon="9.318930276230875"><ele>505.0</ele><time>2026-04-19T09:14:34.999Z</time></trkpt><trkpt lat="44.61190412801165" lon="9.319015584036201"><ele>505.0</ele><time>2026-04-19T09:14:35.999Z</time></trkpt><trkpt lat="44.61187405327147" lon="9.319185879319196"><ele>505.0</ele><time>2026-04-19T09:14:36.999Z</time></trkpt><trkpt lat="44.61188303346774" lon="9.319371488177085"><ele>505.0</ele><time>2026-04-19T09:14:37.999Z</time></trkpt><trkpt lat="44.61187198246821" lon="9.319555048318488"><ele>505.0</ele><time>2026-04-19T09:14:38.999Z</time></trkpt><trkpt lat="44.611883854947486" lon="9.319695263895895"><ele>505.0</ele><time>2026-04-19T09:14:39.999Z</time></trkpt><trkpt lat="44.61194109948542" lon="9.319815278864153"><ele>505.0</ele><time>2026-04-19T09:14:40.999Z</time></trkpt><trkpt lat="44.612048926589814" lon="9.319926895467017"><ele>505.0</ele><time>2026-04-19T09:14:41.999Z</time></trkpt><trkpt lat="44.61218645093976" lon="9.320040053241218"><ele>505.0</ele><time>2026-04-19T09:14:42.999Z</time></trkpt><trkpt lat="44.61234110624591" lon="9.320169447321971"><ele>505.0</ele><time>2026-04-19T09:14:43.999Z</time></trkpt><trkpt lat="44.612486977573006" lon="9.320294533651689"><ele>505.0</ele><time>2026-04-19T09:14:44.999Z</time></trkpt><trkpt lat="44.61260870587323" lon="9.320406250962064"><ele>505.0</ele><time>2026-04-19T09:14:45.999Z</time></trkpt><trkpt lat="44.61271299416314" lon="9.320507462217117"><ele>505.0</ele><time>2026-04-19T09:14:46.999Z</time></trkpt><trkpt lat="44.61281348096434" lon="9.320611681087893"><ele>505.0</ele><time>2026-04-19T09:14:47.999Z</time></trkpt><trkpt lat="44.61287473348159" lon="9.320788128777284"><ele>505.0</ele><time>2026-04-19T09:14:48.999Z</time></trkpt><trkpt lat="44.612920692574775" lon="9.321008597345203"><ele>504.25</ele><time>2026-04-19T09:14:49.999Z</time></trkpt><trkpt lat="44.61295176056576" lon="9.321211518207718"><ele>503.5</ele><time>2026-04-19T09:14:50.999Z</time></trkpt><trkpt lat="44.6129860143595" lon="9.321369070042019"><ele>502.75</ele><time>2026-04-19T09:14:51.999Z</time></trkpt><trkpt lat="44.6130194917713" lon="9.321502167261503"><ele>502.0</ele><time>2026-04-19T09:14:52.999Z</time></trkpt><trkpt lat="44.61305029231518" lon="9.32161610639016"><ele>505.0</ele><time>2026-04-19T09:14:54Z</time></trkpt><trkpt lat="44.61311414139036" lon="9.321679936390598"><ele>508.00000000000006</ele><time>2026-04-19T09:14:55Z</time></trkpt><trkpt lat="44.61321523754791" lon="9.32169921269075"><ele>511.00000000000006</ele><time>2026-04-19T09:14:56Z</time></trkpt><trkpt lat="44.61333033381805" lon="9.321680480467824"><ele>514.0</ele><time>2026-04-19T09:14:57Z</time></trkpt><trkpt lat="44.61345971612883" lon="9.321631592146202"><ele>517.0</ele><time>2026-04-19T09:14:58Z</time></trkpt><trkpt lat="44.613613643561955" lon="9.321601029075953"><ele>518.3333333333334</ele><time>2026-04-19T09:14:59Z</time></trkpt><trkpt lat="44.613776471919145" lon="9.32155987310625"><ele>519.6666666666666</ele><time>2026-04-19T09:15:00Z</time></trkpt><trkpt lat="44.6139316897016" lon="9.321498474921118"><ele>521.0</ele><time>2026-04-19T09:15:01Z</time></trkpt><trkpt lat="44.61407221533315" lon="9.321468969252983"><ele>521.0</ele><time>2026-04-19T09:15:02Z</time></trkpt><trkpt lat="44.61419314264712" lon="9.321442045063213"><ele>521.0</ele><time>2026-04-19T09:15:03Z</time></trkpt><trkpt lat="44.6143184435819" lon="9.32141464969099"><ele>521.0</ele><time>2026-04-19T09:15:04Z</time></trkpt><trkpt lat="44.61445213318049" lon="9.321394373997109"><ele>521.0</ele><time>2026-04-19T09:15:05Z</time></trkpt><trkpt lat="44.61457955767388" lon="9.321385736250308"><ele>518.5</ele><time>2026-04-19T09:15:06Z</time></trkpt><trkpt lat="44.61470055510311" lon="9.321414729249895"><ele>516.0</ele><time>2026-04-19T09:15:07Z</time></trkpt><trkpt lat="44.61481034644557" lon="9.321484411307228"><ele>513.5</ele><time>2026-04-19T09:15:08Z</time></trkpt><trkpt lat="44.614904695235886" lon="9.3216087460224"><ele>511.0</ele><time>2026-04-19T09:15:09Z</time></trkpt><trkpt lat="44.61503215442551" lon="9.321725094687146"><ele>511.0</ele><time>2026-04-19T09:15:10Z</time></trkpt><trkpt lat="44.61517091649109" lon="9.32180855322044"><ele>511.0</ele><time>2026-04-19T09:15:11Z</time></trkpt><trkpt lat="44.615324375892584" lon="9.321836840283675"><ele>511.0</ele><time>2026-04-19T09:15:12Z</time></trkpt><trkpt lat="44.61547115020623" lon="9.321842962136834"><ele>510.33333333333337</ele><time>2026-04-19T09:15:13Z</time></trkpt><trkpt lat="44.61562622757412" lon="9.32183564626141"><ele>509.66666666666663</ele><time>2026-04-19T09:15:14Z</time></trkpt><trkpt lat="44.6157877615145" lon="9.321824503000013"><ele>509.0</ele><time>2026-04-19T09:15:15Z</time></trkpt><trkpt lat="44.61594623387063" lon="9.32182464117894"><ele>509.0</ele><time>2026-04-19T09:15:16Z</time></trkpt><trkpt lat="44.616093368440694" lon="9.32180893416128"><ele>509.0</ele><time>2026-04-19T09:15:17Z</time></trkpt><trkpt lat="44.61622783126643" lon="9.321804661725542"><ele>509.0</ele><time>2026-04-19T09:15:18Z</time></trkpt><trkpt lat="44.61635241457699" lon="9.321794186308884"><ele>509.0</ele><time>2026-04-19T09:15:19Z</time></trkpt><trkpt lat="44.61648645534837" lon="9.321795502015895"><ele>506.66666666666663</ele><time>2026-04-19T09:15:20Z</time></trkpt><trkpt lat="44.6166324532322" lon="9.321841657865164"><ele>504.33333333333337</ele><time>2026-04-19T09:15:21Z</time></trkpt><trkpt lat="44.61679704318301" lon="9.321874763968955"><ele>502.0</ele><time>2026-04-19T09:15:22Z</time></trkpt><trkpt lat="44.61694316711857" lon="9.321957125251984"><ele>499.0</ele><time>2026-04-19T09:15:23Z</time></trkpt><trkpt lat="44.617067521375866" lon="9.32205823490951"><ele>496.0</ele><time>2026-04-19T09:15:24Z</time></trkpt><trkpt lat="44.61718297955985" lon="9.322168518542592"><ele>493.0</ele><time>2026-04-19T09:15:25Z</time></trkpt><trkpt lat="44.61730145350226" lon="9.322303233843119"><ele>490.0</ele><time>2026-04-19T09:15:26Z</time></trkpt><trkpt lat="44.61741055502019" lon="9.322456536590375"><ele>490.0</ele><time>2026-04-19T09:15:27Z</time></trkpt><trkpt lat="44.61753499767195" lon="9.322625949960983"><ele>490.0</ele><time>2026-04-19T09:15:28Z</time></trkpt><trkpt lat="44.617657251087806" lon="9.322781974495038"><ele>490.0</ele><time>2026-04-19T09:15:29Z</time></trkpt><trkpt lat="44.61778315000415" lon="9.322953567828312"><ele>493.0</ele><time>2026-04-19T09:15:30Z</time></trkpt><trkpt lat="44.61792405075325" lon="9.323123185858407"><ele>496.0</ele><time>2026-04-19T09:15:31Z</time></trkpt><trkpt lat="44.618061224980245" lon="9.323317413250845"><ele>499.0</ele><time>2026-04-19T09:15:32Z</time></trkpt><trkpt lat="44.61818950960966" lon="9.323515722237238"><ele>499.0</ele><time>2026-04-19T09:15:33Z</time></trkpt><trkpt lat="44.61832472293524" lon="9.323682206371"><ele>499.0</ele><time>2026-04-19T09:15:34Z</time></trkpt><trkpt lat="44.61845955968819" lon="9.323862088229676"><ele>499.0</ele><time>2026-04-19T09:15:35Z</time></trkpt><trkpt lat="44.618598422202176" lon="9.324046427939992"><ele>500.6666666666667</ele><time>2026-04-19T09:15:36Z</time></trkpt><trkpt lat="44.61874145098063" lon="9.324236917676405"><ele>502.33333333333337</ele><time>2026-04-19T09:15:37Z</time></trkpt><trkpt lat="44.618873051344245" lon="9.324411238031002"><ele>504.0</ele><time>2026-04-19T09:15:38Z</time></trkpt><trkpt lat="44.619005379164726" lon="9.324596249054187"><ele>500.0</ele><time>2026-04-19T09:15:39Z</time></trkpt><trkpt lat="44.61914356048553" lon="9.32479127246074"><ele>496.0</ele><time>2026-04-19T09:15:40Z</time></trkpt><trkpt lat="44.61929573576577" lon="9.324985299631255"><ele>492.0</ele><time>2026-04-19T09:15:41Z</time></trkpt><trkpt lat="44.61944703554737" lon="9.325177969338977"><ele>490.66666666666663</ele><time>2026-04-19T09:15:42Z</time></trkpt><trkpt lat="44.61960461334182" lon="9.325382048508299"><ele>489.3333333333333</ele><time>2026-04-19T09:15:43Z</time></trkpt><trkpt lat="44.61976327620843" lon="9.325598852348842"><ele>488.0</ele><time>2026-04-19T09:15:44Z</time></trkpt><trkpt lat="44.619912934485626" lon="9.3257949461406"><ele>488.0</ele><time>2026-04-19T09:15:45Z</time></trkpt><trkpt lat="44.62004617813734" lon="9.325993853726729"><ele>488.0</ele><time>2026-04-19T09:15:46Z</time></trkpt><trkpt lat="44.62018270378714" lon="9.326163919880296"><ele>488.0</ele><time>2026-04-19T09:15:47Z</time></trkpt><trkpt lat="44.62031234541209" lon="9.326354929810568"><ele>486.66666666666663</ele><time>2026-04-19T09:15:48Z</time></trkpt><trkpt lat="44.62043719341784" lon="9.326566944557278"><ele>485.33333333333337</ele><time>2026-04-19T09:15:49Z</time></trkpt><trkpt lat="44.62054925942239" lon="9.326790544707759"><ele>484.0</ele><time>2026-04-19T09:15:50Z</time></trkpt><trkpt lat="44.620650937017025" lon="9.32700303845295"><ele>483.6666666666667</ele><time>2026-04-19T09:15:51Z</time></trkpt><trkpt lat="44.62075275922633" lon="9.327234927527652"><ele>483.33333333333337</ele><time>2026-04-19T09:15:52Z</time></trkpt><trkpt lat="44.62086031089892" lon="9.3274844378114"><ele>483.0</ele><time>2026-04-19T09:15:53Z</time></trkpt><trkpt lat="44.620975471633244" lon="9.327768984493817"><ele>484.0</ele><time>2026-04-19T09:15:54Z</time></trkpt><trkpt lat="44.62110911582485" lon="9.328076061960207"><ele>485.0</ele><time>2026-04-19T09:15:55Z</time></trkpt><trkpt lat="44.62124637782415" lon="9.32842020113098"><ele>485.3333333333333</ele><time>2026-04-19T09:15:56Z</time></trkpt><trkpt lat="44.621334553631" lon="9.32860857289011"><ele>485.66666666666663</ele><time>2026-04-19T09:15:58Z</time></trkpt><trkpt lat="44.62140952705008" lon="9.32880535023609"><ele>486.0</ele><time>2026-04-19T09:15:58.999Z</time></trkpt><trkpt lat="44.621491231414375" lon="9.329009117800005"><ele>486.0</ele><time>2026-04-19T09:15:59.999Z</time></trkpt><trkpt lat="44.62158512308906" lon="9.329215732908594"><ele>486.0</ele><time>2026-04-19T09:16:00.999Z</time></trkpt><trkpt lat="44.62169677959881" lon="9.32942219893377"><ele>486.0</ele><time>2026-04-19T09:16:01.999Z</time></trkpt><trkpt lat="44.62180761715908" lon="9.329610465102089"><ele>485.0</ele><time>2026-04-19T09:16:02.999Z</time></trkpt><trkpt lat="44.621912639292724" lon="9.329775442144463"><ele>484.0</ele><time>2026-04-19T09:16:03.999Z</time></trkpt><trkpt lat="44.622019720904085" lon="9.329936556799632"><ele>483.0</ele><time>2026-04-19T09:16:04.999Z</time></trkpt><trkpt lat="44.62213877441598" lon="9.330101590963013"><ele>483.0</ele><time>2026-04-19T09:16:05.999Z</time></trkpt><trkpt lat="44.62226949184356" lon="9.330248428804717"><ele>483.0</ele><time>2026-04-19T09:16:06.999Z</time></trkpt><trkpt lat="44.62240420765123" lon="9.330385657826225"><ele>483.0</ele><time>2026-04-19T09:16:07.999Z</time></trkpt><trkpt lat="44.622546412291314" lon="9.330522810785965"><ele>481.66666666666663</ele><time>2026-04-19T09:16:08.999Z</time></trkpt><trkpt lat="44.62269310088671" lon="9.330647068362518"><ele>480.3333333333333</ele><time>2026-04-19T09:16:09.999Z</time></trkpt><trkpt lat="44.62284509110563" lon="9.330764201225618"><ele>479.0</ele><time>2026-04-19T09:16:10.999Z</time></trkpt><trkpt lat="44.62298818487429" lon="9.330860246461093"><ele>478.75</ele><time>2026-04-19T09:16:11.999Z</time></trkpt><trkpt lat="44.62312062122589" lon="9.330944519891911"><ele>478.5</ele><time>2026-04-19T09:16:12.999Z</time></trkpt><trkpt lat="44.623245571013136" lon="9.33102000956141"><ele>478.25</ele><time>2026-04-19T09:16:13.999Z</time></trkpt><trkpt lat="44.62336876429709" lon="9.331087252270535"><ele>478.0</ele><time>2026-04-19T09:16:14.999Z</time></trkpt><trkpt lat="44.62350366877061" lon="9.331160456540976"><ele>478.0</ele><time>2026-04-19T09:16:15.999Z</time></trkpt><trkpt lat="44.62363301381171" lon="9.33123573120291"><ele>477.99999999999994</ele><time>2026-04-19T09:16:16.999Z</time></trkpt><trkpt lat="44.62374370627439" lon="9.331296747877767"><ele>477.99999999999994</ele><time>2026-04-19T09:16:17.999Z</time></trkpt><trkpt lat="44.62383741752582" lon="9.331352930839197"><ele>478.0</ele><time>2026-04-19T09:16:18.999Z</time></trkpt><trkpt lat="44.62390555331425" lon="9.331432035260525"><ele>478.0</ele><time>2026-04-19T09:16:19.999Z</time></trkpt><trkpt lat="44.6239218715217" lon="9.331540673677374"><ele>478.6666666666667</ele><time>2026-04-19T09:16:20.999Z</time></trkpt><trkpt lat="44.62393355563309" lon="9.331659581088472"><ele>479.33333333333337</ele><time>2026-04-19T09:16:21.999Z</time></trkpt><trkpt lat="44.62392009029373" lon="9.331790033445758"><ele>480.0</ele><time>2026-04-19T09:16:22.999Z</time></trkpt><trkpt lat="44.623902572854746" lon="9.331904423211665"><ele>480.66666666666663</ele><time>2026-04-19T09:16:23.999Z</time></trkpt><trkpt lat="44.623871555941214" lon="9.3319866711419"><ele>481.3333333333333</ele><time>2026-04-19T09:16:24.999Z</time></trkpt><trkpt lat="44.62380111748195" lon="9.332084035417576"><ele>482.0</ele><time>2026-04-19T09:16:26.999Z</time></trkpt><trkpt lat="44.62376637246923" lon="9.3322203950326"><ele>482.0</ele><time>2026-04-19T09:16:29.999Z</time></trkpt><trkpt lat="44.62378656436946" lon="9.332306573685209"><ele>482.00000000000006</ele><time>2026-04-19T09:16:30.999Z</time></trkpt><trkpt lat="44.623778941437536" lon="9.33239765025151"><ele>482.0</ele><time>2026-04-19T09:16:33.999Z</time></trkpt><trkpt lat="44.62383756979479" lon="9.332520356185874"><ele>482.0</ele><time>2026-04-19T09:17:05Z</time></trkpt><trkpt lat="44.62379843885423" lon="9.332607225088333"><ele>482.00000000000006</ele><time>2026-04-19T09:17:06Z</time></trkpt><trkpt lat="44.62379035801219" lon="9.332696597909807"><ele>482.0</ele><time>2026-04-19T09:17:07Z</time></trkpt><trkpt lat="44.62377552226215" lon="9.332784948088957"><ele>482.0</ele><time>2026-04-19T09:17:08Z</time></trkpt><trkpt lat="44.62374519779679" lon="9.33292312333884"><ele>481.99999999999994</ele><time>2026-04-19T09:17:10Z</time></trkpt><trkpt lat="44.623726717135995" lon="9.333019002087788"><ele>482.0</ele><time>2026-04-19T09:17:12Z</time></trkpt><trkpt lat="44.62370124313424" lon="9.333153213292178"><ele>482.0</ele><time>2026-04-19T09:17:15Z</time></trkpt><trkpt lat="44.62370129346698" lon="9.333248590521729"><ele>482.0</ele><time>2026-04-19T09:17:41Z</time></trkpt><trkpt lat="44.62374319381604" lon="9.333152738841902"><ele>481.99999999999994</ele><time>2026-04-19T09:19:04.999Z</time></trkpt><trkpt lat="44.62369248889419" lon="9.333090491359405"><ele>482.0</ele><time>2026-04-19T09:19:19Z</time></trkpt><trkpt lat="44.623596219448125" lon="9.333023331464911"><ele>482.0</ele><time>2026-04-19T09:20:59.023Z</time></trkpt><trkpt lat="44.62367409257766" lon="9.333050809841005"><ele>482.00000000000006</ele><time>2026-04-19T09:21:41Z</time></trkpt><trkpt lat="44.623695381463556" lon="9.333140172611959"><ele>482.0</ele><time>2026-04-19T09:21:47Z</time></trkpt><trkpt lat="44.62367660345197" lon="9.333232737802144"><ele>482.0</ele><time>2026-04-19T09:25:43Z</time></trkpt><trkpt lat="44.62365674147485" lon="9.333320436102007"><ele>482.00000000000006</ele><time>2026-04-19T09:25:44Z</time></trkpt><trkpt lat="44.623638400460486" lon="9.33341538033809"><ele>482.0</ele><time>2026-04-19T09:25:45Z</time></trkpt><trkpt lat="44.623612926012086" lon="9.333513427223197"><ele>482.0</ele><time>2026-04-19T09:25:46Z</time></trkpt><trkpt lat="44.62355376525114" lon="9.333644425855857"><ele>483.8333333333333</ele><time>2026-04-19T09:25:48Z</time></trkpt><trkpt lat="44.62344241166606" lon="9.333648159855615"><ele>485.66666666666663</ele><time>2026-04-19T09:25:50Z</time></trkpt><trkpt lat="44.623377226837874" lon="9.33359713185544"><ele>487.5</ele><time>2026-04-19T09:25:51Z</time></trkpt><trkpt lat="44.623297705142164" lon="9.333544512633365"><ele>489.33333333333337</ele><time>2026-04-19T09:25:52Z</time></trkpt><trkpt lat="44.62321654920861" lon="9.333511396005054"><ele>491.1666666666667</ele><time>2026-04-19T09:25:53Z</time></trkpt><trkpt lat="44.623152926684476" lon="9.33349875054457"><ele>493.0</ele><time>2026-04-19T09:25:54Z</time></trkpt><trkpt lat="44.62304166257379" lon="9.333457154136658"><ele>493.00000000000006</ele><time>2026-04-19T09:25:56Z</time></trkpt><trkpt lat="44.62296166938326" lon="9.333513999953366"><ele>493.0</ele><time>2026-04-19T09:25:57Z</time></trkpt><trkpt lat="44.622891819724884" lon="9.333525499624784"><ele>493.0</ele><time>2026-04-19T09:25:58Z</time></trkpt><trkpt lat="44.622824311227504" lon="9.333521587165848"><ele>493.0</ele><time>2026-04-19T09:25:59Z</time></trkpt><trkpt lat="44.622762361400675" lon="9.333612570724101"><ele>493.00000000000006</ele><time>2026-04-19T09:26:00Z</time></trkpt><trkpt lat="44.62271012403126" lon="9.333685645527577"><ele>493.0</ele><time>2026-04-19T09:26:01Z</time></trkpt><trkpt lat="44.62265413272477" lon="9.333770533962921"><ele>495.2</ele><time>2026-04-19T09:26:02Z</time></trkpt><trkpt lat="44.62259758222962" lon="9.333860045757707"><ele>497.4</ele><time>2026-04-19T09:26:03Z</time></trkpt><trkpt lat="44.62251223958745" lon="9.333927550027182"><ele>499.59999999999997</ele><time>2026-04-19T09:26:04Z</time></trkpt><trkpt lat="44.62244716787634" lon="9.334027138073923"><ele>501.79999999999995</ele><time>2026-04-19T09:26:05Z</time></trkpt><trkpt lat="44.6223846498108" lon="9.334151440539662"><ele>504.0</ele><time>2026-04-19T09:26:06Z</time></trkpt><trkpt lat="44.62234108338175" lon="9.334301893124607"><ele>504.0</ele><time>2026-04-19T09:26:07Z</time></trkpt><trkpt lat="44.622292428954864" lon="9.334451437934652"><ele>504.0</ele><time>2026-04-19T09:26:08Z</time></trkpt><trkpt lat="44.62223514565819" lon="9.334552572558158"><ele>504.0</ele><time>2026-04-19T09:26:09Z</time></trkpt><trkpt lat="44.622178200772346" lon="9.3346113585038"><ele>504.0</ele><time>2026-04-19T09:26:10Z</time></trkpt><trkpt lat="44.62212142677188" lon="9.334672232434302"><ele>504.0</ele><time>2026-04-19T09:26:11Z</time></trkpt><trkpt lat="44.62208222422869" lon="9.334760433008991"><ele>504.0</ele><time>2026-04-19T09:26:12Z</time></trkpt><trkpt lat="44.622067370435296" lon="9.334865618868832"><ele>505.79999999999995</ele><time>2026-04-19T09:26:13Z</time></trkpt><trkpt lat="44.62209425066848" lon="9.334973496457312"><ele>507.59999999999997</ele><time>2026-04-19T09:26:14Z</time></trkpt><trkpt lat="44.62217678307646" lon="9.33504857387494"><ele>509.4</ele><time>2026-04-19T09:26:15Z</time></trkpt><trkpt lat="44.62227938834339" lon="9.335050470122415"><ele>511.2</ele><time>2026-04-19T09:26:15.999Z</time></trkpt><trkpt lat="44.62236353866328" lon="9.334963173595323"><ele>513.0</ele><time>2026-04-19T09:26:16.999Z</time></trkpt><trkpt lat="44.62244224364" lon="9.33490123364399"><ele>513.0</ele><time>2026-04-19T09:26:17.999Z</time></trkpt><trkpt lat="44.62253730712726" lon="9.334818802348849"><ele>513.0</ele><time>2026-04-19T09:26:18.999Z</time></trkpt><trkpt lat="44.622619403370976" lon="9.334750442500294"><ele>513.0</ele><time>2026-04-19T09:26:19.999Z</time></trkpt><trkpt lat="44.62268579700102" lon="9.334707154132278"><ele>513.0</ele><time>2026-04-19T09:26:20.999Z</time></trkpt><trkpt lat="44.62275601415435" lon="9.334684516777092"><ele>513.0</ele><time>2026-04-19T09:26:21.999Z</time></trkpt><trkpt lat="44.62283827417757" lon="9.334691714323263"><ele>513.0</ele><time>2026-04-19T09:26:22.999Z</time></trkpt><trkpt lat="44.622911844973466" lon="9.334753139722554"><ele>512.8</ele><time>2026-04-19T09:26:23.999Z</time></trkpt><trkpt lat="44.62299111189435" lon="9.3348601141944"><ele>512.5999999999999</ele><time>2026-04-19T09:26:24.999Z</time></trkpt><trkpt lat="44.62308017908707" lon="9.334950283947398"><ele>512.4000000000001</ele><time>2026-04-19T09:26:25.999Z</time></trkpt><trkpt lat="44.62316200329524" lon="9.33506762080094"><ele>512.2</ele><time>2026-04-19T09:26:26.999Z</time></trkpt><trkpt lat="44.623244762124294" lon="9.335165383865833"><ele>512.0</ele><time>2026-04-19T09:26:27.999Z</time></trkpt><trkpt lat="44.62330249841326" lon="9.335251660038166"><ele>512.0</ele><time>2026-04-19T09:26:28.999Z</time></trkpt><trkpt lat="44.62340727240774" lon="9.335322106316102"><ele>512.0</ele><time>2026-04-19T09:26:29.999Z</time></trkpt><trkpt lat="44.62355338974503" lon="9.33533013024587"><ele>512.0</ele><time>2026-04-19T09:26:30.999Z</time></trkpt><trkpt lat="44.62368522637812" lon="9.335315820819355"><ele>512.0</ele><time>2026-04-19T09:26:31.999Z</time></trkpt><trkpt lat="44.62384039518831" lon="9.335335469841665"><ele>511.66666666666663</ele><time>2026-04-19T09:26:32.999Z</time></trkpt><trkpt lat="44.62399569885677" lon="9.335355636584767"><ele>511.33333333333337</ele><time>2026-04-19T09:26:33.999Z</time></trkpt><trkpt lat="44.62414711764069" lon="9.335376871264014"><ele>511.0</ele><time>2026-04-19T09:26:34.999Z</time></trkpt><trkpt lat="44.62430502262525" lon="9.335402744138838"><ele>511.0</ele><time>2026-04-19T09:26:35.999Z</time></trkpt><trkpt lat="44.62446365672049" lon="9.335437351072501"><ele>511.0</ele><time>2026-04-19T09:26:36.999Z</time></trkpt><trkpt lat="44.624592692479304" lon="9.335468216531995"><ele>511.0</ele><time>2026-04-19T09:26:37.999Z</time></trkpt><trkpt lat="44.62473227141777" lon="9.33550564875762"><ele>511.0</ele><time>2026-04-19T09:26:38.999Z</time></trkpt><trkpt lat="44.624877970486764" lon="9.335557093571506"><ele>517.25</ele><time>2026-04-19T09:26:39.999Z</time></trkpt><trkpt lat="44.625003026897815" lon="9.335627968918025"><ele>523.5</ele><time>2026-04-19T09:26:40.999Z</time></trkpt><trkpt lat="44.62512154939042" lon="9.33570304684041"><ele>529.75</ele><time>2026-04-19T09:26:41.999Z</time></trkpt><trkpt lat="44.625246167157684" lon="9.335764276778207"><ele>536.0</ele><time>2026-04-19T09:26:42.999Z</time></trkpt><trkpt lat="44.62537453239621" lon="9.335849341293285"><ele>536.0</ele><time>2026-04-19T09:26:43.999Z</time></trkpt><trkpt lat="44.62550011009712" lon="9.335930677302235"><ele>536.0</ele><time>2026-04-19T09:26:44.999Z</time></trkpt><trkpt lat="44.62559604327264" lon="9.336019225108064"><ele>536.0</ele><time>2026-04-19T09:26:45.999Z</time></trkpt><trkpt lat="44.625694702591744" lon="9.336063984559958"><ele>536.0</ele><time>2026-04-19T09:26:46.999Z</time></trkpt><trkpt lat="44.62577571923073" lon="9.336108730054605"><ele>536.0</ele><time>2026-04-19T09:26:47.999Z</time></trkpt><trkpt lat="44.62586564526847" lon="9.33610692486392"><ele>536.0</ele><time>2026-04-19T09:26:48.999Z</time></trkpt><trkpt lat="44.62595927104396" lon="9.336059218382523"><ele>536.0</ele><time>2026-04-19T09:26:49.999Z</time></trkpt><trkpt lat="44.62604169395514" lon="9.336016735772121"><ele>536.0</ele><time>2026-04-19T09:26:50.999Z</time></trkpt><trkpt lat="44.62611235398629" lon="9.335994149572423"><ele>536.0</ele><time>2026-04-19T09:26:51.999Z</time></trkpt><trkpt lat="44.626200826530024" lon="9.33608986827921"><ele>536.0</ele><time>2026-04-19T09:26:53.999Z</time></trkpt><trkpt lat="44.62617715480394" lon="9.336191274934464"><ele>536.0</ele><time>2026-04-19T09:26:54.999Z</time></trkpt><trkpt lat="44.62612125503554" lon="9.336261619707832"><ele>536.0</ele><time>2026-04-19T09:26:55.999Z</time></trkpt><trkpt lat="44.62603623263158" lon="9.336320761900028"><ele>536.0</ele><time>2026-04-19T09:26:56.999Z</time></trkpt><trkpt lat="44.62593918059283" lon="9.336382967982809"><ele>536.0</ele><time>2026-04-19T09:26:57.999Z</time></trkpt><trkpt lat="44.625837954986096" lon="9.33645029141366"><ele>536.0</ele><time>2026-04-19T09:26:58.999Z</time></trkpt><trkpt lat="44.62573950993061" lon="9.336467011455385"><ele>536.0</ele><time>2026-04-19T09:26:59.999Z</time></trkpt><trkpt lat="44.625640979657405" lon="9.336426382897544"><ele>536.0</ele><time>2026-04-19T09:27:00.999Z</time></trkpt><trkpt lat="44.62555124802284" lon="9.336356320627909"><ele>536.0</ele><time>2026-04-19T09:27:01.999Z</time></trkpt><trkpt lat="44.62545565897167" lon="9.336314176927234"><ele>536.0</ele><time>2026-04-19T09:27:02.999Z</time></trkpt><trkpt lat="44.62534043739294" lon="9.336319195324315"><ele>536.0</ele><time>2026-04-19T09:27:03.999Z</time></trkpt><trkpt lat="44.62522469132976" lon="9.336295976426825"><ele>536.0</ele><time>2026-04-19T09:27:04.999Z</time></trkpt><trkpt lat="44.625118650351524" lon="9.336202170037092"><ele>537.4</ele><time>2026-04-19T09:27:05.999Z</time></trkpt><trkpt lat="44.625052967399675" lon="9.336084021109679"><ele>538.8</ele><time>2026-04-19T09:27:06.999Z</time></trkpt><trkpt lat="44.6250171772509" lon="9.335981962321153"><ele>540.1999999999999</ele><time>2026-04-19T09:27:07.999Z</time></trkpt><trkpt lat="44.62494601455135" lon="9.335918832262774"><ele>541.6</ele><time>2026-04-19T09:27:08.999Z</time></trkpt><trkpt lat="44.624851470030286" lon="9.335911189844678"><ele>543.0</ele><time>2026-04-19T09:27:09.999Z</time></trkpt><trkpt lat="44.624735735668736" lon="9.335935728104861"><ele>543.0</ele><time>2026-04-19T09:27:10.999Z</time></trkpt><trkpt lat="44.624605900995974" lon="9.335960823853602"><ele>543.0</ele><time>2026-04-19T09:27:11.999Z</time></trkpt><trkpt lat="44.6244485233759" lon="9.33599969174355"><ele>543.0</ele><time>2026-04-19T09:27:12.999Z</time></trkpt><trkpt lat="44.62432929191287" lon="9.3360472330672"><ele>543.0</ele><time>2026-04-19T09:27:13.999Z</time></trkpt><trkpt lat="44.62422090749208" lon="9.336116974560726"><ele>544.6</ele><time>2026-04-19T09:27:14.999Z</time></trkpt><trkpt lat="44.62414389208304" lon="9.336174063402858"><ele>546.1999999999999</ele><time>2026-04-19T09:27:15.999Z</time></trkpt><trkpt lat="44.62408402981914" lon="9.336203601868446"><ele>547.8</ele><time>2026-04-19T09:27:16.999Z</time></trkpt><trkpt lat="44.62400172395943" lon="9.33627702549652"><ele>549.4</ele><time>2026-04-19T09:27:17.999Z</time></trkpt><trkpt lat="44.62396805103983" lon="9.336470269446988"><ele>551.0</ele><time>2026-04-19T09:27:18.999Z</time></trkpt><trkpt lat="44.62404080628141" lon="9.336639815038604"><ele>556.6</ele><time>2026-04-19T09:27:19.999Z</time></trkpt><trkpt lat="44.6241791678882" lon="9.336677377477136"><ele>562.2</ele><time>2026-04-19T09:27:20.999Z</time></trkpt><trkpt lat="44.62425149793917" lon="9.336650046173702"><ele>567.8</ele><time>2026-04-19T09:27:21.999Z</time></trkpt><trkpt lat="44.62433207355648" lon="9.336621972535301"><ele>573.4</ele><time>2026-04-19T09:27:22.999Z</time></trkpt><trkpt lat="44.6244281035339" lon="9.336606033870728"><ele>579.0</ele><time>2026-04-19T09:27:23.999Z</time></trkpt><trkpt lat="44.62452925121976" lon="9.33652284799143"><ele>579.0</ele><time>2026-04-19T09:27:24.999Z</time></trkpt><trkpt lat="44.62464378861547" lon="9.336440512147592"><ele>579.0</ele><time>2026-04-19T09:27:25.999Z</time></trkpt><trkpt lat="44.624750454466515" lon="9.336379078158657"><ele>579.0</ele><time>2026-04-19T09:27:26.999Z</time></trkpt><trkpt lat="44.62483409496487" lon="9.33633897531748"><ele>579.0</ele><time>2026-04-19T09:27:27.999Z</time></trkpt><trkpt lat="44.62491069797386" lon="9.33634982863653"><ele>579.0</ele><time>2026-04-19T09:27:28.999Z</time></trkpt><trkpt lat="44.624938710135005" lon="9.336435334229204"><ele>579.0</ele><time>2026-04-19T09:27:30Z</time></trkpt><trkpt lat="44.62487531140884" lon="9.336542389973966"><ele>579.0</ele><time>2026-04-19T09:27:32Z</time></trkpt><trkpt lat="44.624800583136974" lon="9.336609417012534"><ele>579.0</ele><time>2026-04-19T09:27:33Z</time></trkpt><trkpt lat="44.62469494383114" lon="9.336689472181295"><ele>579.0</ele><time>2026-04-19T09:27:34Z</time></trkpt><trkpt lat="44.624561416558" lon="9.336785067748501"><ele>579.0</ele><time>2026-04-19T09:27:35Z</time></trkpt><trkpt lat="44.624439504296376" lon="9.336890112553105"><ele>579.0</ele><time>2026-04-19T09:27:36Z</time></trkpt><trkpt lat="44.62428530588832" lon="9.336928943690074"><ele>579.0</ele><time>2026-04-19T09:27:37Z</time></trkpt><trkpt lat="44.624151154498406" lon="9.33695841013"><ele>579.0</ele><time>2026-04-19T09:27:38Z</time></trkpt><trkpt lat="44.624044686209906" lon="9.336954790810793"><ele>579.0</ele><time>2026-04-19T09:27:39Z</time></trkpt><trkpt lat="44.62392893282424" lon="9.337008384761432"><ele>579.0</ele><time>2026-04-19T09:27:40Z</time></trkpt><trkpt lat="44.62382412072667" lon="9.33710625217544"><ele>579.0</ele><time>2026-04-19T09:27:41Z</time></trkpt><trkpt lat="44.62373455898079" lon="9.337253267240733"><ele>579.0</ele><time>2026-04-19T09:27:42Z</time></trkpt><trkpt lat="44.62365013937585" lon="9.337442728221315"><ele>580.25</ele><time>2026-04-19T09:27:43Z</time></trkpt><trkpt lat="44.62356495921775" lon="9.337627478613815"><ele>581.5</ele><time>2026-04-19T09:27:44Z</time></trkpt><trkpt lat="44.62349210445448" lon="9.337803205101304"><ele>582.75</ele><time>2026-04-19T09:27:45Z</time></trkpt><trkpt lat="44.62342103388363" lon="9.337967119922459"><ele>584.0</ele><time>2026-04-19T09:27:46Z</time></trkpt><trkpt lat="44.62336949786045" lon="9.338131656936442"><ele>588.6</ele><time>2026-04-19T09:27:47Z</time></trkpt><trkpt lat="44.62333447038436" lon="9.338290922125406"><ele>593.2</ele><time>2026-04-19T09:27:48Z</time></trkpt><trkpt lat="44.62331212859944" lon="9.338422589890293"><ele>597.8000000000001</ele><time>2026-04-19T09:27:49Z</time></trkpt><trkpt lat="44.623249532495784" lon="9.338509194582302"><ele>602.4</ele><time>2026-04-19T09:27:50Z</time></trkpt><trkpt lat="44.623157464949465" lon="9.338551657563468"><ele>607.0</ele><time>2026-04-19T09:27:51Z</time></trkpt><trkpt lat="44.62306528089661" lon="9.338471301838524"><ele>607.0</ele><time>2026-04-19T09:27:52Z</time></trkpt><trkpt lat="44.62294945594534" lon="9.338413504120588"><ele>607.0</ele><time>2026-04-19T09:27:53Z</time></trkpt><trkpt lat="44.622842861315085" lon="9.338384048513023"><ele>607.0</ele><time>2026-04-19T09:27:54Z</time></trkpt><trkpt lat="44.62274573464001" lon="9.338340145267544"><ele>607.0</ele><time>2026-04-19T09:27:55Z</time></trkpt><trkpt lat="44.62265408634288" lon="9.338363698665034"><ele>607.0</ele><time>2026-04-19T09:27:56Z</time></trkpt><trkpt lat="44.62257804712424" lon="9.338472516377946"><ele>603.5</ele><time>2026-04-19T09:27:57Z</time></trkpt><trkpt lat="44.622509303579385" lon="9.33860355445927"><ele>600.0</ele><time>2026-04-19T09:27:58Z</time></trkpt><trkpt lat="44.62243685801861" lon="9.338757584876554"><ele>596.5</ele><time>2026-04-19T09:27:59Z</time></trkpt><trkpt lat="44.62236646852071" lon="9.338914292208496"><ele>593.0</ele><time>2026-04-19T09:28:00Z</time></trkpt><trkpt lat="44.62231298102828" lon="9.339057893255584"><ele>600.75</ele><time>2026-04-19T09:28:01Z</time></trkpt><trkpt lat="44.62227531373306" lon="9.33922319787837"><ele>608.5</ele><time>2026-04-19T09:28:02Z</time></trkpt><trkpt lat="44.622232480404165" lon="9.339444485830104"><ele>616.25</ele><time>2026-04-19T09:28:03Z</time></trkpt><trkpt lat="44.622194102074225" lon="9.339643203875985"><ele>624.0</ele><time>2026-04-19T09:28:04Z</time></trkpt><trkpt lat="44.62216599656065" lon="9.339790577669767"><ele>628.4</ele><time>2026-04-19T09:28:05Z</time></trkpt><trkpt lat="44.62214550750494" lon="9.339913064473597"><ele>632.8</ele><time>2026-04-19T09:28:06Z</time></trkpt><trkpt lat="44.622122861961586" lon="9.340037768274165"><ele>637.1999999999999</ele><time>2026-04-19T09:28:08Z</time></trkpt><trkpt lat="44.62206936928149" lon="9.34014598409735"><ele>641.5999999999999</ele><time>2026-04-19T09:28:09Z</time></trkpt><trkpt lat="44.62192178345536" lon="9.340126866243493"><ele>646.0</ele><time>2026-04-19T09:28:10Z</time></trkpt><trkpt lat="44.62181646344035" lon="9.34003858222787"><ele>646.0</ele><time>2026-04-19T09:28:11Z</time></trkpt><trkpt lat="44.62173816467734" lon="9.339938376987106"><ele>646.0</ele><time>2026-04-19T09:28:12Z</time></trkpt><trkpt lat="44.62166728645076" lon="9.339797812351069"><ele>646.0</ele><time>2026-04-19T09:28:13Z</time></trkpt><trkpt lat="44.62159403228145" lon="9.33963318278141"><ele>646.0</ele><time>2026-04-19T09:28:14Z</time></trkpt><trkpt lat="44.62152069631026" lon="9.339457749106735"><ele>638.0</ele><time>2026-04-19T09:28:15Z</time></trkpt><trkpt lat="44.62144187942001" lon="9.339269087915271"><ele>630.0</ele><time>2026-04-19T09:28:16Z</time></trkpt><trkpt lat="44.621366859296145" lon="9.339096358067271"><ele>622.0</ele><time>2026-04-19T09:28:17Z</time></trkpt><trkpt lat="44.6212999171667" lon="9.338883781723677"><ele>619.4</ele><time>2026-04-19T09:28:18Z</time></trkpt><trkpt lat="44.621262312775876" lon="9.33871802443224"><ele>616.8000000000001</ele><time>2026-04-19T09:28:19Z</time></trkpt><trkpt lat="44.621214733884976" lon="9.338576567984019"><ele>614.2</ele><time>2026-04-19T09:28:20Z</time></trkpt><trkpt lat="44.621160367144554" lon="9.338448896886975"><ele>611.6</ele><time>2026-04-19T09:28:21Z</time></trkpt><trkpt lat="44.62107503377746" lon="9.33837031791369"><ele>609.0</ele><time>2026-04-19T09:28:22Z</time></trkpt><trkpt lat="44.62095113884432" lon="9.338313904169285"><ele>618.75</ele><time>2026-04-19T09:28:23Z</time></trkpt><trkpt lat="44.620813147314564" lon="9.338254537187149"><ele>628.5</ele><time>2026-04-19T09:28:24Z</time></trkpt><trkpt lat="44.62067965336541" lon="9.33819322883797"><ele>638.25</ele><time>2026-04-19T09:28:25Z</time></trkpt><trkpt lat="44.62054632191616" lon="9.338128241388493"><ele>648.0</ele><time>2026-04-19T09:28:26Z</time></trkpt><trkpt lat="44.620398613195235" lon="9.338095979424207"><ele>653.6666666666666</ele><time>2026-04-19T09:28:27Z</time></trkpt><trkpt lat="44.62024490697784" lon="9.338095477700383"><ele>659.3333333333333</ele><time>2026-04-19T09:28:28Z</time></trkpt><trkpt lat="44.620088547360645" lon="9.33810950095695"><ele>665.0</ele><time>2026-04-19T09:28:29Z</time></trkpt><trkpt lat="44.61992838580985" lon="9.338070526109908"><ele>657.5</ele><time>2026-04-19T09:28:30Z</time></trkpt><trkpt lat="44.619764872124826" lon="9.337993622937155"><ele>650.0</ele><time>2026-04-19T09:28:31Z</time></trkpt><trkpt lat="44.61963977562716" lon="9.337906347423312"><ele>642.5</ele><time>2026-04-19T09:28:32Z</time></trkpt><trkpt lat="44.61951854064657" lon="9.337891457013221"><ele>635.0</ele><time>2026-04-19T09:28:33Z</time></trkpt><trkpt lat="44.6194024693788" lon="9.337926266200116"><ele>634.5</ele><time>2026-04-19T09:28:34Z</time></trkpt><trkpt lat="44.61928043103828" lon="9.337967861746646"><ele>634.0</ele><time>2026-04-19T09:28:35Z</time></trkpt><trkpt lat="44.619156084794284" lon="9.338033852253856"><ele>633.5</ele><time>2026-04-19T09:28:36Z</time></trkpt><trkpt lat="44.619034777399214" lon="9.33811124864125"><ele>633.0</ele><time>2026-04-19T09:28:37Z</time></trkpt><trkpt lat="44.61890793455631" lon="9.338150720653353"><ele>636.6666666666666</ele><time>2026-04-19T09:28:38Z</time></trkpt><trkpt lat="44.618761893838055" lon="9.338255009856232"><ele>640.3333333333333</ele><time>2026-04-19T09:28:38.999Z</time></trkpt><trkpt lat="44.61863947983122" lon="9.3384174078636"><ele>644.0</ele><time>2026-04-19T09:28:41.999Z</time></trkpt><trkpt lat="44.61857515577644" lon="9.338579321273647"><ele>644.0</ele><time>2026-04-19T09:28:42.999Z</time></trkpt><trkpt lat="44.61849596100641" lon="9.338749188184304"><ele>644.0</ele><time>2026-04-19T09:28:43.999Z</time></trkpt><trkpt lat="44.61843484226125" lon="9.338915434998025"><ele>644.0</ele><time>2026-04-19T09:28:44.999Z</time></trkpt><trkpt lat="44.61836977968132" lon="9.339013317830045"><ele>644.0</ele><time>2026-04-19T09:28:45.999Z</time></trkpt><trkpt lat="44.61827362397499" lon="9.3390450759896"><ele>651.5</ele><time>2026-04-19T09:28:46.999Z</time></trkpt><trkpt lat="44.618166573487215" lon="9.339035197642836"><ele>659.0</ele><time>2026-04-19T09:28:47.999Z</time></trkpt><trkpt lat="44.61803938523303" lon="9.339075245435144"><ele>666.5</ele><time>2026-04-19T09:28:48.999Z</time></trkpt><trkpt lat="44.61792529484565" lon="9.339101384534072"><ele>674.0</ele><time>2026-04-19T09:28:49.999Z</time></trkpt><trkpt lat="44.617831476349075" lon="9.339141210253123"><ele>675.75</ele><time>2026-04-19T09:28:50.999Z</time></trkpt><trkpt lat="44.61775373583795" lon="9.339235561719619"><ele>677.5</ele><time>2026-04-19T09:28:51.999Z</time></trkpt><trkpt lat="44.61771116854681" lon="9.33938954723359"><ele>679.25</ele><time>2026-04-19T09:28:52.999Z</time></trkpt><trkpt lat="44.61768271028448" lon="9.339583389603975"><ele>681.0</ele><time>2026-04-19T09:28:53.999Z</time></trkpt><trkpt lat="44.617643389091675" lon="9.339753783579814"><ele>681.0</ele><time>2026-04-19T09:28:54.999Z</time></trkpt><trkpt lat="44.617560213970535" lon="9.339903928560885"><ele>681.0</ele><time>2026-04-19T09:28:55.999Z</time></trkpt><trkpt lat="44.61746101261282" lon="9.340041292933378"><ele>681.0</ele><time>2026-04-19T09:28:56.999Z</time></trkpt><trkpt lat="44.617336678927145" lon="9.340118563998352"><ele>681.0</ele><time>2026-04-19T09:28:57.999Z</time></trkpt><trkpt lat="44.617183512077446" lon="9.34019570258043"><ele>681.0</ele><time>2026-04-19T09:28:58.999Z</time></trkpt><trkpt lat="44.617025678857864" lon="9.340272970758637"><ele>681.0</ele><time>2026-04-19T09:28:59.999Z</time></trkpt><trkpt lat="44.616873581143274" lon="9.340351108192708"><ele>681.0</ele><time>2026-04-19T09:29:00.999Z</time></trkpt><trkpt lat="44.61676062546968" lon="9.34044016306198"><ele>683.5</ele><time>2026-04-19T09:29:01.999Z</time></trkpt><trkpt lat="44.61665041612734" lon="9.34052814726697"><ele>686.0</ele><time>2026-04-19T09:29:02.999Z</time></trkpt><trkpt lat="44.616551081804346" lon="9.340664014468507"><ele>688.5</ele><time>2026-04-19T09:29:03.999Z</time></trkpt><trkpt lat="44.61646933517822" lon="9.340828308969138"><ele>691.0</ele><time>2026-04-19T09:29:04.999Z</time></trkpt><trkpt lat="44.616375756109406" lon="9.340993731106696"><ele>691.0</ele><time>2026-04-19T09:29:05.999Z</time></trkpt><trkpt lat="44.6162851328069" lon="9.341171320571396"><ele>691.0</ele><time>2026-04-19T09:29:06.999Z</time></trkpt><trkpt lat="44.6162026280282" lon="9.341340008646226"><ele>691.0</ele><time>2026-04-19T09:29:07.999Z</time></trkpt><trkpt lat="44.61613863727434" lon="9.341478063357933"><ele>691.0</ele><time>2026-04-19T09:29:08.999Z</time></trkpt><trkpt lat="44.61608533674754" lon="9.341588638457331"><ele>690.1999999999999</ele><time>2026-04-19T09:29:09.999Z</time></trkpt><trkpt lat="44.61606022370693" lon="9.341693104174706"><ele>689.4</ele><time>2026-04-19T09:29:10.999Z</time></trkpt><trkpt lat="44.61606864861664" lon="9.341835434555792"><ele>688.6</ele><time>2026-04-19T09:29:11.999Z</time></trkpt><trkpt lat="44.61609880822774" lon="9.341993883204802"><ele>687.8</ele><time>2026-04-19T09:29:12.999Z</time></trkpt><trkpt lat="44.61611730470583" lon="9.34215588136218"><ele>687.0</ele><time>2026-04-19T09:29:13.999Z</time></trkpt><trkpt lat="44.61610812587307" lon="9.342341325811965"><ele>687.0</ele><time>2026-04-19T09:29:14.999Z</time></trkpt><trkpt lat="44.61606860520562" lon="9.34254903853011"><ele>687.0</ele><time>2026-04-19T09:29:15.999Z</time></trkpt><trkpt lat="44.616022587343046" lon="9.342780922206533"><ele>687.0</ele><time>2026-04-19T09:29:16.999Z</time></trkpt><trkpt lat="44.61597877674455" lon="9.342992910254825"><ele>688.6</ele><time>2026-04-19T09:29:17.999Z</time></trkpt><trkpt lat="44.61594289396571" lon="9.343174109468984"><ele>690.2</ele><time>2026-04-19T09:29:18.999Z</time></trkpt><trkpt lat="44.61592209972593" lon="9.343311626430033"><ele>691.8</ele><time>2026-04-19T09:29:19.999Z</time></trkpt><trkpt lat="44.6159193017184" lon="9.343463272829174"><ele>693.4</ele><time>2026-04-19T09:29:20.999Z</time></trkpt><trkpt lat="44.61595327458827" lon="9.34359616214329"><ele>695.0</ele><time>2026-04-19T09:29:21.999Z</time></trkpt><trkpt lat="44.61602811863342" lon="9.343707092655553"><ele>695.0</ele><time>2026-04-19T09:29:22.999Z</time></trkpt><trkpt lat="44.616066406066665" lon="9.343849376884268"><ele>695.0</ele><time>2026-04-19T09:29:23.999Z</time></trkpt><trkpt lat="44.61608568084726" lon="9.343943599079703"><ele>695.0</ele><time>2026-04-19T09:29:24.999Z</time></trkpt><trkpt lat="44.616084253181114" lon="9.344048191458183"><ele>695.0</ele><time>2026-04-19T09:29:25.999Z</time></trkpt><trkpt lat="44.61603017587897" lon="9.344169808194668"><ele>695.0</ele><time>2026-04-19T09:29:26.999Z</time></trkpt><trkpt lat="44.61592574882068" lon="9.344247020899163"><ele>696.75</ele><time>2026-04-19T09:29:27.999Z</time></trkpt><trkpt lat="44.6158106595336" lon="9.344336413055364"><ele>698.5</ele><time>2026-04-19T09:29:28.999Z</time></trkpt><trkpt lat="44.61571559124256" lon="9.344475141748806"><ele>700.25</ele><time>2026-04-19T09:29:29.999Z</time></trkpt><trkpt lat="44.61565552001431" lon="9.344640413621706"><ele>702.0</ele><time>2026-04-19T09:29:30.999Z</time></trkpt><trkpt lat="44.6156247776288" lon="9.344836026876619"><ele>704.6666666666666</ele><time>2026-04-19T09:29:31.999Z</time></trkpt><trkpt lat="44.61559964838082" lon="9.345053956190807"><ele>707.3333333333333</ele><time>2026-04-19T09:29:32.999Z</time></trkpt><trkpt lat="44.615570542329934" lon="9.34527759137358"><ele>710.0</ele><time>2026-04-19T09:29:33.999Z</time></trkpt><trkpt lat="44.61553221662322" lon="9.345464062256102"><ele>712.0</ele><time>2026-04-19T09:29:34.999Z</time></trkpt><trkpt lat="44.615515712264674" lon="9.345614285071724"><ele>714.0</ele><time>2026-04-19T09:29:36Z</time></trkpt><trkpt lat="44.61553098734589" lon="9.34578391023815"><ele>716.0</ele><time>2026-04-19T09:29:37Z</time></trkpt><trkpt lat="44.615536553816234" lon="9.345930373144352"><ele>718.0</ele><time>2026-04-19T09:29:38Z</time></trkpt><trkpt lat="44.615523034972455" lon="9.346041364989441"><ele>720.0</ele><time>2026-04-19T09:29:39Z</time></trkpt><trkpt lat="44.61547118878375" lon="9.34615047771718"><ele>720.0</ele><time>2026-04-19T09:29:40Z</time></trkpt><trkpt lat="44.61538062642786" lon="9.346244908889943"><ele>720.0</ele><time>2026-04-19T09:29:41Z</time></trkpt><trkpt lat="44.61529403376482" lon="9.34635526229489"><ele>720.0</ele><time>2026-04-19T09:29:42Z</time></trkpt><trkpt lat="44.61522535726661" lon="9.346526829780046"><ele>720.0</ele><time>2026-04-19T09:29:43Z</time></trkpt><trkpt lat="44.615142680187866" lon="9.34672835051733"><ele>720.4</ele><time>2026-04-19T09:29:44Z</time></trkpt><trkpt lat="44.615075902054144" lon="9.346913336561947"><ele>720.8</ele><time>2026-04-19T09:29:45Z</time></trkpt><trkpt lat="44.615009258395304" lon="9.347054696349424"><ele>721.2</ele><time>2026-04-19T09:29:46Z</time></trkpt><trkpt lat="44.61493889719817" lon="9.347138552085367"><ele>721.6</ele><time>2026-04-19T09:29:47Z</time></trkpt><trkpt lat="44.61486661081355" lon="9.347190517629498"><ele>722.0</ele><time>2026-04-19T09:29:48Z</time></trkpt><trkpt lat="44.61479737224101" lon="9.347276273506203"><ele>722.0</ele><time>2026-04-19T09:29:49Z</time></trkpt><trkpt lat="44.61474831844593" lon="9.347439774375651"><ele>722.0</ele><time>2026-04-19T09:29:50Z</time></trkpt><trkpt lat="44.61469295514965" lon="9.347637746640434"><ele>722.0</ele><time>2026-04-19T09:29:51Z</time></trkpt><trkpt lat="44.614640151768505" lon="9.347840070329159"><ele>722.0</ele><time>2026-04-19T09:29:52Z</time></trkpt><trkpt lat="44.614593037639395" lon="9.348045082460327"><ele>726.75</ele><time>2026-04-19T09:29:53Z</time></trkpt><trkpt lat="44.61458943477741" lon="9.348262217831753"><ele>731.5</ele><time>2026-04-19T09:29:54Z</time></trkpt><trkpt lat="44.61456551311627" lon="9.348452948026864"><ele>736.25</ele><time>2026-04-19T09:29:55Z</time></trkpt><trkpt lat="44.61456381258435" lon="9.348605326378152"><ele>741.0</ele><time>2026-04-19T09:29:56Z</time></trkpt><trkpt lat="44.61455268788119" lon="9.348718701603923"><ele>741.0</ele><time>2026-04-19T09:29:57Z</time></trkpt><trkpt lat="44.61453116420187" lon="9.348804497707503"><ele>741.0</ele><time>2026-04-19T09:29:58Z</time></trkpt><trkpt lat="44.61449573865133" lon="9.348884241349591"><ele>741.0</ele><time>2026-04-19T09:29:59Z</time></trkpt><trkpt lat="44.61440329384242" lon="9.348903703158522"><ele>741.0</ele><time>2026-04-19T09:30:00Z</time></trkpt><trkpt lat="44.61431959628585" lon="9.348857754950734"><ele>741.0</ele><time>2026-04-19T09:30:01Z</time></trkpt><trkpt lat="44.61424992196761" lon="9.348737408020705"><ele>741.0</ele><time>2026-04-19T09:30:02Z</time></trkpt><trkpt lat="44.61419666414366" lon="9.348573694395078"><ele>738.75</ele><time>2026-04-19T09:30:03Z</time></trkpt><trkpt lat="44.614135565628516" lon="9.348398104632679"><ele>736.5</ele><time>2026-04-19T09:30:04Z</time></trkpt><trkpt lat="44.61403652654374" lon="9.34825109098324"><ele>734.25</ele><time>2026-04-19T09:30:05Z</time></trkpt><trkpt lat="44.61392921162878" lon="9.348104139936702"><ele>732.0</ele><time>2026-04-19T09:30:06Z</time></trkpt><trkpt lat="44.61380045022758" lon="9.347951146731099"><ele>736.3333333333334</ele><time>2026-04-19T09:30:07Z</time></trkpt><trkpt lat="44.61367451650367" lon="9.347774830218306"><ele>740.6666666666667</ele><time>2026-04-19T09:30:08Z</time></trkpt><trkpt lat="44.613549663642544" lon="9.347610115956217"><ele>745.0</ele><time>2026-04-19T09:30:09Z</time></trkpt><trkpt lat="44.61344689552233" lon="9.347491471004767"><ele>745.0</ele><time>2026-04-19T09:30:10Z</time></trkpt><trkpt lat="44.613350629737205" lon="9.34738106476224"><ele>745.0</ele><time>2026-04-19T09:30:11Z</time></trkpt><trkpt lat="44.613250392116335" lon="9.347284752053334"><ele>745.0</ele><time>2026-04-19T09:30:12Z</time></trkpt><trkpt lat="44.61311683014059" lon="9.347218213603304"><ele>745.0</ele><time>2026-04-19T09:30:13Z</time></trkpt><trkpt lat="44.61296826606747" lon="9.347170005632705"><ele>743.0</ele><time>2026-04-19T09:30:14Z</time></trkpt><trkpt lat="44.61282095395871" lon="9.347128612077974"><ele>741.0</ele><time>2026-04-19T09:30:15Z</time></trkpt><trkpt lat="44.6126620921394" lon="9.347074758132385"><ele>739.0</ele><time>2026-04-19T09:30:16Z</time></trkpt><trkpt lat="44.612497984794814" lon="9.347019859609386"><ele>739.0</ele><time>2026-04-19T09:30:17Z</time></trkpt><trkpt lat="44.61233747393787" lon="9.34696431020473"><ele>739.0</ele><time>2026-04-19T09:30:18Z</time></trkpt><trkpt lat="44.61220809613712" lon="9.346920542650752"><ele>739.0</ele><time>2026-04-19T09:30:19Z</time></trkpt><trkpt lat="44.612099202121044" lon="9.346878353933448"><ele>739.0</ele><time>2026-04-19T09:30:20Z</time></trkpt><trkpt lat="44.61198379235965" lon="9.34683156911767"><ele>739.8000000000001</ele><time>2026-04-19T09:30:21Z</time></trkpt><trkpt lat="44.6118634250095" lon="9.346786959219678"><ele>740.6</ele><time>2026-04-19T09:30:22Z</time></trkpt><trkpt lat="44.611758534830706" lon="9.346755856007762"><ele>741.4</ele><time>2026-04-19T09:30:23Z</time></trkpt><trkpt lat="44.611672858838276" lon="9.34676516197493"><ele>742.2</ele><time>2026-04-19T09:30:24Z</time></trkpt><trkpt lat="44.611582829904386" lon="9.34682127560034"><ele>743.0</ele><time>2026-04-19T09:30:25Z</time></trkpt><trkpt lat="44.61149956119992" lon="9.346929820759748"><ele>743.0</ele><time>2026-04-19T09:30:26Z</time></trkpt><trkpt lat="44.61141864516744" lon="9.34706135256694"><ele>743.0</ele><time>2026-04-19T09:30:27Z</time></trkpt><trkpt lat="44.61129716855252" lon="9.347127466323224"><ele>743.0</ele><time>2026-04-19T09:30:28Z</time></trkpt><trkpt lat="44.611170374222326" lon="9.347187215415008"><ele>743.0</ele><time>2026-04-19T09:30:29Z</time></trkpt><trkpt lat="44.61106151906699" lon="9.347252280568462"><ele>744.8333333333333</ele><time>2026-04-19T09:30:30Z</time></trkpt><trkpt lat="44.61097578883581" lon="9.347293386081343"><ele>746.6666666666666</ele><time>2026-04-19T09:30:31Z</time></trkpt><trkpt lat="44.610923234812404" lon="9.347367155318276"><ele>748.5</ele><time>2026-04-19T09:30:32Z</time></trkpt><trkpt lat="44.61089424799188" lon="9.347467427923462"><ele>750.3333333333334</ele><time>2026-04-19T09:30:33Z</time></trkpt><trkpt lat="44.61093147680418" lon="9.34759752737365"><ele>752.1666666666667</ele><time>2026-04-19T09:30:34Z</time></trkpt><trkpt lat="44.61101535012377" lon="9.347686467233611"><ele>754.0</ele><time>2026-04-19T09:30:35Z</time></trkpt><trkpt lat="44.611134849840894" lon="9.347700590471003"><ele>755.5</ele><time>2026-04-19T09:30:36Z</time></trkpt><trkpt lat="44.61127046128764" lon="9.347632950860492"><ele>757.0</ele><time>2026-04-19T09:30:37Z</time></trkpt><trkpt lat="44.61138662609691" lon="9.347674028537895"><ele>758.5</ele><time>2026-04-19T09:30:38Z</time></trkpt><trkpt lat="44.611479534752725" lon="9.347746593819624"><ele>760.0</ele><time>2026-04-19T09:30:39Z</time></trkpt><trkpt lat="44.611574635933934" lon="9.347866112020395"><ele>760.0</ele><time>2026-04-19T09:30:40Z</time></trkpt><trkpt lat="44.6116919508548" lon="9.347994352480677"><ele>760.0</ele><time>2026-04-19T09:30:41Z</time></trkpt><trkpt lat="44.61180338028507" lon="9.348139092271419"><ele>760.0</ele><time>2026-04-19T09:30:42Z</time></trkpt><trkpt lat="44.611916134688634" lon="9.348280174570247"><ele>762.75</ele><time>2026-04-19T09:30:43Z</time></trkpt><trkpt lat="44.612011318773206" lon="9.34842145397351"><ele>765.5</ele><time>2026-04-19T09:30:44Z</time></trkpt><trkpt lat="44.61209237671606" lon="9.348522875918965"><ele>768.25</ele><time>2026-04-19T09:30:45Z</time></trkpt><trkpt lat="44.61214475983446" lon="9.348588419110078"><ele>771.0</ele><time>2026-04-19T09:30:46Z</time></trkpt><trkpt lat="44.61224754699568" lon="9.34870867322669"><ele>771.0</ele><time>2026-04-19T09:30:48Z</time></trkpt><trkpt lat="44.61230678328198" lon="9.348771558204641"><ele>771.0</ele><time>2026-04-19T09:30:49Z</time></trkpt><trkpt lat="44.612377593670566" lon="9.348843910213022"><ele>771.0</ele><time>2026-04-19T09:30:50Z</time></trkpt><trkpt lat="44.61246547466288" lon="9.34892112442318"><ele>771.0</ele><time>2026-04-19T09:30:51Z</time></trkpt><trkpt lat="44.61257630966268" lon="9.349000474520494"><ele>771.0</ele><time>2026-04-19T09:30:52Z</time></trkpt><trkpt lat="44.612697121179636" lon="9.34905846251132"><ele>772.0</ele><time>2026-04-19T09:30:53Z</time></trkpt><trkpt lat="44.61278952237597" lon="9.349096011017776"><ele>773.0</ele><time>2026-04-19T09:30:54Z</time></trkpt><trkpt lat="44.612867199231545" lon="9.349142211213145"><ele>774.0</ele><time>2026-04-19T09:30:55Z</time></trkpt><trkpt lat="44.612926430214635" lon="9.34920340825648"><ele>775.0</ele><time>2026-04-19T09:30:56Z</time></trkpt><trkpt lat="44.612944606473235" lon="9.349289378682457"><ele>776.0</ele><time>2026-04-19T09:30:56.999Z</time></trkpt><trkpt lat="44.61292446850827" lon="9.349381079728884"><ele>777.0</ele><time>2026-04-19T09:30:57.999Z</time></trkpt><trkpt lat="44.61285538321191" lon="9.349447886453184"><ele>779.75</ele><time>2026-04-19T09:30:58.999Z</time></trkpt><trkpt lat="44.61276277164609" lon="9.34947936365528"><ele>782.5</ele><time>2026-04-19T09:30:59.999Z</time></trkpt><trkpt lat="44.61264327529271" lon="9.349451783048782"><ele>785.25</ele><time>2026-04-19T09:31:00.999Z</time></trkpt><trkpt lat="44.612498966486136" lon="9.34939622736999"><ele>788.0</ele><time>2026-04-19T09:31:01.999Z</time></trkpt><trkpt lat="44.612330526417104" lon="9.34932986635195"><ele>788.0</ele><time>2026-04-19T09:31:02.999Z</time></trkpt><trkpt lat="44.612126499738814" lon="9.349297850825828"><ele>788.0</ele><time>2026-04-19T09:31:03.999Z</time></trkpt><trkpt lat="44.6119308737957" lon="9.349257962151574"><ele>788.0</ele><time>2026-04-19T09:31:04.999Z</time></trkpt><trkpt lat="44.61174486048504" lon="9.34922010254253"><ele>790.25</ele><time>2026-04-19T09:31:05.999Z</time></trkpt><trkpt lat="44.61159716627189" lon="9.349173651663383"><ele>792.5</ele><time>2026-04-19T09:31:06.999Z</time></trkpt><trkpt lat="44.611467979886804" lon="9.349139220648263"><ele>794.75</ele><time>2026-04-19T09:31:07.999Z</time></trkpt><trkpt lat="44.61136446208523" lon="9.349115904808558"><ele>797.0</ele><time>2026-04-19T09:31:08.999Z</time></trkpt><trkpt lat="44.611269380570555" lon="9.349117678096453"><ele>797.0</ele><time>2026-04-19T09:31:09.999Z</time></trkpt><trkpt lat="44.611169823480424" lon="9.349132165341718"><ele>797.0</ele><time>2026-04-19T09:31:10.999Z</time></trkpt><trkpt lat="44.61106436358069" lon="9.349168106336654"><ele>797.0</ele><time>2026-04-19T09:31:11.999Z</time></trkpt><trkpt lat="44.61095307282835" lon="9.34923609681057"><ele>797.0</ele><time>2026-04-19T09:31:12.999Z</time></trkpt><trkpt lat="44.61085437759126" lon="9.349341495438532"><ele>795.25</ele><time>2026-04-19T09:31:13.999Z</time></trkpt><trkpt lat="44.610771466911515" lon="9.349489496301098"><ele>793.5</ele><time>2026-04-19T09:31:14.999Z</time></trkpt><trkpt lat="44.610696974187924" lon="9.349648031776358"><ele>791.75</ele><time>2026-04-19T09:31:15.999Z</time></trkpt><trkpt lat="44.61061835770515" lon="9.349792037891692"><ele>790.0</ele><time>2026-04-19T09:31:16.999Z</time></trkpt><trkpt lat="44.610539050365176" lon="9.349886078342582"><ele>794.0</ele><time>2026-04-19T09:31:17.999Z</time></trkpt><trkpt lat="44.61042455947618" lon="9.349936116780047"><ele>798.0</ele><time>2026-04-19T09:31:18.999Z</time></trkpt><trkpt lat="44.61029958898428" lon="9.350005938243704"><ele>802.0</ele><time>2026-04-19T09:31:19.999Z</time></trkpt><trkpt lat="44.61019423827687" lon="9.35006445744267"><ele>806.0</ele><time>2026-04-19T09:31:20.999Z</time></trkpt><trkpt lat="44.610113667046775" lon="9.350172572114618"><ele>806.0</ele><time>2026-04-19T09:31:21.999Z</time></trkpt><trkpt lat="44.61004312699971" lon="9.350323320662621"><ele>806.0</ele><time>2026-04-19T09:31:22.999Z</time></trkpt><trkpt lat="44.60999384610076" lon="9.350472863574948"><ele>806.0</ele><time>2026-04-19T09:31:23.999Z</time></trkpt><trkpt lat="44.60992956407466" lon="9.350628685209127"><ele>806.0</ele><time>2026-04-19T09:31:24.999Z</time></trkpt><trkpt lat="44.60982232811436" lon="9.35074300630018"><ele>804.5</ele><time>2026-04-19T09:31:25.999Z</time></trkpt><trkpt lat="44.609709056008626" lon="9.350890250627044"><ele>803.0</ele><time>2026-04-19T09:31:26.999Z</time></trkpt><trkpt lat="44.609571280671894" lon="9.350969191285243"><ele>801.5</ele><time>2026-04-19T09:31:27.999Z</time></trkpt><trkpt lat="44.60945870143625" lon="9.351018087780945"><ele>800.0</ele><time>2026-04-19T09:31:28.999Z</time></trkpt><trkpt lat="44.60937358894279" lon="9.351074003187149"><ele>800.0000000000001</ele><time>2026-04-19T09:31:29.999Z</time></trkpt><trkpt lat="44.60929763690091" lon="9.35115266480613"><ele>800.0</ele><time>2026-04-19T09:31:30.999Z</time></trkpt><trkpt lat="44.609248447127264" lon="9.35123627055787"><ele>800.0</ele><time>2026-04-19T09:31:31.999Z</time></trkpt><trkpt lat="44.609247782781225" lon="9.351341650644207"><ele>800.0</ele><time>2026-04-19T09:31:32.999Z</time></trkpt><trkpt lat="44.609292063522894" lon="9.351440500295306"><ele>800.0000000000001</ele><time>2026-04-19T09:31:33.999Z</time></trkpt><trkpt lat="44.609386311082524" lon="9.351481353730094"><ele>800.0</ele><time>2026-04-19T09:31:34.999Z</time></trkpt><trkpt lat="44.60949833496585" lon="9.35142692705537"><ele>805.0</ele><time>2026-04-19T09:31:35.999Z</time></trkpt><trkpt lat="44.60961880091655" lon="9.35135963458267"><ele>810.0</ele><time>2026-04-19T09:31:36.999Z</time></trkpt><trkpt lat="44.609721600707466" lon="9.351305951696125"><ele>815.0</ele><time>2026-04-19T09:31:37.999Z</time></trkpt><trkpt lat="44.60983929121159" lon="9.351295804319495"><ele>820.0</ele><time>2026-04-19T09:31:38.999Z</time></trkpt><trkpt lat="44.609972323414034" lon="9.351309113917402"><ele>820.0</ele><time>2026-04-19T09:31:39.999Z</time></trkpt><trkpt lat="44.610123430107315" lon="9.351331364951939"><ele>820.0</ele><time>2026-04-19T09:31:40.999Z</time></trkpt><trkpt lat="44.61027936083423" lon="9.35135989848864"><ele>820.0</ele><time>2026-04-19T09:31:42Z</time></trkpt><trkpt lat="44.610447313437" lon="9.351406100792065"><ele>825.0</ele><time>2026-04-19T09:31:43Z</time></trkpt><trkpt lat="44.610582663836794" lon="9.351477364950071"><ele>830.0</ele><time>2026-04-19T09:31:44Z</time></trkpt><trkpt lat="44.61070569832295" lon="9.351534853003807"><ele>835.0</ele><time>2026-04-19T09:31:45Z</time></trkpt><trkpt lat="44.61083375127095" lon="9.351563905227932"><ele>840.0</ele><time>2026-04-19T09:31:46Z</time></trkpt><trkpt lat="44.610970750487375" lon="9.351554016981078"><ele>840.0</ele><time>2026-04-19T09:31:47Z</time></trkpt><trkpt lat="44.61108089882798" lon="9.351525961423203"><ele>840.0</ele><time>2026-04-19T09:31:48Z</time></trkpt><trkpt lat="44.61119225707565" lon="9.351478654015764"><ele>840.0</ele><time>2026-04-19T09:31:49Z</time></trkpt><trkpt lat="44.611298593389385" lon="9.351396377283743"><ele>840.0</ele><time>2026-04-19T09:31:50Z</time></trkpt><trkpt lat="44.611394314445256" lon="9.35128320142528"><ele>838.2</ele><time>2026-04-19T09:31:51Z</time></trkpt><trkpt lat="44.61148359826032" lon="9.351139700057276"><ele>836.4</ele><time>2026-04-19T09:31:52Z</time></trkpt><trkpt lat="44.61155875431602" lon="9.351019954624459"><ele>834.5999999999999</ele><time>2026-04-19T09:31:53Z</time></trkpt><trkpt lat="44.611640971165535" lon="9.350931414051892"><ele>832.8</ele><time>2026-04-19T09:31:54Z</time></trkpt><trkpt lat="44.61172742649311" lon="9.350907533515112"><ele>831.0</ele><time>2026-04-19T09:31:55Z</time></trkpt><trkpt lat="44.61182653032987" lon="9.350955127106234"><ele>831.0</ele><time>2026-04-19T09:31:56Z</time></trkpt><trkpt lat="44.61193535194643" lon="9.351041724500506"><ele>831.0</ele><time>2026-04-19T09:31:57Z</time></trkpt><trkpt lat="44.612059422398886" lon="9.351153588957317"><ele>831.0</ele><time>2026-04-19T09:31:58Z</time></trkpt><trkpt lat="44.61216047655499" lon="9.351246730485862"><ele>831.0</ele><time>2026-04-19T09:31:59Z</time></trkpt><trkpt lat="44.612285781559486" lon="9.351343107706079"><ele>835.5</ele><time>2026-04-19T09:32:00Z</time></trkpt><trkpt lat="44.61241427949561" lon="9.351438734816"><ele>840.0</ele><time>2026-04-19T09:32:01Z</time></trkpt><trkpt lat="44.61255846120186" lon="9.351465284873184"><ele>844.5</ele><time>2026-04-19T09:32:02Z</time></trkpt><trkpt lat="44.61270338000737" lon="9.351497727170846"><ele>849.0</ele><time>2026-04-19T09:32:03Z</time></trkpt><trkpt lat="44.612807574921696" lon="9.351579943521473"><ele>847.75</ele><time>2026-04-19T09:32:04Z</time></trkpt><trkpt lat="44.612891785600674" lon="9.351699278103611"><ele>846.5</ele><time>2026-04-19T09:32:05Z</time></trkpt><trkpt lat="44.61296365710001" lon="9.351856024699579"><ele>845.25</ele><time>2026-04-19T09:32:06Z</time></trkpt><trkpt lat="44.61302503918115" lon="9.352036691511243"><ele>844.0</ele><time>2026-04-19T09:32:07Z</time></trkpt><trkpt lat="44.61309049316995" lon="9.352252047654696"><ele>844.0</ele><time>2026-04-19T09:32:08Z</time></trkpt><trkpt lat="44.61316793851571" lon="9.352465869376541"><ele>844.0</ele><time>2026-04-19T09:32:09Z</time></trkpt><trkpt lat="44.613256812938516" lon="9.3526801938434"><ele>844.0</ele><time>2026-04-19T09:32:10Z</time></trkpt><trkpt lat="44.61333120031876" lon="9.35286073164463"><ele>844.0</ele><time>2026-04-19T09:32:11Z</time></trkpt><trkpt lat="44.6133955928711" lon="9.353017339248474"><ele>844.0</ele><time>2026-04-19T09:32:12Z</time></trkpt><trkpt lat="44.61345434367562" lon="9.353157502054536"><ele>844.0</ele><time>2026-04-19T09:32:13Z</time></trkpt><trkpt lat="44.613508532745115" lon="9.353276077725504"><ele>844.0</ele><time>2026-04-19T09:32:14Z</time></trkpt><trkpt lat="44.613571408167445" lon="9.35335365465503"><ele>844.0</ele><time>2026-04-19T09:32:15Z</time></trkpt><trkpt lat="44.613650989609845" lon="9.353413290110899"><ele>844.4000000000001</ele><time>2026-04-19T09:32:16Z</time></trkpt><trkpt lat="44.613753305870695" lon="9.35342013531108"><ele>844.8</ele><time>2026-04-19T09:32:17Z</time></trkpt><trkpt lat="44.613871059924236" lon="9.353387711162318"><ele>845.2</ele><time>2026-04-19T09:32:18Z</time></trkpt><trkpt lat="44.61398796334798" lon="9.35341458802389"><ele>845.5999999999999</ele><time>2026-04-19T09:32:19Z</time></trkpt><trkpt lat="44.61407819475352" lon="9.353474540665745"><ele>846.0</ele><time>2026-04-19T09:32:20Z</time></trkpt><trkpt lat="44.61415804891339" lon="9.353587710397825"><ele>846.0</ele><time>2026-04-19T09:32:21Z</time></trkpt><trkpt lat="44.61427323168282" lon="9.353716756503912"><ele>846.0</ele><time>2026-04-19T09:32:22Z</time></trkpt><trkpt lat="44.61440266051153" lon="9.353791826339776"><ele>846.0</ele><time>2026-04-19T09:32:23Z</time></trkpt><trkpt lat="44.61453799743783" lon="9.353774441811032"><ele>846.0</ele><time>2026-04-19T09:32:24Z</time></trkpt><trkpt lat="44.61465407963615" lon="9.353747059268992"><ele>845.5999999999999</ele><time>2026-04-19T09:32:25Z</time></trkpt><trkpt lat="44.614753591026165" lon="9.353778742563563"><ele>845.2</ele><time>2026-04-19T09:32:26Z</time></trkpt><trkpt lat="44.614823966692455" lon="9.353861646455117"><ele>844.8</ele><time>2026-04-19T09:32:27Z</time></trkpt><trkpt lat="44.61486619231451" lon="9.353976908369413"><ele>844.4000000000001</ele><time>2026-04-19T09:32:28Z</time></trkpt><trkpt lat="44.614912683235005" lon="9.354090806925623"><ele>844.0</ele><time>2026-04-19T09:32:29Z</time></trkpt><trkpt lat="44.61499505451059" lon="9.354194667973058"><ele>846.25</ele><time>2026-04-19T09:32:30Z</time></trkpt><trkpt lat="44.61512352889131" lon="9.354216505407363"><ele>848.5</ele><time>2026-04-19T09:32:31Z</time></trkpt><trkpt lat="44.61523900790078" lon="9.354133811651014"><ele>850.75</ele><time>2026-04-19T09:32:32Z</time></trkpt><trkpt lat="44.615337891343046" lon="9.35400642564038"><ele>853.0</ele><time>2026-04-19T09:32:33Z</time></trkpt><trkpt lat="44.61543205922784" lon="9.353831191951926"><ele>853.0</ele><time>2026-04-19T09:32:34Z</time></trkpt><trkpt lat="44.615521261112065" lon="9.353678928967138"><ele>853.0</ele><time>2026-04-19T09:32:35Z</time></trkpt><trkpt lat="44.615622441631736" lon="9.353621686122269"><ele>853.0</ele><time>2026-04-19T09:32:36Z</time></trkpt><trkpt lat="44.615719247673994" lon="9.353624634707488"><ele>853.0</ele><time>2026-04-19T09:32:37Z</time></trkpt><trkpt lat="44.61582158319606" lon="9.353670040047188"><ele>853.0</ele><time>2026-04-19T09:32:38Z</time></trkpt><trkpt lat="44.61588986337063" lon="9.353780358661465"><ele>853.0</ele><time>2026-04-19T09:32:39Z</time></trkpt><trkpt lat="44.615978669138364" lon="9.353907037911059"><ele>853.0</ele><time>2026-04-19T09:32:40Z</time></trkpt><trkpt lat="44.61607989926238" lon="9.354051086260338"><ele>853.0</ele><time>2026-04-19T09:32:41Z</time></trkpt><trkpt lat="44.61616390706606" lon="9.35416737704651"><ele>856.2</ele><time>2026-04-19T09:32:42Z</time></trkpt><trkpt lat="44.61623595708077" lon="9.354226948999345"><ele>859.4</ele><time>2026-04-19T09:32:43Z</time></trkpt><trkpt lat="44.61633193849811" lon="9.35422467062632"><ele>862.6000000000001</ele><time>2026-04-19T09:32:44Z</time></trkpt><trkpt lat="44.61642403511989" lon="9.35412547601356"><ele>865.8000000000001</ele><time>2026-04-19T09:32:45Z</time></trkpt><trkpt lat="44.61647421850023" lon="9.353958086774961"><ele>869.0</ele><time>2026-04-19T09:32:46Z</time></trkpt><trkpt lat="44.616557522854265" lon="9.353854133450445"><ele>869.0</ele><time>2026-04-19T09:32:47Z</time></trkpt><trkpt lat="44.616671098954775" lon="9.353811570205558"><ele>869.0</ele><time>2026-04-19T09:32:48Z</time></trkpt><trkpt lat="44.616787440253454" lon="9.353720124895387"><ele>869.0</ele><time>2026-04-19T09:32:49Z</time></trkpt><trkpt lat="44.61686345894787" lon="9.353553145262241"><ele>869.0</ele><time>2026-04-19T09:32:50Z</time></trkpt><trkpt lat="44.61694146538298" lon="9.353399113271696"><ele>869.0</ele><time>2026-04-19T09:32:51Z</time></trkpt><trkpt lat="44.61694180379996" lon="9.353234319581254"><ele>869.0000000000001</ele><time>2026-04-19T09:32:52Z</time></trkpt><trkpt lat="44.61696609016744" lon="9.353093554013395"><ele>869.0000000000001</ele><time>2026-04-19T09:32:53Z</time></trkpt><trkpt lat="44.61699429401262" lon="9.352988095520526"><ele>869.0</ele><time>2026-04-19T09:32:54Z</time></trkpt><trkpt lat="44.61706352460115" lon="9.352944970650634"><ele>869.0</ele><time>2026-04-19T09:32:55Z</time></trkpt><trkpt lat="44.61713574296506" lon="9.352972897084658"><ele>872.6</ele><time>2026-04-19T09:32:56Z</time></trkpt><trkpt lat="44.61717995809986" lon="9.353037468085455"><ele>876.2</ele><time>2026-04-19T09:32:57Z</time></trkpt><trkpt lat="44.61719789096158" lon="9.353143514156326"><ele>879.8000000000001</ele><time>2026-04-19T09:32:58Z</time></trkpt><trkpt lat="44.617168593225394" lon="9.353278497650086"><ele>883.4000000000001</ele><time>2026-04-19T09:32:59Z</time></trkpt><trkpt lat="44.617132015300854" lon="9.353431642916465"><ele>887.0</ele><time>2026-04-19T09:33:00Z</time></trkpt><trkpt lat="44.617103862725564" lon="9.353619800780177"><ele>887.75</ele><time>2026-04-19T09:33:01Z</time></trkpt><trkpt lat="44.617071378232325" lon="9.353809350516183"><ele>888.5</ele><time>2026-04-19T09:33:01.999Z</time></trkpt><trkpt lat="44.61703481814226" lon="9.35400702481585"><ele>889.25</ele><time>2026-04-19T09:33:02.999Z</time></trkpt><trkpt lat="44.61699734754778" lon="9.354210937751839"><ele>890.0</ele><time>2026-04-19T09:33:03.999Z</time></trkpt><trkpt lat="44.61696026492507" lon="9.354432186994021"><ele>889.0</ele><time>2026-04-19T09:33:04.999Z</time></trkpt><trkpt lat="44.61692657818667" lon="9.354650075289085"><ele>888.0</ele><time>2026-04-19T09:33:05.999Z</time></trkpt><trkpt lat="44.616889504221135" lon="9.354860698855632"><ele>887.0</ele><time>2026-04-19T09:33:06.999Z</time></trkpt><trkpt lat="44.616857988488626" lon="9.355033035312456"><ele>886.0</ele><time>2026-04-19T09:33:07.999Z</time></trkpt><trkpt lat="44.61682717299575" lon="9.355190419540724"><ele>886.0</ele><time>2026-04-19T09:33:08.999Z</time></trkpt><trkpt lat="44.616796597239066" lon="9.355372008853351"><ele>886.0</ele><time>2026-04-19T09:33:09.999Z</time></trkpt><trkpt lat="44.61678886331851" lon="9.355567511457824"><ele>886.0</ele><time>2026-04-19T09:33:10.999Z</time></trkpt><trkpt lat="44.61681790381525" lon="9.355766271508925"><ele>886.0</ele><time>2026-04-19T09:33:11.999Z</time></trkpt><trkpt lat="44.61686652377904" lon="9.3559680985134"><ele>888.75</ele><time>2026-04-19T09:33:12.999Z</time></trkpt><trkpt lat="44.61687927369989" lon="9.356147658304852"><ele>891.5</ele><time>2026-04-19T09:33:13.999Z</time></trkpt><trkpt lat="44.616876022677815" lon="9.356308461479763"><ele>894.25</ele><time>2026-04-19T09:33:14.999Z</time></trkpt><trkpt lat="44.61684651035733" lon="9.356471272751993"><ele>897.0</ele><time>2026-04-19T09:33:15.999Z</time></trkpt><trkpt lat="44.61680752561203" lon="9.356592408063797"><ele>900.0</ele><time>2026-04-19T09:33:16.999Z</time></trkpt><trkpt lat="44.61675619118844" lon="9.35667032676077"><ele>903.0</ele><time>2026-04-19T09:33:17.999Z</time></trkpt><trkpt lat="44.61667583770832" lon="9.356686274047808"><ele>906.0</ele><time>2026-04-19T09:33:18.999Z</time></trkpt><trkpt lat="44.61658924469001" lon="9.356622796841922"><ele>909.0</ele><time>2026-04-19T09:33:19.999Z</time></trkpt><trkpt lat="44.61653078838019" lon="9.356489206214343"><ele>912.0</ele><time>2026-04-19T09:33:20.999Z</time></trkpt><trkpt lat="44.61644319377684" lon="9.356394691657488"><ele>912.0</ele><time>2026-04-19T09:33:21.999Z</time></trkpt><trkpt lat="44.616361649596655" lon="9.356341965495918"><ele>912.0</ele><time>2026-04-19T09:33:22.999Z</time></trkpt><trkpt lat="44.61626906674893" lon="9.35634570237365"><ele>912.0</ele><time>2026-04-19T09:33:23.999Z</time></trkpt><trkpt lat="44.61617220120136" lon="9.356413464337997"><ele>912.0</ele><time>2026-04-19T09:33:24.999Z</time></trkpt><trkpt lat="44.61608310816696" lon="9.356527999906431"><ele>912.0</ele><time>2026-04-19T09:33:25.999Z</time></trkpt><trkpt lat="44.61599396525303" lon="9.356686369064628"><ele>911.0</ele><time>2026-04-19T09:33:26.999Z</time></trkpt><trkpt lat="44.61592652677468" lon="9.356827459888725"><ele>910.0</ele><time>2026-04-19T09:33:27.999Z</time></trkpt><trkpt lat="44.61588461511858" lon="9.35695164558472"><ele>909.0</ele><time>2026-04-19T09:33:28.999Z</time></trkpt><trkpt lat="44.61586909908846" lon="9.35710416670886"><ele>908.0</ele><time>2026-04-19T09:33:29.999Z</time></trkpt><trkpt lat="44.61587504104549" lon="9.357287247965616"><ele>911.0</ele><time>2026-04-19T09:33:30.999Z</time></trkpt><trkpt lat="44.61584483654753" lon="9.35743725935978"><ele>914.0</ele><time>2026-04-19T09:33:31.999Z</time></trkpt><trkpt lat="44.61579872477766" lon="9.35755466985311"><ele>917.0</ele><time>2026-04-19T09:33:32.999Z</time></trkpt><trkpt lat="44.61570322755689" lon="9.35762501385033"><ele>920.0</ele><time>2026-04-19T09:33:33.999Z</time></trkpt><trkpt lat="44.61558565899235" lon="9.357741761599142"><ele>920.0</ele><time>2026-04-19T09:33:34.999Z</time></trkpt><trkpt lat="44.61544431308333" lon="9.357858806656072"><ele>920.0</ele><time>2026-04-19T09:33:35.999Z</time></trkpt><trkpt lat="44.61529160272861" lon="9.358008846382752"><ele>920.0</ele><time>2026-04-19T09:33:36.999Z</time></trkpt><trkpt lat="44.61512340681506" lon="9.358168411295182"><ele>922.75</ele><time>2026-04-19T09:33:37.999Z</time></trkpt><trkpt lat="44.61498630006168" lon="9.358312733529589"><ele>925.5</ele><time>2026-04-19T09:33:38.999Z</time></trkpt><trkpt lat="44.614868102698644" lon="9.358434183009619"><ele>928.25</ele><time>2026-04-19T09:33:39.999Z</time></trkpt><trkpt lat="44.61476174368674" lon="9.358513468718193"><ele>931.0</ele><time>2026-04-19T09:33:40.999Z</time></trkpt><trkpt lat="44.61464109728784" lon="9.358542716712169"><ele>931.0</ele><time>2026-04-19T09:33:41.999Z</time></trkpt><trkpt lat="44.614507862537046" lon="9.358503566679797"><ele>931.0</ele><time>2026-04-19T09:33:42.999Z</time></trkpt><trkpt lat="44.614358671648496" lon="9.358484662202189"><ele>931.0</ele><time>2026-04-19T09:33:43.999Z</time></trkpt><trkpt lat="44.61419937558899" lon="9.35842876718755"><ele>931.5</ele><time>2026-04-19T09:33:44.999Z</time></trkpt><trkpt lat="44.61406592249714" lon="9.358325865895553"><ele>932.0</ele><time>2026-04-19T09:33:45.999Z</time></trkpt><trkpt lat="44.61397464501765" lon="9.358219502094752"><ele>932.5</ele><time>2026-04-19T09:33:46.999Z</time></trkpt><trkpt lat="44.61388186347052" lon="9.358137531311055"><ele>933.0</ele><time>2026-04-19T09:33:48Z</time></trkpt><trkpt lat="44.61380197968208" lon="9.35802998237669"><ele>933.5999999999999</ele><time>2026-04-19T09:33:49Z</time></trkpt><trkpt lat="44.613715697967436" lon="9.357963447140012"><ele>934.1999999999999</ele><time>2026-04-19T09:33:50Z</time></trkpt><trkpt lat="44.613623677619366" lon="9.357961114544445"><ele>934.8</ele><time>2026-04-19T09:33:51Z</time></trkpt><trkpt lat="44.61352376807952" lon="9.358029386013165"><ele>935.4</ele><time>2026-04-19T09:33:52Z</time></trkpt><trkpt lat="44.61343902025176" lon="9.358158800984182"><ele>936.0</ele><time>2026-04-19T09:33:53Z</time></trkpt><trkpt lat="44.61334413725592" lon="9.358330058423993"><ele>936.0</ele><time>2026-04-19T09:33:54Z</time></trkpt><trkpt lat="44.61324648074981" lon="9.358482592474257"><ele>936.0</ele><time>2026-04-19T09:33:55Z</time></trkpt><trkpt lat="44.613149150947955" lon="9.358609054655616"><ele>936.0</ele><time>2026-04-19T09:33:56Z</time></trkpt><trkpt lat="44.61308053993111" lon="9.35871065475069"><ele>936.0</ele><time>2026-04-19T09:33:57Z</time></trkpt><trkpt lat="44.61306156942327" lon="9.358837031736158"><ele>937.5999999999999</ele><time>2026-04-19T09:33:58Z</time></trkpt><trkpt lat="44.61308836660382" lon="9.358957677740253"><ele>939.1999999999999</ele><time>2026-04-19T09:33:59Z</time></trkpt><trkpt lat="44.613140525031305" lon="9.359066331674962"><ele>940.8000000000001</ele><time>2026-04-19T09:34:00Z</time></trkpt><trkpt lat="44.61325299657567" lon="9.359096270274664"><ele>942.4000000000001</ele><time>2026-04-19T09:34:01Z</time></trkpt><trkpt lat="44.6133643825989" lon="9.35904162410357"><ele>944.0</ele><time>2026-04-19T09:34:02Z</time></trkpt><trkpt lat="44.6134760720497" lon="9.359020367090126"><ele>944.0</ele><time>2026-04-19T09:34:03Z</time></trkpt><trkpt lat="44.61357513232758" lon="9.359010565427093"><ele>944.0000000000001</ele><time>2026-04-19T09:34:04Z</time></trkpt><trkpt lat="44.61364661920512" lon="9.359079271714265"><ele>944.0000000000001</ele><time>2026-04-19T09:34:05Z</time></trkpt><trkpt lat="44.61368969737402" lon="9.359207988839012"><ele>944.0</ele><time>2026-04-19T09:34:06Z</time></trkpt><trkpt lat="44.613754833408684" lon="9.359366219980513"><ele>944.0</ele><time>2026-04-19T09:34:07Z</time></trkpt><trkpt lat="44.61382981662976" lon="9.359535232938542"><ele>947.5</ele><time>2026-04-19T09:34:08Z</time></trkpt><trkpt lat="44.613899664887605" lon="9.359703511030226"><ele>951.0</ele><time>2026-04-19T09:34:09Z</time></trkpt><trkpt lat="44.613976449892085" lon="9.359877829024859"><ele>954.5</ele><time>2026-04-19T09:34:10Z</time></trkpt><trkpt lat="44.614073546951126" lon="9.360036460289898"><ele>958.0</ele><time>2026-04-19T09:34:11Z</time></trkpt><trkpt lat="44.61420157585338" lon="9.36020238656651"><ele>958.0</ele><time>2026-04-19T09:34:12Z</time></trkpt><trkpt lat="44.61434549068277" lon="9.360394252856674"><ele>958.0</ele><time>2026-04-19T09:34:13Z</time></trkpt><trkpt lat="44.61449633464712" lon="9.360587949583316"><ele>958.0</ele><time>2026-04-19T09:34:14Z</time></trkpt><trkpt lat="44.61463367263602" lon="9.36076430346709"><ele>960.25</ele><time>2026-04-19T09:34:15Z</time></trkpt><trkpt lat="44.61475536971505" lon="9.360920573047345"><ele>962.5</ele><time>2026-04-19T09:34:16Z</time></trkpt><trkpt lat="44.614856298243325" lon="9.361034704923613"><ele>964.75</ele><time>2026-04-19T09:34:17Z</time></trkpt><trkpt lat="44.614942596489314" lon="9.361139430534788"><ele>967.0</ele><time>2026-04-19T09:34:18Z</time></trkpt><trkpt lat="44.615019989904866" lon="9.361212907531305"><ele>967.0</ele><time>2026-04-19T09:34:19Z</time></trkpt><trkpt lat="44.61513856386063" lon="9.361210774443768"><ele>967.0</ele><time>2026-04-19T09:34:20Z</time></trkpt><trkpt lat="44.615255158605635" lon="9.361107325148243"><ele>967.0</ele><time>2026-04-19T09:34:21Z</time></trkpt><trkpt lat="44.61539919388872" lon="9.361023066735546"><ele>967.0</ele><time>2026-04-19T09:34:22Z</time></trkpt><trkpt lat="44.61552201856631" lon="9.360925073523793"><ele>966.75</ele><time>2026-04-19T09:34:23Z</time></trkpt><trkpt lat="44.61564869990926" lon="9.36080509679696"><ele>966.5</ele><time>2026-04-19T09:34:24Z</time></trkpt><trkpt lat="44.61572921052205" lon="9.360657065273921"><ele>966.25</ele><time>2026-04-19T09:34:25Z</time></trkpt><trkpt lat="44.61578210800284" lon="9.360537462083988"><ele>966.0</ele><time>2026-04-19T09:34:26Z</time></trkpt><trkpt lat="44.61584511167877" lon="9.360433575931907"><ele>966.0</ele><time>2026-04-19T09:34:27Z</time></trkpt><trkpt lat="44.61591990448748" lon="9.360364471131222"><ele>966.0</ele><time>2026-04-19T09:34:28Z</time></trkpt><trkpt lat="44.61602060748925" lon="9.360345341938423"><ele>966.0</ele><time>2026-04-19T09:34:29Z</time></trkpt><trkpt lat="44.61614159280251" lon="9.360351191873201"><ele>966.0</ele><time>2026-04-19T09:34:30Z</time></trkpt><trkpt lat="44.61631004232316" lon="9.360343084741535"><ele>969.0</ele><time>2026-04-19T09:34:31Z</time></trkpt><trkpt lat="44.61647370004916" lon="9.360333534577157"><ele>972.0</ele><time>2026-04-19T09:34:32Z</time></trkpt><trkpt lat="44.616631589326474" lon="9.360325919138479"><ele>975.0</ele><time>2026-04-19T09:34:33Z</time></trkpt><trkpt lat="44.61676652786637" lon="9.36031680872387"><ele>975.0</ele><time>2026-04-19T09:34:34Z</time></trkpt><trkpt lat="44.61687942776213" lon="9.360297707292695"><ele>975.0</ele><time>2026-04-19T09:34:35Z</time></trkpt><trkpt lat="44.61700820618176" lon="9.360230086246466"><ele>975.0</ele><time>2026-04-19T09:34:36Z</time></trkpt><trkpt lat="44.6171347936283" lon="9.360100291802906"><ele>975.0</ele><time>2026-04-19T09:34:37Z</time></trkpt><trkpt lat="44.61726702816009" lon="9.359964348993547"><ele>978.4</ele><time>2026-04-19T09:34:38Z</time></trkpt><trkpt lat="44.61737293720632" lon="9.359848614244536"><ele>981.8</ele><time>2026-04-19T09:34:39Z</time></trkpt><trkpt lat="44.617470960966266" lon="9.359780942651227"><ele>985.2</ele><time>2026-04-19T09:34:40Z</time></trkpt><trkpt lat="44.61754158768364" lon="9.359770236186078"><ele>988.6</ele><time>2026-04-19T09:34:41Z</time></trkpt><trkpt lat="44.61760625905662" lon="9.35980843028568"><ele>992.0</ele><time>2026-04-19T09:34:42Z</time></trkpt><trkpt lat="44.617671038525216" lon="9.359904775519766"><ele>992.0</ele><time>2026-04-19T09:34:43Z</time></trkpt><trkpt lat="44.617757354412255" lon="9.359980808717467"><ele>992.0</ele><time>2026-04-19T09:34:44Z</time></trkpt><trkpt lat="44.61787827527395" lon="9.359998888984817"><ele>992.0</ele><time>2026-04-19T09:34:45Z</time></trkpt><trkpt lat="44.61801291527147" lon="9.359951056257392"><ele>992.0</ele><time>2026-04-19T09:34:46Z</time></trkpt><trkpt lat="44.61815060565812" lon="9.359894670311679"><ele>991.25</ele><time>2026-04-19T09:34:47Z</time></trkpt><trkpt lat="44.618286550559226" lon="9.359836670962745"><ele>990.5</ele><time>2026-04-19T09:34:48Z</time></trkpt><trkpt lat="44.61842730202956" lon="9.359765599808012"><ele>989.75</ele><time>2026-04-19T09:34:49Z</time></trkpt><trkpt lat="44.618538881571965" lon="9.359683004353606"><ele>989.0</ele><time>2026-04-19T09:34:50Z</time></trkpt><trkpt lat="44.618625491928064" lon="9.359566273457792"><ele>994.75</ele><time>2026-04-19T09:34:51Z</time></trkpt><trkpt lat="44.61871242854058" lon="9.359388343285675"><ele>1000.5</ele><time>2026-04-19T09:34:52Z</time></trkpt><trkpt lat="44.61880199002523" lon="9.359224064647655"><ele>1006.25</ele><time>2026-04-19T09:34:53Z</time></trkpt><trkpt lat="44.61889102836894" lon="9.359115240932008"><ele>1012.0</ele><time>2026-04-19T09:34:54Z</time></trkpt><trkpt lat="44.619000104442144" lon="9.359060396875167"><ele>1012.0</ele><time>2026-04-19T09:34:55Z</time></trkpt><trkpt lat="44.61912679467972" lon="9.358963168087069"><ele>1012.0</ele><time>2026-04-19T09:34:56Z</time></trkpt><trkpt lat="44.61923178184677" lon="9.358792835766492"><ele>1012.0</ele><time>2026-04-19T09:34:57Z</time></trkpt><trkpt lat="44.61932770302746" lon="9.358647707296022"><ele>1012.0</ele><time>2026-04-19T09:34:58Z</time></trkpt><trkpt lat="44.619466663137544" lon="9.358510280396178"><ele>1013.5</ele><time>2026-04-19T09:34:59Z</time></trkpt><trkpt lat="44.61960683539929" lon="9.358394109180095"><ele>1015.0</ele><time>2026-04-19T09:35:00Z</time></trkpt><trkpt lat="44.61972164415254" lon="9.358279003434895"><ele>1016.5</ele><time>2026-04-19T09:35:01Z</time></trkpt><trkpt lat="44.61981025221943" lon="9.358208563425853"><ele>1018.0</ele><time>2026-04-19T09:35:01.999Z</time></trkpt><trkpt lat="44.61989376814788" lon="9.35814942013073"><ele>1017.5</ele><time>2026-04-19T09:35:02.999Z</time></trkpt><trkpt lat="44.62000567367014" lon="9.357927987909292"><ele>1017.0</ele><time>2026-04-19T09:35:03.999Z</time></trkpt><trkpt lat="44.62005534113195" lon="9.357783657784491"><ele>1016.5</ele><time>2026-04-19T09:35:04.999Z</time></trkpt><trkpt lat="44.62007212399291" lon="9.357655690257443"><ele>1016.0</ele><time>2026-04-19T09:35:05.999Z</time></trkpt><trkpt lat="44.62012391839862" lon="9.357588036909306"><ele>1016.0000000000001</ele><time>2026-04-19T09:35:06.999Z</time></trkpt><trkpt lat="44.62018503003226" lon="9.35756475887204"><ele>1016.0</ele><time>2026-04-19T09:35:07.999Z</time></trkpt><trkpt lat="44.62024998250956" lon="9.357639160856852"><ele>1016.0</ele><time>2026-04-19T09:35:08.999Z</time></trkpt><trkpt lat="44.62027860522067" lon="9.357783314486309"><ele>1016.0</ele><time>2026-04-19T09:35:10.999Z</time></trkpt><trkpt lat="44.620257760205995" lon="9.357893437713548"><ele>1016.0000000000001</ele><time>2026-04-19T09:35:11.999Z</time></trkpt><trkpt lat="44.62021387645734" lon="9.358027054497196"><ele>1016.0</ele><time>2026-04-19T09:35:12.999Z</time></trkpt><trkpt lat="44.62013980412293" lon="9.35818358455616"><ele>1016.6666666666667</ele><time>2026-04-19T09:35:13.999Z</time></trkpt><trkpt lat="44.620040814847705" lon="9.358343425912421"><ele>1017.3333333333333</ele><time>2026-04-19T09:35:14.999Z</time></trkpt><trkpt lat="44.61993078195585" lon="9.358495568793511"><ele>1018.0</ele><time>2026-04-19T09:35:15.999Z</time></trkpt><trkpt lat="44.61981194507334" lon="9.35866304377299"><ele>1018.0</ele><time>2026-04-19T09:35:16.999Z</time></trkpt><trkpt lat="44.61969134838103" lon="9.358835519805353"><ele>1018.0</ele><time>2026-04-19T09:35:17.999Z</time></trkpt><trkpt lat="44.619573050281126" lon="9.359006793476375"><ele>1018.0</ele><time>2026-04-19T09:35:18.999Z</time></trkpt><trkpt lat="44.61947128239272" lon="9.359170041713467"><ele>1016.0</ele><time>2026-04-19T09:35:19.999Z</time></trkpt><trkpt lat="44.61938825919517" lon="9.359367365189962"><ele>1014.0</ele><time>2026-04-19T09:35:20.999Z</time></trkpt><trkpt lat="44.61929096797141" lon="9.35958180996297"><ele>1012.0</ele><time>2026-04-19T09:35:21.999Z</time></trkpt><trkpt lat="44.61919262609553" lon="9.35977968788136"><ele>1016.5</ele><time>2026-04-19T09:35:22.999Z</time></trkpt><trkpt lat="44.619115354905226" lon="9.359998550777998"><ele>1021.0</ele><time>2026-04-19T09:35:23.999Z</time></trkpt><trkpt lat="44.61903355887901" lon="9.360179895185246"><ele>1025.5</ele><time>2026-04-19T09:35:24.999Z</time></trkpt><trkpt lat="44.618971968491245" lon="9.36032034430656"><ele>1030.0</ele><time>2026-04-19T09:35:25.999Z</time></trkpt><trkpt lat="44.61894395594502" lon="9.360502234244358"><ele>1033.3333333333333</ele><time>2026-04-19T09:35:26.999Z</time></trkpt><trkpt lat="44.61893405429902" lon="9.360719738853382"><ele>1036.6666666666667</ele><time>2026-04-19T09:35:27.999Z</time></trkpt><trkpt lat="44.61890612071939" lon="9.360966699653174"><ele>1040.0</ele><time>2026-04-19T09:35:28.999Z</time></trkpt><trkpt lat="44.6188870207273" lon="9.36123780300229"><ele>1041.6666666666667</ele><time>2026-04-19T09:35:29.999Z</time></trkpt><trkpt lat="44.61888454627889" lon="9.361501441998366"><ele>1043.3333333333333</ele><time>2026-04-19T09:35:30.999Z</time></trkpt><trkpt lat="44.61883974453391" lon="9.361758759632222"><ele>1045.0</ele><time>2026-04-19T09:35:31.999Z</time></trkpt><trkpt lat="44.61880036010684" lon="9.362006821816152"><ele>1046.25</ele><time>2026-04-19T09:35:32.999Z</time></trkpt><trkpt lat="44.61876184115908" lon="9.362219632311378"><ele>1047.5</ele><time>2026-04-19T09:35:33.999Z</time></trkpt><trkpt lat="44.61873140937531" lon="9.362397694255074"><ele>1048.75</ele><time>2026-04-19T09:35:34.999Z</time></trkpt><trkpt lat="44.61871686314334" lon="9.36258264561116"><ele>1050.0</ele><time>2026-04-19T09:35:35.999Z</time></trkpt><trkpt lat="44.61866987345708" lon="9.362735151460823"><ele>1050.6</ele><time>2026-04-19T09:35:36.999Z</time></trkpt><trkpt lat="44.61862708703535" lon="9.36286926173231"><ele>1051.2</ele><time>2026-04-19T09:35:37.999Z</time></trkpt><trkpt lat="44.618543584041404" lon="9.362946892761563"><ele>1051.8</ele><time>2026-04-19T09:35:38.999Z</time></trkpt><trkpt lat="44.6184364106902" lon="9.362996056893254"><ele>1052.4</ele><time>2026-04-19T09:35:39.999Z</time></trkpt><trkpt lat="44.618319965147094" lon="9.363069061810199"><ele>1053.0</ele><time>2026-04-19T09:35:40.999Z</time></trkpt><trkpt lat="44.61819249914483" lon="9.363121919136509"><ele>1053.0</ele><time>2026-04-19T09:35:41.999Z</time></trkpt><trkpt lat="44.61808156716863" lon="9.363178059044722"><ele>1053.0</ele><time>2026-04-19T09:35:42.999Z</time></trkpt><trkpt lat="44.61798689798373" lon="9.363242477237796"><ele>1053.0</ele><time>2026-04-19T09:35:43.999Z</time></trkpt><trkpt lat="44.6178990917449" lon="9.363352956121817"><ele>1053.0</ele><time>2026-04-19T09:35:44.999Z</time></trkpt><trkpt lat="44.617816136340714" lon="9.36349051813156"><ele>1053.75</ele><time>2026-04-19T09:35:45.999Z</time></trkpt><trkpt lat="44.61774649740682" lon="9.363652351272508"><ele>1054.5</ele><time>2026-04-19T09:35:46.999Z</time></trkpt><trkpt lat="44.61768050806984" lon="9.363824305729512"><ele>1055.25</ele><time>2026-04-19T09:35:47.999Z</time></trkpt><trkpt lat="44.617633279175564" lon="9.363998333884371"><ele>1056.0</ele><time>2026-04-19T09:35:48.999Z</time></trkpt><trkpt lat="44.61761334967567" lon="9.36413077609561"><ele>1056.0</ele><time>2026-04-19T09:35:49.999Z</time></trkpt><trkpt lat="44.61760379231549" lon="9.364233883141626"><ele>1056.0</ele><time>2026-04-19T09:35:50.999Z</time></trkpt><trkpt lat="44.61763331890376" lon="9.364342414268915"><ele>1056.0</ele><time>2026-04-19T09:35:51.999Z</time></trkpt><trkpt lat="44.617718459386126" lon="9.364440585649927"><ele>1056.0</ele><time>2026-04-19T09:35:52.999Z</time></trkpt><trkpt lat="44.61781505073665" lon="9.36445623573014"><ele>1056.0</ele><time>2026-04-19T09:35:54Z</time></trkpt><trkpt lat="44.61789955670712" lon="9.364414357128332"><ele>1055.3999999999999</ele><time>2026-04-19T09:35:55Z</time></trkpt><trkpt lat="44.61796605345882" lon="9.364301269973065"><ele>1054.8</ele><time>2026-04-19T09:35:56Z</time></trkpt><trkpt lat="44.617953000836" lon="9.364141539290488"><ele>1054.1999999999998</ele><time>2026-04-19T09:35:57Z</time></trkpt><trkpt lat="44.61792686825501" lon="9.364018493000954"><ele>1053.6</ele><time>2026-04-19T09:35:58Z</time></trkpt><trkpt lat="44.61788468003683" lon="9.363897199146496"><ele>1053.0</ele><time>2026-04-19T09:35:59Z</time></trkpt><trkpt lat="44.61790129585154" lon="9.363765410704053"><ele>1053.0</ele><time>2026-04-19T09:36:00Z</time></trkpt><trkpt lat="44.61794732660759" lon="9.363652415992492"><ele>1053.0</ele><time>2026-04-19T09:36:01Z</time></trkpt><trkpt lat="44.61800778051812" lon="9.363585352739767"><ele>1053.0</ele><time>2026-04-19T09:36:02Z</time></trkpt><trkpt lat="44.618079153447496" lon="9.363592245294024"><ele>1053.0</ele><time>2026-04-19T09:36:03Z</time></trkpt><trkpt lat="44.61816081625517" lon="9.363620791282157"><ele>1053.0</ele><time>2026-04-19T09:36:04Z</time></trkpt><trkpt lat="44.61826776561473" lon="9.363654229131017"><ele>1053.0</ele><time>2026-04-19T09:36:05Z</time></trkpt><trkpt lat="44.61838577598085" lon="9.363691952819595"><ele>1053.0</ele><time>2026-04-19T09:36:06Z</time></trkpt><trkpt lat="44.61847040943744" lon="9.363718478629181"><ele>1053.0</ele><time>2026-04-19T09:36:07Z</time></trkpt><trkpt lat="44.618540078609946" lon="9.363729943472089"><ele>1053.0</ele><time>2026-04-19T09:36:09Z</time></trkpt><trkpt lat="44.61845900127449" lon="9.363751135567009"><ele>1053.0</ele><time>2026-04-19T09:36:16Z</time></trkpt><trkpt lat="44.61848625528593" lon="9.36389099306603"><ele>1053.0</ele><time>2026-04-19T09:36:17Z</time></trkpt><trkpt lat="44.61833918736496" lon="9.363796902413643"><ele>1055.3333333333333</ele><time>2026-04-19T09:36:24Z</time></trkpt><trkpt lat="44.61834311817019" lon="9.363910749607964"><ele>1057.6666666666667</ele><time>2026-04-19T10:02:35.999Z</time></trkpt><trkpt lat="44.61839936763605" lon="9.364006850884007"><ele>1060.0</ele><time>2026-04-19T10:02:37.999Z</time></trkpt><trkpt lat="44.618439714986" lon="9.364098662480368"><ele>1062.3333333333335</ele><time>2026-04-19T10:02:39.999Z</time></trkpt><trkpt lat="44.618445301360346" lon="9.364244762192907"><ele>1064.6666666666667</ele><time>2026-04-19T10:02:42.999Z</time></trkpt><trkpt lat="44.618416392734005" lon="9.364374456135366"><ele>1067.0</ele><time>2026-04-19T10:02:44.999Z</time></trkpt><trkpt lat="44.6183698522852" lon="9.36449245270155"><ele>1067.0</ele><time>2026-04-19T10:02:46.999Z</time></trkpt><trkpt lat="44.61832470281195" lon="9.364620058898854"><ele>1067.0</ele><time>2026-04-19T10:02:48.999Z</time></trkpt><trkpt lat="44.61829291466932" lon="9.364757198678227"><ele>1067.0</ele><time>2026-04-19T10:02:50.999Z</time></trkpt><trkpt lat="44.61825600458925" lon="9.364873474259916"><ele>1067.0</ele><time>2026-04-19T10:02:52.999Z</time></trkpt><trkpt lat="44.618165931877236" lon="9.364967208324583"><ele>1067.0</ele><time>2026-04-19T10:02:54.999Z</time></trkpt><trkpt lat="44.61809311650668" lon="9.365086628723216"><ele>1067.6</ele><time>2026-04-19T10:02:56.999Z</time></trkpt><trkpt lat="44.618006946457704" lon="9.365204391940233"><ele>1068.2</ele><time>2026-04-19T10:02:58.999Z</time></trkpt><trkpt lat="44.61795313016847" lon="9.365255634595584"><ele>1068.8</ele><time>2026-04-19T10:02:59.999Z</time></trkpt><trkpt lat="44.61790052454691" lon="9.365310127952194"><ele>1069.4</ele><time>2026-04-19T10:03:00.999Z</time></trkpt><trkpt lat="44.61781618234841" lon="9.365380973812435"><ele>1070.0</ele><time>2026-04-19T10:03:02.999Z</time></trkpt><trkpt lat="44.61770725436456" lon="9.365424697784317"><ele>1070.0</ele><time>2026-04-19T10:03:04.999Z</time></trkpt><trkpt lat="44.61760313164418" lon="9.36544764642576"><ele>1070.0</ele><time>2026-04-19T10:03:06.999Z</time></trkpt><trkpt lat="44.61749106127686" lon="9.365466022334362"><ele>1070.0</ele><time>2026-04-19T10:03:08.999Z</time></trkpt><trkpt lat="44.61742050934269" lon="9.365463707763068"><ele>1070.0</ele><time>2026-04-19T10:03:09.999Z</time></trkpt><trkpt lat="44.617296114366255" lon="9.365461930241935"><ele>1070.0</ele><time>2026-04-19T10:03:12Z</time></trkpt><trkpt lat="44.617217299348006" lon="9.365473340918715"><ele>1070.0</ele><time>2026-04-19T10:03:13Z</time></trkpt><trkpt lat="44.61714463998131" lon="9.365477715157478"><ele>1070.0</ele><time>2026-04-19T10:03:14Z</time></trkpt><trkpt lat="44.617056275214054" lon="9.365479727773725"><ele>1070.0</ele><time>2026-04-19T10:03:16Z</time></trkpt><trkpt lat="44.616959670874415" lon="9.365513717916258"><ele>1070.0</ele><time>2026-04-19T10:03:18Z</time></trkpt><trkpt lat="44.616884939196595" lon="9.365644469399424"><ele>1070.0</ele><time>2026-04-19T10:03:20Z</time></trkpt><trkpt lat="44.616824935334634" lon="9.365793220936968"><ele>1071.0</ele><time>2026-04-19T10:03:22Z</time></trkpt><trkpt lat="44.61679715733898" lon="9.365921725774708"><ele>1072.0</ele><time>2026-04-19T10:03:24Z</time></trkpt><trkpt lat="44.61675776449701" lon="9.366052972503459"><ele>1073.0</ele><time>2026-04-19T10:03:26Z</time></trkpt><trkpt lat="44.61672645594991" lon="9.36621146497232"><ele>1074.0</ele><time>2026-04-19T10:03:28Z</time></trkpt><trkpt lat="44.616657616781836" lon="9.366322808042923"><ele>1075.0</ele><time>2026-04-19T10:03:30Z</time></trkpt><trkpt lat="44.6165812202665" lon="9.366395509440624"><ele>1078.8333333333333</ele><time>2026-04-19T10:03:32Z</time></trkpt><trkpt lat="44.61651902308128" lon="9.366424303897945"><ele>1082.6666666666665</ele><time>2026-04-19T10:03:33Z</time></trkpt><trkpt lat="44.616454806805955" lon="9.36647427196181"><ele>1086.5</ele><time>2026-04-19T10:03:34Z</time></trkpt><trkpt lat="44.61638870053316" lon="9.366535032065862"><ele>1090.3333333333333</ele><time>2026-04-19T10:03:35Z</time></trkpt><trkpt lat="44.616329685253454" lon="9.366587744709523"><ele>1094.1666666666667</ele><time>2026-04-19T10:03:36Z</time></trkpt><trkpt lat="44.61623331842366" lon="9.366644453053746"><ele>1098.0</ele><time>2026-04-19T10:03:38Z</time></trkpt><trkpt lat="44.61616416249348" lon="9.366667998231327"><ele>1096.4</ele><time>2026-04-19T10:03:39Z</time></trkpt><trkpt lat="44.61606751713402" lon="9.366683634795066"><ele>1094.8</ele><time>2026-04-19T10:03:41Z</time></trkpt><trkpt lat="44.61596238154842" lon="9.366654585892302"><ele>1093.2</ele><time>2026-04-19T10:03:43Z</time></trkpt><trkpt lat="44.6159131523139" lon="9.366565807799203"><ele>1091.6</ele><time>2026-04-19T10:03:44Z</time></trkpt><trkpt lat="44.615828459687975" lon="9.36651869429633"><ele>1090.0</ele><time>2026-04-19T10:03:46Z</time></trkpt><trkpt lat="44.615728318312684" lon="9.366562088067434"><ele>1090.0</ele><time>2026-04-19T10:03:48Z</time></trkpt><trkpt lat="44.61562942830003" lon="9.366631970399155"><ele>1090.0</ele><time>2026-04-19T10:03:50Z</time></trkpt><trkpt lat="44.615567141797385" lon="9.366657699759537"><ele>1090.0</ele><time>2026-04-19T10:03:51Z</time></trkpt><trkpt lat="44.61550727429846" lon="9.366693925967818"><ele>1090.0</ele><time>2026-04-19T10:03:52Z</time></trkpt><trkpt lat="44.61538985476893" lon="9.366775408750321"><ele>1090.0</ele><time>2026-04-19T10:03:54Z</time></trkpt><trkpt lat="44.615313257637624" lon="9.366861560980414"><ele>1089.2</ele><time>2026-04-19T10:03:56Z</time></trkpt><trkpt lat="44.61524850829243" lon="9.36698987853203"><ele>1088.4</ele><time>2026-04-19T10:03:58Z</time></trkpt><trkpt lat="44.615148146205485" lon="9.366947234406952"><ele>1087.6</ele><time>2026-04-19T10:04:00Z</time></trkpt><trkpt lat="44.61504493886643" lon="9.36689252260672"><ele>1086.8</ele><time>2026-04-19T10:04:02Z</time></trkpt><trkpt lat="44.614949088404856" lon="9.366929606571052"><ele>1086.0</ele><time>2026-04-19T10:04:04Z</time></trkpt><trkpt lat="44.614883318320125" lon="9.367057475777964"><ele>1086.0</ele><time>2026-04-19T10:04:06Z</time></trkpt><trkpt lat="44.614805065903774" lon="9.36715829503631"><ele>1086.0</ele><time>2026-04-19T10:04:08Z</time></trkpt><trkpt lat="44.61474126871632" lon="9.367197191603898"><ele>1086.0</ele><time>2026-04-19T10:04:09Z</time></trkpt><trkpt lat="44.61467340201172" lon="9.367211329283315"><ele>1086.0</ele><time>2026-04-19T10:04:10Z</time></trkpt><trkpt lat="44.61460832278905" lon="9.367240218875104"><ele>1086.0</ele><time>2026-04-19T10:04:11Z</time></trkpt><trkpt lat="44.61452129900757" lon="9.367328669977068"><ele>1086.0</ele><time>2026-04-19T10:04:13Z</time></trkpt><trkpt lat="44.6144319134123" lon="9.367442344384886"><ele>1086.857142857143</ele><time>2026-04-19T10:04:15Z</time></trkpt><trkpt lat="44.61439836128661" lon="9.367524456382782"><ele>1087.7142857142858</ele><time>2026-04-19T10:04:16Z</time></trkpt><trkpt lat="44.614360475443014" lon="9.367604463276752"><ele>1088.5714285714284</ele><time>2026-04-19T10:04:16.999Z</time></trkpt><trkpt lat="44.61431318698256" lon="9.367675688246123"><ele>1089.4285714285716</ele><time>2026-04-19T10:04:17.999Z</time></trkpt><trkpt lat="44.614262280597835" lon="9.36773836238881"><ele>1090.2857142857142</ele><time>2026-04-19T10:04:18.999Z</time></trkpt><trkpt lat="44.614203484562125" lon="9.367808693105582"><ele>1091.142857142857</ele><time>2026-04-19T10:04:19.999Z</time></trkpt><trkpt lat="44.61415117218508" lon="9.367879178056711"><ele>1092.0</ele><time>2026-04-19T10:04:20.999Z</time></trkpt><trkpt lat="44.614097110412665" lon="9.367959720671697"><ele>1095.2</ele><time>2026-04-19T10:04:21.999Z</time></trkpt><trkpt lat="44.614023492103065" lon="9.368098631100564"><ele>1098.4</ele><time>2026-04-19T10:04:23.999Z</time></trkpt><trkpt lat="44.61399092486942" lon="9.368202869957656"><ele>1101.6</ele><time>2026-04-19T10:04:24.999Z</time></trkpt><trkpt lat="44.61395555793374" lon="9.368356388770222"><ele>1104.8</ele><time>2026-04-19T10:04:26.999Z</time></trkpt><trkpt lat="44.61388527893519" lon="9.368489016983851"><ele>1108.0</ele><time>2026-04-19T10:04:28.999Z</time></trkpt><trkpt lat="44.61383732398975" lon="9.368553490040863"><ele>1108.0</ele><time>2026-04-19T10:04:29.999Z</time></trkpt><trkpt lat="44.61372498107519" lon="9.368603749961096"><ele>1108.0</ele><time>2026-04-19T10:04:31.999Z</time></trkpt><trkpt lat="44.61361876210701" lon="9.368682492614605"><ele>1108.0</ele><time>2026-04-19T10:04:33.999Z</time></trkpt><trkpt lat="44.61349002840118" lon="9.368683853659658"><ele>1108.0</ele><time>2026-04-19T10:04:35.999Z</time></trkpt><trkpt lat="44.61336110818477" lon="9.368705747652372"><ele>1107.6666666666665</ele><time>2026-04-19T10:04:37.999Z</time></trkpt><trkpt lat="44.613299182946314" lon="9.368667364847173"><ele>1107.3333333333333</ele><time>2026-04-19T10:04:38.999Z</time></trkpt><trkpt lat="44.6132397616124" lon="9.368630056960148"><ele>1107.0</ele><time>2026-04-19T10:04:39.999Z</time></trkpt><trkpt lat="44.61317789127494" lon="9.368598020420833"><ele>1106.6666666666667</ele><time>2026-04-19T10:04:40.999Z</time></trkpt><trkpt lat="44.613109976455455" lon="9.368571406084122"><ele>1106.3333333333335</ele><time>2026-04-19T10:04:41.999Z</time></trkpt><trkpt lat="44.61300876731692" lon="9.36851405216865"><ele>1106.0</ele><time>2026-04-19T10:04:43.999Z</time></trkpt><trkpt lat="44.612882564133656" lon="9.368478990700146"><ele>1106.6666666666667</ele><time>2026-04-19T10:04:45.999Z</time></trkpt><trkpt lat="44.61282012352102" lon="9.368447656934384"><ele>1107.3333333333335</ele><time>2026-04-19T10:04:46.999Z</time></trkpt><trkpt lat="44.612757271389185" lon="9.368409921854191"><ele>1108.0</ele><time>2026-04-19T10:04:47.999Z</time></trkpt><trkpt lat="44.61269108312455" lon="9.36836938226554"><ele>1108.6666666666667</ele><time>2026-04-19T10:04:48.999Z</time></trkpt><trkpt lat="44.61261476189301" lon="9.36834398579781"><ele>1109.3333333333333</ele><time>2026-04-19T10:04:50.999Z</time></trkpt><trkpt lat="44.61253131853492" lon="9.368438156877204"><ele>1110.0</ele><time>2026-04-19T10:04:52.999Z</time></trkpt><trkpt lat="44.61249184661263" lon="9.3685103772517"><ele>1110.0</ele><time>2026-04-19T10:04:53.999Z</time></trkpt><trkpt lat="44.61243210359332" lon="9.368589498373225"><ele>1110.0</ele><time>2026-04-19T10:04:55.999Z</time></trkpt><trkpt lat="44.61234707870438" lon="9.368667859724525"><ele>1110.0</ele><time>2026-04-19T10:04:57.999Z</time></trkpt><trkpt lat="44.612288478292164" lon="9.36871783682079"><ele>1110.0</ele><time>2026-04-19T10:04:58.999Z</time></trkpt><trkpt lat="44.61217815632467" lon="9.368824104848873"><ele>1110.0</ele><time>2026-04-19T10:05:00.999Z</time></trkpt><trkpt lat="44.61211803663327" lon="9.368864387379107"><ele>1113.1666666666667</ele><time>2026-04-19T10:05:01.999Z</time></trkpt><trkpt lat="44.61205618765964" lon="9.368891207210389"><ele>1116.3333333333333</ele><time>2026-04-19T10:05:02.999Z</time></trkpt><trkpt lat="44.611946520959165" lon="9.368904943189849"><ele>1119.5</ele><time>2026-04-19T10:05:04.999Z</time></trkpt><trkpt lat="44.611872998630915" lon="9.368923979268965"><ele>1122.6666666666665</ele><time>2026-04-19T10:05:05.999Z</time></trkpt><trkpt lat="44.611804889448955" lon="9.36897207209422"><ele>1125.8333333333333</ele><time>2026-04-19T10:05:06.999Z</time></trkpt><trkpt lat="44.61173720289525" lon="9.369044785131132"><ele>1129.0</ele><time>2026-04-19T10:05:07.999Z</time></trkpt><trkpt lat="44.61166875904583" lon="9.369117848117178"><ele>1129.0</ele><time>2026-04-19T10:05:08.999Z</time></trkpt><trkpt lat="44.611604615740845" lon="9.369136388920172"><ele>1129.0</ele><time>2026-04-19T10:05:09.999Z</time></trkpt><trkpt lat="44.61151990612387" lon="9.369189196575482"><ele>1129.0</ele><time>2026-04-19T10:05:11.999Z</time></trkpt><trkpt lat="44.611423955642394" lon="9.36928404519966"><ele>1129.0</ele><time>2026-04-19T10:05:13.999Z</time></trkpt><trkpt lat="44.61132010930391" lon="9.369270358540398"><ele>1129.0</ele><time>2026-04-19T10:05:15.999Z</time></trkpt><trkpt lat="44.61120382875605" lon="9.369192481228664"><ele>1131.0</ele><time>2026-04-19T10:05:18Z</time></trkpt><trkpt lat="44.6111358433868" lon="9.369163605838617"><ele>1133.0</ele><time>2026-04-19T10:05:19Z</time></trkpt><trkpt lat="44.61106599807702" lon="9.369130943413504"><ele>1135.0</ele><time>2026-04-19T10:05:20Z</time></trkpt><trkpt lat="44.610982199867834" lon="9.369082067354087"><ele>1137.0</ele><time>2026-04-19T10:05:21Z</time></trkpt><trkpt lat="44.610933414290095" lon="9.36901244790361"><ele>1139.0</ele><time>2026-04-19T10:05:22Z</time></trkpt><trkpt lat="44.61087506225003" lon="9.368952745229409"><ele>1141.0</ele><time>2026-04-19T10:05:23Z</time></trkpt><trkpt lat="44.610782987246466" lon="9.368879192564059"><ele>1142.3333333333333</ele><time>2026-04-19T10:05:24Z</time></trkpt><trkpt lat="44.610715851223894" lon="9.368794496565657"><ele>1143.6666666666665</ele><time>2026-04-19T10:05:25Z</time></trkpt><trkpt lat="44.61066618519641" lon="9.368729485661104"><ele>1145.0</ele><time>2026-04-19T10:05:26Z</time></trkpt><trkpt lat="44.610611115063286" lon="9.368682612973334"><ele>1146.3333333333333</ele><time>2026-04-19T10:05:27Z</time></trkpt><trkpt lat="44.61048515530559" lon="9.368629067462797"><ele>1147.6666666666667</ele><time>2026-04-19T10:05:29Z</time></trkpt><trkpt lat="44.61041639317913" lon="9.368622292409087"><ele>1149.0</ele><time>2026-04-19T10:05:30Z</time></trkpt><trkpt lat="44.610290274986184" lon="9.368619992801186"><ele>1149.0</ele><time>2026-04-19T10:05:32Z</time></trkpt><trkpt lat="44.61024549016788" lon="9.368507654671005"><ele>1149.0</ele><time>2026-04-19T10:05:34Z</time></trkpt><trkpt lat="44.61019219949725" lon="9.368448586038292"><ele>1149.0</ele><time>2026-04-19T10:05:35Z</time></trkpt><trkpt lat="44.61015897957199" lon="9.368356076797966"><ele>1149.0</ele><time>2026-04-19T10:05:36Z</time></trkpt><trkpt lat="44.61010778866716" lon="9.368300445483523"><ele>1149.0</ele><time>2026-04-19T10:05:37Z</time></trkpt><trkpt lat="44.61000138270772" lon="9.368178053615567"><ele>1149.0</ele><time>2026-04-19T10:05:39Z</time></trkpt><trkpt lat="44.609949506167105" lon="9.368120334503269"><ele>1149.0</ele><time>2026-04-19T10:05:40Z</time></trkpt><trkpt lat="44.60988776270133" lon="9.368078355568212"><ele>1149.0</ele><time>2026-04-19T10:05:41Z</time></trkpt><trkpt lat="44.609829689611274" lon="9.368036853001346"><ele>1149.0</ele><time>2026-04-19T10:05:42Z</time></trkpt><trkpt lat="44.609754651878404" lon="9.368025828224756"><ele>1149.0</ele><time>2026-04-19T10:05:43Z</time></trkpt><trkpt lat="44.609630320917205" lon="9.36794850648902"><ele>1149.0</ele><time>2026-04-19T10:05:45Z</time></trkpt><trkpt lat="44.609565531354534" lon="9.367922705789335"><ele>1149.0</ele><time>2026-04-19T10:05:46Z</time></trkpt><trkpt lat="44.60952784754253" lon="9.36783836707336"><ele>1148.3333333333333</ele><time>2026-04-19T10:05:47Z</time></trkpt><trkpt lat="44.609470954812444" lon="9.367791478392139"><ele>1147.6666666666667</ele><time>2026-04-19T10:05:48Z</time></trkpt><trkpt lat="44.60941523835532" lon="9.367720746717437"><ele>1147.0</ele><time>2026-04-19T10:05:49Z</time></trkpt><trkpt lat="44.6093470775715" lon="9.367661880295191"><ele>1146.3333333333335</ele><time>2026-04-19T10:05:50Z</time></trkpt><trkpt lat="44.609278950669555" lon="9.367601889986908"><ele>1145.6666666666667</ele><time>2026-04-19T10:05:51Z</time></trkpt><trkpt lat="44.609201670547655" lon="9.367536381057192"><ele>1145.0</ele><time>2026-04-19T10:05:53Z</time></trkpt><trkpt lat="44.6091308589442" lon="9.367525502790796"><ele>1145.0</ele><time>2026-04-19T10:05:55Z</time></trkpt><trkpt lat="44.6090708967897" lon="9.367575640464091"><ele>1145.0</ele><time>2026-04-19T10:05:56Z</time></trkpt><trkpt lat="44.60901137953781" lon="9.367651796265768"><ele>1145.0</ele><time>2026-04-19T10:05:57Z</time></trkpt><trkpt lat="44.60896748622622" lon="9.367734407220409"><ele>1145.0</ele><time>2026-04-19T10:05:58Z</time></trkpt><trkpt lat="44.608943475274316" lon="9.367858337863222"><ele>1145.0</ele><time>2026-04-19T10:05:59Z</time></trkpt><trkpt lat="44.608923455930295" lon="9.367958989702242"><ele>1145.0</ele><time>2026-04-19T10:06:00Z</time></trkpt><trkpt lat="44.6089086981171" lon="9.368122380091911"><ele>1149.4</ele><time>2026-04-19T10:06:02Z</time></trkpt><trkpt lat="44.608877468934075" lon="9.368200448078657"><ele>1153.8</ele><time>2026-04-19T10:06:03Z</time></trkpt><trkpt lat="44.6088439541544" lon="9.368375140488856"><ele>1158.2</ele><time>2026-04-19T10:06:05Z</time></trkpt><trkpt lat="44.60879543064267" lon="9.368538224870544"><ele>1162.6</ele><time>2026-04-19T10:06:07Z</time></trkpt><trkpt lat="44.608755368681045" lon="9.368628868721173"><ele>1167.0</ele><time>2026-04-19T10:06:08Z</time></trkpt><trkpt lat="44.60872798887712" lon="9.368743202097619"><ele>1167.0</ele><time>2026-04-19T10:06:09Z</time></trkpt><trkpt lat="44.608699032891124" lon="9.36882380748461"><ele>1167.0</ele><time>2026-04-19T10:06:10Z</time></trkpt><trkpt lat="44.6086561774356" lon="9.368908465356295"><ele>1167.0</ele><time>2026-04-19T10:06:11Z</time></trkpt><trkpt lat="44.60858695916545" lon="9.369024382774052"><ele>1167.0</ele><time>2026-04-19T10:06:13Z</time></trkpt><trkpt lat="44.608514608632944" lon="9.369055862145444"><ele>1167.0</ele><time>2026-04-19T10:06:14Z</time></trkpt><trkpt lat="44.6084530903475" lon="9.369078644355618"><ele>1167.0</ele><time>2026-04-19T10:06:15Z</time></trkpt><trkpt lat="44.60836117749461" lon="9.36910096236355"><ele>1166.6</ele><time>2026-04-19T10:06:17Z</time></trkpt><trkpt lat="44.60826342182764" lon="9.369207253043143"><ele>1166.2</ele><time>2026-04-19T10:06:19Z</time></trkpt><trkpt lat="44.608204886462445" lon="9.369362337272685"><ele>1165.8</ele><time>2026-04-19T10:06:21Z</time></trkpt><trkpt lat="44.60818492130187" lon="9.369448640390548"><ele>1165.4</ele><time>2026-04-19T10:06:22Z</time></trkpt><trkpt lat="44.608154409843536" lon="9.369526517850288"><ele>1165.0</ele><time>2026-04-19T10:06:23Z</time></trkpt><trkpt lat="44.60807572647626" lon="9.369611758162185"><ele>1165.0</ele><time>2026-04-19T10:06:24.999Z</time></trkpt><trkpt lat="44.60798211628126" lon="9.3696568126491"><ele>1165.0</ele><time>2026-04-19T10:06:26.999Z</time></trkpt><trkpt lat="44.60786773762927" lon="9.369691204961944"><ele>1165.0</ele><time>2026-04-19T10:06:28.999Z</time></trkpt><trkpt lat="44.60779897009501" lon="9.369723761717303"><ele>1165.0</ele><time>2026-04-19T10:06:30.999Z</time></trkpt><trkpt lat="44.60775667393011" lon="9.36979371677661"><ele>1165.0</ele><time>2026-04-19T10:06:31.999Z</time></trkpt><trkpt lat="44.60770288537706" lon="9.369904366291424"><ele>1165.0</ele><time>2026-04-19T10:06:33.999Z</time></trkpt><trkpt lat="44.60762727345371" lon="9.369944911978331"><ele>1167.8333333333333</ele><time>2026-04-19T10:06:35.999Z</time></trkpt><trkpt lat="44.60749286974236" lon="9.369980566828772"><ele>1170.6666666666665</ele><time>2026-04-19T10:06:37.999Z</time></trkpt><trkpt lat="44.607425409732166" lon="9.369991570314484"><ele>1173.5</ele><time>2026-04-19T10:06:38.999Z</time></trkpt><trkpt lat="44.60735997285422" lon="9.369990597849329"><ele>1176.3333333333333</ele><time>2026-04-19T10:06:39.999Z</time></trkpt><trkpt lat="44.60729378199327" lon="9.369986675253168"><ele>1179.1666666666667</ele><time>2026-04-19T10:06:40.999Z</time></trkpt><trkpt lat="44.60722884296407" lon="9.369933427576722"><ele>1182.0</ele><time>2026-04-19T10:06:42.999Z</time></trkpt><trkpt lat="44.6071510147139" lon="9.369958115286888"><ele>1182.0</ele><time>2026-04-19T10:06:44.999Z</time></trkpt><trkpt lat="44.607078227592226" lon="9.369971904487386"><ele>1182.0</ele><time>2026-04-19T10:06:46.999Z</time></trkpt><trkpt lat="44.60694978986592" lon="9.370038813461758"><ele>1182.0</ele><time>2026-04-19T10:06:48.999Z</time></trkpt><trkpt lat="44.60688163407902" lon="9.370109021126556"><ele>1182.0</ele><time>2026-04-19T10:06:49.999Z</time></trkpt><trkpt lat="44.606822229030776" lon="9.370152671510475"><ele>1182.0</ele><time>2026-04-19T10:06:50.999Z</time></trkpt><trkpt lat="44.60671428932888" lon="9.370196512397634"><ele>1182.4</ele><time>2026-04-19T10:06:52.999Z</time></trkpt><trkpt lat="44.6066157551128" lon="9.370258258334012"><ele>1182.8000000000002</ele><time>2026-04-19T10:06:54.999Z</time></trkpt><trkpt lat="44.606500423379686" lon="9.370220027925031"><ele>1183.2</ele><time>2026-04-19T10:06:56.999Z</time></trkpt><trkpt lat="44.60644147357664" lon="9.370091274602144"><ele>1183.6000000000001</ele><time>2026-04-19T10:06:58.999Z</time></trkpt><trkpt lat="44.606387567476496" lon="9.370020033727549"><ele>1184.0</ele><time>2026-04-19T10:06:59.999Z</time></trkpt><trkpt lat="44.606332651860654" lon="9.369966826538922"><ele>1184.0</ele><time>2026-04-19T10:07:01.999Z</time></trkpt><trkpt lat="44.606267119638986" lon="9.36995243217981"><ele>1184.0</ele><time>2026-04-19T10:07:32Z</time></trkpt><trkpt lat="44.606176296964385" lon="9.36998111235225"><ele>1184.0</ele><time>2026-04-19T10:07:34Z</time></trkpt><trkpt lat="44.60608447442338" lon="9.370081282411604"><ele>1184.0</ele><time>2026-04-19T10:07:36Z</time></trkpt><trkpt lat="44.60598982135756" lon="9.370200558627849"><ele>1184.0</ele><time>2026-04-19T10:07:38Z</time></trkpt><trkpt lat="44.605926485579275" lon="9.37025743746717"><ele>1184.6666666666667</ele><time>2026-04-19T10:07:39Z</time></trkpt><trkpt lat="44.60585175534478" lon="9.370273000164962"><ele>1185.3333333333335</ele><time>2026-04-19T10:07:40Z</time></trkpt><trkpt lat="44.605789347341464" lon="9.370296766307638"><ele>1186.0</ele><time>2026-04-19T10:07:41Z</time></trkpt><trkpt lat="44.60567822069144" lon="9.370312693303553"><ele>1186.6666666666667</ele><time>2026-04-19T10:07:43Z</time></trkpt><trkpt lat="44.60561354111261" lon="9.370324483127051"><ele>1187.3333333333333</ele><time>2026-04-19T10:07:44Z</time></trkpt><trkpt lat="44.605548552803526" lon="9.370301535945853"><ele>1188.0</ele><time>2026-04-19T10:07:45Z</time></trkpt><trkpt lat="44.60547131551125" lon="9.370313240172297"><ele>1188.0</ele><time>2026-04-19T10:07:46Z</time></trkpt><trkpt lat="44.60540912431429" lon="9.370290991422902"><ele>1188.0</ele><time>2026-04-19T10:07:47Z</time></trkpt><trkpt lat="44.605343197423444" lon="9.370277033903058"><ele>1188.0</ele><time>2026-04-19T10:07:48Z</time></trkpt><trkpt lat="44.60526218420915" lon="9.370256710877529"><ele>1188.0</ele><time>2026-04-19T10:07:49Z</time></trkpt><trkpt lat="44.60517941396783" lon="9.370235773469242"><ele>1188.0</ele><time>2026-04-19T10:07:50Z</time></trkpt><trkpt lat="44.605107836372866" lon="9.370216959393668"><ele>1188.0</ele><time>2026-04-19T10:07:51Z</time></trkpt><trkpt lat="44.60501039040355" lon="9.37021389219787"><ele>1188.6</ele><time>2026-04-19T10:07:52Z</time></trkpt><trkpt lat="44.60490142697743" lon="9.370174939000025"><ele>1189.1999999999998</ele><time>2026-04-19T10:07:53Z</time></trkpt><trkpt lat="44.60479999785616" lon="9.370153070401235"><ele>1189.8</ele><time>2026-04-19T10:07:54Z</time></trkpt><trkpt lat="44.60466990253004" lon="9.37016711523644"><ele>1190.3999999999999</ele><time>2026-04-19T10:07:56Z</time></trkpt><trkpt lat="44.604607622528576" lon="9.370194918243365"><ele>1191.0</ele><time>2026-04-19T10:07:57Z</time></trkpt><trkpt lat="44.60453973420521" lon="9.370231670379601"><ele>1191.0</ele><time>2026-04-19T10:07:58Z</time></trkpt><trkpt lat="44.604459371787634" lon="9.370314698485918"><ele>1191.0</ele><time>2026-04-19T10:07:59Z</time></trkpt><trkpt lat="44.604381991220606" lon="9.370373504412724"><ele>1191.0</ele><time>2026-04-19T10:08:00Z</time></trkpt><trkpt lat="44.60429338920962" lon="9.370421024581194"><ele>1191.0</ele><time>2026-04-19T10:08:01Z</time></trkpt><trkpt lat="44.60418683518878" lon="9.370462425386632"><ele>1191.0</ele><time>2026-04-19T10:08:02Z</time></trkpt><trkpt lat="44.60410956349154" lon="9.370484215152992"><ele>1191.0</ele><time>2026-04-19T10:08:03Z</time></trkpt><trkpt lat="44.6040301262623" lon="9.370497248609897"><ele>1191.0</ele><time>2026-04-19T10:08:04Z</time></trkpt><trkpt lat="44.603949471647375" lon="9.370492906114151"><ele>1191.0</ele><time>2026-04-19T10:08:05Z</time></trkpt><trkpt lat="44.60386024844592" lon="9.370466033364728"><ele>1191.0</ele><time>2026-04-19T10:08:06Z</time></trkpt><trkpt lat="44.603784652545315" lon="9.370399219020943"><ele>1191.0</ele><time>2026-04-19T10:08:07Z</time></trkpt><trkpt lat="44.603690722049336" lon="9.370351133598435"><ele>1191.0</ele><time>2026-04-19T10:08:08Z</time></trkpt><trkpt lat="44.60360492180701" lon="9.370331169742604"><ele>1191.6666666666667</ele><time>2026-04-19T10:08:09Z</time></trkpt><trkpt lat="44.60351029021268" lon="9.370294041057534"><ele>1192.3333333333333</ele><time>2026-04-19T10:08:10Z</time></trkpt><trkpt lat="44.60342294378389" lon="9.370256375236151"><ele>1193.0</ele><time>2026-04-19T10:08:11Z</time></trkpt><trkpt lat="44.603326884173676" lon="9.37025481260611"><ele>1193.6666666666665</ele><time>2026-04-19T10:08:12Z</time></trkpt><trkpt lat="44.603249416372556" lon="9.370233397261307"><ele>1194.3333333333333</ele><time>2026-04-19T10:08:13Z</time></trkpt><trkpt lat="44.603177697117985" lon="9.370238584835613"><ele>1195.0</ele><time>2026-04-19T10:08:14Z</time></trkpt><trkpt lat="44.6030402308031" lon="9.37020299742261"><ele>1195.0</ele><time>2026-04-19T10:08:16Z</time></trkpt><trkpt lat="44.60296222322951" lon="9.370192669660321"><ele>1195.0</ele><time>2026-04-19T10:08:17Z</time></trkpt><trkpt lat="44.602860609480395" lon="9.370177576805943"><ele>1195.0</ele><time>2026-04-19T10:08:18Z</time></trkpt><trkpt lat="44.60273732775007" lon="9.370157691354565"><ele>1195.0</ele><time>2026-04-19T10:08:19Z</time></trkpt><trkpt lat="44.60262970137582" lon="9.370140331132108"><ele>1195.0</ele><time>2026-04-19T10:08:20Z</time></trkpt><trkpt lat="44.60251778264758" lon="9.370146119296132"><ele>1196.6</ele><time>2026-04-19T10:08:21Z</time></trkpt><trkpt lat="44.60242702730748" lon="9.370131841107844"><ele>1198.2</ele><time>2026-04-19T10:08:22Z</time></trkpt><trkpt lat="44.60231734547151" lon="9.370067223337339"><ele>1199.8</ele><time>2026-04-19T10:08:24Z</time></trkpt><trkpt lat="44.60223750515372" lon="9.369990910279597"><ele>1201.4</ele><time>2026-04-19T10:08:25Z</time></trkpt><trkpt lat="44.602170052766425" lon="9.369886422982239"><ele>1203.0</ele><time>2026-04-19T10:08:25.999Z</time></trkpt><trkpt lat="44.602088262163456" lon="9.369827688891398"><ele>1203.0</ele><time>2026-04-19T10:08:26.999Z</time></trkpt><trkpt lat="44.6020216558173" lon="9.3697579460304"><ele>1203.0</ele><time>2026-04-19T10:08:27.999Z</time></trkpt><trkpt lat="44.601961152586796" lon="9.36967168239314"><ele>1203.0</ele><time>2026-04-19T10:08:28.999Z</time></trkpt><trkpt lat="44.60192204546303" lon="9.369576967519668"><ele>1203.0</ele><time>2026-04-19T10:08:29.999Z</time></trkpt><trkpt lat="44.60189433832183" lon="9.369471631494125"><ele>1203.0</ele><time>2026-04-19T10:08:30.999Z</time></trkpt><trkpt lat="44.60185512561571" lon="9.369332158635654"><ele>1203.0</ele><time>2026-04-19T10:08:31.999Z</time></trkpt><trkpt lat="44.60182976073814" lon="9.369247837573266"><ele>1203.0</ele><time>2026-04-19T10:08:32.999Z</time></trkpt><trkpt lat="44.601771431302716" lon="9.369098255130751"><ele>1203.0</ele><time>2026-04-19T10:08:34.999Z</time></trkpt><trkpt lat="44.60172350715465" lon="9.36901815801374"><ele>1203.0</ele><time>2026-04-19T10:08:35.999Z</time></trkpt><trkpt lat="44.6016591511631" lon="9.368934708459662"><ele>1203.0</ele><time>2026-04-19T10:08:36.999Z</time></trkpt><trkpt lat="44.60158307550203" lon="9.368870594056308"><ele>1203.0</ele><time>2026-04-19T10:08:37.999Z</time></trkpt><trkpt lat="44.60151930763337" lon="9.368793676860955"><ele>1201.6</ele><time>2026-04-19T10:08:38.999Z</time></trkpt><trkpt lat="44.60146326841408" lon="9.36872471954466"><ele>1200.1999999999998</ele><time>2026-04-19T10:08:39.999Z</time></trkpt><trkpt lat="44.60140171400128" lon="9.368643693832508"><ele>1198.8</ele><time>2026-04-19T10:08:40.999Z</time></trkpt><trkpt lat="44.60132502697643" lon="9.368563075495926"><ele>1197.3999999999999</ele><time>2026-04-19T10:08:41.999Z</time></trkpt><trkpt lat="44.60124606873452" lon="9.368443645481516"><ele>1196.0</ele><time>2026-04-19T10:08:42.999Z</time></trkpt><trkpt lat="44.60117119539492" lon="9.368328739782749"><ele>1197.0</ele><time>2026-04-19T10:08:43.999Z</time></trkpt><trkpt lat="44.60112479035261" lon="9.36822719149412"><ele>1198.0</ele><time>2026-04-19T10:08:44.999Z</time></trkpt><trkpt lat="44.60103366144793" lon="9.368107070413554"><ele>1199.0</ele><time>2026-04-19T10:08:46.999Z</time></trkpt><trkpt lat="44.60098366687842" lon="9.368026830736175"><ele>1200.0</ele><time>2026-04-19T10:08:47.999Z</time></trkpt><trkpt lat="44.60093321938929" lon="9.367911287712683"><ele>1201.0</ele><time>2026-04-19T10:08:48.999Z</time></trkpt><trkpt lat="44.60089615524575" lon="9.367792823859599"><ele>1202.8333333333333</ele><time>2026-04-19T10:08:49.999Z</time></trkpt><trkpt lat="44.6008608043826" lon="9.367689794028664"><ele>1204.6666666666665</ele><time>2026-04-19T10:08:50.999Z</time></trkpt><trkpt lat="44.60084137847027" lon="9.367590056158445"><ele>1206.5</ele><time>2026-04-19T10:08:51.999Z</time></trkpt><trkpt lat="44.60081255551986" lon="9.367486356846102"><ele>1208.3333333333333</ele><time>2026-04-19T10:08:52.999Z</time></trkpt><trkpt lat="44.60079492631388" lon="9.367375836621255"><ele>1210.1666666666667</ele><time>2026-04-19T10:08:53.999Z</time></trkpt><trkpt lat="44.60080502754633" lon="9.367249691804057"><ele>1212.0</ele><time>2026-04-19T10:08:54.999Z</time></trkpt><trkpt lat="44.60079976942189" lon="9.36714269946745"><ele>1212.0</ele><time>2026-04-19T10:08:55.999Z</time></trkpt><trkpt lat="44.60079473882067" lon="9.367051341554456"><ele>1212.0</ele><time>2026-04-19T10:08:56.999Z</time></trkpt><trkpt lat="44.60078392836317" lon="9.366907609304834"><ele>1212.0</ele><time>2026-04-19T10:08:58.999Z</time></trkpt><trkpt lat="44.600769931346996" lon="9.366744156080305"><ele>1212.0</ele><time>2026-04-19T10:09:00.999Z</time></trkpt><trkpt lat="44.60071925548003" lon="9.366675559272633"><ele>1212.0</ele><time>2026-04-19T10:09:02.999Z</time></trkpt><trkpt lat="44.600657020001194" lon="9.36661239326869"><ele>1212.0</ele><time>2026-04-19T10:09:04.999Z</time></trkpt><trkpt lat="44.60059235188615" lon="9.366648497612797"><ele>1212.0</ele><time>2026-04-19T10:09:05.999Z</time></trkpt><trkpt lat="44.60045986831353" lon="9.36665993989193"><ele>1212.0</ele><time>2026-04-19T10:09:07.999Z</time></trkpt><trkpt lat="44.60038649044965" lon="9.366675831503308"><ele>1212.0</ele><time>2026-04-19T10:09:08.999Z</time></trkpt><trkpt lat="44.60032055478476" lon="9.366687396127775"><ele>1212.0</ele><time>2026-04-19T10:09:09.999Z</time></trkpt><trkpt lat="44.60024069782027" lon="9.366700369587974"><ele>1212.0</ele><time>2026-04-19T10:09:10.999Z</time></trkpt><trkpt lat="44.60015840869052" lon="9.366713317545202"><ele>1212.0</ele><time>2026-04-19T10:09:11.999Z</time></trkpt><trkpt lat="44.60006747575975" lon="9.366752273275782"><ele>1212.5714285714287</ele><time>2026-04-19T10:09:12.999Z</time></trkpt><trkpt lat="44.599993557171764" lon="9.36676235380057"><ele>1213.142857142857</ele><time>2026-04-19T10:09:13.999Z</time></trkpt><trkpt lat="44.59991486658962" lon="9.366775869239827"><ele>1213.7142857142858</ele><time>2026-04-19T10:09:14.999Z</time></trkpt><trkpt lat="44.59984488979444" lon="9.366788687337921"><ele>1214.2857142857142</ele><time>2026-04-19T10:09:15.999Z</time></trkpt><trkpt lat="44.59978143930457" lon="9.366784237811107"><ele>1214.857142857143</ele><time>2026-04-19T10:09:16.999Z</time></trkpt><trkpt lat="44.59971167873323" lon="9.366785125168613"><ele>1215.4285714285713</ele><time>2026-04-19T10:09:17.999Z</time></trkpt><trkpt lat="44.59963821594564" lon="9.36679491875201"><ele>1216.0</ele><time>2026-04-19T10:09:18.999Z</time></trkpt><trkpt lat="44.59956343676475" lon="9.366792982801073"><ele>1214.6666666666665</ele><time>2026-04-19T10:09:19.999Z</time></trkpt><trkpt lat="44.5994944890255" lon="9.366793059081028"><ele>1213.3333333333333</ele><time>2026-04-19T10:09:20.999Z</time></trkpt><trkpt lat="44.5994270439953" lon="9.366785159930675"><ele>1212.0</ele><time>2026-04-19T10:09:21.999Z</time></trkpt><trkpt lat="44.5993447035688" lon="9.36676804653731"><ele>1210.6666666666667</ele><time>2026-04-19T10:09:22.999Z</time></trkpt><trkpt lat="44.599258695040604" lon="9.366717013297553"><ele>1209.3333333333335</ele><time>2026-04-19T10:09:23.999Z</time></trkpt><trkpt lat="44.599162522100656" lon="9.366679071115431"><ele>1208.0</ele><time>2026-04-19T10:09:24.999Z</time></trkpt><trkpt lat="44.599065414267315" lon="9.366630530150971"><ele>1208.0</ele><time>2026-04-19T10:09:25.999Z</time></trkpt><trkpt lat="44.598987440746775" lon="9.366600634312706"><ele>1208.0</ele><time>2026-04-19T10:09:26.999Z</time></trkpt><trkpt lat="44.59891657812209" lon="9.366577382627252"><ele>1208.0</ele><time>2026-04-19T10:09:27.999Z</time></trkpt><trkpt lat="44.59883817081654" lon="9.36651628407407"><ele>1208.0</ele><time>2026-04-19T10:09:28.999Z</time></trkpt><trkpt lat="44.5987373876302" lon="9.366471013327189"><ele>1208.0</ele><time>2026-04-19T10:09:30Z</time></trkpt><trkpt lat="44.5986509317628" lon="9.366442920603495"><ele>1208.0</ele><time>2026-04-19T10:09:31Z</time></trkpt><trkpt lat="44.598566892836466" lon="9.366418650581283"><ele>1207.0</ele><time>2026-04-19T10:09:32Z</time></trkpt><trkpt lat="44.59848560671378" lon="9.366410230063646"><ele>1206.0</ele><time>2026-04-19T10:09:33Z</time></trkpt><trkpt lat="44.598385535012945" lon="9.366376302362182"><ele>1205.0</ele><time>2026-04-19T10:09:35Z</time></trkpt><trkpt lat="44.59829421830759" lon="9.366346999090716"><ele>1204.0</ele><time>2026-04-19T10:09:37Z</time></trkpt><trkpt lat="44.59822821595863" lon="9.366322546644762"><ele>1203.0</ele><time>2026-04-19T10:09:38Z</time></trkpt><trkpt lat="44.598161808129326" lon="9.366243361178148"><ele>1202.0</ele><time>2026-04-19T10:09:39Z</time></trkpt><trkpt lat="44.598105624365004" lon="9.366187030108218"><ele>1201.6666666666667</ele><time>2026-04-19T10:09:40Z</time></trkpt><trkpt lat="44.5980115652217" lon="9.366100606611457"><ele>1201.3333333333335</ele><time>2026-04-19T10:09:42Z</time></trkpt><trkpt lat="44.59795682732407" lon="9.366030358213395"><ele>1201.0</ele><time>2026-04-19T10:09:43Z</time></trkpt><trkpt lat="44.59788711645497" lon="9.365973982622501"><ele>1200.6666666666667</ele><time>2026-04-19T10:09:44Z</time></trkpt><trkpt lat="44.59780579991751" lon="9.36591609810513"><ele>1200.3333333333333</ele><time>2026-04-19T10:09:45Z</time></trkpt><trkpt lat="44.597734089635075" lon="9.365861716142756"><ele>1200.0</ele><time>2026-04-19T10:09:46Z</time></trkpt><trkpt lat="44.597671768173875" lon="9.365816658293346"><ele>1200.8571428571427</ele><time>2026-04-19T10:09:47Z</time></trkpt><trkpt lat="44.59761267257638" lon="9.365768076715868"><ele>1201.7142857142858</ele><time>2026-04-19T10:09:48Z</time></trkpt><trkpt lat="44.597554247990104" lon="9.365729254723261"><ele>1202.5714285714284</ele><time>2026-04-19T10:09:49Z</time></trkpt><trkpt lat="44.59749863942285" lon="9.365686424124656"><ele>1203.4285714285713</ele><time>2026-04-19T10:09:50Z</time></trkpt><trkpt lat="44.59744572652408" lon="9.365608886948284"><ele>1204.2857142857142</ele><time>2026-04-19T10:09:51Z</time></trkpt><trkpt lat="44.597398396367346" lon="9.365504753231411"><ele>1205.142857142857</ele><time>2026-04-19T10:09:52Z</time></trkpt><trkpt lat="44.59734384703085" lon="9.365426365319848"><ele>1206.0</ele><time>2026-04-19T10:09:53Z</time></trkpt><trkpt lat="44.59726627483891" lon="9.36534834869685"><ele>1206.0</ele><time>2026-04-19T10:09:55Z</time></trkpt><trkpt lat="44.59720393505288" lon="9.365328748752608"><ele>1206.0</ele><time>2026-04-19T10:09:56Z</time></trkpt><trkpt lat="44.5970864572826" lon="9.365310260763941"><ele>1206.0</ele><time>2026-04-19T10:09:58Z</time></trkpt><trkpt lat="44.59700834093523" lon="9.365333498947335"><ele>1206.0</ele><time>2026-04-19T10:09:59Z</time></trkpt><trkpt lat="44.59692587545686" lon="9.36534542785349"><ele>1206.0</ele><time>2026-04-19T10:10:00Z</time></trkpt><trkpt lat="44.59686022075957" lon="9.365364227257722"><ele>1206.0</ele><time>2026-04-19T10:10:01Z</time></trkpt><trkpt lat="44.5967773892948" lon="9.365376320402934"><ele>1209.3333333333333</ele><time>2026-04-19T10:10:02Z</time></trkpt><trkpt lat="44.59670570561567" lon="9.365362101525665"><ele>1212.6666666666667</ele><time>2026-04-19T10:10:03Z</time></trkpt><trkpt lat="44.596615074856125" lon="9.365363261261072"><ele>1216.0</ele><time>2026-04-19T10:10:04Z</time></trkpt><trkpt lat="44.59651654909785" lon="9.36535356631051"><ele>1219.3333333333335</ele><time>2026-04-19T10:10:05Z</time></trkpt><trkpt lat="44.59642796053592" lon="9.365348636307928"><ele>1222.6666666666667</ele><time>2026-04-19T10:10:06Z</time></trkpt><trkpt lat="44.596368899923746" lon="9.3653056038479"><ele>1226.0</ele><time>2026-04-19T10:10:07Z</time></trkpt><trkpt lat="44.59630183535642" lon="9.365279818174608"><ele>1226.0</ele><time>2026-04-19T10:10:08Z</time></trkpt><trkpt lat="44.59623073845011" lon="9.365272541309713"><ele>1226.0</ele><time>2026-04-19T10:10:09Z</time></trkpt><trkpt lat="44.596101832252266" lon="9.365312195535047"><ele>1226.0</ele><time>2026-04-19T10:10:11Z</time></trkpt><trkpt lat="44.5960284645994" lon="9.365373518339636"><ele>1226.0</ele><time>2026-04-19T10:10:12Z</time></trkpt><trkpt lat="44.59595834752463" lon="9.365458212299092"><ele>1226.0</ele><time>2026-04-19T10:10:13Z</time></trkpt><trkpt lat="44.59589391439381" lon="9.365537711945816"><ele>1225.4285714285716</ele><time>2026-04-19T10:10:14Z</time></trkpt><trkpt lat="44.595840511284486" lon="9.365595520920031"><ele>1224.857142857143</ele><time>2026-04-19T10:10:15Z</time></trkpt><trkpt lat="44.595779741278115" lon="9.365655791943098"><ele>1224.2857142857142</ele><time>2026-04-19T10:10:16Z</time></trkpt><trkpt lat="44.595721929568214" lon="9.365699553177016"><ele>1223.7142857142858</ele><time>2026-04-19T10:10:17Z</time></trkpt><trkpt lat="44.595617624669785" lon="9.365754097157438"><ele>1223.142857142857</ele><time>2026-04-19T10:10:19Z</time></trkpt><trkpt lat="44.59555864909355" lon="9.365788778362758"><ele>1222.5714285714287</ele><time>2026-04-19T10:10:20Z</time></trkpt><trkpt lat="44.59549419587255" lon="9.365812200860173"><ele>1222.0</ele><time>2026-04-19T10:10:21Z</time></trkpt><trkpt lat="44.59541892835637" lon="9.365802660403354"><ele>1224.6666666666665</ele><time>2026-04-19T10:10:22Z</time></trkpt><trkpt lat="44.59530280704611" lon="9.365791598644996"><ele>1227.3333333333333</ele><time>2026-04-19T10:10:24Z</time></trkpt><trkpt lat="44.595233193123136" lon="9.36578054693021"><ele>1230.0</ele><time>2026-04-19T10:10:25Z</time></trkpt><trkpt lat="44.59516069971188" lon="9.36578973312959"><ele>1232.6666666666667</ele><time>2026-04-19T10:10:26Z</time></trkpt><trkpt lat="44.59507184816959" lon="9.36577572889694"><ele>1235.3333333333335</ele><time>2026-04-19T10:10:27Z</time></trkpt><trkpt lat="44.594990863338985" lon="9.365786526425296"><ele>1238.0</ele><time>2026-04-19T10:10:28Z</time></trkpt><trkpt lat="44.59490597659634" lon="9.36580742724222"><ele>1238.0</ele><time>2026-04-19T10:10:29Z</time></trkpt><trkpt lat="44.59484602033917" lon="9.36583762420627"><ele>1238.0</ele><time>2026-04-19T10:10:30Z</time></trkpt><trkpt lat="44.59473145164516" lon="9.365876048653336"><ele>1238.0</ele><time>2026-04-19T10:10:32Z</time></trkpt><trkpt lat="44.594622366586" lon="9.36591046121967"><ele>1238.0</ele><time>2026-04-19T10:10:34Z</time></trkpt><trkpt lat="44.59451338536072" lon="9.365916596326912"><ele>1238.0</ele><time>2026-04-19T10:10:35.999Z</time></trkpt><trkpt lat="44.59444690837874" lon="9.365919443026538"><ele>1241.75</ele><time>2026-04-19T10:10:36.999Z</time></trkpt><trkpt lat="44.59431931132849" lon="9.365951518297138"><ele>1245.5</ele><time>2026-04-19T10:10:38.999Z</time></trkpt><trkpt lat="44.59418518216061" lon="9.365976206694565"><ele>1249.25</ele><time>2026-04-19T10:10:40.999Z</time></trkpt><trkpt lat="44.59411606526334" lon="9.365989299281432"><ele>1253.0</ele><time>2026-04-19T10:10:41.999Z</time></trkpt><trkpt lat="44.59399336470407" lon="9.366015534582218"><ele>1253.0</ele><time>2026-04-19T10:10:43.999Z</time></trkpt><trkpt lat="44.593910930041595" lon="9.366030490731788"><ele>1253.0</ele><time>2026-04-19T10:10:44.999Z</time></trkpt><trkpt lat="44.59383627824492" lon="9.366036442204967"><ele>1253.0</ele><time>2026-04-19T10:10:45.999Z</time></trkpt><trkpt lat="44.59373193911265" lon="9.365982008304119"><ele>1253.0</ele><time>2026-04-19T10:10:47.999Z</time></trkpt><trkpt lat="44.5936773729493" lon="9.365922584199499"><ele>1253.0</ele><time>2026-04-19T10:10:48.999Z</time></trkpt><trkpt lat="44.593621406296556" lon="9.365866363772435"><ele>1253.0</ele><time>2026-04-19T10:10:49.999Z</time></trkpt><trkpt lat="44.59350651375751" lon="9.365795673683275"><ele>1255.6</ele><time>2026-04-19T10:10:51.999Z</time></trkpt><trkpt lat="44.59342693607687" lon="9.365782105945653"><ele>1258.1999999999998</ele><time>2026-04-19T10:10:52.999Z</time></trkpt><trkpt lat="44.593310403442956" lon="9.365771391483142"><ele>1260.8</ele><time>2026-04-19T10:10:54.999Z</time></trkpt><trkpt lat="44.59318840692956" lon="9.36578599985197"><ele>1263.3999999999999</ele><time>2026-04-19T10:10:56.999Z</time></trkpt><trkpt lat="44.59312421883554" lon="9.365789310553808"><ele>1266.0</ele><time>2026-04-19T10:10:57.999Z</time></trkpt><trkpt lat="44.5930076221512" lon="9.36578791173014"><ele>1266.0</ele><time>2026-04-19T10:10:59.999Z</time></trkpt><trkpt lat="44.59291828795685" lon="9.365741054003454"><ele>1266.0</ele><time>2026-04-19T10:11:01.999Z</time></trkpt><trkpt lat="44.59283304687272" lon="9.365669790267091"><ele>1266.0</ele><time>2026-04-19T10:11:03.999Z</time></trkpt><trkpt lat="44.59276617832681" lon="9.365641675887264"><ele>1266.0</ele><time>2026-04-19T10:11:04.999Z</time></trkpt><trkpt lat="44.59269048670841" lon="9.36566268823822"><ele>1266.0</ele><time>2026-04-19T10:11:05.999Z</time></trkpt><trkpt lat="44.59263187034345" lon="9.365710857716959"><ele>1266.0</ele><time>2026-04-19T10:11:06.999Z</time></trkpt><trkpt lat="44.5925657784284" lon="9.365744440869483"><ele>1267.25</ele><time>2026-04-19T10:11:07.999Z</time></trkpt><trkpt lat="44.592453963603994" lon="9.365757614157756"><ele>1268.5</ele><time>2026-04-19T10:11:09.999Z</time></trkpt><trkpt lat="44.59235245631507" lon="9.365699131704032"><ele>1269.75</ele><time>2026-04-19T10:11:11.999Z</time></trkpt><trkpt lat="44.5922274716061" lon="9.365620427435303"><ele>1271.0</ele><time>2026-04-19T10:11:13.999Z</time></trkpt><trkpt lat="44.5921154531319" lon="9.365576605616072"><ele>1271.0</ele><time>2026-04-19T10:11:15.999Z</time></trkpt><trkpt lat="44.59204251632607" lon="9.365573458416351"><ele>1271.0</ele><time>2026-04-19T10:11:16.999Z</time></trkpt><trkpt lat="44.59192776686752" lon="9.36558817011894"><ele>1271.0</ele><time>2026-04-19T10:11:18.999Z</time></trkpt><trkpt lat="44.59184214349273" lon="9.365628453420854"><ele>1271.0</ele><time>2026-04-19T10:11:20.999Z</time></trkpt><trkpt lat="44.59173746723621" lon="9.365666477160923"><ele>1271.0</ele><time>2026-04-19T10:11:22.999Z</time></trkpt><trkpt lat="44.59161616770327" lon="9.365771462934275"><ele>1274.0</ele><time>2026-04-19T10:11:24.999Z</time></trkpt><trkpt lat="44.591535415501085" lon="9.365818495049774"><ele>1277.0</ele><time>2026-04-19T10:11:26.999Z</time></trkpt><trkpt lat="44.591447974025094" lon="9.365834352001063"><ele>1280.0</ele><time>2026-04-19T10:11:28.999Z</time></trkpt><trkpt lat="44.59134375644492" lon="9.365784103418576"><ele>1283.0</ele><time>2026-04-19T10:11:30.999Z</time></trkpt><trkpt lat="44.59128388949257" lon="9.365822619986783"><ele>1286.0</ele><time>2026-04-19T10:11:32.999Z</time></trkpt><trkpt lat="44.59119048329914" lon="9.365920749394581"><ele>1286.5</ele><time>2026-04-19T10:11:34.999Z</time></trkpt><trkpt lat="44.591167971854986" lon="9.36602486021781"><ele>1287.0</ele><time>2026-04-19T10:11:36Z</time></trkpt><trkpt lat="44.59114763659271" lon="9.366139498324648"><ele>1287.5</ele><time>2026-04-19T10:11:37Z</time></trkpt><trkpt lat="44.59112588180343" lon="9.366258842753485"><ele>1288.0</ele><time>2026-04-19T10:11:38Z</time></trkpt><trkpt lat="44.59110350341104" lon="9.366388725834344"><ele>1288.5</ele><time>2026-04-19T10:11:40Z</time></trkpt><trkpt lat="44.59104029947351" lon="9.366488784533363"><ele>1289.0</ele><time>2026-04-19T10:11:43Z</time></trkpt><trkpt lat="44.59092847807059" lon="9.3664952709753"><ele>1289.0</ele><time>2026-04-19T10:11:45Z</time></trkpt><trkpt lat="44.59083676608437" lon="9.36646571741447"><ele>1289.0</ele><time>2026-04-19T10:11:47Z</time></trkpt><trkpt lat="44.590766929884545" lon="9.3664396673782"><ele>1289.0</ele><time>2026-04-19T10:12:10Z</time></trkpt><trkpt lat="44.590692080227235" lon="9.366397676298828"><ele>1289.0</ele><time>2026-04-19T10:12:12Z</time></trkpt><trkpt lat="44.590590695061" lon="9.366345257353066"><ele>1289.0</ele><time>2026-04-19T10:12:14Z</time></trkpt><trkpt lat="44.59047373485209" lon="9.366297790188414"><ele>1292.8000000000002</ele><time>2026-04-19T10:12:16Z</time></trkpt><trkpt lat="44.59037647993099" lon="9.366219953540517"><ele>1296.6000000000001</ele><time>2026-04-19T10:12:18Z</time></trkpt><trkpt lat="44.59030250575259" lon="9.36612747254395"><ele>1300.4</ele><time>2026-04-19T10:12:20Z</time></trkpt><trkpt lat="44.5902401863929" lon="9.366074454129128"><ele>1304.2</ele><time>2026-04-19T10:12:22Z</time></trkpt><trkpt lat="44.590169504331676" lon="9.365952085103752"><ele>1308.0</ele><time>2026-04-19T10:12:24Z</time></trkpt><trkpt lat="44.590097463096775" lon="9.365818213859823"><ele>1308.3333333333333</ele><time>2026-04-19T10:12:26Z</time></trkpt><trkpt lat="44.5900153376719" lon="9.365775056622034"><ele>1308.6666666666667</ele><time>2026-04-19T10:12:28Z</time></trkpt><trkpt lat="44.58990769470229" lon="9.365736137725527"><ele>1309.0</ele><time>2026-04-19T10:12:30Z</time></trkpt><trkpt lat="44.58984112340483" lon="9.365700901171625"><ele>1309.3333333333335</ele><time>2026-04-19T10:12:31Z</time></trkpt><trkpt lat="44.589773169394405" lon="9.36566332418773"><ele>1309.6666666666667</ele><time>2026-04-19T10:12:32Z</time></trkpt><trkpt lat="44.58968855955785" lon="9.365613659175496"><ele>1310.0</ele><time>2026-04-19T10:12:33Z</time></trkpt><trkpt lat="44.589628215978735" lon="9.36557337844429"><ele>1313.6</ele><time>2026-04-19T10:12:34Z</time></trkpt><trkpt lat="44.58955119725159" lon="9.365522971897937"><ele>1317.2</ele><time>2026-04-19T10:12:35Z</time></trkpt><trkpt lat="44.58945753110132" lon="9.365487440029924"><ele>1320.8000000000002</ele><time>2026-04-19T10:12:36Z</time></trkpt><trkpt lat="44.589357821184585" lon="9.36542640713346"><ele>1324.4</ele><time>2026-04-19T10:12:38Z</time></trkpt><trkpt lat="44.589244501062865" lon="9.365439405218737"><ele>1328.0</ele><time>2026-04-19T10:12:39.999Z</time></trkpt><trkpt lat="44.589138309481406" lon="9.365460781294756"><ele>1328.5</ele><time>2026-04-19T10:12:41.999Z</time></trkpt><trkpt lat="44.589070810133904" lon="9.365436422580824"><ele>1329.0</ele><time>2026-04-19T10:12:43.999Z</time></trkpt><trkpt lat="44.58903265527939" lon="9.365322876551122"><ele>1329.5</ele><time>2026-04-19T10:12:45.999Z</time></trkpt><trkpt lat="44.58901838378027" lon="9.365206956966391"><ele>1330.0</ele><time>2026-04-19T10:12:47.999Z</time></trkpt><trkpt lat="44.58907129756831" lon="9.36510661204482"><ele>1330.5</ele><time>2026-04-19T10:12:49.999Z</time></trkpt><trkpt lat="44.589175727986365" lon="9.365034965379762"><ele>1331.0</ele><time>2026-04-19T10:12:51.999Z</time></trkpt><trkpt lat="44.58925088987753" lon="9.364983033406372"><ele>1331.0</ele><time>2026-04-19T10:12:53.999Z</time></trkpt><trkpt lat="44.58936465207667" lon="9.364966368404241"><ele>1331.0</ele><time>2026-04-19T10:12:55.999Z</time></trkpt><trkpt lat="44.58948603275392" lon="9.364877949090287"><ele>1331.0</ele><time>2026-04-19T10:12:57.999Z</time></trkpt><trkpt lat="44.589552656811435" lon="9.364876319272168"><ele>1331.0</ele><time>2026-04-19T10:12:58.999Z</time></trkpt><trkpt lat="44.58961453877164" lon="9.364852193748288"><ele>1331.0</ele><time>2026-04-19T10:12:59.999Z</time></trkpt><trkpt lat="44.589731314478605" lon="9.364856949284738"><ele>1330.4</ele><time>2026-04-19T10:13:01.999Z</time></trkpt><trkpt lat="44.58985664911453" lon="9.364893600332064"><ele>1329.8</ele><time>2026-04-19T10:13:03.999Z</time></trkpt><trkpt lat="44.58992976724666" lon="9.364912215406491"><ele>1329.2</ele><time>2026-04-19T10:13:04.999Z</time></trkpt><trkpt lat="44.590028034059785" lon="9.36496319223379"><ele>1328.6000000000001</ele><time>2026-04-19T10:13:06.999Z</time></trkpt><trkpt lat="44.59010791016475" lon="9.365025322682033"><ele>1328.0</ele><time>2026-04-19T10:13:08.999Z</time></trkpt><trkpt lat="44.590208855309434" lon="9.365018639596983"><ele>1328.0</ele><time>2026-04-19T10:13:10.999Z</time></trkpt><trkpt lat="44.59033409639981" lon="9.364964837409243"><ele>1328.0</ele><time>2026-04-19T10:13:12.999Z</time></trkpt><trkpt lat="44.59042820855725" lon="9.364832030517153"><ele>1328.0</ele><time>2026-04-19T10:13:14.999Z</time></trkpt><trkpt lat="44.59049386973254" lon="9.36477143635058"><ele>1328.0</ele><time>2026-04-19T10:13:15.999Z</time></trkpt><trkpt lat="44.590561456536385" lon="9.364690347679861"><ele>1328.0</ele><time>2026-04-19T10:13:16.999Z</time></trkpt><trkpt lat="44.59061709799785" lon="9.364590816807295"><ele>1327.6000000000001</ele><time>2026-04-19T10:13:17.999Z</time></trkpt><trkpt lat="44.59065698048768" lon="9.364499709279333"><ele>1327.2</ele><time>2026-04-19T10:13:19.999Z</time></trkpt><trkpt lat="44.59067161413164" lon="9.36437411837061"><ele>1326.8</ele><time>2026-04-19T10:13:21.999Z</time></trkpt><trkpt lat="44.59063629601117" lon="9.364235433912093"><ele>1326.4</ele><time>2026-04-19T10:13:23.999Z</time></trkpt><trkpt lat="44.590554629792116" lon="9.364152300283877"><ele>1326.0</ele><time>2026-04-19T10:13:25.999Z</time></trkpt><trkpt lat="44.59046154128024" lon="9.364078332195016"><ele>1325.9999999999998</ele><time>2026-04-19T10:13:27.999Z</time></trkpt><trkpt lat="44.59036569369341" lon="9.364031232877712"><ele>1326.0</ele><time>2026-04-19T10:13:29.999Z</time></trkpt><trkpt lat="44.59030055010892" lon="9.36400432793729"><ele>1326.0</ele><time>2026-04-19T10:13:30.999Z</time></trkpt><trkpt lat="44.59022832511175" lon="9.363978602101493"><ele>1326.0</ele><time>2026-04-19T10:13:31.999Z</time></trkpt><trkpt lat="44.5901701518663" lon="9.363944492776795"><ele>1326.0</ele><time>2026-04-19T10:13:32.999Z</time></trkpt><trkpt lat="44.590111790423414" lon="9.363892996358267"><ele>1325.9999999999998</ele><time>2026-04-19T10:13:33.999Z</time></trkpt><trkpt lat="44.5900558649077" lon="9.363829297065005"><ele>1326.0</ele><time>2026-04-19T10:13:34.999Z</time></trkpt><trkpt lat="44.589945567023705" lon="9.36370080663492"><ele>1328.1666666666667</ele><time>2026-04-19T10:13:36.999Z</time></trkpt><trkpt lat="44.5898810579867" lon="9.363627783632781"><ele>1330.3333333333333</ele><time>2026-04-19T10:13:37.999Z</time></trkpt><trkpt lat="44.589807404010706" lon="9.363544408881316"><ele>1332.5</ele><time>2026-04-19T10:13:38.999Z</time></trkpt><trkpt lat="44.589736571214715" lon="9.363484705767465"><ele>1334.6666666666665</ele><time>2026-04-19T10:13:39.999Z</time></trkpt><trkpt lat="44.58966176995652" lon="9.363416115911681"><ele>1336.8333333333333</ele><time>2026-04-19T10:13:42Z</time></trkpt><trkpt lat="44.58960750227675" lon="9.363357582995514"><ele>1339.0</ele><time>2026-04-19T10:13:44Z</time></trkpt><trkpt lat="44.58949968042222" lon="9.363326047538333"><ele>1343.1666666666665</ele><time>2026-04-19T10:13:46Z</time></trkpt><trkpt lat="44.58942837275163" lon="9.363318209035215"><ele>1347.3333333333333</ele><time>2026-04-19T10:13:47Z</time></trkpt><trkpt lat="44.58934289787337" lon="9.363313907280672"><ele>1351.5</ele><time>2026-04-19T10:13:48Z</time></trkpt><trkpt lat="44.58926455214475" lon="9.36332060727873"><ele>1355.6666666666667</ele><time>2026-04-19T10:13:49Z</time></trkpt><trkpt lat="44.58918430330613" lon="9.363324343381286"><ele>1359.8333333333335</ele><time>2026-04-19T10:13:50Z</time></trkpt><trkpt lat="44.58911547621669" lon="9.36329107478041"><ele>1364.0</ele><time>2026-04-19T10:13:51Z</time></trkpt><trkpt lat="44.589043584156336" lon="9.363250211566106"><ele>1364.0</ele><time>2026-04-19T10:13:52Z</time></trkpt><trkpt lat="44.588935558498875" lon="9.363163003328662"><ele>1364.0</ele><time>2026-04-19T10:13:54Z</time></trkpt><trkpt lat="44.58882392782469" lon="9.363121727124941"><ele>1364.0</ele><time>2026-04-19T10:13:56Z</time></trkpt><trkpt lat="44.58876307735658" lon="9.363091975882401"><ele>1364.0</ele><time>2026-04-19T10:13:57Z</time></trkpt><trkpt lat="44.58870706636269" lon="9.36303675555483"><ele>1364.0</ele><time>2026-04-19T10:13:58Z</time></trkpt><trkpt lat="44.58858892568518" lon="9.362989772746378"><ele>1364.7142857142858</ele><time>2026-04-19T10:14:00Z</time></trkpt><trkpt lat="44.588529821563874" lon="9.362941700170923"><ele>1365.4285714285716</ele><time>2026-04-19T10:14:01Z</time></trkpt><trkpt lat="44.588461573333674" lon="9.36292176132772"><ele>1366.1428571428573</ele><time>2026-04-19T10:14:02Z</time></trkpt><trkpt lat="44.588391769260554" lon="9.362885091626511"><ele>1366.857142857143</ele><time>2026-04-19T10:14:03Z</time></trkpt><trkpt lat="44.58832893322028" lon="9.362840124466372"><ele>1367.5714285714287</ele><time>2026-04-19T10:14:04Z</time></trkpt><trkpt lat="44.5882621357381" lon="9.362810324637993"><ele>1368.2857142857144</ele><time>2026-04-19T10:14:05Z</time></trkpt><trkpt lat="44.58819940521543" lon="9.362790190397872"><ele>1369.0</ele><time>2026-04-19T10:14:06Z</time></trkpt><trkpt lat="44.58807751537198" lon="9.36275134735528"><ele>1369.0</ele><time>2026-04-19T10:14:08Z</time></trkpt><trkpt lat="44.58800955505331" lon="9.362741922631875"><ele>1369.0</ele><time>2026-04-19T10:14:09Z</time></trkpt><trkpt lat="44.58794735970218" lon="9.36272786663312"><ele>1369.0</ele><time>2026-04-19T10:14:10Z</time></trkpt><trkpt lat="44.587853644226" lon="9.362664646569447"><ele>1369.0</ele><time>2026-04-19T10:14:12Z</time></trkpt><trkpt lat="44.587752580880384" lon="9.362580740693492"><ele>1369.0</ele><time>2026-04-19T10:14:14Z</time></trkpt><trkpt lat="44.58766537520294" lon="9.362496831992024"><ele>1372.6</ele><time>2026-04-19T10:14:16Z</time></trkpt><trkpt lat="44.5875447353492" lon="9.362413369014623"><ele>1376.2</ele><time>2026-04-19T10:14:18Z</time></trkpt><trkpt lat="44.58748910084933" lon="9.36235223595176"><ele>1379.8</ele><time>2026-04-19T10:14:19Z</time></trkpt><trkpt lat="44.58739719990259" lon="9.362233060510727"><ele>1383.3999999999999</ele><time>2026-04-19T10:14:21Z</time></trkpt><trkpt lat="44.58730489541242" lon="9.362186428528938"><ele>1387.0</ele><time>2026-04-19T10:14:23Z</time></trkpt><trkpt lat="44.58722277597243" lon="9.362139110579015"><ele>1387.0</ele><time>2026-04-19T10:14:25Z</time></trkpt><trkpt lat="44.587117868446036" lon="9.362109816422773"><ele>1387.0</ele><time>2026-04-19T10:14:27Z</time></trkpt><trkpt lat="44.58700884262391" lon="9.362097258195327"><ele>1387.0</ele><time>2026-04-19T10:14:29Z</time></trkpt><trkpt lat="44.58692795305582" lon="9.362112497808"><ele>1387.0</ele><time>2026-04-19T10:14:31Z</time></trkpt><trkpt lat="44.58686101287694" lon="9.362150985306034"><ele>1387.0</ele><time>2026-04-19T10:14:33Z</time></trkpt><trkpt lat="44.5868013302459" lon="9.362207099964362"><ele>1387.0</ele><time>2026-04-19T10:14:36Z</time></trkpt><trkpt lat="44.58676200996677" lon="9.362284406823"><ele>1389.3999999999999</ele><time>2026-04-19T10:16:27Z</time></trkpt><trkpt lat="44.58665387619476" lon="9.362359381692565"><ele>1391.8</ele><time>2026-04-19T10:16:29Z</time></trkpt><trkpt lat="44.586575771435136" lon="9.362466759642281"><ele>1394.2</ele><time>2026-04-19T10:16:31Z</time></trkpt><trkpt lat="44.586492526296105" lon="9.362581487425524"><ele>1396.6</ele><time>2026-04-19T10:16:33Z</time></trkpt><trkpt lat="44.586420649234896" lon="9.362663529967033"><ele>1399.0</ele><time>2026-04-19T10:16:35Z</time></trkpt><trkpt lat="44.58633020181379" lon="9.362739763831144"><ele>1399.0</ele><time>2026-04-19T10:16:37Z</time></trkpt><trkpt lat="44.58625779890071" lon="9.362862129535502"><ele>1399.0</ele><time>2026-04-19T10:16:39Z</time></trkpt><trkpt lat="44.58620738274802" lon="9.362985725534333"><ele>1399.0</ele><time>2026-04-19T10:16:41Z</time></trkpt><trkpt lat="44.586193396941" lon="9.363140041093363"><ele>1399.0</ele><time>2026-04-19T10:16:43Z</time></trkpt><trkpt lat="44.58612501831724" lon="9.363290321667064"><ele>1400.8000000000002</ele><time>2026-04-19T10:16:45Z</time></trkpt><trkpt lat="44.58605037994927" lon="9.363417169740751"><ele>1402.6000000000001</ele><time>2026-04-19T10:16:47Z</time></trkpt><trkpt lat="44.58600156468736" lon="9.363478237741472"><ele>1404.4</ele><time>2026-04-19T10:16:48Z</time></trkpt><trkpt lat="44.58592282435714" lon="9.363528639956314"><ele>1406.2</ele><time>2026-04-19T10:16:50Z</time></trkpt><trkpt lat="44.58584553585868" lon="9.363612816321444"><ele>1408.0</ele><time>2026-04-19T10:16:51.999Z</time></trkpt><trkpt lat="44.58574942883227" lon="9.363687625827774"><ele>1408.0</ele><time>2026-04-19T10:16:53.999Z</time></trkpt><trkpt lat="44.58567110958788" lon="9.363791235389613"><ele>1408.0</ele><time>2026-04-19T10:16:55.999Z</time></trkpt><trkpt lat="44.585623297002904" lon="9.363944883028688"><ele>1408.0</ele><time>2026-04-19T10:16:57.999Z</time></trkpt><trkpt lat="44.585626562345254" lon="9.364081499296956"><ele>1408.0</ele><time>2026-04-19T10:17:00.999Z</time></trkpt><trkpt lat="44.58565829767595" lon="9.364229812027508"><ele>1408.0</ele><time>2026-04-19T10:17:02.999Z</time></trkpt><trkpt lat="44.5856853554197" lon="9.364344942446321"><ele>1408.4</ele><time>2026-04-19T10:17:03.999Z</time></trkpt><trkpt lat="44.58569131524388" lon="9.364436491186781"><ele>1408.8000000000002</ele><time>2026-04-19T10:17:04.999Z</time></trkpt><trkpt lat="44.585658257749905" lon="9.36459252704597"><ele>1409.2</ele><time>2026-04-19T10:17:06.999Z</time></trkpt><trkpt lat="44.58558152428142" lon="9.364774545032608"><ele>1409.6</ele><time>2026-04-19T10:17:08.999Z</time></trkpt><trkpt lat="44.58554175134562" lon="9.364862316627947"><ele>1410.0</ele><time>2026-04-19T10:17:09.999Z</time></trkpt><trkpt lat="44.58550635354941" lon="9.364962040632506"><ele>1410.0</ele><time>2026-04-19T10:17:10.999Z</time></trkpt><trkpt lat="44.585462103065986" lon="9.365026724825585"><ele>1410.0</ele><time>2026-04-19T10:17:11.999Z</time></trkpt><trkpt lat="44.5854300057447" lon="9.365105170612889"><ele>1410.0</ele><time>2026-04-19T10:17:12.999Z</time></trkpt><trkpt lat="44.58538107347951" lon="9.3652423993571"><ele>1410.0</ele><time>2026-04-19T10:17:14.999Z</time></trkpt><trkpt lat="44.585292999338954" lon="9.3653466839441"><ele>1410.0</ele><time>2026-04-19T10:17:16.999Z</time></trkpt><trkpt lat="44.58522091441486" lon="9.365354278071672"><ele>1410.0</ele><time>2026-04-19T10:17:17.999Z</time></trkpt><trkpt lat="44.58515662956837" lon="9.365428631415238"><ele>1410.6</ele><time>2026-04-19T10:17:19.999Z</time></trkpt><trkpt lat="44.58508646745175" lon="9.365535755731837"><ele>1411.2</ele><time>2026-04-19T10:17:21.999Z</time></trkpt><trkpt lat="44.585024339425495" lon="9.365641353718102"><ele>1411.8000000000002</ele><time>2026-04-19T10:17:23.999Z</time></trkpt><trkpt lat="44.58496069715086" lon="9.365762091228946"><ele>1412.4</ele><time>2026-04-19T10:17:25.999Z</time></trkpt><trkpt lat="44.584896610910825" lon="9.365902672631792"><ele>1413.0</ele><time>2026-04-19T10:17:27.999Z</time></trkpt><trkpt lat="44.58487067422895" lon="9.365986098237364"><ele>1413.0</ele><time>2026-04-19T10:17:28.999Z</time></trkpt><trkpt lat="44.584843348683584" lon="9.366087220230256"><ele>1413.0</ele><time>2026-04-19T10:17:30.999Z</time></trkpt><trkpt lat="44.58480347167583" lon="9.366189053270194"><ele>1413.0</ele><time>2026-04-19T10:17:40.999Z</time></trkpt><trkpt lat="44.58480783276687" lon="9.366229120650669"><ele>1413.0</ele><time>2026-04-19T10:25:57.999Z</time></trkpt><trkpt lat="44.58474980538495" lon="9.366271556229243"><ele>1413.0</ele><time>2026-04-19T10:26:32Z</time></trkpt><trkpt lat="44.58482243957448" lon="9.366190328291815"><ele>1413.0</ele><time>2026-04-19T10:26:44Z</time></trkpt><trkpt lat="44.58477558692922" lon="9.366263931053496"><ele>1413.0</ele><time>2026-04-19T10:26:51Z</time></trkpt><trkpt lat="44.58485988056918" lon="9.366255031120426"><ele>1413.0</ele><time>2026-04-19T10:27:05Z</time></trkpt><trkpt lat="44.58493843289446" lon="9.366265105524045"><ele>1413.0</ele><time>2026-04-19T10:27:06.999Z</time></trkpt><trkpt lat="44.5850444935877" lon="9.366239138836512"><ele>1413.0</ele><time>2026-04-19T10:27:08.999Z</time></trkpt><trkpt lat="44.58514190414868" lon="9.366143729581554"><ele>1413.0</ele><time>2026-04-19T10:27:10.999Z</time></trkpt><trkpt lat="44.58520850405983" lon="9.366005860265131"><ele>1413.0</ele><time>2026-04-19T10:27:12.999Z</time></trkpt><trkpt lat="44.58529419995675" lon="9.365868683988914"><ele>1412.4</ele><time>2026-04-19T10:27:14.999Z</time></trkpt><trkpt lat="44.58534951435292" lon="9.365784429616415"><ele>1411.8000000000002</ele><time>2026-04-19T10:27:15.999Z</time></trkpt><trkpt lat="44.585403072218305" lon="9.365708151017726"><ele>1411.2</ele><time>2026-04-19T10:27:16.999Z</time></trkpt><trkpt lat="44.585430606677654" lon="9.365619342561452"><ele>1410.6</ele><time>2026-04-19T10:27:17.999Z</time></trkpt><trkpt lat="44.58547943186671" lon="9.365485750592985"><ele>1410.0</ele><time>2026-04-19T10:27:19.999Z</time></trkpt><trkpt lat="44.58556113669902" lon="9.365366808823028"><ele>1410.0</ele><time>2026-04-19T10:27:21.999Z</time></trkpt><trkpt lat="44.585612348969015" lon="9.36530063751915"><ele>1410.0</ele><time>2026-04-19T10:27:22.999Z</time></trkpt><trkpt lat="44.58568237931575" lon="9.36516145709856"><ele>1410.0</ele><time>2026-04-19T10:27:24.999Z</time></trkpt><trkpt lat="44.58571446808698" lon="9.365081693981008"><ele>1410.0</ele><time>2026-04-19T10:27:25.999Z</time></trkpt><trkpt lat="44.585758676507865" lon="9.365005494707637"><ele>1410.0</ele><time>2026-04-19T10:27:26.999Z</time></trkpt><trkpt lat="44.585819882056256" lon="9.36483835284166"><ele>1410.0</ele><time>2026-04-19T10:27:28.999Z</time></trkpt><trkpt lat="44.58589847197448" lon="9.364712175602875"><ele>1410.0</ele><time>2026-04-19T10:27:30.999Z</time></trkpt><trkpt lat="44.58597608284053" lon="9.364609714638407"><ele>1410.0</ele><time>2026-04-19T10:27:32.999Z</time></trkpt><trkpt lat="44.58599450381713" lon="9.364522183208823"><ele>1410.0</ele><time>2026-04-19T10:27:33.999Z</time></trkpt><trkpt lat="44.58601198261516" lon="9.364421710211474"><ele>1410.0</ele><time>2026-04-19T10:27:34.999Z</time></trkpt><trkpt lat="44.58601278260012" lon="9.364324903815811"><ele>1410.0</ele><time>2026-04-19T10:27:35.999Z</time></trkpt><trkpt lat="44.58604798881293" lon="9.364227225510326"><ele>1410.6666666666667</ele><time>2026-04-19T10:27:37.999Z</time></trkpt><trkpt lat="44.586126474696925" lon="9.364178194776812"><ele>1411.3333333333333</ele><time>2026-04-19T10:27:39.999Z</time></trkpt><trkpt lat="44.586222883113415" lon="9.36406713721475"><ele>1412.0</ele><time>2026-04-19T10:27:41.999Z</time></trkpt><trkpt lat="44.586263587219044" lon="9.363997077553725"><ele>1412.6666666666665</ele><time>2026-04-19T10:27:42.999Z</time></trkpt><trkpt lat="44.58634229493493" lon="9.364000125062281"><ele>1413.3333333333333</ele><time>2026-04-19T10:27:44.999Z</time></trkpt><trkpt lat="44.586421078844204" lon="9.364025578501572"><ele>1414.0</ele><time>2026-04-19T10:27:46.999Z</time></trkpt><trkpt lat="44.58649268921109" lon="9.364003648639182"><ele>1414.4</ele><time>2026-04-19T10:27:48.999Z</time></trkpt><trkpt lat="44.58658454994483" lon="9.363889668505267"><ele>1414.8000000000002</ele><time>2026-04-19T10:27:50.999Z</time></trkpt><trkpt lat="44.58664635734744" lon="9.363790184992006"><ele>1415.1999999999998</ele><time>2026-04-19T10:27:52.999Z</time></trkpt><trkpt lat="44.5867376020625" lon="9.363754872313425"><ele>1415.6</ele><time>2026-04-19T10:27:54.999Z</time></trkpt><trkpt lat="44.58683105848593" lon="9.363763177060887"><ele>1416.0</ele><time>2026-04-19T10:27:56.999Z</time></trkpt><trkpt lat="44.58689417166678" lon="9.36380588134309"><ele>1416.0</ele><time>2026-04-19T10:27:59.999Z</time></trkpt><trkpt lat="44.58692776357203" lon="9.363721336183552"><ele>1416.0</ele><time>2026-04-19T10:30:09.999Z</time></trkpt><trkpt lat="44.58686362039426" lon="9.36375281990718"><ele>1416.0</ele><time>2026-04-19T10:32:00.999Z</time></trkpt><trkpt lat="44.5867589069832" lon="9.363752287621175"><ele>1416.0</ele><time>2026-04-19T10:32:02.999Z</time></trkpt><trkpt lat="44.58669585482026" lon="9.36376709120495"><ele>1416.0</ele><time>2026-04-19T10:32:03.999Z</time></trkpt><trkpt lat="44.58661489589465" lon="9.363775362651284"><ele>1416.0</ele><time>2026-04-19T10:32:05.999Z</time></trkpt><trkpt lat="44.58655991910116" lon="9.363919345184183"><ele>1415.6666666666667</ele><time>2026-04-19T10:32:07.999Z</time></trkpt><trkpt lat="44.58648791760638" lon="9.364014916249909"><ele>1415.3333333333333</ele><time>2026-04-19T10:32:09.999Z</time></trkpt><trkpt lat="44.586418673583054" lon="9.364010597421185"><ele>1415.0</ele><time>2026-04-19T10:32:11.999Z</time></trkpt><trkpt lat="44.58634361211587" lon="9.3639480530235"><ele>1414.6666666666665</ele><time>2026-04-19T10:32:13.999Z</time></trkpt><trkpt lat="44.58628476735318" lon="9.364006496079147"><ele>1414.3333333333333</ele><time>2026-04-19T10:32:15.999Z</time></trkpt><trkpt lat="44.58620619978489" lon="9.364071358217927"><ele>1414.0</ele><time>2026-04-19T10:32:19Z</time></trkpt><trkpt lat="44.58612890002804" lon="9.36416541420247"><ele>1414.0</ele><time>2026-04-19T10:32:21Z</time></trkpt><trkpt lat="44.58603931140693" lon="9.364258414085494"><ele>1414.0</ele><time>2026-04-19T10:32:23Z</time></trkpt><trkpt lat="44.58600653956735" lon="9.36437218269539"><ele>1414.0</ele><time>2026-04-19T10:32:25Z</time></trkpt><trkpt lat="44.585978906708775" lon="9.36450374627595"><ele>1414.0</ele><time>2026-04-19T10:32:27Z</time></trkpt><trkpt lat="44.58593177962177" lon="9.364636290720595"><ele>1414.0</ele><time>2026-04-19T10:32:29Z</time></trkpt><trkpt lat="44.58586293156547" lon="9.364769455069165"><ele>1413.2</ele><time>2026-04-19T10:32:31Z</time></trkpt><trkpt lat="44.58579286610145" lon="9.364906518989375"><ele>1412.4</ele><time>2026-04-19T10:32:33Z</time></trkpt><trkpt lat="44.58574036807623" lon="9.36503318538416"><ele>1411.6</ele><time>2026-04-19T10:32:35Z</time></trkpt><trkpt lat="44.58567595094118" lon="9.36517296570049"><ele>1410.8</ele><time>2026-04-19T10:32:37Z</time></trkpt><trkpt lat="44.585629444387955" lon="9.365253429252611"><ele>1410.0</ele><time>2026-04-19T10:32:38Z</time></trkpt><trkpt lat="44.58554178517052" lon="9.365362853549696"><ele>1410.0</ele><time>2026-04-19T10:32:40Z</time></trkpt><trkpt lat="44.58545972332682" lon="9.365460994794198"><ele>1410.0</ele><time>2026-04-19T10:32:42Z</time></trkpt><trkpt lat="44.58539765507181" lon="9.365604454652207"><ele>1410.0</ele><time>2026-04-19T10:32:44Z</time></trkpt><trkpt lat="44.58534281865655" lon="9.365754722818528"><ele>1410.0</ele><time>2026-04-19T10:32:46Z</time></trkpt><trkpt lat="44.58528552328713" lon="9.365845664248356"><ele>1410.0</ele><time>2026-04-19T10:32:47Z</time></trkpt><trkpt lat="44.58523188856339" lon="9.365920961418464"><ele>1410.5</ele><time>2026-04-19T10:32:48Z</time></trkpt><trkpt lat="44.585160800609785" lon="9.366012419369271"><ele>1411.0</ele><time>2026-04-19T10:32:50Z</time></trkpt><trkpt lat="44.58511566279266" lon="9.366122713574534"><ele>1411.5</ele><time>2026-04-19T10:32:52Z</time></trkpt><trkpt lat="44.58505113426352" lon="9.366222122790603"><ele>1412.0</ele><time>2026-04-19T10:32:54Z</time></trkpt><trkpt lat="44.584997273031945" lon="9.36627080020537"><ele>1412.5</ele><time>2026-04-19T10:32:56Z</time></trkpt><trkpt lat="44.58490842664528" lon="9.366250695489956"><ele>1413.0</ele><time>2026-04-19T10:32:59Z</time></trkpt><trkpt lat="44.584850360778354" lon="9.366205176528066"><ele>1413.0</ele><time>2026-04-19T10:33:01Z</time></trkpt><trkpt lat="44.58479014253313" lon="9.366238625489032"><ele>1413.0</ele><time>2026-04-19T10:33:06Z</time></trkpt><trkpt lat="44.58472793099282" lon="9.36626017644369"><ele>1413.0</ele><time>2026-04-19T10:35:09Z</time></trkpt></trkseg><trkseg><trkpt lat="44.58471078124601" lon="9.366155686619399"><ele>1413.0</ele><time>2026-04-19T11:45:47.999Z</time></trkpt><trkpt lat="44.58476166295046" lon="9.366258701320998"><ele>1413.0</ele><time>2026-04-19T11:45:58Z</time></trkpt><trkpt lat="44.5847152102222" lon="9.36619153086945"><ele>1413.0</ele><time>2026-04-19T11:47:36Z</time></trkpt><trkpt lat="44.584750836372216" lon="9.366264965447655"><ele>1413.0</ele><time>2026-04-19T11:47:48Z</time></trkpt></trkseg><trkseg><trkpt lat="44.58503561098556" lon="9.36634353362896"><ele>1413.0</ele><time>2026-04-19T12:19:54.596Z</time></trkpt><trkpt lat="44.58485302652751" lon="9.36627040035599"><ele>1413.0</ele><time>2026-04-19T12:19:56.993Z</time></trkpt><trkpt lat="44.584839014449265" lon="9.366180235341577"><ele>1413.0</ele><time>2026-04-19T12:22:23Z</time></trkpt><trkpt lat="44.58487848504206" lon="9.366064753606343"><ele>1413.0</ele><time>2026-04-19T12:22:25Z</time></trkpt><trkpt lat="44.584913479084484" lon="9.365972697923816"><ele>1413.0</ele><time>2026-04-19T12:22:26Z</time></trkpt><trkpt lat="44.584986863826344" lon="9.365831462000752"><ele>1413.0</ele><time>2026-04-19T12:22:28Z</time></trkpt><trkpt lat="44.58503192453058" lon="9.365703762151535"><ele>1413.0</ele><time>2026-04-19T12:22:30Z</time></trkpt><trkpt lat="44.58507223409908" lon="9.365630848276455"><ele>1413.0</ele><time>2026-04-19T12:22:32Z</time></trkpt><trkpt lat="44.58512628267678" lon="9.365530589928346"><ele>1413.0</ele><time>2026-04-19T12:22:34Z</time></trkpt><trkpt lat="44.58519402975986" lon="9.365444301084047"><ele>1413.0</ele><time>2026-04-19T12:22:36Z</time></trkpt><trkpt lat="44.58525794160916" lon="9.365356419446261"><ele>1413.0</ele><time>2026-04-19T12:22:38Z</time></trkpt><trkpt lat="44.585360390090166" lon="9.365330118497772"><ele>1412.4</ele><time>2026-04-19T12:22:40Z</time></trkpt><trkpt lat="44.585414286589" lon="9.365234489816887"><ele>1411.8000000000002</ele><time>2026-04-19T12:22:42Z</time></trkpt><trkpt lat="44.58545850298057" lon="9.365129818201959"><ele>1411.2</ele><time>2026-04-19T12:22:44Z</time></trkpt><trkpt lat="44.58552287168389" lon="9.364989023246972"><ele>1410.6</ele><time>2026-04-19T12:22:46Z</time></trkpt><trkpt lat="44.58556507793397" lon="9.36485803164"><ele>1410.0</ele><time>2026-04-19T12:22:48Z</time></trkpt><trkpt lat="44.58561854451637" lon="9.364760370291103"><ele>1410.8</ele><time>2026-04-19T12:22:50Z</time></trkpt><trkpt lat="44.58565691026517" lon="9.3646614445205"><ele>1411.6</ele><time>2026-04-19T12:22:52Z</time></trkpt><trkpt lat="44.58570246228537" lon="9.36453375116643"><ele>1412.4</ele><time>2026-04-19T12:22:54Z</time></trkpt><trkpt lat="44.585716925456296" lon="9.364423946675318"><ele>1413.2</ele><time>2026-04-19T12:22:55Z</time></trkpt><trkpt lat="44.5857083905618" lon="9.364289501919403"><ele>1414.0</ele><time>2026-04-19T12:22:57Z</time></trkpt><trkpt lat="44.58566194624067" lon="9.364166163374364"><ele>1414.0</ele><time>2026-04-19T12:22:59Z</time></trkpt><trkpt lat="44.58562165028336" lon="9.364034452810458"><ele>1414.0</ele><time>2026-04-19T12:23:01Z</time></trkpt><trkpt lat="44.58563498482449" lon="9.363924987776022"><ele>1414.0</ele><time>2026-04-19T12:23:03Z</time></trkpt><trkpt lat="44.585694718886884" lon="9.363803835460109"><ele>1414.0</ele><time>2026-04-19T12:23:05Z</time></trkpt><trkpt lat="44.585771735955454" lon="9.363720049885654"><ele>1414.0</ele><time>2026-04-19T12:23:07Z</time></trkpt><trkpt lat="44.58582069350026" lon="9.36365154893808"><ele>1414.4</ele><time>2026-04-19T12:23:09Z</time></trkpt><trkpt lat="44.58587843596333" lon="9.363605946947116"><ele>1414.8000000000002</ele><time>2026-04-19T12:23:10Z</time></trkpt><trkpt lat="44.58599385376122" lon="9.363524326678169"><ele>1415.1999999999998</ele><time>2026-04-19T12:23:12Z</time></trkpt><trkpt lat="44.586087766991255" lon="9.363444417226015"><ele>1415.6</ele><time>2026-04-19T12:23:14Z</time></trkpt><trkpt lat="44.586175010632154" lon="9.363299286191337"><ele>1416.0</ele><time>2026-04-19T12:23:16Z</time></trkpt><trkpt lat="44.58620902115723" lon="9.363222345266541"><ele>1416.0</ele><time>2026-04-19T12:23:17Z</time></trkpt><trkpt lat="44.58626135633386" lon="9.363122972399351"><ele>1416.0</ele><time>2026-04-19T12:23:19Z</time></trkpt><trkpt lat="44.58622514222068" lon="9.363027301337743"><ele>1416.0</ele><time>2026-04-19T12:23:20Z</time></trkpt><trkpt lat="44.58621813667573" lon="9.362927567622489"><ele>1416.0</ele><time>2026-04-19T12:23:22Z</time></trkpt><trkpt lat="44.58624836420678" lon="9.362809861961688"><ele>1416.0</ele><time>2026-04-19T12:23:24.999Z</time></trkpt><trkpt lat="44.58630445795569" lon="9.36270782852385"><ele>1416.0</ele><time>2026-04-19T12:23:26.999Z</time></trkpt><trkpt lat="44.58639973650368" lon="9.362625707434363"><ele>1412.6</ele><time>2026-04-19T12:23:28.999Z</time></trkpt><trkpt lat="44.58650972731095" lon="9.362560431003006"><ele>1409.1999999999998</ele><time>2026-04-19T12:23:30.999Z</time></trkpt><trkpt lat="44.58659075924856" lon="9.362449757859629"><ele>1405.8000000000002</ele><time>2026-04-19T12:23:32.999Z</time></trkpt><trkpt lat="44.58664954235209" lon="9.362385897535804"><ele>1402.4</ele><time>2026-04-19T12:23:34.999Z</time></trkpt><trkpt lat="44.586741169472525" lon="9.362294857934254"><ele>1399.0</ele><time>2026-04-19T12:23:36.999Z</time></trkpt><trkpt lat="44.586810487091725" lon="9.362186784083717"><ele>1398.1666666666665</ele><time>2026-04-19T12:23:38.999Z</time></trkpt><trkpt lat="44.58687342883888" lon="9.36212813829851"><ele>1397.3333333333333</ele><time>2026-04-19T12:23:41.999Z</time></trkpt><trkpt lat="44.5869371084519" lon="9.362135879827989"><ele>1396.5</ele><time>2026-04-19T12:23:55.999Z</time></trkpt><trkpt lat="44.587010667090865" lon="9.362150194082004"><ele>1395.6666666666667</ele><time>2026-04-19T12:23:59.999Z</time></trkpt><trkpt lat="44.58709101222624" lon="9.362144069721984"><ele>1394.8333333333335</ele><time>2026-04-19T12:24:01.999Z</time></trkpt><trkpt lat="44.587199966482096" lon="9.36217404299803"><ele>1394.0</ele><time>2026-04-19T12:24:03.999Z</time></trkpt><trkpt lat="44.58729211496385" lon="9.36218606417498"><ele>1393.8000000000002</ele><time>2026-04-19T12:24:05.999Z</time></trkpt><trkpt lat="44.58737779519543" lon="9.36221602538947"><ele>1393.6000000000001</ele><time>2026-04-19T12:24:07.999Z</time></trkpt><trkpt lat="44.58747537995708" lon="9.362288215285933"><ele>1393.4</ele><time>2026-04-19T12:24:09.999Z</time></trkpt><trkpt lat="44.58755200907057" lon="9.362391381283127"><ele>1393.2</ele><time>2026-04-19T12:24:11.999Z</time></trkpt><trkpt lat="44.5876373658143" lon="9.362481288380698"><ele>1393.0</ele><time>2026-04-19T12:24:14Z</time></trkpt><trkpt lat="44.58772631777291" lon="9.362566586007446"><ele>1393.0</ele><time>2026-04-19T12:24:16Z</time></trkpt><trkpt lat="44.587828762165955" lon="9.362672968756879"><ele>1393.0</ele><time>2026-04-19T12:24:18Z</time></trkpt><trkpt lat="44.58792211117584" lon="9.362756969756752"><ele>1393.0</ele><time>2026-04-19T12:24:20Z</time></trkpt><trkpt lat="44.58802143198961" lon="9.362760595741683"><ele>1393.0</ele><time>2026-04-19T12:24:22Z</time></trkpt><trkpt lat="44.58813716914239" lon="9.362781052817967"><ele>1388.2</ele><time>2026-04-19T12:24:24Z</time></trkpt><trkpt lat="44.58823797774018" lon="9.362788560461068"><ele>1383.4</ele><time>2026-04-19T12:24:26Z</time></trkpt><trkpt lat="44.58829856511335" lon="9.362815818599445"><ele>1378.6000000000001</ele><time>2026-04-19T12:24:27Z</time></trkpt><trkpt lat="44.588408013138654" lon="9.362868072751587"><ele>1373.8000000000002</ele><time>2026-04-19T12:24:29Z</time></trkpt><trkpt lat="44.5884711923634" lon="9.362948921527725"><ele>1369.0</ele><time>2026-04-19T12:24:31Z</time></trkpt><trkpt lat="44.58857725946174" lon="9.363004190299133"><ele>1369.0</ele><time>2026-04-19T12:24:33Z</time></trkpt><trkpt lat="44.5886430102764" lon="9.363023256244473"><ele>1369.0</ele><time>2026-04-19T12:24:34Z</time></trkpt><trkpt lat="44.58869786568932" lon="9.363073604756694"><ele>1369.0</ele><time>2026-04-19T12:24:36Z</time></trkpt><trkpt lat="44.58876299566745" lon="9.363104088967987"><ele>1369.0</ele><time>2026-04-19T12:24:38Z</time></trkpt><trkpt lat="44.58883936878716" lon="9.36318242316074"><ele>1369.0</ele><time>2026-04-19T12:24:40Z</time></trkpt><trkpt lat="44.58895175938628" lon="9.363214521385768"><ele>1369.0</ele><time>2026-04-19T12:24:42Z</time></trkpt><trkpt lat="44.58901740378931" lon="9.363228432836548"><ele>1368.0</ele><time>2026-04-19T12:24:43Z</time></trkpt><trkpt lat="44.58909576878395" lon="9.36325924816207"><ele>1367.0</ele><time>2026-04-19T12:24:44Z</time></trkpt><trkpt lat="44.58915422861184" lon="9.363330402155443"><ele>1366.0</ele><time>2026-04-19T12:24:46Z</time></trkpt><trkpt lat="44.589301043413755" lon="9.363357143998734"><ele>1365.0</ele><time>2026-04-19T12:24:49Z</time></trkpt><trkpt lat="44.58938094307514" lon="9.36334414431787"><ele>1364.0</ele><time>2026-04-19T12:24:50Z</time></trkpt><trkpt lat="44.58944834931071" lon="9.36334060941725"><ele>1359.0</ele><time>2026-04-19T12:24:51Z</time></trkpt><trkpt lat="44.589515650803094" lon="9.363351576739404"><ele>1354.0</ele><time>2026-04-19T12:24:52Z</time></trkpt><trkpt lat="44.58961480844071" lon="9.36341724041046"><ele>1349.0</ele><time>2026-04-19T12:24:54Z</time></trkpt><trkpt lat="44.58971215828314" lon="9.363521028923232"><ele>1344.0</ele><time>2026-04-19T12:24:56Z</time></trkpt><trkpt lat="44.58976191764134" lon="9.363577504822729"><ele>1339.0</ele><time>2026-04-19T12:24:57Z</time></trkpt><trkpt lat="44.589866975951495" lon="9.363687995461609"><ele>1339.0</ele><time>2026-04-19T12:24:59Z</time></trkpt><trkpt lat="44.5899165435459" lon="9.363750757293825"><ele>1339.0</ele><time>2026-04-19T12:25:00Z</time></trkpt><trkpt lat="44.590009037629315" lon="9.363856250685666"><ele>1339.0</ele><time>2026-04-19T12:25:02Z</time></trkpt><trkpt lat="44.59008183223767" lon="9.363912433131953"><ele>1339.0</ele><time>2026-04-19T12:25:03Z</time></trkpt><trkpt lat="44.5901799308431" lon="9.36399560765965"><ele>1339.0</ele><time>2026-04-19T12:25:05Z</time></trkpt><trkpt lat="44.59028217776721" lon="9.364039047657164"><ele>1336.4</ele><time>2026-04-19T12:25:07Z</time></trkpt><trkpt lat="44.59039504833351" lon="9.36409503195451"><ele>1333.8000000000002</ele><time>2026-04-19T12:25:09Z</time></trkpt><trkpt lat="44.59047946872165" lon="9.364134650620468"><ele>1331.1999999999998</ele><time>2026-04-19T12:25:11Z</time></trkpt><trkpt lat="44.590562805175544" lon="9.364194305151187"><ele>1328.6</ele><time>2026-04-19T12:25:13Z</time></trkpt><trkpt lat="44.59061549542696" lon="9.364283524096535"><ele>1326.0</ele><time>2026-04-19T12:25:15Z</time></trkpt><trkpt lat="44.59062634673387" lon="9.364427722704901"><ele>1326.0</ele><time>2026-04-19T12:25:18Z</time></trkpt><trkpt lat="44.590582878312105" lon="9.364585848845593"><ele>1326.0</ele><time>2026-04-19T12:25:20Z</time></trkpt><trkpt lat="44.59053082054245" lon="9.364666633536068"><ele>1326.0</ele><time>2026-04-19T12:25:21Z</time></trkpt><trkpt lat="44.59048318972608" lon="9.364757399893039"><ele>1326.0</ele><time>2026-04-19T12:25:22Z</time></trkpt><trkpt lat="44.59041891307226" lon="9.364800437572407"><ele>1326.0</ele><time>2026-04-19T12:25:23Z</time></trkpt><trkpt lat="44.590343726069705" lon="9.36490975321788"><ele>1326.3333333333333</ele><time>2026-04-19T12:25:25Z</time></trkpt><trkpt lat="44.59024616441444" lon="9.364952177426105"><ele>1326.6666666666667</ele><time>2026-04-19T12:25:27Z</time></trkpt><trkpt lat="44.59016871940115" lon="9.36494329371454"><ele>1327.0</ele><time>2026-04-19T12:25:29Z</time></trkpt><trkpt lat="44.59009558836145" lon="9.364964305844573"><ele>1327.3333333333335</ele><time>2026-04-19T12:25:30.999Z</time></trkpt><trkpt lat="44.59002745181281" lon="9.364978495241528"><ele>1327.6666666666667</ele><time>2026-04-19T12:25:32.999Z</time></trkpt><trkpt lat="44.58994184612893" lon="9.364936044008415"><ele>1328.0</ele><time>2026-04-19T12:25:35.999Z</time></trkpt><trkpt lat="44.58980748710552" lon="9.364865629348584"><ele>1328.0</ele><time>2026-04-19T12:25:37.999Z</time></trkpt><trkpt lat="44.58969765389012" lon="9.364856892884136"><ele>1328.0</ele><time>2026-04-19T12:25:39.999Z</time></trkpt><trkpt lat="44.58958098166304" lon="9.364829109714385"><ele>1328.0</ele><time>2026-04-19T12:25:41.999Z</time></trkpt><trkpt lat="44.58946182752254" lon="9.364864013834042"><ele>1328.0</ele><time>2026-04-19T12:25:43.999Z</time></trkpt><trkpt lat="44.58939421974667" lon="9.364895677265318"><ele>1328.0</ele><time>2026-04-19T12:25:45.999Z</time></trkpt><trkpt lat="44.589318876886594" lon="9.364931841862234"><ele>1328.6000000000001</ele><time>2026-04-19T12:25:48.999Z</time></trkpt><trkpt lat="44.58920028767161" lon="9.3649533272545"><ele>1329.2</ele><time>2026-04-19T12:25:51.999Z</time></trkpt><trkpt lat="44.58912277510472" lon="9.364999770589243"><ele>1329.8</ele><time>2026-04-19T12:25:53.999Z</time></trkpt><trkpt lat="44.58905532809137" lon="9.365112776171284"><ele>1330.4</ele><time>2026-04-19T12:25:55.999Z</time></trkpt><trkpt lat="44.58904915470217" lon="9.365280279857746"><ele>1331.0</ele><time>2026-04-19T12:25:57.999Z</time></trkpt><trkpt lat="44.58912308681335" lon="9.365425554885476"><ele>1331.0</ele><time>2026-04-19T12:25:59.999Z</time></trkpt><trkpt lat="44.58923556712876" lon="9.365487989542565"><ele>1331.0</ele><time>2026-04-19T12:26:01.999Z</time></trkpt><trkpt lat="44.589344281293954" lon="9.36546380438304"><ele>1331.0</ele><time>2026-04-19T12:26:03.999Z</time></trkpt><trkpt lat="44.58944765055276" lon="9.365465537854973"><ele>1331.0</ele><time>2026-04-19T12:26:05.999Z</time></trkpt><trkpt lat="44.58953624829898" lon="9.365480592859763"><ele>1331.0</ele><time>2026-04-19T12:26:07.999Z</time></trkpt><trkpt lat="44.589624445479785" lon="9.365536891299506"><ele>1326.8</ele><time>2026-04-19T12:26:09.999Z</time></trkpt><trkpt lat="44.58967802183728" lon="9.36560150517933"><ele>1322.6</ele><time>2026-04-19T12:26:11.999Z</time></trkpt><trkpt lat="44.5897829994142" lon="9.365661409606709"><ele>1318.4</ele><time>2026-04-19T12:26:13.999Z</time></trkpt><trkpt lat="44.58988878105078" lon="9.365722064435705"><ele>1314.2</ele><time>2026-04-19T12:26:15.999Z</time></trkpt><trkpt lat="44.58998766430314" lon="9.365707708549705"><ele>1310.0</ele><time>2026-04-19T12:26:17.999Z</time></trkpt><trkpt lat="44.59005225839021" lon="9.365705782486849"><ele>1310.0</ele><time>2026-04-19T12:26:19Z</time></trkpt><trkpt lat="44.590140586789275" lon="9.365866438436608"><ele>1310.0</ele><time>2026-04-19T12:26:21Z</time></trkpt><trkpt lat="44.59018312610594" lon="9.365942016405373"><ele>1310.0</ele><time>2026-04-19T12:26:22Z</time></trkpt><trkpt lat="44.59022621825116" lon="9.36602427967598"><ele>1310.0</ele><time>2026-04-19T12:26:23Z</time></trkpt><trkpt lat="44.59027315545804" lon="9.366096136809327"><ele>1310.0</ele><time>2026-04-19T12:26:24Z</time></trkpt><trkpt lat="44.59035107191137" lon="9.366198479927329"><ele>1309.6</ele><time>2026-04-19T12:26:26Z</time></trkpt><trkpt lat="44.5904047610716" lon="9.366259808092002"><ele>1309.2</ele><time>2026-04-19T12:26:27Z</time></trkpt><trkpt lat="44.590527468076836" lon="9.366331135489029"><ele>1308.8000000000002</ele><time>2026-04-19T12:26:29Z</time></trkpt><trkpt lat="44.590632804077394" lon="9.36637663209252"><ele>1308.4</ele><time>2026-04-19T12:26:31Z</time></trkpt><trkpt lat="44.5907069713023" lon="9.366408648974208"><ele>1308.0</ele><time>2026-04-19T12:26:32Z</time></trkpt><trkpt lat="44.59077860860783" lon="9.366447254327422"><ele>1308.0</ele><time>2026-04-19T12:26:33Z</time></trkpt><trkpt lat="44.59089142893704" lon="9.366494035653478"><ele>1308.0</ele><time>2026-04-19T12:26:35Z</time></trkpt><trkpt lat="44.59098802984576" lon="9.36650276199973"><ele>1308.0</ele><time>2026-04-19T12:26:37Z</time></trkpt><trkpt lat="44.591067914358604" lon="9.366485800861705"><ele>1308.0</ele><time>2026-04-19T12:26:40Z</time></trkpt><trkpt lat="44.591126161741045" lon="9.36641322440958"><ele>1308.0</ele><time>2026-04-19T12:26:42Z</time></trkpt><trkpt lat="44.59113614221976" lon="9.366325195072307"><ele>1308.0</ele><time>2026-04-19T12:26:43Z</time></trkpt><trkpt lat="44.591128768441365" lon="9.366174927256106"><ele>1308.0</ele><time>2026-04-19T12:26:45Z</time></trkpt><trkpt lat="44.59116126928034" lon="9.366026974191067"><ele>1308.0</ele><time>2026-04-19T12:26:47Z</time></trkpt><trkpt lat="44.591217979532054" lon="9.365884892369932"><ele>1308.0</ele><time>2026-04-19T12:26:49Z</time></trkpt><trkpt lat="44.59128790434614" lon="9.365792227389129"><ele>1308.0</ele><time>2026-04-19T12:26:51Z</time></trkpt><trkpt lat="44.59138005400769" lon="9.365778461734207"><ele>1308.0</ele><time>2026-04-19T12:26:53Z</time></trkpt><trkpt lat="44.591481054936665" lon="9.365900423493695"><ele>1307.8000000000002</ele><time>2026-04-19T12:26:55Z</time></trkpt><trkpt lat="44.59159421013118" lon="9.365849516773439"><ele>1307.6</ele><time>2026-04-19T12:26:57Z</time></trkpt><trkpt lat="44.591682521305515" lon="9.36575705658982"><ele>1307.4</ele><time>2026-04-19T12:26:59Z</time></trkpt><trkpt lat="44.591767978421224" lon="9.365633314131191"><ele>1307.1999999999998</ele><time>2026-04-19T12:27:01Z</time></trkpt><trkpt lat="44.591799526837285" lon="9.365546763682975"><ele>1307.0</ele><time>2026-04-19T12:27:02Z</time></trkpt><trkpt lat="44.591864835076045" lon="9.36552679576568"><ele>1302.8</ele><time>2026-04-19T12:27:03Z</time></trkpt><trkpt lat="44.59198537078679" lon="9.36555037784694"><ele>1298.6</ele><time>2026-04-19T12:27:05Z</time></trkpt><trkpt lat="44.5920473278327" lon="9.365571034412202"><ele>1294.3999999999999</ele><time>2026-04-19T12:27:06Z</time></trkpt><trkpt lat="44.59212493133634" lon="9.36557114761795"><ele>1290.1999999999998</ele><time>2026-04-19T12:27:08Z</time></trkpt><trkpt lat="44.5922128641629" lon="9.365623681786378"><ele>1286.0</ele><time>2026-04-19T12:27:10Z</time></trkpt><trkpt lat="44.59228859905237" lon="9.36573583910715"><ele>1283.5</ele><time>2026-04-19T12:27:12Z</time></trkpt><trkpt lat="44.592381840978405" lon="9.365768739341844"><ele>1281.0</ele><time>2026-04-19T12:27:14Z</time></trkpt><trkpt lat="44.592440250050004" lon="9.365813021486357"><ele>1278.5</ele><time>2026-04-19T12:27:15Z</time></trkpt><trkpt lat="44.5925519596366" lon="9.365776979654159"><ele>1276.0</ele><time>2026-04-19T12:27:17Z</time></trkpt><trkpt lat="44.59260335650833" lon="9.365710447053047"><ele>1273.5</ele><time>2026-04-19T12:27:19Z</time></trkpt><trkpt lat="44.592666693976945" lon="9.365678126617206"><ele>1271.0</ele><time>2026-04-19T12:27:20Z</time></trkpt><trkpt lat="44.592752512503225" lon="9.3656517848766"><ele>1271.0</ele><time>2026-04-19T12:27:21Z</time></trkpt><trkpt lat="44.59281740172261" lon="9.36568442627286"><ele>1271.0</ele><time>2026-04-19T12:27:22Z</time></trkpt><trkpt lat="44.59287607733384" lon="9.365720739078116"><ele>1271.0</ele><time>2026-04-19T12:27:23Z</time></trkpt><trkpt lat="44.592914424630806" lon="9.365794482746763"><ele>1271.0</ele><time>2026-04-19T12:27:24Z</time></trkpt><trkpt lat="44.59302969343607" lon="9.365836674995846"><ele>1271.0</ele><time>2026-04-19T12:27:26Z</time></trkpt><trkpt lat="44.593132329977955" lon="9.365819336995118"><ele>1271.0</ele><time>2026-04-19T12:27:28Z</time></trkpt><trkpt lat="44.5932409586426" lon="9.365805113331502"><ele>1270.1666666666667</ele><time>2026-04-19T12:27:30Z</time></trkpt><trkpt lat="44.5933302606262" lon="9.365768476588835"><ele>1269.3333333333335</ele><time>2026-04-19T12:27:31Z</time></trkpt><trkpt lat="44.593394076180516" lon="9.365739974525866"><ele>1268.5</ele><time>2026-04-19T12:27:32Z</time></trkpt><trkpt lat="44.59348595583672" lon="9.365795890171384"><ele>1267.6666666666667</ele><time>2026-04-19T12:27:34Z</time></trkpt><trkpt lat="44.59356237798715" lon="9.365884918706342"><ele>1266.8333333333333</ele><time>2026-04-19T12:27:36Z</time></trkpt><trkpt lat="44.59363357093684" lon="9.365952975532153"><ele>1266.0</ele><time>2026-04-19T12:27:38Z</time></trkpt><trkpt lat="44.59371952204671" lon="9.366047709462748"><ele>1263.8333333333333</ele><time>2026-04-19T12:27:41Z</time></trkpt><trkpt lat="44.593795845926984" lon="9.366076234546648"><ele>1261.6666666666667</ele><time>2026-04-19T12:27:43Z</time></trkpt><trkpt lat="44.59388115339461" lon="9.366079286908345"><ele>1259.5</ele><time>2026-04-19T12:27:45Z</time></trkpt><trkpt lat="44.593981737597964" lon="9.366060889251791"><ele>1257.3333333333335</ele><time>2026-04-19T12:27:46.999Z</time></trkpt><trkpt lat="44.594080610983745" lon="9.366051629840479"><ele>1255.1666666666667</ele><time>2026-04-19T12:27:48.999Z</time></trkpt><trkpt lat="44.59414878923775" lon="9.366024927679684"><ele>1253.0</ele><time>2026-04-19T12:27:50.999Z</time></trkpt><trkpt lat="44.59422034733228" lon="9.365997546568469"><ele>1253.0</ele><time>2026-04-19T12:27:52.999Z</time></trkpt><trkpt lat="44.59430678741322" lon="9.365954262680978"><ele>1253.0</ele><time>2026-04-19T12:27:54.999Z</time></trkpt><trkpt lat="44.59437071961494" lon="9.3659171457949"><ele>1253.0</ele><time>2026-04-19T12:27:55.999Z</time></trkpt><trkpt lat="44.59446848297514" lon="9.365951439122776"><ele>1253.0</ele><time>2026-04-19T12:27:57.999Z</time></trkpt><trkpt lat="44.59458372685653" lon="9.36592846958622"><ele>1253.0</ele><time>2026-04-19T12:27:59.999Z</time></trkpt><trkpt lat="44.59465226202787" lon="9.365924998451726"><ele>1253.0</ele><time>2026-04-19T12:28:01.999Z</time></trkpt><trkpt lat="44.594743848934264" lon="9.36586847700371"><ele>1250.5</ele><time>2026-04-19T12:28:03.999Z</time></trkpt><trkpt lat="44.594807123485054" lon="9.365800963873339"><ele>1248.0</ele><time>2026-04-19T12:28:05.999Z</time></trkpt><trkpt lat="44.5948910409828" lon="9.36577070259366"><ele>1245.5</ele><time>2026-04-19T12:28:06.999Z</time></trkpt><trkpt lat="44.594984794329136" lon="9.365771426548854"><ele>1243.0</ele><time>2026-04-19T12:28:08.999Z</time></trkpt><trkpt lat="44.595059962671385" lon="9.36577146435778"><ele>1240.5</ele><time>2026-04-19T12:28:09.999Z</time></trkpt><trkpt lat="44.59515137058385" lon="9.36579653206147"><ele>1238.0</ele><time>2026-04-19T12:28:11.999Z</time></trkpt><trkpt lat="44.59524404331691" lon="9.365845520968747"><ele>1234.8</ele><time>2026-04-19T12:28:13.999Z</time></trkpt><trkpt lat="44.595365392234996" lon="9.365870690012079"><ele>1231.6</ele><time>2026-04-19T12:28:15.999Z</time></trkpt><trkpt lat="44.595455093002315" lon="9.365801763566102"><ele>1228.4</ele><time>2026-04-19T12:28:17.999Z</time></trkpt><trkpt lat="44.595568271215754" lon="9.365762327415004"><ele>1225.2</ele><time>2026-04-19T12:28:19.999Z</time></trkpt><trkpt lat="44.59563594698762" lon="9.36574886140705"><ele>1222.0</ele><time>2026-04-19T12:28:20.999Z</time></trkpt><trkpt lat="44.595701095370806" lon="9.365729987178476"><ele>1222.0</ele><time>2026-04-19T12:28:21.999Z</time></trkpt><trkpt lat="44.595755989528826" lon="9.365684875167206"><ele>1222.0</ele><time>2026-04-19T12:28:22.999Z</time></trkpt><trkpt lat="44.59585199661679" lon="9.365574238996368"><ele>1222.0</ele><time>2026-04-19T12:28:25Z</time></trkpt><trkpt lat="44.595913880118594" lon="9.365504181136515"><ele>1222.0</ele><time>2026-04-19T12:28:26Z</time></trkpt><trkpt lat="44.59596154265616" lon="9.36544549678658"><ele>1222.0</ele><time>2026-04-19T12:28:27Z</time></trkpt><trkpt lat="44.59604989024258" lon="9.365347096349144"><ele>1222.0</ele><time>2026-04-19T12:28:29Z</time></trkpt><trkpt lat="44.59614038235904" lon="9.365284919058766"><ele>1223.0</ele><time>2026-04-19T12:28:31Z</time></trkpt><trkpt lat="44.596243296231144" lon="9.365282258329822"><ele>1224.0</ele><time>2026-04-19T12:28:33Z</time></trkpt><trkpt lat="44.596354185481125" lon="9.365316320933818"><ele>1225.0</ele><time>2026-04-19T12:28:35Z</time></trkpt><trkpt lat="44.5964698421426" lon="9.36536230849218"><ele>1226.0</ele><time>2026-04-19T12:28:37Z</time></trkpt><trkpt lat="44.596593122483156" lon="9.365392905764988"><ele>1226.0</ele><time>2026-04-19T12:28:39Z</time></trkpt><trkpt lat="44.596664628512855" lon="9.365388740510069"><ele>1226.0</ele><time>2026-04-19T12:28:40Z</time></trkpt><trkpt lat="44.596742403789776" lon="9.365377620298323"><ele>1226.0</ele><time>2026-04-19T12:28:41Z</time></trkpt><trkpt lat="44.59682884037713" lon="9.365352021690548"><ele>1226.0</ele><time>2026-04-19T12:28:42Z</time></trkpt><trkpt lat="44.59691259716431" lon="9.365318146957648"><ele>1226.0</ele><time>2026-04-19T12:28:43Z</time></trkpt><trkpt lat="44.596999307593734" lon="9.365314062193733"><ele>1226.0</ele><time>2026-04-19T12:28:44Z</time></trkpt><trkpt lat="44.59711799481391" lon="9.36532056759831"><ele>1222.3999999999999</ele><time>2026-04-19T12:28:46Z</time></trkpt><trkpt lat="44.59719815671945" lon="9.365393681627962"><ele>1218.8</ele><time>2026-04-19T12:28:48Z</time></trkpt><trkpt lat="44.59729480967433" lon="9.365460215848744"><ele>1215.1999999999998</ele><time>2026-04-19T12:28:50Z</time></trkpt><trkpt lat="44.597389124354805" lon="9.365556184130266"><ele>1211.6</ele><time>2026-04-19T12:28:52Z</time></trkpt><trkpt lat="44.597470373550735" lon="9.365686494696273"><ele>1208.0</ele><time>2026-04-19T12:28:54Z</time></trkpt><trkpt lat="44.59752642591783" lon="9.365747205982556"><ele>1208.0</ele><time>2026-04-19T12:28:55Z</time></trkpt><trkpt lat="44.597644580992586" lon="9.365812178851249"><ele>1208.0</ele><time>2026-04-19T12:28:57Z</time></trkpt><trkpt lat="44.59771016273807" lon="9.365862357190487"><ele>1208.0</ele><time>2026-04-19T12:28:58Z</time></trkpt><trkpt lat="44.59778443127197" lon="9.365929923396504"><ele>1208.0</ele><time>2026-04-19T12:28:59Z</time></trkpt><trkpt lat="44.59784880191227" lon="9.365988933495956"><ele>1208.0</ele><time>2026-04-19T12:29:00Z</time></trkpt><trkpt lat="44.597947283574534" lon="9.366080108290044"><ele>1206.5</ele><time>2026-04-19T12:29:02Z</time></trkpt><trkpt lat="44.59805079059513" lon="9.366176116721402"><ele>1205.0</ele><time>2026-04-19T12:29:04Z</time></trkpt><trkpt lat="44.598133297711485" lon="9.36626581851507"><ele>1203.5</ele><time>2026-04-19T12:29:06Z</time></trkpt><trkpt lat="44.59822076898505" lon="9.366345040382518"><ele>1202.0</ele><time>2026-04-19T12:29:08Z</time></trkpt><trkpt lat="44.5983288677982" lon="9.366410563526353"><ele>1202.0</ele><time>2026-04-19T12:29:10Z</time></trkpt><trkpt lat="44.598432732996606" lon="9.366449974614236"><ele>1202.0</ele><time>2026-04-19T12:29:12Z</time></trkpt><trkpt lat="44.59854607515258" lon="9.366443933785257"><ele>1202.0</ele><time>2026-04-19T12:29:14Z</time></trkpt><trkpt lat="44.59861056500167" lon="9.366446022147391"><ele>1202.0</ele><time>2026-04-19T12:29:15Z</time></trkpt><trkpt lat="44.59873374921979" lon="9.366523558995667"><ele>1202.0</ele><time>2026-04-19T12:29:17Z</time></trkpt><trkpt lat="44.59880545014673" lon="9.366560012013668"><ele>1203.2</ele><time>2026-04-19T12:29:18Z</time></trkpt><trkpt lat="44.59887090426325" lon="9.36658118314064"><ele>1204.4</ele><time>2026-04-19T12:29:19Z</time></trkpt><trkpt lat="44.59893744454264" lon="9.366602918588088"><ele>1205.6</ele><time>2026-04-19T12:29:20Z</time></trkpt><trkpt lat="44.5990062255192" lon="9.3666164219679"><ele>1206.8</ele><time>2026-04-19T12:29:21Z</time></trkpt><trkpt lat="44.599125581727996" lon="9.366685056645313"><ele>1208.0</ele><time>2026-04-19T12:29:23Z</time></trkpt><trkpt lat="44.59925398306657" lon="9.366751626481063"><ele>1208.0</ele><time>2026-04-19T12:29:25Z</time></trkpt><trkpt lat="44.59934962270192" lon="9.366762974533643"><ele>1208.0</ele><time>2026-04-19T12:29:26Z</time></trkpt><trkpt lat="44.59942415888961" lon="9.366769176929127"><ele>1208.0</ele><time>2026-04-19T12:29:27Z</time></trkpt><trkpt lat="44.599499762014915" lon="9.36677174846356"><ele>1208.0</ele><time>2026-04-19T12:29:28Z</time></trkpt><trkpt lat="44.59956748863942" lon="9.366778179625603"><ele>1208.0</ele><time>2026-04-19T12:29:29Z</time></trkpt><trkpt lat="44.599665092383155" lon="9.366815236246026"><ele>1208.0</ele><time>2026-04-19T12:29:31Z</time></trkpt><trkpt lat="44.59972989416129" lon="9.366831745806742"><ele>1209.3333333333335</ele><time>2026-04-19T12:29:32Z</time></trkpt><trkpt lat="44.59980185123193" lon="9.366831172729139"><ele>1210.6666666666667</ele><time>2026-04-19T12:29:33Z</time></trkpt><trkpt lat="44.599878516267964" lon="9.366798162637007"><ele>1212.0</ele><time>2026-04-19T12:29:34Z</time></trkpt><trkpt lat="44.59995231332806" lon="9.366765582356772"><ele>1213.3333333333333</ele><time>2026-04-19T12:29:35Z</time></trkpt><trkpt lat="44.6000178770156" lon="9.366740462476676"><ele>1214.6666666666665</ele><time>2026-04-19T12:29:36Z</time></trkpt><trkpt lat="44.600093140500825" lon="9.366718252445155"><ele>1216.0</ele><time>2026-04-19T12:29:37Z</time></trkpt><trkpt lat="44.60017482709932" lon="9.366718258773433"><ele>1216.0</ele><time>2026-04-19T12:29:38Z</time></trkpt><trkpt lat="44.60025935419292" lon="9.366708189753362"><ele>1216.0</ele><time>2026-04-19T12:29:39Z</time></trkpt><trkpt lat="44.600353762505726" lon="9.366696403242127"><ele>1216.0</ele><time>2026-04-19T12:29:40Z</time></trkpt><trkpt lat="44.60044735164306" lon="9.366669038714441"><ele>1216.0</ele><time>2026-04-19T12:29:41Z</time></trkpt><trkpt lat="44.60052271140618" lon="9.366650936941788"><ele>1216.0</ele><time>2026-04-19T12:29:42Z</time></trkpt><trkpt lat="44.60062671647245" lon="9.3666331354826"><ele>1215.3333333333333</ele><time>2026-04-19T12:29:44Z</time></trkpt><trkpt lat="44.60071035220818" lon="9.366686737516895"><ele>1214.6666666666665</ele><time>2026-04-19T12:29:46Z</time></trkpt><trkpt lat="44.60074230132339" lon="9.366798007594188"><ele>1214.0</ele><time>2026-04-19T12:29:48Z</time></trkpt><trkpt lat="44.60075733226849" lon="9.366945225457782"><ele>1213.3333333333333</ele><time>2026-04-19T12:29:50Z</time></trkpt><trkpt lat="44.600764287464685" lon="9.36703815528533"><ele>1212.6666666666667</ele><time>2026-04-19T12:29:51Z</time></trkpt><trkpt lat="44.60075687558017" lon="9.367144557762806"><ele>1212.0</ele><time>2026-04-19T12:29:52Z</time></trkpt><trkpt lat="44.60077043967284" lon="9.367247291741995"><ele>1212.0</ele><time>2026-04-19T12:29:53Z</time></trkpt><trkpt lat="44.60079331416365" lon="9.367344562826457"><ele>1212.0</ele><time>2026-04-19T12:29:53.999Z</time></trkpt><trkpt lat="44.60079383497553" lon="9.36745514536322"><ele>1212.0</ele><time>2026-04-19T12:29:54.999Z</time></trkpt><trkpt lat="44.600816422104494" lon="9.367552083792992"><ele>1212.0</ele><time>2026-04-19T12:29:55.999Z</time></trkpt><trkpt lat="44.60084824354065" lon="9.36764014722336"><ele>1212.0</ele><time>2026-04-19T12:29:56.999Z</time></trkpt><trkpt lat="44.600876981172945" lon="9.36780431599822"><ele>1212.0</ele><time>2026-04-19T12:29:58.999Z</time></trkpt><trkpt lat="44.60089886405023" lon="9.367895880893792"><ele>1209.25</ele><time>2026-04-19T12:29:59.999Z</time></trkpt><trkpt lat="44.60095202889701" lon="9.368054044016686"><ele>1206.5</ele><time>2026-04-19T12:30:01.999Z</time></trkpt><trkpt lat="44.60101971529506" lon="9.368175604143081"><ele>1203.75</ele><time>2026-04-19T12:30:03.999Z</time></trkpt><trkpt lat="44.60110395533213" lon="9.368282719249645"><ele>1201.0</ele><time>2026-04-19T12:30:05.999Z</time></trkpt><trkpt lat="44.6011941452449" lon="9.368406917055433"><ele>1201.3999999999999</ele><time>2026-04-19T12:30:07.999Z</time></trkpt><trkpt lat="44.60124046639103" lon="9.368478074659915"><ele>1201.8</ele><time>2026-04-19T12:30:08.999Z</time></trkpt><trkpt lat="44.60131734453899" lon="9.368586681585489"><ele>1202.1999999999998</ele><time>2026-04-19T12:30:10.999Z</time></trkpt><trkpt lat="44.601392543289336" lon="9.368690530177437"><ele>1202.6</ele><time>2026-04-19T12:30:12.999Z</time></trkpt><trkpt lat="44.60146409182255" lon="9.368795293014553"><ele>1203.0</ele><time>2026-04-19T12:30:14.999Z</time></trkpt><trkpt lat="44.6015375054047" lon="9.36888779961717"><ele>1203.0</ele><time>2026-04-19T12:30:16.999Z</time></trkpt><trkpt lat="44.60161209185881" lon="9.368909185450631"><ele>1203.0</ele><time>2026-04-19T12:30:18.999Z</time></trkpt><trkpt lat="44.601700522751415" lon="9.369018433418816"><ele>1203.0</ele><time>2026-04-19T12:30:20.999Z</time></trkpt><trkpt lat="44.60172936951571" lon="9.36909864403733"><ele>1203.0</ele><time>2026-04-19T12:30:21.999Z</time></trkpt><trkpt lat="44.60176948747357" lon="9.369183116956185"><ele>1203.0</ele><time>2026-04-19T12:30:22.999Z</time></trkpt><trkpt lat="44.60180296093997" lon="9.369259194924966"><ele>1203.0</ele><time>2026-04-19T12:30:23.999Z</time></trkpt><trkpt lat="44.60185423844719" lon="9.369433524113367"><ele>1203.0</ele><time>2026-04-19T12:30:25.999Z</time></trkpt><trkpt lat="44.601883905238985" lon="9.36952623974427"><ele>1203.0</ele><time>2026-04-19T12:30:26.999Z</time></trkpt><trkpt lat="44.601944129483115" lon="9.369689145466252"><ele>1203.0</ele><time>2026-04-19T12:30:28.999Z</time></trkpt><trkpt lat="44.601992850090596" lon="9.369772975768292"><ele>1203.0</ele><time>2026-04-19T12:30:29.999Z</time></trkpt><trkpt lat="44.60205187033679" lon="9.369837478805549"><ele>1203.0</ele><time>2026-04-19T12:30:31Z</time></trkpt><trkpt lat="44.6021317468185" lon="9.369886649150827"><ele>1203.0</ele><time>2026-04-19T12:30:32Z</time></trkpt><trkpt lat="44.602264873345625" lon="9.369953697912706"><ele>1203.0</ele><time>2026-04-19T12:30:34Z</time></trkpt><trkpt lat="44.602318866168915" lon="9.37002936110798"><ele>1203.0</ele><time>2026-04-19T12:30:35Z</time></trkpt><trkpt lat="44.60243985781142" lon="9.370118667312571"><ele>1203.0</ele><time>2026-04-19T12:30:37Z</time></trkpt><trkpt lat="44.602517143310145" lon="9.370133247193849"><ele>1203.0</ele><time>2026-04-19T12:30:38Z</time></trkpt><trkpt lat="44.60259920822568" lon="9.370131574072328"><ele>1203.0</ele><time>2026-04-19T12:30:39Z</time></trkpt><trkpt lat="44.60267217039337" lon="9.37016083440912"><ele>1203.0</ele><time>2026-04-19T12:30:40Z</time></trkpt><trkpt lat="44.6027367509793" lon="9.370167353561277"><ele>1203.0</ele><time>2026-04-19T12:30:41Z</time></trkpt><trkpt lat="44.60280608842842" lon="9.370187577990121"><ele>1203.0</ele><time>2026-04-19T12:30:42Z</time></trkpt><trkpt lat="44.60288830116038" lon="9.370185004765323"><ele>1203.0</ele><time>2026-04-19T12:30:43Z</time></trkpt><trkpt lat="44.60295362911629" lon="9.370192618947765"><ele>1203.0</ele><time>2026-04-19T12:30:44Z</time></trkpt><trkpt lat="44.60305972950068" lon="9.370206737004747"><ele>1203.0</ele><time>2026-04-19T12:30:46Z</time></trkpt><trkpt lat="44.60313190664765" lon="9.370176825186958"><ele>1203.0</ele><time>2026-04-19T12:30:48Z</time></trkpt><trkpt lat="44.60325242091583" lon="9.370226176961374"><ele>1201.6666666666667</ele><time>2026-04-19T12:30:50Z</time></trkpt><trkpt lat="44.60331516906745" lon="9.370247449559447"><ele>1200.3333333333333</ele><time>2026-04-19T12:30:51Z</time></trkpt><trkpt lat="44.60338119627632" lon="9.370276969428556"><ele>1199.0</ele><time>2026-04-19T12:30:52Z</time></trkpt><trkpt lat="44.603460271007556" lon="9.37030196488229"><ele>1197.6666666666665</ele><time>2026-04-19T12:30:53Z</time></trkpt><trkpt lat="44.603566335926295" lon="9.370323405538945"><ele>1196.3333333333333</ele><time>2026-04-19T12:30:54Z</time></trkpt><trkpt lat="44.603660001878836" lon="9.370349168589499"><ele>1195.0</ele><time>2026-04-19T12:30:55Z</time></trkpt><trkpt lat="44.603755062216734" lon="9.370412436798183"><ele>1194.3333333333333</ele><time>2026-04-19T12:30:56Z</time></trkpt><trkpt lat="44.60382737001623" lon="9.370441287310301"><ele>1193.6666666666665</ele><time>2026-04-19T12:30:57Z</time></trkpt><trkpt lat="44.60389046645422" lon="9.370460308540022"><ele>1193.0</ele><time>2026-04-19T12:30:58Z</time></trkpt><trkpt lat="44.60397844707264" lon="9.37048033077272"><ele>1192.3333333333333</ele><time>2026-04-19T12:30:59Z</time></trkpt><trkpt lat="44.604061426099335" lon="9.370475967206517"><ele>1191.6666666666667</ele><time>2026-04-19T12:31:00Z</time></trkpt><trkpt lat="44.604155234131554" lon="9.370463907908974"><ele>1191.0</ele><time>2026-04-19T12:31:02Z</time></trkpt><trkpt lat="44.604244612566355" lon="9.370460976982406"><ele>1191.0</ele><time>2026-04-19T12:31:04Z</time></trkpt><trkpt lat="44.604341147934754" lon="9.370432826498464"><ele>1191.0</ele><time>2026-04-19T12:31:06Z</time></trkpt><trkpt lat="44.60442465299129" lon="9.370405782388925"><ele>1191.0</ele><time>2026-04-19T12:31:08Z</time></trkpt><trkpt lat="44.60452982779152" lon="9.370359881292497"><ele>1191.0</ele><time>2026-04-19T12:31:10Z</time></trkpt><trkpt lat="44.60461566807204" lon="9.37035099832694"><ele>1191.0</ele><time>2026-04-19T12:31:11Z</time></trkpt><trkpt lat="44.60468106946964" lon="9.370333973643987"><ele>1191.0</ele><time>2026-04-19T12:31:12Z</time></trkpt><trkpt lat="44.60478867425801" lon="9.370339946060986"><ele>1191.0</ele><time>2026-04-19T12:31:14Z</time></trkpt><trkpt lat="44.604904855089565" lon="9.370325030177298"><ele>1191.0</ele><time>2026-04-19T12:31:16Z</time></trkpt><trkpt lat="44.60498602180484" lon="9.3703323801562"><ele>1191.0</ele><time>2026-04-19T12:31:17Z</time></trkpt><trkpt lat="44.60508857284469" lon="9.37036256921224"><ele>1191.0</ele><time>2026-04-19T12:31:19Z</time></trkpt><trkpt lat="44.605150159927184" lon="9.370382405917518"><ele>1191.0</ele><time>2026-04-19T12:31:20Z</time></trkpt><trkpt lat="44.60522227672678" lon="9.370396562719186"><ele>1191.0</ele><time>2026-04-19T12:31:21Z</time></trkpt><trkpt lat="44.60529112175598" lon="9.37040952878331"><ele>1190.3999999999999</ele><time>2026-04-19T12:31:22Z</time></trkpt><trkpt lat="44.60538032783051" lon="9.370405147368576"><ele>1189.8</ele><time>2026-04-19T12:31:23Z</time></trkpt><trkpt lat="44.605445209841015" lon="9.370411432956084"><ele>1189.1999999999998</ele><time>2026-04-19T12:31:24Z</time></trkpt><trkpt lat="44.60559758109755" lon="9.37043003772719"><ele>1188.6</ele><time>2026-04-19T12:31:26Z</time></trkpt><trkpt lat="44.60569750648482" lon="9.3704689250934"><ele>1188.0</ele><time>2026-04-19T12:31:28Z</time></trkpt><trkpt lat="44.605751613880756" lon="9.370523973074857"><ele>1189.0</ele><time>2026-04-19T12:31:29Z</time></trkpt><trkpt lat="44.605840437603966" lon="9.370597625840773"><ele>1190.0</ele><time>2026-04-19T12:31:31Z</time></trkpt><trkpt lat="44.60589600572026" lon="9.370646592468843"><ele>1191.0</ele><time>2026-04-19T12:31:33Z</time></trkpt><trkpt lat="44.605981908092765" lon="9.370625131374137"><ele>1192.0</ele><time>2026-04-19T12:32:00Z</time></trkpt><trkpt lat="44.60608694880388" lon="9.370602231213045"><ele>1193.0</ele><time>2026-04-19T12:32:02Z</time></trkpt><trkpt lat="44.60617171595291" lon="9.370572433240996"><ele>1194.4</ele><time>2026-04-19T12:32:03Z</time></trkpt><trkpt lat="44.6062423808563" lon="9.37056906085299"><ele>1195.8</ele><time>2026-04-19T12:32:04Z</time></trkpt><trkpt lat="44.60635088078569" lon="9.37062289659335"><ele>1197.2</ele><time>2026-04-19T12:32:06Z</time></trkpt><trkpt lat="44.60642725026417" lon="9.370732376533722"><ele>1198.6</ele><time>2026-04-19T12:32:07.999Z</time></trkpt><trkpt lat="44.6065036014373" lon="9.370823396201443"><ele>1200.0</ele><time>2026-04-19T12:32:09.999Z</time></trkpt><trkpt lat="44.60658231975322" lon="9.370877098353018"><ele>1200.0</ele><time>2026-04-19T12:32:11.999Z</time></trkpt><trkpt lat="44.6066452870893" lon="9.370895568925484"><ele>1200.0</ele><time>2026-04-19T12:32:13.999Z</time></trkpt><trkpt lat="44.60671700122935" lon="9.370919841239017"><ele>1200.0</ele><time>2026-04-19T12:32:15.999Z</time></trkpt><trkpt lat="44.606779429261" lon="9.370937519742057"><ele>1200.0</ele><time>2026-04-19T12:32:17.999Z</time></trkpt><trkpt lat="44.60689142137246" lon="9.37091084811963"><ele>1200.0</ele><time>2026-04-19T12:32:19.999Z</time></trkpt><trkpt lat="44.607009133161235" lon="9.37088409373563"><ele>1200.0</ele><time>2026-04-19T12:32:20.999Z</time></trkpt><trkpt lat="44.607099370110106" lon="9.370861098221372"><ele>1200.6</ele><time>2026-04-19T12:32:21.999Z</time></trkpt><trkpt lat="44.607205119622606" lon="9.370875207806176"><ele>1201.2</ele><time>2026-04-19T12:32:22.999Z</time></trkpt><trkpt lat="44.60730384959391" lon="9.370884313063637"><ele>1201.8</ele><time>2026-04-19T12:32:23.999Z</time></trkpt><trkpt lat="44.60741421559777" lon="9.370883241571606"><ele>1202.4</ele><time>2026-04-19T12:32:24.999Z</time></trkpt><trkpt lat="44.60750378236975" lon="9.370851814954145"><ele>1203.0</ele><time>2026-04-19T12:32:26.999Z</time></trkpt><trkpt lat="44.60757326600582" lon="9.370871367961009"><ele>1203.0</ele><time>2026-04-19T12:32:29.999Z</time></trkpt><trkpt lat="44.6076377223287" lon="9.370895414297713"><ele>1203.0</ele><time>2026-04-19T12:32:40Z</time></trkpt><trkpt lat="44.60770101112135" lon="9.370899426991059"><ele>1203.0</ele><time>2026-04-19T12:32:44Z</time></trkpt><trkpt lat="44.60776406168152" lon="9.370910174615855"><ele>1203.0</ele><time>2026-04-19T12:32:50Z</time></trkpt><trkpt lat="44.6078271650816" lon="9.370897709045998"><ele>1203.0</ele><time>2026-04-19T12:32:55Z</time></trkpt><trkpt lat="44.60775139580837" lon="9.370914927427714"><ele>1203.0</ele><time>2026-04-19T12:33:05Z</time></trkpt><trkpt lat="44.607686974841265" lon="9.37091518040117"><ele>1203.0</ele><time>2026-04-19T12:33:09Z</time></trkpt><trkpt lat="44.607610817102184" lon="9.370902970954079"><ele>1203.0</ele><time>2026-04-19T12:33:52Z</time></trkpt><trkpt lat="44.60758482616392" lon="9.370819934590775"><ele>1203.0</ele><time>2026-04-19T12:35:56Z</time></trkpt><trkpt lat="44.60751323145568" lon="9.370797303566492"><ele>1203.0</ele><time>2026-04-19T12:35:58Z</time></trkpt><trkpt lat="44.607424171492866" lon="9.370824032023961"><ele>1203.0</ele><time>2026-04-19T12:36:00Z</time></trkpt><trkpt lat="44.60731878978915" lon="9.370849741644935"><ele>1203.0</ele><time>2026-04-19T12:36:02Z</time></trkpt><trkpt lat="44.60723611045507" lon="9.37085980552557"><ele>1203.0</ele><time>2026-04-19T12:36:03Z</time></trkpt><trkpt lat="44.60716118407427" lon="9.37090840283283"><ele>1203.0</ele><time>2026-04-19T12:36:05Z</time></trkpt><trkpt lat="44.6070663384155" lon="9.370877831097053"><ele>1203.0</ele><time>2026-04-19T12:36:06.999Z</time></trkpt><trkpt lat="44.60695432372845" lon="9.370893265776138"><ele>1203.0</ele><time>2026-04-19T12:36:08.999Z</time></trkpt><trkpt lat="44.606882034440844" lon="9.370916082875352"><ele>1203.0</ele><time>2026-04-19T12:36:09.999Z</time></trkpt><trkpt lat="44.60679387938449" lon="9.370939270922849"><ele>1203.0</ele><time>2026-04-19T12:36:11.999Z</time></trkpt><trkpt lat="44.60672594748834" lon="9.370886807138731"><ele>1202.4</ele><time>2026-04-19T12:36:13.999Z</time></trkpt><trkpt lat="44.60662991973354" lon="9.370849569668813"><ele>1201.8</ele><time>2026-04-19T12:36:15.999Z</time></trkpt><trkpt lat="44.60654670994501" lon="9.370835025477568"><ele>1201.2</ele><time>2026-04-19T12:36:17.999Z</time></trkpt><trkpt lat="44.606475497085626" lon="9.370791445114394"><ele>1200.6</ele><time>2026-04-19T12:36:19.999Z</time></trkpt><trkpt lat="44.60639574694689" lon="9.370676720676073"><ele>1200.0</ele><time>2026-04-19T12:36:21.999Z</time></trkpt><trkpt lat="44.60630882624741" lon="9.370579237094562"><ele>1200.0</ele><time>2026-04-19T12:36:23.999Z</time></trkpt><trkpt lat="44.60619202186803" lon="9.370568241328591"><ele>1200.0</ele><time>2026-04-19T12:36:25.999Z</time></trkpt><trkpt lat="44.606080445726" lon="9.370592838166134"><ele>1200.0</ele><time>2026-04-19T12:36:27.999Z</time></trkpt><trkpt lat="44.60598634990984" lon="9.370699431543946"><ele>1200.0</ele><time>2026-04-19T12:36:29.999Z</time></trkpt><trkpt lat="44.6058958696586" lon="9.370688268715217"><ele>1200.0</ele><time>2026-04-19T12:36:31.999Z</time></trkpt><trkpt lat="44.60583644899603" lon="9.370616358132626"><ele>1198.8333333333333</ele><time>2026-04-19T12:36:32.999Z</time></trkpt><trkpt lat="44.60578004787108" lon="9.370573335226796"><ele>1197.6666666666667</ele><time>2026-04-19T12:36:33.999Z</time></trkpt><trkpt lat="44.60572720450146" lon="9.370514755282352"><ele>1196.5</ele><time>2026-04-19T12:36:34.999Z</time></trkpt><trkpt lat="44.605627008894736" lon="9.370472337397432"><ele>1195.3333333333335</ele><time>2026-04-19T12:36:36.999Z</time></trkpt><trkpt lat="44.60551920378948" lon="9.370439141044358"><ele>1194.1666666666667</ele><time>2026-04-19T12:36:38.999Z</time></trkpt><trkpt lat="44.605450592450616" lon="9.370453599192283"><ele>1193.0</ele><time>2026-04-19T12:36:40.999Z</time></trkpt><trkpt lat="44.60538664659116" lon="9.37038481721642"><ele>1192.5</ele><time>2026-04-19T12:37:50Z</time></trkpt><trkpt lat="44.60530790859525" lon="9.370397088125138"><ele>1192.0</ele><time>2026-04-19T12:37:52Z</time></trkpt><trkpt lat="44.605180136337715" lon="9.370425014217876"><ele>1191.5</ele><time>2026-04-19T12:37:54Z</time></trkpt><trkpt lat="44.605083742380046" lon="9.37021062747646"><ele>1191.0</ele><time>2026-04-19T12:37:56Z</time></trkpt><trkpt lat="44.60502057855835" lon="9.370194024947347"><ele>1191.0</ele><time>2026-04-19T12:37:57Z</time></trkpt><trkpt lat="44.60491041814518" lon="9.370167135822813"><ele>1191.0</ele><time>2026-04-19T12:37:59Z</time></trkpt><trkpt lat="44.604836854137744" lon="9.370149812515976"><ele>1191.0</ele><time>2026-04-19T12:38:00Z</time></trkpt><trkpt lat="44.604799124008274" lon="9.370340568312164"><ele>1191.0</ele><time>2026-04-19T12:38:14.999Z</time></trkpt><trkpt lat="44.604696963458046" lon="9.370333919688704"><ele>1191.0</ele><time>2026-04-19T12:38:46.999Z</time></trkpt><trkpt lat="44.60462059869989" lon="9.370338800711785"><ele>1191.0</ele><time>2026-04-19T12:38:48.999Z</time></trkpt><trkpt lat="44.6045418647894" lon="9.370348898323199"><ele>1191.0</ele><time>2026-04-19T12:38:51.999Z</time></trkpt><trkpt lat="44.60445599769379" lon="9.370374845667957"><ele>1191.0</ele><time>2026-04-19T12:38:55Z</time></trkpt><trkpt lat="44.60435996693753" lon="9.370361787380224"><ele>1191.0</ele><time>2026-04-19T12:38:57Z</time></trkpt><trkpt lat="44.604290501778365" lon="9.370401058680066"><ele>1191.0</ele><time>2026-04-19T12:38:59Z</time></trkpt><trkpt lat="44.604215268125984" lon="9.370431975835244"><ele>1191.0</ele><time>2026-04-19T12:39:02Z</time></trkpt><trkpt lat="44.60431482951759" lon="9.370446801690717"><ele>1191.0</ele><time>2026-04-19T12:39:32Z</time></trkpt><trkpt lat="44.60440769777538" lon="9.370431479157991"><ele>1191.0</ele><time>2026-04-19T12:39:35Z</time></trkpt><trkpt lat="44.60446616519979" lon="9.37039486723267"><ele>1191.0</ele><time>2026-04-19T12:39:40Z</time></trkpt><trkpt lat="44.60440012814999" lon="9.370365357683884"><ele>1191.0</ele><time>2026-04-19T12:40:10.999Z</time></trkpt><trkpt lat="44.60434138424398" lon="9.370403539253315"><ele>1191.0</ele><time>2026-04-19T12:40:22.999Z</time></trkpt><trkpt lat="44.60427565326171" lon="9.370378834532843"><ele>1191.0</ele><time>2026-04-19T12:41:02Z</time></trkpt><trkpt lat="44.604212137938674" lon="9.370409596145425"><ele>1191.0</ele><time>2026-04-19T12:41:40Z</time></trkpt><trkpt lat="44.604296117421505" lon="9.370386916940268"><ele>1191.0</ele><time>2026-04-19T12:42:06Z</time></trkpt><trkpt lat="44.60439554929473" lon="9.37034071195817"><ele>1191.0</ele><time>2026-04-19T12:42:08Z</time></trkpt><trkpt lat="44.604493846069516" lon="9.370288766536595"><ele>1191.0</ele><time>2026-04-19T12:42:10Z</time></trkpt><trkpt lat="44.604580911124984" lon="9.370258655649714"><ele>1191.0</ele><time>2026-04-19T12:42:12Z</time></trkpt><trkpt lat="44.60466915843543" lon="9.370216295371923"><ele>1191.0</ele><time>2026-04-19T12:42:13.999Z</time></trkpt><trkpt lat="44.60475701968651" lon="9.370191261716496"><ele>1191.0</ele><time>2026-04-19T12:42:15.999Z</time></trkpt><trkpt lat="44.60487069302887" lon="9.37020185290321"><ele>1191.0</ele><time>2026-04-19T12:42:17.999Z</time></trkpt><trkpt lat="44.60497667368551" lon="9.370230451746176"><ele>1191.0</ele><time>2026-04-19T12:42:19.999Z</time></trkpt><trkpt lat="44.6051032798937" lon="9.370245452684372"><ele>1191.0</ele><time>2026-04-19T12:42:21.999Z</time></trkpt><trkpt lat="44.60516619620308" lon="9.3702637018252"><ele>1191.0</ele><time>2026-04-19T12:42:22.999Z</time></trkpt><trkpt lat="44.605238488325305" lon="9.370300930204374"><ele>1190.3999999999999</ele><time>2026-04-19T12:42:23.999Z</time></trkpt><trkpt lat="44.60535387730206" lon="9.370291298192985"><ele>1189.8</ele><time>2026-04-19T12:42:25.999Z</time></trkpt><trkpt lat="44.60542958397769" lon="9.370271493313666"><ele>1189.1999999999998</ele><time>2026-04-19T12:42:28.999Z</time></trkpt><trkpt lat="44.605516136860125" lon="9.370307350505012"><ele>1188.6</ele><time>2026-04-19T12:42:30.999Z</time></trkpt><trkpt lat="44.605628476332676" lon="9.370358421218363"><ele>1188.0</ele><time>2026-04-19T12:42:32.999Z</time></trkpt><trkpt lat="44.60571743631565" lon="9.37036744336923"><ele>1188.0</ele><time>2026-04-19T12:42:34.999Z</time></trkpt><trkpt lat="44.605830443719576" lon="9.370329407529356"><ele>1188.0</ele><time>2026-04-19T12:42:36.999Z</time></trkpt><trkpt lat="44.605883795300684" lon="9.370270785682866"><ele>1188.0</ele><time>2026-04-19T12:42:37.999Z</time></trkpt><trkpt lat="44.60595277953478" lon="9.370240876334329"><ele>1188.0</ele><time>2026-04-19T12:42:38.999Z</time></trkpt><trkpt lat="44.606012568695654" lon="9.370177203621994"><ele>1188.0</ele><time>2026-04-19T12:42:39.999Z</time></trkpt><trkpt lat="44.60608800731451" lon="9.370057406476421"><ele>1188.0</ele><time>2026-04-19T12:42:41.999Z</time></trkpt><trkpt lat="44.60619143455622" lon="9.369978222241842"><ele>1187.2</ele><time>2026-04-19T12:42:43.999Z</time></trkpt><trkpt lat="44.60628181706362" lon="9.369980350012938"><ele>1186.4</ele><time>2026-04-19T12:42:45.999Z</time></trkpt><trkpt lat="44.606356170577016" lon="9.370065740768501"><ele>1185.6000000000001</ele><time>2026-04-19T12:42:47.999Z</time></trkpt><trkpt lat="44.606403221788476" lon="9.370169002326525"><ele>1184.8</ele><time>2026-04-19T12:42:49.999Z</time></trkpt><trkpt lat="44.606479445297744" lon="9.370253822852074"><ele>1184.0</ele><time>2026-04-19T12:42:51.999Z</time></trkpt><trkpt lat="44.60658500279065" lon="9.370310831319838"><ele>1184.0</ele><time>2026-04-19T12:42:53.999Z</time></trkpt><trkpt lat="44.60667141461673" lon="9.37024395823324"><ele>1184.0</ele><time>2026-04-19T12:42:55.999Z</time></trkpt><trkpt lat="44.60678588643963" lon="9.370209406967483"><ele>1184.0</ele><time>2026-04-19T12:42:57.999Z</time></trkpt><trkpt lat="44.60685240855" lon="9.370164468042825"><ele>1184.0</ele><time>2026-04-19T12:42:58.999Z</time></trkpt><trkpt lat="44.60694243363672" lon="9.370098577657977"><ele>1184.0</ele><time>2026-04-19T12:43:00.999Z</time></trkpt><trkpt lat="44.60704065383041" lon="9.37003975256856"><ele>1183.6000000000001</ele><time>2026-04-19T12:43:02.999Z</time></trkpt><trkpt lat="44.6071385194374" lon="9.369991781049881"><ele>1183.2</ele><time>2026-04-19T12:43:04.999Z</time></trkpt><trkpt lat="44.60722662753732" lon="9.369976292925882"><ele>1182.8000000000002</ele><time>2026-04-19T12:43:08Z</time></trkpt><trkpt lat="44.60732108119534" lon="9.370011976124482"><ele>1182.4</ele><time>2026-04-19T12:43:10Z</time></trkpt><trkpt lat="44.60739089696694" lon="9.370038495292764"><ele>1182.0</ele><time>2026-04-19T12:43:11Z</time></trkpt><trkpt lat="44.607513881425945" lon="9.370000327580154"><ele>1182.0</ele><time>2026-04-19T12:43:13Z</time></trkpt><trkpt lat="44.607590184281925" lon="9.370002119774691"><ele>1182.0</ele><time>2026-04-19T12:43:14Z</time></trkpt><trkpt lat="44.60768944622087" lon="9.369917887936259"><ele>1182.0</ele><time>2026-04-19T12:43:16Z</time></trkpt><trkpt lat="44.607724343852354" lon="9.36981376683625"><ele>1182.0</ele><time>2026-04-19T12:43:17Z</time></trkpt><trkpt lat="44.60777989551317" lon="9.369728386724136"><ele>1182.0</ele><time>2026-04-19T12:43:19Z</time></trkpt><trkpt lat="44.60784179267399" lon="9.369691828706168"><ele>1182.0</ele><time>2026-04-19T12:43:21Z</time></trkpt><trkpt lat="44.607941469821185" lon="9.369703833574816"><ele>1177.75</ele><time>2026-04-19T12:43:23Z</time></trkpt><trkpt lat="44.6080762082258" lon="9.369673598118297"><ele>1173.5</ele><time>2026-04-19T12:43:25Z</time></trkpt><trkpt lat="44.60814947411285" lon="9.369567370101848"><ele>1169.25</ele><time>2026-04-19T12:43:27Z</time></trkpt><trkpt lat="44.608185010324526" lon="9.369390407444214"><ele>1165.0</ele><time>2026-04-19T12:43:29Z</time></trkpt><trkpt lat="44.60823399996495" lon="9.36923557125029"><ele>1165.0</ele><time>2026-04-19T12:43:31Z</time></trkpt><trkpt lat="44.608301059784" lon="9.369132783697825"><ele>1165.0</ele><time>2026-04-19T12:43:33Z</time></trkpt><trkpt lat="44.608387966916546" lon="9.369087498202122"><ele>1165.0</ele><time>2026-04-19T12:43:35Z</time></trkpt><trkpt lat="44.60850434155897" lon="9.36905591346161"><ele>1165.0</ele><time>2026-04-19T12:43:37Z</time></trkpt><trkpt lat="44.608605739176134" lon="9.36897972010931"><ele>1165.0</ele><time>2026-04-19T12:43:39Z</time></trkpt><trkpt lat="44.60870060330648" lon="9.368872043328613"><ele>1165.4</ele><time>2026-04-19T12:43:41Z</time></trkpt><trkpt lat="44.608732072024175" lon="9.368786425549297"><ele>1165.8</ele><time>2026-04-19T12:43:42Z</time></trkpt><trkpt lat="44.60879851178851" lon="9.368619304876624"><ele>1166.2</ele><time>2026-04-19T12:43:44Z</time></trkpt><trkpt lat="44.608854980269975" lon="9.368474796082255"><ele>1166.6</ele><time>2026-04-19T12:43:46Z</time></trkpt><trkpt lat="44.608870064955475" lon="9.368345055830671"><ele>1167.0</ele><time>2026-04-19T12:43:48Z</time></trkpt><trkpt lat="44.60890828151348" lon="9.36821973936356"><ele>1167.0</ele><time>2026-04-19T12:43:50Z</time></trkpt><trkpt lat="44.608933845315704" lon="9.36808222233911"><ele>1167.0</ele><time>2026-04-19T12:43:52Z</time></trkpt><trkpt lat="44.6089504944175" lon="9.367996216240565"><ele>1167.0</ele><time>2026-04-19T12:43:53Z</time></trkpt><trkpt lat="44.60897065840207" lon="9.36789713824241"><ele>1167.0</ele><time>2026-04-19T12:43:54Z</time></trkpt><trkpt lat="44.60898940515395" lon="9.367808489916907"><ele>1167.0</ele><time>2026-04-19T12:43:55Z</time></trkpt><trkpt lat="44.60901253304087" lon="9.367725389744313"><ele>1167.0</ele><time>2026-04-19T12:43:56Z</time></trkpt><trkpt lat="44.609071903898" lon="9.36760812521365"><ele>1162.6</ele><time>2026-04-19T12:43:58Z</time></trkpt><trkpt lat="44.609151202714116" lon="9.36755961219022"><ele>1158.2</ele><time>2026-04-19T12:44:00Z</time></trkpt><trkpt lat="44.6092111868422" lon="9.36758796209879"><ele>1153.8</ele><time>2026-04-19T12:44:02Z</time></trkpt><trkpt lat="44.60929271356348" lon="9.367685318426688"><ele>1149.4</ele><time>2026-04-19T12:44:04Z</time></trkpt><trkpt lat="44.609414715545256" lon="9.367753985516172"><ele>1145.0</ele><time>2026-04-19T12:44:06Z</time></trkpt><trkpt lat="44.60949273419574" lon="9.367839144818607"><ele>1145.6666666666667</ele><time>2026-04-19T12:44:08Z</time></trkpt><trkpt lat="44.60953934689228" lon="9.367926872039204"><ele>1146.3333333333335</ele><time>2026-04-19T12:44:09Z</time></trkpt><trkpt lat="44.609603331633544" lon="9.367977730594362"><ele>1147.0</ele><time>2026-04-19T12:44:10Z</time></trkpt><trkpt lat="44.60966681665294" lon="9.368014266785265"><ele>1147.6666666666667</ele><time>2026-04-19T12:44:11Z</time></trkpt><trkpt lat="44.60980341442013" lon="9.368050330997544"><ele>1148.3333333333333</ele><time>2026-04-19T12:44:13Z</time></trkpt><trkpt lat="44.60986524176028" lon="9.368086387628521"><ele>1149.0</ele><time>2026-04-19T12:44:14Z</time></trkpt><trkpt lat="44.60996365413624" lon="9.368164347689444"><ele>1149.0</ele><time>2026-04-19T12:44:16Z</time></trkpt><trkpt lat="44.61006324184938" lon="9.368259578116675"><ele>1149.0</ele><time>2026-04-19T12:44:17.999Z</time></trkpt><trkpt lat="44.61014140345292" lon="9.368376869215195"><ele>1149.0</ele><time>2026-04-19T12:44:19.999Z</time></trkpt><trkpt lat="44.61020016473995" lon="9.368512371236365"><ele>1149.0</ele><time>2026-04-19T12:44:21.999Z</time></trkpt><trkpt lat="44.61029344651652" lon="9.36861422041652"><ele>1147.4</ele><time>2026-04-19T12:44:23.999Z</time></trkpt><trkpt lat="44.61038597713519" lon="9.368600982126903"><ele>1145.8000000000002</ele><time>2026-04-19T12:44:25.999Z</time></trkpt><trkpt lat="44.61049935775538" lon="9.368615066630907"><ele>1144.1999999999998</ele><time>2026-04-19T12:44:27.999Z</time></trkpt><trkpt lat="44.61060370880692" lon="9.36867724706153"><ele>1142.6</ele><time>2026-04-19T12:44:29.999Z</time></trkpt><trkpt lat="44.61067736620201" lon="9.368781899561137"><ele>1141.0</ele><time>2026-04-19T12:44:31.999Z</time></trkpt><trkpt lat="44.610768883674986" lon="9.368885246765993"><ele>1141.0</ele><time>2026-04-19T12:44:33.999Z</time></trkpt><trkpt lat="44.610817503794635" lon="9.368961222877912"><ele>1141.0</ele><time>2026-04-19T12:44:34.999Z</time></trkpt><trkpt lat="44.61092655706858" lon="9.369053972995772"><ele>1141.0</ele><time>2026-04-19T12:44:36.999Z</time></trkpt><trkpt lat="44.61098785603409" lon="9.369105489988293"><ele>1141.0</ele><time>2026-04-19T12:44:37.999Z</time></trkpt><trkpt lat="44.611118215940934" lon="9.369168596358714"><ele>1141.0</ele><time>2026-04-19T12:44:39.999Z</time></trkpt><trkpt lat="44.611226528987046" lon="9.369210313313312"><ele>1138.6</ele><time>2026-04-19T12:44:41.999Z</time></trkpt><trkpt lat="44.611328394780806" lon="9.369276770307994"><ele>1136.1999999999998</ele><time>2026-04-19T12:44:43.999Z</time></trkpt><trkpt lat="44.611429820673706" lon="9.369270399475589"><ele>1133.8000000000002</ele><time>2026-04-19T12:44:45.999Z</time></trkpt><trkpt lat="44.61154099711803" lon="9.369172918711179"><ele>1131.4</ele><time>2026-04-19T12:44:47.999Z</time></trkpt><trkpt lat="44.61161963296035" lon="9.36917806066415"><ele>1129.0</ele><time>2026-04-19T12:44:48.999Z</time></trkpt><trkpt lat="44.61168470067541" lon="9.369138187784813"><ele>1129.0</ele><time>2026-04-19T12:44:49.999Z</time></trkpt><trkpt lat="44.611771188159096" lon="9.368976926852108"><ele>1129.0</ele><time>2026-04-19T12:44:51.999Z</time></trkpt><trkpt lat="44.6118294248124" lon="9.368930387475626"><ele>1129.0</ele><time>2026-04-19T12:44:52.999Z</time></trkpt><trkpt lat="44.611893826574544" lon="9.36895212368535"><ele>1129.0</ele><time>2026-04-19T12:44:53.999Z</time></trkpt><trkpt lat="44.61197925420593" lon="9.368929024749322"><ele>1129.0</ele><time>2026-04-19T12:44:55.999Z</time></trkpt><trkpt lat="44.6120987391738" lon="9.36892453986295"><ele>1131.1666666666665</ele><time>2026-04-19T12:44:57.999Z</time></trkpt><trkpt lat="44.6121705733998" lon="9.368866162843418"><ele>1133.3333333333333</ele><time>2026-04-19T12:44:58.999Z</time></trkpt><trkpt lat="44.61223087110268" lon="9.368811191690169"><ele>1135.5</ele><time>2026-04-19T12:44:59.999Z</time></trkpt><trkpt lat="44.61229281103325" lon="9.368754723308335"><ele>1137.6666666666667</ele><time>2026-04-19T12:45:00.999Z</time></trkpt><trkpt lat="44.612357248453264" lon="9.368694941350187"><ele>1139.8333333333335</ele><time>2026-04-19T12:45:01.999Z</time></trkpt><trkpt lat="44.612401761605156" lon="9.36862444762481"><ele>1142.0</ele><time>2026-04-19T12:45:02.999Z</time></trkpt><trkpt lat="44.61247507842126" lon="9.36858105618327"><ele>1136.6666666666667</ele><time>2026-04-19T12:45:03.999Z</time></trkpt><trkpt lat="44.612512479059845" lon="9.368504961444764"><ele>1131.3333333333335</ele><time>2026-04-19T12:45:04.999Z</time></trkpt><trkpt lat="44.612590829274794" lon="9.368416681937699"><ele>1126.0</ele><time>2026-04-19T12:45:06.999Z</time></trkpt><trkpt lat="44.61268164117876" lon="9.36840764434126"><ele>1120.6666666666667</ele><time>2026-04-19T12:45:10.999Z</time></trkpt><trkpt lat="44.61276243730839" lon="9.368470804743785"><ele>1115.3333333333333</ele><time>2026-04-19T12:45:13Z</time></trkpt><trkpt lat="44.612826372376176" lon="9.368524268783931"><ele>1110.0</ele><time>2026-04-19T12:45:14Z</time></trkpt><trkpt lat="44.61289601221636" lon="9.368543454829563"><ele>1109.2</ele><time>2026-04-19T12:45:15Z</time></trkpt><trkpt lat="44.61302287755231" lon="9.368573410752596"><ele>1108.4</ele><time>2026-04-19T12:45:17Z</time></trkpt><trkpt lat="44.613085195809006" lon="9.368602346973695"><ele>1107.6</ele><time>2026-04-19T12:45:18Z</time></trkpt><trkpt lat="44.61319710048859" lon="9.368668230929423"><ele>1106.8</ele><time>2026-04-19T12:45:20Z</time></trkpt><trkpt lat="44.61330380403916" lon="9.368734277235257"><ele>1106.0</ele><time>2026-04-19T12:45:22Z</time></trkpt><trkpt lat="44.61339048173341" lon="9.368747437192388"><ele>1106.0</ele><time>2026-04-19T12:45:23Z</time></trkpt><trkpt lat="44.61351680263999" lon="9.368719922061587"><ele>1106.0</ele><time>2026-04-19T12:45:25Z</time></trkpt><trkpt lat="44.61364315831401" lon="9.368681977154617"><ele>1106.0</ele><time>2026-04-19T12:45:27Z</time></trkpt><trkpt lat="44.61371675652388" lon="9.368650161240021"><ele>1106.0</ele><time>2026-04-19T12:45:28Z</time></trkpt><trkpt lat="44.61379206494944" lon="9.368599555562403"><ele>1106.0</ele><time>2026-04-19T12:45:29Z</time></trkpt><trkpt lat="44.613857056149364" lon="9.368532933625808"><ele>1106.3999999999999</ele><time>2026-04-19T12:45:30Z</time></trkpt><trkpt lat="44.61392214217968" lon="9.368402315378145"><ele>1106.8</ele><time>2026-04-19T12:45:32Z</time></trkpt><trkpt lat="44.613974807685395" lon="9.368251332939835"><ele>1107.1999999999998</ele><time>2026-04-19T12:45:34Z</time></trkpt><trkpt lat="44.61401685512379" lon="9.36809866938668"><ele>1107.6</ele><time>2026-04-19T12:45:36Z</time></trkpt><trkpt lat="44.614060170271905" lon="9.36802734561917"><ele>1108.0</ele><time>2026-04-19T12:45:37Z</time></trkpt><trkpt lat="44.614111435886315" lon="9.367958741070966"><ele>1105.3333333333333</ele><time>2026-04-19T12:45:38Z</time></trkpt><trkpt lat="44.61415843289617" lon="9.367881639296424"><ele>1102.6666666666665</ele><time>2026-04-19T12:45:39Z</time></trkpt><trkpt lat="44.61421304082338" lon="9.36780064068724"><ele>1100.0</ele><time>2026-04-19T12:45:40Z</time></trkpt><trkpt lat="44.614272297914304" lon="9.367728213102602"><ele>1097.3333333333333</ele><time>2026-04-19T12:45:41Z</time></trkpt><trkpt lat="44.6143461611998" lon="9.367619854750155"><ele>1094.6666666666667</ele><time>2026-04-19T12:45:43Z</time></trkpt><trkpt lat="44.614387013771214" lon="9.367538844335215"><ele>1092.0</ele><time>2026-04-19T12:45:44Z</time></trkpt><trkpt lat="44.61445670445105" lon="9.367398581502687"><ele>1090.8</ele><time>2026-04-19T12:45:46Z</time></trkpt><trkpt lat="44.614528895547046" lon="9.367297027045284"><ele>1089.6</ele><time>2026-04-19T12:45:48Z</time></trkpt><trkpt lat="44.61463438778611" lon="9.367245058803064"><ele>1088.3999999999999</ele><time>2026-04-19T12:45:50Z</time></trkpt><trkpt lat="44.61473682178947" lon="9.36722376477859"><ele>1087.2</ele><time>2026-04-19T12:45:51Z</time></trkpt><trkpt lat="44.614836851527826" lon="9.367151603981052"><ele>1086.0</ele><time>2026-04-19T12:45:53Z</time></trkpt><trkpt lat="44.61491322943255" lon="9.367021447371174"><ele>1086.0</ele><time>2026-04-19T12:45:55Z</time></trkpt><trkpt lat="44.61495281435258" lon="9.366948321688822"><ele>1086.0</ele><time>2026-04-19T12:45:56Z</time></trkpt><trkpt lat="44.61501703338344" lon="9.366911353262468"><ele>1086.0</ele><time>2026-04-19T12:45:58Z</time></trkpt><trkpt lat="44.61511300317069" lon="9.366974196606536"><ele>1086.0</ele><time>2026-04-19T12:46:00Z</time></trkpt><trkpt lat="44.615228518142246" lon="9.366997251683967"><ele>1086.0</ele><time>2026-04-19T12:46:02Z</time></trkpt><trkpt lat="44.61530877895594" lon="9.366884736326584"><ele>1086.8</ele><time>2026-04-19T12:46:04Z</time></trkpt><trkpt lat="44.61539131507084" lon="9.366786549707925"><ele>1087.6</ele><time>2026-04-19T12:46:06Z</time></trkpt><trkpt lat="44.61548113004403" lon="9.366729874514823"><ele>1088.4</ele><time>2026-04-19T12:46:08Z</time></trkpt><trkpt lat="44.6155820264444" lon="9.366659154434915"><ele>1089.2</ele><time>2026-04-19T12:46:10Z</time></trkpt><trkpt lat="44.6156926466054" lon="9.366597426609527"><ele>1090.0</ele><time>2026-04-19T12:46:12Z</time></trkpt><trkpt lat="44.615790903556494" lon="9.366566781707487"><ele>1090.0</ele><time>2026-04-19T12:46:14Z</time></trkpt><trkpt lat="44.61589915030002" lon="9.366616415212107"><ele>1090.0</ele><time>2026-04-19T12:46:16Z</time></trkpt><trkpt lat="44.61595011345597" lon="9.366684023436996"><ele>1090.0</ele><time>2026-04-19T12:46:17Z</time></trkpt><trkpt lat="44.61605002324058" lon="9.366714143911613"><ele>1090.0</ele><time>2026-04-19T12:46:19Z</time></trkpt><trkpt lat="44.61617851798214" lon="9.366664292368966"><ele>1090.0</ele><time>2026-04-19T12:46:21Z</time></trkpt><trkpt lat="44.61624529254172" lon="9.366607226664364"><ele>1091.3333333333333</ele><time>2026-04-19T12:46:22Z</time></trkpt><trkpt lat="44.616351377236285" lon="9.366566101011912"><ele>1092.6666666666665</ele><time>2026-04-19T12:46:23Z</time></trkpt><trkpt lat="44.61642417781039" lon="9.366516342743033"><ele>1094.0</ele><time>2026-04-19T12:46:24Z</time></trkpt><trkpt lat="44.61648142016505" lon="9.366468834931466"><ele>1095.3333333333333</ele><time>2026-04-19T12:46:25Z</time></trkpt><trkpt lat="44.616569840719755" lon="9.366381227607485"><ele>1096.6666666666667</ele><time>2026-04-19T12:46:26.999Z</time></trkpt><trkpt lat="44.616634372892605" lon="9.366352150223186"><ele>1098.0</ele><time>2026-04-19T12:46:27.999Z</time></trkpt><trkpt lat="44.616696088436555" lon="9.36629125304176"><ele>1093.4</ele><time>2026-04-19T12:46:28.999Z</time></trkpt><trkpt lat="44.616749904044134" lon="9.366138978119448"><ele>1088.8</ele><time>2026-04-19T12:46:30.999Z</time></trkpt><trkpt lat="44.616780502930894" lon="9.36602372842933"><ele>1084.2</ele><time>2026-04-19T12:46:31.999Z</time></trkpt><trkpt lat="44.616803722102716" lon="9.365927526016787"><ele>1079.6</ele><time>2026-04-19T12:46:32.999Z</time></trkpt><trkpt lat="44.616827270043075" lon="9.365845123935141"><ele>1075.0</ele><time>2026-04-19T12:46:33.999Z</time></trkpt><trkpt lat="44.6168923052852" lon="9.365696876309729"><ele>1075.0</ele><time>2026-04-19T12:46:35.999Z</time></trkpt><trkpt lat="44.61694889011669" lon="9.365563881833584"><ele>1075.0</ele><time>2026-04-19T12:46:37.999Z</time></trkpt><trkpt lat="44.61701163302167" lon="9.365487104339042"><ele>1075.0</ele><time>2026-04-19T12:46:39.999Z</time></trkpt><trkpt lat="44.61714073552288" lon="9.365445153177953"><ele>1075.0</ele><time>2026-04-19T12:46:41.999Z</time></trkpt><trkpt lat="44.61720982456115" lon="9.365437337234983"><ele>1075.0</ele><time>2026-04-19T12:46:42.999Z</time></trkpt><trkpt lat="44.61727368065375" lon="9.365499190993578"><ele>1074.1666666666665</ele><time>2026-04-19T12:46:43.999Z</time></trkpt><trkpt lat="44.617339021666545" lon="9.365446395218804"><ele>1073.3333333333333</ele><time>2026-04-19T12:46:44.999Z</time></trkpt><trkpt lat="44.617474085082556" lon="9.3654488137149"><ele>1072.5</ele><time>2026-04-19T12:46:46.999Z</time></trkpt><trkpt lat="44.61754154439432" lon="9.365449382791407"><ele>1071.6666666666667</ele><time>2026-04-19T12:46:47.999Z</time></trkpt><trkpt lat="44.617612142740526" lon="9.365451676972707"><ele>1070.8333333333335</ele><time>2026-04-19T12:46:48.999Z</time></trkpt><trkpt lat="44.61767724217925" lon="9.365424351978854"><ele>1070.0</ele><time>2026-04-19T12:46:49.999Z</time></trkpt><trkpt lat="44.617750535371826" lon="9.36539723401747"><ele>1070.0</ele><time>2026-04-19T12:46:50.999Z</time></trkpt><trkpt lat="44.61781821338397" lon="9.365343591558744"><ele>1070.0</ele><time>2026-04-19T12:46:51.999Z</time></trkpt><trkpt lat="44.61790706258409" lon="9.365284816265685"><ele>1070.0</ele><time>2026-04-19T12:46:52.999Z</time></trkpt><trkpt lat="44.61798088210302" lon="9.365216940373635"><ele>1070.0</ele><time>2026-04-19T12:46:53.999Z</time></trkpt><trkpt lat="44.61803539209604" lon="9.36514525678056"><ele>1070.0</ele><time>2026-04-19T12:46:54.999Z</time></trkpt><trkpt lat="44.618110802986465" lon="9.365045263153593"><ele>1070.0</ele><time>2026-04-19T12:46:56.999Z</time></trkpt><trkpt lat="44.618184638583074" lon="9.364919295348734"><ele>1069.4</ele><time>2026-04-19T12:46:58.999Z</time></trkpt><trkpt lat="44.61825208683956" lon="9.364794614167213"><ele>1068.8</ele><time>2026-04-19T12:47:00.999Z</time></trkpt><trkpt lat="44.61829770621199" lon="9.364629320298924"><ele>1068.2</ele><time>2026-04-19T12:47:02.999Z</time></trkpt><trkpt lat="44.61832332082589" lon="9.364510838652157"><ele>1067.6</ele><time>2026-04-19T12:47:03.999Z</time></trkpt><trkpt lat="44.61835412946369" lon="9.364426714631543"><ele>1067.0</ele><time>2026-04-19T12:47:04.999Z</time></trkpt><trkpt lat="44.61836857152517" lon="9.364338552752326"><ele>1067.0</ele><time>2026-04-19T12:47:05.999Z</time></trkpt><trkpt lat="44.61842291488524" lon="9.364266414693653"><ele>1067.0</ele><time>2026-04-19T12:47:06.999Z</time></trkpt><trkpt lat="44.61844883294816" lon="9.364160674947923"><ele>1067.0</ele><time>2026-04-19T12:47:07.999Z</time></trkpt><trkpt lat="44.61847668301511" lon="9.364067096683524"><ele>1067.0</ele><time>2026-04-19T12:47:08.999Z</time></trkpt><trkpt lat="44.61850305055745" lon="9.363980367411587"><ele>1067.0</ele><time>2026-04-19T12:47:09.999Z</time></trkpt><trkpt lat="44.618528549880594" lon="9.363864286606177"><ele>1067.0</ele><time>2026-04-19T12:47:11.999Z</time></trkpt><trkpt lat="44.618491268520636" lon="9.363772759294433"><ele>1066.9999999999998</ele><time>2026-04-19T12:47:26Z</time></trkpt><trkpt lat="44.61842731827542" lon="9.363770492872073"><ele>1067.0</ele><time>2026-04-19T12:47:28Z</time></trkpt><trkpt lat="44.61835052591201" lon="9.363777870587331"><ele>1067.0</ele><time>2026-04-19T12:47:31Z</time></trkpt><trkpt lat="44.61842166447685" lon="9.363869909539874"><ele>1067.0</ele><time>2026-04-19T12:47:56Z</time></trkpt><trkpt lat="44.61836559786975" lon="9.36382838457726"><ele>1067.0</ele><time>2026-04-19T12:50:38.999Z</time></trkpt><trkpt lat="44.61843043979387" lon="9.363857745514007"><ele>1066.9999999999998</ele><time>2026-04-19T12:51:24.999Z</time></trkpt><trkpt lat="44.618364264741054" lon="9.363835596984256"><ele>1067.0</ele><time>2026-04-19T12:51:58.999Z</time></trkpt><trkpt lat="44.6183691436473" lon="9.36392953786412"><ele>1066.9999999999998</ele><time>2026-04-19T12:58:09Z</time></trkpt><trkpt lat="44.618372666834276" lon="9.364021980449467"><ele>1067.0</ele><time>2026-04-19T12:58:13Z</time></trkpt><trkpt lat="44.61838801551905" lon="9.364109557704527"><ele>1067.0</ele><time>2026-04-19T12:58:20Z</time></trkpt><trkpt lat="44.618415624156825" lon="9.364206911407052"><ele>1067.0</ele><time>2026-04-19T12:58:25Z</time></trkpt><trkpt lat="44.6184026966479" lon="9.364116999863546"><ele>1067.0</ele><time>2026-04-19T12:59:18Z</time></trkpt><trkpt lat="44.61836952765286" lon="9.364040830595986"><ele>1066.9999999999998</ele><time>2026-04-19T12:59:25Z</time></trkpt><trkpt lat="44.61835740766044" lon="9.363942042303393"><ele>1067.0</ele><time>2026-04-19T12:59:31Z</time></trkpt><trkpt lat="44.61835280758442" lon="9.363847233565592"><ele>1066.9999999999998</ele><time>2026-04-19T12:59:37.999Z</time></trkpt><trkpt lat="44.61832041229362" lon="9.363765521620703"><ele>1067.0</ele><time>2026-04-19T13:01:35.999Z</time></trkpt><trkpt lat="44.61826590739109" lon="9.363853996209368"><ele>1067.0</ele><time>2026-04-19T13:17:37Z</time></trkpt><trkpt lat="44.61827284406482" lon="9.363945208264198"><ele>1067.0</ele><time>2026-04-19T13:17:39Z</time></trkpt><trkpt lat="44.61830461736575" lon="9.364031757470682"><ele>1067.0</ele><time>2026-04-19T13:17:41Z</time></trkpt><trkpt lat="44.618347837402254" lon="9.364099904304252"><ele>1066.9999999999998</ele><time>2026-04-19T13:17:43Z</time></trkpt><trkpt lat="44.618412170162415" lon="9.364108400038573"><ele>1067.0</ele><time>2026-04-19T13:17:45Z</time></trkpt><trkpt lat="44.61846961262264" lon="9.364046862422935"><ele>1067.0</ele><time>2026-04-19T13:17:47Z</time></trkpt><trkpt lat="44.618505770826886" lon="9.36392158430134"><ele>1067.0</ele><time>2026-04-19T13:17:49Z</time></trkpt><trkpt lat="44.61851803738821" lon="9.363833719140404"><ele>1067.0</ele><time>2026-04-19T13:17:50Z</time></trkpt><trkpt lat="44.6185087839975" lon="9.363713142432069"><ele>1067.0</ele><time>2026-04-19T13:18:02Z</time></trkpt><trkpt lat="44.61839003629701" lon="9.363651485107349"><ele>1067.0</ele><time>2026-04-19T13:18:04Z</time></trkpt><trkpt lat="44.618286915403054" lon="9.363628264976668"><ele>1064.2</ele><time>2026-04-19T13:18:05Z</time></trkpt><trkpt lat="44.61819138257316" lon="9.363596147357976"><ele>1061.4</ele><time>2026-04-19T13:18:06Z</time></trkpt><trkpt lat="44.618103361515104" lon="9.363573294783093"><ele>1058.6</ele><time>2026-04-19T13:18:07Z</time></trkpt><trkpt lat="44.61801831250032" lon="9.363580122953667"><ele>1055.8</ele><time>2026-04-19T13:18:08Z</time></trkpt><trkpt lat="44.61793490456797" lon="9.363614670489364"><ele>1053.0</ele><time>2026-04-19T13:18:09Z</time></trkpt><trkpt lat="44.61787801478137" lon="9.363723193656549"><ele>1052.9999999999998</ele><time>2026-04-19T13:18:10Z</time></trkpt><trkpt lat="44.61786375138805" lon="9.363842371847316"><ele>1053.0</ele><time>2026-04-19T13:18:11Z</time></trkpt><trkpt lat="44.6178747094542" lon="9.363939481369778"><ele>1053.0</ele><time>2026-04-19T13:18:12Z</time></trkpt><trkpt lat="44.61789057973769" lon="9.364025147730544"><ele>1053.0</ele><time>2026-04-19T13:18:15Z</time></trkpt><trkpt lat="44.61791912990553" lon="9.364148113084573"><ele>1053.0</ele><time>2026-04-19T13:18:27Z</time></trkpt><trkpt lat="44.61792455096583" lon="9.364245853179883"><ele>1052.9999999999998</ele><time>2026-04-19T13:18:28Z</time></trkpt><trkpt lat="44.61789916942529" lon="9.3643293020569"><ele>1053.0</ele><time>2026-04-19T13:18:29Z</time></trkpt><trkpt lat="44.61777827703889" lon="9.36441035915549"><ele>1053.5</ele><time>2026-04-19T13:18:31Z</time></trkpt><trkpt lat="44.61770376908312" lon="9.364374531426508"><ele>1054.0</ele><time>2026-04-19T13:18:32Z</time></trkpt><trkpt lat="44.61765415235677" lon="9.364288918398877"><ele>1054.5</ele><time>2026-04-19T13:18:33Z</time></trkpt><trkpt lat="44.61762774775578" lon="9.364164721170269"><ele>1055.0</ele><time>2026-04-19T13:18:34Z</time></trkpt><trkpt lat="44.61763735493426" lon="9.364030464627758"><ele>1055.5</ele><time>2026-04-19T13:18:35Z</time></trkpt><trkpt lat="44.61767920335927" lon="9.363897035821688"><ele>1056.0</ele><time>2026-04-19T13:18:36Z</time></trkpt><trkpt lat="44.61772927584434" lon="9.36375355874296"><ele>1055.3999999999999</ele><time>2026-04-19T13:18:37Z</time></trkpt><trkpt lat="44.61778236986001" lon="9.363621486729704"><ele>1054.8</ele><time>2026-04-19T13:18:38Z</time></trkpt><trkpt lat="44.61783823246758" lon="9.363506371796358"><ele>1054.1999999999998</ele><time>2026-04-19T13:18:39Z</time></trkpt><trkpt lat="44.61790038470041" lon="9.363404449502683"><ele>1053.6</ele><time>2026-04-19T13:18:40Z</time></trkpt><trkpt lat="44.61796853726965" lon="9.36331983759189"><ele>1053.0</ele><time>2026-04-19T13:18:41Z</time></trkpt><trkpt lat="44.61804158568508" lon="9.363250558230199"><ele>1053.0</ele><time>2026-04-19T13:18:42Z</time></trkpt><trkpt lat="44.618118086036795" lon="9.363195944858532"><ele>1053.0</ele><time>2026-04-19T13:18:43Z</time></trkpt><trkpt lat="44.61820272548566" lon="9.36315355351564"><ele>1053.0</ele><time>2026-04-19T13:18:44Z</time></trkpt><trkpt lat="44.61829383176654" lon="9.363107138417488"><ele>1053.0</ele><time>2026-04-19T13:18:45Z</time></trkpt><trkpt lat="44.61838851580672" lon="9.36305937555128"><ele>1053.0</ele><time>2026-04-19T13:18:46Z</time></trkpt><trkpt lat="44.61848077652576" lon="9.363011477146129"><ele>1052.4</ele><time>2026-04-19T13:18:47Z</time></trkpt><trkpt lat="44.6185595848038" lon="9.36295864375311"><ele>1051.8</ele><time>2026-04-19T13:18:48Z</time></trkpt><trkpt lat="44.61864033239195" lon="9.362898562656094"><ele>1051.2</ele><time>2026-04-19T13:18:49Z</time></trkpt><trkpt lat="44.61869449142223" lon="9.362790588560344"><ele>1050.6</ele><time>2026-04-19T13:18:50Z</time></trkpt><trkpt lat="44.618702440319815" lon="9.362665750039746"><ele>1050.0</ele><time>2026-04-19T13:18:51Z</time></trkpt><trkpt lat="44.618726194542255" lon="9.362535897938178"><ele>1050.0</ele><time>2026-04-19T13:18:52Z</time></trkpt><trkpt lat="44.618757067091074" lon="9.362358884889794"><ele>1050.0</ele><time>2026-04-19T13:18:53Z</time></trkpt><trkpt lat="44.61878957066034" lon="9.36216745104448"><ele>1050.0</ele><time>2026-04-19T13:18:54Z</time></trkpt><trkpt lat="44.61882626160357" lon="9.361958660850854"><ele>1050.0</ele><time>2026-04-19T13:18:55Z</time></trkpt><trkpt lat="44.61885498681574" lon="9.361780932696455"><ele>1048.75</ele><time>2026-04-19T13:18:56Z</time></trkpt><trkpt lat="44.6188914192882" lon="9.361618656288739"><ele>1047.5</ele><time>2026-04-19T13:18:57Z</time></trkpt><trkpt lat="44.61890554047285" lon="9.361453000817137"><ele>1046.25</ele><time>2026-04-19T13:18:58Z</time></trkpt><trkpt lat="44.61891687423872" lon="9.361289610919748"><ele>1045.0</ele><time>2026-04-19T13:18:59Z</time></trkpt><trkpt lat="44.61892664313562" lon="9.361010910061415"><ele>1043.75</ele><time>2026-04-19T13:19:00Z</time></trkpt><trkpt lat="44.618944436622066" lon="9.360784101333024"><ele>1042.5</ele><time>2026-04-19T13:19:01Z</time></trkpt><trkpt lat="44.6189597664544" lon="9.36058408752058"><ele>1041.25</ele><time>2026-04-19T13:19:02Z</time></trkpt><trkpt lat="44.61897378139319" lon="9.360409813654657"><ele>1040.0</ele><time>2026-04-19T13:19:03Z</time></trkpt><trkpt lat="44.61902193767889" lon="9.36025661066567"><ele>1037.5</ele><time>2026-04-19T13:19:04Z</time></trkpt><trkpt lat="44.61907788949435" lon="9.360123211680046"><ele>1035.0</ele><time>2026-04-19T13:19:05Z</time></trkpt><trkpt lat="44.61914669000748" lon="9.35997702647983"><ele>1032.5</ele><time>2026-04-19T13:19:06Z</time></trkpt><trkpt lat="44.619216386192235" lon="9.359814808682115"><ele>1030.0</ele><time>2026-04-19T13:19:07Z</time></trkpt><trkpt lat="44.619287410184796" lon="9.359627334052876"><ele>1029.75</ele><time>2026-04-19T13:19:08Z</time></trkpt><trkpt lat="44.619362202283824" lon="9.359459635781338"><ele>1029.5</ele><time>2026-04-19T13:19:09Z</time></trkpt><trkpt lat="44.61942953946183" lon="9.359313191397332"><ele>1029.25</ele><time>2026-04-19T13:19:10Z</time></trkpt><trkpt lat="44.61949632993172" lon="9.359180653281571"><ele>1029.0</ele><time>2026-04-19T13:19:11Z</time></trkpt><trkpt lat="44.619580147133426" lon="9.359062569395645"><ele>1029.0</ele><time>2026-04-19T13:19:12Z</time></trkpt><trkpt lat="44.619655303761625" lon="9.358928041997467"><ele>1029.0</ele><time>2026-04-19T13:19:13Z</time></trkpt><trkpt lat="44.619744180647736" lon="9.358806607230083"><ele>1029.0</ele><time>2026-04-19T13:19:14Z</time></trkpt><trkpt lat="44.61983426254743" lon="9.358683009374955"><ele>1029.0</ele><time>2026-04-19T13:19:15Z</time></trkpt><trkpt lat="44.619921642520296" lon="9.358561477070117"><ele>1026.25</ele><time>2026-04-19T13:19:16Z</time></trkpt><trkpt lat="44.62001802409095" lon="9.358427129389781"><ele>1023.5</ele><time>2026-04-19T13:19:17Z</time></trkpt><trkpt lat="44.620100161535056" lon="9.358312128996749"><ele>1020.75</ele><time>2026-04-19T13:19:18Z</time></trkpt><trkpt lat="44.620172510620854" lon="9.358211631942273"><ele>1018.0</ele><time>2026-04-19T13:19:19Z</time></trkpt><trkpt lat="44.62023777266073" lon="9.358093442548407"><ele>1017.6666666666666</ele><time>2026-04-19T13:19:20Z</time></trkpt><trkpt lat="44.62029231184301" lon="9.35794743582933"><ele>1017.3333333333333</ele><time>2026-04-19T13:19:21Z</time></trkpt><trkpt lat="44.62031324978038" lon="9.357826670641021"><ele>1017.0</ele><time>2026-04-19T13:19:22Z</time></trkpt><trkpt lat="44.620312460729565" lon="9.357727984655357"><ele>1016.6666666666667</ele><time>2026-04-19T13:19:23Z</time></trkpt><trkpt lat="44.62028375757897" lon="9.35764293372501"><ele>1016.3333333333334</ele><time>2026-04-19T13:19:24Z</time></trkpt><trkpt lat="44.620226260612434" lon="9.357602117673961"><ele>1016.0</ele><time>2026-04-19T13:19:25Z</time></trkpt><trkpt lat="44.620160754344674" lon="9.357573307356272"><ele>1016.0</ele><time>2026-04-19T13:19:26Z</time></trkpt><trkpt lat="44.62007745476458" lon="9.357602846143756"><ele>1015.9999999999999</ele><time>2026-04-19T13:19:27Z</time></trkpt><trkpt lat="44.62000675012195" lon="9.357720358355822"><ele>1015.9999999999999</ele><time>2026-04-19T13:19:28Z</time></trkpt><trkpt lat="44.6199734793647" lon="9.35787879237375"><ele>1016.0</ele><time>2026-04-19T13:19:29Z</time></trkpt><trkpt lat="44.61992344274493" lon="9.35801200147635"><ele>1016.0</ele><time>2026-04-19T13:19:30Z</time></trkpt><trkpt lat="44.619850738016005" lon="9.358132933534879"><ele>1016.5</ele><time>2026-04-19T13:19:31Z</time></trkpt><trkpt lat="44.61975421208543" lon="9.35822079196441"><ele>1017.0</ele><time>2026-04-19T13:19:32Z</time></trkpt><trkpt lat="44.619646792519056" lon="9.358308699852595"><ele>1017.5</ele><time>2026-04-19T13:19:33Z</time></trkpt><trkpt lat="44.61953126543715" lon="9.358402295772247"><ele>1018.0</ele><time>2026-04-19T13:19:34Z</time></trkpt><trkpt lat="44.619421684646106" lon="9.35849516516837"><ele>1016.5</ele><time>2026-04-19T13:19:35Z</time></trkpt><trkpt lat="44.61932651210472" lon="9.358587600658936"><ele>1015.0</ele><time>2026-04-19T13:19:36Z</time></trkpt><trkpt lat="44.61923989267174" lon="9.358698373176617"><ele>1013.5</ele><time>2026-04-19T13:19:37Z</time></trkpt><trkpt lat="44.61918638684078" lon="9.358836704723982"><ele>1012.0</ele><time>2026-04-19T13:19:38Z</time></trkpt><trkpt lat="44.619096862532835" lon="9.358936311909723"><ele>1012.0</ele><time>2026-04-19T13:19:39Z</time></trkpt><trkpt lat="44.6190012154805" lon="9.359013767994394"><ele>1012.0</ele><time>2026-04-19T13:19:40Z</time></trkpt><trkpt lat="44.618890795211776" lon="9.359079342615543"><ele>1012.0</ele><time>2026-04-19T13:19:41Z</time></trkpt><trkpt lat="44.61879993162276" lon="9.359155472096086"><ele>1012.0</ele><time>2026-04-19T13:19:42Z</time></trkpt><trkpt lat="44.61873870810759" lon="9.359276838911402"><ele>1012.0</ele><time>2026-04-19T13:19:43Z</time></trkpt><trkpt lat="44.61866611078208" lon="9.359396482485241"><ele>1010.4000000000001</ele><time>2026-04-19T13:19:44Z</time></trkpt><trkpt lat="44.61859166984331" lon="9.359530189225902"><ele>1008.8000000000001</ele><time>2026-04-19T13:19:45Z</time></trkpt><trkpt lat="44.61851738891359" lon="9.359643805899484"><ele>1007.2</ele><time>2026-04-19T13:19:46Z</time></trkpt><trkpt lat="44.618431588674405" lon="9.359717057323035"><ele>1005.6</ele><time>2026-04-19T13:19:47Z</time></trkpt><trkpt lat="44.61833361965379" lon="9.359766587066968"><ele>1004.0</ele><time>2026-04-19T13:19:48Z</time></trkpt><trkpt lat="44.618220158545654" lon="9.35981656853261"><ele>1004.0</ele><time>2026-04-19T13:19:49Z</time></trkpt><trkpt lat="44.61810924249934" lon="9.35986310742836"><ele>1004.0000000000001</ele><time>2026-04-19T13:19:50Z</time></trkpt><trkpt lat="44.618003082923444" lon="9.359929918670213"><ele>1004.0000000000001</ele><time>2026-04-19T13:19:51Z</time></trkpt><trkpt lat="44.61790887697234" lon="9.359959639381689"><ele>1004.0</ele><time>2026-04-19T13:19:52Z</time></trkpt><trkpt lat="44.61780914357666" lon="9.359973741950316"><ele>1004.0</ele><time>2026-04-19T13:19:53Z</time></trkpt><trkpt lat="44.617728025867734" lon="9.359933823961205"><ele>1002.0000000000001</ele><time>2026-04-19T13:19:54Z</time></trkpt><trkpt lat="44.617671049695865" lon="9.3598416627835"><ele>1000.0</ele><time>2026-04-19T13:19:55Z</time></trkpt><trkpt lat="44.61759721247119" lon="9.359790936151134"><ele>998.0</ele><time>2026-04-19T13:19:56Z</time></trkpt><trkpt lat="44.617530099717435" lon="9.35974340663087"><ele>996.0</ele><time>2026-04-19T13:19:57Z</time></trkpt><trkpt lat="44.61744930869002" lon="9.359744609347448"><ele>994.0000000000001</ele><time>2026-04-19T13:19:58Z</time></trkpt><trkpt lat="44.61737827447707" lon="9.359802657863575"><ele>992.0</ele><time>2026-04-19T13:19:59Z</time></trkpt><trkpt lat="44.61728992515701" lon="9.359901316826639"><ele>992.0</ele><time>2026-04-19T13:20:00Z</time></trkpt><trkpt lat="44.617176464345874" lon="9.360000284858877"><ele>992.0</ele><time>2026-04-19T13:20:01Z</time></trkpt><trkpt lat="44.617063712768335" lon="9.360113978161873"><ele>992.0</ele><time>2026-04-19T13:20:02Z</time></trkpt><trkpt lat="44.61696201636576" lon="9.360204234082087"><ele>992.0</ele><time>2026-04-19T13:20:03Z</time></trkpt><trkpt lat="44.61685770033232" lon="9.36025187163259"><ele>987.75</ele><time>2026-04-19T13:20:04Z</time></trkpt><trkpt lat="44.616734014579" lon="9.36027266272256"><ele>983.5</ele><time>2026-04-19T13:20:05Z</time></trkpt><trkpt lat="44.61659610665273" lon="9.36028091751299"><ele>979.25</ele><time>2026-04-19T13:20:06Z</time></trkpt><trkpt lat="44.616469231671005" lon="9.360287145135105"><ele>975.0</ele><time>2026-04-19T13:20:07Z</time></trkpt><trkpt lat="44.61634596730644" lon="9.360303757670446"><ele>975.0</ele><time>2026-04-19T13:20:08Z</time></trkpt><trkpt lat="44.61622924163076" lon="9.360314792896054"><ele>975.0</ele><time>2026-04-19T13:20:09Z</time></trkpt><trkpt lat="44.616114152358335" lon="9.3603208642108"><ele>975.0</ele><time>2026-04-19T13:20:10Z</time></trkpt><trkpt lat="44.61602209796335" lon="9.36033125706974"><ele>975.0</ele><time>2026-04-19T13:20:11Z</time></trkpt><trkpt lat="44.61592846412874" lon="9.360348005481754"><ele>975.0</ele><time>2026-04-19T13:20:12Z</time></trkpt><trkpt lat="44.6158385770556" lon="9.360373266063707"><ele>976.0</ele><time>2026-04-19T13:20:13Z</time></trkpt><trkpt lat="44.615763073088566" lon="9.360481530197651"><ele>977.0</ele><time>2026-04-19T13:20:14Z</time></trkpt><trkpt lat="44.6157017886423" lon="9.360630636036666"><ele>978.0</ele><time>2026-04-19T13:20:15Z</time></trkpt><trkpt lat="44.61563065145909" lon="9.360764525058993"><ele>979.0</ele><time>2026-04-19T13:20:16Z</time></trkpt><trkpt lat="44.615536793763965" lon="9.360859074896814"><ele>979.0</ele><time>2026-04-19T13:20:17Z</time></trkpt><trkpt lat="44.615424088186664" lon="9.36095054461986"><ele>979.0</ele><time>2026-04-19T13:20:18Z</time></trkpt><trkpt lat="44.61531989339723" lon="9.361031052979909"><ele>979.0</ele><time>2026-04-19T13:20:19Z</time></trkpt><trkpt lat="44.615217525023" lon="9.361106672763446"><ele>979.0</ele><time>2026-04-19T13:20:20Z</time></trkpt><trkpt lat="44.61513477219747" lon="9.361159195218312"><ele>976.6</ele><time>2026-04-19T13:20:21Z</time></trkpt><trkpt lat="44.61504144204582" lon="9.361183659891037"><ele>974.2</ele><time>2026-04-19T13:20:22Z</time></trkpt><trkpt lat="44.61495003432011" lon="9.361138899472115"><ele>971.8000000000001</ele><time>2026-04-19T13:20:23Z</time></trkpt><trkpt lat="44.61487209531455" lon="9.361019376738216"><ele>969.4000000000001</ele><time>2026-04-19T13:20:24Z</time></trkpt><trkpt lat="44.61478926004169" lon="9.36090084800069"><ele>967.0</ele><time>2026-04-19T13:20:25Z</time></trkpt><trkpt lat="44.61468455550384" lon="9.360783124968117"><ele>967.0</ele><time>2026-04-19T13:20:26Z</time></trkpt><trkpt lat="44.614582365513286" lon="9.360649359270319"><ele>967.0</ele><time>2026-04-19T13:20:27Z</time></trkpt><trkpt lat="44.61447686769839" lon="9.36051533371343"><ele>967.0</ele><time>2026-04-19T13:20:28Z</time></trkpt><trkpt lat="44.61437096552174" lon="9.360386718842264"><ele>967.0</ele><time>2026-04-19T13:20:29Z</time></trkpt><trkpt lat="44.61427892117334" lon="9.360273801073829"><ele>964.75</ele><time>2026-04-19T13:20:30Z</time></trkpt><trkpt lat="44.614193945652104" lon="9.360151891200864"><ele>962.5</ele><time>2026-04-19T13:20:31Z</time></trkpt><trkpt lat="44.61410721437364" lon="9.36004395930188"><ele>960.25</ele><time>2026-04-19T13:20:32Z</time></trkpt><trkpt lat="44.61402717233767" lon="9.359930557190399"><ele>958.0</ele><time>2026-04-19T13:20:33Z</time></trkpt><trkpt lat="44.61395186440508" lon="9.359793515084915"><ele>954.5</ele><time>2026-04-19T13:20:34Z</time></trkpt><trkpt lat="44.61389569775222" lon="9.359647047727144"><ele>951.0</ele><time>2026-04-19T13:20:35Z</time></trkpt><trkpt lat="44.61384117932722" lon="9.35948756667642"><ele>947.5</ele><time>2026-04-19T13:20:36Z</time></trkpt><trkpt lat="44.613780666259395" lon="9.359344494361295"><ele>944.0</ele><time>2026-04-19T13:20:37Z</time></trkpt><trkpt lat="44.61372777872383" lon="9.35921016443717"><ele>944.0</ele><time>2026-04-19T13:20:38Z</time></trkpt><trkpt lat="44.61367678285895" lon="9.359091324125632"><ele>944.0000000000001</ele><time>2026-04-19T13:20:39Z</time></trkpt><trkpt lat="44.61361399359756" lon="9.35900658142313"><ele>944.0000000000001</ele><time>2026-04-19T13:20:40Z</time></trkpt><trkpt lat="44.61353077563804" lon="9.35897141303928"><ele>944.0</ele><time>2026-04-19T13:20:41Z</time></trkpt><trkpt lat="44.6134260750281" lon="9.358985697850168"><ele>944.0</ele><time>2026-04-19T13:20:42Z</time></trkpt><trkpt lat="44.61331417224298" lon="9.359028690410065"><ele>944.0000000000001</ele><time>2026-04-19T13:20:43Z</time></trkpt><trkpt lat="44.61322562003425" lon="9.359034615114782"><ele>944.0</ele><time>2026-04-19T13:20:44Z</time></trkpt><trkpt lat="44.613151179864566" lon="9.359030593083428"><ele>944.0</ele><time>2026-04-19T13:20:45Z</time></trkpt><trkpt lat="44.61309380987996" lon="9.358940261125113"><ele>944.0</ele><time>2026-04-19T13:20:46Z</time></trkpt><trkpt lat="44.613080651740205" lon="9.358825422508506"><ele>944.0000000000001</ele><time>2026-04-19T13:20:47Z</time></trkpt><trkpt lat="44.613112929460534" lon="9.358701048718503"><ele>944.0</ele><time>2026-04-19T13:20:48Z</time></trkpt><trkpt lat="44.61320153974664" lon="9.358599004457027"><ele>942.0</ele><time>2026-04-19T13:20:49Z</time></trkpt><trkpt lat="44.613301762704744" lon="9.358459700099488"><ele>940.0</ele><time>2026-04-19T13:20:50Z</time></trkpt><trkpt lat="44.613389882605915" lon="9.358313159290274"><ele>938.0</ele><time>2026-04-19T13:20:51Z</time></trkpt><trkpt lat="44.613483637398424" lon="9.358192107762232"><ele>936.0</ele><time>2026-04-19T13:20:52Z</time></trkpt><trkpt lat="44.613553582270775" lon="9.358083857075176"><ele>935.4</ele><time>2026-04-19T13:20:53Z</time></trkpt><trkpt lat="44.613623553073715" lon="9.358009288190862"><ele>934.8</ele><time>2026-04-19T13:20:54Z</time></trkpt><trkpt lat="44.613695828845366" lon="9.357986586133885"><ele>934.1999999999999</ele><time>2026-04-19T13:20:55Z</time></trkpt><trkpt lat="44.61377417384932" lon="9.358047101444981"><ele>933.5999999999999</ele><time>2026-04-19T13:20:56Z</time></trkpt><trkpt lat="44.61384501576012" lon="9.35813575715678"><ele>933.0</ele><time>2026-04-19T13:20:57Z</time></trkpt><trkpt lat="44.61395138937946" lon="9.3582275166322"><ele>933.0</ele><time>2026-04-19T13:20:58Z</time></trkpt><trkpt lat="44.61404502654604" lon="9.358340919718149"><ele>933.0</ele><time>2026-04-19T13:20:59Z</time></trkpt><trkpt lat="44.61414143791919" lon="9.35842720522442"><ele>933.0</ele><time>2026-04-19T13:21:00Z</time></trkpt><trkpt lat="44.6142637497685" lon="9.358489604255045"><ele>933.0</ele><time>2026-04-19T13:21:01Z</time></trkpt><trkpt lat="44.614398524712335" lon="9.358523803577686"><ele>932.5999999999999</ele><time>2026-04-19T13:21:02Z</time></trkpt><trkpt lat="44.614526110111264" lon="9.358539952551963"><ele>932.1999999999999</ele><time>2026-04-19T13:21:03Z</time></trkpt><trkpt lat="44.6146365854308" lon="9.358552898834184"><ele>931.8</ele><time>2026-04-19T13:21:04Z</time></trkpt><trkpt lat="44.61472597419888" lon="9.358542573839117"><ele>931.4</ele><time>2026-04-19T13:21:05Z</time></trkpt><trkpt lat="44.6148133877722" lon="9.358504789480044"><ele>931.0</ele><time>2026-04-19T13:21:06Z</time></trkpt><trkpt lat="44.61490247259419" lon="9.358423700181216"><ele>931.0</ele><time>2026-04-19T13:21:07Z</time></trkpt><trkpt lat="44.6150075564251" lon="9.35834661682912"><ele>931.0</ele><time>2026-04-19T13:21:08Z</time></trkpt><trkpt lat="44.6151053709249" lon="9.358221589570901"><ele>931.0</ele><time>2026-04-19T13:21:09Z</time></trkpt><trkpt lat="44.61522764160555" lon="9.358109818431318"><ele>931.0</ele><time>2026-04-19T13:21:10Z</time></trkpt><trkpt lat="44.61534930306794" lon="9.357987311859018"><ele>928.25</ele><time>2026-04-19T13:21:11Z</time></trkpt><trkpt lat="44.615463302355316" lon="9.357885198275987"><ele>925.5</ele><time>2026-04-19T13:21:12Z</time></trkpt><trkpt lat="44.61557020668447" lon="9.357790543401004"><ele>922.75</ele><time>2026-04-19T13:21:13Z</time></trkpt><trkpt lat="44.61566245429244" lon="9.357701464708706"><ele>920.0</ele><time>2026-04-19T13:21:14Z</time></trkpt><trkpt lat="44.61574247781258" lon="9.357628316684293"><ele>920.0</ele><time>2026-04-19T13:21:15Z</time></trkpt><trkpt lat="44.61581192352312" lon="9.357562936729662"><ele>920.0</ele><time>2026-04-19T13:21:16Z</time></trkpt><trkpt lat="44.61586385730615" lon="9.357481613548376"><ele>920.0</ele><time>2026-04-19T13:21:17Z</time></trkpt><trkpt lat="44.61588649963322" lon="9.357353922947791"><ele>920.0</ele><time>2026-04-19T13:21:18Z</time></trkpt><trkpt lat="44.615889508385806" lon="9.357193565901095"><ele>920.0</ele><time>2026-04-19T13:21:19Z</time></trkpt><trkpt lat="44.61589179027589" lon="9.35701705056285"><ele>918.0</ele><time>2026-04-19T13:21:20Z</time></trkpt><trkpt lat="44.61594237161677" lon="9.356877312757561"><ele>916.0</ele><time>2026-04-19T13:21:21Z</time></trkpt><trkpt lat="44.61600736822345" lon="9.356749275938302"><ele>914.0</ele><time>2026-04-19T13:21:22Z</time></trkpt><trkpt lat="44.61608198678318" lon="9.356583685181882"><ele>912.0</ele><time>2026-04-19T13:21:23Z</time></trkpt><trkpt lat="44.61616476171767" lon="9.356473243861172"><ele>912.0</ele><time>2026-04-19T13:21:24Z</time></trkpt><trkpt lat="44.616257849400085" lon="9.356425560746047"><ele>912.0</ele><time>2026-04-19T13:21:25Z</time></trkpt><trkpt lat="44.616343109550684" lon="9.356371338918239"><ele>912.0</ele><time>2026-04-19T13:21:26Z</time></trkpt><trkpt lat="44.61642918719901" lon="9.356424001607188"><ele>912.0</ele><time>2026-04-19T13:21:27Z</time></trkpt><trkpt lat="44.616492831747074" lon="9.356485938583592"><ele>912.0</ele><time>2026-04-19T13:21:28Z</time></trkpt><trkpt lat="44.61655239286264" lon="9.356581676827842"><ele>912.0</ele><time>2026-04-19T13:21:29Z</time></trkpt><trkpt lat="44.61662040241111" lon="9.35666911774996"><ele>912.0</ele><time>2026-04-19T13:21:30Z</time></trkpt><trkpt lat="44.61670297433298" lon="9.356722551253998"><ele>912.0</ele><time>2026-04-19T13:21:31Z</time></trkpt><trkpt lat="44.61679684083426" lon="9.356683100038445"><ele>912.0</ele><time>2026-04-19T13:21:32Z</time></trkpt><trkpt lat="44.616858756262445" lon="9.356579262303924"><ele>912.0</ele><time>2026-04-19T13:21:33Z</time></trkpt><trkpt lat="44.616885376502786" lon="9.356406846279373"><ele>908.25</ele><time>2026-04-19T13:21:34Z</time></trkpt><trkpt lat="44.616913694271396" lon="9.356211196131968"><ele>904.5</ele><time>2026-04-19T13:21:35Z</time></trkpt><trkpt lat="44.61688724729561" lon="9.355967378995503"><ele>900.75</ele><time>2026-04-19T13:21:36Z</time></trkpt><trkpt lat="44.61685050530837" lon="9.355832767822697"><ele>897.0</ele><time>2026-04-19T13:21:37Z</time></trkpt><trkpt lat="44.61682086673734" lon="9.355680076730193"><ele>894.25</ele><time>2026-04-19T13:21:38Z</time></trkpt><trkpt lat="44.61680822981886" lon="9.355531783456048"><ele>891.5</ele><time>2026-04-19T13:21:39Z</time></trkpt><trkpt lat="44.61682184155426" lon="9.355395349864546"><ele>888.75</ele><time>2026-04-19T13:21:40Z</time></trkpt><trkpt lat="44.61685658650249" lon="9.355193522051856"><ele>886.0</ele><time>2026-04-19T13:21:41Z</time></trkpt><trkpt lat="44.6168841427086" lon="9.355026724565043"><ele>886.0</ele><time>2026-04-19T13:21:42Z</time></trkpt><trkpt lat="44.61690912629479" lon="9.354851651026292"><ele>886.0</ele><time>2026-04-19T13:21:43Z</time></trkpt><trkpt lat="44.61694459816331" lon="9.354652075881917"><ele>886.0</ele><time>2026-04-19T13:21:44Z</time></trkpt><trkpt lat="44.616981824174964" lon="9.35447774459218"><ele>886.0</ele><time>2026-04-19T13:21:45Z</time></trkpt><trkpt lat="44.61701351928111" lon="9.354310635458928"><ele>887.0</ele><time>2026-04-19T13:21:46Z</time></trkpt><trkpt lat="44.61704037439183" lon="9.354146333016779"><ele>888.0</ele><time>2026-04-19T13:21:47Z</time></trkpt><trkpt lat="44.61706814619805" lon="9.35398578420659"><ele>889.0</ele><time>2026-04-19T13:21:48Z</time></trkpt><trkpt lat="44.61709669366224" lon="9.353813647406207"><ele>890.0</ele><time>2026-04-19T13:21:49Z</time></trkpt><trkpt lat="44.61712778772372" lon="9.353646706188227"><ele>890.0</ele><time>2026-04-19T13:21:50Z</time></trkpt><trkpt lat="44.617155425761034" lon="9.353501282098552"><ele>890.0</ele><time>2026-04-19T13:21:51Z</time></trkpt><trkpt lat="44.61719103618344" lon="9.353394747233002"><ele>890.0</ele><time>2026-04-19T13:21:52Z</time></trkpt><trkpt lat="44.61721402746734" lon="9.353239438263667"><ele>890.0</ele><time>2026-04-19T13:21:54Z</time></trkpt><trkpt lat="44.61723022298228" lon="9.353136200046603"><ele>890.0</ele><time>2026-04-19T13:21:56Z</time></trkpt><trkpt lat="44.61706575999752" lon="9.352919333480143"><ele>889.4</ele><time>2026-04-19T13:21:58Z</time></trkpt><trkpt lat="44.61700172635274" lon="9.352978685739446"><ele>888.8</ele><time>2026-04-19T13:21:59Z</time></trkpt><trkpt lat="44.616932138435665" lon="9.35306127390781"><ele>888.2</ele><time>2026-04-19T13:22:00Z</time></trkpt><trkpt lat="44.616915274039094" lon="9.353229548047722"><ele>887.6</ele><time>2026-04-19T13:22:01Z</time></trkpt><trkpt lat="44.61689759693175" lon="9.353390304205153"><ele>887.0</ele><time>2026-04-19T13:22:02Z</time></trkpt><trkpt lat="44.616838188273704" lon="9.3535558756873"><ele>885.0</ele><time>2026-04-19T13:22:03Z</time></trkpt><trkpt lat="44.61675767278437" lon="9.35369375478959"><ele>883.0</ele><time>2026-04-19T13:22:04Z</time></trkpt><trkpt lat="44.61666733049391" lon="9.353776355911107"><ele>881.0</ele><time>2026-04-19T13:22:05Z</time></trkpt><trkpt lat="44.61656284209101" lon="9.353814063907459"><ele>879.0</ele><time>2026-04-19T13:22:06Z</time></trkpt><trkpt lat="44.616474577200954" lon="9.35389545532128"><ele>877.0</ele><time>2026-04-19T13:22:07Z</time></trkpt><trkpt lat="44.6164207910813" lon="9.354039804129647"><ele>876.9999999999999</ele><time>2026-04-19T13:22:08Z</time></trkpt><trkpt lat="44.61635132274029" lon="9.35412798795098"><ele>877.0</ele><time>2026-04-19T13:22:09Z</time></trkpt><trkpt lat="44.61628424572936" lon="9.354197218958376"><ele>877.0</ele><time>2026-04-19T13:22:10Z</time></trkpt><trkpt lat="44.61620764148672" lon="9.35416996069768"><ele>877.0</ele><time>2026-04-19T13:22:11Z</time></trkpt><trkpt lat="44.61614234112487" lon="9.354106564011609"><ele>876.9999999999999</ele><time>2026-04-19T13:22:12Z</time></trkpt><trkpt lat="44.61608344597445" lon="9.353988222297033"><ele>877.0</ele><time>2026-04-19T13:22:13Z</time></trkpt><trkpt lat="44.61599812915551" lon="9.353868346930174"><ele>872.2</ele><time>2026-04-19T13:22:14Z</time></trkpt><trkpt lat="44.61592368683182" lon="9.353765738772442"><ele>867.4000000000001</ele><time>2026-04-19T13:22:15Z</time></trkpt><trkpt lat="44.61584048503687" lon="9.353689653734188"><ele>862.5999999999999</ele><time>2026-04-19T13:22:16Z</time></trkpt><trkpt lat="44.6157638407488" lon="9.35361324311166"><ele>857.8</ele><time>2026-04-19T13:22:17Z</time></trkpt><trkpt lat="44.615674188545306" lon="9.35358338541744"><ele>853.0</ele><time>2026-04-19T13:22:18Z</time></trkpt><trkpt lat="44.61558667079578" lon="9.353593661917461"><ele>853.0</ele><time>2026-04-19T13:22:19Z</time></trkpt><trkpt lat="44.6154961708503" lon="9.35365636636685"><ele>853.0</ele><time>2026-04-19T13:22:20Z</time></trkpt><trkpt lat="44.61538453665196" lon="9.353821283877302"><ele>853.0</ele><time>2026-04-19T13:22:21Z</time></trkpt><trkpt lat="44.615320814426944" lon="9.353951163479131"><ele>853.0</ele><time>2026-04-19T13:22:22Z</time></trkpt><trkpt lat="44.615259209012414" lon="9.354066223266187"><ele>855.2</ele><time>2026-04-19T13:22:23Z</time></trkpt><trkpt lat="44.61517618681096" lon="9.354123775296"><ele>857.4</ele><time>2026-04-19T13:22:24Z</time></trkpt><trkpt lat="44.615103203439624" lon="9.354183574611595"><ele>859.6000000000001</ele><time>2026-04-19T13:22:25Z</time></trkpt><trkpt lat="44.61500943029138" lon="9.35415700612387"><ele>861.8000000000001</ele><time>2026-04-19T13:22:26Z</time></trkpt><trkpt lat="44.614929109892195" lon="9.354070330122656"><ele>864.0</ele><time>2026-04-19T13:22:27Z</time></trkpt><trkpt lat="44.61487227108494" lon="9.353926083940328"><ele>860.4000000000001</ele><time>2026-04-19T13:22:28Z</time></trkpt><trkpt lat="44.61481640083636" lon="9.35380412742151"><ele>856.8000000000001</ele><time>2026-04-19T13:22:29Z</time></trkpt><trkpt lat="44.61473706944214" lon="9.353727755065677"><ele>853.2</ele><time>2026-04-19T13:22:30Z</time></trkpt><trkpt lat="44.61462436896126" lon="9.353702852901865"><ele>849.5999999999999</ele><time>2026-04-19T13:22:31Z</time></trkpt><trkpt lat="44.61449390158074" lon="9.35372125662789"><ele>846.0</ele><time>2026-04-19T13:22:32Z</time></trkpt><trkpt lat="44.61435845100924" lon="9.353729421953773"><ele>846.0</ele><time>2026-04-19T13:22:33Z</time></trkpt><trkpt lat="44.61425664850881" lon="9.353665077396297"><ele>846.0</ele><time>2026-04-19T13:22:34Z</time></trkpt><trkpt lat="44.61417092750951" lon="9.35356138932201"><ele>846.0</ele><time>2026-04-19T13:22:35Z</time></trkpt><trkpt lat="44.61408614024173" lon="9.353429114233906"><ele>846.0</ele><time>2026-04-19T13:22:36Z</time></trkpt><trkpt lat="44.61399440730615" lon="9.353348047211288"><ele>846.0</ele><time>2026-04-19T13:22:37Z</time></trkpt><trkpt lat="44.613875350426" lon="9.353312763877389"><ele>846.0</ele><time>2026-04-19T13:22:37.999Z</time></trkpt><trkpt lat="44.61373653700251" lon="9.353326882089691"><ele>846.0</ele><time>2026-04-19T13:22:38.999Z</time></trkpt><trkpt lat="44.61363355077118" lon="9.353353905449724"><ele>846.0</ele><time>2026-04-19T13:22:39.999Z</time></trkpt><trkpt lat="44.61355281270372" lon="9.353303386560867"><ele>845.5</ele><time>2026-04-19T13:22:40.999Z</time></trkpt><trkpt lat="44.61348878347426" lon="9.353190399411655"><ele>845.0</ele><time>2026-04-19T13:22:41.999Z</time></trkpt><trkpt lat="44.61343282544832" lon="9.353039636044688"><ele>844.5</ele><time>2026-04-19T13:22:42.999Z</time></trkpt><trkpt lat="44.61336918921238" lon="9.35287345533254"><ele>844.0</ele><time>2026-04-19T13:22:43.999Z</time></trkpt><trkpt lat="44.61330351330868" lon="9.352706226233112"><ele>844.0</ele><time>2026-04-19T13:22:44.999Z</time></trkpt><trkpt lat="44.613230176158815" lon="9.352528307780876"><ele>844.0</ele><time>2026-04-19T13:22:45.999Z</time></trkpt><trkpt lat="44.61315310238001" lon="9.352347899573541"><ele>844.0</ele><time>2026-04-19T13:22:46.999Z</time></trkpt><trkpt lat="44.613083110675106" lon="9.35213473352348"><ele>840.75</ele><time>2026-04-19T13:22:47.999Z</time></trkpt><trkpt lat="44.6130255757441" lon="9.351948627357515"><ele>837.5</ele><time>2026-04-19T13:22:48.999Z</time></trkpt><trkpt lat="44.61297872336559" lon="9.351787751876632"><ele>834.25</ele><time>2026-04-19T13:22:49.999Z</time></trkpt><trkpt lat="44.61292269280718" lon="9.351668320583547"><ele>831.0</ele><time>2026-04-19T13:22:50.999Z</time></trkpt><trkpt lat="44.61284420386693" lon="9.351552690446605"><ele>835.5</ele><time>2026-04-19T13:22:51.999Z</time></trkpt><trkpt lat="44.61274085987264" lon="9.351479435366377"><ele>840.0</ele><time>2026-04-19T13:22:52.999Z</time></trkpt><trkpt lat="44.61263429232633" lon="9.351436294585758"><ele>844.5</ele><time>2026-04-19T13:22:53.999Z</time></trkpt><trkpt lat="44.612495675090926" lon="9.351404622954645"><ele>849.0</ele><time>2026-04-19T13:22:54.999Z</time></trkpt><trkpt lat="44.61237655093589" lon="9.35137832306206"><ele>844.5</ele><time>2026-04-19T13:22:55.999Z</time></trkpt><trkpt lat="44.61226121759273" lon="9.351293204214123"><ele>840.0</ele><time>2026-04-19T13:22:56.999Z</time></trkpt><trkpt lat="44.61213957268638" lon="9.351180987602362"><ele>835.5</ele><time>2026-04-19T13:22:57.999Z</time></trkpt><trkpt lat="44.61200786613915" lon="9.351064898829614"><ele>831.0</ele><time>2026-04-19T13:22:58.999Z</time></trkpt><trkpt lat="44.61189854629163" lon="9.35097010515274"><ele>831.0</ele><time>2026-04-19T13:22:59.999Z</time></trkpt><trkpt lat="44.61181275652531" lon="9.350911456383747"><ele>831.0</ele><time>2026-04-19T13:23:01Z</time></trkpt><trkpt lat="44.61173494881357" lon="9.350874886707105"><ele>831.0</ele><time>2026-04-19T13:23:02Z</time></trkpt><trkpt lat="44.61165210147812" lon="9.35088013523069"><ele>831.0</ele><time>2026-04-19T13:23:03Z</time></trkpt><trkpt lat="44.6115764230951" lon="9.350924738140954"><ele>831.0</ele><time>2026-04-19T13:23:04Z</time></trkpt><trkpt lat="44.61149886141376" lon="9.35103673066086"><ele>831.0</ele><time>2026-04-19T13:23:05Z</time></trkpt><trkpt lat="44.61141764316594" lon="9.351174174234169"><ele>831.0</ele><time>2026-04-19T13:23:06Z</time></trkpt><trkpt lat="44.61133775572194" lon="9.351293071485443"><ele>831.0</ele><time>2026-04-19T13:23:07Z</time></trkpt><trkpt lat="44.61125053567076" lon="9.351384107402476"><ele>831.0</ele><time>2026-04-19T13:23:08Z</time></trkpt><trkpt lat="44.61115515331846" lon="9.35145142246823"><ele>832.8</ele><time>2026-04-19T13:23:09Z</time></trkpt><trkpt lat="44.61105850238389" lon="9.351508580715484"><ele>834.5999999999999</ele><time>2026-04-19T13:23:10Z</time></trkpt><trkpt lat="44.61095958123954" lon="9.351526618230677"><ele>836.4</ele><time>2026-04-19T13:23:11Z</time></trkpt><trkpt lat="44.610850775032006" lon="9.351530164913429"><ele>838.2</ele><time>2026-04-19T13:23:12Z</time></trkpt><trkpt lat="44.610732391661934" lon="9.351512831367197"><ele>840.0</ele><time>2026-04-19T13:23:13Z</time></trkpt><trkpt lat="44.61062031122724" lon="9.35144809466051"><ele>840.0</ele><time>2026-04-19T13:23:14Z</time></trkpt><trkpt lat="44.61051793388609" lon="9.351392408885486"><ele>840.0</ele><time>2026-04-19T13:23:15Z</time></trkpt><trkpt lat="44.61041286455909" lon="9.351362163515557"><ele>840.0</ele><time>2026-04-19T13:23:16Z</time></trkpt><trkpt lat="44.61031046605925" lon="9.351332574251925"><ele>840.0</ele><time>2026-04-19T13:23:17Z</time></trkpt><trkpt lat="44.610209872020384" lon="9.351304984008832"><ele>840.0</ele><time>2026-04-19T13:23:18Z</time></trkpt><trkpt lat="44.61010290595552" lon="9.351299686408144"><ele>836.0</ele><time>2026-04-19T13:23:19Z</time></trkpt><trkpt lat="44.61000453202214" lon="9.351285471314707"><ele>832.0</ele><time>2026-04-19T13:23:20Z</time></trkpt><trkpt lat="44.60990988882241" lon="9.351261071912825"><ele>828.0</ele><time>2026-04-19T13:23:21Z</time></trkpt><trkpt lat="44.609806166536025" lon="9.35124970392725"><ele>824.0</ele><time>2026-04-19T13:23:22Z</time></trkpt><trkpt lat="44.60969299467264" lon="9.351269631887096"><ele>820.0</ele><time>2026-04-19T13:23:23Z</time></trkpt><trkpt lat="44.6095771210816" lon="9.351319617762863"><ele>820.9999999999999</ele><time>2026-04-19T13:23:24Z</time></trkpt><trkpt lat="44.60948478057525" lon="9.351384542581803"><ele>822.0</ele><time>2026-04-19T13:23:25Z</time></trkpt><trkpt lat="44.60940875878076" lon="9.35143870541727"><ele>823.0</ele><time>2026-04-19T13:23:26Z</time></trkpt><trkpt lat="44.609332176133016" lon="9.351450131277232"><ele>824.0</ele><time>2026-04-19T13:23:27Z</time></trkpt><trkpt lat="44.609273698364454" lon="9.351411333215815"><ele>824.9999999999999</ele><time>2026-04-19T13:23:28Z</time></trkpt><trkpt lat="44.60924711245106" lon="9.351325860856548"><ele>826.0</ele><time>2026-04-19T13:23:29Z</time></trkpt><trkpt lat="44.60927519275802" lon="9.351217117503982"><ele>824.8</ele><time>2026-04-19T13:23:30Z</time></trkpt><trkpt lat="44.60930462710904" lon="9.351129836789204"><ele>823.5999999999999</ele><time>2026-04-19T13:23:31Z</time></trkpt><trkpt lat="44.60939800680532" lon="9.351080872596931"><ele>822.4</ele><time>2026-04-19T13:23:32Z</time></trkpt><trkpt lat="44.60950295271063" lon="9.351047564097318"><ele>821.2</ele><time>2026-04-19T13:23:33Z</time></trkpt><trkpt lat="44.60961600680882" lon="9.350991698284506"><ele>820.0</ele><time>2026-04-19T13:23:34Z</time></trkpt><trkpt lat="44.60971680537408" lon="9.350915387631536"><ele>820.0</ele><time>2026-04-19T13:23:35Z</time></trkpt><trkpt lat="44.609808806588184" lon="9.350801591889113"><ele>820.0</ele><time>2026-04-19T13:23:36Z</time></trkpt><trkpt lat="44.60989868857547" lon="9.350682110808272"><ele>820.0</ele><time>2026-04-19T13:23:37Z</time></trkpt><trkpt lat="44.609983416574266" lon="9.350574207602252"><ele>820.0</ele><time>2026-04-19T13:23:38Z</time></trkpt><trkpt lat="44.610044687755334" lon="9.35044718893474"><ele>818.2</ele><time>2026-04-19T13:23:39Z</time></trkpt><trkpt lat="44.6100747833547" lon="9.350315096877692"><ele>816.4</ele><time>2026-04-19T13:23:40Z</time></trkpt><trkpt lat="44.61013514388979" lon="9.350209796446187"><ele>814.5999999999999</ele><time>2026-04-19T13:23:41Z</time></trkpt><trkpt lat="44.61019301067674" lon="9.350092260727665"><ele>812.8</ele><time>2026-04-19T13:23:42Z</time></trkpt><trkpt lat="44.61030854408958" lon="9.350039180876491"><ele>811.0</ele><time>2026-04-19T13:23:43Z</time></trkpt><trkpt lat="44.610432442768236" lon="9.349981615413762"><ele>811.0</ele><time>2026-04-19T13:23:44Z</time></trkpt><trkpt lat="44.61053547713623" lon="9.349904078476385"><ele>811.0</ele><time>2026-04-19T13:23:45Z</time></trkpt><trkpt lat="44.610633974028985" lon="9.349836627191328"><ele>811.0</ele><time>2026-04-19T13:23:46Z</time></trkpt><trkpt lat="44.61070825719282" lon="9.349679945730871"><ele>811.0</ele><time>2026-04-19T13:23:47Z</time></trkpt><trkpt lat="44.61078688288281" lon="9.34952996175808"><ele>807.5</ele><time>2026-04-19T13:23:48Z</time></trkpt><trkpt lat="44.610863520194115" lon="9.349398998103872"><ele>804.0</ele><time>2026-04-19T13:23:49Z</time></trkpt><trkpt lat="44.61094354518533" lon="9.349290901638613"><ele>800.5</ele><time>2026-04-19T13:23:50Z</time></trkpt><trkpt lat="44.61104677447143" lon="9.349234897527966"><ele>797.0</ele><time>2026-04-19T13:23:51Z</time></trkpt><trkpt lat="44.61116710829827" lon="9.349190365648449"><ele>797.0</ele><time>2026-04-19T13:23:52Z</time></trkpt><trkpt lat="44.611292231264834" lon="9.34914937219019"><ele>797.0</ele><time>2026-04-19T13:23:53Z</time></trkpt><trkpt lat="44.61141619150735" lon="9.349158374996433"><ele>797.0</ele><time>2026-04-19T13:23:54Z</time></trkpt><trkpt lat="44.611535904828294" lon="9.349187344400338"><ele>797.0</ele><time>2026-04-19T13:23:55Z</time></trkpt><trkpt lat="44.6116615992129" lon="9.349220126833664"><ele>797.0</ele><time>2026-04-19T13:23:56Z</time></trkpt><trkpt lat="44.611779838732836" lon="9.349262292407458"><ele>797.0</ele><time>2026-04-19T13:23:57Z</time></trkpt><trkpt lat="44.611917008183504" lon="9.349297431309012"><ele>797.0</ele><time>2026-04-19T13:23:58Z</time></trkpt><trkpt lat="44.61205788425965" lon="9.349332074406444"><ele>797.0</ele><time>2026-04-19T13:23:59Z</time></trkpt><trkpt lat="44.6121839932021" lon="9.349363086149195"><ele>794.75</ele><time>2026-04-19T13:24:00Z</time></trkpt><trkpt lat="44.612309027180885" lon="9.349379122355977"><ele>792.5</ele><time>2026-04-19T13:24:01Z</time></trkpt><trkpt lat="44.61243624423477" lon="9.34941745852327"><ele>790.25</ele><time>2026-04-19T13:24:02Z</time></trkpt><trkpt lat="44.6125530439017" lon="9.349433459918819"><ele>788.0</ele><time>2026-04-19T13:24:03Z</time></trkpt><trkpt lat="44.61265789695857" lon="9.349470385532458"><ele>788.0000000000001</ele><time>2026-04-19T13:24:04Z</time></trkpt><trkpt lat="44.612751011532886" lon="9.34948778568189"><ele>788.0</ele><time>2026-04-19T13:24:05Z</time></trkpt><trkpt lat="44.612873383067985" lon="9.349474594304281"><ele>788.0</ele><time>2026-04-19T13:24:07Z</time></trkpt><trkpt lat="44.61292342969943" lon="9.349420588374782"><ele>788.0</ele><time>2026-04-19T13:24:08Z</time></trkpt><trkpt lat="44.612954430018966" lon="9.349335510171276"><ele>788.0000000000001</ele><time>2026-04-19T13:24:09Z</time></trkpt><trkpt lat="44.612967001428885" lon="9.349230244958763"><ele>788.0</ele><time>2026-04-19T13:24:10Z</time></trkpt><trkpt lat="44.61293814214795" lon="9.349119833465211"><ele>788.0</ele><time>2026-04-19T13:24:11Z</time></trkpt><trkpt lat="44.612819819400634" lon="9.349063353964313"><ele>788.0</ele><time>2026-04-19T13:24:12Z</time></trkpt><trkpt lat="44.61268654949668" lon="9.349023739014422"><ele>788.0</ele><time>2026-04-19T13:24:13Z</time></trkpt><trkpt lat="44.6125632705117" lon="9.348942349917342"><ele>788.0</ele><time>2026-04-19T13:24:14Z</time></trkpt><trkpt lat="44.61243793492369" lon="9.348843948019557"><ele>783.75</ele><time>2026-04-19T13:24:15Z</time></trkpt><trkpt lat="44.61234150092675" lon="9.348749331021999"><ele>779.5</ele><time>2026-04-19T13:24:16Z</time></trkpt><trkpt lat="44.612249175601626" lon="9.348651523974276"><ele>775.25</ele><time>2026-04-19T13:24:17Z</time></trkpt><trkpt lat="44.6121271946967" lon="9.34852451608489"><ele>771.0</ele><time>2026-04-19T13:24:18Z</time></trkpt><trkpt lat="44.612003191549995" lon="9.348368942356107"><ele>768.25</ele><time>2026-04-19T13:24:19Z</time></trkpt><trkpt lat="44.611895472337224" lon="9.348238359444373"><ele>765.5</ele><time>2026-04-19T13:24:20Z</time></trkpt><trkpt lat="44.611788960220174" lon="9.348106214475454"><ele>762.75</ele><time>2026-04-19T13:24:21Z</time></trkpt><trkpt lat="44.61170079679557" lon="9.347991758110611"><ele>760.0</ele><time>2026-04-19T13:24:22Z</time></trkpt><trkpt lat="44.611626764117624" lon="9.347893049120257"><ele>760.0</ele><time>2026-04-19T13:24:23Z</time></trkpt><trkpt lat="44.61154890760959" lon="9.347788272476054"><ele>760.0</ele><time>2026-04-19T13:24:24Z</time></trkpt><trkpt lat="44.611479094076934" lon="9.347702274017994"><ele>760.0</ele><time>2026-04-19T13:24:25Z</time></trkpt><trkpt lat="44.61139482168776" lon="9.347634285055348"><ele>760.0</ele><time>2026-04-19T13:24:26Z</time></trkpt><trkpt lat="44.61129611115932" lon="9.347597828444743"><ele>760.0</ele><time>2026-04-19T13:24:27Z</time></trkpt><trkpt lat="44.611186331674695" lon="9.34760644228732"><ele>759.0</ele><time>2026-04-19T13:24:28Z</time></trkpt><trkpt lat="44.611092062225396" lon="9.347641212839678"><ele>758.0</ele><time>2026-04-19T13:24:29Z</time></trkpt><trkpt lat="44.61102711919259" lon="9.347633725235962"><ele>757.0</ele><time>2026-04-19T13:24:30Z</time></trkpt><trkpt lat="44.6109676381306" lon="9.347591944463359"><ele>756.0</ele><time>2026-04-19T13:24:31Z</time></trkpt><trkpt lat="44.61094705014965" lon="9.347495535916963"><ele>755.0</ele><time>2026-04-19T13:24:32Z</time></trkpt><trkpt lat="44.61095720229963" lon="9.347373523814264"><ele>754.0</ele><time>2026-04-19T13:24:33Z</time></trkpt><trkpt lat="44.61101752164305" lon="9.34728720843498"><ele>754.0</ele><time>2026-04-19T13:24:34Z</time></trkpt><trkpt lat="44.61110936030007" lon="9.347264042743394"><ele>754.0</ele><time>2026-04-19T13:24:35Z</time></trkpt><trkpt lat="44.611214414795434" lon="9.347192371088504"><ele>754.0</ele><time>2026-04-19T13:24:36Z</time></trkpt><trkpt lat="44.611313521599584" lon="9.347166996384116"><ele>754.0</ele><time>2026-04-19T13:24:37Z</time></trkpt><trkpt lat="44.61142219672103" lon="9.347090017009437"><ele>754.0</ele><time>2026-04-19T13:24:37.999Z</time></trkpt><trkpt lat="44.611511595034955" lon="9.346994545942902"><ele>751.8000000000001</ele><time>2026-04-19T13:24:38.999Z</time></trkpt><trkpt lat="44.6115797214383" lon="9.346901697193648"><ele>749.6</ele><time>2026-04-19T13:24:39.999Z</time></trkpt><trkpt lat="44.61164412882836" lon="9.3468081277479"><ele>747.4</ele><time>2026-04-19T13:24:40.999Z</time></trkpt><trkpt lat="44.61173925810417" lon="9.346781933850316"><ele>745.2</ele><time>2026-04-19T13:24:41.999Z</time></trkpt><trkpt lat="44.61184784315914" lon="9.346826979711112"><ele>743.0</ele><time>2026-04-19T13:24:42.999Z</time></trkpt><trkpt lat="44.61197894788544" lon="9.34687354326891"><ele>742.0</ele><time>2026-04-19T13:24:43.999Z</time></trkpt><trkpt lat="44.612126085558664" lon="9.346905815592846"><ele>741.0</ele><time>2026-04-19T13:24:44.999Z</time></trkpt><trkpt lat="44.612259134806116" lon="9.346960229635766"><ele>740.0</ele><time>2026-04-19T13:24:45.999Z</time></trkpt><trkpt lat="44.61238989670631" lon="9.347003985419201"><ele>739.0</ele><time>2026-04-19T13:24:46.999Z</time></trkpt><trkpt lat="44.61251474499711" lon="9.347043022205396"><ele>739.0</ele><time>2026-04-19T13:24:47.999Z</time></trkpt><trkpt lat="44.61263342959474" lon="9.347106796568156"><ele>739.0</ele><time>2026-04-19T13:24:48.999Z</time></trkpt><trkpt lat="44.612755238411026" lon="9.347127910618289"><ele>739.0</ele><time>2026-04-19T13:24:49.999Z</time></trkpt><trkpt lat="44.61286113578032" lon="9.347171780676687"><ele>739.0</ele><time>2026-04-19T13:24:50.999Z</time></trkpt><trkpt lat="44.61296431339086" lon="9.347207173880909"><ele>740.5</ele><time>2026-04-19T13:24:51.999Z</time></trkpt><trkpt lat="44.61306413091453" lon="9.347248494731485"><ele>742.0</ele><time>2026-04-19T13:24:52.999Z</time></trkpt><trkpt lat="44.61316342979922" lon="9.34729409767929"><ele>743.5</ele><time>2026-04-19T13:24:53.999Z</time></trkpt><trkpt lat="44.61326712752292" lon="9.34736895165147"><ele>745.0</ele><time>2026-04-19T13:24:54.999Z</time></trkpt><trkpt lat="44.61338130569883" lon="9.347471959310468"><ele>745.0</ele><time>2026-04-19T13:24:55.999Z</time></trkpt><trkpt lat="44.61345912919488" lon="9.347558761192008"><ele>745.0</ele><time>2026-04-19T13:24:56.999Z</time></trkpt><trkpt lat="44.61353192680173" lon="9.347660046769027"><ele>745.0</ele><time>2026-04-19T13:24:57.999Z</time></trkpt><trkpt lat="44.613596712844604" lon="9.34773871342784"><ele>745.0</ele><time>2026-04-19T13:24:58.999Z</time></trkpt><trkpt lat="44.613707688352214" lon="9.347890353202857"><ele>745.0</ele><time>2026-04-19T13:24:59.999Z</time></trkpt><trkpt lat="44.61381126200683" lon="9.348023106437685"><ele>741.75</ele><time>2026-04-19T13:25:00.999Z</time></trkpt><trkpt lat="44.61390378974144" lon="9.348141701833995"><ele>738.5</ele><time>2026-04-19T13:25:01.999Z</time></trkpt><trkpt lat="44.61398893977129" lon="9.348253458695588"><ele>735.25</ele><time>2026-04-19T13:25:02.999Z</time></trkpt><trkpt lat="44.614064207222675" lon="9.34836064074282"><ele>732.0</ele><time>2026-04-19T13:25:03.999Z</time></trkpt><trkpt lat="44.61412559999444" lon="9.348475036581329"><ele>732.0</ele><time>2026-04-19T13:25:04.999Z</time></trkpt><trkpt lat="44.61417336932823" lon="9.34858507896321"><ele>732.0</ele><time>2026-04-19T13:25:05.999Z</time></trkpt><trkpt lat="44.61422439108136" lon="9.348705432841513"><ele>732.0</ele><time>2026-04-19T13:25:07Z</time></trkpt><trkpt lat="44.61428342672389" lon="9.34880174284797"><ele>732.0</ele><time>2026-04-19T13:25:08Z</time></trkpt><trkpt lat="44.61434029446734" lon="9.348895526401003"><ele>732.0</ele><time>2026-04-19T13:25:09Z</time></trkpt><trkpt lat="44.614408343701776" lon="9.34894955507105"><ele>732.0</ele><time>2026-04-19T13:25:10Z</time></trkpt><trkpt lat="44.61448850318823" lon="9.348946920960985"><ele>733.8</ele><time>2026-04-19T13:25:11Z</time></trkpt><trkpt lat="44.61455509238643" lon="9.348882389413527"><ele>735.6</ele><time>2026-04-19T13:25:12Z</time></trkpt><trkpt lat="44.61460747733353" lon="9.348767302660418"><ele>737.4</ele><time>2026-04-19T13:25:13Z</time></trkpt><trkpt lat="44.61462992237245" lon="9.34860805631524"><ele>739.1999999999999</ele><time>2026-04-19T13:25:14Z</time></trkpt><trkpt lat="44.614621864311424" lon="9.348422967004216"><ele>741.0</ele><time>2026-04-19T13:25:15Z</time></trkpt><trkpt lat="44.614619464183235" lon="9.348227022444025"><ele>736.25</ele><time>2026-04-19T13:25:16Z</time></trkpt><trkpt lat="44.61463469983652" lon="9.348018723163412"><ele>731.5</ele><time>2026-04-19T13:25:17Z</time></trkpt><trkpt lat="44.61467623550581" lon="9.34780855139966"><ele>726.75</ele><time>2026-04-19T13:25:18Z</time></trkpt><trkpt lat="44.61472599178989" lon="9.3476258051468"><ele>722.0</ele><time>2026-04-19T13:25:19Z</time></trkpt><trkpt lat="44.61477849816777" lon="9.347458407699468"><ele>722.0</ele><time>2026-04-19T13:25:20Z</time></trkpt><trkpt lat="44.61482407976832" lon="9.347308051427136"><ele>722.0</ele><time>2026-04-19T13:25:21Z</time></trkpt><trkpt lat="44.614870643183295" lon="9.347185542296947"><ele>722.0</ele><time>2026-04-19T13:25:22Z</time></trkpt><trkpt lat="44.61497259643195" lon="9.34715077116616"><ele>722.0</ele><time>2026-04-19T13:25:23Z</time></trkpt><trkpt lat="44.61505833183328" lon="9.347057807624083"><ele>722.0</ele><time>2026-04-19T13:25:24Z</time></trkpt><trkpt lat="44.61511735246864" lon="9.346909345664502"><ele>721.5</ele><time>2026-04-19T13:25:25Z</time></trkpt><trkpt lat="44.61518490863705" lon="9.346746405116221"><ele>721.0</ele><time>2026-04-19T13:25:26Z</time></trkpt><trkpt lat="44.61524765142516" lon="9.346576178966524"><ele>720.5</ele><time>2026-04-19T13:25:27Z</time></trkpt><trkpt lat="44.615311750916085" lon="9.346406636256907"><ele>720.0</ele><time>2026-04-19T13:25:28Z</time></trkpt><trkpt lat="44.61537697717718" lon="9.346274299349806"><ele>720.0</ele><time>2026-04-19T13:25:29Z</time></trkpt><trkpt lat="44.615473321040994" lon="9.346196272554007"><ele>720.0</ele><time>2026-04-19T13:25:30Z</time></trkpt><trkpt lat="44.61553982560946" lon="9.346103406118077"><ele>720.0</ele><time>2026-04-19T13:25:31Z</time></trkpt><trkpt lat="44.61558871766028" lon="9.346021126614282"><ele>720.0</ele><time>2026-04-19T13:25:32Z</time></trkpt><trkpt lat="44.61560832176687" lon="9.345899972994223"><ele>720.0</ele><time>2026-04-19T13:25:33Z</time></trkpt><trkpt lat="44.6155769375138" lon="9.345724762508743"><ele>720.0</ele><time>2026-04-19T13:25:34Z</time></trkpt><trkpt lat="44.6155604113634" lon="9.34554711245137"><ele>720.0</ele><time>2026-04-19T13:25:35Z</time></trkpt><trkpt lat="44.615585190241035" lon="9.345378199330117"><ele>720.0</ele><time>2026-04-19T13:25:36Z</time></trkpt><trkpt lat="44.61562455909265" lon="9.345199282008657"><ele>720.0</ele><time>2026-04-19T13:25:37Z</time></trkpt><trkpt lat="44.61564788131886" lon="9.345010002101153"><ele>718.0</ele><time>2026-04-19T13:25:38Z</time></trkpt><trkpt lat="44.6156605099149" lon="9.344823283277162"><ele>716.0</ele><time>2026-04-19T13:25:39Z</time></trkpt><trkpt lat="44.61568328047887" lon="9.344672031193626"><ele>714.0</ele><time>2026-04-19T13:25:40Z</time></trkpt><trkpt lat="44.61572689016768" lon="9.344535746873769"><ele>712.0</ele><time>2026-04-19T13:25:41Z</time></trkpt><trkpt lat="44.61578586457067" lon="9.344425611959107"><ele>710.0</ele><time>2026-04-19T13:25:42Z</time></trkpt><trkpt lat="44.61585816554707" lon="9.344335386096272"><ele>708.4</ele><time>2026-04-19T13:25:43Z</time></trkpt><trkpt lat="44.61594125651537" lon="9.344260261229758"><ele>706.8</ele><time>2026-04-19T13:25:44Z</time></trkpt><trkpt lat="44.61601719532308" lon="9.344204895677782"><ele>705.2</ele><time>2026-04-19T13:25:45Z</time></trkpt><trkpt lat="44.61608056904771" lon="9.344141091773162"><ele>703.6</ele><time>2026-04-19T13:25:46Z</time></trkpt><trkpt lat="44.6161209563782" lon="9.344032221276722"><ele>702.0</ele><time>2026-04-19T13:25:47Z</time></trkpt><trkpt lat="44.61612327950246" lon="9.34389056337318"><ele>700.6</ele><time>2026-04-19T13:25:48Z</time></trkpt><trkpt lat="44.61607975586985" lon="9.343749983273032"><ele>699.2</ele><time>2026-04-19T13:25:49Z</time></trkpt><trkpt lat="44.61600055418566" lon="9.34361102670622"><ele>697.8</ele><time>2026-04-19T13:25:50Z</time></trkpt><trkpt lat="44.61595827034181" lon="9.343489432641045"><ele>696.4</ele><time>2026-04-19T13:25:51Z</time></trkpt><trkpt lat="44.61593036878806" lon="9.343346401746473"><ele>695.0</ele><time>2026-04-19T13:25:52Z</time></trkpt><trkpt lat="44.61598049381656" lon="9.34314653157044"><ele>693.0</ele><time>2026-04-19T13:25:53Z</time></trkpt><trkpt lat="44.61600984154777" lon="9.342935045580168"><ele>691.0</ele><time>2026-04-19T13:25:54Z</time></trkpt><trkpt lat="44.61606022492725" lon="9.342739240083896"><ele>689.0</ele><time>2026-04-19T13:25:55Z</time></trkpt><trkpt lat="44.61608932155533" lon="9.342556326114448"><ele>687.0</ele><time>2026-04-19T13:25:56Z</time></trkpt><trkpt lat="44.61612316992789" lon="9.34238851966328"><ele>687.0</ele><time>2026-04-19T13:25:57Z</time></trkpt><trkpt lat="44.61614975438137" lon="9.342234211605344"><ele>687.0</ele><time>2026-04-19T13:25:58Z</time></trkpt><trkpt lat="44.616161410336915" lon="9.342085647155079"><ele>687.0</ele><time>2026-04-19T13:25:59Z</time></trkpt><trkpt lat="44.61614610434664" lon="9.341929281283708"><ele>687.0</ele><time>2026-04-19T13:26:00Z</time></trkpt><trkpt lat="44.61611772803759" lon="9.341785855409627"><ele>687.0</ele><time>2026-04-19T13:26:01Z</time></trkpt><trkpt lat="44.61609770005715" lon="9.341661168782773"><ele>686.25</ele><time>2026-04-19T13:26:02Z</time></trkpt><trkpt lat="44.61612889547172" lon="9.341536426262074"><ele>685.5</ele><time>2026-04-19T13:26:03Z</time></trkpt><trkpt lat="44.616209915775045" lon="9.341409189371442"><ele>684.75</ele><time>2026-04-19T13:26:04Z</time></trkpt><trkpt lat="44.61628556103922" lon="9.341248835202025"><ele>684.0</ele><time>2026-04-19T13:26:05Z</time></trkpt><trkpt lat="44.616374589598564" lon="9.341092147188785"><ele>685.75</ele><time>2026-04-19T13:26:06Z</time></trkpt><trkpt lat="44.61645814889515" lon="9.340911912755859"><ele>687.5</ele><time>2026-04-19T13:26:07Z</time></trkpt><trkpt lat="44.61655711307927" lon="9.34074782532677"><ele>689.25</ele><time>2026-04-19T13:26:08Z</time></trkpt><trkpt lat="44.6166431565305" lon="9.340596804872618"><ele>691.0</ele><time>2026-04-19T13:26:09Z</time></trkpt><trkpt lat="44.616732798376894" lon="9.340490234877308"><ele>688.5</ele><time>2026-04-19T13:26:10Z</time></trkpt><trkpt lat="44.61682683082288" lon="9.340402484397078"><ele>686.0</ele><time>2026-04-19T13:26:11Z</time></trkpt><trkpt lat="44.616945288327635" lon="9.340362287976934"><ele>683.5</ele><time>2026-04-19T13:26:12Z</time></trkpt><trkpt lat="44.61706978455646" lon="9.340300757739703"><ele>681.0</ele><time>2026-04-19T13:26:13Z</time></trkpt><trkpt lat="44.61718489741461" lon="9.340229432096402"><ele>681.0</ele><time>2026-04-19T13:26:14Z</time></trkpt><trkpt lat="44.61729450824898" lon="9.340179866751173"><ele>681.0</ele><time>2026-04-19T13:26:15Z</time></trkpt><trkpt lat="44.61739869243349" lon="9.340135788661714"><ele>681.0</ele><time>2026-04-19T13:26:16Z</time></trkpt><trkpt lat="44.61749368793244" lon="9.340055296043632"><ele>681.0</ele><time>2026-04-19T13:26:17Z</time></trkpt><trkpt lat="44.6175869765171" lon="9.339927699327392"><ele>681.0</ele><time>2026-04-19T13:26:18Z</time></trkpt><trkpt lat="44.61766344998594" lon="9.339771156234068"><ele>681.0</ele><time>2026-04-19T13:26:19Z</time></trkpt><trkpt lat="44.61772139131269" lon="9.339611665462533"><ele>681.0</ele><time>2026-04-19T13:26:20Z</time></trkpt><trkpt lat="44.617761490283485" lon="9.33945963429202"><ele>681.0</ele><time>2026-04-19T13:26:21Z</time></trkpt><trkpt lat="44.61778904364196" lon="9.33931929124042"><ele>679.5999999999999</ele><time>2026-04-19T13:26:22Z</time></trkpt><trkpt lat="44.61781989745092" lon="9.339200505949815"><ele>678.2</ele><time>2026-04-19T13:26:23Z</time></trkpt><trkpt lat="44.61790369468232" lon="9.33913961099088"><ele>676.8</ele><time>2026-04-19T13:26:24Z</time></trkpt><trkpt lat="44.61800306470832" lon="9.339090934584815"><ele>675.4000000000001</ele><time>2026-04-19T13:26:25Z</time></trkpt><trkpt lat="44.61813512233749" lon="9.339086266945364"><ele>674.0</ele><time>2026-04-19T13:26:26Z</time></trkpt><trkpt lat="44.61826424428576" lon="9.339049283589036"><ele>674.0</ele><time>2026-04-19T13:26:27Z</time></trkpt><trkpt lat="44.61836248256529" lon="9.339041561650113"><ele>674.0</ele><time>2026-04-19T13:26:28Z</time></trkpt><trkpt lat="44.618449154607674" lon="9.338983994924947"><ele>674.0</ele><time>2026-04-19T13:26:29Z</time></trkpt><trkpt lat="44.61851870644733" lon="9.338839029748886"><ele>674.0</ele><time>2026-04-19T13:26:30Z</time></trkpt><trkpt lat="44.618590038162004" lon="9.338683782023926"><ele>671.8000000000001</ele><time>2026-04-19T13:26:31Z</time></trkpt><trkpt lat="44.618651603456094" lon="9.3385358347505"><ele>669.6</ele><time>2026-04-19T13:26:32Z</time></trkpt><trkpt lat="44.61871477690093" lon="9.338422407898664"><ele>667.4</ele><time>2026-04-19T13:26:33Z</time></trkpt><trkpt lat="44.61875991085758" lon="9.338306127006376"><ele>665.2</ele><time>2026-04-19T13:26:34Z</time></trkpt><trkpt lat="44.61885922549367" lon="9.33825969613322"><ele>663.0</ele><time>2026-04-19T13:26:35Z</time></trkpt><trkpt lat="44.61898072529301" lon="9.338208531878085"><ele>663.0</ele><time>2026-04-19T13:26:35.999Z</time></trkpt><trkpt lat="44.61909647643144" lon="9.338132658391775"><ele>663.0</ele><time>2026-04-19T13:26:36.999Z</time></trkpt><trkpt lat="44.61922926667852" lon="9.338062342288403"><ele>663.0</ele><time>2026-04-19T13:26:37.999Z</time></trkpt><trkpt lat="44.619368974353854" lon="9.337990725911617"><ele>663.0</ele><time>2026-04-19T13:26:38.999Z</time></trkpt><trkpt lat="44.61950474998002" lon="9.337971827526511"><ele>663.5</ele><time>2026-04-19T13:26:39.999Z</time></trkpt><trkpt lat="44.61961696915227" lon="9.337969873595739"><ele>664.0</ele><time>2026-04-19T13:26:40.999Z</time></trkpt><trkpt lat="44.61972001555206" lon="9.338011778004526"><ele>664.5</ele><time>2026-04-19T13:26:41.999Z</time></trkpt><trkpt lat="44.61982594889589" lon="9.33808601325969"><ele>665.0</ele><time>2026-04-19T13:26:42.999Z</time></trkpt><trkpt lat="44.61995129701818" lon="9.338149937681333"><ele>665.0</ele><time>2026-04-19T13:26:43.999Z</time></trkpt><trkpt lat="44.620086227819606" lon="9.338178927887816"><ele>665.0</ele><time>2026-04-19T13:26:44.999Z</time></trkpt><trkpt lat="44.62023943058461" lon="9.338155115645428"><ele>665.0</ele><time>2026-04-19T13:26:45.999Z</time></trkpt><trkpt lat="44.62037067377195" lon="9.338125232674539"><ele>665.0</ele><time>2026-04-19T13:26:46.999Z</time></trkpt><trkpt lat="44.620489001343294" lon="9.338146351165367"><ele>660.75</ele><time>2026-04-19T13:26:47.999Z</time></trkpt><trkpt lat="44.62059418949646" lon="9.338188631392999"><ele>656.5</ele><time>2026-04-19T13:26:48.999Z</time></trkpt><trkpt lat="44.62070469391684" lon="9.338238699285359"><ele>652.25</ele><time>2026-04-19T13:26:49.999Z</time></trkpt><trkpt lat="44.6208281514494" lon="9.338297984856192"><ele>648.0</ele><time>2026-04-19T13:26:50.999Z</time></trkpt><trkpt lat="44.62094445702547" lon="9.338333188735655"><ele>648.0</ele><time>2026-04-19T13:26:51.999Z</time></trkpt><trkpt lat="44.621039289747344" lon="9.33840633428463"><ele>648.0</ele><time>2026-04-19T13:26:52.999Z</time></trkpt><trkpt lat="44.62112909824196" lon="9.338447661990154"><ele>648.0</ele><time>2026-04-19T13:26:53.999Z</time></trkpt><trkpt lat="44.62117948135791" lon="9.338592480272307"><ele>648.0</ele><time>2026-04-19T13:26:54.999Z</time></trkpt><trkpt lat="44.621230507181274" lon="9.338775813912575"><ele>639.3333333333334</ele><time>2026-04-19T13:26:55.999Z</time></trkpt><trkpt lat="44.621301751386646" lon="9.339002904876178"><ele>630.6666666666667</ele><time>2026-04-19T13:26:56.999Z</time></trkpt><trkpt lat="44.621387675535644" lon="9.339258359745305"><ele>622.0</ele><time>2026-04-19T13:26:57.999Z</time></trkpt><trkpt lat="44.62146688656027" lon="9.339467449599306"><ele>622.0</ele><time>2026-04-19T13:26:58.999Z</time></trkpt><trkpt lat="44.62154311702763" lon="9.339649807331519"><ele>622.0</ele><time>2026-04-19T13:26:59.999Z</time></trkpt><trkpt lat="44.621613501746786" lon="9.339809662883894"><ele>622.0</ele><time>2026-04-19T13:27:00.999Z</time></trkpt><trkpt lat="44.62167483545527" lon="9.339939736825677"><ele>622.0</ele><time>2026-04-19T13:27:01.999Z</time></trkpt><trkpt lat="44.6217531791047" lon="9.340031353629223"><ele>626.0</ele><time>2026-04-19T13:27:02.999Z</time></trkpt><trkpt lat="44.62182693131352" lon="9.340113895213637"><ele>630.0</ele><time>2026-04-19T13:27:03.999Z</time></trkpt><trkpt lat="44.62190586021944" lon="9.340176235841648"><ele>634.0</ele><time>2026-04-19T13:27:04.999Z</time></trkpt><trkpt lat="44.62198318494564" lon="9.340218243331496"><ele>638.0</ele><time>2026-04-19T13:27:05.999Z</time></trkpt><trkpt lat="44.622051213246145" lon="9.34025120060194"><ele>642.0</ele><time>2026-04-19T13:27:06.999Z</time></trkpt><trkpt lat="44.62212787877744" lon="9.34016683173457"><ele>646.0</ele><time>2026-04-19T13:27:07.999Z</time></trkpt><trkpt lat="44.622169650505185" lon="9.340029845908997"><ele>646.0</ele><time>2026-04-19T13:27:08.999Z</time></trkpt><trkpt lat="44.622190864892154" lon="9.339859690285735"><ele>646.0</ele><time>2026-04-19T13:27:09.999Z</time></trkpt><trkpt lat="44.62221877585723" lon="9.339627440112213"><ele>646.0</ele><time>2026-04-19T13:27:10.999Z</time></trkpt><trkpt lat="44.62226559882154" lon="9.339415081184907"><ele>646.0</ele><time>2026-04-19T13:27:11.999Z</time></trkpt><trkpt lat="44.622303237284484" lon="9.339246619734519"><ele>640.5</ele><time>2026-04-19T13:27:13Z</time></trkpt><trkpt lat="44.62233680359052" lon="9.33910303014417"><ele>635.0</ele><time>2026-04-19T13:27:14Z</time></trkpt><trkpt lat="44.62238087033815" lon="9.338956546024576"><ele>629.5</ele><time>2026-04-19T13:27:15Z</time></trkpt><trkpt lat="44.62244166084507" lon="9.338807900768083"><ele>624.0</ele><time>2026-04-19T13:27:16Z</time></trkpt><trkpt lat="44.62252115061996" lon="9.33864607646981"><ele>621.1666666666666</ele><time>2026-04-19T13:27:17Z</time></trkpt><trkpt lat="44.62259563966582" lon="9.338526441003568"><ele>618.3333333333334</ele><time>2026-04-19T13:27:18Z</time></trkpt><trkpt lat="44.62264813213079" lon="9.338432878430854"><ele>615.5</ele><time>2026-04-19T13:27:19Z</time></trkpt><trkpt lat="44.62269764283669" lon="9.338367115591813"><ele>612.6666666666667</ele><time>2026-04-19T13:27:20Z</time></trkpt><trkpt lat="44.622765271262686" lon="9.338353932131648"><ele>609.8333333333334</ele><time>2026-04-19T13:27:21Z</time></trkpt><trkpt lat="44.6228585380546" lon="9.338406111044948"><ele>607.0</ele><time>2026-04-19T13:27:22Z</time></trkpt><trkpt lat="44.62295728397183" lon="9.338466934879861"><ele>607.0</ele><time>2026-04-19T13:27:23Z</time></trkpt><trkpt lat="44.623069361190396" lon="9.338502763605863"><ele>607.0</ele><time>2026-04-19T13:27:24Z</time></trkpt><trkpt lat="44.62315307703914" lon="9.33854079838186"><ele>607.0</ele><time>2026-04-19T13:27:25Z</time></trkpt><trkpt lat="44.6232259122633" lon="9.33855325696461"><ele>607.0</ele><time>2026-04-19T13:27:26Z</time></trkpt><trkpt lat="44.6233021629661" lon="9.33854905202341"><ele>607.0</ele><time>2026-04-19T13:27:27Z</time></trkpt><trkpt lat="44.62336964643894" lon="9.338441168397747"><ele>607.0</ele><time>2026-04-19T13:27:28Z</time></trkpt><trkpt lat="44.62339119713367" lon="9.338257621359235"><ele>607.0</ele><time>2026-04-19T13:27:29Z</time></trkpt><trkpt lat="44.623414751913515" lon="9.338082978684065"><ele>607.0</ele><time>2026-04-19T13:27:30Z</time></trkpt><trkpt lat="44.62348551299799" lon="9.337920693083221"><ele>607.0</ele><time>2026-04-19T13:27:31Z</time></trkpt><trkpt lat="44.623558627177886" lon="9.337729139359896"><ele>606.25</ele><time>2026-04-19T13:27:32Z</time></trkpt><trkpt lat="44.623652228878065" lon="9.337544871223821"><ele>605.5</ele><time>2026-04-19T13:27:33Z</time></trkpt><trkpt lat="44.62373224909213" lon="9.337371819793342"><ele>604.75</ele><time>2026-04-19T13:27:34Z</time></trkpt><trkpt lat="44.623795491228385" lon="9.337226637677826"><ele>604.0</ele><time>2026-04-19T13:27:35Z</time></trkpt><trkpt lat="44.62385780460472" lon="9.337117877214249"><ele>599.0</ele><time>2026-04-19T13:27:36Z</time></trkpt><trkpt lat="44.623945008585736" lon="9.337047369429978"><ele>594.0</ele><time>2026-04-19T13:27:37Z</time></trkpt><trkpt lat="44.62402905907563" lon="9.336970055217204"><ele>589.0</ele><time>2026-04-19T13:27:38Z</time></trkpt><trkpt lat="44.62414660704104" lon="9.336987058977934"><ele>584.0</ele><time>2026-04-19T13:27:39Z</time></trkpt><trkpt lat="44.624273891894454" lon="9.336957194072639"><ele>579.0</ele><time>2026-04-19T13:27:40Z</time></trkpt><trkpt lat="44.624399959689384" lon="9.336932536052878"><ele>579.0</ele><time>2026-04-19T13:27:41Z</time></trkpt><trkpt lat="44.624537689351676" lon="9.336847283085602"><ele>579.0</ele><time>2026-04-19T13:27:42Z</time></trkpt><trkpt lat="44.624663579873506" lon="9.336748733870927"><ele>579.0</ele><time>2026-04-19T13:27:43Z</time></trkpt><trkpt lat="44.6247630713089" lon="9.336689827326218"><ele>579.0</ele><time>2026-04-19T13:27:44Z</time></trkpt><trkpt lat="44.6248361988963" lon="9.336615952952673"><ele>579.0</ele><time>2026-04-19T13:27:45Z</time></trkpt><trkpt lat="44.62489238663794" lon="9.336543710584428"><ele>579.0</ele><time>2026-04-19T13:27:46Z</time></trkpt><trkpt lat="44.624930019894045" lon="9.33645230025383"><ele>579.0</ele><time>2026-04-19T13:27:47Z</time></trkpt><trkpt lat="44.62491124038157" lon="9.336342938654537"><ele>579.0</ele><time>2026-04-19T13:27:48Z</time></trkpt><trkpt lat="44.62484066600632" lon="9.336266684995989"><ele>579.0</ele><time>2026-04-19T13:27:49Z</time></trkpt><trkpt lat="44.62473565617355" lon="9.336295176730923"><ele>579.0</ele><time>2026-04-19T13:27:50Z</time></trkpt><trkpt lat="44.624648767612435" lon="9.336381801397046"><ele>579.0</ele><time>2026-04-19T13:27:51Z</time></trkpt><trkpt lat="44.6245521050645" lon="9.336454730115115"><ele>579.0</ele><time>2026-04-19T13:27:52Z</time></trkpt><trkpt lat="44.62444192813486" lon="9.336528769817235"><ele>579.0</ele><time>2026-04-19T13:27:53Z</time></trkpt><trkpt lat="44.624318965101715" lon="9.336595256523854"><ele>579.0</ele><time>2026-04-19T13:27:54Z</time></trkpt><trkpt lat="44.624221074276704" lon="9.33662328462152"><ele>579.0</ele><time>2026-04-19T13:27:55Z</time></trkpt><trkpt lat="44.62412865563447" lon="9.336612137159362"><ele>579.0</ele><time>2026-04-19T13:27:56Z</time></trkpt><trkpt lat="44.62404933451749" lon="9.33657997662618"><ele>579.0</ele><time>2026-04-19T13:27:57Z</time></trkpt><trkpt lat="44.62399815257481" lon="9.33651079366128"><ele>579.0</ele><time>2026-04-19T13:27:58Z</time></trkpt><trkpt lat="44.623981317389664" lon="9.336407588778645"><ele>579.0</ele><time>2026-04-19T13:27:59Z</time></trkpt><trkpt lat="44.62402665273258" lon="9.336313686816021"><ele>579.0</ele><time>2026-04-19T13:28:00Z</time></trkpt><trkpt lat="44.624077523866895" lon="9.3362512651119"><ele>572.0</ele><time>2026-04-19T13:28:01Z</time></trkpt><trkpt lat="44.62417626198827" lon="9.336193699210826"><ele>565.0</ele><time>2026-04-19T13:28:02Z</time></trkpt><trkpt lat="44.62429809041067" lon="9.336117301283258"><ele>558.0</ele><time>2026-04-19T13:28:03Z</time></trkpt><trkpt lat="44.624423924818885" lon="9.33605515117281"><ele>551.0</ele><time>2026-04-19T13:28:04Z</time></trkpt><trkpt lat="44.62456265139397" lon="9.336013619940095"><ele>549.4</ele><time>2026-04-19T13:28:05Z</time></trkpt><trkpt lat="44.624694946698646" lon="9.335981381294715"><ele>547.8</ele><time>2026-04-19T13:28:06Z</time></trkpt><trkpt lat="44.62480467561514" lon="9.335933179838904"><ele>546.1999999999999</ele><time>2026-04-19T13:28:07Z</time></trkpt><trkpt lat="44.62488032495691" lon="9.335931575819783"><ele>544.6</ele><time>2026-04-19T13:28:08Z</time></trkpt><trkpt lat="44.62494784648416" lon="9.335938769962016"><ele>543.0</ele><time>2026-04-19T13:28:09Z</time></trkpt><trkpt lat="44.62501713590116" lon="9.33601128752574"><ele>543.0</ele><time>2026-04-19T13:28:10Z</time></trkpt><trkpt lat="44.62506778362935" lon="9.336134284311086"><ele>543.0</ele><time>2026-04-19T13:28:11Z</time></trkpt><trkpt lat="44.625137580988095" lon="9.336264128497476"><ele>543.0</ele><time>2026-04-19T13:28:12Z</time></trkpt><trkpt lat="44.625205817802076" lon="9.336349489076108"><ele>543.0</ele><time>2026-04-19T13:28:13Z</time></trkpt><trkpt lat="44.62531149027085" lon="9.336375978172182"><ele>543.0</ele><time>2026-04-19T13:28:14Z</time></trkpt><trkpt lat="44.625436562878775" lon="9.336366948657313"><ele>541.6</ele><time>2026-04-19T13:28:15Z</time></trkpt><trkpt lat="44.62556604841346" lon="9.336368999725911"><ele>540.1999999999999</ele><time>2026-04-19T13:28:16Z</time></trkpt><trkpt lat="44.62566525041871" lon="9.336470731413769"><ele>538.8</ele><time>2026-04-19T13:28:17Z</time></trkpt><trkpt lat="44.62576194096347" lon="9.336500205390022"><ele>537.4</ele><time>2026-04-19T13:28:18Z</time></trkpt><trkpt lat="44.62585540492692" lon="9.336491205819124"><ele>536.0</ele><time>2026-04-19T13:28:19Z</time></trkpt><trkpt lat="44.625950977712534" lon="9.336433521161663"><ele>536.0</ele><time>2026-04-19T13:28:20Z</time></trkpt><trkpt lat="44.626039364012726" lon="9.336368559404006"><ele>536.0</ele><time>2026-04-19T13:28:21Z</time></trkpt><trkpt lat="44.626104012439356" lon="9.3362896919679"><ele>536.0</ele><time>2026-04-19T13:28:22Z</time></trkpt><trkpt lat="44.626163347202905" lon="9.33623351446654"><ele>536.0</ele><time>2026-04-19T13:28:23Z</time></trkpt><trkpt lat="44.62621875716471" lon="9.336162666137465"><ele>536.0</ele><time>2026-04-19T13:28:24Z</time></trkpt><trkpt lat="44.626223146577516" lon="9.336045088397459"><ele>536.0</ele><time>2026-04-19T13:28:25Z</time></trkpt><trkpt lat="44.62614932776015" lon="9.335940656815952"><ele>536.0</ele><time>2026-04-19T13:28:26Z</time></trkpt><trkpt lat="44.626046511523725" lon="9.335941211184531"><ele>536.0</ele><time>2026-04-19T13:28:27Z</time></trkpt><trkpt lat="44.62595482570418" lon="9.336050558717059"><ele>536.0</ele><time>2026-04-19T13:28:28Z</time></trkpt><trkpt lat="44.62585354095185" lon="9.336077106253443"><ele>536.0</ele><time>2026-04-19T13:28:29Z</time></trkpt><trkpt lat="44.62574219702139" lon="9.33609378786937"><ele>536.0</ele><time>2026-04-19T13:28:30Z</time></trkpt><trkpt lat="44.625629756365" lon="9.335990752787474"><ele>536.0</ele><time>2026-04-19T13:28:31Z</time></trkpt><trkpt lat="44.625496955159456" lon="9.335922879688079"><ele>536.0</ele><time>2026-04-19T13:28:32Z</time></trkpt><trkpt lat="44.625355756550555" lon="9.335824119713214"><ele>536.0</ele><time>2026-04-19T13:28:32.999Z</time></trkpt><trkpt lat="44.62521343571223" lon="9.335735344475879"><ele>537.75</ele><time>2026-04-19T13:28:33.999Z</time></trkpt><trkpt lat="44.625086440074206" lon="9.335629409349487"><ele>539.5</ele><time>2026-04-19T13:28:34.999Z</time></trkpt><trkpt lat="44.62496434062765" lon="9.335579875683317"><ele>541.25</ele><time>2026-04-19T13:28:35.999Z</time></trkpt><trkpt lat="44.6248648397993" lon="9.335501702826512"><ele>543.0</ele><time>2026-04-19T13:28:36.999Z</time></trkpt><trkpt lat="44.6247385123746" lon="9.335481694903235"><ele>535.0</ele><time>2026-04-19T13:28:37.999Z</time></trkpt><trkpt lat="44.62460892600999" lon="9.335425067717393"><ele>527.0</ele><time>2026-04-19T13:28:38.999Z</time></trkpt><trkpt lat="44.62446138481683" lon="9.335389513653281"><ele>519.0</ele><time>2026-04-19T13:28:39.999Z</time></trkpt><trkpt lat="44.62431875271606" lon="9.335367371524669"><ele>511.0</ele><time>2026-04-19T13:28:40.999Z</time></trkpt><trkpt lat="44.624186331806584" lon="9.335336395841953"><ele>511.0</ele><time>2026-04-19T13:28:41.999Z</time></trkpt><trkpt lat="44.62405831232274" lon="9.335315291375498"><ele>511.0</ele><time>2026-04-19T13:28:42.999Z</time></trkpt><trkpt lat="44.62393937894806" lon="9.33529716908632"><ele>511.0</ele><time>2026-04-19T13:28:43.999Z</time></trkpt><trkpt lat="44.62382413423851" lon="9.3352835085685"><ele>511.0</ele><time>2026-04-19T13:28:44.999Z</time></trkpt><trkpt lat="44.62369343139318" lon="9.335277137111921"><ele>511.20000000000005</ele><time>2026-04-19T13:28:45.999Z</time></trkpt><trkpt lat="44.62358463822094" lon="9.335260851273608"><ele>511.40000000000003</ele><time>2026-04-19T13:28:46.999Z</time></trkpt><trkpt lat="44.623498026414055" lon="9.335281406083109"><ele>511.6</ele><time>2026-04-19T13:28:47.999Z</time></trkpt><trkpt lat="44.623409875091475" lon="9.335280087256297"><ele>511.8</ele><time>2026-04-19T13:28:48.999Z</time></trkpt><trkpt lat="44.623321877613506" lon="9.335234155357115"><ele>512.0</ele><time>2026-04-19T13:28:49.999Z</time></trkpt><trkpt lat="44.62323451076704" lon="9.335138178758067"><ele>512.0</ele><time>2026-04-19T13:28:50.999Z</time></trkpt><trkpt lat="44.62315530515136" lon="9.33500103986971"><ele>512.0</ele><time>2026-04-19T13:28:51.999Z</time></trkpt><trkpt lat="44.62305440492196" lon="9.33486202916615"><ele>512.0</ele><time>2026-04-19T13:28:52.999Z</time></trkpt><trkpt lat="44.62296542269061" lon="9.334777992882534"><ele>512.0</ele><time>2026-04-19T13:28:53.999Z</time></trkpt><trkpt lat="44.62289784491864" lon="9.334698711020025"><ele>512.2</ele><time>2026-04-19T13:28:54.999Z</time></trkpt><trkpt lat="44.62281068807829" lon="9.3346533409876"><ele>512.4000000000001</ele><time>2026-04-19T13:28:55.999Z</time></trkpt><trkpt lat="44.62271955289927" lon="9.334643208396031"><ele>512.5999999999999</ele><time>2026-04-19T13:28:56.999Z</time></trkpt><trkpt lat="44.62262407084323" lon="9.334690237107951"><ele>512.8</ele><time>2026-04-19T13:28:57.999Z</time></trkpt><trkpt lat="44.6225385700445" lon="9.334762873497416"><ele>513.0</ele><time>2026-04-19T13:28:58.999Z</time></trkpt><trkpt lat="44.62246671923051" lon="9.33484231735188"><ele>513.0</ele><time>2026-04-19T13:28:59.999Z</time></trkpt><trkpt lat="44.62239793710372" lon="9.33490509877474"><ele>513.0</ele><time>2026-04-19T13:29:00.999Z</time></trkpt><trkpt lat="44.62230906534817" lon="9.334978407261481"><ele>513.0</ele><time>2026-04-19T13:29:02.999Z</time></trkpt><trkpt lat="44.62223251359916" lon="9.335010206732711"><ele>513.0</ele><time>2026-04-19T13:29:04.999Z</time></trkpt><trkpt lat="44.62214356310408" lon="9.334951268366215"><ele>513.0</ele><time>2026-04-19T13:29:06.999Z</time></trkpt><trkpt lat="44.62214008314195" lon="9.334781171395178"><ele>511.2</ele><time>2026-04-19T13:29:08.999Z</time></trkpt><trkpt lat="44.622177309636136" lon="9.33469762439732"><ele>509.4</ele><time>2026-04-19T13:29:09.999Z</time></trkpt><trkpt lat="44.62227077177353" lon="9.334587109578846"><ele>507.59999999999997</ele><time>2026-04-19T13:29:11.999Z</time></trkpt><trkpt lat="44.62232435259941" lon="9.334468639633068"><ele>505.79999999999995</ele><time>2026-04-19T13:29:12.999Z</time></trkpt><trkpt lat="44.62238117346678" lon="9.334315486323353"><ele>504.0</ele><time>2026-04-19T13:29:13.999Z</time></trkpt><trkpt lat="44.62242520543336" lon="9.334194510967148"><ele>504.0</ele><time>2026-04-19T13:29:14.999Z</time></trkpt><trkpt lat="44.622466550661535" lon="9.33409615640879"><ele>504.0</ele><time>2026-04-19T13:29:15.999Z</time></trkpt><trkpt lat="44.62252213685163" lon="9.333965262392436"><ele>504.0</ele><time>2026-04-19T13:29:16.999Z</time></trkpt><trkpt lat="44.62259810584117" lon="9.333839908348503"><ele>504.0</ele><time>2026-04-19T13:29:17.999Z</time></trkpt><trkpt lat="44.622673044436475" lon="9.333750564528371"><ele>504.0</ele><time>2026-04-19T13:29:19Z</time></trkpt><trkpt lat="44.62273111087389" lon="9.333664507775577"><ele>504.0</ele><time>2026-04-19T13:29:20Z</time></trkpt><trkpt lat="44.62279326996137" lon="9.33358953891914"><ele>504.0</ele><time>2026-04-19T13:29:21Z</time></trkpt><trkpt lat="44.62286684423116" lon="9.333546244245355"><ele>504.0</ele><time>2026-04-19T13:29:22Z</time></trkpt><trkpt lat="44.622968829697065" lon="9.333541165339524"><ele>504.0</ele><time>2026-04-19T13:29:23Z</time></trkpt><trkpt lat="44.623063456212115" lon="9.33353811828519"><ele>504.0</ele><time>2026-04-19T13:29:24Z</time></trkpt><trkpt lat="44.62313909023578" lon="9.333540541070779"><ele>504.0</ele><time>2026-04-19T13:29:25Z</time></trkpt><trkpt lat="44.623208697618274" lon="9.333572561606488"><ele>501.79999999999995</ele><time>2026-04-19T13:29:26Z</time></trkpt><trkpt lat="44.62327548209391" lon="9.333626191212472"><ele>499.59999999999997</ele><time>2026-04-19T13:29:27Z</time></trkpt><trkpt lat="44.623355375129925" lon="9.33365352403226"><ele>497.4</ele><time>2026-04-19T13:29:28Z</time></trkpt><trkpt lat="44.62345906964341" lon="9.3337069739138"><ele>495.2</ele><time>2026-04-19T13:29:30Z</time></trkpt><trkpt lat="44.623533164363884" lon="9.333723452875978"><ele>493.0</ele><time>2026-04-19T13:29:32Z</time></trkpt><trkpt lat="44.623601215646815" lon="9.333577743630759"><ele>493.0</ele><time>2026-04-19T13:29:34Z</time></trkpt><trkpt lat="44.6236390886669" lon="9.333449160256821"><ele>492.99999999999994</ele><time>2026-04-19T13:29:35Z</time></trkpt><trkpt lat="44.623683589950424" lon="9.333335495694849"><ele>492.99999999999994</ele><time>2026-04-19T13:29:36Z</time></trkpt><trkpt lat="44.62372237196659" lon="9.333197353324465"><ele>493.0</ele><time>2026-04-19T13:29:37Z</time></trkpt><trkpt lat="44.623747645079256" lon="9.333086333909575"><ele>493.0</ele><time>2026-04-19T13:29:38Z</time></trkpt><trkpt lat="44.6237820200696" lon="9.332969726612827"><ele>490.79999999999995</ele><time>2026-04-19T13:29:39Z</time></trkpt><trkpt lat="44.62380631181546" lon="9.332840375031756"><ele>488.59999999999997</ele><time>2026-04-19T13:29:40Z</time></trkpt><trkpt lat="44.62381212915553" lon="9.332708757805289"><ele>486.40000000000003</ele><time>2026-04-19T13:29:41Z</time></trkpt><trkpt lat="44.62383202994192" lon="9.332593687751267"><ele>484.20000000000005</ele><time>2026-04-19T13:29:42Z</time></trkpt><trkpt lat="44.623828872244644" lon="9.33245893443658"><ele>482.0</ele><time>2026-04-19T13:29:43Z</time></trkpt><trkpt lat="44.623819900618166" lon="9.332326896024703"><ele>481.99999999999994</ele><time>2026-04-19T13:29:44Z</time></trkpt><trkpt lat="44.62389213235723" lon="9.332131004684891"><ele>482.0</ele><time>2026-04-19T13:29:46Z</time></trkpt><trkpt lat="44.623926682878" lon="9.332046078892942"><ele>482.0</ele><time>2026-04-19T13:29:47Z</time></trkpt><trkpt lat="44.623957942532265" lon="9.3319629400275"><ele>482.0</ele><time>2026-04-19T13:29:48Z</time></trkpt><trkpt lat="44.623993684596286" lon="9.331876230316453"><ele>481.99999999999994</ele><time>2026-04-19T13:29:49Z</time></trkpt><trkpt lat="44.62400385949174" lon="9.331767998702507"><ele>482.0</ele><time>2026-04-19T13:29:50Z</time></trkpt><trkpt lat="44.624024506913216" lon="9.331679116511923"><ele>482.0</ele><time>2026-04-19T13:29:51Z</time></trkpt><trkpt lat="44.624053251939884" lon="9.331555375997322"><ele>482.00000000000006</ele><time>2026-04-19T13:29:53Z</time></trkpt><trkpt lat="44.62405675433634" lon="9.33144993677942"><ele>482.00000000000006</ele><time>2026-04-19T13:29:55Z</time></trkpt><trkpt lat="44.62395041755162" lon="9.331383379374131"><ele>482.0</ele><time>2026-04-19T13:29:56Z</time></trkpt><trkpt lat="44.62384033287881" lon="9.331328967891391"><ele>482.0</ele><time>2026-04-19T13:29:57Z</time></trkpt><trkpt lat="44.62374001517737" lon="9.331271499989908"><ele>481.0</ele><time>2026-04-19T13:29:58Z</time></trkpt><trkpt lat="44.62363117524982" lon="9.331207959077977"><ele>480.0</ele><time>2026-04-19T13:29:59Z</time></trkpt><trkpt lat="44.623525337654144" lon="9.331144242153563"><ele>479.0</ele><time>2026-04-19T13:30:00Z</time></trkpt><trkpt lat="44.62342351105445" lon="9.33108084660197"><ele>478.0</ele><time>2026-04-19T13:30:01Z</time></trkpt><trkpt lat="44.623311346023264" lon="9.331018370344337"><ele>478.0</ele><time>2026-04-19T13:30:02Z</time></trkpt><trkpt lat="44.623194255921725" lon="9.33095215935364"><ele>478.0</ele><time>2026-04-19T13:30:03Z</time></trkpt><trkpt lat="44.623071550111796" lon="9.330880133850163"><ele>478.0</ele><time>2026-04-19T13:30:04Z</time></trkpt><trkpt lat="44.622937151308435" lon="9.330792590322723"><ele>478.0</ele><time>2026-04-19T13:30:05Z</time></trkpt><trkpt lat="44.62281097053785" lon="9.330697933199357"><ele>478.33333333333337</ele><time>2026-04-19T13:30:06Z</time></trkpt><trkpt lat="44.62268145120222" lon="9.33059363870383"><ele>478.66666666666663</ele><time>2026-04-19T13:30:07Z</time></trkpt><trkpt lat="44.622552091894974" lon="9.330477925885228"><ele>479.0</ele><time>2026-04-19T13:30:08Z</time></trkpt><trkpt lat="44.62242384554764" lon="9.33035379797759"><ele>480.3333333333333</ele><time>2026-04-19T13:30:09Z</time></trkpt><trkpt lat="44.62229724949106" lon="9.330215442454273"><ele>481.66666666666663</ele><time>2026-04-19T13:30:10Z</time></trkpt><trkpt lat="44.62217605478113" lon="9.330070868241682"><ele>483.0</ele><time>2026-04-19T13:30:11Z</time></trkpt><trkpt lat="44.62205430446173" lon="9.329909174635715"><ele>482.66666666666663</ele><time>2026-04-19T13:30:12Z</time></trkpt><trkpt lat="44.62193780849668" lon="9.329738929617715"><ele>482.3333333333333</ele><time>2026-04-19T13:30:13Z</time></trkpt><trkpt lat="44.62183273356262" lon="9.32957216469031"><ele>482.0</ele><time>2026-04-19T13:30:14Z</time></trkpt><trkpt lat="44.62173328857146" lon="9.329397847455974"><ele>483.3333333333333</ele><time>2026-04-19T13:30:15Z</time></trkpt><trkpt lat="44.62163494271513" lon="9.329213595241912"><ele>484.66666666666663</ele><time>2026-04-19T13:30:16Z</time></trkpt><trkpt lat="44.62154439244245" lon="9.329012178166538"><ele>486.0</ele><time>2026-04-19T13:30:17Z</time></trkpt><trkpt lat="44.62145095614675" lon="9.32880544299075"><ele>487.33333333333337</ele><time>2026-04-19T13:30:18Z</time></trkpt><trkpt lat="44.62136128945616" lon="9.328595693828381"><ele>488.6666666666667</ele><time>2026-04-19T13:30:19Z</time></trkpt><trkpt lat="44.62126807598977" lon="9.328378770482923"><ele>490.0</ele><time>2026-04-19T13:30:20Z</time></trkpt><trkpt lat="44.62117837723268" lon="9.328161713230216"><ele>487.6666666666667</ele><time>2026-04-19T13:30:21Z</time></trkpt><trkpt lat="44.621087706585676" lon="9.327945208247149"><ele>485.33333333333337</ele><time>2026-04-19T13:30:22Z</time></trkpt><trkpt lat="44.62099444348254" lon="9.327726354553876"><ele>483.0</ele><time>2026-04-19T13:30:23Z</time></trkpt><trkpt lat="44.62091039722339" lon="9.327520840308269"><ele>483.0</ele><time>2026-04-19T13:30:24Z</time></trkpt><trkpt lat="44.62082484471601" lon="9.327318001095005"><ele>483.0</ele><time>2026-04-19T13:30:25Z</time></trkpt><trkpt lat="44.62073684217336" lon="9.327115305465135"><ele>483.0</ele><time>2026-04-19T13:30:26Z</time></trkpt><trkpt lat="44.62064409756465" lon="9.326911923955027"><ele>483.33333333333337</ele><time>2026-04-19T13:30:27Z</time></trkpt><trkpt lat="44.62054402258669" lon="9.326721378728916"><ele>483.6666666666667</ele><time>2026-04-19T13:30:28Z</time></trkpt><trkpt lat="44.62043367030006" lon="9.326532646329863"><ele>484.0</ele><time>2026-04-19T13:30:29Z</time></trkpt><trkpt lat="44.6203293340602" lon="9.326357545707019"><ele>485.33333333333337</ele><time>2026-04-19T13:30:30Z</time></trkpt><trkpt lat="44.620215873226506" lon="9.326186050953517"><ele>486.66666666666663</ele><time>2026-04-19T13:30:31Z</time></trkpt><trkpt lat="44.62009764765107" lon="9.32602136002072"><ele>488.0</ele><time>2026-04-19T13:30:32Z</time></trkpt><trkpt lat="44.619979501127744" lon="9.325853403324631"><ele>488.0</ele><time>2026-04-19T13:30:32.999Z</time></trkpt><trkpt lat="44.61986133538013" lon="9.325692299011685"><ele>488.0</ele><time>2026-04-19T13:30:33.999Z</time></trkpt><trkpt lat="44.61974285754459" lon="9.325530391292256"><ele>488.0</ele><time>2026-04-19T13:30:34.999Z</time></trkpt><trkpt lat="44.61962411619007" lon="9.325367675581806"><ele>488.0</ele><time>2026-04-19T13:30:35.999Z</time></trkpt><trkpt lat="44.619501233430825" lon="9.325201389319878"><ele>488.0</ele><time>2026-04-19T13:30:36.999Z</time></trkpt><trkpt lat="44.619374523693175" lon="9.325032850108311"><ele>488.0</ele><time>2026-04-19T13:30:37.999Z</time></trkpt><trkpt lat="44.61924684000444" lon="9.324863208214735"><ele>493.3333333333333</ele><time>2026-04-19T13:30:38.999Z</time></trkpt><trkpt lat="44.61911727064853" lon="9.32468971285693"><ele>498.66666666666663</ele><time>2026-04-19T13:30:39.999Z</time></trkpt><trkpt lat="44.61898883733353" lon="9.324516442923"><ele>504.0</ele><time>2026-04-19T13:30:40.999Z</time></trkpt><trkpt lat="44.618858832503804" lon="9.324339385670973"><ele>504.0</ele><time>2026-04-19T13:30:41.999Z</time></trkpt><trkpt lat="44.61872976005334" lon="9.324160814088875"><ele>504.0</ele><time>2026-04-19T13:30:42.999Z</time></trkpt><trkpt lat="44.61861126376703" lon="9.323993566229403"><ele>504.0</ele><time>2026-04-19T13:30:43.999Z</time></trkpt><trkpt lat="44.61849741968006" lon="9.323837801666475"><ele>502.33333333333337</ele><time>2026-04-19T13:30:44.999Z</time></trkpt><trkpt lat="44.618376393083224" lon="9.32368191646759"><ele>500.6666666666667</ele><time>2026-04-19T13:30:45.999Z</time></trkpt><trkpt lat="44.61825619665136" lon="9.323524454332587"><ele>499.0</ele><time>2026-04-19T13:30:46.999Z</time></trkpt><trkpt lat="44.6181382354333" lon="9.3233701165735"><ele>499.0</ele><time>2026-04-19T13:30:47.999Z</time></trkpt><trkpt lat="44.61801525028518" lon="9.323211274887253"><ele>499.0</ele><time>2026-04-19T13:30:48.999Z</time></trkpt><trkpt lat="44.61788812554837" lon="9.323043503941298"><ele>499.0</ele><time>2026-04-19T13:30:49.999Z</time></trkpt><trkpt lat="44.61775934926516" lon="9.322854859308038"><ele>496.0</ele><time>2026-04-19T13:30:50.999Z</time></trkpt><trkpt lat="44.61761859743361" lon="9.322666804698526"><ele>493.0</ele><time>2026-04-19T13:30:51.999Z</time></trkpt><trkpt lat="44.61748224396374" lon="9.322484626675331"><ele>490.0</ele><time>2026-04-19T13:30:52.999Z</time></trkpt><trkpt lat="44.61735334925114" lon="9.322309860635832"><ele>490.0</ele><time>2026-04-19T13:30:53.999Z</time></trkpt><trkpt lat="44.617224347378595" lon="9.322150209228333"><ele>490.0</ele><time>2026-04-19T13:30:55.999Z</time></trkpt><trkpt lat="44.617100464233665" lon="9.322022462619298"><ele>490.0</ele><time>2026-04-19T13:30:56.999Z</time></trkpt><trkpt lat="44.616964508113114" lon="9.32191934245034"><ele>494.0</ele><time>2026-04-19T13:30:57.999Z</time></trkpt><trkpt lat="44.61681834851526" lon="9.321837144013056"><ele>498.0</ele><time>2026-04-19T13:30:58.999Z</time></trkpt><trkpt lat="44.616661286979664" lon="9.321777020208211"><ele>502.0</ele><time>2026-04-19T13:30:59.999Z</time></trkpt><trkpt lat="44.61649972076985" lon="9.321747961949299"><ele>502.0</ele><time>2026-04-19T13:31:00.999Z</time></trkpt><trkpt lat="44.61633061471504" lon="9.32173879719491"><ele>502.0</ele><time>2026-04-19T13:31:01.999Z</time></trkpt><trkpt lat="44.616155269970804" lon="9.321746876432345"><ele>502.0</ele><time>2026-04-19T13:31:02.999Z</time></trkpt><trkpt lat="44.61597327755106" lon="9.321759985645343"><ele>504.33333333333337</ele><time>2026-04-19T13:31:03.999Z</time></trkpt><trkpt lat="44.61578863771396" lon="9.321774521068155"><ele>506.66666666666663</ele><time>2026-04-19T13:31:04.999Z</time></trkpt><trkpt lat="44.61562387318838" lon="9.321790980860458"><ele>509.0</ele><time>2026-04-19T13:31:05.999Z</time></trkpt><trkpt lat="44.61547289841062" lon="9.321797571330174"><ele>509.0</ele><time>2026-04-19T13:31:06.999Z</time></trkpt><trkpt lat="44.61532216108364" lon="9.32179242292767"><ele>509.0</ele><time>2026-04-19T13:31:07.999Z</time></trkpt><trkpt lat="44.615168100789" lon="9.321743487260749"><ele>509.0</ele><time>2026-04-19T13:31:08.999Z</time></trkpt><trkpt lat="44.615023285068276" lon="9.321658025586643"><ele>509.5</ele><time>2026-04-19T13:31:09.999Z</time></trkpt><trkpt lat="44.61490184890709" lon="9.321547538730057"><ele>510.0</ele><time>2026-04-19T13:31:10.999Z</time></trkpt><trkpt lat="44.61479232900843" lon="9.32143410676837"><ele>510.5</ele><time>2026-04-19T13:31:11.999Z</time></trkpt><trkpt lat="44.61469270481389" lon="9.321359583367455"><ele>511.0</ele><time>2026-04-19T13:31:12.999Z</time></trkpt><trkpt lat="44.61457165672539" lon="9.321351404718838"><ele>508.0</ele><time>2026-04-19T13:31:13.999Z</time></trkpt><trkpt lat="44.614421854015326" lon="9.32135180108369"><ele>505.0</ele><time>2026-04-19T13:31:14.999Z</time></trkpt><trkpt lat="44.61424681523268" lon="9.32137775773084"><ele>502.0</ele><time>2026-04-19T13:31:15.999Z</time></trkpt><trkpt lat="44.61405704094155" lon="9.321428844770974"><ele>507.0</ele><time>2026-04-19T13:31:16.999Z</time></trkpt><trkpt lat="44.61387034551602" lon="9.321488781511384"><ele>512.0</ele><time>2026-04-19T13:31:17.999Z</time></trkpt><trkpt lat="44.61370248311678" lon="9.321531209867375"><ele>517.0</ele><time>2026-04-19T13:31:18.999Z</time></trkpt><trkpt lat="44.613556117490575" lon="9.32159366557285"><ele>517.0</ele><time>2026-04-19T13:31:19.999Z</time></trkpt><trkpt lat="44.613424973139885" lon="9.321631752544109"><ele>517.0</ele><time>2026-04-19T13:31:20.999Z</time></trkpt><trkpt lat="44.61330984394769" lon="9.321670441710763"><ele>517.0</ele><time>2026-04-19T13:31:21.999Z</time></trkpt><trkpt lat="44.61320824193484" lon="9.321678998110638"><ele>517.0</ele><time>2026-04-19T13:31:22.999Z</time></trkpt><trkpt lat="44.6131181190528" lon="9.321641610769847"><ele>517.0</ele><time>2026-04-19T13:31:23.999Z</time></trkpt><trkpt lat="44.613053810919915" lon="9.321552481269645"><ele>517.0</ele><time>2026-04-19T13:31:25Z</time></trkpt><trkpt lat="44.613012369039296" lon="9.321415854411244"><ele>517.0</ele><time>2026-04-19T13:31:26Z</time></trkpt><trkpt lat="44.61299772991036" lon="9.32123104584727"><ele>517.0</ele><time>2026-04-19T13:31:27Z</time></trkpt><trkpt lat="44.6129652855093" lon="9.321013477582207"><ele>517.0</ele><time>2026-04-19T13:31:28Z</time></trkpt><trkpt lat="44.6129294692716" lon="9.320818521691576"><ele>514.0</ele><time>2026-04-19T13:31:29Z</time></trkpt><trkpt lat="44.61288372334135" lon="9.320657976767558"><ele>511.0</ele><time>2026-04-19T13:31:30Z</time></trkpt><trkpt lat="44.61280726549864" lon="9.320510306299251"><ele>508.0</ele><time>2026-04-19T13:31:31Z</time></trkpt><trkpt lat="44.61268287901283" lon="9.32038897277528"><ele>505.0</ele><time>2026-04-19T13:31:32Z</time></trkpt><trkpt lat="44.61255136541585" lon="9.320274340919529"><ele>505.0</ele><time>2026-04-19T13:31:33Z</time></trkpt><trkpt lat="44.61241445067331" lon="9.320167884286402"><ele>505.0</ele><time>2026-04-19T13:31:34Z</time></trkpt><trkpt lat="44.61227836453266" lon="9.320062514139515"><ele>505.0</ele><time>2026-04-19T13:31:35Z</time></trkpt><trkpt lat="44.612171016426814" lon="9.319972928484207"><ele>505.0</ele><time>2026-04-19T13:31:36Z</time></trkpt><trkpt lat="44.61207567149956" lon="9.319897001757685"><ele>505.0</ele><time>2026-04-19T13:31:37Z</time></trkpt><trkpt lat="44.611997488290086" lon="9.319817476376198"><ele>505.0</ele><time>2026-04-19T13:31:38Z</time></trkpt><trkpt lat="44.61193316886516" lon="9.319728205363907"><ele>505.0</ele><time>2026-04-19T13:31:39Z</time></trkpt><trkpt lat="44.61190876823247" lon="9.319596368649796"><ele>505.0</ele><time>2026-04-19T13:31:40Z</time></trkpt><trkpt lat="44.61192706994956" lon="9.319436741825884"><ele>505.0</ele><time>2026-04-19T13:31:41Z</time></trkpt><trkpt lat="44.61192608302644" lon="9.319265814555674"><ele>505.0</ele><time>2026-04-19T13:31:42Z</time></trkpt><trkpt lat="44.61193001456748" lon="9.3191104650865"><ele>505.0</ele><time>2026-04-19T13:31:43Z</time></trkpt><trkpt lat="44.61192463630563" lon="9.318985557843176"><ele>505.0</ele><time>2026-04-19T13:31:44Z</time></trkpt><trkpt lat="44.61187998531958" lon="9.318881993630457"><ele>505.0</ele><time>2026-04-19T13:31:45Z</time></trkpt><trkpt lat="44.61179657596007" lon="9.318779152306885"><ele>505.0</ele><time>2026-04-19T13:31:46Z</time></trkpt><trkpt lat="44.61166656166214" lon="9.318695877970399"><ele>514.3333333333334</ele><time>2026-04-19T13:31:47Z</time></trkpt><trkpt lat="44.61152445570927" lon="9.318573058476778"><ele>523.6666666666666</ele><time>2026-04-19T13:31:48Z</time></trkpt><trkpt lat="44.61139421746357" lon="9.318454980906951"><ele>533.0</ele><time>2026-04-19T13:31:49Z</time></trkpt><trkpt lat="44.61128773199012" lon="9.318335720199341"><ele>533.0</ele><time>2026-04-19T13:31:50Z</time></trkpt><trkpt lat="44.611180079652996" lon="9.318257685220775"><ele>533.0</ele><time>2026-04-19T13:31:51Z</time></trkpt><trkpt lat="44.61108466718711" lon="9.318193074718499"><ele>533.0</ele><time>2026-04-19T13:31:52Z</time></trkpt><trkpt lat="44.61099571265777" lon="9.318137542979523"><ele>533.0</ele><time>2026-04-19T13:31:53Z</time></trkpt><trkpt lat="44.610896829212095" lon="9.318105413713306"><ele>533.0</ele><time>2026-04-19T13:31:54Z</time></trkpt><trkpt lat="44.610825502115475" lon="9.31803605700553"><ele>528.8</ele><time>2026-04-19T13:31:55Z</time></trkpt><trkpt lat="44.61078410731688" lon="9.317909007967009"><ele>524.5999999999999</ele><time>2026-04-19T13:31:56Z</time></trkpt><trkpt lat="44.610770975735946" lon="9.317757366072865"><ele>520.4000000000001</ele><time>2026-04-19T13:31:57Z</time></trkpt><trkpt lat="44.61078567835446" lon="9.317597062245722"><ele>516.2</ele><time>2026-04-19T13:31:58Z</time></trkpt><trkpt lat="44.61080046544416" lon="9.317466583089917"><ele>512.0</ele><time>2026-04-19T13:31:59Z</time></trkpt><trkpt lat="44.61080390594032" lon="9.317335147378774"><ele>513.0</ele><time>2026-04-19T13:32:00Z</time></trkpt><trkpt lat="44.61079411284294" lon="9.317191032930578"><ele>514.0</ele><time>2026-04-19T13:32:01Z</time></trkpt><trkpt lat="44.61077660119952" lon="9.31703027775083"><ele>515.0</ele><time>2026-04-19T13:32:02Z</time></trkpt><trkpt lat="44.61076047723715" lon="9.316865024889337"><ele>516.0</ele><time>2026-04-19T13:32:03Z</time></trkpt><trkpt lat="44.61076491387588" lon="9.31671472747668"><ele>517.0</ele><time>2026-04-19T13:32:04Z</time></trkpt><trkpt lat="44.61080434571517" lon="9.316554841550895"><ele>517.25</ele><time>2026-04-19T13:32:05Z</time></trkpt><trkpt lat="44.610860244940646" lon="9.31638285650574"><ele>517.5</ele><time>2026-04-19T13:32:06Z</time></trkpt><trkpt lat="44.610879876403665" lon="9.31621353071762"><ele>517.75</ele><time>2026-04-19T13:32:07Z</time></trkpt><trkpt lat="44.61085894073575" lon="9.316046122333677"><ele>518.0</ele><time>2026-04-19T13:32:08Z</time></trkpt><trkpt lat="44.610824511493824" lon="9.315866603748203"><ele>518.0</ele><time>2026-04-19T13:32:09Z</time></trkpt><trkpt lat="44.61078257898426" lon="9.315680720568778"><ele>518.0</ele><time>2026-04-19T13:32:10Z</time></trkpt><trkpt lat="44.61074569237109" lon="9.315473782540044"><ele>518.0</ele><time>2026-04-19T13:32:11Z</time></trkpt><trkpt lat="44.61068842445522" lon="9.31526827863659"><ele>518.0</ele><time>2026-04-19T13:32:12Z</time></trkpt><trkpt lat="44.61062772572457" lon="9.315053044372995"><ele>518.25</ele><time>2026-04-19T13:32:13Z</time></trkpt><trkpt lat="44.61057928218662" lon="9.314854801173007"><ele>518.5</ele><time>2026-04-19T13:32:14Z</time></trkpt><trkpt lat="44.61053960854844" lon="9.31467120139535"><ele>518.75</ele><time>2026-04-19T13:32:15Z</time></trkpt><trkpt lat="44.61051266524288" lon="9.314467607902783"><ele>519.0</ele><time>2026-04-19T13:32:16Z</time></trkpt><trkpt lat="44.61051339175034" lon="9.314250563954168"><ele>521.6666666666666</ele><time>2026-04-19T13:32:17Z</time></trkpt><trkpt lat="44.61052173461695" lon="9.31403087105221"><ele>524.3333333333333</ele><time>2026-04-19T13:32:18Z</time></trkpt><trkpt lat="44.610525715685604" lon="9.313806149119134"><ele>527.0</ele><time>2026-04-19T13:32:19Z</time></trkpt><trkpt lat="44.61051929829284" lon="9.313565867371182"><ele>527.0</ele><time>2026-04-19T13:32:20Z</time></trkpt><trkpt lat="44.610491138251966" lon="9.313332703803534"><ele>527.0</ele><time>2026-04-19T13:32:21Z</time></trkpt><trkpt lat="44.61044553115087" lon="9.313111886006146"><ele>527.0</ele><time>2026-04-19T13:32:22Z</time></trkpt><trkpt lat="44.610393739683865" lon="9.312906510047933"><ele>529.3333333333333</ele><time>2026-04-19T13:32:23Z</time></trkpt><trkpt lat="44.61034747239461" lon="9.312697486751786"><ele>531.6666666666666</ele><time>2026-04-19T13:32:24Z</time></trkpt><trkpt lat="44.61028888542891" lon="9.312489199254172"><ele>534.0</ele><time>2026-04-19T13:32:25Z</time></trkpt><trkpt lat="44.61021769265343" lon="9.312288428447355"><ele>528.25</ele><time>2026-04-19T13:32:26Z</time></trkpt><trkpt lat="44.61016473972707" lon="9.312113957421053"><ele>522.5</ele><time>2026-04-19T13:32:27Z</time></trkpt><trkpt lat="44.61012709184135" lon="9.311948259318878"><ele>516.75</ele><time>2026-04-19T13:32:28Z</time></trkpt><trkpt lat="44.610103033850464" lon="9.311787317738455"><ele>511.0</ele><time>2026-04-19T13:32:29Z</time></trkpt><trkpt lat="44.61013275526407" lon="9.311616526529406"><ele>511.0</ele><time>2026-04-19T13:32:30Z</time></trkpt><trkpt lat="44.61020090509863" lon="9.311439401490432"><ele>511.0</ele><time>2026-04-19T13:32:31Z</time></trkpt><trkpt lat="44.61029547258222" lon="9.311279677037893"><ele>511.0</ele><time>2026-04-19T13:32:32Z</time></trkpt><trkpt lat="44.610405604700325" lon="9.311119132347436"><ele>517.6666666666667</ele><time>2026-04-19T13:32:33Z</time></trkpt><trkpt lat="44.61050888425281" lon="9.310961464298156"><ele>524.3333333333334</ele><time>2026-04-19T13:32:34Z</time></trkpt><trkpt lat="44.610620385816226" lon="9.31078916056897"><ele>531.0</ele><time>2026-04-19T13:32:35Z</time></trkpt><trkpt lat="44.61072981195716" lon="9.310619671126654"><ele>527.0</ele><time>2026-04-19T13:32:35.999Z</time></trkpt><trkpt lat="44.61081981529438" lon="9.310478756085583"><ele>523.0</ele><time>2026-04-19T13:32:36.999Z</time></trkpt><trkpt lat="44.610916477937295" lon="9.310331790933834"><ele>519.0</ele><time>2026-04-19T13:32:37.999Z</time></trkpt><trkpt lat="44.61101720245894" lon="9.310186363755735"><ele>515.0</ele><time>2026-04-19T13:32:38.999Z</time></trkpt><trkpt lat="44.61109295666549" lon="9.31006313863785"><ele>515.0</ele><time>2026-04-19T13:32:39.999Z</time></trkpt><trkpt lat="44.6111394004388" lon="9.30991435274326"><ele>515.0</ele><time>2026-04-19T13:32:40.999Z</time></trkpt><trkpt lat="44.611155082034806" lon="9.309720217519553"><ele>515.0</ele><time>2026-04-19T13:32:41.999Z</time></trkpt><trkpt lat="44.611167541403034" lon="9.309477148471561"><ele>515.0</ele><time>2026-04-19T13:32:42.999Z</time></trkpt><trkpt lat="44.61118584139036" lon="9.309260644149925"><ele>514.8</ele><time>2026-04-19T13:32:43.999Z</time></trkpt><trkpt lat="44.61122424690642" lon="9.309099537840499"><ele>514.6</ele><time>2026-04-19T13:32:44.999Z</time></trkpt><trkpt lat="44.611266919184764" lon="9.30897277806036"><ele>514.4</ele><time>2026-04-19T13:32:45.999Z</time></trkpt><trkpt lat="44.61127274259104" lon="9.30885257148659"><ele>514.2</ele><time>2026-04-19T13:32:46.999Z</time></trkpt><trkpt lat="44.611227313295196" lon="9.30870438716952"><ele>514.0</ele><time>2026-04-19T13:32:47.999Z</time></trkpt><trkpt lat="44.611133369763905" lon="9.308556907658508"><ele>514.0</ele><time>2026-04-19T13:32:48.999Z</time></trkpt><trkpt lat="44.61101633037224" lon="9.308376094156014"><ele>514.0</ele><time>2026-04-19T13:32:49.999Z</time></trkpt><trkpt lat="44.61089902669238" lon="9.30817725103897"><ele>514.0</ele><time>2026-04-19T13:32:50.999Z</time></trkpt><trkpt lat="44.610799242829685" lon="9.308011729906115"><ele>516.25</ele><time>2026-04-19T13:32:51.999Z</time></trkpt><trkpt lat="44.610728112869346" lon="9.3078670199096"><ele>518.5</ele><time>2026-04-19T13:32:52.999Z</time></trkpt><trkpt lat="44.6106526057343" lon="9.307735368163767"><ele>520.75</ele><time>2026-04-19T13:32:53.999Z</time></trkpt><trkpt lat="44.61060486683967" lon="9.307578510440763"><ele>523.0</ele><time>2026-04-19T13:32:54.999Z</time></trkpt><trkpt lat="44.61061101046413" lon="9.307391124341857"><ele>529.5</ele><time>2026-04-19T13:32:55.999Z</time></trkpt><trkpt lat="44.61061134361281" lon="9.307208275382115"><ele>536.0</ele><time>2026-04-19T13:32:56.999Z</time></trkpt><trkpt lat="44.61060653384812" lon="9.307080600980681"><ele>542.5</ele><time>2026-04-19T13:32:57.999Z</time></trkpt><trkpt lat="44.61054284927652" lon="9.306959934104187"><ele>549.0</ele><time>2026-04-19T13:32:58.999Z</time></trkpt><trkpt lat="44.610437932370786" lon="9.306846405424503"><ele>545.5</ele><time>2026-04-19T13:32:59.999Z</time></trkpt><trkpt lat="44.61029858553276" lon="9.306761659228277"><ele>542.0</ele><time>2026-04-19T13:33:00.999Z</time></trkpt><trkpt lat="44.61016188383991" lon="9.306688283591305"><ele>538.5</ele><time>2026-04-19T13:33:01.999Z</time></trkpt><trkpt lat="44.610023694369836" lon="9.306664561045219"><ele>535.0</ele><time>2026-04-19T13:33:02.999Z</time></trkpt><trkpt lat="44.60986553199985" lon="9.306673862540885"><ele>535.0</ele><time>2026-04-19T13:33:03.999Z</time></trkpt><trkpt lat="44.6096969640458" lon="9.306699682910978"><ele>535.0</ele><time>2026-04-19T13:33:04.999Z</time></trkpt><trkpt lat="44.60951937339704" lon="9.30672910183587"><ele>535.0</ele><time>2026-04-19T13:33:05.999Z</time></trkpt><trkpt lat="44.60933712736885" lon="9.306772470587209"><ele>533.3333333333334</ele><time>2026-04-19T13:33:06.999Z</time></trkpt><trkpt lat="44.60914437325355" lon="9.306835357581289"><ele>531.6666666666666</ele><time>2026-04-19T13:33:07.999Z</time></trkpt><trkpt lat="44.60898764510722" lon="9.30689315014807"><ele>530.0</ele><time>2026-04-19T13:33:08.999Z</time></trkpt><trkpt lat="44.60884812507519" lon="9.306946641704506"><ele>530.0</ele><time>2026-04-19T13:33:09.999Z</time></trkpt><trkpt lat="44.60872586424524" lon="9.306992796914345"><ele>530.0</ele><time>2026-04-19T13:33:10.999Z</time></trkpt><trkpt lat="44.60859936609568" lon="9.307037316774533"><ele>530.0</ele><time>2026-04-19T13:33:11.999Z</time></trkpt><trkpt lat="44.608471661920476" lon="9.307031774595178"><ele>530.0</ele><time>2026-04-19T13:33:12.999Z</time></trkpt><trkpt lat="44.608319420758626" lon="9.306997751636674"><ele>529.3333333333333</ele><time>2026-04-19T13:33:13.999Z</time></trkpt><trkpt lat="44.60816799154857" lon="9.306964078027198"><ele>528.6666666666666</ele><time>2026-04-19T13:33:14.999Z</time></trkpt><trkpt lat="44.60800439127595" lon="9.306947493209899"><ele>528.0</ele><time>2026-04-19T13:33:15.999Z</time></trkpt><trkpt lat="44.60783382794544" lon="9.306967389457906"><ele>527.5</ele><time>2026-04-19T13:33:16.999Z</time></trkpt><trkpt lat="44.60768517419242" lon="9.306950188511736"><ele>527.0</ele><time>2026-04-19T13:33:17.999Z</time></trkpt><trkpt lat="44.60755292708196" lon="9.306941999099394"><ele>526.5</ele><time>2026-04-19T13:33:18.999Z</time></trkpt><trkpt lat="44.60742778185208" lon="9.30689378138279"><ele>526.0</ele><time>2026-04-19T13:33:19.999Z</time></trkpt><trkpt lat="44.60730294595114" lon="9.30677920075934"><ele>526.0</ele><time>2026-04-19T13:33:20.999Z</time></trkpt><trkpt lat="44.60715980940954" lon="9.306657337508675"><ele>526.0</ele><time>2026-04-19T13:33:21.999Z</time></trkpt><trkpt lat="44.60704935162661" lon="9.306521447164327"><ele>526.0</ele><time>2026-04-19T13:33:22.999Z</time></trkpt><trkpt lat="44.606959646889315" lon="9.306400209728915"><ele>526.0</ele><time>2026-04-19T13:33:23.999Z</time></trkpt><trkpt lat="44.606891515721564" lon="9.306234308019999"><ele>526.3333333333334</ele><time>2026-04-19T13:33:24.999Z</time></trkpt><trkpt lat="44.60684822829305" lon="9.306027463589393"><ele>526.6666666666666</ele><time>2026-04-19T13:33:25.999Z</time></trkpt><trkpt lat="44.6068282772055" lon="9.305803312126962"><ele>527.0</ele><time>2026-04-19T13:33:26.999Z</time></trkpt><trkpt lat="44.606787204121524" lon="9.305598935379397"><ele>527.0</ele><time>2026-04-19T13:33:27.999Z</time></trkpt><trkpt lat="44.60674722707641" lon="9.305378149960573"><ele>527.0</ele><time>2026-04-19T13:33:28.999Z</time></trkpt><trkpt lat="44.60671937153795" lon="9.305171917857354"><ele>527.0</ele><time>2026-04-19T13:33:29.999Z</time></trkpt><trkpt lat="44.60669975392928" lon="9.304985892965036"><ele>527.0</ele><time>2026-04-19T13:33:31Z</time></trkpt><trkpt lat="44.60669329024971" lon="9.30481422778965"><ele>525.0</ele><time>2026-04-19T13:33:32Z</time></trkpt><trkpt lat="44.60671005488427" lon="9.304659794563474"><ele>523.0</ele><time>2026-04-19T13:33:33Z</time></trkpt><trkpt lat="44.60674889132336" lon="9.304511669405498"><ele>521.0</ele><time>2026-04-19T13:33:34Z</time></trkpt><trkpt lat="44.60682684057123" lon="9.30437346866645"><ele>519.0</ele><time>2026-04-19T13:33:35Z</time></trkpt><trkpt lat="44.606928710188036" lon="9.304306711343637"><ele>522.5</ele><time>2026-04-19T13:33:36Z</time></trkpt><trkpt lat="44.607047253955315" lon="9.304307993883722"><ele>526.0</ele><time>2026-04-19T13:33:37Z</time></trkpt><trkpt lat="44.6071763303588" lon="9.304308534420763"><ele>529.5</ele><time>2026-04-19T13:33:38Z</time></trkpt><trkpt lat="44.60733470906905" lon="9.304269753886098"><ele>533.0</ele><time>2026-04-19T13:33:39Z</time></trkpt><trkpt lat="44.60748361111475" lon="9.304190697047645"><ele>533.0</ele><time>2026-04-19T13:33:40Z</time></trkpt><trkpt lat="44.60762389847844" lon="9.304085149420787"><ele>533.0</ele><time>2026-04-19T13:33:41Z</time></trkpt><trkpt lat="44.607757244276776" lon="9.303965761381615"><ele>533.0</ele><time>2026-04-19T13:33:42Z</time></trkpt><trkpt lat="44.60789783524331" lon="9.303834793126489"><ele>533.3333333333333</ele><time>2026-04-19T13:33:43Z</time></trkpt><trkpt lat="44.608025448003396" lon="9.303694608093448"><ele>533.6666666666666</ele><time>2026-04-19T13:33:44Z</time></trkpt><trkpt lat="44.60812947493845" lon="9.303546989994144"><ele>534.0</ele><time>2026-04-19T13:33:45Z</time></trkpt><trkpt lat="44.60823585144839" lon="9.303366018653525"><ele>534.0</ele><time>2026-04-19T13:33:46Z</time></trkpt><trkpt lat="44.6083295357273" lon="9.30315664819533"><ele>534.0</ele><time>2026-04-19T13:33:47Z</time></trkpt><trkpt lat="44.60840559193398" lon="9.302964486165875"><ele>534.0</ele><time>2026-04-19T13:33:48Z</time></trkpt><trkpt lat="44.60846833201158" lon="9.302801443471992"><ele>533.5</ele><time>2026-04-19T13:33:49Z</time></trkpt><trkpt lat="44.60851663827291" lon="9.302641861402428"><ele>533.0</ele><time>2026-04-19T13:33:50Z</time></trkpt><trkpt lat="44.60852267522362" lon="9.302460498027473"><ele>532.5</ele><time>2026-04-19T13:33:51Z</time></trkpt><trkpt lat="44.60848667662433" lon="9.302245162778984"><ele>532.0</ele><time>2026-04-19T13:33:52Z</time></trkpt><trkpt lat="44.608450784312" lon="9.301986987686039"><ele>532.3333333333334</ele><time>2026-04-19T13:33:53Z</time></trkpt><trkpt lat="44.60842894217294" lon="9.301737630773077"><ele>532.6666666666666</ele><time>2026-04-19T13:33:54Z</time></trkpt><trkpt lat="44.60841044374605" lon="9.301501690034247"><ele>533.0</ele><time>2026-04-19T13:33:55Z</time></trkpt><trkpt lat="44.60837978983439" lon="9.301270113658306"><ele>533.0</ele><time>2026-04-19T13:33:56Z</time></trkpt><trkpt lat="44.608356862056176" lon="9.301025833321244"><ele>533.0</ele><time>2026-04-19T13:33:57Z</time></trkpt><trkpt lat="44.60835173525265" lon="9.300771575653135"><ele>533.0</ele><time>2026-04-19T13:33:58Z</time></trkpt><trkpt lat="44.608356646456855" lon="9.300502481154115"><ele>535.6666666666666</ele><time>2026-04-19T13:33:59Z</time></trkpt><trkpt lat="44.6083534440489" lon="9.30025987627553"><ele>538.3333333333334</ele><time>2026-04-19T13:34:00Z</time></trkpt><trkpt lat="44.60833581655229" lon="9.300035029619458"><ele>541.0</ele><time>2026-04-19T13:34:01Z</time></trkpt><trkpt lat="44.60830939707202" lon="9.299826227769499"><ele>543.0</ele><time>2026-04-19T13:34:02Z</time></trkpt><trkpt lat="44.608270262070384" lon="9.299591656636938"><ele>545.0</ele><time>2026-04-19T13:34:03Z</time></trkpt><trkpt lat="44.60823612025662" lon="9.299350001576048"><ele>547.0</ele><time>2026-04-19T13:34:04Z</time></trkpt><trkpt lat="44.608201080483475" lon="9.299109532579655"><ele>548.2</ele><time>2026-04-19T13:34:05Z</time></trkpt><trkpt lat="44.60817343369926" lon="9.29890725077062"><ele>549.4000000000001</ele><time>2026-04-19T13:34:06Z</time></trkpt><trkpt lat="44.60816295443511" lon="9.298747239921891"><ele>550.5999999999999</ele><time>2026-04-19T13:34:07Z</time></trkpt><trkpt lat="44.60816968038417" lon="9.298612949778558"><ele>551.8</ele><time>2026-04-19T13:34:08Z</time></trkpt><trkpt lat="44.60815265767892" lon="9.29851431068661"><ele>553.0</ele><time>2026-04-19T13:34:09Z</time></trkpt><trkpt lat="44.60803405793111" lon="9.298125007575285"><ele>556.0</ele><time>2026-04-19T13:34:10Z</time></trkpt><trkpt lat="44.60793274659775" lon="9.298009598221286"><ele>559.0</ele><time>2026-04-19T13:34:11Z</time></trkpt><trkpt lat="44.6077978074935" lon="9.297930493559965"><ele>562.0</ele><time>2026-04-19T13:34:12Z</time></trkpt><trkpt lat="44.607639629723614" lon="9.297879597641455"><ele>565.0</ele><time>2026-04-19T13:34:13Z</time></trkpt><trkpt lat="44.607505153423844" lon="9.297810847069124"><ele>554.6666666666667</ele><time>2026-04-19T13:34:14Z</time></trkpt><trkpt lat="44.6073903468979" lon="9.297695155371017"><ele>544.3333333333334</ele><time>2026-04-19T13:34:15Z</time></trkpt><trkpt lat="44.607292917119445" lon="9.29752751024845"><ele>534.0</ele><time>2026-04-19T13:34:16Z</time></trkpt><trkpt lat="44.607201782313886" lon="9.297335964419263"><ele>532.0</ele><time>2026-04-19T13:34:17Z</time></trkpt><trkpt lat="44.60710702033478" lon="9.297156265946098"><ele>530.0</ele><time>2026-04-19T13:34:18Z</time></trkpt><trkpt lat="44.60702056625334" lon="9.296999517729006"><ele>528.0</ele><time>2026-04-19T13:34:19Z</time></trkpt><trkpt lat="44.60693745651808" lon="9.29683759185709"><ele>526.0</ele><time>2026-04-19T13:34:20Z</time></trkpt><trkpt lat="44.606880714422175" lon="9.29662743271153"><ele>527.3333333333334</ele><time>2026-04-19T13:34:21Z</time></trkpt><trkpt lat="44.60686193305523" lon="9.296406499057142"><ele>528.6666666666666</ele><time>2026-04-19T13:34:22Z</time></trkpt><trkpt lat="44.60682015347205" lon="9.296198933769459"><ele>530.0</ele><time>2026-04-19T13:34:23Z</time></trkpt><trkpt lat="44.60677872470583" lon="9.296012487125918"><ele>530.0</ele><time>2026-04-19T13:34:24Z</time></trkpt><trkpt lat="44.6066919041103" lon="9.29582940780976"><ele>530.0</ele><time>2026-04-19T13:34:25Z</time></trkpt><trkpt lat="44.606599894054426" lon="9.295663224189415"><ele>530.0</ele><time>2026-04-19T13:34:26Z</time></trkpt><trkpt lat="44.606516319943076" lon="9.295493292252692"><ele>529.6666666666666</ele><time>2026-04-19T13:34:27Z</time></trkpt><trkpt lat="44.60642818845496" lon="9.295312881976487"><ele>529.3333333333334</ele><time>2026-04-19T13:34:28Z</time></trkpt><trkpt lat="44.60633538059726" lon="9.2951330298706"><ele>529.0</ele><time>2026-04-19T13:34:29Z</time></trkpt><trkpt lat="44.60623570492639" lon="9.294945341833788"><ele>527.3333333333334</ele><time>2026-04-19T13:34:30Z</time></trkpt><trkpt lat="44.60614259429992" lon="9.294753599994142"><ele>525.6666666666666</ele><time>2026-04-19T13:34:31Z</time></trkpt><trkpt lat="44.606056954790425" lon="9.294569011611657"><ele>524.0</ele><time>2026-04-19T13:34:32Z</time></trkpt><trkpt lat="44.605970317626664" lon="9.29438330481705"><ele>524.0</ele><time>2026-04-19T13:34:33Z</time></trkpt><trkpt lat="44.60588367075795" lon="9.294200439110627"><ele>524.0</ele><time>2026-04-19T13:34:34Z</time></trkpt><trkpt lat="44.605797621716405" lon="9.294025186643111"><ele>524.0</ele><time>2026-04-19T13:34:35Z</time></trkpt><trkpt lat="44.60572246912472" lon="9.293868217547379"><ele>524.0</ele><time>2026-04-19T13:34:36Z</time></trkpt><trkpt lat="44.60565331299781" lon="9.29371912171035"><ele>524.0</ele><time>2026-04-19T13:34:37Z</time></trkpt><trkpt lat="44.605584809302236" lon="9.293570810521965"><ele>524.0</ele><time>2026-04-19T13:34:38Z</time></trkpt><trkpt lat="44.60551026268547" lon="9.293421602517375"><ele>524.0</ele><time>2026-04-19T13:34:38.999Z</time></trkpt><trkpt lat="44.60543324980749" lon="9.29326647988563"><ele>524.0</ele><time>2026-04-19T13:34:39.999Z</time></trkpt><trkpt lat="44.60536183047533" lon="9.29310925919368"><ele>524.25</ele><time>2026-04-19T13:34:40.999Z</time></trkpt><trkpt lat="44.60529010874075" lon="9.292980913924122"><ele>524.5</ele><time>2026-04-19T13:34:41.999Z</time></trkpt><trkpt lat="44.6052192928481" lon="9.292836505945244"><ele>524.75</ele><time>2026-04-19T13:34:42.999Z</time></trkpt><trkpt lat="44.60514987309841" lon="9.292690419392407"><ele>525.0</ele><time>2026-04-19T13:34:43.999Z</time></trkpt><trkpt lat="44.60508624943012" lon="9.29254894413604"><ele>525.0</ele><time>2026-04-19T13:34:44.999Z</time></trkpt><trkpt lat="44.60501519991977" lon="9.29240380468277"><ele>525.0</ele><time>2026-04-19T13:34:45.999Z</time></trkpt><trkpt lat="44.604937462061756" lon="9.29225037970521"><ele>525.0</ele><time>2026-04-19T13:34:46.999Z</time></trkpt><trkpt lat="44.60485010655434" lon="9.292092361597371"><ele>525.0</ele><time>2026-04-19T13:34:47.999Z</time></trkpt><trkpt lat="44.604749754371994" lon="9.291946990253699"><ele>525.0</ele><time>2026-04-19T13:34:48.999Z</time></trkpt><trkpt lat="44.60463015530323" lon="9.29183134076844"><ele>525.0</ele><time>2026-04-19T13:34:49.999Z</time></trkpt><trkpt lat="44.60449287812098" lon="9.29173872934244"><ele>525.0</ele><time>2026-04-19T13:34:50.999Z</time></trkpt><trkpt lat="44.604345478376494" lon="9.291671459972987"><ele>525.0</ele><time>2026-04-19T13:34:51.999Z</time></trkpt><trkpt lat="44.60419453456431" lon="9.291607491839658"><ele>525.0</ele><time>2026-04-19T13:34:52.999Z</time></trkpt><trkpt lat="44.60404408500261" lon="9.291534516268248"><ele>525.0</ele><time>2026-04-19T13:34:53.999Z</time></trkpt><trkpt lat="44.60390553154899" lon="9.291463913735402"><ele>525.0</ele><time>2026-04-19T13:34:54.999Z</time></trkpt><trkpt lat="44.60376823943422" lon="9.291402782673313"><ele>525.0</ele><time>2026-04-19T13:34:55.999Z</time></trkpt><trkpt lat="44.603626870844856" lon="9.291331029661531"><ele>525.0</ele><time>2026-04-19T13:34:56.999Z</time></trkpt><trkpt lat="44.60348721453767" lon="9.291261688292023"><ele>525.0</ele><time>2026-04-19T13:34:57.999Z</time></trkpt><trkpt lat="44.60334263699972" lon="9.291191288839567"><ele>524.0</ele><time>2026-04-19T13:34:58.999Z</time></trkpt><trkpt lat="44.603200739338114" lon="9.291117538500593"><ele>523.0</ele><time>2026-04-19T13:34:59.999Z</time></trkpt><trkpt lat="44.603052740450174" lon="9.29104422324663"><ele>522.0</ele><time>2026-04-19T13:35:00.999Z</time></trkpt><trkpt lat="44.60290666271465" lon="9.29096802790464"><ele>525.0</ele><time>2026-04-19T13:35:01.999Z</time></trkpt><trkpt lat="44.60274859376112" lon="9.29088255283985"><ele>528.0</ele><time>2026-04-19T13:35:02.999Z</time></trkpt><trkpt lat="44.602588078243855" lon="9.290801997577253"><ele>531.0</ele><time>2026-04-19T13:35:03.999Z</time></trkpt><trkpt lat="44.60242226384913" lon="9.290724172089659"><ele>531.0</ele><time>2026-04-19T13:35:04.999Z</time></trkpt><trkpt lat="44.60224873696092" lon="9.290641491262901"><ele>531.0</ele><time>2026-04-19T13:35:05.999Z</time></trkpt><trkpt lat="44.60207305909591" lon="9.29054600306114"><ele>531.0</ele><time>2026-04-19T13:35:06.999Z</time></trkpt><trkpt lat="44.601915530641946" lon="9.290462351955215"><ele>531.0</ele><time>2026-04-19T13:35:07.999Z</time></trkpt><trkpt lat="44.60177594434559" lon="9.290383600537895"><ele>531.0</ele><time>2026-04-19T13:35:08.999Z</time></trkpt><trkpt lat="44.60163553298172" lon="9.290321675532267"><ele>531.0</ele><time>2026-04-19T13:35:09.999Z</time></trkpt><trkpt lat="44.601480521342175" lon="9.290271083250017"><ele>531.0</ele><time>2026-04-19T13:35:10.999Z</time></trkpt><trkpt lat="44.60132364921332" lon="9.290268215072999"><ele>531.0</ele><time>2026-04-19T13:35:11.999Z</time></trkpt><trkpt lat="44.60115692210559" lon="9.29031114299853"><ele>531.0</ele><time>2026-04-19T13:35:12.999Z</time></trkpt><trkpt lat="44.6009935639599" lon="9.29038040544947"><ele>531.0</ele><time>2026-04-19T13:35:13.999Z</time></trkpt><trkpt lat="44.60082733131701" lon="9.290459214871595"><ele>531.0</ele><time>2026-04-19T13:35:14.999Z</time></trkpt><trkpt lat="44.600679504930866" lon="9.290516900464949"><ele>531.0</ele><time>2026-04-19T13:35:15.999Z</time></trkpt><trkpt lat="44.60055959639203" lon="9.290581670285384"><ele>531.25</ele><time>2026-04-19T13:35:16.999Z</time></trkpt><trkpt lat="44.60044325089805" lon="9.290668824883946"><ele>531.5</ele><time>2026-04-19T13:35:17.999Z</time></trkpt><trkpt lat="44.60032790401415" lon="9.290767249083226"><ele>531.75</ele><time>2026-04-19T13:35:18.999Z</time></trkpt><trkpt lat="44.60024184496878" lon="9.290950852632289"><ele>532.0</ele><time>2026-04-19T13:35:19.999Z</time></trkpt><trkpt lat="44.60014897968114" lon="9.291142923224564"><ele>532.0</ele><time>2026-04-19T13:35:20.999Z</time></trkpt><trkpt lat="44.6000292536962" lon="9.29135558406075"><ele>532.0</ele><time>2026-04-19T13:35:21.999Z</time></trkpt><trkpt lat="44.59994082736887" lon="9.291584922402985"><ele>532.0</ele><time>2026-04-19T13:35:22.999Z</time></trkpt><trkpt lat="44.59984615914755" lon="9.291805866423374"><ele>536.0</ele><time>2026-04-19T13:35:23.999Z</time></trkpt><trkpt lat="44.599746358788956" lon="9.292050648439737"><ele>540.0</ele><time>2026-04-19T13:35:24.999Z</time></trkpt><trkpt lat="44.59965380448438" lon="9.292292976887255"><ele>544.0</ele><time>2026-04-19T13:35:25.999Z</time></trkpt><trkpt lat="44.59957992125395" lon="9.292518714676378"><ele>541.75</ele><time>2026-04-19T13:35:26.999Z</time></trkpt><trkpt lat="44.59949849438611" lon="9.292681294905176"><ele>539.5</ele><time>2026-04-19T13:35:27.999Z</time></trkpt><trkpt lat="44.59940344018345" lon="9.292801848272502"><ele>537.25</ele><time>2026-04-19T13:35:28.999Z</time></trkpt><trkpt lat="44.59928397282836" lon="9.29288644126819"><ele>535.0</ele><time>2026-04-19T13:35:29.999Z</time></trkpt><trkpt lat="44.59913852167245" lon="9.292979416176623"><ele>538.6666666666667</ele><time>2026-04-19T13:35:30.999Z</time></trkpt><trkpt lat="44.59897105387998" lon="9.293096361667944"><ele>542.3333333333334</ele><time>2026-04-19T13:35:31.999Z</time></trkpt><trkpt lat="44.598804460494456" lon="9.29318609591906"><ele>546.0</ele><time>2026-04-19T13:35:32.999Z</time></trkpt><trkpt lat="44.59863212176745" lon="9.293262751071985"><ele>546.0</ele><time>2026-04-19T13:35:33.999Z</time></trkpt><trkpt lat="44.59844708015094" lon="9.293368952024823"><ele>546.0</ele><time>2026-04-19T13:35:34.999Z</time></trkpt><trkpt lat="44.59827570753222" lon="9.293467581420698"><ele>546.0</ele><time>2026-04-19T13:35:35.999Z</time></trkpt><trkpt lat="44.59813209814283" lon="9.293549624436253"><ele>546.0</ele><time>2026-04-19T13:35:37Z</time></trkpt><trkpt lat="44.59798410392016" lon="9.29360147232316"><ele>546.0</ele><time>2026-04-19T13:35:38Z</time></trkpt><trkpt lat="44.59783521797516" lon="9.293628394197427"><ele>546.0</ele><time>2026-04-19T13:35:39Z</time></trkpt><trkpt lat="44.59768822825667" lon="9.293642666973701"><ele>545.3333333333334</ele><time>2026-04-19T13:35:40Z</time></trkpt><trkpt lat="44.597537168376064" lon="9.293601493047314"><ele>544.6666666666667</ele><time>2026-04-19T13:35:41Z</time></trkpt><trkpt lat="44.59738427794595" lon="9.29350196452785"><ele>544.0</ele><time>2026-04-19T13:35:42Z</time></trkpt><trkpt lat="44.59722124882425" lon="9.293391754729214"><ele>544.0</ele><time>2026-04-19T13:35:43Z</time></trkpt><trkpt lat="44.59706589512454" lon="9.293280721306727"><ele>544.0</ele><time>2026-04-19T13:35:44Z</time></trkpt><trkpt lat="44.59689388196786" lon="9.293192279008672"><ele>544.0</ele><time>2026-04-19T13:35:45Z</time></trkpt><trkpt lat="44.596690616936016" lon="9.293116723749279"><ele>541.3333333333334</ele><time>2026-04-19T13:35:46Z</time></trkpt><trkpt lat="44.59648540504347" lon="9.293053463399026"><ele>538.6666666666666</ele><time>2026-04-19T13:35:47Z</time></trkpt><trkpt lat="44.59626347843931" lon="9.292988672050573"><ele>536.0</ele><time>2026-04-19T13:35:48Z</time></trkpt><trkpt lat="44.596031210891596" lon="9.292926763036403"><ele>536.0</ele><time>2026-04-19T13:35:49Z</time></trkpt><trkpt lat="44.59580771283878" lon="9.292860983953453"><ele>536.0</ele><time>2026-04-19T13:35:50Z</time></trkpt><trkpt lat="44.59561059531381" lon="9.292800038065534"><ele>536.0</ele><time>2026-04-19T13:35:51Z</time></trkpt><trkpt lat="44.595427673347565" lon="9.292746535667371"><ele>540.75</ele><time>2026-04-19T13:35:52Z</time></trkpt><trkpt lat="44.59526514495412" lon="9.29269952356087"><ele>545.5</ele><time>2026-04-19T13:35:53Z</time></trkpt><trkpt lat="44.59514184775525" lon="9.292656618065097"><ele>550.25</ele><time>2026-04-19T13:35:54Z</time></trkpt><trkpt lat="44.595067513409354" lon="9.292509656600455"><ele>555.0</ele><time>2026-04-19T13:35:55Z</time></trkpt><trkpt lat="44.59496457248983" lon="9.292417575863167"><ele>555.0</ele><time>2026-04-19T13:35:56Z</time></trkpt><trkpt lat="44.594854836319385" lon="9.292321372774836"><ele>555.0</ele><time>2026-04-19T13:35:57Z</time></trkpt><trkpt lat="44.59470962373952" lon="9.29228418117214"><ele>555.0</ele><time>2026-04-19T13:35:58Z</time></trkpt><trkpt lat="44.59456046486617" lon="9.29227064234293"><ele>555.0</ele><time>2026-04-19T13:35:59Z</time></trkpt><trkpt lat="44.59444153986699" lon="9.292205702327138"><ele>554.75</ele><time>2026-04-19T13:36:00Z</time></trkpt><trkpt lat="44.59432715697399" lon="9.29210220403963"><ele>554.5</ele><time>2026-04-19T13:36:01Z</time></trkpt><trkpt lat="44.5942182074713" lon="9.291956356827711"><ele>554.25</ele><time>2026-04-19T13:36:02Z</time></trkpt><trkpt lat="44.594124878977006" lon="9.291807884466605"><ele>554.0</ele><time>2026-04-19T13:36:03Z</time></trkpt><trkpt lat="44.59406423072561" lon="9.29161073096932"><ele>549.0</ele><time>2026-04-19T13:36:04Z</time></trkpt><trkpt lat="44.59401626456342" lon="9.291388519605267"><ele>544.0</ele><time>2026-04-19T13:36:05Z</time></trkpt><trkpt lat="44.59396239815063" lon="9.29116581656044"><ele>539.0</ele><time>2026-04-19T13:36:06Z</time></trkpt><trkpt lat="44.59390459925051" lon="9.29093995404169"><ele>539.0</ele><time>2026-04-19T13:36:07Z</time></trkpt><trkpt lat="44.59382351120271" lon="9.290709590016833"><ele>539.0</ele><time>2026-04-19T13:36:08Z</time></trkpt><trkpt lat="44.59372257757831" lon="9.2904860407822"><ele>539.0</ele><time>2026-04-19T13:36:09Z</time></trkpt><trkpt lat="44.593602909968695" lon="9.29024806631952"><ele>541.6666666666666</ele><time>2026-04-19T13:36:10Z</time></trkpt><trkpt lat="44.593446636447545" lon="9.290042018036546"><ele>544.3333333333334</ele><time>2026-04-19T13:36:11Z</time></trkpt><trkpt lat="44.59333195788131" lon="9.28983705190502"><ele>547.0</ele><time>2026-04-19T13:36:12Z</time></trkpt><trkpt lat="44.59322398501606" lon="9.28961718807679"><ele>547.0</ele><time>2026-04-19T13:36:13Z</time></trkpt><trkpt lat="44.59312819117757" lon="9.289414130551085"><ele>547.0</ele><time>2026-04-19T13:36:14Z</time></trkpt><trkpt lat="44.593040286155386" lon="9.289210278100617"><ele>547.0</ele><time>2026-04-19T13:36:15Z</time></trkpt><trkpt lat="44.59296420023267" lon="9.289031312971849"><ele>546.0</ele><time>2026-04-19T13:36:16Z</time></trkpt><trkpt lat="44.5928771496259" lon="9.28887703835014"><ele>545.0</ele><time>2026-04-19T13:36:17Z</time></trkpt><trkpt lat="44.59279067532866" lon="9.288757065135563"><ele>544.0</ele><time>2026-04-19T13:36:18Z</time></trkpt><trkpt lat="44.59268814485818" lon="9.288678817566732"><ele>543.0</ele><time>2026-04-19T13:36:19Z</time></trkpt><trkpt lat="44.59256078316811" lon="9.28863607731766"><ele>543.0</ele><time>2026-04-19T13:36:20Z</time></trkpt><trkpt lat="44.59241372352916" lon="9.288634032163666"><ele>543.0</ele><time>2026-04-19T13:36:21Z</time></trkpt><trkpt lat="44.592263879276956" lon="9.288676375556605"><ele>543.0</ele><time>2026-04-19T13:36:22Z</time></trkpt><trkpt lat="44.59211079300179" lon="9.288747145623796"><ele>544.75</ele><time>2026-04-19T13:36:23Z</time></trkpt><trkpt lat="44.5919713697442" lon="9.288761170839614"><ele>546.5</ele><time>2026-04-19T13:36:24Z</time></trkpt><trkpt lat="44.59183994952649" lon="9.288773382745568"><ele>548.25</ele><time>2026-04-19T13:36:25Z</time></trkpt><trkpt lat="44.59170406672555" lon="9.288730674238098"><ele>550.0</ele><time>2026-04-19T13:36:26Z</time></trkpt><trkpt lat="44.59154924962088" lon="9.288659372383929"><ele>550.0</ele><time>2026-04-19T13:36:27Z</time></trkpt><trkpt lat="44.591387094293744" lon="9.288555944953146"><ele>550.0</ele><time>2026-04-19T13:36:28Z</time></trkpt><trkpt lat="44.59123927993825" lon="9.2884778952641"><ele>550.0</ele><time>2026-04-19T13:36:29Z</time></trkpt><trkpt lat="44.591107015789284" lon="9.288393326718985"><ele>550.75</ele><time>2026-04-19T13:36:30Z</time></trkpt><trkpt lat="44.59100720087139" lon="9.288296547601492"><ele>551.5</ele><time>2026-04-19T13:36:31Z</time></trkpt><trkpt lat="44.59092826603508" lon="9.288149512975245"><ele>552.25</ele><time>2026-04-19T13:36:32Z</time></trkpt><trkpt lat="44.59086426062123" lon="9.287971460751308"><ele>553.0</ele><time>2026-04-19T13:36:33Z</time></trkpt><trkpt lat="44.59080830715476" lon="9.28775818126495"><ele>553.0</ele><time>2026-04-19T13:36:34Z</time></trkpt><trkpt lat="44.59075566484972" lon="9.287533938701543"><ele>553.0</ele><time>2026-04-19T13:36:35Z</time></trkpt><trkpt lat="44.59069646101199" lon="9.287334532242696"><ele>553.0</ele><time>2026-04-19T13:36:36Z</time></trkpt><trkpt lat="44.59063781371667" lon="9.287152418536895"><ele>551.5</ele><time>2026-04-19T13:36:37Z</time></trkpt><trkpt lat="44.59058496505854" lon="9.28698216370943"><ele>550.0</ele><time>2026-04-19T13:36:38Z</time></trkpt><trkpt lat="44.590532743569824" lon="9.286796076741533"><ele>548.5</ele><time>2026-04-19T13:36:39Z</time></trkpt><trkpt lat="44.590479934957834" lon="9.28661052483208"><ele>547.0</ele><time>2026-04-19T13:36:40Z</time></trkpt><trkpt lat="44.59042522616424" lon="9.286445227194902"><ele>546.0</ele><time>2026-04-19T13:36:41Z</time></trkpt><trkpt lat="44.59037116494377" lon="9.286282524139944"><ele>545.0</ele><time>2026-04-19T13:36:42Z</time></trkpt><trkpt lat="44.590307201300135" lon="9.286123963638008"><ele>544.0</ele><time>2026-04-19T13:36:43Z</time></trkpt><trkpt lat="44.59023242835405" lon="9.28597446142598"><ele>543.0</ele><time>2026-04-19T13:36:44Z</time></trkpt><trkpt lat="44.59014964751993" lon="9.285856989996772"><ele>543.8</ele><time>2026-04-19T13:36:45Z</time></trkpt><trkpt lat="44.59005610071272" lon="9.285761710890114"><ele>544.5999999999999</ele><time>2026-04-19T13:36:46Z</time></trkpt><trkpt lat="44.589964505542866" lon="9.285680657802216"><ele>545.4000000000001</ele><time>2026-04-19T13:36:47Z</time></trkpt><trkpt lat="44.58987777960253" lon="9.285604366815145"><ele>546.2</ele><time>2026-04-19T13:36:47.999Z</time></trkpt><trkpt lat="44.589798976396914" lon="9.28548751814843"><ele>547.0</ele><time>2026-04-19T13:36:48.999Z</time></trkpt><trkpt lat="44.58973029453027" lon="9.285358152006793"><ele>547.0</ele><time>2026-04-19T13:36:49.999Z</time></trkpt><trkpt lat="44.589676860294524" lon="9.285227596047166"><ele>547.0</ele><time>2026-04-19T13:36:50.999Z</time></trkpt><trkpt lat="44.58962279806473" lon="9.285049855621729"><ele>547.0</ele><time>2026-04-19T13:36:51.999Z</time></trkpt><trkpt lat="44.589528523669095" lon="9.284851530509497"><ele>547.0</ele><time>2026-04-19T13:36:52.999Z</time></trkpt><trkpt lat="44.58945893347187" lon="9.284659758315039"><ele>554.0</ele><time>2026-04-19T13:36:53.999Z</time></trkpt><trkpt lat="44.589405586266906" lon="9.284475342438462"><ele>561.0</ele><time>2026-04-19T13:36:54.999Z</time></trkpt><trkpt lat="44.58933143232131" lon="9.284263135247349"><ele>568.0</ele><time>2026-04-19T13:36:55.999Z</time></trkpt><trkpt lat="44.58928207909287" lon="9.28404470950231"><ele>568.0</ele><time>2026-04-19T13:36:56.999Z</time></trkpt><trkpt lat="44.589277444156814" lon="9.283821334536231"><ele>568.0</ele><time>2026-04-19T13:36:57.999Z</time></trkpt><trkpt lat="44.58925030915095" lon="9.283665487752623"><ele>568.0</ele><time>2026-04-19T13:36:58.999Z</time></trkpt><trkpt lat="44.58927664549296" lon="9.283467554666984"><ele>568.0</ele><time>2026-04-19T13:36:59.999Z</time></trkpt><trkpt lat="44.58928186784336" lon="9.283264810729127"><ele>565.3333333333334</ele><time>2026-04-19T13:37:00.999Z</time></trkpt><trkpt lat="44.589259770374" lon="9.283039887679445"><ele>562.6666666666666</ele><time>2026-04-19T13:37:01.999Z</time></trkpt><trkpt lat="44.589213702404884" lon="9.28281669346496"><ele>560.0</ele><time>2026-04-19T13:37:02.999Z</time></trkpt><trkpt lat="44.58915880186821" lon="9.282620707070825"><ele>560.0</ele><time>2026-04-19T13:37:03.999Z</time></trkpt><trkpt lat="44.58910317936535" lon="9.282450833114009"><ele>560.0</ele><time>2026-04-19T13:37:04.999Z</time></trkpt><trkpt lat="44.58904809663978" lon="9.282292077380866"><ele>560.0</ele><time>2026-04-19T13:37:05.999Z</time></trkpt><trkpt lat="44.58900103207991" lon="9.282158181173765"><ele>560.0</ele><time>2026-04-19T13:37:06.999Z</time></trkpt><trkpt lat="44.58895086692507" lon="9.282056133146003"><ele>560.0</ele><time>2026-04-19T13:37:07.999Z</time></trkpt><trkpt lat="44.58890496288141" lon="9.281973564395908"><ele>560.0</ele><time>2026-04-19T13:37:08.999Z</time></trkpt><trkpt lat="44.58883522807361" lon="9.281873584358127"><ele>560.0</ele><time>2026-04-19T13:37:10.999Z</time></trkpt><trkpt lat="44.58877577468316" lon="9.281837627127278"><ele>560.0</ele><time>2026-04-19T13:38:58.999Z</time></trkpt><trkpt lat="44.58868518419953" lon="9.281762122905265"><ele>560.0</ele><time>2026-04-19T13:39:00.999Z</time></trkpt><trkpt lat="44.588613437502765" lon="9.281725030775206"><ele>560.0</ele><time>2026-04-19T13:39:01.999Z</time></trkpt><trkpt lat="44.58854272473466" lon="9.281713949215934"><ele>560.0</ele><time>2026-04-19T13:39:02.999Z</time></trkpt><trkpt lat="44.588473938004974" lon="9.281718903566873"><ele>560.0</ele><time>2026-04-19T13:39:03.999Z</time></trkpt><trkpt lat="44.58839252133079" lon="9.281744868916471"><ele>560.0</ele><time>2026-04-19T13:39:04.999Z</time></trkpt><trkpt lat="44.58828884613129" lon="9.281808467362227"><ele>560.0</ele><time>2026-04-19T13:39:05.999Z</time></trkpt><trkpt lat="44.588192424265294" lon="9.281872679238848"><ele>560.0</ele><time>2026-04-19T13:39:06.999Z</time></trkpt><trkpt lat="44.58809352417246" lon="9.281937406655517"><ele>560.0</ele><time>2026-04-19T13:39:07.999Z</time></trkpt><trkpt lat="44.588002525990504" lon="9.281992751677363"><ele>560.0</ele><time>2026-04-19T13:39:08.999Z</time></trkpt><trkpt lat="44.58791317945416" lon="9.282041651575051"><ele>560.0</ele><time>2026-04-19T13:39:09.999Z</time></trkpt><trkpt lat="44.5878268389506" lon="9.28206228406295"><ele>560.0</ele><time>2026-04-19T13:39:10.999Z</time></trkpt><trkpt lat="44.587734147715075" lon="9.282053537904167"><ele>560.0</ele><time>2026-04-19T13:39:11.999Z</time></trkpt><trkpt lat="44.5876286964389" lon="9.282011530048011"><ele>560.0</ele><time>2026-04-19T13:39:12.999Z</time></trkpt><trkpt lat="44.58750699961507" lon="9.28192155730231"><ele>560.0</ele><time>2026-04-19T13:39:13.999Z</time></trkpt><trkpt lat="44.58736207044424" lon="9.281797645437523"><ele>560.0</ele><time>2026-04-19T13:39:14.999Z</time></trkpt><trkpt lat="44.587238014827" lon="9.2816804460055"><ele>560.0</ele><time>2026-04-19T13:39:15.999Z</time></trkpt><trkpt lat="44.58712891109329" lon="9.281556155674476"><ele>560.0</ele><time>2026-04-19T13:39:16.999Z</time></trkpt><trkpt lat="44.587028496011044" lon="9.281423654095066"><ele>560.0</ele><time>2026-04-19T13:39:17.999Z</time></trkpt><trkpt lat="44.586935121750756" lon="9.281297549467574"><ele>560.0</ele><time>2026-04-19T13:39:18.999Z</time></trkpt><trkpt lat="44.586851001601815" lon="9.281160941757577"><ele>560.5</ele><time>2026-04-19T13:39:19.999Z</time></trkpt><trkpt lat="44.58676154639255" lon="9.281012516466967"><ele>561.0</ele><time>2026-04-19T13:39:20.999Z</time></trkpt><trkpt lat="44.586685993807144" lon="9.280822242325467"><ele>561.5</ele><time>2026-04-19T13:39:21.999Z</time></trkpt><trkpt lat="44.586615564545454" lon="9.280628249289808"><ele>562.0</ele><time>2026-04-19T13:39:22.999Z</time></trkpt><trkpt lat="44.58653423883206" lon="9.280422784602715"><ele>558.3333333333334</ele><time>2026-04-19T13:39:23.999Z</time></trkpt><trkpt lat="44.58645173862119" lon="9.280205706906008"><ele>554.6666666666666</ele><time>2026-04-19T13:39:24.999Z</time></trkpt><trkpt lat="44.586383230091734" lon="9.27999698035835"><ele>551.0</ele><time>2026-04-19T13:39:25.999Z</time></trkpt><trkpt lat="44.586320690816386" lon="9.279792656995538"><ele>550.25</ele><time>2026-04-19T13:39:26.999Z</time></trkpt><trkpt lat="44.586264338076894" lon="9.279586315623003"><ele>549.5</ele><time>2026-04-19T13:39:27.999Z</time></trkpt><trkpt lat="44.58620012376136" lon="9.279405955935294"><ele>548.75</ele><time>2026-04-19T13:39:28.999Z</time></trkpt><trkpt lat="44.58615561900541" lon="9.279231120250463"><ele>548.0</ele><time>2026-04-19T13:39:29.999Z</time></trkpt><trkpt lat="44.586108376326735" lon="9.279078311692661"><ele>552.0</ele><time>2026-04-19T13:39:30.999Z</time></trkpt><trkpt lat="44.586055526560145" lon="9.278908166974905"><ele>556.0</ele><time>2026-04-19T13:39:31.999Z</time></trkpt><trkpt lat="44.58601098416905" lon="9.278761356260691"><ele>560.0</ele><time>2026-04-19T13:39:32.999Z</time></trkpt><trkpt lat="44.5859440280563" lon="9.278588613145136"><ele>564.0</ele><time>2026-04-19T13:39:33.999Z</time></trkpt><trkpt lat="44.58581681022331" lon="9.278468631160193"><ele>564.0</ele><time>2026-04-19T13:39:34.999Z</time></trkpt><trkpt lat="44.58576835721856" lon="9.278293184832457"><ele>564.0</ele><time>2026-04-19T13:39:35.999Z</time></trkpt><trkpt lat="44.58568583391429" lon="9.278156266180371"><ele>564.0</ele><time>2026-04-19T13:39:36.999Z</time></trkpt><trkpt lat="44.585606138436226" lon="9.278023591380501"><ele>564.0</ele><time>2026-04-19T13:39:37.999Z</time></trkpt><trkpt lat="44.58552552066795" lon="9.277905231842063"><ele>562.8</ele><time>2026-04-19T13:39:38.999Z</time></trkpt><trkpt lat="44.58548046498321" lon="9.277771378499198"><ele>561.5999999999999</ele><time>2026-04-19T13:39:39.999Z</time></trkpt><trkpt lat="44.58540204740536" lon="9.277670458338708"><ele>560.4</ele><time>2026-04-19T13:39:40.999Z</time></trkpt><trkpt lat="44.58532650143061" lon="9.277575206440599"><ele>559.1999999999999</ele><time>2026-04-19T13:39:41.999Z</time></trkpt><trkpt lat="44.58525824005466" lon="9.27745461316945"><ele>558.0</ele><time>2026-04-19T13:39:42.999Z</time></trkpt><trkpt lat="44.585207284569165" lon="9.277320340715551"><ele>561.75</ele><time>2026-04-19T13:39:43.999Z</time></trkpt><trkpt lat="44.5851695668361" lon="9.277162281250922"><ele>565.5</ele><time>2026-04-19T13:39:44.999Z</time></trkpt><trkpt lat="44.58513857618788" lon="9.27700354427871"><ele>569.25</ele><time>2026-04-19T13:39:45.999Z</time></trkpt><trkpt lat="44.585106722672464" lon="9.276851464611362"><ele>573.0</ele><time>2026-04-19T13:39:46.999Z</time></trkpt><trkpt lat="44.585079134755176" lon="9.276696787205692"><ele>573.0</ele><time>2026-04-19T13:39:47.999Z</time></trkpt><trkpt lat="44.5850540935803" lon="9.276565891678679"><ele>573.0</ele><time>2026-04-19T13:39:49Z</time></trkpt><trkpt lat="44.58502590749598" lon="9.276424305249677"><ele>573.0</ele><time>2026-04-19T13:39:50Z</time></trkpt><trkpt lat="44.584992750590494" lon="9.276254272167906"><ele>573.0</ele><time>2026-04-19T13:39:51Z</time></trkpt><trkpt lat="44.58495542804574" lon="9.276067224871326"><ele>573.75</ele><time>2026-04-19T13:39:52Z</time></trkpt><trkpt lat="44.58491702531122" lon="9.275875960870781"><ele>574.5</ele><time>2026-04-19T13:39:53Z</time></trkpt><trkpt lat="44.58488408728427" lon="9.27571296825716"><ele>575.25</ele><time>2026-04-19T13:39:54Z</time></trkpt><trkpt lat="44.58484174880621" lon="9.275573542843581"><ele>576.0</ele><time>2026-04-19T13:39:55Z</time></trkpt><trkpt lat="44.584793125290474" lon="9.275426913769692"><ele>574.0</ele><time>2026-04-19T13:39:56Z</time></trkpt><trkpt lat="44.584719313751954" lon="9.275299475286916"><ele>572.0</ele><time>2026-04-19T13:39:57Z</time></trkpt><trkpt lat="44.58462806724865" lon="9.275169262917922"><ele>570.0</ele><time>2026-04-19T13:39:58Z</time></trkpt><trkpt lat="44.584507112555926" lon="9.275047033141199"><ele>568.0</ele><time>2026-04-19T13:39:59Z</time></trkpt><trkpt lat="44.58439050920311" lon="9.274966759589018"><ele>571.0</ele><time>2026-04-19T13:40:00Z</time></trkpt><trkpt lat="44.584257422557954" lon="9.274883490795908"><ele>574.0</ele><time>2026-04-19T13:40:01Z</time></trkpt><trkpt lat="44.58409602687289" lon="9.27483509598998"><ele>577.0</ele><time>2026-04-19T13:40:02Z</time></trkpt><trkpt lat="44.58397535889705" lon="9.27477196005058"><ele>580.0</ele><time>2026-04-19T13:40:03Z</time></trkpt><trkpt lat="44.583862755920336" lon="9.274719227625374"><ele>580.0</ele><time>2026-04-19T13:40:04Z</time></trkpt><trkpt lat="44.583769386244576" lon="9.274663629647268"><ele>580.0</ele><time>2026-04-19T13:40:05Z</time></trkpt><trkpt lat="44.583673001260955" lon="9.274613474253135"><ele>580.0</ele><time>2026-04-19T13:40:06Z</time></trkpt><trkpt lat="44.58357686758165" lon="9.274566034708503"><ele>580.0</ele><time>2026-04-19T13:40:07Z</time></trkpt><trkpt lat="44.58347205448882" lon="9.274536858759385"><ele>580.0</ele><time>2026-04-19T13:40:08Z</time></trkpt><trkpt lat="44.583356422830725" lon="9.274493036252752"><ele>581.5</ele><time>2026-04-19T13:40:09Z</time></trkpt><trkpt lat="44.58321641552877" lon="9.274459380265641"><ele>583.0</ele><time>2026-04-19T13:40:10Z</time></trkpt><trkpt lat="44.58306475148216" lon="9.27442295123468"><ele>584.5</ele><time>2026-04-19T13:40:11Z</time></trkpt><trkpt lat="44.582945746069015" lon="9.274377273194958"><ele>586.0</ele><time>2026-04-19T13:40:12Z</time></trkpt><trkpt lat="44.58283212356615" lon="9.27431108262858"><ele>589.0</ele><time>2026-04-19T13:40:13Z</time></trkpt><trkpt lat="44.582718144033706" lon="9.274206711357875"><ele>592.0</ele><time>2026-04-19T13:40:14Z</time></trkpt><trkpt lat="44.58262020576058" lon="9.274060288210737"><ele>595.0</ele><time>2026-04-19T13:40:15Z</time></trkpt><trkpt lat="44.582533751725286" lon="9.2739216885229"><ele>598.0</ele><time>2026-04-19T13:40:16Z</time></trkpt><trkpt lat="44.582466397887664" lon="9.273758791678322"><ele>598.0</ele><time>2026-04-19T13:40:17Z</time></trkpt><trkpt lat="44.5823950049913" lon="9.273588408127388"><ele>598.0</ele><time>2026-04-19T13:40:18Z</time></trkpt><trkpt lat="44.58232559935098" lon="9.273427667436907"><ele>598.0</ele><time>2026-04-19T13:40:19Z</time></trkpt><trkpt lat="44.582279791195006" lon="9.273299368301366"><ele>598.0</ele><time>2026-04-19T13:40:20Z</time></trkpt><trkpt lat="44.58223277739351" lon="9.273191924303172"><ele>598.0</ele><time>2026-04-19T13:40:21Z</time></trkpt><trkpt lat="44.58216405059872" lon="9.273113294702508"><ele>598.0</ele><time>2026-04-19T13:40:22Z</time></trkpt><trkpt lat="44.58206878764996" lon="9.27309040054707"><ele>598.0</ele><time>2026-04-19T13:40:23Z</time></trkpt><trkpt lat="44.5819513776048" lon="9.273137786426119"><ele>598.0</ele><time>2026-04-19T13:40:25Z</time></trkpt><trkpt lat="44.5818823457991" lon="9.273202658496832"><ele>598.0</ele><time>2026-04-19T13:40:26Z</time></trkpt><trkpt lat="44.58182913165053" lon="9.27329163375978"><ele>601.1999999999999</ele><time>2026-04-19T13:40:27Z</time></trkpt><trkpt lat="44.581802277325416" lon="9.273393677100584"><ele>604.4</ele><time>2026-04-19T13:40:28Z</time></trkpt><trkpt lat="44.58179695346296" lon="9.273498525118228"><ele>607.5999999999999</ele><time>2026-04-19T13:40:29Z</time></trkpt><trkpt lat="44.58186829807263" lon="9.273646462632684"><ele>610.8</ele><time>2026-04-19T13:40:30Z</time></trkpt><trkpt lat="44.581917739014735" lon="9.273803725701837"><ele>614.0</ele><time>2026-04-19T13:40:31Z</time></trkpt><trkpt lat="44.58198812717253" lon="9.273962911312921"><ele>610.75</ele><time>2026-04-19T13:40:32Z</time></trkpt><trkpt lat="44.582071172347355" lon="9.274113969615772"><ele>607.5</ele><time>2026-04-19T13:40:33Z</time></trkpt><trkpt lat="44.5821293519693" lon="9.274291486317974"><ele>604.25</ele><time>2026-04-19T13:40:34Z</time></trkpt><trkpt lat="44.582203183447874" lon="9.27448235266319"><ele>601.0</ele><time>2026-04-19T13:40:35Z</time></trkpt><trkpt lat="44.58225129345077" lon="9.274699547859141"><ele>604.0</ele><time>2026-04-19T13:40:36Z</time></trkpt><trkpt lat="44.58231372051449" lon="9.2749122119022"><ele>607.0</ele><time>2026-04-19T13:40:37Z</time></trkpt><trkpt lat="44.58238423460495" lon="9.27509175231773"><ele>610.0</ele><time>2026-04-19T13:40:38Z</time></trkpt><trkpt lat="44.5824350217805" lon="9.275253118631014"><ele>613.0</ele><time>2026-04-19T13:40:39Z</time></trkpt><trkpt lat="44.582473397376845" lon="9.27536746849533"><ele>613.0</ele><time>2026-04-19T13:40:40Z</time></trkpt><trkpt lat="44.58251450903111" lon="9.275469381817988"><ele>613.0</ele><time>2026-04-19T13:40:41Z</time></trkpt><trkpt lat="44.58253419487166" lon="9.275578331959748"><ele>613.0</ele><time>2026-04-19T13:40:42Z</time></trkpt><trkpt lat="44.58253191212118" lon="9.275675429078715"><ele>613.0</ele><time>2026-04-19T13:40:43Z</time></trkpt><trkpt lat="44.58249060261489" lon="9.275751239629155"><ele>613.0</ele><time>2026-04-19T13:40:44Z</time></trkpt><trkpt lat="44.58243588709157" lon="9.27581584178669"><ele>613.0</ele><time>2026-04-19T13:40:45Z</time></trkpt><trkpt lat="44.5823598741677" lon="9.27583445700131"><ele>613.0</ele><time>2026-04-19T13:40:46Z</time></trkpt><trkpt lat="44.582277450887766" lon="9.275816016357957"><ele>613.0</ele><time>2026-04-19T13:40:47Z</time></trkpt><trkpt lat="44.58221841539949" lon="9.275724845622852"><ele>613.0</ele><time>2026-04-19T13:40:48Z</time></trkpt><trkpt lat="44.582145625528284" lon="9.275655132761914"><ele>613.0</ele><time>2026-04-19T13:40:49Z</time></trkpt><trkpt lat="44.58205848559376" lon="9.275574989772924"><ele>613.0</ele><time>2026-04-19T13:40:50Z</time></trkpt><trkpt lat="44.58196973032073" lon="9.275489497120198"><ele>613.0</ele><time>2026-04-19T13:40:51Z</time></trkpt><trkpt lat="44.58187522055652" lon="9.275403342230462"><ele>614.6</ele><time>2026-04-19T13:40:52Z</time></trkpt><trkpt lat="44.58178500898608" lon="9.275343245828989"><ele>616.1999999999999</ele><time>2026-04-19T13:40:53Z</time></trkpt><trkpt lat="44.58167470969646" lon="9.275293980035238"><ele>617.8</ele><time>2026-04-19T13:40:54Z</time></trkpt><trkpt lat="44.58157571948733" lon="9.275267951943368"><ele>619.4</ele><time>2026-04-19T13:40:55Z</time></trkpt><trkpt lat="44.581450720405186" lon="9.275260916693371"><ele>621.0</ele><time>2026-04-19T13:40:56Z</time></trkpt><trkpt lat="44.581322761765705" lon="9.27525773123755"><ele>621.0</ele><time>2026-04-19T13:40:57Z</time></trkpt><trkpt lat="44.581184399299936" lon="9.275225779262154"><ele>621.0</ele><time>2026-04-19T13:40:58Z</time></trkpt><trkpt lat="44.58104455674194" lon="9.275199825615031"><ele>621.0</ele><time>2026-04-19T13:40:58.999Z</time></trkpt><trkpt lat="44.580890949071964" lon="9.275207416061845"><ele>621.0</ele><time>2026-04-19T13:40:59.999Z</time></trkpt><trkpt lat="44.5807743174303" lon="9.275179554966979"><ele>622.25</ele><time>2026-04-19T13:41:00.999Z</time></trkpt><trkpt lat="44.58064656992284" lon="9.275163539050482"><ele>623.5</ele><time>2026-04-19T13:41:01.999Z</time></trkpt><trkpt lat="44.58050644619249" lon="9.275111537103879"><ele>624.75</ele><time>2026-04-19T13:41:02.999Z</time></trkpt><trkpt lat="44.58036474952884" lon="9.275061760667665"><ele>626.0</ele><time>2026-04-19T13:41:03.999Z</time></trkpt><trkpt lat="44.580210918124436" lon="9.275043521780267"><ele>627.25</ele><time>2026-04-19T13:41:04.999Z</time></trkpt><trkpt lat="44.58007870446497" lon="9.275050840250358"><ele>628.5</ele><time>2026-04-19T13:41:05.999Z</time></trkpt><trkpt lat="44.57995961914799" lon="9.275070969406405"><ele>629.75</ele><time>2026-04-19T13:41:06.999Z</time></trkpt><trkpt lat="44.579827362530494" lon="9.275084973816826"><ele>631.0</ele><time>2026-04-19T13:41:07.999Z</time></trkpt><trkpt lat="44.5796985232501" lon="9.275029677904737"><ele>631.0</ele><time>2026-04-19T13:41:08.999Z</time></trkpt><trkpt lat="44.57955636873832" lon="9.27500072988408"><ele>631.0</ele><time>2026-04-19T13:41:09.999Z</time></trkpt><trkpt lat="44.5794301060949" lon="9.274944055137306"><ele>631.0</ele><time>2026-04-19T13:41:10.999Z</time></trkpt><trkpt lat="44.57931413658784" lon="9.274913880235475"><ele>631.0</ele><time>2026-04-19T13:41:11.999Z</time></trkpt><trkpt lat="44.57920239453913" lon="9.274901310788204"><ele>632.75</ele><time>2026-04-19T13:41:12.999Z</time></trkpt><trkpt lat="44.57906998697005" lon="9.274871672243219"><ele>634.5</ele><time>2026-04-19T13:41:13.999Z</time></trkpt><trkpt lat="44.57893635104813" lon="9.274856865807699"><ele>636.25</ele><time>2026-04-19T13:41:14.999Z</time></trkpt><trkpt lat="44.57880183809133" lon="9.274845572507273"><ele>638.0</ele><time>2026-04-19T13:41:15.999Z</time></trkpt><trkpt lat="44.5786901535862" lon="9.274852668356042"><ele>638.5</ele><time>2026-04-19T13:41:16.999Z</time></trkpt><trkpt lat="44.578574598250434" lon="9.274879287569437"><ele>639.0</ele><time>2026-04-19T13:41:17.999Z</time></trkpt><trkpt lat="44.57846464529229" lon="9.274931998502026"><ele>639.5</ele><time>2026-04-19T13:41:18.999Z</time></trkpt><trkpt lat="44.57834238354144" lon="9.274992604171969"><ele>640.0</ele><time>2026-04-19T13:41:19.999Z</time></trkpt><trkpt lat="44.578229775235464" lon="9.275082212674501"><ele>640.0</ele><time>2026-04-19T13:41:20.999Z</time></trkpt><trkpt lat="44.578110787756565" lon="9.27519203886069"><ele>640.0</ele><time>2026-04-19T13:41:21.999Z</time></trkpt><trkpt lat="44.57799547938225" lon="9.275309556218346"><ele>640.0</ele><time>2026-04-19T13:41:22.999Z</time></trkpt><trkpt lat="44.57789213361558" lon="9.275422664249412"><ele>640.0</ele><time>2026-04-19T13:41:23.999Z</time></trkpt><trkpt lat="44.57779153227774" lon="9.275538634125954"><ele>642.0</ele><time>2026-04-19T13:41:24.999Z</time></trkpt><trkpt lat="44.57768978575147" lon="9.275676723652492"><ele>644.0</ele><time>2026-04-19T13:41:25.999Z</time></trkpt><trkpt lat="44.577577013977326" lon="9.275821918679377"><ele>646.0</ele><time>2026-04-19T13:41:26.999Z</time></trkpt><trkpt lat="44.577461089184276" lon="9.275969545905417"><ele>646.0</ele><time>2026-04-19T13:41:27.999Z</time></trkpt><trkpt lat="44.57736255388149" lon="9.276096338359391"><ele>646.0</ele><time>2026-04-19T13:41:28.999Z</time></trkpt><trkpt lat="44.57727807063353" lon="9.27620481986525"><ele>646.0</ele><time>2026-04-19T13:41:29.999Z</time></trkpt><trkpt lat="44.57718834229998" lon="9.276310929072705"><ele>646.0</ele><time>2026-04-19T13:41:30.999Z</time></trkpt><trkpt lat="44.57710204076409" lon="9.27640526091619"><ele>646.3333333333334</ele><time>2026-04-19T13:41:31.999Z</time></trkpt><trkpt lat="44.577031454967354" lon="9.276482881159563"><ele>646.6666666666667</ele><time>2026-04-19T13:41:32.999Z</time></trkpt><trkpt lat="44.576962379253985" lon="9.276559724144661"><ele>647.0</ele><time>2026-04-19T13:41:33.999Z</time></trkpt><trkpt lat="44.576904563326515" lon="9.276637459320582"><ele>647.3333333333334</ele><time>2026-04-19T13:41:34.999Z</time></trkpt><trkpt lat="44.57685191603654" lon="9.276702829202263"><ele>647.6666666666666</ele><time>2026-04-19T13:41:35.999Z</time></trkpt><trkpt lat="44.576854070853834" lon="9.276844550904784"><ele>648.0</ele><time>2026-04-19T13:41:36.999Z</time></trkpt><trkpt lat="44.576858958077786" lon="9.276986824926157"><ele>648.0</ele><time>2026-04-19T13:41:37.999Z</time></trkpt><trkpt lat="44.57687997313634" lon="9.277114124714487"><ele>648.0</ele><time>2026-04-19T13:41:38.999Z</time></trkpt><trkpt lat="44.57690220293516" lon="9.277228936305718"><ele>648.0</ele><time>2026-04-19T13:41:39.999Z</time></trkpt><trkpt lat="44.5769067906509" lon="9.277377723740893"><ele>648.0</ele><time>2026-04-19T13:41:40.999Z</time></trkpt><trkpt lat="44.57691942286474" lon="9.27753019233769"><ele>648.0</ele><time>2026-04-19T13:41:41.999Z</time></trkpt><trkpt lat="44.57692512153586" lon="9.277699246406735"><ele>649.0</ele><time>2026-04-19T13:41:42.999Z</time></trkpt><trkpt lat="44.57692249087103" lon="9.277846861678913"><ele>650.0</ele><time>2026-04-19T13:41:43.999Z</time></trkpt><trkpt lat="44.576910903246315" lon="9.277992661971105"><ele>651.0</ele><time>2026-04-19T13:41:44.999Z</time></trkpt><trkpt lat="44.57689785956081" lon="9.27811667428222"><ele>652.0</ele><time>2026-04-19T13:41:45.999Z</time></trkpt><trkpt lat="44.57689704791306" lon="9.2782163880541"><ele>653.0</ele><time>2026-04-19T13:41:46.999Z</time></trkpt><trkpt lat="44.576884043787096" lon="9.278305142740109"><ele>654.0</ele><time>2026-04-19T13:41:47.999Z</time></trkpt><trkpt lat="44.57691109019787" lon="9.278462187254993"><ele>655.1666666666666</ele><time>2026-04-19T13:41:49.999Z</time></trkpt><trkpt lat="44.57696540295271" lon="9.278535460748529"><ele>656.3333333333334</ele><time>2026-04-19T13:41:51.999Z</time></trkpt><trkpt lat="44.57703148304208" lon="9.278512194801179"><ele>657.5</ele><time>2026-04-19T13:41:52.999Z</time></trkpt><trkpt lat="44.57709485913208" lon="9.278455700279796"><ele>658.6666666666667</ele><time>2026-04-19T13:41:53.999Z</time></trkpt><trkpt lat="44.577167428327876" lon="9.278407913885829"><ele>659.8333333333334</ele><time>2026-04-19T13:41:55Z</time></trkpt><trkpt lat="44.57725130185891" lon="9.278350737277334"><ele>661.0</ele><time>2026-04-19T13:41:56Z</time></trkpt><trkpt lat="44.57731859125929" lon="9.278283979390363"><ele>660.8</ele><time>2026-04-19T13:41:57Z</time></trkpt><trkpt lat="44.57740268685533" lon="9.278248019263069"><ele>660.5999999999999</ele><time>2026-04-19T13:41:58Z</time></trkpt><trkpt lat="44.57750906580634" lon="9.278180822355703"><ele>660.4</ele><time>2026-04-19T13:41:59Z</time></trkpt><trkpt lat="44.57760002070105" lon="9.278127942982755"><ele>660.2</ele><time>2026-04-19T13:42:00Z</time></trkpt><trkpt lat="44.577699678047175" lon="9.27806465855925"><ele>660.0</ele><time>2026-04-19T13:42:01Z</time></trkpt><trkpt lat="44.57778473488384" lon="9.278040333437641"><ele>660.0</ele><time>2026-04-19T13:42:02Z</time></trkpt><trkpt lat="44.57784915598122" lon="9.278004166839386"><ele>660.0</ele><time>2026-04-19T13:42:03Z</time></trkpt><trkpt lat="44.577940034908195" lon="9.27797701478041"><ele>660.0</ele><time>2026-04-19T13:42:05Z</time></trkpt><trkpt lat="44.57796708630379" lon="9.27815448024868"><ele>660.0</ele><time>2026-04-19T13:42:07Z</time></trkpt><trkpt lat="44.577995807443315" lon="9.278278347061855"><ele>660.0</ele><time>2026-04-19T13:42:08Z</time></trkpt><trkpt lat="44.57801899705169" lon="9.27841365663287"><ele>663.2</ele><time>2026-04-19T13:42:09Z</time></trkpt><trkpt lat="44.57800561683256" lon="9.278551696679466"><ele>666.4</ele><time>2026-04-19T13:42:10Z</time></trkpt><trkpt lat="44.577980260156295" lon="9.278710191365615"><ele>669.5999999999999</ele><time>2026-04-19T13:42:11Z</time></trkpt><trkpt lat="44.57796133810727" lon="9.27884693095825"><ele>672.8</ele><time>2026-04-19T13:42:12Z</time></trkpt><trkpt lat="44.57794480019292" lon="9.278982298076198"><ele>676.0</ele><time>2026-04-19T13:42:13Z</time></trkpt><trkpt lat="44.57793812821951" lon="9.279138732382842"><ele>676.75</ele><time>2026-04-19T13:42:14Z</time></trkpt><trkpt lat="44.57794698974673" lon="9.279322601516952"><ele>677.5</ele><time>2026-04-19T13:42:15Z</time></trkpt><trkpt lat="44.577931327374536" lon="9.279466381806294"><ele>678.25</ele><time>2026-04-19T13:42:16Z</time></trkpt><trkpt lat="44.57790543808373" lon="9.27961472147289"><ele>679.0</ele><time>2026-04-19T13:42:17Z</time></trkpt><trkpt lat="44.577886807985436" lon="9.279784791555965"><ele>679.0</ele><time>2026-04-19T13:42:18Z</time></trkpt><trkpt lat="44.57788244854063" lon="9.279939067282417"><ele>679.0</ele><time>2026-04-19T13:42:19Z</time></trkpt><trkpt lat="44.57786179019136" lon="9.280062192129614"><ele>679.0</ele><time>2026-04-19T13:42:20Z</time></trkpt><trkpt lat="44.57782718509436" lon="9.280178559377902"><ele>679.0</ele><time>2026-04-19T13:42:21Z</time></trkpt><trkpt lat="44.57778231274013" lon="9.28025366298771"><ele>679.0</ele><time>2026-04-19T13:42:22Z</time></trkpt><trkpt lat="44.57771616742946" lon="9.280289309291604"><ele>679.0</ele><time>2026-04-19T13:42:23Z</time></trkpt><trkpt lat="44.57760856322993" lon="9.280288553128296"><ele>678.6</ele><time>2026-04-19T13:42:24Z</time></trkpt><trkpt lat="44.57750132527077" lon="9.280304816791057"><ele>678.2</ele><time>2026-04-19T13:42:25Z</time></trkpt><trkpt lat="44.577379873008375" lon="9.280327128840982"><ele>677.8000000000001</ele><time>2026-04-19T13:42:26Z</time></trkpt><trkpt lat="44.57727052364232" lon="9.280356423520544"><ele>677.4000000000001</ele><time>2026-04-19T13:42:27Z</time></trkpt><trkpt lat="44.57718736035911" lon="9.280289882759968"><ele>677.0</ele><time>2026-04-19T13:42:28Z</time></trkpt><trkpt lat="44.57711190565318" lon="9.280288453345484"><ele>677.0</ele><time>2026-04-19T13:42:29Z</time></trkpt><trkpt lat="44.57706765978464" lon="9.280469183429684"><ele>677.0</ele><time>2026-04-19T13:42:30Z</time></trkpt><trkpt lat="44.57705638043761" lon="9.28055974633131"><ele>677.0</ele><time>2026-04-19T13:42:31Z</time></trkpt><trkpt lat="44.57706774261695" lon="9.280682421176817"><ele>677.0</ele><time>2026-04-19T13:42:32Z</time></trkpt><trkpt lat="44.5770971657195" lon="9.280833429121465"><ele>677.0</ele><time>2026-04-19T13:42:33Z</time></trkpt><trkpt lat="44.57708326862501" lon="9.281003474046214"><ele>679.0</ele><time>2026-04-19T13:42:34Z</time></trkpt><trkpt lat="44.57707988069952" lon="9.281151226560189"><ele>681.0</ele><time>2026-04-19T13:42:35Z</time></trkpt><trkpt lat="44.57706882048452" lon="9.281262135498073"><ele>683.0</ele><time>2026-04-19T13:42:36Z</time></trkpt><trkpt lat="44.57704227508153" lon="9.281367777887985"><ele>685.0</ele><time>2026-04-19T13:42:37Z</time></trkpt><trkpt lat="44.576966015487535" lon="9.281464012724083"><ele>687.0</ele><time>2026-04-19T13:42:38Z</time></trkpt><trkpt lat="44.57686949623067" lon="9.281552866275698"><ele>688.2</ele><time>2026-04-19T13:42:39Z</time></trkpt><trkpt lat="44.576776924178425" lon="9.281610450598356"><ele>689.4000000000001</ele><time>2026-04-19T13:42:40Z</time></trkpt><trkpt lat="44.57668771959071" lon="9.281666057405682"><ele>690.5999999999999</ele><time>2026-04-19T13:42:41Z</time></trkpt><trkpt lat="44.57660893415116" lon="9.281724081622299"><ele>691.8</ele><time>2026-04-19T13:42:42Z</time></trkpt><trkpt lat="44.57653634596971" lon="9.281788938236785"><ele>693.0</ele><time>2026-04-19T13:42:43Z</time></trkpt><trkpt lat="44.57646202354459" lon="9.281870455587226"><ele>693.0</ele><time>2026-04-19T13:42:44Z</time></trkpt><trkpt lat="44.57638940534369" lon="9.281959834942937"><ele>693.0</ele><time>2026-04-19T13:42:45Z</time></trkpt><trkpt lat="44.57631151486858" lon="9.282022760681196"><ele>693.0</ele><time>2026-04-19T13:42:46Z</time></trkpt><trkpt lat="44.57627060131355" lon="9.282102487132242"><ele>693.0</ele><time>2026-04-19T13:42:47Z</time></trkpt><trkpt lat="44.5762247520775" lon="9.282164422021564"><ele>693.0</ele><time>2026-04-19T13:42:48Z</time></trkpt><trkpt lat="44.57625347605388" lon="9.282265037813023"><ele>693.0</ele><time>2026-04-19T13:42:49Z</time></trkpt><trkpt lat="44.576369698179114" lon="9.28233907138659"><ele>695.1666666666666</ele><time>2026-04-19T13:42:51Z</time></trkpt><trkpt lat="44.57645367254033" lon="9.282335583865283"><ele>697.3333333333334</ele><time>2026-04-19T13:42:52Z</time></trkpt><trkpt lat="44.576560940642004" lon="9.282349796334254"><ele>699.5</ele><time>2026-04-19T13:42:53Z</time></trkpt><trkpt lat="44.57665107676696" lon="9.282396197559505"><ele>701.6666666666667</ele><time>2026-04-19T13:42:54Z</time></trkpt><trkpt lat="44.57673410787182" lon="9.28242048952745"><ele>703.8333333333334</ele><time>2026-04-19T13:42:55Z</time></trkpt><trkpt lat="44.5767742322186" lon="9.28249321478055"><ele>706.0</ele><time>2026-04-19T13:42:56Z</time></trkpt><trkpt lat="44.576763265569284" lon="9.282637041262417"><ele>706.0</ele><time>2026-04-19T13:42:58Z</time></trkpt><trkpt lat="44.576696967044725" lon="9.282662104206187"><ele>706.0</ele><time>2026-04-19T13:42:59Z</time></trkpt><trkpt lat="44.576621557947384" lon="9.282662652847106"><ele>706.0</ele><time>2026-04-19T13:43:00Z</time></trkpt><trkpt lat="44.57652794923241" lon="9.282689782578665"><ele>706.0</ele><time>2026-04-19T13:43:01Z</time></trkpt><trkpt lat="44.576417521247954" lon="9.282712495916503"><ele>706.0</ele><time>2026-04-19T13:43:01.999Z</time></trkpt><trkpt lat="44.57631766054141" lon="9.28275605890549"><ele>706.0</ele><time>2026-04-19T13:43:02.999Z</time></trkpt><trkpt lat="44.57621904186794" lon="9.282824181544784"><ele>706.0</ele><time>2026-04-19T13:43:03.999Z</time></trkpt><trkpt lat="44.57612340354614" lon="9.282902703269228"><ele>706.0</ele><time>2026-04-19T13:43:04.999Z</time></trkpt><trkpt lat="44.57602770296507" lon="9.28298567686844"><ele>706.0</ele><time>2026-04-19T13:43:05.999Z</time></trkpt><trkpt lat="44.575927493063766" lon="9.283070884966236"><ele>709.1999999999999</ele><time>2026-04-19T13:43:06.999Z</time></trkpt><trkpt lat="44.57583478458838" lon="9.28314651524501"><ele>712.4</ele><time>2026-04-19T13:43:07.999Z</time></trkpt><trkpt lat="44.5757362195142" lon="9.283212802132955"><ele>715.6</ele><time>2026-04-19T13:43:08.999Z</time></trkpt><trkpt lat="44.57563741645674" lon="9.283269771444553"><ele>718.8</ele><time>2026-04-19T13:43:09.999Z</time></trkpt><trkpt lat="44.57553455728799" lon="9.283322397190311"><ele>722.0</ele><time>2026-04-19T13:43:10.999Z</time></trkpt><trkpt lat="44.57544018267964" lon="9.283366023689336"><ele>721.2</ele><time>2026-04-19T13:43:11.999Z</time></trkpt><trkpt lat="44.57533627502711" lon="9.283403390733461"><ele>720.4000000000001</ele><time>2026-04-19T13:43:12.999Z</time></trkpt><trkpt lat="44.57523022286783" lon="9.28342746256351"><ele>719.5999999999999</ele><time>2026-04-19T13:43:13.999Z</time></trkpt><trkpt lat="44.57515138228656" lon="9.283431041483546"><ele>718.8</ele><time>2026-04-19T13:43:14.999Z</time></trkpt><trkpt lat="44.575071218327096" lon="9.283431312275926"><ele>718.0</ele><time>2026-04-19T13:43:15.999Z</time></trkpt><trkpt lat="44.574990993890566" lon="9.283436226066165"><ele>718.0</ele><time>2026-04-19T13:43:16.999Z</time></trkpt><trkpt lat="44.574916991211154" lon="9.283505686157643"><ele>718.0</ele><time>2026-04-19T13:43:18.999Z</time></trkpt><trkpt lat="44.57494963619871" lon="9.28366837155791"><ele>718.0</ele><time>2026-04-19T13:43:20.999Z</time></trkpt><trkpt lat="44.575024504296266" lon="9.283704065502038"><ele>718.0</ele><time>2026-04-19T13:43:21.999Z</time></trkpt><trkpt lat="44.575127961476866" lon="9.283722090238378"><ele>718.0</ele><time>2026-04-19T13:43:22.999Z</time></trkpt><trkpt lat="44.57524125659304" lon="9.283733514161126"><ele>719.0</ele><time>2026-04-19T13:43:23.999Z</time></trkpt><trkpt lat="44.575360650389726" lon="9.283732664806736"><ele>720.0</ele><time>2026-04-19T13:43:24.999Z</time></trkpt><trkpt lat="44.57550455538113" lon="9.283716509734315"><ele>721.0</ele><time>2026-04-19T13:43:25.999Z</time></trkpt><trkpt lat="44.575656584733466" lon="9.283741049892495"><ele>722.0</ele><time>2026-04-19T13:43:26.999Z</time></trkpt><trkpt lat="44.575773070396" lon="9.283777126984747"><ele>722.0</ele><time>2026-04-19T13:43:27.999Z</time></trkpt><trkpt lat="44.57590097666431" lon="9.283781945983675"><ele>722.0</ele><time>2026-04-19T13:43:28.999Z</time></trkpt><trkpt lat="44.57600774352826" lon="9.283861978461056"><ele>722.0</ele><time>2026-04-19T13:43:29.999Z</time></trkpt><trkpt lat="44.5760896148627" lon="9.283934420013205"><ele>722.0</ele><time>2026-04-19T13:43:30.999Z</time></trkpt><trkpt lat="44.57616891272011" lon="9.284034446039621"><ele>727.25</ele><time>2026-04-19T13:43:31.999Z</time></trkpt><trkpt lat="44.576262361875834" lon="9.284140650628466"><ele>732.5</ele><time>2026-04-19T13:43:32.999Z</time></trkpt><trkpt lat="44.57636859790856" lon="9.284235678369525"><ele>737.75</ele><time>2026-04-19T13:43:33.999Z</time></trkpt><trkpt lat="44.57646588012438" lon="9.284353951053058"><ele>743.0</ele><time>2026-04-19T13:43:34.999Z</time></trkpt><trkpt lat="44.576542320608056" lon="9.284466360729184"><ele>743.0</ele><time>2026-04-19T13:43:35.999Z</time></trkpt><trkpt lat="44.57660969188425" lon="9.284569096061816"><ele>743.0</ele><time>2026-04-19T13:43:36.999Z</time></trkpt><trkpt lat="44.57669038401587" lon="9.284657079442598"><ele>743.0</ele><time>2026-04-19T13:43:37.999Z</time></trkpt><trkpt lat="44.5768123241988" lon="9.284695777858465"><ele>743.0</ele><time>2026-04-19T13:43:38.999Z</time></trkpt><trkpt lat="44.57694309979396" lon="9.284708774864885"><ele>743.8</ele><time>2026-04-19T13:43:39.999Z</time></trkpt><trkpt lat="44.577071079959936" lon="9.284751850541243"><ele>744.5999999999999</ele><time>2026-04-19T13:43:40.999Z</time></trkpt><trkpt lat="44.57716922740632" lon="9.28477513715478"><ele>745.4000000000001</ele><time>2026-04-19T13:43:41.999Z</time></trkpt><trkpt lat="44.57727013208734" lon="9.28477872767168"><ele>746.2</ele><time>2026-04-19T13:43:42.999Z</time></trkpt><trkpt lat="44.577338516162214" lon="9.284691634429752"><ele>747.0</ele><time>2026-04-19T13:43:43.999Z</time></trkpt><trkpt lat="44.57743392021359" lon="9.284619053623725"><ele>747.0</ele><time>2026-04-19T13:43:44.999Z</time></trkpt><trkpt lat="44.57753246694219" lon="9.284555316280159"><ele>747.0</ele><time>2026-04-19T13:43:45.999Z</time></trkpt><trkpt lat="44.57764308870695" lon="9.284548496587362"><ele>747.0</ele><time>2026-04-19T13:43:46.999Z</time></trkpt><trkpt lat="44.577722103754645" lon="9.284563562158397"><ele>747.0</ele><time>2026-04-19T13:43:47.999Z</time></trkpt><trkpt lat="44.57779847846944" lon="9.284599138287676"><ele>747.0</ele><time>2026-04-19T13:43:48.999Z</time></trkpt><trkpt lat="44.577855757830484" lon="9.284655191129998"><ele>747.0</ele><time>2026-04-19T13:43:49.999Z</time></trkpt><trkpt lat="44.577945188229386" lon="9.284755131219812"><ele>750.5</ele><time>2026-04-19T13:43:50.999Z</time></trkpt><trkpt lat="44.578045055432426" lon="9.284879980851425"><ele>754.0</ele><time>2026-04-19T13:43:51.999Z</time></trkpt><trkpt lat="44.57812923975156" lon="9.284986438637588"><ele>757.5</ele><time>2026-04-19T13:43:52.999Z</time></trkpt><trkpt lat="44.57821721602245" lon="9.2850820969702"><ele>761.0</ele><time>2026-04-19T13:43:53.999Z</time></trkpt><trkpt lat="44.57827600396811" lon="9.285193401999539"><ele>761.0</ele><time>2026-04-19T13:43:54.999Z</time></trkpt><trkpt lat="44.57833379368583" lon="9.285328096711273"><ele>761.0</ele><time>2026-04-19T13:43:55.999Z</time></trkpt><trkpt lat="44.57840988718319" lon="9.28543190355713"><ele>761.0</ele><time>2026-04-19T13:43:56.999Z</time></trkpt><trkpt lat="44.57842836974133" lon="9.285526810377155"><ele>761.0</ele><time>2026-04-19T13:43:57.999Z</time></trkpt><trkpt lat="44.57846777493609" lon="9.285608164236326"><ele>761.0</ele><time>2026-04-19T13:43:58.999Z</time></trkpt><trkpt lat="44.578465264327086" lon="9.285699792305"><ele>761.0</ele><time>2026-04-19T13:43:59.999Z</time></trkpt><trkpt lat="44.57841902330984" lon="9.285786287412924"><ele>762.4</ele><time>2026-04-19T13:44:01Z</time></trkpt><trkpt lat="44.57835989689243" lon="9.285834814083207"><ele>763.8</ele><time>2026-04-19T13:44:02Z</time></trkpt><trkpt lat="44.57827742623824" lon="9.285876738149"><ele>765.1999999999999</ele><time>2026-04-19T13:44:03Z</time></trkpt><trkpt lat="44.5781743761969" lon="9.285917008356265"><ele>766.5999999999999</ele><time>2026-04-19T13:44:04Z</time></trkpt><trkpt lat="44.57805529447919" lon="9.28594509368911"><ele>768.0</ele><time>2026-04-19T13:44:05Z</time></trkpt><trkpt lat="44.57794743374463" lon="9.285945013964135"><ele>768.0</ele><time>2026-04-19T13:44:06Z</time></trkpt><trkpt lat="44.57786556271341" lon="9.285917139151474"><ele>768.0</ele><time>2026-04-19T13:44:07Z</time></trkpt><trkpt lat="44.577779488483195" lon="9.28588841161184"><ele>768.0</ele><time>2026-04-19T13:44:08Z</time></trkpt><trkpt lat="44.57767842522753" lon="9.285890409591268"><ele>768.0</ele><time>2026-04-19T13:44:09Z</time></trkpt><trkpt lat="44.57757185107996" lon="9.285950268097649"><ele>768.0</ele><time>2026-04-19T13:44:10Z</time></trkpt><trkpt lat="44.577493928059795" lon="9.286024572466468"><ele>769.0</ele><time>2026-04-19T13:44:11Z</time></trkpt><trkpt lat="44.577409020108334" lon="9.286138323454379"><ele>770.0</ele><time>2026-04-19T13:44:12Z</time></trkpt><trkpt lat="44.57731896926376" lon="9.286251018132335"><ele>771.0</ele><time>2026-04-19T13:44:13Z</time></trkpt><trkpt lat="44.57725756235876" lon="9.286356376721422"><ele>772.0</ele><time>2026-04-19T13:44:14Z</time></trkpt><trkpt lat="44.57720545571053" lon="9.286419401939378"><ele>773.0</ele><time>2026-04-19T13:44:15Z</time></trkpt><trkpt lat="44.577187010298026" lon="9.286515521374188"><ele>775.2</ele><time>2026-04-19T13:44:16Z</time></trkpt><trkpt lat="44.5771888516202" lon="9.286636606376264"><ele>777.4</ele><time>2026-04-19T13:44:17Z</time></trkpt><trkpt lat="44.57725084093986" lon="9.286756614186867"><ele>779.6</ele><time>2026-04-19T13:44:18Z</time></trkpt><trkpt lat="44.57727889924595" lon="9.286907086415155"><ele>781.8000000000001</ele><time>2026-04-19T13:44:19Z</time></trkpt><trkpt lat="44.577320068283974" lon="9.287058532543112"><ele>784.0</ele><time>2026-04-19T13:44:20Z</time></trkpt><trkpt lat="44.57736554253942" lon="9.287195477178027"><ele>785.25</ele><time>2026-04-19T13:44:21Z</time></trkpt><trkpt lat="44.57742001403319" lon="9.28732928501421"><ele>786.5</ele><time>2026-04-19T13:44:22Z</time></trkpt><trkpt lat="44.5774410190272" lon="9.28750755822601"><ele>787.75</ele><time>2026-04-19T13:44:23Z</time></trkpt><trkpt lat="44.57747699506745" lon="9.28768946184943"><ele>789.0</ele><time>2026-04-19T13:44:24Z</time></trkpt><trkpt lat="44.577511354029554" lon="9.287897815659187"><ele>789.0</ele><time>2026-04-19T13:44:25Z</time></trkpt><trkpt lat="44.577554363404786" lon="9.288088760408328"><ele>789.0</ele><time>2026-04-19T13:44:26Z</time></trkpt><trkpt lat="44.57757806231585" lon="9.28826298200294"><ele>789.0</ele><time>2026-04-19T13:44:27Z</time></trkpt><trkpt lat="44.577582138346564" lon="9.288440129437527"><ele>789.0</ele><time>2026-04-19T13:44:28Z</time></trkpt><trkpt lat="44.577571590964254" lon="9.288625454687086"><ele>790.0</ele><time>2026-04-19T13:44:29Z</time></trkpt><trkpt lat="44.57755943639322" lon="9.288833547015344"><ele>791.0</ele><time>2026-04-19T13:44:30Z</time></trkpt><trkpt lat="44.57756513042714" lon="9.289048609898067"><ele>792.0</ele><time>2026-04-19T13:44:31Z</time></trkpt><trkpt lat="44.57757344324106" lon="9.289237486461772"><ele>793.0</ele><time>2026-04-19T13:44:32Z</time></trkpt><trkpt lat="44.577581584737814" lon="9.289400651652459"><ele>794.5</ele><time>2026-04-19T13:44:33Z</time></trkpt><trkpt lat="44.577583811562505" lon="9.289567332195931"><ele>796.0</ele><time>2026-04-19T13:44:34Z</time></trkpt><trkpt lat="44.57760031627638" lon="9.28977143873404"><ele>797.5</ele><time>2026-04-19T13:44:35Z</time></trkpt><trkpt lat="44.57760322955171" lon="9.289964887349438"><ele>799.0</ele><time>2026-04-19T13:44:36Z</time></trkpt><trkpt lat="44.577618890972815" lon="9.290117843346499"><ele>800.2</ele><time>2026-04-19T13:44:37Z</time></trkpt><trkpt lat="44.57766323182952" lon="9.290227361752912"><ele>801.4000000000001</ele><time>2026-04-19T13:44:38Z</time></trkpt><trkpt lat="44.57771085717164" lon="9.290325016717578"><ele>802.6</ele><time>2026-04-19T13:44:39Z</time></trkpt><trkpt lat="44.57778726052341" lon="9.29045348768994"><ele>803.8</ele><time>2026-04-19T13:44:40Z</time></trkpt><trkpt lat="44.57787544831864" lon="9.29060292460507"><ele>805.0</ele><time>2026-04-19T13:44:41Z</time></trkpt><trkpt lat="44.57795357347488" lon="9.290726290042501"><ele>808.25</ele><time>2026-04-19T13:44:42Z</time></trkpt><trkpt lat="44.57804065547137" lon="9.290826508735389"><ele>811.5</ele><time>2026-04-19T13:44:43Z</time></trkpt><trkpt lat="44.57813916821506" lon="9.290919907273405"><ele>814.75</ele><time>2026-04-19T13:44:44Z</time></trkpt><trkpt lat="44.578250502051375" lon="9.29100010175671"><ele>818.0</ele><time>2026-04-19T13:44:45Z</time></trkpt><trkpt lat="44.57838618150641" lon="9.291060548026751"><ele>818.0</ele><time>2026-04-19T13:44:46Z</time></trkpt><trkpt lat="44.57851790023813" lon="9.291140329723495"><ele>818.0</ele><time>2026-04-19T13:44:47Z</time></trkpt><trkpt lat="44.578647083769766" lon="9.29120268572586"><ele>818.0</ele><time>2026-04-19T13:44:48Z</time></trkpt><trkpt lat="44.57875284575403" lon="9.291251979181002"><ele>818.0</ele><time>2026-04-19T13:44:49Z</time></trkpt><trkpt lat="44.578841485468125" lon="9.291291061665625"><ele>816.5999999999999</ele><time>2026-04-19T13:44:50Z</time></trkpt><trkpt lat="44.57892710148123" lon="9.291331910920732"><ele>815.1999999999999</ele><time>2026-04-19T13:44:51Z</time></trkpt><trkpt lat="44.57899961488403" lon="9.291427624057858"><ele>813.8</ele><time>2026-04-19T13:44:52Z</time></trkpt><trkpt lat="44.579052719907516" lon="9.291551006730577"><ele>812.4</ele><time>2026-04-19T13:44:53Z</time></trkpt><trkpt lat="44.57907680497308" lon="9.29171008473768"><ele>811.0</ele><time>2026-04-19T13:44:54Z</time></trkpt><trkpt lat="44.57910337093148" lon="9.291866491164685"><ele>814.5</ele><time>2026-04-19T13:44:55Z</time></trkpt><trkpt lat="44.57910037750275" lon="9.292006632425789"><ele>818.0</ele><time>2026-04-19T13:44:56Z</time></trkpt><trkpt lat="44.57908390556562" lon="9.292152769631283"><ele>821.5</ele><time>2026-04-19T13:44:57Z</time></trkpt><trkpt lat="44.57904491122391" lon="9.292319107019358"><ele>825.0</ele><time>2026-04-19T13:44:58Z</time></trkpt><trkpt lat="44.579021561600946" lon="9.292504547414895"><ele>825.0</ele><time>2026-04-19T13:44:59Z</time></trkpt><trkpt lat="44.57900901004559" lon="9.292708439507576"><ele>825.0</ele><time>2026-04-19T13:45:00Z</time></trkpt><trkpt lat="44.57899729861805" lon="9.292904694601638"><ele>825.0</ele><time>2026-04-19T13:45:01Z</time></trkpt><trkpt lat="44.5789901131786" lon="9.293062849298826"><ele>825.0</ele><time>2026-04-19T13:45:02Z</time></trkpt><trkpt lat="44.57898709398415" lon="9.293203264706651"><ele>825.8</ele><time>2026-04-19T13:45:03Z</time></trkpt><trkpt lat="44.57899195006724" lon="9.293326397740744"><ele>826.6</ele><time>2026-04-19T13:45:04Z</time></trkpt><trkpt lat="44.578991718626426" lon="9.293477131502534"><ele>827.4000000000001</ele><time>2026-04-19T13:45:05Z</time></trkpt><trkpt lat="44.578978408284755" lon="9.293607251724959"><ele>828.2</ele><time>2026-04-19T13:45:06Z</time></trkpt><trkpt lat="44.578981562793246" lon="9.293750418204418"><ele>829.0</ele><time>2026-04-19T13:45:06.999Z</time></trkpt><trkpt lat="44.57895590002692" lon="9.293862603142829"><ele>828.9999999999999</ele><time>2026-04-19T13:45:07.999Z</time></trkpt><trkpt lat="44.57892685129138" lon="9.293980732672225"><ele>829.0</ele><time>2026-04-19T13:45:08.999Z</time></trkpt><trkpt lat="44.57887227227676" lon="9.294094125881301"><ele>829.0</ele><time>2026-04-19T13:45:09.999Z</time></trkpt><trkpt lat="44.578817895176705" lon="9.294203229502934"><ele>829.0</ele><time>2026-04-19T13:45:10.999Z</time></trkpt><trkpt lat="44.578769446568835" lon="9.294286643151532"><ele>828.9999999999999</ele><time>2026-04-19T13:45:11.999Z</time></trkpt><trkpt lat="44.5787351352305" lon="9.294381809022575"><ele>829.0</ele><time>2026-04-19T13:45:13.999Z</time></trkpt><trkpt lat="44.57865498473073" lon="9.294418222461761"><ele>829.0</ele><time>2026-04-19T13:47:01Z</time></trkpt><trkpt lat="44.57855530644696" lon="9.29448717031059"><ele>829.0</ele><time>2026-04-19T13:47:03Z</time></trkpt><trkpt lat="44.57845916849028" lon="9.294546963365642"><ele>829.0</ele><time>2026-04-19T13:47:05Z</time></trkpt><trkpt lat="44.57836894394782" lon="9.294615047795228"><ele>829.0</ele><time>2026-04-19T13:47:07Z</time></trkpt><trkpt lat="44.5783110420584" lon="9.294750987251335"><ele>829.0</ele><time>2026-04-19T13:47:09Z</time></trkpt><trkpt lat="44.57830255699293" lon="9.29485207185018"><ele>829.8333333333333</ele><time>2026-04-19T13:47:10Z</time></trkpt><trkpt lat="44.578251849506614" lon="9.295018451176233"><ele>830.6666666666666</ele><time>2026-04-19T13:47:11.999Z</time></trkpt><trkpt lat="44.578219255777434" lon="9.295097189104208"><ele>831.5</ele><time>2026-04-19T13:47:12.999Z</time></trkpt><trkpt lat="44.57817587286978" lon="9.295179912971117"><ele>832.3333333333333</ele><time>2026-04-19T13:47:13.999Z</time></trkpt><trkpt lat="44.57812753595967" lon="9.295249070811659"><ele>833.1666666666666</ele><time>2026-04-19T13:47:14.999Z</time></trkpt><trkpt lat="44.57806654744058" lon="9.29530141194899"><ele>834.0</ele><time>2026-04-19T13:47:15.999Z</time></trkpt><trkpt lat="44.578001272687004" lon="9.295355021656517"><ele>834.0</ele><time>2026-04-19T13:47:16.999Z</time></trkpt><trkpt lat="44.57793402270342" lon="9.295406446745517"><ele>834.0</ele><time>2026-04-19T13:47:17.999Z</time></trkpt><trkpt lat="44.57785786780054" lon="9.295464842442568"><ele>834.0</ele><time>2026-04-19T13:47:18.999Z</time></trkpt><trkpt lat="44.5778048537945" lon="9.295515667743528"><ele>834.0</ele><time>2026-04-19T13:47:19.999Z</time></trkpt><trkpt lat="44.57770432102182" lon="9.295589349543409"><ele>834.0</ele><time>2026-04-19T13:47:21.999Z</time></trkpt><trkpt lat="44.57762618305477" lon="9.295492803874373"><ele>834.0</ele><time>2026-04-19T13:47:23.999Z</time></trkpt><trkpt lat="44.5776225098807" lon="9.295334679899065"><ele>835.3333333333334</ele><time>2026-04-19T13:47:25.999Z</time></trkpt><trkpt lat="44.57764260073978" lon="9.295206492887386"><ele>836.6666666666667</ele><time>2026-04-19T13:47:27.999Z</time></trkpt><trkpt lat="44.57767677402725" lon="9.295123292934933"><ele>838.0</ele><time>2026-04-19T13:47:28.999Z</time></trkpt><trkpt lat="44.57768666785775" lon="9.295035031411423"><ele>839.3333333333334</ele><time>2026-04-19T13:47:29.999Z</time></trkpt><trkpt lat="44.577673309088766" lon="9.294907013940978"><ele>840.6666666666667</ele><time>2026-04-19T13:47:31.999Z</time></trkpt><trkpt lat="44.57766126999896" lon="9.29481328768169"><ele>842.0</ele><time>2026-04-19T13:47:32.999Z</time></trkpt><trkpt lat="44.5776024576508" lon="9.294653273916003"><ele>842.0000000000001</ele><time>2026-04-19T13:47:34.999Z</time></trkpt><trkpt lat="44.57756718753115" lon="9.294567265571077"><ele>842.0</ele><time>2026-04-19T13:47:35.999Z</time></trkpt><trkpt lat="44.57753115213337" lon="9.294485122193084"><ele>842.0</ele><time>2026-04-19T13:47:36.999Z</time></trkpt><trkpt lat="44.5774900131163" lon="9.294394677118852"><ele>842.0</ele><time>2026-04-19T13:47:37.999Z</time></trkpt><trkpt lat="44.57744683882817" lon="9.294305130540902"><ele>842.0</ele><time>2026-04-19T13:47:38.999Z</time></trkpt><trkpt lat="44.57740482220248" lon="9.294222225961299"><ele>842.0000000000001</ele><time>2026-04-19T13:47:39.999Z</time></trkpt><trkpt lat="44.57735418091232" lon="9.294156656425939"><ele>842.0</ele><time>2026-04-19T13:47:40.999Z</time></trkpt><trkpt lat="44.57731595332143" lon="9.294078065425456"><ele>842.0000000000001</ele><time>2026-04-19T13:47:41.999Z</time></trkpt><trkpt lat="44.57727489163723" lon="9.294003052580946"><ele>842.0</ele><time>2026-04-19T13:47:42.999Z</time></trkpt><trkpt lat="44.57722424757553" lon="9.293943369449552"><ele>842.0</ele><time>2026-04-19T13:47:43.999Z</time></trkpt><trkpt lat="44.577113863595656" lon="9.293928289731351"><ele>842.0</ele><time>2026-04-19T13:47:45.999Z</time></trkpt><trkpt lat="44.577045323172875" lon="9.29395874292533"><ele>842.0000000000001</ele><time>2026-04-19T13:47:46.999Z</time></trkpt><trkpt lat="44.57699090645638" lon="9.294020984505659"><ele>842.0</ele><time>2026-04-19T13:47:47.999Z</time></trkpt><trkpt lat="44.5769459284755" lon="9.294089260169436"><ele>844.1666666666667</ele><time>2026-04-19T13:47:48.999Z</time></trkpt><trkpt lat="44.57691511815751" lon="9.294186081071683"><ele>846.3333333333334</ele><time>2026-04-19T13:47:49.999Z</time></trkpt><trkpt lat="44.576866947375485" lon="9.294259666148031"><ele>848.5</ele><time>2026-04-19T13:47:50.999Z</time></trkpt><trkpt lat="44.57676948688735" lon="9.294366881967392"><ele>850.6666666666667</ele><time>2026-04-19T13:47:52.999Z</time></trkpt><trkpt lat="44.57671698597371" lon="9.294417082715933"><ele>852.8333333333334</ele><time>2026-04-19T13:47:53.999Z</time></trkpt><trkpt lat="44.576653975655105" lon="9.294465580669275"><ele>855.0</ele><time>2026-04-19T13:47:54.999Z</time></trkpt><trkpt lat="44.57655890414282" lon="9.294461477786452"><ele>855.0</ele><time>2026-04-19T13:47:55.999Z</time></trkpt><trkpt lat="44.57646644071964" lon="9.294462695586194"><ele>855.0</ele><time>2026-04-19T13:47:56.999Z</time></trkpt><trkpt lat="44.576402846815135" lon="9.29446054434878"><ele>855.0</ele><time>2026-04-19T13:47:57.999Z</time></trkpt><trkpt lat="44.576332218870064" lon="9.294459757930795"><ele>855.0</ele><time>2026-04-19T13:47:58.999Z</time></trkpt><trkpt lat="44.57626610115092" lon="9.294462416972822"><ele>855.0</ele><time>2026-04-19T13:47:59.999Z</time></trkpt><trkpt lat="44.57614707552441" lon="9.294490076209183"><ele>855.0</ele><time>2026-04-19T13:48:01.999Z</time></trkpt><trkpt lat="44.576086765074315" lon="9.294533282513049"><ele>855.6</ele><time>2026-04-19T13:48:02.999Z</time></trkpt><trkpt lat="44.57603437507555" lon="9.294608897036813"><ele>856.2</ele><time>2026-04-19T13:48:03.999Z</time></trkpt><trkpt lat="44.57601720285471" lon="9.294727256152472"><ele>856.8</ele><time>2026-04-19T13:48:04.999Z</time></trkpt><trkpt lat="44.576115839896524" lon="9.294821146377883"><ele>857.4</ele><time>2026-04-19T13:48:05.999Z</time></trkpt><trkpt lat="44.576203636327214" lon="9.294951522988786"><ele>858.0</ele><time>2026-04-19T13:48:07.999Z</time></trkpt><trkpt lat="44.576256175410194" lon="9.295046846077568"><ele>858.4</ele><time>2026-04-19T13:48:08.999Z</time></trkpt><trkpt lat="44.576297890948894" lon="9.295156596799096"><ele>858.8</ele><time>2026-04-19T13:48:09.999Z</time></trkpt><trkpt lat="44.57636995571373" lon="9.29524736978254"><ele>859.2</ele><time>2026-04-19T13:48:10.999Z</time></trkpt><trkpt lat="44.57641072191871" lon="9.295341603972812"><ele>859.6</ele><time>2026-04-19T13:48:11.999Z</time></trkpt><trkpt lat="44.57646406875909" lon="9.295489352916315"><ele>860.0</ele><time>2026-04-19T13:48:14Z</time></trkpt><trkpt lat="44.576503068040175" lon="9.295656414578653"><ele>861.8333333333334</ele><time>2026-04-19T13:48:16Z</time></trkpt><trkpt lat="44.576516707251066" lon="9.295750090611781"><ele>863.6666666666667</ele><time>2026-04-19T13:48:17Z</time></trkpt><trkpt lat="44.576525932400756" lon="9.29584818646911"><ele>865.5</ele><time>2026-04-19T13:48:18Z</time></trkpt><trkpt lat="44.57653646709678" lon="9.295953337830378"><ele>867.3333333333333</ele><time>2026-04-19T13:48:19Z</time></trkpt><trkpt lat="44.57654733667645" lon="9.296080386761414"><ele>869.1666666666666</ele><time>2026-04-19T13:48:20Z</time></trkpt><trkpt lat="44.57657061769195" lon="9.296221941517713"><ele>871.0</ele><time>2026-04-19T13:48:21Z</time></trkpt><trkpt lat="44.57656259177291" lon="9.296366722428319"><ele>871.8333333333333</ele><time>2026-04-19T13:48:22Z</time></trkpt><trkpt lat="44.57655774193182" lon="9.296485071527778"><ele>872.6666666666666</ele><time>2026-04-19T13:48:23Z</time></trkpt><trkpt lat="44.57655133363115" lon="9.296581573616328"><ele>873.5</ele><time>2026-04-19T13:48:24Z</time></trkpt><trkpt lat="44.576540824241434" lon="9.296681373718881"><ele>874.3333333333333</ele><time>2026-04-19T13:48:25Z</time></trkpt><trkpt lat="44.57652317752142" lon="9.296797796292168"><ele>875.1666666666666</ele><time>2026-04-19T13:48:26Z</time></trkpt><trkpt lat="44.576471510545936" lon="9.296948904681948"><ele>876.0</ele><time>2026-04-19T13:48:28Z</time></trkpt><trkpt lat="44.57642972822096" lon="9.297050822409489"><ele>876.0</ele><time>2026-04-19T13:48:29Z</time></trkpt><trkpt lat="44.57638743048911" lon="9.297142263159659"><ele>875.9999999999999</ele><time>2026-04-19T13:48:30Z</time></trkpt><trkpt lat="44.57633542159841" lon="9.297243923727397"><ele>875.9999999999999</ele><time>2026-04-19T13:48:31Z</time></trkpt><trkpt lat="44.576282757920154" lon="9.297340121133248"><ele>876.0</ele><time>2026-04-19T13:48:32Z</time></trkpt><trkpt lat="44.5762064817724" lon="9.297435226099777"><ele>876.0</ele><time>2026-04-19T13:48:33Z</time></trkpt><trkpt lat="44.576139838685414" lon="9.29753206675201"><ele>879.1666666666666</ele><time>2026-04-19T13:48:34Z</time></trkpt><trkpt lat="44.57608369674666" lon="9.297637354423484"><ele>882.3333333333333</ele><time>2026-04-19T13:48:35Z</time></trkpt><trkpt lat="44.57602019819277" lon="9.297731523003014"><ele>885.5</ele><time>2026-04-19T13:48:36Z</time></trkpt><trkpt lat="44.5759639747124" lon="9.297806178009225"><ele>888.6666666666666</ele><time>2026-04-19T13:48:37Z</time></trkpt><trkpt lat="44.57590749025736" lon="9.29788498830658"><ele>891.8333333333333</ele><time>2026-04-19T13:48:38Z</time></trkpt><trkpt lat="44.575826726488145" lon="9.29797151534666"><ele>895.0</ele><time>2026-04-19T13:48:40Z</time></trkpt><trkpt lat="44.5757402471006" lon="9.297976065381384"><ele>895.0</ele><time>2026-04-19T13:48:42Z</time></trkpt><trkpt lat="44.575676451254516" lon="9.29796192804936"><ele>895.0</ele><time>2026-04-19T13:48:43Z</time></trkpt><trkpt lat="44.57561216787026" lon="9.297917973654299"><ele>895.0</ele><time>2026-04-19T13:48:44Z</time></trkpt><trkpt lat="44.57555148315765" lon="9.297856248724939"><ele>895.0</ele><time>2026-04-19T13:48:45Z</time></trkpt><trkpt lat="44.57549174707098" lon="9.297785851415577"><ele>895.0</ele><time>2026-04-19T13:48:46Z</time></trkpt><trkpt lat="44.575457646530246" lon="9.297692142199177"><ele>895.0</ele><time>2026-04-19T13:48:47Z</time></trkpt><trkpt lat="44.575406143814995" lon="9.297625747122384"><ele>895.0</ele><time>2026-04-19T13:48:48Z</time></trkpt><trkpt lat="44.57535777166692" lon="9.297510230086765"><ele>896.2</ele><time>2026-04-19T13:48:49Z</time></trkpt><trkpt lat="44.57532506590225" lon="9.297413561778647"><ele>897.4</ele><time>2026-04-19T13:48:50Z</time></trkpt><trkpt lat="44.575273727708826" lon="9.297247240656148"><ele>898.5999999999999</ele><time>2026-04-19T13:48:52Z</time></trkpt><trkpt lat="44.575289347529356" lon="9.29714062713917"><ele>899.8</ele><time>2026-04-19T13:48:53Z</time></trkpt><trkpt lat="44.57532568659033" lon="9.297008848507774"><ele>901.0</ele><time>2026-04-19T13:48:55Z</time></trkpt><trkpt lat="44.5753493820686" lon="9.296920980567002"><ele>900.8333333333333</ele><time>2026-04-19T13:48:56Z</time></trkpt><trkpt lat="44.575372315464385" lon="9.2968220339155"><ele>900.6666666666666</ele><time>2026-04-19T13:48:57Z</time></trkpt><trkpt lat="44.575429912731515" lon="9.296718401507029"><ele>900.5</ele><time>2026-04-19T13:48:58Z</time></trkpt><trkpt lat="44.57546520482363" lon="9.296639403729955"><ele>900.3333333333333</ele><time>2026-04-19T13:48:59Z</time></trkpt><trkpt lat="44.57546064701804" lon="9.296463821605197"><ele>900.1666666666666</ele><time>2026-04-19T13:49:01Z</time></trkpt><trkpt lat="44.57543847929343" lon="9.296376503975054"><ele>900.0</ele><time>2026-04-19T13:49:02Z</time></trkpt><trkpt lat="44.575367670410586" lon="9.296326586010222"><ele>899.4</ele><time>2026-04-19T13:49:03Z</time></trkpt><trkpt lat="44.575272630949314" lon="9.29627112925653"><ele>898.8</ele><time>2026-04-19T13:49:04Z</time></trkpt><trkpt lat="44.5751694931919" lon="9.296211363366181"><ele>898.2</ele><time>2026-04-19T13:49:05Z</time></trkpt><trkpt lat="44.57506404976021" lon="9.296155205198346"><ele>897.6</ele><time>2026-04-19T13:49:06Z</time></trkpt><trkpt lat="44.57498154570272" lon="9.296096193465688"><ele>897.0</ele><time>2026-04-19T13:49:07Z</time></trkpt><trkpt lat="44.574890062792974" lon="9.296087442224595"><ele>897.0</ele><time>2026-04-19T13:49:08Z</time></trkpt><trkpt lat="44.5748099267684" lon="9.29612213013421"><ele>897.0</ele><time>2026-04-19T13:49:09Z</time></trkpt><trkpt lat="44.57472531942922" lon="9.29619564619538"><ele>897.0</ele><time>2026-04-19T13:49:11Z</time></trkpt><trkpt lat="44.5746384366615" lon="9.29625625553065"><ele>897.0</ele><time>2026-04-19T13:49:14Z</time></trkpt><trkpt lat="44.57457699082564" lon="9.296279391797542"><ele>897.0</ele><time>2026-04-19T13:49:16Z</time></trkpt><trkpt lat="44.574475375912805" lon="9.296329057793207"><ele>897.1428571428571</ele><time>2026-04-19T13:49:18Z</time></trkpt><trkpt lat="44.57441269042354" lon="9.296386445149329"><ele>897.2857142857142</ele><time>2026-04-19T13:49:18.999Z</time></trkpt><trkpt lat="44.574380357745795" lon="9.296474877893395"><ele>897.4285714285713</ele><time>2026-04-19T13:49:19.999Z</time></trkpt><trkpt lat="44.574358191876854" lon="9.296561465267066"><ele>897.5714285714286</ele><time>2026-04-19T13:49:20.999Z</time></trkpt><trkpt lat="44.57435094087793" lon="9.296651664384168"><ele>897.7142857142856</ele><time>2026-04-19T13:49:21.999Z</time></trkpt><trkpt lat="44.57433416130238" lon="9.296755627897774"><ele>897.8571428571428</ele><time>2026-04-19T13:49:22.999Z</time></trkpt><trkpt lat="44.57433065420553" lon="9.296876061758043"><ele>898.0</ele><time>2026-04-19T13:49:23.999Z</time></trkpt><trkpt lat="44.574320439983026" lon="9.296973585393104"><ele>898.5714285714286</ele><time>2026-04-19T13:49:24.999Z</time></trkpt><trkpt lat="44.57432749997615" lon="9.29706550829241"><ele>899.1428571428571</ele><time>2026-04-19T13:49:25.999Z</time></trkpt><trkpt lat="44.5743064595538" lon="9.297172790757632"><ele>899.7142857142857</ele><time>2026-04-19T13:49:26.999Z</time></trkpt><trkpt lat="44.574267484445414" lon="9.29725630861516"><ele>900.2857142857142</ele><time>2026-04-19T13:49:27.999Z</time></trkpt><trkpt lat="44.57422145230956" lon="9.29732616398764"><ele>900.8571428571429</ele><time>2026-04-19T13:49:28.999Z</time></trkpt><trkpt lat="44.574168870366854" lon="9.297391614783432"><ele>901.4285714285713</ele><time>2026-04-19T13:49:29.999Z</time></trkpt><trkpt lat="44.57409813295649" lon="9.297452450398835"><ele>902.0</ele><time>2026-04-19T13:49:30.999Z</time></trkpt><trkpt lat="44.57403835952807" lon="9.297536493335288"><ele>902.0000000000001</ele><time>2026-04-19T13:49:31.999Z</time></trkpt><trkpt lat="44.57397305578653" lon="9.297597396751739"><ele>902.0</ele><time>2026-04-19T13:49:32.999Z</time></trkpt><trkpt lat="44.57390562114951" lon="9.29766064165182"><ele>902.0</ele><time>2026-04-19T13:49:33.999Z</time></trkpt><trkpt lat="44.5738217704941" lon="9.297712447209127"><ele>902.0</ele><time>2026-04-19T13:49:34.999Z</time></trkpt><trkpt lat="44.57372975891756" lon="9.29776497848673"><ele>902.0000000000001</ele><time>2026-04-19T13:49:35.999Z</time></trkpt><trkpt lat="44.5736577379002" lon="9.297814644963843"><ele>902.0</ele><time>2026-04-19T13:49:36.999Z</time></trkpt><trkpt lat="44.573591335030265" lon="9.297879039774958"><ele>901.3333333333334</ele><time>2026-04-19T13:49:37.999Z</time></trkpt><trkpt lat="44.57351794396456" lon="9.297938748409821"><ele>900.6666666666667</ele><time>2026-04-19T13:49:38.999Z</time></trkpt><trkpt lat="44.573460538738324" lon="9.298041654246429"><ele>900.0</ele><time>2026-04-19T13:49:39.999Z</time></trkpt><trkpt lat="44.57339563075283" lon="9.298136693399139"><ele>899.3333333333333</ele><time>2026-04-19T13:49:40.999Z</time></trkpt><trkpt lat="44.5733300043737" lon="9.298229494356834"><ele>898.6666666666666</ele><time>2026-04-19T13:49:41.999Z</time></trkpt><trkpt lat="44.57329404133557" lon="9.29833282339921"><ele>898.0</ele><time>2026-04-19T13:49:42.999Z</time></trkpt><trkpt lat="44.5732660811957" lon="9.298429337719671"><ele>898.0</ele><time>2026-04-19T13:49:43.999Z</time></trkpt><trkpt lat="44.57322821699073" lon="9.298584636654414"><ele>898.0</ele><time>2026-04-19T13:49:44.999Z</time></trkpt><trkpt lat="44.573210427413166" lon="9.29871524082547"><ele>898.0</ele><time>2026-04-19T13:49:45.999Z</time></trkpt><trkpt lat="44.573176026978224" lon="9.298821625853831"><ele>898.0</ele><time>2026-04-19T13:49:46.999Z</time></trkpt><trkpt lat="44.5731480444774" lon="9.298949735668327"><ele>898.0</ele><time>2026-04-19T13:49:47.999Z</time></trkpt><trkpt lat="44.573127537211114" lon="9.299063088258103"><ele>898.1666666666666</ele><time>2026-04-19T13:49:48.999Z</time></trkpt><trkpt lat="44.57310650267425" lon="9.299171789192675"><ele>898.3333333333333</ele><time>2026-04-19T13:49:49.999Z</time></trkpt><trkpt lat="44.57308153788075" lon="9.2992763727486"><ele>898.5</ele><time>2026-04-19T13:49:50.999Z</time></trkpt><trkpt lat="44.573065944546606" lon="9.299388334009647"><ele>898.6666666666667</ele><time>2026-04-19T13:49:51.999Z</time></trkpt><trkpt lat="44.573058384517324" lon="9.299493638711624"><ele>898.8333333333334</ele><time>2026-04-19T13:49:52.999Z</time></trkpt><trkpt lat="44.573051130101526" lon="9.299643982458466"><ele>899.0</ele><time>2026-04-19T13:49:54.999Z</time></trkpt><trkpt lat="44.573045666069106" lon="9.299768717386003"><ele>899.4000000000001</ele><time>2026-04-19T13:49:56.999Z</time></trkpt><trkpt lat="44.573116824655024" lon="9.299864860831951"><ele>899.8000000000001</ele><time>2026-04-19T13:49:57.999Z</time></trkpt><trkpt lat="44.57321272395688" lon="9.299897592432439"><ele>900.1999999999999</ele><time>2026-04-19T13:49:59.999Z</time></trkpt><trkpt lat="44.57330257661809" lon="9.29997481990783"><ele>900.5999999999999</ele><time>2026-04-19T13:50:01.999Z</time></trkpt><trkpt lat="44.57340074886338" lon="9.300091972394707"><ele>901.0</ele><time>2026-04-19T13:50:03.999Z</time></trkpt><trkpt lat="44.57346409294794" lon="9.3001288964301"><ele>900.9999999999999</ele><time>2026-04-19T13:50:04.999Z</time></trkpt><trkpt lat="44.573532584265074" lon="9.300103475534282"><ele>901.0</ele><time>2026-04-19T13:50:05.999Z</time></trkpt><trkpt lat="44.57359810136281" lon="9.300150877715112"><ele>901.0</ele><time>2026-04-19T13:50:06.999Z</time></trkpt><trkpt lat="44.573709896537764" lon="9.300213878032606"><ele>901.0</ele><time>2026-04-19T13:50:08.999Z</time></trkpt><trkpt lat="44.57376846444148" lon="9.300247029103112"><ele>900.9999999999999</ele><time>2026-04-19T13:50:09.999Z</time></trkpt><trkpt lat="44.573884264387516" lon="9.300293281562857"><ele>901.0</ele><time>2026-04-19T13:50:11.999Z</time></trkpt><trkpt lat="44.57394526746195" lon="9.300321483962994"><ele>900.4999999999999</ele><time>2026-04-19T13:50:12.999Z</time></trkpt><trkpt lat="44.57402214518045" lon="9.300366279708916"><ele>900.0</ele><time>2026-04-19T13:50:13.999Z</time></trkpt><trkpt lat="44.574091966962825" lon="9.3004265468551"><ele>899.5</ele><time>2026-04-19T13:50:14.999Z</time></trkpt><trkpt lat="44.57416815319418" lon="9.300470711847437"><ele>899.0</ele><time>2026-04-19T13:50:15.999Z</time></trkpt><trkpt lat="44.57424080588866" lon="9.300512740586608"><ele>898.4999999999999</ele><time>2026-04-19T13:50:16.999Z</time></trkpt><trkpt lat="44.57430181981264" lon="9.300548036418698"><ele>898.0</ele><time>2026-04-19T13:50:17.999Z</time></trkpt><trkpt lat="44.574362350547744" lon="9.300586174909364"><ele>897.9999999999999</ele><time>2026-04-19T13:50:19Z</time></trkpt><trkpt lat="44.57445671698334" lon="9.30065775148833"><ele>898.0</ele><time>2026-04-19T13:50:21Z</time></trkpt><trkpt lat="44.574501297566435" lon="9.300721142113954"><ele>898.0</ele><time>2026-04-19T13:50:23Z</time></trkpt><trkpt lat="44.57452154982689" lon="9.300833015203462"><ele>898.0</ele><time>2026-04-19T13:50:26Z</time></trkpt><trkpt lat="44.574500870075646" lon="9.300918597925792"><ele>897.9999999999999</ele><time>2026-04-19T13:50:28Z</time></trkpt><trkpt lat="44.57449143773322" lon="9.301018310532719"><ele>898.0</ele><time>2026-04-19T13:50:29Z</time></trkpt><trkpt lat="44.5744568361093" lon="9.301106670820564"><ele>898.0</ele><time>2026-04-19T13:50:30Z</time></trkpt><trkpt lat="44.574486879470065" lon="9.301257888669712"><ele>898.0</ele><time>2026-04-19T13:50:32Z</time></trkpt><trkpt lat="44.57458163803377" lon="9.301320749238029"><ele>898.0</ele><time>2026-04-19T13:50:34Z</time></trkpt><trkpt lat="44.57467220004875" lon="9.301360062563436"><ele>898.0</ele><time>2026-04-19T13:50:38Z</time></trkpt><trkpt lat="44.57475288336662" lon="9.301436178522414"><ele>898.0</ele><time>2026-04-19T13:50:40Z</time></trkpt><trkpt lat="44.57476818744926" lon="9.30153076161112"><ele>899.75</ele><time>2026-04-19T13:50:42Z</time></trkpt><trkpt lat="44.57470114494433" lon="9.301581935298893"><ele>901.5</ele><time>2026-04-19T13:50:44Z</time></trkpt><trkpt lat="44.57463090131375" lon="9.301687677974227"><ele>903.25</ele><time>2026-04-19T13:50:46Z</time></trkpt><trkpt lat="44.574564641909326" lon="9.30179199607527"><ele>905.0</ele><time>2026-04-19T13:50:48Z</time></trkpt><trkpt lat="44.574710520807635" lon="9.302111972825708"><ele>906.8</ele><time>2026-04-19T13:50:51Z</time></trkpt><trkpt lat="44.57468942064269" lon="9.302249400857153"><ele>908.6</ele><time>2026-04-19T13:50:53Z</time></trkpt><trkpt lat="44.57468826174015" lon="9.302365608343354"><ele>910.4000000000001</ele><time>2026-04-19T13:50:55Z</time></trkpt><trkpt lat="44.574810299061646" lon="9.302387692499842"><ele>912.2</ele><time>2026-04-19T13:51:11Z</time></trkpt><trkpt lat="44.574891804159485" lon="9.302368980508122"><ele>914.0</ele><time>2026-04-19T13:51:12Z</time></trkpt><trkpt lat="44.574981590861206" lon="9.302472288189248"><ele>914.0000000000001</ele><time>2026-04-19T13:51:13Z</time></trkpt><trkpt lat="44.575108180180386" lon="9.302464732012005"><ele>914.0</ele><time>2026-04-19T13:51:14Z</time></trkpt><trkpt lat="44.57520677064173" lon="9.30241367043411"><ele>914.0</ele><time>2026-04-19T13:51:15Z</time></trkpt><trkpt lat="44.57525497684785" lon="9.302353222490158"><ele>914.0</ele><time>2026-04-19T13:51:16Z</time></trkpt><trkpt lat="44.57531600419755" lon="9.302327286843322"><ele>914.0000000000001</ele><time>2026-04-19T13:51:17Z</time></trkpt><trkpt lat="44.5753844585264" lon="9.302305732268023"><ele>914.0</ele><time>2026-04-19T13:51:18Z</time></trkpt><trkpt lat="44.57550635638529" lon="9.302305945265482"><ele>911.8000000000001</ele><time>2026-04-19T13:51:20Z</time></trkpt><trkpt lat="44.57559134811204" lon="9.302329894591463"><ele>909.6000000000001</ele><time>2026-04-19T13:51:21Z</time></trkpt><trkpt lat="44.57567708607065" lon="9.302425760878226"><ele>907.4</ele><time>2026-04-19T13:51:22Z</time></trkpt><trkpt lat="44.57575167427509" lon="9.30249445742754"><ele>905.2</ele><time>2026-04-19T13:51:23Z</time></trkpt><trkpt lat="44.57582846557234" lon="9.302583545139662"><ele>903.0</ele><time>2026-04-19T13:51:24Z</time></trkpt><trkpt lat="44.57590334233662" lon="9.302679862800199"><ele>903.0</ele><time>2026-04-19T13:51:24.999Z</time></trkpt><trkpt lat="44.57597759843301" lon="9.302772880351336"><ele>903.0</ele><time>2026-04-19T13:51:25.999Z</time></trkpt><trkpt lat="44.576067697346794" lon="9.302871074101375"><ele>903.0</ele><time>2026-04-19T13:51:26.999Z</time></trkpt><trkpt lat="44.576125856489845" lon="9.302967591379849"><ele>903.0</ele><time>2026-04-19T13:51:27.999Z</time></trkpt><trkpt lat="44.57618664508519" lon="9.303039380965272"><ele>903.0</ele><time>2026-04-19T13:51:28.999Z</time></trkpt><trkpt lat="44.57625186880398" lon="9.303112254204649"><ele>900.6666666666666</ele><time>2026-04-19T13:51:29.999Z</time></trkpt><trkpt lat="44.57632510459099" lon="9.303182458595238"><ele>898.3333333333333</ele><time>2026-04-19T13:51:30.999Z</time></trkpt><trkpt lat="44.5764026426988" lon="9.303232994949026"><ele>896.0</ele><time>2026-04-19T13:51:31.999Z</time></trkpt><trkpt lat="44.57646035208809" lon="9.303318168877968"><ele>893.6666666666666</ele><time>2026-04-19T13:51:32.999Z</time></trkpt><trkpt lat="44.57652129621076" lon="9.303405384240255"><ele>891.3333333333333</ele><time>2026-04-19T13:51:33.999Z</time></trkpt><trkpt lat="44.57655799717857" lon="9.303507593204085"><ele>889.0</ele><time>2026-04-19T13:51:34.999Z</time></trkpt><trkpt lat="44.57658917544912" lon="9.30363470316541"><ele>889.0</ele><time>2026-04-19T13:51:35.999Z</time></trkpt><trkpt lat="44.57660239420419" lon="9.30377723240878"><ele>889.0000000000001</ele><time>2026-04-19T13:51:36.999Z</time></trkpt><trkpt lat="44.57659571696679" lon="9.303918477605203"><ele>889.0000000000001</ele><time>2026-04-19T13:51:37.999Z</time></trkpt><trkpt lat="44.57657270059942" lon="9.304057069148461"><ele>889.0</ele><time>2026-04-19T13:51:38.999Z</time></trkpt><trkpt lat="44.576535938952176" lon="9.304186598049291"><ele>889.0</ele><time>2026-04-19T13:51:39.999Z</time></trkpt><trkpt lat="44.576477557675545" lon="9.3043166233107"><ele>889.75</ele><time>2026-04-19T13:51:40.999Z</time></trkpt><trkpt lat="44.57640626191235" lon="9.304440358882358"><ele>890.5</ele><time>2026-04-19T13:51:41.999Z</time></trkpt><trkpt lat="44.57634847398607" lon="9.304552569217995"><ele>891.25</ele><time>2026-04-19T13:51:42.999Z</time></trkpt><trkpt lat="44.576301046006236" lon="9.304693183562067"><ele>892.0</ele><time>2026-04-19T13:51:43.999Z</time></trkpt><trkpt lat="44.576259574113735" lon="9.304865656796343"><ele>894.3333333333333</ele><time>2026-04-19T13:51:44.999Z</time></trkpt><trkpt lat="44.57621772658861" lon="9.305069528338535"><ele>896.6666666666667</ele><time>2026-04-19T13:51:45.999Z</time></trkpt><trkpt lat="44.576140597096625" lon="9.305270045967532"><ele>899.0</ele><time>2026-04-19T13:51:46.999Z</time></trkpt><trkpt lat="44.57608915346247" lon="9.305453277079923"><ele>901.25</ele><time>2026-04-19T13:51:47.999Z</time></trkpt><trkpt lat="44.57601686971783" lon="9.305640719553772"><ele>903.5</ele><time>2026-04-19T13:51:48.999Z</time></trkpt><trkpt lat="44.57595134445011" lon="9.305793595322042"><ele>905.75</ele><time>2026-04-19T13:51:49.999Z</time></trkpt><trkpt lat="44.575904133249594" lon="9.305928942797918"><ele>908.0</ele><time>2026-04-19T13:51:50.999Z</time></trkpt><trkpt lat="44.57588199138035" lon="9.306060258288776"><ele>908.0000000000001</ele><time>2026-04-19T13:51:51.999Z</time></trkpt><trkpt lat="44.575891791766374" lon="9.305966823690806"><ele>908.0</ele><time>2026-04-19T13:51:52.999Z</time></trkpt><trkpt lat="44.57590869950069" lon="9.306097177645535"><ele>908.0</ele><time>2026-04-19T13:51:54.999Z</time></trkpt><trkpt lat="44.57596253910308" lon="9.306149005838863"><ele>908.0</ele><time>2026-04-19T13:51:55.999Z</time></trkpt><trkpt lat="44.57603464367436" lon="9.306144664421076"><ele>908.0000000000001</ele><time>2026-04-19T13:51:56.999Z</time></trkpt><trkpt lat="44.576110711394186" lon="9.30610902256911"><ele>908.0</ele><time>2026-04-19T13:51:57.999Z</time></trkpt><trkpt lat="44.57617357130116" lon="9.30603551679612"><ele>910.0</ele><time>2026-04-19T13:51:58.999Z</time></trkpt><trkpt lat="44.576238689059565" lon="9.305926127286858"><ele>912.0</ele><time>2026-04-19T13:51:59.999Z</time></trkpt><trkpt lat="44.57632349933515" lon="9.305822125673588"><ele>914.0</ele><time>2026-04-19T13:52:00.999Z</time></trkpt><trkpt lat="44.57643930258254" lon="9.30576657861534"><ele>916.0</ele><time>2026-04-19T13:52:01.999Z</time></trkpt><trkpt lat="44.576547985026096" lon="9.305714037260366"><ele>916.0</ele><time>2026-04-19T13:52:02.999Z</time></trkpt><trkpt lat="44.5766811434161" lon="9.305625585855093"><ele>916.0</ele><time>2026-04-19T13:52:03.999Z</time></trkpt><trkpt lat="44.5767936061745" lon="9.305491284144162"><ele>916.0</ele><time>2026-04-19T13:52:04.999Z</time></trkpt><trkpt lat="44.576907619827686" lon="9.305385171485726"><ele>916.0</ele><time>2026-04-19T13:52:05.999Z</time></trkpt><trkpt lat="44.57701320768811" lon="9.305298366677254"><ele>914.25</ele><time>2026-04-19T13:52:06.999Z</time></trkpt><trkpt lat="44.57712183230012" lon="9.3051982298151"><ele>912.5</ele><time>2026-04-19T13:52:07.999Z</time></trkpt><trkpt lat="44.57723702003756" lon="9.305091244881607"><ele>910.75</ele><time>2026-04-19T13:52:08.999Z</time></trkpt><trkpt lat="44.577339168215374" lon="9.304997869355342"><ele>909.0</ele><time>2026-04-19T13:52:09.999Z</time></trkpt><trkpt lat="44.57742618234204" lon="9.304917370403986"><ele>909.0</ele><time>2026-04-19T13:52:10.999Z</time></trkpt><trkpt lat="44.577507045403024" lon="9.304847705913433"><ele>909.0000000000001</ele><time>2026-04-19T13:52:11.999Z</time></trkpt><trkpt lat="44.57758886524026" lon="9.304809955273795"><ele>909.0000000000001</ele><time>2026-04-19T13:52:12.999Z</time></trkpt><trkpt lat="44.57767852042038" lon="9.304846714843968"><ele>909.0</ele><time>2026-04-19T13:52:13.999Z</time></trkpt><trkpt lat="44.57774646976148" lon="9.3049016436749"><ele>909.0</ele><time>2026-04-19T13:52:14.999Z</time></trkpt><trkpt lat="44.57778754004923" lon="9.305025256601278"><ele>909.0</ele><time>2026-04-19T13:52:15.999Z</time></trkpt><trkpt lat="44.57784675306017" lon="9.305118305914533"><ele>909.0</ele><time>2026-04-19T13:52:16.999Z</time></trkpt><trkpt lat="44.57789988991189" lon="9.305231222325299"><ele>909.0</ele><time>2026-04-19T13:52:17.999Z</time></trkpt><trkpt lat="44.577967640109726" lon="9.305304026032669"><ele>909.0</ele><time>2026-04-19T13:52:18.999Z</time></trkpt><trkpt lat="44.57803728396819" lon="9.305346659989562"><ele>909.0</ele><time>2026-04-19T13:52:19.999Z</time></trkpt><trkpt lat="44.57811999230809" lon="9.305319726961192"><ele>909.0</ele><time>2026-04-19T13:52:20.999Z</time></trkpt><trkpt lat="44.578182268035484" lon="9.30521409501563"><ele>909.6</ele><time>2026-04-19T13:52:21.999Z</time></trkpt><trkpt lat="44.57822960574672" lon="9.30511258383038"><ele>910.2</ele><time>2026-04-19T13:52:22.999Z</time></trkpt><trkpt lat="44.57825986208584" lon="9.304989979987864"><ele>910.8000000000001</ele><time>2026-04-19T13:52:23.999Z</time></trkpt><trkpt lat="44.57833545554583" lon="9.304935376258173"><ele>911.4000000000001</ele><time>2026-04-19T13:52:25Z</time></trkpt><trkpt lat="44.57841862929987" lon="9.30492245446453"><ele>912.0</ele><time>2026-04-19T13:52:26Z</time></trkpt><trkpt lat="44.57851822120166" lon="9.304971336500207"><ele>912.0</ele><time>2026-04-19T13:52:27Z</time></trkpt><trkpt lat="44.578638839935394" lon="9.304990089833133"><ele>912.0</ele><time>2026-04-19T13:52:28Z</time></trkpt><trkpt lat="44.57877588948873" lon="9.30497530845717"><ele>912.0</ele><time>2026-04-19T13:52:29Z</time></trkpt><trkpt lat="44.57889194429063" lon="9.304976002853886"><ele>912.0</ele><time>2026-04-19T13:52:30Z</time></trkpt><trkpt lat="44.57899177310662" lon="9.304983337991429"><ele>912.0</ele><time>2026-04-19T13:52:31Z</time></trkpt><trkpt lat="44.57908079702474" lon="9.305003662285769"><ele>912.0</ele><time>2026-04-19T13:52:32Z</time></trkpt><trkpt lat="44.57916854197608" lon="9.305059187182309"><ele>912.0</ele><time>2026-04-19T13:52:33Z</time></trkpt><trkpt lat="44.57926326283584" lon="9.305137813226743"><ele>912.0</ele><time>2026-04-19T13:52:34Z</time></trkpt><trkpt lat="44.579361134508524" lon="9.305221792702444"><ele>912.0</ele><time>2026-04-19T13:52:35Z</time></trkpt><trkpt lat="44.57945162499619" lon="9.305320768404673"><ele>913.0</ele><time>2026-04-19T13:52:36Z</time></trkpt><trkpt lat="44.57953522457205" lon="9.305399424472773"><ele>914.0</ele><time>2026-04-19T13:52:37Z</time></trkpt><trkpt lat="44.57962897629126" lon="9.305501425432205"><ele>915.0</ele><time>2026-04-19T13:52:38Z</time></trkpt><trkpt lat="44.57971847341412" lon="9.305614522836274"><ele>916.0</ele><time>2026-04-19T13:52:39Z</time></trkpt><trkpt lat="44.57981874080836" lon="9.305712827016736"><ele>916.0</ele><time>2026-04-19T13:52:40Z</time></trkpt><trkpt lat="44.57992578873636" lon="9.305855417279615"><ele>916.0</ele><time>2026-04-19T13:52:41Z</time></trkpt><trkpt lat="44.58003433631185" lon="9.306001814962531"><ele>916.0</ele><time>2026-04-19T13:52:42Z</time></trkpt><trkpt lat="44.58013330342153" lon="9.306129943215172"><ele>916.0</ele><time>2026-04-19T13:52:43Z</time></trkpt><trkpt lat="44.580225589202946" lon="9.306242475206535"><ele>916.0</ele><time>2026-04-19T13:52:44Z</time></trkpt><trkpt lat="44.580312429322845" lon="9.306353659471913"><ele>916.0</ele><time>2026-04-19T13:52:45Z</time></trkpt><trkpt lat="44.58039277632585" lon="9.306461505880266"><ele>916.0</ele><time>2026-04-19T13:52:46Z</time></trkpt><trkpt lat="44.580476326367425" lon="9.306558493564326"><ele>916.0</ele><time>2026-04-19T13:52:47Z</time></trkpt><trkpt lat="44.58057225388185" lon="9.306642052016437"><ele>915.8</ele><time>2026-04-19T13:52:48Z</time></trkpt><trkpt lat="44.580693795526315" lon="9.30669689737464"><ele>915.5999999999999</ele><time>2026-04-19T13:52:49Z</time></trkpt><trkpt lat="44.58080524035059" lon="9.30673174846643"><ele>915.4</ele><time>2026-04-19T13:52:50Z</time></trkpt><trkpt lat="44.580908446077885" lon="9.306736193249325"><ele>915.2</ele><time>2026-04-19T13:52:51Z</time></trkpt><trkpt lat="44.58100015100105" lon="9.306720897705281"><ele>915.0</ele><time>2026-04-19T13:52:52Z</time></trkpt><trkpt lat="44.58108385128166" lon="9.306693385177255"><ele>915.0</ele><time>2026-04-19T13:52:53Z</time></trkpt><trkpt lat="44.58115628208286" lon="9.306687145688173"><ele>915.0</ele><time>2026-04-19T13:52:54Z</time></trkpt><trkpt lat="44.581273622674246" lon="9.30681161640195"><ele>915.0</ele><time>2026-04-19T13:52:56Z</time></trkpt><trkpt lat="44.5813343598049" lon="9.306896961053509"><ele>915.0</ele><time>2026-04-19T13:52:57Z</time></trkpt><trkpt lat="44.58140638949565" lon="9.306983024596503"><ele>915.0</ele><time>2026-04-19T13:52:58Z</time></trkpt><trkpt lat="44.581483859131026" lon="9.307072389056358"><ele>914.0</ele><time>2026-04-19T13:52:59Z</time></trkpt><trkpt lat="44.581567071412756" lon="9.307155110372909"><ele>913.0</ele><time>2026-04-19T13:53:00Z</time></trkpt><trkpt lat="44.581642844350256" lon="9.307225609098344"><ele>912.0</ele><time>2026-04-19T13:53:01Z</time></trkpt><trkpt lat="44.581716795707464" lon="9.307233661814172"><ele>911.0</ele><time>2026-04-19T13:53:02Z</time></trkpt><trkpt lat="44.58180773041999" lon="9.307175076851948"><ele>910.0</ele><time>2026-04-19T13:53:03Z</time></trkpt><trkpt lat="44.58190019737244" lon="9.307129552512318"><ele>910.0</ele><time>2026-04-19T13:53:04Z</time></trkpt><trkpt lat="44.58200275513082" lon="9.307096742363337"><ele>910.0</ele><time>2026-04-19T13:53:05Z</time></trkpt><trkpt lat="44.58211365594453" lon="9.307074842441796"><ele>910.0</ele><time>2026-04-19T13:53:06Z</time></trkpt><trkpt lat="44.582206664726996" lon="9.307061421849424"><ele>910.0</ele><time>2026-04-19T13:53:07Z</time></trkpt><trkpt lat="44.582283355973324" lon="9.307039290857093"><ele>910.0</ele><time>2026-04-19T13:53:08Z</time></trkpt><trkpt lat="44.582410521230734" lon="9.307040760578547"><ele>910.8</ele><time>2026-04-19T13:53:10Z</time></trkpt><trkpt lat="44.582483474742155" lon="9.307083975791619"><ele>911.6</ele><time>2026-04-19T13:53:11Z</time></trkpt><trkpt lat="44.58255839282913" lon="9.307163284262128"><ele>912.4000000000001</ele><time>2026-04-19T13:53:12Z</time></trkpt><trkpt lat="44.58261816798189" lon="9.307247548008254"><ele>913.2</ele><time>2026-04-19T13:53:13Z</time></trkpt><trkpt lat="44.5827358232548" lon="9.307315460313097"><ele>914.0</ele><time>2026-04-19T13:53:15Z</time></trkpt><trkpt lat="44.58282195741395" lon="9.307312808456269"><ele>914.2</ele><time>2026-04-19T13:53:16Z</time></trkpt><trkpt lat="44.5829167061414" lon="9.307303493603854"><ele>914.4000000000001</ele><time>2026-04-19T13:53:17Z</time></trkpt><trkpt lat="44.58301897958356" lon="9.307287432928444"><ele>914.6</ele><time>2026-04-19T13:53:18Z</time></trkpt><trkpt lat="44.58310499756777" lon="9.307272474072787"><ele>914.8</ele><time>2026-04-19T13:53:19Z</time></trkpt><trkpt lat="44.58318422973343" lon="9.307254579641402"><ele>915.0</ele><time>2026-04-19T13:53:20Z</time></trkpt><trkpt lat="44.583268441768865" lon="9.307232216076846"><ele>915.0</ele><time>2026-04-19T13:53:21Z</time></trkpt><trkpt lat="44.58335685504723" lon="9.307222879315901"><ele>915.0</ele><time>2026-04-19T13:53:22Z</time></trkpt><trkpt lat="44.58343015925084" lon="9.307235980447414"><ele>915.0</ele><time>2026-04-19T13:53:23Z</time></trkpt><trkpt lat="44.58350495279564" lon="9.307275641069488"><ele>915.0</ele><time>2026-04-19T13:53:24Z</time></trkpt><trkpt lat="44.58358860125888" lon="9.307344877648793"><ele>915.0</ele><time>2026-04-19T13:53:25Z</time></trkpt><trkpt lat="44.583674816161036" lon="9.30741185773536"><ele>915.0</ele><time>2026-04-19T13:53:26Z</time></trkpt><trkpt lat="44.58377422034572" lon="9.30745278978221"><ele>917.3333333333334</ele><time>2026-04-19T13:53:27Z</time></trkpt><trkpt lat="44.583859225630114" lon="9.307474660400628"><ele>919.6666666666667</ele><time>2026-04-19T13:53:28Z</time></trkpt><trkpt lat="44.583931658759646" lon="9.307487919507077"><ele>922.0</ele><time>2026-04-19T13:53:29Z</time></trkpt><trkpt lat="44.58403795275726" lon="9.307540821814188"><ele>924.3333333333334</ele><time>2026-04-19T13:53:31Z</time></trkpt><trkpt lat="44.584106404001055" lon="9.30761866115112"><ele>926.6666666666667</ele><time>2026-04-19T13:53:32.999Z</time></trkpt><trkpt lat="44.584088678563255" lon="9.307723437090122"><ele>929.0</ele><time>2026-04-19T13:53:33.999Z</time></trkpt><trkpt lat="44.584056658427855" lon="9.30782277755926"><ele>929.0</ele><time>2026-04-19T13:53:34.999Z</time></trkpt><trkpt lat="44.584020164769306" lon="9.307944403677302"><ele>929.0000000000001</ele><time>2026-04-19T13:53:35.999Z</time></trkpt><trkpt lat="44.584003713482915" lon="9.308068319070914"><ele>929.0000000000001</ele><time>2026-04-19T13:53:36.999Z</time></trkpt><trkpt lat="44.58400265012188" lon="9.308193825243455"><ele>929.0</ele><time>2026-04-19T13:53:38.999Z</time></trkpt><trkpt lat="44.58405429691153" lon="9.30834614090662"><ele>929.0</ele><time>2026-04-19T13:53:40.999Z</time></trkpt><trkpt lat="44.584104632690654" lon="9.30845213461255"><ele>929.6</ele><time>2026-04-19T13:53:41.999Z</time></trkpt><trkpt lat="44.58417191310315" lon="9.308578935935254"><ele>930.2</ele><time>2026-04-19T13:53:42.999Z</time></trkpt><trkpt lat="44.58423494785874" lon="9.308688565945141"><ele>930.8000000000001</ele><time>2026-04-19T13:53:43.999Z</time></trkpt><trkpt lat="44.58428673084635" lon="9.308769468970496"><ele>931.4000000000001</ele><time>2026-04-19T13:53:44.999Z</time></trkpt><trkpt lat="44.5843309716262" lon="9.308835212504214"><ele>932.0</ele><time>2026-04-19T13:53:45.999Z</time></trkpt><trkpt lat="44.58435853728221" lon="9.308977137305078"><ele>932.8333333333334</ele><time>2026-04-19T13:53:47.999Z</time></trkpt><trkpt lat="44.58432231188919" lon="9.309058473341626"><ele>933.6666666666667</ele><time>2026-04-19T13:53:48.999Z</time></trkpt><trkpt lat="44.58426084791686" lon="9.309112436663218"><ele>934.5</ele><time>2026-04-19T13:53:49.999Z</time></trkpt><trkpt lat="44.5842033673513" lon="9.309184152184752"><ele>935.3333333333333</ele><time>2026-04-19T13:53:50.999Z</time></trkpt><trkpt lat="44.58413092366421" lon="9.309277055721585"><ele>936.1666666666666</ele><time>2026-04-19T13:53:51.999Z</time></trkpt><trkpt lat="44.584082653189185" lon="9.309363982228394"><ele>937.0</ele><time>2026-04-19T13:53:52.999Z</time></trkpt><trkpt lat="44.5840291650427" lon="9.309500767142467"><ele>937.0</ele><time>2026-04-19T13:53:54.999Z</time></trkpt><trkpt lat="44.58405662333038" lon="9.309595593304245"><ele>937.0</ele><time>2026-04-19T13:53:55.999Z</time></trkpt><trkpt lat="44.58412507046915" lon="9.309654856317687"><ele>937.0</ele><time>2026-04-19T13:53:56.999Z</time></trkpt><trkpt lat="44.584214336350925" lon="9.309691586689416"><ele>937.0</ele><time>2026-04-19T13:53:57.999Z</time></trkpt><trkpt lat="44.58431086142656" lon="9.30972693577961"><ele>937.0</ele><time>2026-04-19T13:53:58.999Z</time></trkpt><trkpt lat="44.584419599692055" lon="9.309749959047478"><ele>937.6</ele><time>2026-04-19T13:53:59.999Z</time></trkpt><trkpt lat="44.584523558477706" lon="9.30973020996362"><ele>938.2</ele><time>2026-04-19T13:54:00.999Z</time></trkpt><trkpt lat="44.584627682915915" lon="9.309719811728739"><ele>938.8</ele><time>2026-04-19T13:54:01.999Z</time></trkpt><trkpt lat="44.58472244363147" lon="9.309709489232437"><ele>939.4</ele><time>2026-04-19T13:54:02.999Z</time></trkpt><trkpt lat="44.58479181437231" lon="9.309718531883368"><ele>940.0</ele><time>2026-04-19T13:54:03.999Z</time></trkpt><trkpt lat="44.584842003657194" lon="9.309806423504893"><ele>940.0</ele><time>2026-04-19T13:54:04.999Z</time></trkpt><trkpt lat="44.58492868060512" lon="9.30987308958433"><ele>940.0</ele><time>2026-04-19T13:54:05.999Z</time></trkpt><trkpt lat="44.585024764870866" lon="9.309926060596753"><ele>940.0</ele><time>2026-04-19T13:54:06.999Z</time></trkpt><trkpt lat="44.58509473064828" lon="9.310021244473672"><ele>940.0</ele><time>2026-04-19T13:54:07.999Z</time></trkpt><trkpt lat="44.58516727150067" lon="9.310099885179952"><ele>940.0</ele><time>2026-04-19T13:54:08.999Z</time></trkpt><trkpt lat="44.58524602071774" lon="9.310190192820095"><ele>940.0</ele><time>2026-04-19T13:54:09.999Z</time></trkpt><trkpt lat="44.58531507226647" lon="9.31030176020309"><ele>940.0</ele><time>2026-04-19T13:54:10.999Z</time></trkpt><trkpt lat="44.58536178067957" lon="9.310413039851994"><ele>940.0</ele><time>2026-04-19T13:54:11.999Z</time></trkpt><trkpt lat="44.58538696872806" lon="9.310535435721606"><ele>940.0</ele><time>2026-04-19T13:54:12.999Z</time></trkpt><trkpt lat="44.58538215434491" lon="9.310667577952854"><ele>940.0</ele><time>2026-04-19T13:54:13.999Z</time></trkpt><trkpt lat="44.585364425920154" lon="9.310775677473606"><ele>936.8</ele><time>2026-04-19T13:54:14.999Z</time></trkpt><trkpt lat="44.58534666959127" lon="9.310880407469554"><ele>933.6</ele><time>2026-04-19T13:54:15.999Z</time></trkpt><trkpt lat="44.5853248481436" lon="9.310990672933437"><ele>930.4000000000001</ele><time>2026-04-19T13:54:16.999Z</time></trkpt><trkpt lat="44.58529174469954" lon="9.311112263841927"><ele>927.2</ele><time>2026-04-19T13:54:17.999Z</time></trkpt><trkpt lat="44.58523395570698" lon="9.311239991903836"><ele>924.0</ele><time>2026-04-19T13:54:18.999Z</time></trkpt><trkpt lat="44.58519340132235" lon="9.31137334508561"><ele>928.0</ele><time>2026-04-19T13:54:19.999Z</time></trkpt><trkpt lat="44.58517426251826" lon="9.31149329647735"><ele>932.0</ele><time>2026-04-19T13:54:20.999Z</time></trkpt><trkpt lat="44.585126880545964" lon="9.311553486287558"><ele>936.0</ele><time>2026-04-19T13:54:21.999Z</time></trkpt><trkpt lat="44.58508043164592" lon="9.311619120695598"><ele>940.0</ele><time>2026-04-19T13:54:22.999Z</time></trkpt><trkpt lat="44.58501074055931" lon="9.31167656545255"><ele>944.0</ele><time>2026-04-19T13:54:23.999Z</time></trkpt><trkpt lat="44.58496180824353" lon="9.31176503795312"><ele>948.0</ele><time>2026-04-19T13:54:24.999Z</time></trkpt><trkpt lat="44.584913887272684" lon="9.31183504346926"><ele>952.0</ele><time>2026-04-19T13:54:25.999Z</time></trkpt><trkpt lat="44.58492060524677" lon="9.31195756222069"><ele>951.9999999999999</ele><time>2026-04-19T13:54:26.999Z</time></trkpt><trkpt lat="44.584968954271154" lon="9.312066348025919"><ele>952.0</ele><time>2026-04-19T13:54:27.999Z</time></trkpt><trkpt lat="44.584928962566764" lon="9.312165965649532"><ele>952.0</ele><time>2026-04-19T13:54:29.999Z</time></trkpt><trkpt lat="44.58488825905155" lon="9.312242835168465"><ele>952.0</ele><time>2026-04-19T13:54:31Z</time></trkpt><trkpt lat="44.58485658591054" lon="9.312338405196376"><ele>951.9999999999999</ele><time>2026-04-19T13:54:32Z</time></trkpt><trkpt lat="44.58486565042059" lon="9.312454610995854"><ele>952.0</ele><time>2026-04-19T13:54:33Z</time></trkpt><trkpt lat="44.58492485989" lon="9.312539036919546"><ele>952.0</ele><time>2026-04-19T13:54:34Z</time></trkpt><trkpt lat="44.58499563227222" lon="9.312683381895354"><ele>952.0</ele><time>2026-04-19T13:54:36Z</time></trkpt><trkpt lat="44.58501412643599" lon="9.312768455157881"><ele>952.0</ele><time>2026-04-19T13:54:37Z</time></trkpt><trkpt lat="44.58498265803781" lon="9.312965969685738"><ele>952.0</ele><time>2026-04-19T13:54:39Z</time></trkpt><trkpt lat="44.58498185436405" lon="9.31308092645828"><ele>952.0</ele><time>2026-04-19T13:54:40Z</time></trkpt><trkpt lat="44.585040841600055" lon="9.31322104957132"><ele>952.6666666666666</ele><time>2026-04-19T13:54:41Z</time></trkpt><trkpt lat="44.58509682092267" lon="9.31333458823018"><ele>953.3333333333333</ele><time>2026-04-19T13:54:42Z</time></trkpt><trkpt lat="44.58513830152541" lon="9.313419069712483"><ele>954.0</ele><time>2026-04-19T13:54:43Z</time></trkpt><trkpt lat="44.585185117206905" lon="9.313523488476795"><ele>954.6666666666667</ele><time>2026-04-19T13:54:45Z</time></trkpt><trkpt lat="44.58517042036296" lon="9.313665271659483"><ele>955.3333333333334</ele><time>2026-04-19T13:54:47Z</time></trkpt><trkpt lat="44.58513537502802" lon="9.313747974281519"><ele>956.0</ele><time>2026-04-19T13:54:48Z</time></trkpt><trkpt lat="44.58508491955024" lon="9.313812098996134"><ele>953.5</ele><time>2026-04-19T13:54:49Z</time></trkpt><trkpt lat="44.58500265155466" lon="9.313910897002087"><ele>951.0</ele><time>2026-04-19T13:54:50Z</time></trkpt><trkpt lat="44.58489842788787" lon="9.314034876802186"><ele>948.5</ele><time>2026-04-19T13:54:51Z</time></trkpt><trkpt lat="44.58481079697351" lon="9.314137265314223"><ele>946.0</ele><time>2026-04-19T13:54:52Z</time></trkpt><trkpt lat="44.58473149308422" lon="9.314225758039395"><ele>946.0</ele><time>2026-04-19T13:54:53Z</time></trkpt><trkpt lat="44.58465686513386" lon="9.314288974406137"><ele>945.9999999999999</ele><time>2026-04-19T13:54:54Z</time></trkpt><trkpt lat="44.58457352418221" lon="9.314299164416495"><ele>945.9999999999999</ele><time>2026-04-19T13:54:55Z</time></trkpt><trkpt lat="44.58446271811996" lon="9.31429326291873"><ele>946.0</ele><time>2026-04-19T13:54:56Z</time></trkpt><trkpt lat="44.584359012871126" lon="9.314321559863231"><ele>946.0</ele><time>2026-04-19T13:54:57Z</time></trkpt><trkpt lat="44.584291496810074" lon="9.314377581549483"><ele>949.3333333333333</ele><time>2026-04-19T13:54:58Z</time></trkpt><trkpt lat="44.58420749810558" lon="9.31441086907989"><ele>952.6666666666666</ele><time>2026-04-19T13:54:59Z</time></trkpt><trkpt lat="44.5841356756391" lon="9.31446228291536"><ele>956.0</ele><time>2026-04-19T13:55:00Z</time></trkpt><trkpt lat="44.5840628150668" lon="9.31451488757395"><ele>959.3333333333333</ele><time>2026-04-19T13:55:01Z</time></trkpt><trkpt lat="44.58399866501231" lon="9.314561624748906"><ele>962.6666666666666</ele><time>2026-04-19T13:55:02Z</time></trkpt><trkpt lat="44.5839310860017" lon="9.314610860453898"><ele>966.0</ele><time>2026-04-19T13:55:03Z</time></trkpt><trkpt lat="44.583857125526" lon="9.314658754565968"><ele>966.0</ele><time>2026-04-19T13:55:04Z</time></trkpt><trkpt lat="44.58378341180394" lon="9.314704460381622"><ele>966.0</ele><time>2026-04-19T13:55:05Z</time></trkpt><trkpt lat="44.58370801487323" lon="9.31475135709995"><ele>966.0</ele><time>2026-04-19T13:55:06Z</time></trkpt><trkpt lat="44.583630436199606" lon="9.31480089152357"><ele>966.0</ele><time>2026-04-19T13:55:07Z</time></trkpt><trkpt lat="44.583566020875786" lon="9.31484425050107"><ele>966.0</ele><time>2026-04-19T13:55:08Z</time></trkpt><trkpt lat="44.583505214790705" lon="9.314889530335586"><ele>966.0</ele><time>2026-04-19T13:55:11Z</time></trkpt><trkpt lat="44.58341352029891" lon="9.314964990216723"><ele>965.2857142857142</ele><time>2026-04-19T13:55:14Z</time></trkpt><trkpt lat="44.58335649722375" lon="9.31502221554585"><ele>964.5714285714286</ele><time>2026-04-19T13:55:44.999Z</time></trkpt><trkpt lat="44.583341943055224" lon="9.315112310698368"><ele>963.8571428571429</ele><time>2026-04-19T13:56:25.999Z</time></trkpt><trkpt lat="44.58333415791302" lon="9.315020137178513"><ele>963.1428571428571</ele><time>2026-04-19T13:57:42Z</time></trkpt><trkpt lat="44.58338006175306" lon="9.31510189090793"><ele>962.4285714285713</ele><time>2026-04-19T13:58:13.999Z</time></trkpt><trkpt lat="44.583396698062074" lon="9.31500905647308"><ele>961.7142857142857</ele><time>2026-04-19T13:59:48Z</time></trkpt><trkpt lat="44.583361078801374" lon="9.315102034373272"><ele>961.0</ele><time>2026-04-19T14:00:53Z</time></trkpt><trkpt lat="44.58330218607767" lon="9.315148381485264"><ele>960.9999999999999</ele><time>2026-04-19T14:02:34.999Z</time></trkpt><trkpt lat="44.583239444538385" lon="9.315274097600895"><ele>961.0</ele><time>2026-04-19T14:02:36.999Z</time></trkpt><trkpt lat="44.58318914663011" lon="9.315328940346696"><ele>961.0</ele><time>2026-04-19T14:02:37.999Z</time></trkpt><trkpt lat="44.583092580972455" lon="9.315424133580889"><ele>961.0</ele><time>2026-04-19T14:02:39.999Z</time></trkpt><trkpt lat="44.58303381785675" lon="9.315480165348623"><ele>960.9999999999999</ele><time>2026-04-19T14:02:40.999Z</time></trkpt><trkpt lat="44.58299006688646" lon="9.315570978709356"><ele>961.0</ele><time>2026-04-19T14:02:41.999Z</time></trkpt><trkpt lat="44.582950212036565" lon="9.315676637206623"><ele>958.4</ele><time>2026-04-19T14:02:42.999Z</time></trkpt><trkpt lat="44.582928714812006" lon="9.315788662061774"><ele>955.8</ele><time>2026-04-19T14:02:43.999Z</time></trkpt><trkpt lat="44.58292608499457" lon="9.315907575663383"><ele>953.1999999999999</ele><time>2026-04-19T14:02:44.999Z</time></trkpt><trkpt lat="44.58291182078142" lon="9.316031540320509"><ele>950.5999999999999</ele><time>2026-04-19T14:02:45.999Z</time></trkpt><trkpt lat="44.58289615492392" lon="9.316128590864158"><ele>948.0</ele><time>2026-04-19T14:02:46.999Z</time></trkpt><trkpt lat="44.58288279636321" lon="9.316302738790306"><ele>948.0</ele><time>2026-04-19T14:02:48.999Z</time></trkpt><trkpt lat="44.58285754700543" lon="9.31639197521866"><ele>948.0</ele><time>2026-04-19T14:02:49.999Z</time></trkpt><trkpt lat="44.58277856513079" lon="9.316503552703331"><ele>948.0</ele><time>2026-04-19T14:02:51.999Z</time></trkpt><trkpt lat="44.58272706891281" lon="9.316563524301676"><ele>948.0</ele><time>2026-04-19T14:02:52.999Z</time></trkpt><trkpt lat="44.58268185753611" lon="9.316643124542626"><ele>948.0</ele><time>2026-04-19T14:02:53.999Z</time></trkpt><trkpt lat="44.58264861556131" lon="9.316747223038606"><ele>948.0</ele><time>2026-04-19T14:02:55Z</time></trkpt><trkpt lat="44.58260337004143" lon="9.316853115334748"><ele>949.142857142857</ele><time>2026-04-19T14:02:56Z</time></trkpt><trkpt lat="44.58259235229459" lon="9.316963404721859"><ele>950.2857142857142</ele><time>2026-04-19T14:02:57Z</time></trkpt><trkpt lat="44.58258436684924" lon="9.3170597104137"><ele>951.4285714285714</ele><time>2026-04-19T14:02:58Z</time></trkpt><trkpt lat="44.58256880395391" lon="9.317149443879565"><ele>952.5714285714286</ele><time>2026-04-19T14:02:59Z</time></trkpt><trkpt lat="44.582546987771494" lon="9.317243220240716"><ele>953.7142857142858</ele><time>2026-04-19T14:03:00Z</time></trkpt><trkpt lat="44.582518730603375" lon="9.317337299817387"><ele>954.857142857143</ele><time>2026-04-19T14:03:01Z</time></trkpt><trkpt lat="44.58248266772438" lon="9.317415414417422"><ele>956.0000000000001</ele><time>2026-04-19T14:03:02Z</time></trkpt><trkpt lat="44.58243797258742" lon="9.317480270236441"><ele>956.0000000000001</ele><time>2026-04-19T14:03:03Z</time></trkpt><trkpt lat="44.5823414980023" lon="9.317571995804713"><ele>956.0</ele><time>2026-04-19T14:03:05Z</time></trkpt><trkpt lat="44.58228382893223" lon="9.317626182031702"><ele>956.0</ele><time>2026-04-19T14:03:06Z</time></trkpt><trkpt lat="44.58222878698735" lon="9.31768006610462"><ele>956.0</ele><time>2026-04-19T14:03:07Z</time></trkpt><trkpt lat="44.582187219393276" lon="9.317758221313376"><ele>956.0000000000001</ele><time>2026-04-19T14:03:10Z</time></trkpt><trkpt lat="44.58221553356059" lon="9.317665225210279"><ele>956.0</ele><time>2026-04-19T14:03:24Z</time></trkpt><trkpt lat="44.582278680481515" lon="9.31760296408135"><ele>956.0</ele><time>2026-04-19T14:03:27Z</time></trkpt><trkpt lat="44.58240746286981" lon="9.317341076693864"><ele>956.0</ele><time>2026-04-19T14:03:39Z</time></trkpt><trkpt lat="44.582460353002254" lon="9.317238652446937"><ele>956.0</ele><time>2026-04-19T14:03:41Z</time></trkpt><trkpt lat="44.58251492663982" lon="9.317132968008407"><ele>956.0</ele><time>2026-04-19T14:03:43Z</time></trkpt><trkpt lat="44.582554073810975" lon="9.317053461832787"><ele>956.0</ele><time>2026-04-19T14:03:45Z</time></trkpt><trkpt lat="44.58247285932921" lon="9.316960226325504"><ele>955.9999999999999</ele><time>2026-04-19T14:03:46Z</time></trkpt><trkpt lat="44.58237965455605" lon="9.316954544440108"><ele>955.9999999999999</ele><time>2026-04-19T14:03:48Z</time></trkpt><trkpt lat="44.58233035204075" lon="9.31707613460264"><ele>956.0</ele><time>2026-04-19T14:03:50Z</time></trkpt><trkpt lat="44.582255850727854" lon="9.317192320231777"><ele>956.0</ele><time>2026-04-19T14:03:52Z</time></trkpt><trkpt lat="44.58220957264444" lon="9.317261925573137"><ele>956.0</ele><time>2026-04-19T14:03:53Z</time></trkpt><trkpt lat="44.582132058343504" lon="9.317330631598587"><ele>955.9999999999999</ele><time>2026-04-19T14:03:55Z</time></trkpt><trkpt lat="44.58207399489042" lon="9.317411795043851"><ele>955.9999999999999</ele><time>2026-04-19T14:03:57Z</time></trkpt><trkpt lat="44.58200753933063" lon="9.31740924240392"><ele>956.0</ele><time>2026-04-19T14:04:00Z</time></trkpt><trkpt lat="44.58200664561142" lon="9.317273806849322"><ele>956.0</ele><time>2026-04-19T14:04:02.999Z</time></trkpt><trkpt lat="44.58209487353885" lon="9.317169140936144"><ele>957.5714285714287</ele><time>2026-04-19T14:04:04.999Z</time></trkpt><trkpt lat="44.582140523199044" lon="9.317090061780839"><ele>959.1428571428571</ele><time>2026-04-19T14:04:05.999Z</time></trkpt><trkpt lat="44.58218276903816" lon="9.316991487511368"><ele>960.7142857142858</ele><time>2026-04-19T14:04:06.999Z</time></trkpt><trkpt lat="44.58221177569254" lon="9.316908908440066"><ele>962.2857142857143</ele><time>2026-04-19T14:04:07.999Z</time></trkpt><trkpt lat="44.582252575553035" lon="9.31678307828675"><ele>963.8571428571429</ele><time>2026-04-19T14:04:09.999Z</time></trkpt><trkpt lat="44.582279653109325" lon="9.316700176985522"><ele>965.4285714285714</ele><time>2026-04-19T14:04:10.999Z</time></trkpt><trkpt lat="44.5823216812108" lon="9.316633532635937"><ele>967.0</ele><time>2026-04-19T14:04:11.999Z</time></trkpt><trkpt lat="44.58235924517359" lon="9.316552528532586"><ele>967.0</ele><time>2026-04-19T14:04:12.999Z</time></trkpt><trkpt lat="44.58239105484489" lon="9.316412376736523"><ele>967.0</ele><time>2026-04-19T14:04:14.999Z</time></trkpt><trkpt lat="44.58237510931684" lon="9.316272942888954"><ele>967.0</ele><time>2026-04-19T14:04:16.999Z</time></trkpt><trkpt lat="44.58231656266639" lon="9.316211977126821"><ele>967.0</ele><time>2026-04-19T14:04:18.999Z</time></trkpt><trkpt lat="44.58224786075792" lon="9.316227939608225"><ele>967.0</ele><time>2026-04-19T14:04:20.999Z</time></trkpt><trkpt lat="44.58220559597189" lon="9.316372464961985"><ele>967.0</ele><time>2026-04-19T14:04:22.999Z</time></trkpt><trkpt lat="44.58219548110492" lon="9.31646662336276"><ele>967.0</ele><time>2026-04-19T14:04:23.999Z</time></trkpt><trkpt lat="44.58217282435194" lon="9.316565151153645"><ele>967.0</ele><time>2026-04-19T14:04:24.999Z</time></trkpt><trkpt lat="44.58212629364426" lon="9.316639800087444"><ele>967.0</ele><time>2026-04-19T14:04:25.999Z</time></trkpt><trkpt lat="44.582067777453624" lon="9.316697071774545"><ele>967.0</ele><time>2026-04-19T14:04:26.999Z</time></trkpt><trkpt lat="44.58199576316462" lon="9.316752273438349"><ele>967.0</ele><time>2026-04-19T14:04:27.999Z</time></trkpt><trkpt lat="44.58192981977626" lon="9.316798725032458"><ele>967.0</ele><time>2026-04-19T14:04:28.999Z</time></trkpt><trkpt lat="44.58183573063007" lon="9.316890493984195"><ele>971.8</ele><time>2026-04-19T14:04:30.999Z</time></trkpt><trkpt lat="44.58175728650012" lon="9.317013466407"><ele>976.6</ele><time>2026-04-19T14:04:32.999Z</time></trkpt><trkpt lat="44.58168564967479" lon="9.317143371382379"><ele>981.3999999999999</ele><time>2026-04-19T14:04:34.999Z</time></trkpt><trkpt lat="44.58165252678301" lon="9.31728535170678"><ele>986.1999999999999</ele><time>2026-04-19T14:04:36.999Z</time></trkpt><trkpt lat="44.58159119222775" lon="9.317385367640613"><ele>991.0</ele><time>2026-04-19T14:04:38.999Z</time></trkpt><trkpt lat="44.58147916395942" lon="9.317393636951193"><ele>991.0</ele><time>2026-04-19T14:04:40.999Z</time></trkpt><trkpt lat="44.58143055895126" lon="9.317261962018978"><ele>990.9999999999999</ele><time>2026-04-19T14:04:42.999Z</time></trkpt><trkpt lat="44.581423948866046" lon="9.317092590136456"><ele>990.9999999999999</ele><time>2026-04-19T14:04:44.999Z</time></trkpt><trkpt lat="44.58144901634831" lon="9.317001105157841"><ele>991.0</ele><time>2026-04-19T14:04:45.999Z</time></trkpt><trkpt lat="44.58147502364327" lon="9.316896187124811"><ele>991.0</ele><time>2026-04-19T14:04:46.999Z</time></trkpt><trkpt lat="44.58151137785586" lon="9.316787906378822"><ele>992.4999999999999</ele><time>2026-04-19T14:04:47.999Z</time></trkpt><trkpt lat="44.58157741044684" lon="9.316663753264748"><ele>994.0</ele><time>2026-04-19T14:04:48.999Z</time></trkpt><trkpt lat="44.58164661597729" lon="9.316570230656161"><ele>995.5</ele><time>2026-04-19T14:04:49.999Z</time></trkpt><trkpt lat="44.58169646887209" lon="9.316488954354753"><ele>997.0</ele><time>2026-04-19T14:04:50.999Z</time></trkpt><trkpt lat="44.5817724056661" lon="9.31644226235927"><ele>998.4999999999999</ele><time>2026-04-19T14:04:51.999Z</time></trkpt><trkpt lat="44.58181504743119" lon="9.316370666091665"><ele>1000.0</ele><time>2026-04-19T14:04:52.999Z</time></trkpt><trkpt lat="44.581826303254864" lon="9.316248450685249"><ele>1001.2</ele><time>2026-04-19T14:04:54.999Z</time></trkpt><trkpt lat="44.58180949195222" lon="9.316141797101265"><ele>1002.4</ele><time>2026-04-19T14:04:56.999Z</time></trkpt><trkpt lat="44.58173308330081" lon="9.31605262614851"><ele>1003.5999999999999</ele><time>2026-04-19T14:04:58.999Z</time></trkpt><trkpt lat="44.58161851743955" lon="9.316062135349046"><ele>1004.8</ele><time>2026-04-19T14:05:01Z</time></trkpt><trkpt lat="44.58150869556802" lon="9.316103218054973"><ele>1006.0</ele><time>2026-04-19T14:05:03Z</time></trkpt><trkpt lat="44.58138126663837" lon="9.316144426161314"><ele>1006.0</ele><time>2026-04-19T14:05:05Z</time></trkpt><trkpt lat="44.581248516239036" lon="9.316185740277021"><ele>1005.9999999999999</ele><time>2026-04-19T14:05:07Z</time></trkpt><trkpt lat="44.58116621289787" lon="9.316208758051932"><ele>1005.9999999999999</ele><time>2026-04-19T14:05:08Z</time></trkpt><trkpt lat="44.58108488415317" lon="9.316232237068235"><ele>1006.0</ele><time>2026-04-19T14:05:09Z</time></trkpt><trkpt lat="44.581007194464384" lon="9.316256138368868"><ele>1006.0</ele><time>2026-04-19T14:05:10Z</time></trkpt><trkpt lat="44.58092609285242" lon="9.31628040716914"><ele>1008.5999999999999</ele><time>2026-04-19T14:05:11Z</time></trkpt><trkpt lat="44.580853623763204" lon="9.316322635365097"><ele>1011.1999999999999</ele><time>2026-04-19T14:05:12Z</time></trkpt><trkpt lat="44.58074103311001" lon="9.316429964966977"><ele>1013.8000000000001</ele><time>2026-04-19T14:05:14Z</time></trkpt><trkpt lat="44.58067522638252" lon="9.316490882683134"><ele>1016.4000000000001</ele><time>2026-04-19T14:05:15Z</time></trkpt><trkpt lat="44.580603567006236" lon="9.316580803656796"><ele>1019.0</ele><time>2026-04-19T14:05:16Z</time></trkpt><trkpt lat="44.58054694354556" lon="9.316710578548639"><ele>1019.1666666666667</ele><time>2026-04-19T14:05:17Z</time></trkpt><trkpt lat="44.58048974756379" lon="9.316836315293477"><ele>1019.3333333333334</ele><time>2026-04-19T14:05:18Z</time></trkpt><trkpt lat="44.58045266324005" lon="9.316947626673747"><ele>1019.5</ele><time>2026-04-19T14:05:19Z</time></trkpt><trkpt lat="44.580410881481285" lon="9.317038290537292"><ele>1019.6666666666667</ele><time>2026-04-19T14:05:20Z</time></trkpt><trkpt lat="44.58039111580982" lon="9.31714656570153"><ele>1019.8333333333334</ele><time>2026-04-19T14:05:21Z</time></trkpt><trkpt lat="44.58038057360253" lon="9.317259230094878"><ele>1020.0</ele><time>2026-04-19T14:05:22Z</time></trkpt><trkpt lat="44.58038933287655" lon="9.317372105537357"><ele>1020.3333333333334</ele><time>2026-04-19T14:05:23Z</time></trkpt><trkpt lat="44.58042444547089" lon="9.317507182052925"><ele>1020.6666666666667</ele><time>2026-04-19T14:05:24Z</time></trkpt><trkpt lat="44.58044997835441" lon="9.31762937783378"><ele>1021.0</ele><time>2026-04-19T14:05:25Z</time></trkpt><trkpt lat="44.580460900890664" lon="9.317719497305095"><ele>1021.3333333333334</ele><time>2026-04-19T14:05:26Z</time></trkpt><trkpt lat="44.580481496311094" lon="9.317818704991394"><ele>1021.6666666666667</ele><time>2026-04-19T14:05:27Z</time></trkpt><trkpt lat="44.58050642851067" lon="9.317922407483561"><ele>1022.0</ele><time>2026-04-19T14:05:28Z</time></trkpt><trkpt lat="44.58053562616195" lon="9.31807144501257"><ele>1021.3333333333334</ele><time>2026-04-19T14:05:30Z</time></trkpt><trkpt lat="44.58053370595735" lon="9.318240149921017"><ele>1020.6666666666667</ele><time>2026-04-19T14:05:32Z</time></trkpt><trkpt lat="44.580514469413465" lon="9.318328670864641"><ele>1020.0</ele><time>2026-04-19T14:05:33Z</time></trkpt><trkpt lat="44.58048886062151" lon="9.318413615501004"><ele>1019.3333333333333</ele><time>2026-04-19T14:05:34Z</time></trkpt><trkpt lat="44.58046041866508" lon="9.318501146904214"><ele>1018.6666666666666</ele><time>2026-04-19T14:05:35Z</time></trkpt><trkpt lat="44.58042370759175" lon="9.31861200725436"><ele>1018.0</ele><time>2026-04-19T14:05:36Z</time></trkpt><trkpt lat="44.580382075222595" lon="9.318716874879893"><ele>1020.8333333333333</ele><time>2026-04-19T14:05:37Z</time></trkpt><trkpt lat="44.580341097770344" lon="9.318829939392907"><ele>1023.6666666666666</ele><time>2026-04-19T14:05:38Z</time></trkpt><trkpt lat="44.58029266109669" lon="9.318942984646876"><ele>1026.5</ele><time>2026-04-19T14:05:39Z</time></trkpt><trkpt lat="44.58024969634083" lon="9.31906546725235"><ele>1029.3333333333333</ele><time>2026-04-19T14:05:40Z</time></trkpt><trkpt lat="44.58022117795093" lon="9.31916422509938"><ele>1032.1666666666667</ele><time>2026-04-19T14:05:41Z</time></trkpt><trkpt lat="44.58019094803205" lon="9.319242680256918"><ele>1035.0</ele><time>2026-04-19T14:05:42Z</time></trkpt><trkpt lat="44.58016020560369" lon="9.319332825990198"><ele>1035.3333333333333</ele><time>2026-04-19T14:05:43Z</time></trkpt><trkpt lat="44.58012581147226" lon="9.319426703515914"><ele>1035.6666666666667</ele><time>2026-04-19T14:05:44Z</time></trkpt><trkpt lat="44.58008966311652" lon="9.319537678815264"><ele>1036.0</ele><time>2026-04-19T14:05:45Z</time></trkpt><trkpt lat="44.58006208205042" lon="9.319653870410106"><ele>1036.3333333333335</ele><time>2026-04-19T14:05:46Z</time></trkpt><trkpt lat="44.58003855662596" lon="9.319773127497323"><ele>1036.6666666666667</ele><time>2026-04-19T14:05:47Z</time></trkpt><trkpt lat="44.58001835582759" lon="9.319872492243082"><ele>1037.0</ele><time>2026-04-19T14:05:48Z</time></trkpt><trkpt lat="44.57999366541765" lon="9.319983560467527"><ele>1037.2</ele><time>2026-04-19T14:05:49Z</time></trkpt><trkpt lat="44.579953585916385" lon="9.320076375166582"><ele>1037.4</ele><time>2026-04-19T14:05:50Z</time></trkpt><trkpt lat="44.57990099682195" lon="9.320174288422796"><ele>1037.6</ele><time>2026-04-19T14:05:51Z</time></trkpt><trkpt lat="44.57985082906194" lon="9.320281538367702"><ele>1037.8</ele><time>2026-04-19T14:05:52Z</time></trkpt><trkpt lat="44.57978291670349" lon="9.320389749566385"><ele>1038.0</ele><time>2026-04-19T14:05:53Z</time></trkpt><trkpt lat="44.57972883969934" lon="9.320498910630969"><ele>1037.0</ele><time>2026-04-19T14:05:54Z</time></trkpt><trkpt lat="44.57967731994137" lon="9.320592659306627"><ele>1036.0</ele><time>2026-04-19T14:05:55Z</time></trkpt><trkpt lat="44.57961516839064" lon="9.320669863314183"><ele>1035.0</ele><time>2026-04-19T14:05:56Z</time></trkpt><trkpt lat="44.57955665160412" lon="9.320739852991466"><ele>1034.0</ele><time>2026-04-19T14:05:57Z</time></trkpt><trkpt lat="44.579501219240484" lon="9.320788991131565"><ele>1033.0</ele><time>2026-04-19T14:05:58Z</time></trkpt><trkpt lat="44.579445168789" lon="9.320839878157472"><ele>1032.0</ele><time>2026-04-19T14:05:59Z</time></trkpt><trkpt lat="44.57932505149244" lon="9.32089037302354"><ele>1034.3333333333333</ele><time>2026-04-19T14:06:01Z</time></trkpt><trkpt lat="44.57924904364293" lon="9.320882944896107"><ele>1036.6666666666667</ele><time>2026-04-19T14:06:02Z</time></trkpt><trkpt lat="44.57917775651595" lon="9.320849950154587"><ele>1039.0</ele><time>2026-04-19T14:06:03Z</time></trkpt><trkpt lat="44.57909761061237" lon="9.320819970109264"><ele>1041.3333333333335</ele><time>2026-04-19T14:06:04Z</time></trkpt><trkpt lat="44.578997370258314" lon="9.320788418045735"><ele>1043.6666666666667</ele><time>2026-04-19T14:06:04.999Z</time></trkpt><trkpt lat="44.57890233337951" lon="9.320742383499326"><ele>1046.0</ele><time>2026-04-19T14:06:05.999Z</time></trkpt><trkpt lat="44.57881887402377" lon="9.32070569178496"><ele>1046.0</ele><time>2026-04-19T14:06:06.999Z</time></trkpt><trkpt lat="44.5787403827232" lon="9.32066334902261"><ele>1046.0</ele><time>2026-04-19T14:06:07.999Z</time></trkpt><trkpt lat="44.578654651781065" lon="9.320619430007866"><ele>1046.0</ele><time>2026-04-19T14:06:08.999Z</time></trkpt><trkpt lat="44.57857107856278" lon="9.320607747411099"><ele>1046.0</ele><time>2026-04-19T14:06:09.999Z</time></trkpt><trkpt lat="44.57848278673715" lon="9.320584366390571"><ele>1046.0</ele><time>2026-04-19T14:06:10.999Z</time></trkpt><trkpt lat="44.57839616234328" lon="9.320571815392588"><ele>1046.0</ele><time>2026-04-19T14:06:11.999Z</time></trkpt><trkpt lat="44.57831581292735" lon="9.32056154342545"><ele>1050.6666666666667</ele><time>2026-04-19T14:06:12.999Z</time></trkpt><trkpt lat="44.57823995840902" lon="9.320534858094682"><ele>1055.3333333333335</ele><time>2026-04-19T14:06:13.999Z</time></trkpt><trkpt lat="44.57817010605644" lon="9.320474486640496"><ele>1060.0</ele><time>2026-04-19T14:06:14.999Z</time></trkpt><trkpt lat="44.57811093959999" lon="9.32038510938726"><ele>1064.6666666666667</ele><time>2026-04-19T14:06:15.999Z</time></trkpt><trkpt lat="44.578045194187474" lon="9.320280693836763"><ele>1069.3333333333333</ele><time>2026-04-19T14:06:16.999Z</time></trkpt><trkpt lat="44.57798210516644" lon="9.320183630312519"><ele>1074.0</ele><time>2026-04-19T14:06:17.999Z</time></trkpt><trkpt lat="44.57791607753562" lon="9.320067223128566"><ele>1077.4</ele><time>2026-04-19T14:06:19.999Z</time></trkpt><trkpt lat="44.57780906247159" lon="9.320076464129208"><ele>1080.8000000000002</ele><time>2026-04-19T14:06:21.999Z</time></trkpt><trkpt lat="44.57774091690028" lon="9.320141146975654"><ele>1084.1999999999998</ele><time>2026-04-19T14:06:23.999Z</time></trkpt><trkpt lat="44.57771650824634" lon="9.320267997563587"><ele>1087.6</ele><time>2026-04-19T14:06:25.999Z</time></trkpt><trkpt lat="44.57770451692988" lon="9.320444521014846"><ele>1091.0</ele><time>2026-04-19T14:06:27.999Z</time></trkpt><trkpt lat="44.57770033244255" lon="9.320544081603"><ele>1089.3333333333335</ele><time>2026-04-19T14:06:28.999Z</time></trkpt><trkpt lat="44.577683314397696" lon="9.320653864227902"><ele>1087.6666666666667</ele><time>2026-04-19T14:06:29.999Z</time></trkpt><trkpt lat="44.577643650896626" lon="9.320742665771114"><ele>1086.0</ele><time>2026-04-19T14:06:30.999Z</time></trkpt><trkpt lat="44.577579875067926" lon="9.320844079584159"><ele>1084.3333333333333</ele><time>2026-04-19T14:06:31.999Z</time></trkpt><trkpt lat="44.57751767788864" lon="9.320936687007153"><ele>1082.6666666666665</ele><time>2026-04-19T14:06:32.999Z</time></trkpt><trkpt lat="44.57747389374724" lon="9.321035045645996"><ele>1081.0</ele><time>2026-04-19T14:06:33.999Z</time></trkpt><trkpt lat="44.57744737253319" lon="9.321132112650867"><ele>1081.0</ele><time>2026-04-19T14:06:34.999Z</time></trkpt><trkpt lat="44.577420405022856" lon="9.321243336671639"><ele>1081.0</ele><time>2026-04-19T14:06:35.999Z</time></trkpt><trkpt lat="44.5774114918158" lon="9.321364764505276"><ele>1081.0</ele><time>2026-04-19T14:06:36.999Z</time></trkpt><trkpt lat="44.577373457429765" lon="9.321465653580411"><ele>1081.0</ele><time>2026-04-19T14:06:37.999Z</time></trkpt><trkpt lat="44.57731689843197" lon="9.321564732737283"><ele>1081.0</ele><time>2026-04-19T14:06:38.999Z</time></trkpt><trkpt lat="44.57724388412282" lon="9.321662999349954"><ele>1081.0</ele><time>2026-04-19T14:06:39.999Z</time></trkpt><trkpt lat="44.57715807965413" lon="9.321746198876346"><ele>1078.8</ele><time>2026-04-19T14:06:40.999Z</time></trkpt><trkpt lat="44.57707859157218" lon="9.321853353830528"><ele>1076.6</ele><time>2026-04-19T14:06:41.999Z</time></trkpt><trkpt lat="44.576994197443476" lon="9.321953196044907"><ele>1074.4</ele><time>2026-04-19T14:06:42.999Z</time></trkpt><trkpt lat="44.57693221088143" lon="9.322016782332003"><ele>1072.2</ele><time>2026-04-19T14:06:43.999Z</time></trkpt><trkpt lat="44.57686792257782" lon="9.322083814591512"><ele>1070.0</ele><time>2026-04-19T14:06:44.999Z</time></trkpt><trkpt lat="44.576785928362234" lon="9.322138072503707"><ele>1072.8333333333335</ele><time>2026-04-19T14:06:45.999Z</time></trkpt><trkpt lat="44.5766944330551" lon="9.322185699789042"><ele>1075.6666666666667</ele><time>2026-04-19T14:06:46.999Z</time></trkpt><trkpt lat="44.576610046346275" lon="9.322223113139318"><ele>1078.5</ele><time>2026-04-19T14:06:47.999Z</time></trkpt><trkpt lat="44.57654558203993" lon="9.32226232467274"><ele>1081.3333333333333</ele><time>2026-04-19T14:06:48.999Z</time></trkpt><trkpt lat="44.576480624140636" lon="9.322311997565214"><ele>1084.1666666666665</ele><time>2026-04-19T14:06:49.999Z</time></trkpt><trkpt lat="44.57642007770767" lon="9.322375164082494"><ele>1087.0</ele><time>2026-04-19T14:06:50.999Z</time></trkpt><trkpt lat="44.57635826539445" lon="9.322463518211098"><ele>1087.0</ele><time>2026-04-19T14:06:51.999Z</time></trkpt><trkpt lat="44.57631507408647" lon="9.322580670072192"><ele>1087.0</ele><time>2026-04-19T14:06:52.999Z</time></trkpt><trkpt lat="44.57625676028907" lon="9.322687474086923"><ele>1087.0</ele><time>2026-04-19T14:06:53.999Z</time></trkpt><trkpt lat="44.57622084652378" lon="9.322782911094025"><ele>1087.0</ele><time>2026-04-19T14:06:54.999Z</time></trkpt><trkpt lat="44.57615810550535" lon="9.322841971688254"><ele>1087.0</ele><time>2026-04-19T14:06:55.999Z</time></trkpt><trkpt lat="44.57606940419409" lon="9.322894714265807"><ele>1087.0</ele><time>2026-04-19T14:06:56.999Z</time></trkpt><trkpt lat="44.575980242782634" lon="9.322922088712346"><ele>1088.1666666666665</ele><time>2026-04-19T14:06:57.999Z</time></trkpt><trkpt lat="44.57588880488485" lon="9.322919914228718"><ele>1089.3333333333333</ele><time>2026-04-19T14:06:58.999Z</time></trkpt><trkpt lat="44.575816212946634" lon="9.322922936773887"><ele>1090.5</ele><time>2026-04-19T14:06:59.999Z</time></trkpt><trkpt lat="44.57571891630402" lon="9.322943621881999"><ele>1091.6666666666667</ele><time>2026-04-19T14:07:00.999Z</time></trkpt><trkpt lat="44.57562634760564" lon="9.322980589386388"><ele>1092.8333333333335</ele><time>2026-04-19T14:07:01.999Z</time></trkpt><trkpt lat="44.57555295799513" lon="9.323050899966974"><ele>1094.0</ele><time>2026-04-19T14:07:02.999Z</time></trkpt><trkpt lat="44.575497255519" lon="9.323122987507858"><ele>1094.0</ele><time>2026-04-19T14:07:03.999Z</time></trkpt><trkpt lat="44.5754320167864" lon="9.323264061325386"><ele>1094.0</ele><time>2026-04-19T14:07:04.999Z</time></trkpt><trkpt lat="44.575387454283465" lon="9.323381940201132"><ele>1094.0</ele><time>2026-04-19T14:07:05.999Z</time></trkpt><trkpt lat="44.57531496260021" lon="9.323546276920135"><ele>1094.0</ele><time>2026-04-19T14:07:07Z</time></trkpt><trkpt lat="44.5752417101627" lon="9.323711193987217"><ele>1095.6666666666667</ele><time>2026-04-19T14:07:08Z</time></trkpt><trkpt lat="44.57519138033994" lon="9.323820101275306"><ele>1097.3333333333335</ele><time>2026-04-19T14:07:09Z</time></trkpt><trkpt lat="44.575145225478835" lon="9.323893866692552"><ele>1099.0</ele><time>2026-04-19T14:07:10Z</time></trkpt><trkpt lat="44.575103167300895" lon="9.323963481344041"><ele>1100.6666666666667</ele><time>2026-04-19T14:07:11Z</time></trkpt><trkpt lat="44.575047705654555" lon="9.324043495119824"><ele>1102.3333333333333</ele><time>2026-04-19T14:07:12Z</time></trkpt><trkpt lat="44.57499396768822" lon="9.324122368486712"><ele>1104.0</ele><time>2026-04-19T14:07:13Z</time></trkpt><trkpt lat="44.57493342473317" lon="9.324198262335326"><ele>1104.0</ele><time>2026-04-19T14:07:14Z</time></trkpt><trkpt lat="44.57486443541049" lon="9.324263059100671"><ele>1104.0</ele><time>2026-04-19T14:07:15Z</time></trkpt><trkpt lat="44.574792229806114" lon="9.324308932520495"><ele>1104.0</ele><time>2026-04-19T14:07:16Z</time></trkpt><trkpt lat="44.57470770610529" lon="9.324357582991649"><ele>1104.0</ele><time>2026-04-19T14:07:17Z</time></trkpt><trkpt lat="44.57462344031128" lon="9.324384193305558"><ele>1104.0</ele><time>2026-04-19T14:07:18Z</time></trkpt><trkpt lat="44.57453660574094" lon="9.324403064122247"><ele>1104.0</ele><time>2026-04-19T14:07:19Z</time></trkpt><trkpt lat="44.574445807068564" lon="9.324427413445349"><ele>1107.0</ele><time>2026-04-19T14:07:20Z</time></trkpt><trkpt lat="44.57434548860638" lon="9.324423573396704"><ele>1110.0</ele><time>2026-04-19T14:07:21Z</time></trkpt><trkpt lat="44.57425233993122" lon="9.324436295411594"><ele>1113.0</ele><time>2026-04-19T14:07:22Z</time></trkpt><trkpt lat="44.57416762778222" lon="9.32444480899763"><ele>1116.0</ele><time>2026-04-19T14:07:23Z</time></trkpt><trkpt lat="44.57407941556046" lon="9.324467877724532"><ele>1119.0</ele><time>2026-04-19T14:07:24Z</time></trkpt><trkpt lat="44.573972971541345" lon="9.32451832976541"><ele>1119.0</ele><time>2026-04-19T14:07:25Z</time></trkpt><trkpt lat="44.573881902569845" lon="9.324549106975024"><ele>1119.0</ele><time>2026-04-19T14:07:26Z</time></trkpt><trkpt lat="44.57380466082094" lon="9.32456045950189"><ele>1119.0</ele><time>2026-04-19T14:07:27Z</time></trkpt><trkpt lat="44.57371582181603" lon="9.324580492144898"><ele>1119.0</ele><time>2026-04-19T14:07:28Z</time></trkpt><trkpt lat="44.57362154875347" lon="9.324608082217425"><ele>1119.0</ele><time>2026-04-19T14:07:29Z</time></trkpt><trkpt lat="44.57351638760101" lon="9.32463995310358"><ele>1122.0</ele><time>2026-04-19T14:07:30Z</time></trkpt><trkpt lat="44.57340990654746" lon="9.32465211080357"><ele>1125.0</ele><time>2026-04-19T14:07:31Z</time></trkpt><trkpt lat="44.57331310739815" lon="9.324629082113388"><ele>1128.0</ele><time>2026-04-19T14:07:32Z</time></trkpt><trkpt lat="44.57322383990631" lon="9.324619126509337"><ele>1131.0</ele><time>2026-04-19T14:07:33Z</time></trkpt><trkpt lat="44.57313701308472" lon="9.324618491561322"><ele>1134.0</ele><time>2026-04-19T14:07:34Z</time></trkpt><trkpt lat="44.573049297311876" lon="9.32463324106744"><ele>1134.0</ele><time>2026-04-19T14:07:35Z</time></trkpt><trkpt lat="44.57296924278238" lon="9.32467353251397"><ele>1134.0</ele><time>2026-04-19T14:07:36Z</time></trkpt><trkpt lat="44.5728839548142" lon="9.324721317825606"><ele>1134.0</ele><time>2026-04-19T14:07:37Z</time></trkpt><trkpt lat="44.572792086908656" lon="9.3247582216385"><ele>1134.0</ele><time>2026-04-19T14:07:38Z</time></trkpt><trkpt lat="44.57270552229336" lon="9.32481039294036"><ele>1134.0</ele><time>2026-04-19T14:07:39Z</time></trkpt><trkpt lat="44.57261828721649" lon="9.324839932897415"><ele>1132.857142857143</ele><time>2026-04-19T14:07:40Z</time></trkpt><trkpt lat="44.57254965194655" lon="9.32486024865392"><ele>1131.7142857142858</ele><time>2026-04-19T14:07:41Z</time></trkpt><trkpt lat="44.572470254348055" lon="9.324876210823529"><ele>1130.5714285714284</ele><time>2026-04-19T14:07:42Z</time></trkpt><trkpt lat="44.572386769051384" lon="9.324883377972203"><ele>1129.4285714285716</ele><time>2026-04-19T14:07:43Z</time></trkpt><trkpt lat="44.5723057218187" lon="9.324919243435666"><ele>1128.2857142857142</ele><time>2026-04-19T14:07:44Z</time></trkpt><trkpt lat="44.572250235114915" lon="9.324966378105012"><ele>1127.142857142857</ele><time>2026-04-19T14:07:45Z</time></trkpt><trkpt lat="44.57219184331096" lon="9.32500545901858"><ele>1126.0</ele><time>2026-04-19T14:07:46Z</time></trkpt><trkpt lat="44.57209332923041" lon="9.325114155019131"><ele>1128.8333333333333</ele><time>2026-04-19T14:07:48Z</time></trkpt><trkpt lat="44.572020459913986" lon="9.325179630149636"><ele>1131.6666666666665</ele><time>2026-04-19T14:07:49Z</time></trkpt><trkpt lat="44.57194300192855" lon="9.32526978743136"><ele>1134.5</ele><time>2026-04-19T14:07:50Z</time></trkpt><trkpt lat="44.57186578421633" lon="9.325308727244781"><ele>1137.3333333333333</ele><time>2026-04-19T14:07:51Z</time></trkpt><trkpt lat="44.57178386603543" lon="9.325336620462522"><ele>1140.1666666666667</ele><time>2026-04-19T14:07:52Z</time></trkpt><trkpt lat="44.57169218348202" lon="9.325353739580391"><ele>1143.0</ele><time>2026-04-19T14:07:53Z</time></trkpt><trkpt lat="44.57160102379327" lon="9.325373159966313"><ele>1143.0</ele><time>2026-04-19T14:07:54Z</time></trkpt><trkpt lat="44.57150456445014" lon="9.32538457666205"><ele>1143.0</ele><time>2026-04-19T14:07:55Z</time></trkpt><trkpt lat="44.5714109691801" lon="9.325375466524045"><ele>1143.0</ele><time>2026-04-19T14:07:56Z</time></trkpt><trkpt lat="44.571330997443795" lon="9.325363769586495"><ele>1143.0</ele><time>2026-04-19T14:07:57Z</time></trkpt><trkpt lat="44.571249390829514" lon="9.325328970118676"><ele>1143.0</ele><time>2026-04-19T14:07:58Z</time></trkpt><trkpt lat="44.57116433092595" lon="9.32526992298229"><ele>1142.6</ele><time>2026-04-19T14:07:59Z</time></trkpt><trkpt lat="44.57106488619521" lon="9.3252066932827"><ele>1142.1999999999998</ele><time>2026-04-19T14:08:00Z</time></trkpt><trkpt lat="44.57098256139757" lon="9.325136256405054"><ele>1141.8</ele><time>2026-04-19T14:08:01Z</time></trkpt><trkpt lat="44.570887734487414" lon="9.325081899677643"><ele>1141.3999999999999</ele><time>2026-04-19T14:08:02Z</time></trkpt><trkpt lat="44.570779872604085" lon="9.325049294112148"><ele>1141.0</ele><time>2026-04-19T14:08:03Z</time></trkpt><trkpt lat="44.570691977765975" lon="9.325009201846633"><ele>1141.0</ele><time>2026-04-19T14:08:04Z</time></trkpt><trkpt lat="44.570605548048476" lon="9.324962263956287"><ele>1141.0</ele><time>2026-04-19T14:08:05Z</time></trkpt><trkpt lat="44.57050780549241" lon="9.324916343074406"><ele>1141.0</ele><time>2026-04-19T14:08:06Z</time></trkpt><trkpt lat="44.57041749409467" lon="9.324889529152586"><ele>1141.0</ele><time>2026-04-19T14:08:07Z</time></trkpt><trkpt lat="44.57032383042937" lon="9.324836501358318"><ele>1141.0</ele><time>2026-04-19T14:08:08Z</time></trkpt><trkpt lat="44.57022906451203" lon="9.324805867258522"><ele>1140.6</ele><time>2026-04-19T14:08:09Z</time></trkpt><trkpt lat="44.57013681242942" lon="9.324788435744306"><ele>1140.1999999999998</ele><time>2026-04-19T14:08:10Z</time></trkpt><trkpt lat="44.57004188030746" lon="9.324773130255737"><ele>1139.8000000000002</ele><time>2026-04-19T14:08:11Z</time></trkpt><trkpt lat="44.5699400434315" lon="9.324754405535929"><ele>1139.4</ele><time>2026-04-19T14:08:11.999Z</time></trkpt><trkpt lat="44.56984444670396" lon="9.3247509606631"><ele>1139.0</ele><time>2026-04-19T14:08:12.999Z</time></trkpt><trkpt lat="44.56977661644484" lon="9.324750587825507"><ele>1139.0</ele><time>2026-04-19T14:08:13.999Z</time></trkpt><trkpt lat="44.56970473572774" lon="9.324757189306293"><ele>1139.0</ele><time>2026-04-19T14:08:14.999Z</time></trkpt><trkpt lat="44.56957892477256" lon="9.324808458507786"><ele>1139.0</ele><time>2026-04-19T14:08:16.999Z</time></trkpt><trkpt lat="44.5695290791978" lon="9.324862635300033"><ele>1139.0</ele><time>2026-04-19T14:08:17.999Z</time></trkpt><trkpt lat="44.56948182124743" lon="9.324943823772298"><ele>1139.0</ele><time>2026-04-19T14:08:18.999Z</time></trkpt><trkpt lat="44.56944461179351" lon="9.32504221191665"><ele>1139.0</ele><time>2026-04-19T14:08:19.999Z</time></trkpt><trkpt lat="44.569410217825386" lon="9.325149170412496"><ele>1139.4</ele><time>2026-04-19T14:08:20.999Z</time></trkpt><trkpt lat="44.569370991004746" lon="9.325261410550178"><ele>1139.8000000000002</ele><time>2026-04-19T14:08:21.999Z</time></trkpt><trkpt lat="44.569340216334126" lon="9.325373186396124"><ele>1140.1999999999998</ele><time>2026-04-19T14:08:22.999Z</time></trkpt><trkpt lat="44.56931994927283" lon="9.325460020951901"><ele>1140.6</ele><time>2026-04-19T14:08:23.999Z</time></trkpt><trkpt lat="44.569282453976136" lon="9.325608309514045"><ele>1141.0</ele><time>2026-04-19T14:08:25.999Z</time></trkpt><trkpt lat="44.569239031478126" lon="9.325745500480807"><ele>1141.0</ele><time>2026-04-19T14:08:27.999Z</time></trkpt><trkpt lat="44.56921265037908" lon="9.32590062744157"><ele>1141.0</ele><time>2026-04-19T14:08:29.999Z</time></trkpt><trkpt lat="44.56919290186883" lon="9.326034574777758"><ele>1141.0</ele><time>2026-04-19T14:08:31.999Z</time></trkpt><trkpt lat="44.56918839452721" lon="9.326131061531525"><ele>1141.0</ele><time>2026-04-19T14:08:53.999Z</time></trkpt><trkpt lat="44.56916162669478" lon="9.326230595802532"><ele>1141.0</ele><time>2026-04-19T14:08:55.999Z</time></trkpt><trkpt lat="44.56915372084167" lon="9.326380957604451"><ele>1141.0</ele><time>2026-04-19T14:08:57.999Z</time></trkpt><trkpt lat="44.56915092312002" lon="9.326532486149304"><ele>1141.0</ele><time>2026-04-19T14:08:59.999Z</time></trkpt><trkpt lat="44.56911944648404" lon="9.326704186607168"><ele>1141.0</ele><time>2026-04-19T14:09:01.999Z</time></trkpt><trkpt lat="44.569100938782036" lon="9.326803319291072"><ele>1141.0</ele><time>2026-04-19T14:09:02.999Z</time></trkpt><trkpt lat="44.56908423186186" lon="9.326919868342516"><ele>1141.0</ele><time>2026-04-19T14:09:03.999Z</time></trkpt><trkpt lat="44.56906865276869" lon="9.327035185850947"><ele>1141.0</ele><time>2026-04-19T14:09:04.999Z</time></trkpt><trkpt lat="44.569054564790385" lon="9.327128856999979"><ele>1141.0</ele><time>2026-04-19T14:09:05.999Z</time></trkpt><trkpt lat="44.56902831613257" lon="9.327304362397044"><ele>1141.0</ele><time>2026-04-19T14:09:07.999Z</time></trkpt><trkpt lat="44.56900820781648" lon="9.327398147230019"><ele>1141.0</ele><time>2026-04-19T14:09:08.999Z</time></trkpt><trkpt lat="44.5690038230017" lon="9.32755176728476"><ele>1141.0</ele><time>2026-04-19T14:09:10.999Z</time></trkpt><trkpt lat="44.56903178599441" lon="9.327699733481962"><ele>1140.8333333333333</ele><time>2026-04-19T14:09:13Z</time></trkpt><trkpt lat="44.56904973245134" lon="9.32779639745069"><ele>1140.6666666666665</ele><time>2026-04-19T14:09:14Z</time></trkpt><trkpt lat="44.56907847114784" lon="9.32789937359037"><ele>1140.5</ele><time>2026-04-19T14:09:15Z</time></trkpt><trkpt lat="44.56911926630517" lon="9.328004131695739"><ele>1140.3333333333333</ele><time>2026-04-19T14:09:16Z</time></trkpt><trkpt lat="44.569171234160585" lon="9.328113145405922"><ele>1140.1666666666667</ele><time>2026-04-19T14:09:17Z</time></trkpt><trkpt lat="44.56922306002697" lon="9.328224695940655"><ele>1140.0</ele><time>2026-04-19T14:09:18Z</time></trkpt><trkpt lat="44.56928145860094" lon="9.328340748737066"><ele>1139.8333333333333</ele><time>2026-04-19T14:09:19Z</time></trkpt><trkpt lat="44.569333749866566" lon="9.32845134941227"><ele>1139.6666666666667</ele><time>2026-04-19T14:09:20Z</time></trkpt><trkpt lat="44.56938046392054" lon="9.328550171339945"><ele>1139.5</ele><time>2026-04-19T14:09:21Z</time></trkpt><trkpt lat="44.56941996340803" lon="9.328635420979813"><ele>1139.3333333333335</ele><time>2026-04-19T14:09:22Z</time></trkpt><trkpt lat="44.569459719964854" lon="9.328726097331703"><ele>1139.1666666666667</ele><time>2026-04-19T14:09:23Z</time></trkpt><trkpt lat="44.56949603139195" lon="9.328831110196752"><ele>1139.0</ele><time>2026-04-19T14:09:24Z</time></trkpt><trkpt lat="44.56952291451082" lon="9.328944648308077"><ele>1139.1666666666667</ele><time>2026-04-19T14:09:25Z</time></trkpt><trkpt lat="44.56954211341561" lon="9.329056647077378"><ele>1139.3333333333335</ele><time>2026-04-19T14:09:26Z</time></trkpt><trkpt lat="44.56954966349336" lon="9.329149582189753"><ele>1139.5</ele><time>2026-04-19T14:09:27Z</time></trkpt><trkpt lat="44.56951599401923" lon="9.329301618874096"><ele>1139.6666666666667</ele><time>2026-04-19T14:09:29Z</time></trkpt><trkpt lat="44.569486358841495" lon="9.329384572863669"><ele>1139.8333333333333</ele><time>2026-04-19T14:09:30Z</time></trkpt><trkpt lat="44.56944455757157" lon="9.32946959899201"><ele>1140.0</ele><time>2026-04-19T14:09:31Z</time></trkpt><trkpt lat="44.56937926062293" lon="9.329570995631029"><ele>1139.8</ele><time>2026-04-19T14:09:32Z</time></trkpt><trkpt lat="44.56930269798281" lon="9.329695090754532"><ele>1139.6</ele><time>2026-04-19T14:09:33Z</time></trkpt><trkpt lat="44.56923097357505" lon="9.32982618886364"><ele>1139.4</ele><time>2026-04-19T14:09:34Z</time></trkpt><trkpt lat="44.56917631128972" lon="9.329933162483133"><ele>1139.2</ele><time>2026-04-19T14:09:35Z</time></trkpt><trkpt lat="44.569133832456295" lon="9.330025416320845"><ele>1139.0</ele><time>2026-04-19T14:09:36Z</time></trkpt><trkpt lat="44.569100440408256" lon="9.33017943121434"><ele>1139.0</ele><time>2026-04-19T14:09:38Z</time></trkpt><trkpt lat="44.56909002263126" lon="9.330282968778304"><ele>1139.0</ele><time>2026-04-19T14:09:39Z</time></trkpt><trkpt lat="44.56909530851073" lon="9.330393653166375"><ele>1139.0</ele><time>2026-04-19T14:09:40Z</time></trkpt><trkpt lat="44.56911065214968" lon="9.330487886155986"><ele>1139.0</ele><time>2026-04-19T14:09:41Z</time></trkpt><trkpt lat="44.56914477235929" lon="9.330579902799986"><ele>1139.0</ele><time>2026-04-19T14:09:42Z</time></trkpt><trkpt lat="44.56918048060319" lon="9.330684611987074"><ele>1139.0</ele><time>2026-04-19T14:09:43Z</time></trkpt><trkpt lat="44.56924086926826" lon="9.33078232825275"><ele>1138.8</ele><time>2026-04-19T14:09:44Z</time></trkpt><trkpt lat="44.56926743082788" lon="9.330871326713133"><ele>1138.6000000000001</ele><time>2026-04-19T14:09:45Z</time></trkpt><trkpt lat="44.569308110363856" lon="9.330959930581294"><ele>1138.4</ele><time>2026-04-19T14:09:46Z</time></trkpt><trkpt lat="44.569306241602646" lon="9.331084630533613"><ele>1138.2</ele><time>2026-04-19T14:09:48Z</time></trkpt><trkpt lat="44.569251930334026" lon="9.331212006739944"><ele>1138.0</ele><time>2026-04-19T14:09:50Z</time></trkpt><trkpt lat="44.5691414827014" lon="9.331304490883845"><ele>1138.0</ele><time>2026-04-19T14:09:52Z</time></trkpt><trkpt lat="44.569061765422745" lon="9.331343283325507"><ele>1138.0</ele><time>2026-04-19T14:09:53Z</time></trkpt><trkpt lat="44.568985156965034" lon="9.331366755400134"><ele>1138.0</ele><time>2026-04-19T14:09:54Z</time></trkpt><trkpt lat="44.568902564723224" lon="9.331394078350499"><ele>1138.0</ele><time>2026-04-19T14:09:55Z</time></trkpt><trkpt lat="44.56881246826658" lon="9.331436104999897"><ele>1138.0</ele><time>2026-04-19T14:09:56Z</time></trkpt><trkpt lat="44.56871887610975" lon="9.331494760896751"><ele>1138.0</ele><time>2026-04-19T14:09:57Z</time></trkpt><trkpt lat="44.568624517640046" lon="9.331564957243614"><ele>1139.0</ele><time>2026-04-19T14:09:58Z</time></trkpt><trkpt lat="44.56854926981823" lon="9.331641679178738"><ele>1140.0</ele><time>2026-04-19T14:09:59Z</time></trkpt><trkpt lat="44.56848818876521" lon="9.331704034662126"><ele>1141.0</ele><time>2026-04-19T14:10:00Z</time></trkpt><trkpt lat="44.5684348853672" lon="9.331794897800762"><ele>1142.0</ele><time>2026-04-19T14:10:01Z</time></trkpt><trkpt lat="44.56837340915679" lon="9.3319225987015"><ele>1143.0</ele><time>2026-04-19T14:10:02Z</time></trkpt><trkpt lat="44.5682913966349" lon="9.332052175509014"><ele>1143.0</ele><time>2026-04-19T14:10:03Z</time></trkpt><trkpt lat="44.568215152246935" lon="9.33215391382372"><ele>1143.0</ele><time>2026-04-19T14:10:04Z</time></trkpt><trkpt lat="44.56813597459133" lon="9.332240343726419"><ele>1143.0</ele><time>2026-04-19T14:10:05Z</time></trkpt><trkpt lat="44.56804752966154" lon="9.332333471382851"><ele>1143.0</ele><time>2026-04-19T14:10:06Z</time></trkpt><trkpt lat="44.5679539806269" lon="9.332418173312037"><ele>1143.0</ele><time>2026-04-19T14:10:07Z</time></trkpt><trkpt lat="44.56786534556316" lon="9.332486981484"><ele>1143.0</ele><time>2026-04-19T14:10:08Z</time></trkpt><trkpt lat="44.567800859168145" lon="9.332534417971573"><ele>1143.0</ele><time>2026-04-19T14:10:09Z</time></trkpt><trkpt lat="44.56774032037659" lon="9.332610847378982"><ele>1143.0</ele><time>2026-04-19T14:10:10Z</time></trkpt><trkpt lat="44.56768556670897" lon="9.332690908367667"><ele>1143.0</ele><time>2026-04-19T14:10:11Z</time></trkpt><trkpt lat="44.567642198353354" lon="9.332764405486408"><ele>1143.0</ele><time>2026-04-19T14:10:12Z</time></trkpt><trkpt lat="44.56758853043212" lon="9.332893784737957"><ele>1143.0</ele><time>2026-04-19T14:10:14Z</time></trkpt><trkpt lat="44.56759742416971" lon="9.333051445107131"><ele>1142.0</ele><time>2026-04-19T14:10:16Z</time></trkpt><trkpt lat="44.5676816206893" lon="9.333178947833483"><ele>1141.0</ele><time>2026-04-19T14:10:17.999Z</time></trkpt><trkpt lat="44.56774530945409" lon="9.333224906432948"><ele>1140.0</ele><time>2026-04-19T14:10:18.999Z</time></trkpt><trkpt lat="44.567820337598555" lon="9.333274828182637"><ele>1139.0</ele><time>2026-04-19T14:10:19.999Z</time></trkpt><trkpt lat="44.56790683580677" lon="9.333323432197353"><ele>1138.0</ele><time>2026-04-19T14:10:20.999Z</time></trkpt><trkpt lat="44.5680039738584" lon="9.333384767356433"><ele>1141.0</ele><time>2026-04-19T14:10:21.999Z</time></trkpt><trkpt lat="44.56808907787264" lon="9.33343688494974"><ele>1144.0</ele><time>2026-04-19T14:10:22.999Z</time></trkpt><trkpt lat="44.56815308096397" lon="9.333494604204535"><ele>1147.0</ele><time>2026-04-19T14:10:23.999Z</time></trkpt><trkpt lat="44.56821491628775" lon="9.3335610188408"><ele>1150.0</ele><time>2026-04-19T14:10:24.999Z</time></trkpt><trkpt lat="44.56827866258557" lon="9.333636061679439"><ele>1153.0</ele><time>2026-04-19T14:10:25.999Z</time></trkpt><trkpt lat="44.56833913154762" lon="9.333703506644522"><ele>1156.0</ele><time>2026-04-19T14:10:26.999Z</time></trkpt><trkpt lat="44.56838776970043" lon="9.333765156082178"><ele>1156.0</ele><time>2026-04-19T14:10:27.999Z</time></trkpt><trkpt lat="44.568431438701076" lon="9.333831803560685"><ele>1156.0</ele><time>2026-04-19T14:10:28.999Z</time></trkpt><trkpt lat="44.568471666902326" lon="9.33390906960754"><ele>1156.0</ele><time>2026-04-19T14:10:29.999Z</time></trkpt><trkpt lat="44.56850134329085" lon="9.333992232604219"><ele>1156.0</ele><time>2026-04-19T14:10:30.999Z</time></trkpt><trkpt lat="44.56852169220762" lon="9.33408806339837"><ele>1156.0</ele><time>2026-04-19T14:10:31.999Z</time></trkpt><trkpt lat="44.56853440115979" lon="9.334197565921075"><ele>1156.0</ele><time>2026-04-19T14:10:32.999Z</time></trkpt><trkpt lat="44.56853783728395" lon="9.334308781198644"><ele>1156.0</ele><time>2026-04-19T14:10:33.999Z</time></trkpt><trkpt lat="44.568520428967446" lon="9.334423910377712"><ele>1156.2</ele><time>2026-04-19T14:10:34.999Z</time></trkpt><trkpt lat="44.5684831750546" lon="9.334528847335864"><ele>1156.3999999999999</ele><time>2026-04-19T14:10:35.999Z</time></trkpt><trkpt lat="44.56843958590514" lon="9.33464614877987"><ele>1156.6</ele><time>2026-04-19T14:10:36.999Z</time></trkpt><trkpt lat="44.56841132008538" lon="9.3347747070839"><ele>1156.8</ele><time>2026-04-19T14:10:37.999Z</time></trkpt><trkpt lat="44.56838404038156" lon="9.334901779355167"><ele>1157.0</ele><time>2026-04-19T14:10:38.999Z</time></trkpt><trkpt lat="44.568363126440666" lon="9.335037103538385"><ele>1157.0</ele><time>2026-04-19T14:10:39.999Z</time></trkpt><trkpt lat="44.56835161064287" lon="9.335152527230562"><ele>1157.0</ele><time>2026-04-19T14:10:40.999Z</time></trkpt><trkpt lat="44.568337127191114" lon="9.33526652798099"><ele>1157.0</ele><time>2026-04-19T14:10:41.999Z</time></trkpt><trkpt lat="44.56830509443528" lon="9.335382314067742"><ele>1157.0</ele><time>2026-04-19T14:10:42.999Z</time></trkpt><trkpt lat="44.56826517869237" lon="9.335509388790163"><ele>1157.0</ele><time>2026-04-19T14:10:43.999Z</time></trkpt><trkpt lat="44.568230556916916" lon="9.335642515631193"><ele>1158.6666666666667</ele><time>2026-04-19T14:10:44.999Z</time></trkpt><trkpt lat="44.56820794987076" lon="9.335751911212048"><ele>1160.3333333333335</ele><time>2026-04-19T14:10:45.999Z</time></trkpt><trkpt lat="44.56818799372929" lon="9.335846131070534"><ele>1162.0</ele><time>2026-04-19T14:10:46.999Z</time></trkpt><trkpt lat="44.568147946766906" lon="9.335939579285473"><ele>1163.6666666666667</ele><time>2026-04-19T14:10:47.999Z</time></trkpt><trkpt lat="44.568103817938834" lon="9.336023603657535"><ele>1165.3333333333333</ele><time>2026-04-19T14:10:48.999Z</time></trkpt><trkpt lat="44.56805595347723" lon="9.336110077940198"><ele>1167.0</ele><time>2026-04-19T14:10:49.999Z</time></trkpt><trkpt lat="44.56801979102766" lon="9.336213986029158"><ele>1167.0</ele><time>2026-04-19T14:10:50.999Z</time></trkpt><trkpt lat="44.56798851864798" lon="9.336332934701835"><ele>1167.0</ele><time>2026-04-19T14:10:51.999Z</time></trkpt><trkpt lat="44.56796510247902" lon="9.3364557550159"><ele>1167.0</ele><time>2026-04-19T14:10:52.999Z</time></trkpt><trkpt lat="44.56794967713905" lon="9.336583302169787"><ele>1167.0</ele><time>2026-04-19T14:10:53.999Z</time></trkpt><trkpt lat="44.56794306008536" lon="9.336721243532217"><ele>1167.0</ele><time>2026-04-19T14:10:54.999Z</time></trkpt><trkpt lat="44.56793966810133" lon="9.336875488612653"><ele>1168.8</ele><time>2026-04-19T14:10:55.999Z</time></trkpt><trkpt lat="44.567935912436184" lon="9.337037289519529"><ele>1170.6</ele><time>2026-04-19T14:10:56.999Z</time></trkpt><trkpt lat="44.567933722654416" lon="9.337174874748477"><ele>1172.3999999999999</ele><time>2026-04-19T14:10:57.999Z</time></trkpt><trkpt lat="44.56792845910314" lon="9.337294028058526"><ele>1174.2</ele><time>2026-04-19T14:10:58.999Z</time></trkpt><trkpt lat="44.56792659347348" lon="9.337421855261585"><ele>1176.0</ele><time>2026-04-19T14:10:59.999Z</time></trkpt><trkpt lat="44.56792719317734" lon="9.337565173492317"><ele>1176.2</ele><time>2026-04-19T14:11:00.999Z</time></trkpt><trkpt lat="44.56793108466367" lon="9.337713409683788"><ele>1176.3999999999999</ele><time>2026-04-19T14:11:01.999Z</time></trkpt><trkpt lat="44.567923573308086" lon="9.33784032984255"><ele>1176.6</ele><time>2026-04-19T14:11:02.999Z</time></trkpt><trkpt lat="44.56793603654906" lon="9.337958282022266"><ele>1176.8</ele><time>2026-04-19T14:11:03.999Z</time></trkpt><trkpt lat="44.56795802873286" lon="9.338079982716705"><ele>1177.0</ele><time>2026-04-19T14:11:04.999Z</time></trkpt><trkpt lat="44.567986613224036" lon="9.338203758927932"><ele>1177.0</ele><time>2026-04-19T14:11:05.999Z</time></trkpt><trkpt lat="44.56801191005097" lon="9.338307194377174"><ele>1177.0</ele><time>2026-04-19T14:11:06.999Z</time></trkpt><trkpt lat="44.56804172804392" lon="9.338415335065914"><ele>1177.0</ele><time>2026-04-19T14:11:07.999Z</time></trkpt><trkpt lat="44.56806996307418" lon="9.338529689150816"><ele>1177.0</ele><time>2026-04-19T14:11:08.999Z</time></trkpt><trkpt lat="44.56809160974791" lon="9.338631750727524"><ele>1177.0</ele><time>2026-04-19T14:11:09.999Z</time></trkpt><trkpt lat="44.568119581330585" lon="9.338812793937182"><ele>1177.1666666666665</ele><time>2026-04-19T14:11:11.999Z</time></trkpt><trkpt lat="44.56811167082655" lon="9.338928274618414"><ele>1177.3333333333333</ele><time>2026-04-19T14:11:12.999Z</time></trkpt><trkpt lat="44.56809374095425" lon="9.339075943084751"><ele>1177.5</ele><time>2026-04-19T14:11:13.999Z</time></trkpt><trkpt lat="44.56808447672734" lon="9.339192468369639"><ele>1177.6666666666667</ele><time>2026-04-19T14:11:14.999Z</time></trkpt><trkpt lat="44.56806269245719" lon="9.33930300591811"><ele>1177.8333333333335</ele><time>2026-04-19T14:11:15.999Z</time></trkpt><trkpt lat="44.568019679824985" lon="9.33941230010135"><ele>1178.0</ele><time>2026-04-19T14:11:16.999Z</time></trkpt><trkpt lat="44.56796675265782" lon="9.339517864941017"><ele>1178.0</ele><time>2026-04-19T14:11:17.999Z</time></trkpt><trkpt lat="44.56790881325453" lon="9.339640502133497"><ele>1178.0</ele><time>2026-04-19T14:11:19Z</time></trkpt><trkpt lat="44.567858094212184" lon="9.339772742407018"><ele>1178.0</ele><time>2026-04-19T14:11:20Z</time></trkpt><trkpt lat="44.567815378755164" lon="9.339895326908124"><ele>1178.0</ele><time>2026-04-19T14:11:21Z</time></trkpt><trkpt lat="44.56777151098774" lon="9.340003001057456"><ele>1178.0</ele><time>2026-04-19T14:11:22Z</time></trkpt><trkpt lat="44.56773441311405" lon="9.340112901051635"><ele>1179.6</ele><time>2026-04-19T14:11:23Z</time></trkpt><trkpt lat="44.5677050070649" lon="9.340233502327006"><ele>1181.1999999999998</ele><time>2026-04-19T14:11:24Z</time></trkpt><trkpt lat="44.56768938375928" lon="9.34033806470798"><ele>1182.8</ele><time>2026-04-19T14:11:25Z</time></trkpt><trkpt lat="44.56764844584138" lon="9.34046352425295"><ele>1184.3999999999999</ele><time>2026-04-19T14:11:27Z</time></trkpt><trkpt lat="44.5675450380009" lon="9.340536758987929"><ele>1186.0</ele><time>2026-04-19T14:11:29Z</time></trkpt><trkpt lat="44.56747406095778" lon="9.340574124705478"><ele>1189.6</ele><time>2026-04-19T14:11:30Z</time></trkpt><trkpt lat="44.567397804411044" lon="9.340631814710429"><ele>1193.1999999999998</ele><time>2026-04-19T14:11:31Z</time></trkpt><trkpt lat="44.56733093824523" lon="9.340696994588527"><ele>1196.8000000000002</ele><time>2026-04-19T14:11:32Z</time></trkpt><trkpt lat="44.56724635391837" lon="9.340798066316829"><ele>1200.4</ele><time>2026-04-19T14:11:34Z</time></trkpt><trkpt lat="44.56715203060998" lon="9.340837279234904"><ele>1204.0</ele><time>2026-04-19T14:11:36Z</time></trkpt><trkpt lat="44.567058748854954" lon="9.340861926266465"><ele>1204.0</ele><time>2026-04-19T14:11:38Z</time></trkpt><trkpt lat="44.56700967997468" lon="9.340923278603192"><ele>1204.0</ele><time>2026-04-19T14:11:40Z</time></trkpt><trkpt lat="44.56699275119028" lon="9.341025009183765"><ele>1204.0</ele><time>2026-04-19T14:12:14Z</time></trkpt><trkpt lat="44.5669847507071" lon="9.340930646941395"><ele>1204.0</ele><time>2026-04-19T14:15:54Z</time></trkpt><trkpt lat="44.566984879498335" lon="9.341023889618958"><ele>1204.0</ele><time>2026-04-19T14:19:39.999Z</time></trkpt><trkpt lat="44.567001698426644" lon="9.340930413156437"><ele>1204.0</ele><time>2026-04-19T14:37:55Z</time></trkpt><trkpt lat="44.5670822937227" lon="9.340863093647048"><ele>1204.0</ele><time>2026-04-19T14:38:09Z</time></trkpt><trkpt lat="44.56716122491705" lon="9.340837234220082"><ele>1204.0</ele><time>2026-04-19T14:38:11Z</time></trkpt><trkpt lat="44.56723586013122" lon="9.34083968801706"><ele>1204.0</ele><time>2026-04-19T14:38:13Z</time></trkpt><trkpt lat="44.567302286410815" lon="9.340781125567483"><ele>1204.0</ele><time>2026-04-19T14:38:15Z</time></trkpt><trkpt lat="44.56736929199478" lon="9.340678860862855"><ele>1204.0</ele><time>2026-04-19T14:38:17Z</time></trkpt><trkpt lat="44.56743941650909" lon="9.340606168112199"><ele>1204.0</ele><time>2026-04-19T14:38:19Z</time></trkpt><trkpt lat="44.567523264954886" lon="9.340537447634514"><ele>1204.0</ele><time>2026-04-19T14:38:21Z</time></trkpt><trkpt lat="44.56760190499969" lon="9.340497913812296"><ele>1201.0</ele><time>2026-04-19T14:38:23Z</time></trkpt><trkpt lat="44.56766032258102" lon="9.340449493578724"><ele>1198.0</ele><time>2026-04-19T14:38:25Z</time></trkpt><trkpt lat="44.56771484408533" lon="9.340333059330392"><ele>1195.0</ele><time>2026-04-19T14:38:27Z</time></trkpt><trkpt lat="44.5677343370556" lon="9.340165677277698"><ele>1192.0</ele><time>2026-04-19T14:38:29Z</time></trkpt><trkpt lat="44.56774937598832" lon="9.340077675385489"><ele>1189.0</ele><time>2026-04-19T14:38:30Z</time></trkpt><trkpt lat="44.56778139698103" lon="9.339990087728141"><ele>1186.0</ele><time>2026-04-19T14:38:31Z</time></trkpt><trkpt lat="44.56782506413698" lon="9.339909071600397"><ele>1186.142857142857</ele><time>2026-04-19T14:38:32Z</time></trkpt><trkpt lat="44.56786340761881" lon="9.339813505443638"><ele>1186.2857142857142</ele><time>2026-04-19T14:38:33Z</time></trkpt><trkpt lat="44.567895726379774" lon="9.339720804452268"><ele>1186.4285714285716</ele><time>2026-04-19T14:38:34Z</time></trkpt><trkpt lat="44.567921643863784" lon="9.339640265565828"><ele>1186.5714285714284</ele><time>2026-04-19T14:38:35Z</time></trkpt><trkpt lat="44.56795541711128" lon="9.339559204719848"><ele>1186.7142857142858</ele><time>2026-04-19T14:38:35.999Z</time></trkpt><trkpt lat="44.56798837198211" lon="9.339481346202305"><ele>1186.857142857143</ele><time>2026-04-19T14:38:36.999Z</time></trkpt><trkpt lat="44.56803266429107" lon="9.33939130879328"><ele>1187.0</ele><time>2026-04-19T14:38:37.999Z</time></trkpt><trkpt lat="44.56807024483249" lon="9.33929029308758"><ele>1185.5</ele><time>2026-04-19T14:38:38.999Z</time></trkpt><trkpt lat="44.56809968181237" lon="9.339175220560586"><ele>1184.0</ele><time>2026-04-19T14:38:39.999Z</time></trkpt><trkpt lat="44.56811294325286" lon="9.339059474834333"><ele>1182.5</ele><time>2026-04-19T14:38:40.999Z</time></trkpt><trkpt lat="44.56812148597521" lon="9.33894289196487"><ele>1181.0</ele><time>2026-04-19T14:38:41.999Z</time></trkpt><trkpt lat="44.568129989325726" lon="9.338835364543465"><ele>1179.5</ele><time>2026-04-19T14:38:42.999Z</time></trkpt><trkpt lat="44.568131494367265" lon="9.338743152648886"><ele>1178.0</ele><time>2026-04-19T14:38:43.999Z</time></trkpt><trkpt lat="44.568102021362975" lon="9.338597550889851"><ele>1178.0</ele><time>2026-04-19T14:38:45.999Z</time></trkpt><trkpt lat="44.56806033962643" lon="9.33845911919601"><ele>1178.0</ele><time>2026-04-19T14:38:47.999Z</time></trkpt><trkpt lat="44.56801961221267" lon="9.338308518729685"><ele>1178.0</ele><time>2026-04-19T14:38:49.999Z</time></trkpt><trkpt lat="44.56799289006966" lon="9.338223753040939"><ele>1178.0</ele><time>2026-04-19T14:38:50.999Z</time></trkpt><trkpt lat="44.567967988086885" lon="9.338136600042205"><ele>1178.0</ele><time>2026-04-19T14:38:51.999Z</time></trkpt><trkpt lat="44.56795021702687" lon="9.338044191341467"><ele>1178.0</ele><time>2026-04-19T14:38:52.999Z</time></trkpt><trkpt lat="44.56793880110416" lon="9.337948833556972"><ele>1178.0</ele><time>2026-04-19T14:38:53.999Z</time></trkpt><trkpt lat="44.567929073304555" lon="9.337857807923708"><ele>1178.0</ele><time>2026-04-19T14:38:54.999Z</time></trkpt><trkpt lat="44.567933380817024" lon="9.337765940792504"><ele>1178.0</ele><time>2026-04-19T14:38:55.999Z</time></trkpt><trkpt lat="44.567944013157096" lon="9.33766189233521"><ele>1178.0</ele><time>2026-04-19T14:38:56.999Z</time></trkpt><trkpt lat="44.56794055372933" lon="9.337559569915417"><ele>1178.0</ele><time>2026-04-19T14:38:57.999Z</time></trkpt><trkpt lat="44.56793587588814" lon="9.337445475584413"><ele>1178.0</ele><time>2026-04-19T14:38:58.999Z</time></trkpt><trkpt lat="44.567941140733694" lon="9.337345256583948"><ele>1178.0</ele><time>2026-04-19T14:38:59.999Z</time></trkpt><trkpt lat="44.5679469209889" lon="9.337241067504154"><ele>1177.7142857142858</ele><time>2026-04-19T14:39:00.999Z</time></trkpt><trkpt lat="44.567946473684074" lon="9.337144605290774"><ele>1177.4285714285713</ele><time>2026-04-19T14:39:01.999Z</time></trkpt><trkpt lat="44.567946250112996" lon="9.337049736224762"><ele>1177.142857142857</ele><time>2026-04-19T14:39:02.999Z</time></trkpt><trkpt lat="44.56795509789719" lon="9.336960308834607"><ele>1176.857142857143</ele><time>2026-04-19T14:39:03.999Z</time></trkpt><trkpt lat="44.56795816269791" lon="9.336859319651811"><ele>1176.5714285714284</ele><time>2026-04-19T14:39:04.999Z</time></trkpt><trkpt lat="44.56795914431286" lon="9.336741308789183"><ele>1176.2857142857142</ele><time>2026-04-19T14:39:05.999Z</time></trkpt><trkpt lat="44.56796442901713" lon="9.336618137567058"><ele>1176.0</ele><time>2026-04-19T14:39:06.999Z</time></trkpt><trkpt lat="44.567973846511215" lon="9.336512850821443"><ele>1176.0</ele><time>2026-04-19T14:39:07.999Z</time></trkpt><trkpt lat="44.56799007267983" lon="9.336419864554966"><ele>1176.0</ele><time>2026-04-19T14:39:08.999Z</time></trkpt><trkpt lat="44.568010814711485" lon="9.33633332901238"><ele>1176.0</ele><time>2026-04-19T14:39:09.999Z</time></trkpt><trkpt lat="44.56805175673881" lon="9.336181582089617"><ele>1176.0</ele><time>2026-04-19T14:39:12Z</time></trkpt><trkpt lat="44.56811307374218" lon="9.336033327139738"><ele>1176.0</ele><time>2026-04-19T14:39:14Z</time></trkpt><trkpt lat="44.56815011023864" lon="9.33596183887008"><ele>1176.0</ele><time>2026-04-19T14:39:15Z</time></trkpt><trkpt lat="44.568216406613715" lon="9.335827036805737"><ele>1174.5</ele><time>2026-04-19T14:39:17Z</time></trkpt><trkpt lat="44.56824104944917" lon="9.335667895523265"><ele>1173.0</ele><time>2026-04-19T14:39:19Z</time></trkpt><trkpt lat="44.56825223010097" lon="9.335572870344755"><ele>1171.5</ele><time>2026-04-19T14:39:20Z</time></trkpt><trkpt lat="44.56828039951288" lon="9.335477617776956"><ele>1170.0</ele><time>2026-04-19T14:39:21Z</time></trkpt><trkpt lat="44.56831244109257" lon="9.335381481173087"><ele>1168.5</ele><time>2026-04-19T14:39:22Z</time></trkpt><trkpt lat="44.56833326089948" lon="9.335292564245629"><ele>1167.0</ele><time>2026-04-19T14:39:23Z</time></trkpt><trkpt lat="44.56837053016637" lon="9.335126279818192"><ele>1165.5714285714287</ele><time>2026-04-19T14:39:25Z</time></trkpt><trkpt lat="44.56837822561655" lon="9.335024000307108"><ele>1164.1428571428573</ele><time>2026-04-19T14:39:26Z</time></trkpt><trkpt lat="44.56839476488823" lon="9.334913214929534"><ele>1162.7142857142858</ele><time>2026-04-19T14:39:27Z</time></trkpt><trkpt lat="44.56841856141901" lon="9.334804386617545"><ele>1161.2857142857142</ele><time>2026-04-19T14:39:28Z</time></trkpt><trkpt lat="44.568441382474255" lon="9.33469985877557"><ele>1159.8571428571427</ele><time>2026-04-19T14:39:29Z</time></trkpt><trkpt lat="44.56846898585194" lon="9.334612380153676"><ele>1158.4285714285713</ele><time>2026-04-19T14:39:30Z</time></trkpt><trkpt lat="44.568496582451615" lon="9.334526658959184"><ele>1157.0</ele><time>2026-04-19T14:39:31Z</time></trkpt><trkpt lat="44.568529489112244" lon="9.334423313465983"><ele>1156.857142857143</ele><time>2026-04-19T14:39:32Z</time></trkpt><trkpt lat="44.568550825569574" lon="9.334317022130564"><ele>1156.7142857142856</ele><time>2026-04-19T14:39:33Z</time></trkpt><trkpt lat="44.568551511671956" lon="9.334212312828289"><ele>1156.5714285714284</ele><time>2026-04-19T14:39:34Z</time></trkpt><trkpt lat="44.56854284808299" lon="9.334119697626877"><ele>1156.4285714285713</ele><time>2026-04-19T14:39:35Z</time></trkpt><trkpt lat="44.56852520237777" lon="9.33401742511665"><ele>1156.2857142857142</ele><time>2026-04-19T14:39:36Z</time></trkpt><trkpt lat="44.56850103248203" lon="9.333918512052561"><ele>1156.142857142857</ele><time>2026-04-19T14:39:37Z</time></trkpt><trkpt lat="44.56846309144036" lon="9.333846355279503"><ele>1156.0</ele><time>2026-04-19T14:39:38Z</time></trkpt><trkpt lat="44.56841623348312" lon="9.33378183152515"><ele>1156.0</ele><time>2026-04-19T14:39:39Z</time></trkpt><trkpt lat="44.56836285416388" lon="9.333714252753964"><ele>1156.0</ele><time>2026-04-19T14:39:40Z</time></trkpt><trkpt lat="44.56829881732017" lon="9.333643627854972"><ele>1156.0</ele><time>2026-04-19T14:39:41Z</time></trkpt><trkpt lat="44.56823474297791" lon="9.3335827006756"><ele>1156.0</ele><time>2026-04-19T14:39:42Z</time></trkpt><trkpt lat="44.5681819633891" lon="9.333532417971979"><ele>1156.0</ele><time>2026-04-19T14:39:43Z</time></trkpt><trkpt lat="44.56809822628372" lon="9.333442280707649"><ele>1156.0</ele><time>2026-04-19T14:39:45Z</time></trkpt><trkpt lat="44.56799241618301" lon="9.333370577109783"><ele>1156.0</ele><time>2026-04-19T14:39:47Z</time></trkpt><trkpt lat="44.567924352176" lon="9.33333822637831"><ele>1156.0</ele><time>2026-04-19T14:39:48Z</time></trkpt><trkpt lat="44.56785481483889" lon="9.33329373734157"><ele>1156.0</ele><time>2026-04-19T14:39:49Z</time></trkpt><trkpt lat="44.56779565669815" lon="9.333257753188986"><ele>1156.0</ele><time>2026-04-19T14:39:50Z</time></trkpt><trkpt lat="44.56769096568948" lon="9.333178139795375"><ele>1156.0</ele><time>2026-04-19T14:39:52Z</time></trkpt><trkpt lat="44.56761318176405" lon="9.333084644670624"><ele>1156.0</ele><time>2026-04-19T14:39:54Z</time></trkpt><trkpt lat="44.56758864301828" lon="9.33295780795756"><ele>1155.0</ele><time>2026-04-19T14:39:56Z</time></trkpt><trkpt lat="44.56763228782724" lon="9.332824276767026"><ele>1154.0</ele><time>2026-04-19T14:39:58Z</time></trkpt><trkpt lat="44.56771944474965" lon="9.332688416361403"><ele>1153.0</ele><time>2026-04-19T14:40:00Z</time></trkpt><trkpt lat="44.56780660598424" lon="9.332560574579533"><ele>1152.0</ele><time>2026-04-19T14:40:02Z</time></trkpt><trkpt lat="44.56790589233871" lon="9.332465993234463"><ele>1152.0</ele><time>2026-04-19T14:40:04Z</time></trkpt><trkpt lat="44.567965596512884" lon="9.332420380293287"><ele>1152.0</ele><time>2026-04-19T14:40:05Z</time></trkpt><trkpt lat="44.56803033901269" lon="9.332373394787746"><ele>1152.0</ele><time>2026-04-19T14:40:06Z</time></trkpt><trkpt lat="44.56808491089292" lon="9.332324078543365"><ele>1152.0</ele><time>2026-04-19T14:40:07Z</time></trkpt><trkpt lat="44.56818753967029" lon="9.332222552224168"><ele>1152.0</ele><time>2026-04-19T14:40:09Z</time></trkpt><trkpt lat="44.568243461193155" lon="9.332155771879174"><ele>1152.0</ele><time>2026-04-19T14:40:10Z</time></trkpt><trkpt lat="44.568293115197875" lon="9.332088096948402"><ele>1150.2</ele><time>2026-04-19T14:40:11Z</time></trkpt><trkpt lat="44.56837655168426" lon="9.331968052473625"><ele>1148.4</ele><time>2026-04-19T14:40:13Z</time></trkpt><trkpt lat="44.56846023696932" lon="9.33183249357572"><ele>1146.6</ele><time>2026-04-19T14:40:15Z</time></trkpt><trkpt lat="44.56850054502519" lon="9.331755454075864"><ele>1144.8</ele><time>2026-04-19T14:40:16Z</time></trkpt><trkpt lat="44.56854791240791" lon="9.331672693641561"><ele>1143.0</ele><time>2026-04-19T14:40:17Z</time></trkpt><trkpt lat="44.56861034930513" lon="9.331598692390399"><ele>1143.0</ele><time>2026-04-19T14:40:18Z</time></trkpt><trkpt lat="44.56868404143382" lon="9.331554295504546"><ele>1143.0</ele><time>2026-04-19T14:40:19Z</time></trkpt><trkpt lat="44.56875469718064" lon="9.331503743659773"><ele>1143.0</ele><time>2026-04-19T14:40:20Z</time></trkpt><trkpt lat="44.568820406294606" lon="9.331462028280878"><ele>1143.0</ele><time>2026-04-19T14:40:21Z</time></trkpt><trkpt lat="44.568883513104886" lon="9.331431872365187"><ele>1143.0</ele><time>2026-04-19T14:40:22Z</time></trkpt><trkpt lat="44.56895229181963" lon="9.331397017623274"><ele>1143.0</ele><time>2026-04-19T14:40:23Z</time></trkpt><trkpt lat="44.56903561402933" lon="9.331368723684278"><ele>1142.0</ele><time>2026-04-19T14:40:24Z</time></trkpt><trkpt lat="44.56910851677769" lon="9.331341922597582"><ele>1141.0</ele><time>2026-04-19T14:40:25Z</time></trkpt><trkpt lat="44.56917019536522" lon="9.331313640871171"><ele>1140.0</ele><time>2026-04-19T14:40:26Z</time></trkpt><trkpt lat="44.569270188721525" lon="9.33121732548867"><ele>1139.0</ele><time>2026-04-19T14:40:27.999Z</time></trkpt><trkpt lat="44.5693202682336" lon="9.331067802298353"><ele>1138.0</ele><time>2026-04-19T14:40:29.999Z</time></trkpt><trkpt lat="44.56930249469794" lon="9.33089111547124"><ele>1138.0000000000002</ele><time>2026-04-19T14:40:31.999Z</time></trkpt><trkpt lat="44.569276654264264" lon="9.330808266907862"><ele>1138.0</ele><time>2026-04-19T14:40:32.999Z</time></trkpt><trkpt lat="44.56924102338133" lon="9.330725763526788"><ele>1138.0</ele><time>2026-04-19T14:40:33.999Z</time></trkpt><trkpt lat="44.56919830680911" lon="9.330653092352273"><ele>1138.0</ele><time>2026-04-19T14:40:34.999Z</time></trkpt><trkpt lat="44.569164692062046" lon="9.33057205612314"><ele>1138.0</ele><time>2026-04-19T14:40:35.999Z</time></trkpt><trkpt lat="44.56912344841157" lon="9.330484953322284"><ele>1138.0000000000002</ele><time>2026-04-19T14:40:36.999Z</time></trkpt><trkpt lat="44.5691073770527" lon="9.330387666241489"><ele>1138.0</ele><time>2026-04-19T14:40:37.999Z</time></trkpt><trkpt lat="44.5691089936133" lon="9.33028911189411"><ele>1138.1666666666665</ele><time>2026-04-19T14:40:38.999Z</time></trkpt><trkpt lat="44.569123958403374" lon="9.330173983666086"><ele>1138.3333333333333</ele><time>2026-04-19T14:40:39.999Z</time></trkpt><trkpt lat="44.56914261542641" lon="9.330071878454747"><ele>1138.5</ele><time>2026-04-19T14:40:40.999Z</time></trkpt><trkpt lat="44.56917353672649" lon="9.329974063568311"><ele>1138.6666666666667</ele><time>2026-04-19T14:40:41.999Z</time></trkpt><trkpt lat="44.56923290736833" lon="9.329890986549746"><ele>1138.8333333333335</ele><time>2026-04-19T14:40:42.999Z</time></trkpt><trkpt lat="44.56928625180003" lon="9.329799542445613"><ele>1139.0</ele><time>2026-04-19T14:40:43.999Z</time></trkpt><trkpt lat="44.56933747059358" lon="9.329694200096899"><ele>1139.142857142857</ele><time>2026-04-19T14:40:44.999Z</time></trkpt><trkpt lat="44.56938555557883" lon="9.329599318408752"><ele>1139.2857142857144</ele><time>2026-04-19T14:40:45.999Z</time></trkpt><trkpt lat="44.56943170799725" lon="9.329515764255708"><ele>1139.4285714285716</ele><time>2026-04-19T14:40:46.999Z</time></trkpt><trkpt lat="44.56947758214615" lon="9.32943236320721"><ele>1139.5714285714287</ele><time>2026-04-19T14:40:47.999Z</time></trkpt><trkpt lat="44.569518867404284" lon="9.329351114867636"><ele>1139.7142857142858</ele><time>2026-04-19T14:40:48.999Z</time></trkpt><trkpt lat="44.56954906634866" lon="9.32926042759431"><ele>1139.857142857143</ele><time>2026-04-19T14:40:49.999Z</time></trkpt><trkpt lat="44.56956049740691" lon="9.329164026080068"><ele>1140.0</ele><time>2026-04-19T14:40:50.999Z</time></trkpt><trkpt lat="44.569554256301046" lon="9.329060790744117"><ele>1140.0</ele><time>2026-04-19T14:40:51.999Z</time></trkpt><trkpt lat="44.569536374644656" lon="9.328936150614146"><ele>1140.0</ele><time>2026-04-19T14:40:52.999Z</time></trkpt><trkpt lat="44.56950621105869" lon="9.328838844551996"><ele>1140.0</ele><time>2026-04-19T14:40:53.999Z</time></trkpt><trkpt lat="44.56946907350818" lon="9.328733902104265"><ele>1140.0</ele><time>2026-04-19T14:40:54.999Z</time></trkpt><trkpt lat="44.56943083106448" lon="9.328629020027096"><ele>1140.0</ele><time>2026-04-19T14:40:55.999Z</time></trkpt><trkpt lat="44.56936809121006" lon="9.328513929450617"><ele>1140.0</ele><time>2026-04-19T14:40:56.999Z</time></trkpt><trkpt lat="44.56931141581905" lon="9.328405639002494"><ele>1140.0</ele><time>2026-04-19T14:40:57.999Z</time></trkpt><trkpt lat="44.56926748117741" lon="9.328304664011409"><ele>1140.0</ele><time>2026-04-19T14:40:58.999Z</time></trkpt><trkpt lat="44.569222129521435" lon="9.328202369687874"><ele>1140.0</ele><time>2026-04-19T14:40:59.999Z</time></trkpt><trkpt lat="44.56916823272437" lon="9.328083796795617"><ele>1140.0</ele><time>2026-04-19T14:41:00.999Z</time></trkpt><trkpt lat="44.5691227370379" lon="9.327984595825189"><ele>1140.0</ele><time>2026-04-19T14:41:01.999Z</time></trkpt><trkpt lat="44.569086594559224" lon="9.3278966974482"><ele>1140.0</ele><time>2026-04-19T14:41:02.999Z</time></trkpt><trkpt lat="44.56904948349793" lon="9.327796871975645"><ele>1140.0</ele><time>2026-04-19T14:41:03.999Z</time></trkpt><trkpt lat="44.569024122150594" lon="9.327690232039457"><ele>1140.0</ele><time>2026-04-19T14:41:04.999Z</time></trkpt><trkpt lat="44.569017748936126" lon="9.327583254366743"><ele>1140.0</ele><time>2026-04-19T14:41:05.999Z</time></trkpt><trkpt lat="44.569015762392134" lon="9.327481870320375"><ele>1140.0</ele><time>2026-04-19T14:41:06.999Z</time></trkpt><trkpt lat="44.56902196315383" lon="9.32738605277455"><ele>1140.0</ele><time>2026-04-19T14:41:07.999Z</time></trkpt><trkpt lat="44.56903399338844" lon="9.327273793031285"><ele>1140.0</ele><time>2026-04-19T14:41:08.999Z</time></trkpt><trkpt lat="44.5690646492592" lon="9.327163011981568"><ele>1140.142857142857</ele><time>2026-04-19T14:41:09.999Z</time></trkpt><trkpt lat="44.569080778742745" lon="9.327054870724885"><ele>1140.2857142857142</ele><time>2026-04-19T14:41:10.999Z</time></trkpt><trkpt lat="44.56909683598216" lon="9.326955597851196"><ele>1140.4285714285716</ele><time>2026-04-19T14:41:11.999Z</time></trkpt><trkpt lat="44.569109110062" lon="9.326853008809886"><ele>1140.5714285714284</ele><time>2026-04-19T14:41:12.999Z</time></trkpt><trkpt lat="44.569125631868445" lon="9.326737761587438"><ele>1140.7142857142858</ele><time>2026-04-19T14:41:13.999Z</time></trkpt><trkpt lat="44.56914064253974" lon="9.32664054804606"><ele>1140.857142857143</ele><time>2026-04-19T14:41:14.999Z</time></trkpt><trkpt lat="44.569152125894966" lon="9.326547565265557"><ele>1141.0</ele><time>2026-04-19T14:41:15.999Z</time></trkpt><trkpt lat="44.569156627406045" lon="9.326443299322792"><ele>1141.0</ele><time>2026-04-19T14:41:16.999Z</time></trkpt><trkpt lat="44.56915406137015" lon="9.326331465632903"><ele>1141.0</ele><time>2026-04-19T14:41:17.999Z</time></trkpt><trkpt lat="44.56914011523566" lon="9.326222685427638"><ele>1141.0</ele><time>2026-04-19T14:41:18.999Z</time></trkpt><trkpt lat="44.56911418978874" lon="9.326125684780058"><ele>1141.0</ele><time>2026-04-19T14:41:19.999Z</time></trkpt><trkpt lat="44.569103958204316" lon="9.326016127791998"><ele>1141.0</ele><time>2026-04-19T14:41:20.999Z</time></trkpt><trkpt lat="44.56903406556024" lon="9.325899029926513"><ele>1141.0</ele><time>2026-04-19T14:41:22.999Z</time></trkpt><trkpt lat="44.568986334694934" lon="9.325838024375873"><ele>1141.0</ele><time>2026-04-19T14:41:23.999Z</time></trkpt><trkpt lat="44.56892834167732" lon="9.325796204695592"><ele>1141.0</ele><time>2026-04-19T14:41:24.999Z</time></trkpt><trkpt lat="44.56884969558881" lon="9.325793962172712"><ele>1141.0</ele><time>2026-04-19T14:41:25.999Z</time></trkpt><trkpt lat="44.568778590032295" lon="9.325853789591312"><ele>1141.0</ele><time>2026-04-19T14:41:26.999Z</time></trkpt><trkpt lat="44.568720979991824" lon="9.325901554983089"><ele>1141.0</ele><time>2026-04-19T14:41:27.999Z</time></trkpt><trkpt lat="44.56860691421505" lon="9.325910141387249"><ele>1141.0</ele><time>2026-04-19T14:41:29.999Z</time></trkpt><trkpt lat="44.56848362036492" lon="9.32589156727485"><ele>1139.8</ele><time>2026-04-19T14:41:31.999Z</time></trkpt><trkpt lat="44.56836289222302" lon="9.325905017785566"><ele>1138.6</ele><time>2026-04-19T14:41:33.999Z</time></trkpt><trkpt lat="44.568258394174386" lon="9.325924774977844"><ele>1137.4</ele><time>2026-04-19T14:41:35.999Z</time></trkpt><trkpt lat="44.568161859430795" lon="9.325896470548233"><ele>1136.2</ele><time>2026-04-19T14:41:37.999Z</time></trkpt><trkpt lat="44.568072634042956" lon="9.32579560636329"><ele>1135.0</ele><time>2026-04-19T14:41:39.999Z</time></trkpt><trkpt lat="44.5680143036657" lon="9.325669956648746"><ele>1135.0</ele><time>2026-04-19T14:41:42Z</time></trkpt><trkpt lat="44.567936387748006" lon="9.325580716315308"><ele>1135.0</ele><time>2026-04-19T14:41:44Z</time></trkpt><trkpt lat="44.56787113027906" lon="9.325461272958714"><ele>1135.0</ele><time>2026-04-19T14:41:46Z</time></trkpt><trkpt lat="44.56782104884382" lon="9.325323937293534"><ele>1135.0</ele><time>2026-04-19T14:41:48Z</time></trkpt><trkpt lat="44.567767298153385" lon="9.325204218096314"><ele>1135.0</ele><time>2026-04-19T14:41:50Z</time></trkpt><trkpt lat="44.567743546602486" lon="9.32505532906161"><ele>1132.1666666666665</ele><time>2026-04-19T14:41:52Z</time></trkpt><trkpt lat="44.56773630694491" lon="9.324963780523989"><ele>1129.3333333333333</ele><time>2026-04-19T14:41:53Z</time></trkpt><trkpt lat="44.5677673661845" lon="9.32486764471829"><ele>1126.5</ele><time>2026-04-19T14:41:54Z</time></trkpt><trkpt lat="44.56774367992511" lon="9.324700118485584"><ele>1123.6666666666667</ele><time>2026-04-19T14:41:56Z</time></trkpt><trkpt lat="44.567697989559015" lon="9.324631618561394"><ele>1120.8333333333335</ele><time>2026-04-19T14:41:57Z</time></trkpt><trkpt lat="44.56765649682796" lon="9.324485325337939"><ele>1118.0</ele><time>2026-04-19T14:41:59Z</time></trkpt><trkpt lat="44.56764218084545" lon="9.324392859758337"><ele>1117.8</ele><time>2026-04-19T14:42:00Z</time></trkpt><trkpt lat="44.56765550906546" lon="9.324305465548546"><ele>1117.6</ele><time>2026-04-19T14:42:01Z</time></trkpt><trkpt lat="44.567699083460234" lon="9.324143343607064"><ele>1117.4</ele><time>2026-04-19T14:42:03Z</time></trkpt><trkpt lat="44.56771749824732" lon="9.323988559561839"><ele>1117.2</ele><time>2026-04-19T14:42:05Z</time></trkpt><trkpt lat="44.56769786307268" lon="9.323813988917163"><ele>1117.0</ele><time>2026-04-19T14:42:07Z</time></trkpt><trkpt lat="44.567668794803055" lon="9.323716103881429"><ele>1117.0</ele><time>2026-04-19T14:42:07.999Z</time></trkpt><trkpt lat="44.5676374522322" lon="9.323613667843032"><ele>1117.0</ele><time>2026-04-19T14:42:08.999Z</time></trkpt><trkpt lat="44.567634655337265" lon="9.323504676699995"><ele>1117.0</ele><time>2026-04-19T14:42:09.999Z</time></trkpt><trkpt lat="44.56764970374138" lon="9.323404712765537"><ele>1117.0</ele><time>2026-04-19T14:42:10.999Z</time></trkpt><trkpt lat="44.56769520511151" lon="9.32332073167278"><ele>1117.0</ele><time>2026-04-19T14:42:11.999Z</time></trkpt><trkpt lat="44.56774450988364" lon="9.323221744411397"><ele>1117.0</ele><time>2026-04-19T14:42:12.999Z</time></trkpt><trkpt lat="44.567781335500314" lon="9.323108859292073"><ele>1117.0</ele><time>2026-04-19T14:42:13.999Z</time></trkpt><trkpt lat="44.567789465969256" lon="9.3229758101387"><ele>1117.0</ele><time>2026-04-19T14:42:14.999Z</time></trkpt><trkpt lat="44.56779164217426" lon="9.32286168324621"><ele>1117.0</ele><time>2026-04-19T14:42:15.999Z</time></trkpt><trkpt lat="44.56778533672472" lon="9.322752822839961"><ele>1117.0</ele><time>2026-04-19T14:42:16.999Z</time></trkpt><trkpt lat="44.56777021186735" lon="9.322660177056788"><ele>1117.0</ele><time>2026-04-19T14:42:17.999Z</time></trkpt><trkpt lat="44.5677597536146" lon="9.322571076724678"><ele>1117.0</ele><time>2026-04-19T14:42:18.999Z</time></trkpt><trkpt lat="44.567733434209345" lon="9.322480208998169"><ele>1117.0</ele><time>2026-04-19T14:42:19.999Z</time></trkpt><trkpt lat="44.56771480236867" lon="9.32238168571484"><ele>1117.0</ele><time>2026-04-19T14:42:20.999Z</time></trkpt><trkpt lat="44.567649316780354" lon="9.322293051753013"><ele>1117.0</ele><time>2026-04-19T14:42:21.999Z</time></trkpt><trkpt lat="44.56756550476285" lon="9.32222976278215"><ele>1117.0</ele><time>2026-04-19T14:42:22.999Z</time></trkpt><trkpt lat="44.567485745650835" lon="9.322096667358752"><ele>1117.0</ele><time>2026-04-19T14:42:24.999Z</time></trkpt><trkpt lat="44.56746667625469" lon="9.322007964281672"><ele>1117.0</ele><time>2026-04-19T14:42:25.999Z</time></trkpt><trkpt lat="44.56744456163162" lon="9.321902836874683"><ele>1116.8333333333333</ele><time>2026-04-19T14:42:26.999Z</time></trkpt><trkpt lat="44.567433234699344" lon="9.321779946374283"><ele>1116.6666666666665</ele><time>2026-04-19T14:42:27.999Z</time></trkpt><trkpt lat="44.56740951199582" lon="9.321661073463721"><ele>1116.5</ele><time>2026-04-19T14:42:28.999Z</time></trkpt><trkpt lat="44.5674086793065" lon="9.321528317971788"><ele>1116.3333333333333</ele><time>2026-04-19T14:42:29.999Z</time></trkpt><trkpt lat="44.56738295017306" lon="9.321410607544935"><ele>1116.1666666666667</ele><time>2026-04-19T14:42:30.999Z</time></trkpt><trkpt lat="44.567372363301516" lon="9.321312442822261"><ele>1116.0</ele><time>2026-04-19T14:42:31.999Z</time></trkpt><trkpt lat="44.56739109345808" lon="9.321149166094628"><ele>1116.0</ele><time>2026-04-19T14:42:33.999Z</time></trkpt><trkpt lat="44.56738881144338" lon="9.32104812490011"><ele>1116.0</ele><time>2026-04-19T14:42:34.999Z</time></trkpt><trkpt lat="44.567418517654396" lon="9.320941178004874"><ele>1116.0</ele><time>2026-04-19T14:42:35.999Z</time></trkpt><trkpt lat="44.56745797007195" lon="9.320843904169415"><ele>1116.0</ele><time>2026-04-19T14:42:36.999Z</time></trkpt><trkpt lat="44.56748813128667" lon="9.320734742821113"><ele>1116.0</ele><time>2026-04-19T14:42:37.999Z</time></trkpt><trkpt lat="44.56753190322152" lon="9.320629961292589"><ele>1116.0</ele><time>2026-04-19T14:42:38.999Z</time></trkpt><trkpt lat="44.56758623895768" lon="9.320520076111537"><ele>1116.3333333333333</ele><time>2026-04-19T14:42:39.999Z</time></trkpt><trkpt lat="44.567596595329775" lon="9.32041471503715"><ele>1116.6666666666667</ele><time>2026-04-19T14:42:40.999Z</time></trkpt><trkpt lat="44.56758916885426" lon="9.32031791763628"><ele>1117.0</ele><time>2026-04-19T14:42:41.999Z</time></trkpt><trkpt lat="44.56758090102678" lon="9.320222169062605"><ele>1117.3333333333335</ele><time>2026-04-19T14:42:42.999Z</time></trkpt><trkpt lat="44.5675505965053" lon="9.320125166667564"><ele>1117.6666666666667</ele><time>2026-04-19T14:42:43.999Z</time></trkpt><trkpt lat="44.56750799010945" lon="9.3200179069628"><ele>1118.0</ele><time>2026-04-19T14:42:44.999Z</time></trkpt><trkpt lat="44.56745841175546" lon="9.319904805520816"><ele>1118.0</ele><time>2026-04-19T14:42:45.999Z</time></trkpt><trkpt lat="44.56741434755865" lon="9.319819113725462"><ele>1118.0</ele><time>2026-04-19T14:42:46.999Z</time></trkpt><trkpt lat="44.56730836584344" lon="9.319751536619439"><ele>1118.0</ele><time>2026-04-19T14:42:48.999Z</time></trkpt><trkpt lat="44.56718963104198" lon="9.319706905233666"><ele>1118.0</ele><time>2026-04-19T14:42:50.999Z</time></trkpt><trkpt lat="44.567106979855716" lon="9.319634504448722"><ele>1118.0</ele><time>2026-04-19T14:42:52.999Z</time></trkpt><trkpt lat="44.56708380947013" lon="9.319474217265325"><ele>1117.857142857143</ele><time>2026-04-19T14:42:54.999Z</time></trkpt><trkpt lat="44.567075993811216" lon="9.319367841564059"><ele>1117.7142857142858</ele><time>2026-04-19T14:42:55.999Z</time></trkpt><trkpt lat="44.567081171746246" lon="9.319262456651465"><ele>1117.5714285714287</ele><time>2026-04-19T14:42:56.999Z</time></trkpt><trkpt lat="44.56709991141659" lon="9.319162709136561"><ele>1117.4285714285716</ele><time>2026-04-19T14:42:57.999Z</time></trkpt><trkpt lat="44.5671141817325" lon="9.319073103623893"><ele>1117.2857142857142</ele><time>2026-04-19T14:42:58.999Z</time></trkpt><trkpt lat="44.567139356526596" lon="9.318972916605366"><ele>1117.1428571428573</ele><time>2026-04-19T14:42:59.999Z</time></trkpt><trkpt lat="44.56716824238181" lon="9.31886422483928"><ele>1117.0</ele><time>2026-04-19T14:43:00.999Z</time></trkpt><trkpt lat="44.567222294738215" lon="9.318770867832603"><ele>1116.5</ele><time>2026-04-19T14:43:01.999Z</time></trkpt><trkpt lat="44.56725978872521" lon="9.318667754284768"><ele>1116.0</ele><time>2026-04-19T14:43:02.999Z</time></trkpt><trkpt lat="44.567288055445566" lon="9.318565371128228"><ele>1115.5</ele><time>2026-04-19T14:43:03.999Z</time></trkpt><trkpt lat="44.567306544735814" lon="9.318441798308902"><ele>1115.0</ele><time>2026-04-19T14:43:04.999Z</time></trkpt><trkpt lat="44.56731363488471" lon="9.318316935158377"><ele>1114.5</ele><time>2026-04-19T14:43:05.999Z</time></trkpt><trkpt lat="44.567315567055005" lon="9.318188562620938"><ele>1114.0</ele><time>2026-04-19T14:43:06.999Z</time></trkpt><trkpt lat="44.56731058501125" lon="9.318068837734966"><ele>1112.6666666666665</ele><time>2026-04-19T14:43:07.999Z</time></trkpt><trkpt lat="44.56730268930857" lon="9.31796166326816"><ele>1111.3333333333333</ele><time>2026-04-19T14:43:08.999Z</time></trkpt><trkpt lat="44.567292774176416" lon="9.317861417379602"><ele>1110.0</ele><time>2026-04-19T14:43:09.999Z</time></trkpt><trkpt lat="44.567282833036394" lon="9.317766190671282"><ele>1108.6666666666667</ele><time>2026-04-19T14:43:10.999Z</time></trkpt><trkpt lat="44.5672659527134" lon="9.317677090244185"><ele>1107.3333333333335</ele><time>2026-04-19T14:43:11.999Z</time></trkpt><trkpt lat="44.567230099037396" lon="9.317598675642536"><ele>1106.0</ele><time>2026-04-19T14:43:12.999Z</time></trkpt><trkpt lat="44.56717923586193" lon="9.317477433594675"><ele>1106.0</ele><time>2026-04-19T14:43:14.999Z</time></trkpt><trkpt lat="44.56712379345424" lon="9.317358942647157"><ele>1106.0</ele><time>2026-04-19T14:43:16.999Z</time></trkpt><trkpt lat="44.5670407287457" lon="9.31723365856561"><ele>1106.0</ele><time>2026-04-19T14:43:18.999Z</time></trkpt><trkpt lat="44.56698171691977" lon="9.31710758695728"><ele>1106.0</ele><time>2026-04-19T14:43:20.999Z</time></trkpt><trkpt lat="44.566978152035524" lon="9.31693789619957"><ele>1104.0</ele><time>2026-04-19T14:43:22.999Z</time></trkpt><trkpt lat="44.566994191242145" lon="9.316795529707722"><ele>1102.0</ele><time>2026-04-19T14:43:25Z</time></trkpt><trkpt lat="44.56691542860531" lon="9.316712425311936"><ele>1100.0</ele><time>2026-04-19T14:43:27Z</time></trkpt><trkpt lat="44.566847445298656" lon="9.316709259176946"><ele>1098.0</ele><time>2026-04-19T14:43:28Z</time></trkpt><trkpt lat="44.56678875630607" lon="9.316779373293489"><ele>1096.0</ele><time>2026-04-19T14:43:29Z</time></trkpt><trkpt lat="44.56676546656382" lon="9.316890063368895"><ele>1094.0</ele><time>2026-04-19T14:43:30Z</time></trkpt><trkpt lat="44.566720248921044" lon="9.316952648579756"><ele>1094.0</ele><time>2026-04-19T14:43:31Z</time></trkpt><trkpt lat="44.56661392246866" lon="9.317052039439119"><ele>1094.0</ele><time>2026-04-19T14:43:33Z</time></trkpt><trkpt lat="44.56653187544029" lon="9.317053815429881"><ele>1094.0</ele><time>2026-04-19T14:43:34Z</time></trkpt><trkpt lat="44.56646741946718" lon="9.31710025438119"><ele>1094.0</ele><time>2026-04-19T14:43:35Z</time></trkpt><trkpt lat="44.56638861137853" lon="9.317255323850565"><ele>1094.0</ele><time>2026-04-19T14:43:37Z</time></trkpt><trkpt lat="44.56640580069325" lon="9.317379517534395"><ele>1096.0</ele><time>2026-04-19T14:43:38Z</time></trkpt><trkpt lat="44.566415056105846" lon="9.317470163684412"><ele>1098.0</ele><time>2026-04-19T14:43:39Z</time></trkpt><trkpt lat="44.56641589565022" lon="9.317564239156178"><ele>1100.0</ele><time>2026-04-19T14:43:40Z</time></trkpt><trkpt lat="44.56640449799191" lon="9.317676044717699"><ele>1102.0</ele><time>2026-04-19T14:43:41Z</time></trkpt><trkpt lat="44.56637211182558" lon="9.317777328937478"><ele>1104.0</ele><time>2026-04-19T14:43:42Z</time></trkpt><trkpt lat="44.566366777774945" lon="9.317867108897632"><ele>1106.0</ele><time>2026-04-19T14:43:43Z</time></trkpt><trkpt lat="44.56631752736161" lon="9.318031383332265"><ele>1105.6</ele><time>2026-04-19T14:43:45Z</time></trkpt><trkpt lat="44.566297929077095" lon="9.318132894376594"><ele>1105.1999999999998</ele><time>2026-04-19T14:43:46Z</time></trkpt><trkpt lat="44.56626461419262" lon="9.318292850116137"><ele>1104.8000000000002</ele><time>2026-04-19T14:43:48Z</time></trkpt><trkpt lat="44.566240352748586" lon="9.31837517505076"><ele>1104.4</ele><time>2026-04-19T14:43:49Z</time></trkpt><trkpt lat="44.56617964989445" lon="9.318537995006"><ele>1104.0</ele><time>2026-04-19T14:43:51Z</time></trkpt><trkpt lat="44.5661124925869" lon="9.318603262216852"><ele>1100.8333333333333</ele><time>2026-04-19T14:43:52Z</time></trkpt><trkpt lat="44.56609022511347" lon="9.318703646749285"><ele>1097.6666666666667</ele><time>2026-04-19T14:43:53Z</time></trkpt><trkpt lat="44.56606932436075" lon="9.318870958476536"><ele>1094.5</ele><time>2026-04-19T14:43:55Z</time></trkpt><trkpt lat="44.566054113364366" lon="9.318960168216284"><ele>1091.3333333333335</ele><time>2026-04-19T14:43:56Z</time></trkpt><trkpt lat="44.56608625541038" lon="9.319053605762562"><ele>1088.1666666666667</ele><time>2026-04-19T14:43:57Z</time></trkpt><trkpt lat="44.56611653380619" lon="9.319160251318419"><ele>1085.0</ele><time>2026-04-19T14:43:59Z</time></trkpt><trkpt lat="44.566084121907004" lon="9.319243912793233"><ele>1085.0</ele><time>2026-04-19T14:44:02Z</time></trkpt><trkpt lat="44.56598266096793" lon="9.319206248566998"><ele>1085.0</ele><time>2026-04-19T14:44:04Z</time></trkpt><trkpt lat="44.565924763164446" lon="9.319168572338006"><ele>1085.0</ele><time>2026-04-19T14:44:05Z</time></trkpt><trkpt lat="44.56583565911579" lon="9.319056289585697"><ele>1085.0</ele><time>2026-04-19T14:44:07Z</time></trkpt><trkpt lat="44.565787023705596" lon="9.318929922782019"><ele>1085.0</ele><time>2026-04-19T14:44:09Z</time></trkpt><trkpt lat="44.565790119651" lon="9.318728043725004"><ele>1085.0</ele><time>2026-04-19T14:44:11Z</time></trkpt><trkpt lat="44.56583331658953" lon="9.318634020006131"><ele>1085.0</ele><time>2026-04-19T14:44:12Z</time></trkpt><trkpt lat="44.56587105926825" lon="9.318485131937319"><ele>1085.0</ele><time>2026-04-19T14:44:14Z</time></trkpt><trkpt lat="44.56591312959731" lon="9.31837942562247"><ele>1085.0</ele><time>2026-04-19T14:44:16Z</time></trkpt><trkpt lat="44.56589228508769" lon="9.318264131352596"><ele>1085.0</ele><time>2026-04-19T14:44:18Z</time></trkpt><trkpt lat="44.565822764772356" lon="9.318201042941183"><ele>1085.0</ele><time>2026-04-19T14:44:20Z</time></trkpt><trkpt lat="44.565707736474074" lon="9.318126307249399"><ele>1084.2</ele><time>2026-04-19T14:44:22Z</time></trkpt><trkpt lat="44.56566002161454" lon="9.318028726344115"><ele>1083.4</ele><time>2026-04-19T14:44:23Z</time></trkpt><trkpt lat="44.56562107556247" lon="9.317945436520592"><ele>1082.6</ele><time>2026-04-19T14:44:24Z</time></trkpt><trkpt lat="44.56560573574383" lon="9.31779968992145"><ele>1081.8</ele><time>2026-04-19T14:44:26Z</time></trkpt><trkpt lat="44.565669995535686" lon="9.317685122998498"><ele>1081.0</ele><time>2026-04-19T14:44:28Z</time></trkpt><trkpt lat="44.56578807874633" lon="9.317643410120787"><ele>1081.0</ele><time>2026-04-19T14:44:30Z</time></trkpt><trkpt lat="44.56587183015573" lon="9.317576608159692"><ele>1081.0</ele><time>2026-04-19T14:44:32Z</time></trkpt><trkpt lat="44.56593233599151" lon="9.317477990089941"><ele>1081.0</ele><time>2026-04-19T14:44:34Z</time></trkpt><trkpt lat="44.56593816377415" lon="9.317304624215968"><ele>1081.0</ele><time>2026-04-19T14:44:36Z</time></trkpt><trkpt lat="44.56591262257198" lon="9.317167117181299"><ele>1081.0</ele><time>2026-04-19T14:44:38Z</time></trkpt><trkpt lat="44.56585797589427" lon="9.317021381921426"><ele>1079.3999999999999</ele><time>2026-04-19T14:44:40Z</time></trkpt><trkpt lat="44.56583953607936" lon="9.31685409797606"><ele>1077.8</ele><time>2026-04-19T14:44:42Z</time></trkpt><trkpt lat="44.5657813678275" lon="9.316685018919229"><ele>1076.1999999999998</ele><time>2026-04-19T14:44:44Z</time></trkpt><trkpt lat="44.56576172329533" lon="9.31659303054404"><ele>1074.6</ele><time>2026-04-19T14:44:45Z</time></trkpt><trkpt lat="44.56575064200939" lon="9.316503915183285"><ele>1073.0</ele><time>2026-04-19T14:44:46Z</time></trkpt><trkpt lat="44.56575124803829" lon="9.316334131997777"><ele>1070.8333333333335</ele><time>2026-04-19T14:44:48Z</time></trkpt><trkpt lat="44.56578008379337" lon="9.316163532427224"><ele>1068.6666666666667</ele><time>2026-04-19T14:44:50Z</time></trkpt><trkpt lat="44.565796478594656" lon="9.316074715391336"><ele>1066.5</ele><time>2026-04-19T14:44:51Z</time></trkpt><trkpt lat="44.565805214697676" lon="9.315983752997772"><ele>1064.3333333333333</ele><time>2026-04-19T14:44:52Z</time></trkpt><trkpt lat="44.56583220205441" lon="9.315822960427601"><ele>1062.1666666666665</ele><time>2026-04-19T14:44:54Z</time></trkpt><trkpt lat="44.56585370985643" lon="9.315736684723745"><ele>1060.0</ele><time>2026-04-19T14:44:55Z</time></trkpt><trkpt lat="44.56589447213648" lon="9.315599029032539"><ele>1060.0</ele><time>2026-04-19T14:44:57Z</time></trkpt><trkpt lat="44.56594884351624" lon="9.31546709490525"><ele>1060.0</ele><time>2026-04-19T14:44:59Z</time></trkpt><trkpt lat="44.56603643431816" lon="9.315383534968756"><ele>1060.0</ele><time>2026-04-19T14:45:01Z</time></trkpt><trkpt lat="44.56613159723525" lon="9.31533461397202"><ele>1060.0</ele><time>2026-04-19T14:45:03Z</time></trkpt><trkpt lat="44.56623603972387" lon="9.31535409820963"><ele>1060.0</ele><time>2026-04-19T14:45:05Z</time></trkpt><trkpt lat="44.56630342518983" lon="9.315313747058768"><ele>1060.0</ele><time>2026-04-19T14:45:07Z</time></trkpt><trkpt lat="44.566364582838325" lon="9.31524569577129"><ele>1060.0</ele><time>2026-04-19T14:45:09Z</time></trkpt><trkpt lat="44.566371366943685" lon="9.315153687913623"><ele>1060.0</ele><time>2026-04-19T14:45:10Z</time></trkpt><trkpt lat="44.56635863458497" lon="9.314994622635634"><ele>1060.0</ele><time>2026-04-19T14:45:12Z</time></trkpt><trkpt lat="44.566361364202656" lon="9.314854763531867"><ele>1060.0</ele><time>2026-04-19T14:45:13.999Z</time></trkpt><trkpt lat="44.56640509077893" lon="9.314747125661228"><ele>1060.0</ele><time>2026-04-19T14:45:15.999Z</time></trkpt><trkpt lat="44.56646016792497" lon="9.314607745240577"><ele>1058.7142857142856</ele><time>2026-04-19T14:45:17.999Z</time></trkpt><trkpt lat="44.566469051999256" lon="9.31451768409149"><ele>1057.4285714285713</ele><time>2026-04-19T14:45:18.999Z</time></trkpt><trkpt lat="44.56644939470697" lon="9.314428562975152"><ele>1056.142857142857</ele><time>2026-04-19T14:45:19.999Z</time></trkpt><trkpt lat="44.566407050524354" lon="9.314356441882358"><ele>1054.8571428571427</ele><time>2026-04-19T14:45:20.999Z</time></trkpt><trkpt lat="44.56635379574903" lon="9.31430871840202"><ele>1053.5714285714284</ele><time>2026-04-19T14:45:21.999Z</time></trkpt><trkpt lat="44.56629272643319" lon="9.31428677370498"><ele>1052.2857142857142</ele><time>2026-04-19T14:45:22.999Z</time></trkpt><trkpt lat="44.566229435107196" lon="9.314277004793682"><ele>1051.0</ele><time>2026-04-19T14:45:23.999Z</time></trkpt><trkpt lat="44.56614234747888" lon="9.314277676954926"><ele>1050.1666666666665</ele><time>2026-04-19T14:45:24.999Z</time></trkpt><trkpt lat="44.5660337282359" lon="9.314274631217582"><ele>1049.3333333333333</ele><time>2026-04-19T14:45:26.999Z</time></trkpt><trkpt lat="44.5659240472829" lon="9.314234495520534"><ele>1048.5</ele><time>2026-04-19T14:45:28.999Z</time></trkpt><trkpt lat="44.565860331238454" lon="9.314190460448643"><ele>1047.6666666666667</ele><time>2026-04-19T14:45:30Z</time></trkpt><trkpt lat="44.56578834265755" lon="9.314142805080607"><ele>1046.8333333333335</ele><time>2026-04-19T14:45:31Z</time></trkpt><trkpt lat="44.565724626068075" lon="9.31411219584132"><ele>1046.0</ele><time>2026-04-19T14:45:32Z</time></trkpt><trkpt lat="44.565593826308394" lon="9.314112214430326"><ele>1046.0</ele><time>2026-04-19T14:45:34Z</time></trkpt><trkpt lat="44.565464274675925" lon="9.314152694703505"><ele>1046.0</ele><time>2026-04-19T14:45:36Z</time></trkpt><trkpt lat="44.56538550139444" lon="9.314185921092617"><ele>1046.0</ele><time>2026-04-19T14:45:37Z</time></trkpt><trkpt lat="44.56530940318498" lon="9.314227287979461"><ele>1046.0</ele><time>2026-04-19T14:45:38Z</time></trkpt><trkpt lat="44.56525158384322" lon="9.314266371354178"><ele>1046.0</ele><time>2026-04-19T14:45:39Z</time></trkpt><trkpt lat="44.56518725460454" lon="9.314324621401308"><ele>1046.0</ele><time>2026-04-19T14:45:40Z</time></trkpt><trkpt lat="44.565128996433245" lon="9.314398729033696"><ele>1046.3333333333335</ele><time>2026-04-19T14:45:41Z</time></trkpt><trkpt lat="44.56507658674834" lon="9.314454661729982"><ele>1046.6666666666667</ele><time>2026-04-19T14:45:42Z</time></trkpt><trkpt lat="44.564968053500316" lon="9.314541339988272"><ele>1047.0</ele><time>2026-04-19T14:45:44Z</time></trkpt><trkpt lat="44.56490891406178" lon="9.314572525944012"><ele>1047.3333333333333</ele><time>2026-04-19T14:45:45Z</time></trkpt><trkpt lat="44.5648426704255" lon="9.314598601984464"><ele>1047.6666666666665</ele><time>2026-04-19T14:45:46Z</time></trkpt><trkpt lat="44.564717430488365" lon="9.314590074168551"><ele>1048.0</ele><time>2026-04-19T14:45:48Z</time></trkpt><trkpt lat="44.56460249992961" lon="9.314575517681282"><ele>1048.0</ele><time>2026-04-19T14:45:50Z</time></trkpt><trkpt lat="44.56453279960036" lon="9.314573707182365"><ele>1048.0</ele><time>2026-04-19T14:45:51Z</time></trkpt><trkpt lat="44.56444539940329" lon="9.314534032472578"><ele>1048.0</ele><time>2026-04-19T14:45:52Z</time></trkpt><trkpt lat="44.564374229840496" lon="9.314490755603892"><ele>1048.0</ele><time>2026-04-19T14:45:53Z</time></trkpt><trkpt lat="44.56432121520894" lon="9.314432339035392"><ele>1048.0</ele><time>2026-04-19T14:45:54Z</time></trkpt><trkpt lat="44.564276755221364" lon="9.314353648342934"><ele>1048.0</ele><time>2026-04-19T14:45:55Z</time></trkpt><trkpt lat="44.5642425734537" lon="9.314256120711585"><ele>1046.6666666666665</ele><time>2026-04-19T14:45:56Z</time></trkpt><trkpt lat="44.564203433483556" lon="9.314161159459507"><ele>1045.3333333333333</ele><time>2026-04-19T14:45:57Z</time></trkpt><trkpt lat="44.56418330546609" lon="9.314063784556891"><ele>1044.0</ele><time>2026-04-19T14:45:58Z</time></trkpt><trkpt lat="44.564148027041014" lon="9.313951983079892"><ele>1042.6666666666667</ele><time>2026-04-19T14:45:59Z</time></trkpt><trkpt lat="44.564131923136394" lon="9.313829573487446"><ele>1041.3333333333335</ele><time>2026-04-19T14:46:00Z</time></trkpt><trkpt lat="44.56407378262251" lon="9.313691967655398"><ele>1040.0</ele><time>2026-04-19T14:46:01Z</time></trkpt><trkpt lat="44.564054991822765" lon="9.313584622547753"><ele>1039.8333333333335</ele><time>2026-04-19T14:46:02Z</time></trkpt><trkpt lat="44.56402612201349" lon="9.313490393204196"><ele>1039.6666666666667</ele><time>2026-04-19T14:46:03Z</time></trkpt><trkpt lat="44.56399000051647" lon="9.313372495795457"><ele>1039.5</ele><time>2026-04-19T14:46:04Z</time></trkpt><trkpt lat="44.56393868735222" lon="9.313264932613812"><ele>1039.3333333333333</ele><time>2026-04-19T14:46:05Z</time></trkpt><trkpt lat="44.56390926694119" lon="9.313172478884816"><ele>1039.1666666666665</ele><time>2026-04-19T14:46:06Z</time></trkpt><trkpt lat="44.56387615324129" lon="9.313096728202403"><ele>1039.0</ele><time>2026-04-19T14:46:07Z</time></trkpt><trkpt lat="44.56383751379224" lon="9.313020401251354"><ele>1038.6000000000001</ele><time>2026-04-19T14:46:08Z</time></trkpt><trkpt lat="44.56371638154083" lon="9.312944871132034"><ele>1038.2</ele><time>2026-04-19T14:46:10Z</time></trkpt><trkpt lat="44.5636484761788" lon="9.312936545950308"><ele>1037.8000000000002</ele><time>2026-04-19T14:46:11Z</time></trkpt><trkpt lat="44.56355902103668" lon="9.312960756718457"><ele>1037.4</ele><time>2026-04-19T14:46:12Z</time></trkpt><trkpt lat="44.56348161946894" lon="9.313011927373623"><ele>1037.0</ele><time>2026-04-19T14:46:13Z</time></trkpt><trkpt lat="44.56341148605489" lon="9.313088082605423"><ele>1035.6666666666667</ele><time>2026-04-19T14:46:14Z</time></trkpt><trkpt lat="44.56336964687144" lon="9.313201094734868"><ele>1034.3333333333335</ele><time>2026-04-19T14:46:15Z</time></trkpt><trkpt lat="44.56334979327731" lon="9.313301478863744"><ele>1033.0</ele><time>2026-04-19T14:46:16Z</time></trkpt><trkpt lat="44.56332890571733" lon="9.313388355536542"><ele>1031.6666666666667</ele><time>2026-04-19T14:46:17Z</time></trkpt><trkpt lat="44.56331993448341" lon="9.31350418770389"><ele>1030.3333333333333</ele><time>2026-04-19T14:46:18Z</time></trkpt><trkpt lat="44.56331116910923" lon="9.31360976161848"><ele>1029.0</ele><time>2026-04-19T14:46:19Z</time></trkpt><trkpt lat="44.56328365250202" lon="9.313704988519545"><ele>1029.0</ele><time>2026-04-19T14:46:20Z</time></trkpt><trkpt lat="44.563277154517976" lon="9.313800009647348"><ele>1029.0</ele><time>2026-04-19T14:46:21Z</time></trkpt><trkpt lat="44.56327857809059" lon="9.313896654155956"><ele>1029.0</ele><time>2026-04-19T14:46:22Z</time></trkpt><trkpt lat="44.563285070889364" lon="9.31398464685233"><ele>1029.0</ele><time>2026-04-19T14:46:23Z</time></trkpt><trkpt lat="44.56330231801645" lon="9.314148969906196"><ele>1029.0</ele><time>2026-04-19T14:46:25Z</time></trkpt><trkpt lat="44.56331198424975" lon="9.314238438780004"><ele>1029.0</ele><time>2026-04-19T14:46:26Z</time></trkpt><trkpt lat="44.56332761551339" lon="9.31439999681225"><ele>1029.1666666666667</ele><time>2026-04-19T14:46:28Z</time></trkpt><trkpt lat="44.56333276599417" lon="9.314533154628123"><ele>1029.3333333333333</ele><time>2026-04-19T14:46:30Z</time></trkpt><trkpt lat="44.56331329181486" lon="9.314689070877522"><ele>1029.5</ele><time>2026-04-19T14:46:32Z</time></trkpt><trkpt lat="44.5632843800087" lon="9.314775272368642"><ele>1029.6666666666665</ele><time>2026-04-19T14:46:33Z</time></trkpt><trkpt lat="44.56324432705415" lon="9.31486357725094"><ele>1029.8333333333333</ele><time>2026-04-19T14:46:34Z</time></trkpt><trkpt lat="44.56319769881212" lon="9.314947688371928"><ele>1030.0</ele><time>2026-04-19T14:46:35Z</time></trkpt><trkpt lat="44.56315475194795" lon="9.315021488147805"><ele>1030.1666666666665</ele><time>2026-04-19T14:46:36Z</time></trkpt><trkpt lat="44.56307731452153" lon="9.315127106696671"><ele>1030.3333333333333</ele><time>2026-04-19T14:46:38Z</time></trkpt><trkpt lat="44.56304832689285" lon="9.315233742027216"><ele>1030.5</ele><time>2026-04-19T14:46:39Z</time></trkpt><trkpt lat="44.56300882383689" lon="9.31534180939633"><ele>1030.6666666666667</ele><time>2026-04-19T14:46:40Z</time></trkpt><trkpt lat="44.563003151971614" lon="9.315450466585617"><ele>1030.8333333333335</ele><time>2026-04-19T14:46:41Z</time></trkpt><trkpt lat="44.5630020418709" lon="9.315547943617009"><ele>1031.0</ele><time>2026-04-19T14:46:42Z</time></trkpt><trkpt lat="44.56300969060766" lon="9.315642355498643"><ele>1030.1666666666667</ele><time>2026-04-19T14:46:43Z</time></trkpt><trkpt lat="44.56302349860075" lon="9.315743437487699"><ele>1029.3333333333335</ele><time>2026-04-19T14:46:44Z</time></trkpt><trkpt lat="44.56304099357123" lon="9.315861103030116"><ele>1028.5</ele><time>2026-04-19T14:46:45Z</time></trkpt><trkpt lat="44.56305445362418" lon="9.315960909692022"><ele>1027.6666666666667</ele><time>2026-04-19T14:46:46Z</time></trkpt><trkpt lat="44.563068841845585" lon="9.31612119740671"><ele>1026.8333333333333</ele><time>2026-04-19T14:46:48Z</time></trkpt><trkpt lat="44.56307645816136" lon="9.316214373410787"><ele>1026.0</ele><time>2026-04-19T14:46:49Z</time></trkpt><trkpt lat="44.56308532319265" lon="9.316306322470542"><ele>1024.3333333333333</ele><time>2026-04-19T14:46:50Z</time></trkpt><trkpt lat="44.5630945070905" lon="9.316406854025287"><ele>1022.6666666666667</ele><time>2026-04-19T14:46:51Z</time></trkpt><trkpt lat="44.56311418525026" lon="9.316520379899272"><ele>1021.0</ele><time>2026-04-19T14:46:52Z</time></trkpt><trkpt lat="44.56311110204977" lon="9.316649179295379"><ele>1019.3333333333334</ele><time>2026-04-19T14:46:53Z</time></trkpt><trkpt lat="44.56310456641811" lon="9.316755194763505"><ele>1017.6666666666667</ele><time>2026-04-19T14:46:54Z</time></trkpt><trkpt lat="44.56310241221984" lon="9.316846567296977"><ele>1016.0</ele><time>2026-04-19T14:46:55Z</time></trkpt><trkpt lat="44.56309801299974" lon="9.317006110731182"><ele>1016.0</ele><time>2026-04-19T14:46:57Z</time></trkpt><trkpt lat="44.5630809705791" lon="9.317174420945719"><ele>1015.9999999999999</ele><time>2026-04-19T14:46:59Z</time></trkpt><trkpt lat="44.563083186902034" lon="9.317303233526438"><ele>1015.9999999999999</ele><time>2026-04-19T14:47:01Z</time></trkpt><trkpt lat="44.56309260010499" lon="9.317439048286062"><ele>1016.0</ele><time>2026-04-19T14:47:03Z</time></trkpt><trkpt lat="44.563129047677464" lon="9.317525888558789"><ele>1016.0</ele><time>2026-04-19T14:47:04Z</time></trkpt><trkpt lat="44.5631983312687" lon="9.317563336804197"><ele>1014.5999999999999</ele><time>2026-04-19T14:47:05Z</time></trkpt><trkpt lat="44.56328810020112" lon="9.317664570144874"><ele>1013.1999999999999</ele><time>2026-04-19T14:47:07Z</time></trkpt><trkpt lat="44.5633849058233" lon="9.317729867950801"><ele>1011.8000000000001</ele><time>2026-04-19T14:47:09Z</time></trkpt><trkpt lat="44.56346716737415" lon="9.31776225148892"><ele>1010.4000000000001</ele><time>2026-04-19T14:47:11Z</time></trkpt><trkpt lat="44.56354852123119" lon="9.317801826609092"><ele>1009.0</ele><time>2026-04-19T14:47:13Z</time></trkpt><trkpt lat="44.56356567012009" lon="9.317908314139764"><ele>1008.9999999999999</ele><time>2026-04-19T14:47:15Z</time></trkpt><trkpt lat="44.56350494426247" lon="9.317964427035534"><ele>1009.0</ele><time>2026-04-19T14:47:16Z</time></trkpt><trkpt lat="44.56344114000122" lon="9.318022445798453"><ele>1009.0</ele><time>2026-04-19T14:47:17Z</time></trkpt><trkpt lat="44.563377996945036" lon="9.31808151200819"><ele>1009.0</ele><time>2026-04-19T14:47:18Z</time></trkpt><trkpt lat="44.56330579577795" lon="9.318110296875302"><ele>1008.9999999999999</ele><time>2026-04-19T14:47:19Z</time></trkpt><trkpt lat="44.563248369879545" lon="9.318186137188663"><ele>1009.0</ele><time>2026-04-19T14:47:20Z</time></trkpt><trkpt lat="44.56317466310111" lon="9.318229722298831"><ele>1008.4999999999999</ele><time>2026-04-19T14:47:21Z</time></trkpt><trkpt lat="44.56310980492242" lon="9.31830610600534"><ele>1008.0</ele><time>2026-04-19T14:47:22Z</time></trkpt><trkpt lat="44.56303246507286" lon="9.31837371766899"><ele>1007.5</ele><time>2026-04-19T14:47:23Z</time></trkpt><trkpt lat="44.562958997829156" lon="9.31843039655626"><ele>1007.0</ele><time>2026-04-19T14:47:24Z</time></trkpt><trkpt lat="44.562887949569074" lon="9.318452194181647"><ele>1006.4999999999999</ele><time>2026-04-19T14:47:25Z</time></trkpt><trkpt lat="44.562823846497665" lon="9.318462035463543"><ele>1006.0</ele><time>2026-04-19T14:47:26Z</time></trkpt><trkpt lat="44.56269706960422" lon="9.318468019772803"><ele>1003.3333333333333</ele><time>2026-04-19T14:47:28Z</time></trkpt><trkpt lat="44.5626227972556" lon="9.318478216801989"><ele>1000.6666666666666</ele><time>2026-04-19T14:47:29Z</time></trkpt><trkpt lat="44.562544803349866" lon="9.318488088230122"><ele>998.0</ele><time>2026-04-19T14:47:30Z</time></trkpt><trkpt lat="44.56247391001536" lon="9.318508509519452"><ele>995.3333333333333</ele><time>2026-04-19T14:47:31Z</time></trkpt><trkpt lat="44.56239267660674" lon="9.318430587724304"><ele>992.6666666666666</ele><time>2026-04-19T14:47:32Z</time></trkpt><trkpt lat="44.56227722531211" lon="9.318424554732374"><ele>990.0</ele><time>2026-04-19T14:47:33Z</time></trkpt><trkpt lat="44.56215944775242" lon="9.318417082325801"><ele>990.0</ele><time>2026-04-19T14:47:34Z</time></trkpt><trkpt lat="44.56205869746116" lon="9.31841069022078"><ele>990.0</ele><time>2026-04-19T14:47:35Z</time></trkpt><trkpt lat="44.56197076023223" lon="9.31840656923858"><ele>990.0</ele><time>2026-04-19T14:47:36Z</time></trkpt><trkpt lat="44.56188362091711" lon="9.31840354575833"><ele>990.0</ele><time>2026-04-19T14:47:37Z</time></trkpt><trkpt lat="44.56178759343949" lon="9.318423356574659"><ele>990.0</ele><time>2026-04-19T14:47:38Z</time></trkpt><trkpt lat="44.561687587612006" lon="9.318426916529754"><ele>988.5</ele><time>2026-04-19T14:47:39Z</time></trkpt><trkpt lat="44.56159968724455" lon="9.318430471217145"><ele>987.0</ele><time>2026-04-19T14:47:40Z</time></trkpt><trkpt lat="44.561534195606086" lon="9.318445361853916"><ele>985.5</ele><time>2026-04-19T14:47:41Z</time></trkpt><trkpt lat="44.561470199199256" lon="9.318462714584687"><ele>984.0</ele><time>2026-04-19T14:47:42Z</time></trkpt><trkpt lat="44.561355510864544" lon="9.31837130559739"><ele>982.5</ele><time>2026-04-19T14:47:44Z</time></trkpt><trkpt lat="44.56130616470761" lon="9.31829476100456"><ele>981.0</ele><time>2026-04-19T14:47:45Z</time></trkpt><trkpt lat="44.56126407267714" lon="9.318188514427026"><ele>981.0</ele><time>2026-04-19T14:47:46Z</time></trkpt><trkpt lat="44.56121898127032" lon="9.318077632605483"><ele>981.0</ele><time>2026-04-19T14:47:47Z</time></trkpt><trkpt lat="44.56117066327059" lon="9.317968952997878"><ele>981.0</ele><time>2026-04-19T14:47:48Z</time></trkpt><trkpt lat="44.56112269148474" lon="9.317855429227786"><ele>981.0</ele><time>2026-04-19T14:47:49Z</time></trkpt><trkpt lat="44.56106966315516" lon="9.317769980539204"><ele>981.0</ele><time>2026-04-19T14:47:50Z</time></trkpt><trkpt lat="44.561015118657586" lon="9.31766683681583"><ele>981.0</ele><time>2026-04-19T14:47:51Z</time></trkpt><trkpt lat="44.56097742722351" lon="9.317555769489479"><ele>978.8</ele><time>2026-04-19T14:47:52Z</time></trkpt><trkpt lat="44.56094584606759" lon="9.317439884324484"><ele>976.5999999999999</ele><time>2026-04-19T14:47:53Z</time></trkpt><trkpt lat="44.56093873438488" lon="9.317308176907792"><ele>974.4</ele><time>2026-04-19T14:47:54Z</time></trkpt><trkpt lat="44.56091675565324" lon="9.317177242180653"><ele>972.2</ele><time>2026-04-19T14:47:55Z</time></trkpt><trkpt lat="44.560884192674656" lon="9.3170285252177"><ele>970.0</ele><time>2026-04-19T14:47:56Z</time></trkpt><trkpt lat="44.56084502685313" lon="9.31688494045409"><ele>970.0</ele><time>2026-04-19T14:47:57Z</time></trkpt><trkpt lat="44.56080166798513" lon="9.316756968973666"><ele>970.0</ele><time>2026-04-19T14:47:58Z</time></trkpt><trkpt lat="44.560749629744336" lon="9.31663904855467"><ele>970.0</ele><time>2026-04-19T14:47:59Z</time></trkpt><trkpt lat="44.56069544185609" lon="9.316543379688923"><ele>970.0</ele><time>2026-04-19T14:48:00Z</time></trkpt><trkpt lat="44.560635563527136" lon="9.316460943565001"><ele>970.0</ele><time>2026-04-19T14:48:01Z</time></trkpt><trkpt lat="44.5605638556337" lon="9.3163972535228"><ele>971.4999999999999</ele><time>2026-04-19T14:48:02Z</time></trkpt><trkpt lat="44.56049435757203" lon="9.316302982225569"><ele>973.0</ele><time>2026-04-19T14:48:03Z</time></trkpt><trkpt lat="44.56043577748022" lon="9.316237058906802"><ele>974.5</ele><time>2026-04-19T14:48:04Z</time></trkpt><trkpt lat="44.56037164348165" lon="9.316189990824908"><ele>976.0</ele><time>2026-04-19T14:48:05Z</time></trkpt><trkpt lat="44.56027004172242" lon="9.316102946471593"><ele>977.4999999999999</ele><time>2026-04-19T14:48:07Z</time></trkpt><trkpt lat="44.56019587011483" lon="9.316120449800552"><ele>979.0</ele><time>2026-04-19T14:48:08Z</time></trkpt><trkpt lat="44.56012355432702" lon="9.316194908254054"><ele>974.6666666666666</ele><time>2026-04-19T14:48:09Z</time></trkpt><trkpt lat="44.560088604313236" lon="9.31630880617231"><ele>970.3333333333333</ele><time>2026-04-19T14:48:10Z</time></trkpt><trkpt lat="44.56007264344182" lon="9.316423237664244"><ele>966.0</ele><time>2026-04-19T14:48:11Z</time></trkpt><trkpt lat="44.56008549034452" lon="9.316538202536924"><ele>961.6666666666667</ele><time>2026-04-19T14:48:12Z</time></trkpt><trkpt lat="44.560138701659774" lon="9.3166254219443"><ele>957.3333333333334</ele><time>2026-04-19T14:48:13Z</time></trkpt><trkpt lat="44.56021248664035" lon="9.316681601524946"><ele>953.0</ele><time>2026-04-19T14:48:14Z</time></trkpt><trkpt lat="44.56028868802464" lon="9.316729676091581"><ele>951.8333333333334</ele><time>2026-04-19T14:48:15Z</time></trkpt><trkpt lat="44.560371260099856" lon="9.316832200043873"><ele>950.6666666666667</ele><time>2026-04-19T14:48:17Z</time></trkpt><trkpt lat="44.56033738559584" lon="9.31694036687883"><ele>949.5</ele><time>2026-04-19T14:48:19Z</time></trkpt><trkpt lat="44.56025544016077" lon="9.316966289634514"><ele>948.3333333333333</ele><time>2026-04-19T14:48:21Z</time></trkpt><trkpt lat="44.56017467663314" lon="9.31696443910184"><ele>947.1666666666666</ele><time>2026-04-19T14:48:22Z</time></trkpt><trkpt lat="44.56009820747348" lon="9.316950355739968"><ele>946.0</ele><time>2026-04-19T14:48:23Z</time></trkpt><trkpt lat="44.56000988415293" lon="9.316930531206234"><ele>945.9999999999999</ele><time>2026-04-19T14:48:24Z</time></trkpt><trkpt lat="44.55993172535317" lon="9.316913930366125"><ele>946.0</ele><time>2026-04-19T14:48:25Z</time></trkpt><trkpt lat="44.55986525885321" lon="9.316850019988864"><ele>946.0</ele><time>2026-04-19T14:48:26Z</time></trkpt><trkpt lat="44.559813987030104" lon="9.316762255405637"><ele>946.0</ele><time>2026-04-19T14:48:27Z</time></trkpt><trkpt lat="44.559763294707224" lon="9.316667973734262"><ele>945.9999999999999</ele><time>2026-04-19T14:48:28Z</time></trkpt><trkpt lat="44.55972298270701" lon="9.316571176441649"><ele>946.0</ele><time>2026-04-19T14:48:29Z</time></trkpt><trkpt lat="44.55968654605706" lon="9.316449320220064"><ele>947.4</ele><time>2026-04-19T14:48:30Z</time></trkpt><trkpt lat="44.55964345659304" lon="9.316325375913856"><ele>948.8</ele><time>2026-04-19T14:48:31Z</time></trkpt><trkpt lat="44.55961696292236" lon="9.31619496900877"><ele>950.1999999999999</ele><time>2026-04-19T14:48:32Z</time></trkpt><trkpt lat="44.55956524505503" lon="9.316062570230768"><ele>951.5999999999999</ele><time>2026-04-19T14:48:33Z</time></trkpt><trkpt lat="44.55948518290644" lon="9.315968523313192"><ele>953.0</ele><time>2026-04-19T14:48:34Z</time></trkpt><trkpt lat="44.5593961965208" lon="9.315896518307428"><ele>949.5999999999999</ele><time>2026-04-19T14:48:35Z</time></trkpt><trkpt lat="44.559284115997286" lon="9.315824479388722"><ele>946.1999999999999</ele><time>2026-04-19T14:48:36Z</time></trkpt><trkpt lat="44.55917817986777" lon="9.315763250809255"><ele>942.8</ele><time>2026-04-19T14:48:37Z</time></trkpt><trkpt lat="44.559080664151296" lon="9.3156999633805"><ele>939.4</ele><time>2026-04-19T14:48:38Z</time></trkpt><trkpt lat="44.55900660422834" lon="9.315647999623266"><ele>936.0</ele><time>2026-04-19T14:48:39Z</time></trkpt><trkpt lat="44.558915141894246" lon="9.31556893505372"><ele>936.0</ele><time>2026-04-19T14:48:40Z</time></trkpt><trkpt lat="44.55882731900368" lon="9.315458172653276"><ele>936.0</ele><time>2026-04-19T14:48:41Z</time></trkpt><trkpt lat="44.558741955086425" lon="9.315352167444104"><ele>936.0</ele><time>2026-04-19T14:48:42Z</time></trkpt><trkpt lat="44.55865562724605" lon="9.315242249299216"><ele>936.0</ele><time>2026-04-19T14:48:43Z</time></trkpt><trkpt lat="44.55856043553051" lon="9.315135213853498"><ele>932.5</ele><time>2026-04-19T14:48:44Z</time></trkpt><trkpt lat="44.55849327844852" lon="9.314995530019386"><ele>929.0</ele><time>2026-04-19T14:48:45Z</time></trkpt><trkpt lat="44.55838623633221" lon="9.314907658254617"><ele>925.5</ele><time>2026-04-19T14:48:46Z</time></trkpt><trkpt lat="44.55828884165371" lon="9.31481823772493"><ele>922.0</ele><time>2026-04-19T14:48:47Z</time></trkpt><trkpt lat="44.55821054261538" lon="9.314710015380905"><ele>921.4000000000001</ele><time>2026-04-19T14:48:48Z</time></trkpt><trkpt lat="44.558149338792916" lon="9.314593578445905"><ele>920.8000000000001</ele><time>2026-04-19T14:48:49Z</time></trkpt><trkpt lat="44.55808405998524" lon="9.314490004407947"><ele>920.2</ele><time>2026-04-19T14:48:50Z</time></trkpt><trkpt lat="44.55802174005571" lon="9.314422053472557"><ele>919.6</ele><time>2026-04-19T14:48:51Z</time></trkpt><trkpt lat="44.5579069481135" lon="9.314314483087069"><ele>919.0</ele><time>2026-04-19T14:48:53Z</time></trkpt><trkpt lat="44.55782622894832" lon="9.314265930178603"><ele>916.8000000000001</ele><time>2026-04-19T14:48:54Z</time></trkpt><trkpt lat="44.55773049188868" lon="9.314235448751889"><ele>914.6000000000001</ele><time>2026-04-19T14:48:55Z</time></trkpt><trkpt lat="44.55763119903041" lon="9.314217554444049"><ele>912.4</ele><time>2026-04-19T14:48:56Z</time></trkpt><trkpt lat="44.557527632068336" lon="9.314200567097563"><ele>910.2</ele><time>2026-04-19T14:48:57Z</time></trkpt><trkpt lat="44.557416135441365" lon="9.314183730999856"><ele>908.0</ele><time>2026-04-19T14:48:58Z</time></trkpt><trkpt lat="44.557311824632485" lon="9.314165447049133"><ele>908.0</ele><time>2026-04-19T14:48:59Z</time></trkpt><trkpt lat="44.55721195122176" lon="9.31411964170692"><ele>908.0</ele><time>2026-04-19T14:49:00Z</time></trkpt><trkpt lat="44.557110055218196" lon="9.314082499799907"><ele>908.0</ele><time>2026-04-19T14:49:01Z</time></trkpt><trkpt lat="44.557007357474376" lon="9.314027720742843"><ele>908.0</ele><time>2026-04-19T14:49:02Z</time></trkpt><trkpt lat="44.55693850683148" lon="9.313947226026846"><ele>908.0</ele><time>2026-04-19T14:49:03Z</time></trkpt><trkpt lat="44.55685087257348" lon="9.313874146059629"><ele>903.25</ele><time>2026-04-19T14:49:04Z</time></trkpt><trkpt lat="44.55675291962502" lon="9.313819393285407"><ele>898.5</ele><time>2026-04-19T14:49:05Z</time></trkpt><trkpt lat="44.5566169383808" lon="9.313750486259282"><ele>893.75</ele><time>2026-04-19T14:49:06Z</time></trkpt><trkpt lat="44.55646279840579" lon="9.313700931418206"><ele>889.0</ele><time>2026-04-19T14:49:07Z</time></trkpt><trkpt lat="44.55633999050348" lon="9.313636393632558"><ele>888.9999999999999</ele><time>2026-04-19T14:49:08Z</time></trkpt><trkpt lat="44.55627278768491" lon="9.313627797247353"><ele>889.0</ele><time>2026-04-19T14:49:09Z</time></trkpt><trkpt lat="44.556194657024854" lon="9.31350454159156"><ele>889.0</ele><time>2026-04-19T14:49:11Z</time></trkpt><trkpt lat="44.556124066926465" lon="9.31346006042823"><ele>889.0</ele><time>2026-04-19T14:49:12Z</time></trkpt><trkpt lat="44.55605497235086" lon="9.313410766089863"><ele>888.9999999999999</ele><time>2026-04-19T14:49:13Z</time></trkpt><trkpt lat="44.55597663364037" lon="9.3133744184015"><ele>889.0</ele><time>2026-04-19T14:49:14Z</time></trkpt><trkpt lat="44.5559106294596" lon="9.313315710468451"><ele>888.2</ele><time>2026-04-19T14:49:15Z</time></trkpt><trkpt lat="44.555867061136105" lon="9.313215288650852"><ele>887.4000000000001</ele><time>2026-04-19T14:49:16Z</time></trkpt><trkpt lat="44.55583106453351" lon="9.31307225082506"><ele>886.6</ele><time>2026-04-19T14:49:17Z</time></trkpt><trkpt lat="44.55582273468156" lon="9.312905613919904"><ele>885.8</ele><time>2026-04-19T14:49:18Z</time></trkpt><trkpt lat="44.555803215111084" lon="9.31278875356165"><ele>885.0</ele><time>2026-04-19T14:49:19Z</time></trkpt><trkpt lat="44.55577888174389" lon="9.312688941908945"><ele>884.3333333333334</ele><time>2026-04-19T14:49:20Z</time></trkpt><trkpt lat="44.55573497502107" lon="9.312610579291341"><ele>883.6666666666667</ele><time>2026-04-19T14:49:21Z</time></trkpt><trkpt lat="44.555668484414" lon="9.31254696250194"><ele>883.0</ele><time>2026-04-19T14:49:22Z</time></trkpt><trkpt lat="44.555609811791086" lon="9.31247942302998"><ele>882.3333333333334</ele><time>2026-04-19T14:49:23Z</time></trkpt><trkpt lat="44.55554108855145" lon="9.312433300288406"><ele>881.6666666666667</ele><time>2026-04-19T14:49:24Z</time></trkpt><trkpt lat="44.55546713674233" lon="9.312382172203309"><ele>881.0</ele><time>2026-04-19T14:49:25Z</time></trkpt><trkpt lat="44.55538539619541" lon="9.312382317829865"><ele>879.4</ele><time>2026-04-19T14:49:26Z</time></trkpt><trkpt lat="44.55527042059275" lon="9.31234418259766"><ele>877.8</ele><time>2026-04-19T14:49:28Z</time></trkpt><trkpt lat="44.5552505171699" lon="9.312173559811544"><ele>876.1999999999999</ele><time>2026-04-19T14:49:30Z</time></trkpt><trkpt lat="44.55530395780406" lon="9.312099433278227"><ele>874.5999999999999</ele><time>2026-04-19T14:49:31Z</time></trkpt><trkpt lat="44.55531674274798" lon="9.312007843003814"><ele>873.0</ele><time>2026-04-19T14:49:32Z</time></trkpt><trkpt lat="44.55531145803368" lon="9.311830992365524"><ele>872.8333333333334</ele><time>2026-04-19T14:49:34Z</time></trkpt><trkpt lat="44.55526490045907" lon="9.311752720994345"><ele>872.6666666666667</ele><time>2026-04-19T14:49:35Z</time></trkpt><trkpt lat="44.55521293971941" lon="9.311686216217689"><ele>872.5</ele><time>2026-04-19T14:49:36Z</time></trkpt><trkpt lat="44.55513868160295" lon="9.311639838662032"><ele>872.3333333333334</ele><time>2026-04-19T14:49:37Z</time></trkpt><trkpt lat="44.55501688473043" lon="9.311600980251805"><ele>872.1666666666667</ele><time>2026-04-19T14:49:38Z</time></trkpt><trkpt lat="44.554928651118715" lon="9.311576737543682"><ele>872.0</ele><time>2026-04-19T14:49:39Z</time></trkpt><trkpt lat="44.554864497907396" lon="9.31156377164092"><ele>872.0</ele><time>2026-04-19T14:49:40Z</time></trkpt><trkpt lat="44.55479750459871" lon="9.311553785457354"><ele>872.0</ele><time>2026-04-19T14:49:42Z</time></trkpt><trkpt lat="44.554687692218835" lon="9.311764937736436"><ele>872.0</ele><time>2026-04-19T14:49:47Z</time></trkpt><trkpt lat="44.5546636462857" lon="9.311942047440043"><ele>872.0</ele><time>2026-04-19T14:49:49Z</time></trkpt><trkpt lat="44.55464139141498" lon="9.312037713074767"><ele>872.0000000000001</ele><time>2026-04-19T14:49:50Z</time></trkpt><trkpt lat="44.5546089274864" lon="9.312136743014609"><ele>872.0</ele><time>2026-04-19T14:49:51Z</time></trkpt><trkpt lat="44.55456929108515" lon="9.312230446141847"><ele>872.0</ele><time>2026-04-19T14:49:52Z</time></trkpt><trkpt lat="44.554526317655274" lon="9.31233979662222"><ele>872.0</ele><time>2026-04-19T14:49:53Z</time></trkpt><trkpt lat="44.55447899118205" lon="9.312464837510724"><ele>872.0000000000001</ele><time>2026-04-19T14:49:54Z</time></trkpt><trkpt lat="44.554446565013244" lon="9.312597652449838"><ele>872.0</ele><time>2026-04-19T14:49:55Z</time></trkpt><trkpt lat="44.55441867915306" lon="9.312692750158224"><ele>869.8</ele><time>2026-04-19T14:49:56Z</time></trkpt><trkpt lat="44.55439561827553" lon="9.312789544294334"><ele>867.6</ele><time>2026-04-19T14:49:57Z</time></trkpt><trkpt lat="44.55436919195105" lon="9.312879991813848"><ele>865.3999999999999</ele><time>2026-04-19T14:49:58Z</time></trkpt><trkpt lat="44.55438546744463" lon="9.313005121833354"><ele>863.1999999999999</ele><time>2026-04-19T14:49:59Z</time></trkpt><trkpt lat="44.554453310518326" lon="9.313151777264485"><ele>861.0</ele><time>2026-04-19T14:50:00Z</time></trkpt><trkpt lat="44.55452676481975" lon="9.313265334042917"><ele>862.4</ele><time>2026-04-19T14:50:01Z</time></trkpt><trkpt lat="44.554594056456274" lon="9.313379517047341"><ele>863.8</ele><time>2026-04-19T14:50:02Z</time></trkpt><trkpt lat="44.55464654734488" lon="9.313474443478398"><ele>865.1999999999999</ele><time>2026-04-19T14:50:03Z</time></trkpt><trkpt lat="44.55470498119105" lon="9.313561612578281"><ele>866.5999999999999</ele><time>2026-04-19T14:50:04Z</time></trkpt><trkpt lat="44.55472799340264" lon="9.313684100880709"><ele>868.0</ele><time>2026-04-19T14:50:05Z</time></trkpt><trkpt lat="44.55471236003989" lon="9.31382408061305"><ele>866.9999999999999</ele><time>2026-04-19T14:50:06Z</time></trkpt><trkpt lat="44.55467062312289" lon="9.313938722733074"><ele>866.0</ele><time>2026-04-19T14:50:07Z</time></trkpt><trkpt lat="44.5545968482151" lon="9.314010584631346"><ele>865.0</ele><time>2026-04-19T14:50:08Z</time></trkpt><trkpt lat="44.55454280642422" lon="9.314060215766707"><ele>864.0</ele><time>2026-04-19T14:50:09Z</time></trkpt><trkpt lat="44.55448101258698" lon="9.31408764875172"><ele>862.9999999999999</ele><time>2026-04-19T14:50:10Z</time></trkpt><trkpt lat="44.554409525890556" lon="9.31405929178211"><ele>862.0</ele><time>2026-04-19T14:50:11Z</time></trkpt><trkpt lat="44.55434698231415" lon="9.313978093232455"><ele>860.0</ele><time>2026-04-19T14:50:12Z</time></trkpt><trkpt lat="44.5542689869153" lon="9.313852575400396"><ele>858.0</ele><time>2026-04-19T14:50:13Z</time></trkpt><trkpt lat="44.55418389782393" lon="9.313742968344794"><ele>856.0</ele><time>2026-04-19T14:50:14Z</time></trkpt><trkpt lat="44.55409316705642" lon="9.313631646605552"><ele>854.0</ele><time>2026-04-19T14:50:15Z</time></trkpt><trkpt lat="44.55399626889779" lon="9.313517055077051"><ele>854.0</ele><time>2026-04-19T14:50:16Z</time></trkpt><trkpt lat="44.55390429892778" lon="9.313426536316321"><ele>854.0000000000001</ele><time>2026-04-19T14:50:17Z</time></trkpt><trkpt lat="44.55381710669177" lon="9.313347347060423"><ele>854.0000000000001</ele><time>2026-04-19T14:50:18Z</time></trkpt><trkpt lat="44.553722199596145" lon="9.31326220029754"><ele>854.0</ele><time>2026-04-19T14:50:19Z</time></trkpt><trkpt lat="44.553625020272285" lon="9.313182489743971"><ele>854.0</ele><time>2026-04-19T14:50:20Z</time></trkpt><trkpt lat="44.5535223405216" lon="9.313120823680677"><ele>853.5</ele><time>2026-04-19T14:50:21Z</time></trkpt><trkpt lat="44.5534120932314" lon="9.313063119370282"><ele>853.0</ele><time>2026-04-19T14:50:22Z</time></trkpt><trkpt lat="44.55328420719709" lon="9.313007098959643"><ele>852.5</ele><time>2026-04-19T14:50:23Z</time></trkpt><trkpt lat="44.55315649641049" lon="9.312957373505313"><ele>852.0</ele><time>2026-04-19T14:50:24Z</time></trkpt><trkpt lat="44.55305775035754" lon="9.312925999779068"><ele>852.0</ele><time>2026-04-19T14:50:25Z</time></trkpt><trkpt lat="44.55298383592754" lon="9.312894374415865"><ele>852.0</ele><time>2026-04-19T14:50:26Z</time></trkpt><trkpt lat="44.552914781666544" lon="9.312863173102919"><ele>852.0</ele><time>2026-04-19T14:50:27Z</time></trkpt><trkpt lat="44.5528352149808" lon="9.312816355876821"><ele>852.0</ele><time>2026-04-19T14:50:28Z</time></trkpt><trkpt lat="44.552764243047996" lon="9.312764927140295"><ele>852.0</ele><time>2026-04-19T14:50:29Z</time></trkpt><trkpt lat="44.55270012685433" lon="9.31271313666733"><ele>852.0</ele><time>2026-04-19T14:50:30Z</time></trkpt><trkpt lat="44.55260249816473" lon="9.312631525105923"><ele>849.8</ele><time>2026-04-19T14:50:32Z</time></trkpt><trkpt lat="44.55251707318148" lon="9.312534381693833"><ele>847.6</ele><time>2026-04-19T14:50:34Z</time></trkpt><trkpt lat="44.55243836635445" lon="9.312376919124086"><ele>845.4</ele><time>2026-04-19T14:50:36Z</time></trkpt><trkpt lat="44.55241378837537" lon="9.312276108659388"><ele>843.1999999999999</ele><time>2026-04-19T14:50:37Z</time></trkpt><trkpt lat="44.55240734382738" lon="9.312163516165617"><ele>841.0</ele><time>2026-04-19T14:50:38Z</time></trkpt><trkpt lat="44.552416675469985" lon="9.31205889083174"><ele>840.1666666666666</ele><time>2026-04-19T14:50:39Z</time></trkpt><trkpt lat="44.55243806188924" lon="9.311957357520017"><ele>839.3333333333333</ele><time>2026-04-19T14:50:40Z</time></trkpt><trkpt lat="44.552492220797475" lon="9.311858502052663"><ele>838.5</ele><time>2026-04-19T14:50:41Z</time></trkpt><trkpt lat="44.55257339196526" lon="9.311744682666072"><ele>837.6666666666667</ele><time>2026-04-19T14:50:42Z</time></trkpt><trkpt lat="44.552628062243066" lon="9.311654945759667"><ele>836.8333333333334</ele><time>2026-04-19T14:50:43Z</time></trkpt><trkpt lat="44.55266996116764" lon="9.311581620044658"><ele>836.0</ele><time>2026-04-19T14:50:44Z</time></trkpt><trkpt lat="44.55270365566858" lon="9.311421751916097"><ele>836.0</ele><time>2026-04-19T14:50:46Z</time></trkpt><trkpt lat="44.55263039109612" lon="9.311280951688795"><ele>836.0</ele><time>2026-04-19T14:50:48Z</time></trkpt><trkpt lat="44.55253432751375" lon="9.31125202507141"><ele>836.0</ele><time>2026-04-19T14:50:49Z</time></trkpt><trkpt lat="44.5524244032228" lon="9.31130660374368"><ele>836.0</ele><time>2026-04-19T14:50:50Z</time></trkpt><trkpt lat="44.552334276401986" lon="9.311376786619896"><ele>836.0</ele><time>2026-04-19T14:50:51Z</time></trkpt><trkpt lat="44.55226022709187" lon="9.311464969301737"><ele>836.0</ele><time>2026-04-19T14:50:52Z</time></trkpt><trkpt lat="44.55220712620745" lon="9.311594871836224"><ele>836.0</ele><time>2026-04-19T14:50:53Z</time></trkpt><trkpt lat="44.5521577330736" lon="9.311715536829546"><ele>836.0</ele><time>2026-04-19T14:50:54Z</time></trkpt><trkpt lat="44.5521202096821" lon="9.311839228356202"><ele>836.0</ele><time>2026-04-19T14:50:55Z</time></trkpt><trkpt lat="44.55210440935539" lon="9.311972560139063"><ele>836.0</ele><time>2026-04-19T14:50:56Z</time></trkpt><trkpt lat="44.55211553138274" lon="9.312106082256129"><ele>837.25</ele><time>2026-04-19T14:50:57Z</time></trkpt><trkpt lat="44.552149958986384" lon="9.312268314910144"><ele>838.5</ele><time>2026-04-19T14:50:58Z</time></trkpt><trkpt lat="44.552193374109486" lon="9.312463529508147"><ele>839.75</ele><time>2026-04-19T14:50:59Z</time></trkpt><trkpt lat="44.55223578027667" lon="9.312649783392619"><ele>841.0</ele><time>2026-04-19T14:51:00Z</time></trkpt><trkpt lat="44.552266127927055" lon="9.31280932645604"><ele>841.0</ele><time>2026-04-19T14:51:01Z</time></trkpt><trkpt lat="44.55228378965305" lon="9.312948717252697"><ele>841.0</ele><time>2026-04-19T14:51:02Z</time></trkpt><trkpt lat="44.55229109663655" lon="9.313096980245664"><ele>841.0</ele><time>2026-04-19T14:51:03Z</time></trkpt><trkpt lat="44.552274691514036" lon="9.313220424668605"><ele>841.0</ele><time>2026-04-19T14:51:04Z</time></trkpt><trkpt lat="44.552240598578315" lon="9.31333554390017"><ele>841.0</ele><time>2026-04-19T14:51:05Z</time></trkpt><trkpt lat="44.55219228639414" lon="9.313460338490403"><ele>840.0</ele><time>2026-04-19T14:51:06Z</time></trkpt><trkpt lat="44.55212357748619" lon="9.313586038597215"><ele>839.0</ele><time>2026-04-19T14:51:07Z</time></trkpt><trkpt lat="44.552058298836684" lon="9.313736626120562"><ele>838.0</ele><time>2026-04-19T14:51:08Z</time></trkpt><trkpt lat="44.55198850068513" lon="9.31390157316739"><ele>837.0</ele><time>2026-04-19T14:51:09Z</time></trkpt><trkpt lat="44.55192907318085" lon="9.314051986417464"><ele>833.25</ele><time>2026-04-19T14:51:10Z</time></trkpt><trkpt lat="44.55188069209731" lon="9.314193584091218"><ele>829.5</ele><time>2026-04-19T14:51:11Z</time></trkpt><trkpt lat="44.5518420146698" lon="9.314350720044892"><ele>825.75</ele><time>2026-04-19T14:51:12Z</time></trkpt><trkpt lat="44.55181505514379" lon="9.314528257861369"><ele>822.0</ele><time>2026-04-19T14:51:13Z</time></trkpt><trkpt lat="44.55179228394203" lon="9.314694174162538"><ele>822.0</ele><time>2026-04-19T14:51:14Z</time></trkpt><trkpt lat="44.55176956043698" lon="9.314849557414377"><ele>822.0</ele><time>2026-04-19T14:51:15Z</time></trkpt><trkpt lat="44.551748651052996" lon="9.31497433714487"><ele>822.0</ele><time>2026-04-19T14:51:16Z</time></trkpt><trkpt lat="44.551720601034575" lon="9.315081439884262"><ele>822.0</ele><time>2026-04-19T14:51:17Z</time></trkpt><trkpt lat="44.551679460820566" lon="9.315188634804784"><ele>822.0</ele><time>2026-04-19T14:51:18Z</time></trkpt><trkpt lat="44.55161308408342" lon="9.315285871717295"><ele>822.0</ele><time>2026-04-19T14:51:19Z</time></trkpt><trkpt lat="44.55152260244048" lon="9.315367835591827"><ele>822.0</ele><time>2026-04-19T14:51:20Z</time></trkpt><trkpt lat="44.55142081816079" lon="9.31542530874605"><ele>822.0</ele><time>2026-04-19T14:51:21Z</time></trkpt><trkpt lat="44.55130255550793" lon="9.31548344960915"><ele>822.0</ele><time>2026-04-19T14:51:22Z</time></trkpt><trkpt lat="44.551183250153535" lon="9.315537819891224"><ele>820.25</ele><time>2026-04-19T14:51:23Z</time></trkpt><trkpt lat="44.55106459095714" lon="9.315591869455597"><ele>818.5</ele><time>2026-04-19T14:51:24Z</time></trkpt><trkpt lat="44.5509535584737" lon="9.315643829206667"><ele>816.75</ele><time>2026-04-19T14:51:25Z</time></trkpt><trkpt lat="44.55085655265336" lon="9.315707309146775"><ele>815.0</ele><time>2026-04-19T14:51:26Z</time></trkpt><trkpt lat="44.550754414869104" lon="9.315748214129346"><ele>815.0000000000001</ele><time>2026-04-19T14:51:27Z</time></trkpt><trkpt lat="44.55066411383742" lon="9.315794333891324"><ele>815.0</ele><time>2026-04-19T14:51:28Z</time></trkpt><trkpt lat="44.55058588236387" lon="9.31581557407981"><ele>815.0</ele><time>2026-04-19T14:51:29Z</time></trkpt><trkpt lat="44.550516436449115" lon="9.315802086782776"><ele>815.0</ele><time>2026-04-19T14:51:30Z</time></trkpt><trkpt lat="44.55045495987965" lon="9.315733748169917"><ele>815.0000000000001</ele><time>2026-04-19T14:51:31Z</time></trkpt><trkpt lat="44.55039950553884" lon="9.315629444068225"><ele>815.0</ele><time>2026-04-19T14:51:32Z</time></trkpt><trkpt lat="44.55033864058266" lon="9.315500468165581"><ele>815.4</ele><time>2026-04-19T14:51:33Z</time></trkpt><trkpt lat="44.55028712396028" lon="9.315362157608256"><ele>815.8</ele><time>2026-04-19T14:51:34Z</time></trkpt><trkpt lat="44.55024047927684" lon="9.315251035363836"><ele>816.2</ele><time>2026-04-19T14:51:35Z</time></trkpt><trkpt lat="44.55018621472995" lon="9.315178193862259"><ele>816.6</ele><time>2026-04-19T14:51:36Z</time></trkpt><trkpt lat="44.55014951663609" lon="9.315094878518076"><ele>817.0</ele><time>2026-04-19T14:51:37Z</time></trkpt><trkpt lat="44.550076670987266" lon="9.314952343072331"><ele>815.6666666666666</ele><time>2026-04-19T14:51:38Z</time></trkpt><trkpt lat="44.550111210591595" lon="9.31465882510328"><ele>814.3333333333333</ele><time>2026-04-19T14:51:39Z</time></trkpt><trkpt lat="44.55020926829987" lon="9.314509783148132"><ele>813.0</ele><time>2026-04-19T14:51:40Z</time></trkpt><trkpt lat="44.55029778537667" lon="9.314374819802484"><ele>813.0</ele><time>2026-04-19T14:51:41Z</time></trkpt><trkpt lat="44.55034637423191" lon="9.314276762170035"><ele>813.0</ele><time>2026-04-19T14:51:42Z</time></trkpt><trkpt lat="44.55033691909531" lon="9.314189187346406"><ele>813.0</ele><time>2026-04-19T14:51:44Z</time></trkpt><trkpt lat="44.550339574968774" lon="9.31405213172172"><ele>813.0</ele><time>2026-04-19T14:51:45Z</time></trkpt><trkpt lat="44.55030918267903" lon="9.313911810927111"><ele>813.0</ele><time>2026-04-19T14:51:46Z</time></trkpt><trkpt lat="44.55023901249399" lon="9.313771463642116"><ele>812.0</ele><time>2026-04-19T14:51:47Z</time></trkpt><trkpt lat="44.55016003637094" lon="9.31359504653728"><ele>811.0</ele><time>2026-04-19T14:51:48Z</time></trkpt><trkpt lat="44.55010637402687" lon="9.313420211455773"><ele>810.0</ele><time>2026-04-19T14:51:49Z</time></trkpt><trkpt lat="44.55005809050432" lon="9.313235860055459"><ele>809.0</ele><time>2026-04-19T14:51:50Z</time></trkpt><trkpt lat="44.55000949846751" lon="9.313048166383801"><ele>807.5</ele><time>2026-04-19T14:51:51Z</time></trkpt><trkpt lat="44.54996535426151" lon="9.312874828850779"><ele>806.0</ele><time>2026-04-19T14:51:52Z</time></trkpt><trkpt lat="44.54991740304846" lon="9.312687151933309"><ele>804.5</ele><time>2026-04-19T14:51:53Z</time></trkpt><trkpt lat="44.54986834497087" lon="9.312479120615306"><ele>803.0</ele><time>2026-04-19T14:51:54Z</time></trkpt><trkpt lat="44.54983451384148" lon="9.312272956676443"><ele>802.5</ele><time>2026-04-19T14:51:55Z</time></trkpt><trkpt lat="44.549802943435765" lon="9.31208070536579"><ele>802.0</ele><time>2026-04-19T14:51:56Z</time></trkpt><trkpt lat="44.54977095430962" lon="9.311902291525755"><ele>801.5</ele><time>2026-04-19T14:51:57Z</time></trkpt><trkpt lat="44.549744517511975" lon="9.31173226676367"><ele>801.0</ele><time>2026-04-19T14:51:58Z</time></trkpt><trkpt lat="44.5497292917041" lon="9.311573362614727"><ele>801.0</ele><time>2026-04-19T14:51:59Z</time></trkpt><trkpt lat="44.5497120016724" lon="9.311412680055032"><ele>801.0</ele><time>2026-04-19T14:52:00Z</time></trkpt><trkpt lat="44.54967416096005" lon="9.311256245090552"><ele>801.0</ele><time>2026-04-19T14:52:01Z</time></trkpt><trkpt lat="44.54963010131435" lon="9.311099938123181"><ele>801.0</ele><time>2026-04-19T14:52:02Z</time></trkpt><trkpt lat="44.54957686484955" lon="9.310955073485031"><ele>801.6666666666667</ele><time>2026-04-19T14:52:03Z</time></trkpt><trkpt lat="44.54948681135528" lon="9.310784822217784"><ele>802.3333333333334</ele><time>2026-04-19T14:52:04Z</time></trkpt><trkpt lat="44.54937785919353" lon="9.310602920480564"><ele>803.0</ele><time>2026-04-19T14:52:05Z</time></trkpt><trkpt lat="44.54928030712672" lon="9.31045900373645"><ele>801.0</ele><time>2026-04-19T14:52:06Z</time></trkpt><trkpt lat="44.54918566684716" lon="9.310339765171895"><ele>799.0</ele><time>2026-04-19T14:52:07Z</time></trkpt><trkpt lat="44.54910613129311" lon="9.310228777478757"><ele>797.0</ele><time>2026-04-19T14:52:08Z</time></trkpt><trkpt lat="44.54901863101206" lon="9.310072177467784"><ele>795.0</ele><time>2026-04-19T14:52:09Z</time></trkpt><trkpt lat="44.54893950280246" lon="9.309928906151294"><ele>795.0</ele><time>2026-04-19T14:52:10Z</time></trkpt><trkpt lat="44.54889005365007" lon="9.30976838400803"><ele>795.0</ele><time>2026-04-19T14:52:11Z</time></trkpt><trkpt lat="44.548827418934" lon="9.30957105777032"><ele>795.0</ele><time>2026-04-19T14:52:12Z</time></trkpt><trkpt lat="44.548772711174976" lon="9.309375566256117"><ele>795.0</ele><time>2026-04-19T14:52:13Z</time></trkpt><trkpt lat="44.548738770064055" lon="9.309204153674733"><ele>795.6</ele><time>2026-04-19T14:52:14Z</time></trkpt><trkpt lat="44.54870550653444" lon="9.309035879484597"><ele>796.2</ele><time>2026-04-19T14:52:15Z</time></trkpt><trkpt lat="44.54867534447475" lon="9.308859042637202"><ele>796.8</ele><time>2026-04-19T14:52:16Z</time></trkpt><trkpt lat="44.548645312618824" lon="9.308712978931684"><ele>797.4</ele><time>2026-04-19T14:52:17Z</time></trkpt><trkpt lat="44.54861957534776" lon="9.308601626466746"><ele>798.0</ele><time>2026-04-19T14:52:18Z</time></trkpt><trkpt lat="44.548586162928686" lon="9.308492685275727"><ele>798.0</ele><time>2026-04-19T14:52:19Z</time></trkpt><trkpt lat="44.548537008856236" lon="9.308423746570787"><ele>798.0</ele><time>2026-04-19T14:52:20Z</time></trkpt><trkpt lat="44.54844685418538" lon="9.30840324879186"><ele>798.0</ele><time>2026-04-19T14:52:21Z</time></trkpt><trkpt lat="44.548344895022765" lon="9.308406121555436"><ele>798.0</ele><time>2026-04-19T14:52:22Z</time></trkpt><trkpt lat="44.54824541201604" lon="9.30837957702687"><ele>798.0</ele><time>2026-04-19T14:52:23Z</time></trkpt><trkpt lat="44.548159511845995" lon="9.308319830730836"><ele>798.0</ele><time>2026-04-19T14:52:24Z</time></trkpt><trkpt lat="44.54811500734886" lon="9.308202574021132"><ele>798.0</ele><time>2026-04-19T14:52:25Z</time></trkpt><trkpt lat="44.54808244229087" lon="9.308059124108704"><ele>798.0</ele><time>2026-04-19T14:52:26Z</time></trkpt><trkpt lat="44.54804868030901" lon="9.307893029553485"><ele>798.0</ele><time>2026-04-19T14:52:27Z</time></trkpt><trkpt lat="44.54803317392538" lon="9.30774587970395"><ele>798.0</ele><time>2026-04-19T14:52:28Z</time></trkpt><trkpt lat="44.54801343786656" lon="9.307614385256102"><ele>797.3333333333334</ele><time>2026-04-19T14:52:29Z</time></trkpt><trkpt lat="44.54795072366943" lon="9.307517863439974"><ele>796.6666666666667</ele><time>2026-04-19T14:52:30Z</time></trkpt><trkpt lat="44.547864266539534" lon="9.307476916990858"><ele>796.0</ele><time>2026-04-19T14:52:31Z</time></trkpt><trkpt lat="44.547762663747925" lon="9.307521888916698"><ele>795.3333333333334</ele><time>2026-04-19T14:52:32Z</time></trkpt><trkpt lat="44.54768437488515" lon="9.307490023639234"><ele>794.6666666666667</ele><time>2026-04-19T14:52:33Z</time></trkpt><trkpt lat="44.547617882628586" lon="9.307480709112927"><ele>794.0</ele><time>2026-04-19T14:52:34Z</time></trkpt><trkpt lat="44.54757626075175" lon="9.307389476421553"><ele>797.8000000000001</ele><time>2026-04-19T14:52:35Z</time></trkpt><trkpt lat="44.54755505648354" lon="9.307270080659142"><ele>801.6</ele><time>2026-04-19T14:52:36Z</time></trkpt><trkpt lat="44.54755693928863" lon="9.307136578846034"><ele>805.4</ele><time>2026-04-19T14:52:37Z</time></trkpt><trkpt lat="44.547569665784046" lon="9.306998977886963"><ele>809.2</ele><time>2026-04-19T14:52:38Z</time></trkpt><trkpt lat="44.547587272362016" lon="9.306869052918204"><ele>813.0</ele><time>2026-04-19T14:52:39Z</time></trkpt><trkpt lat="44.54762582313821" lon="9.306748241844083"><ele>813.0</ele><time>2026-04-19T14:52:40Z</time></trkpt><trkpt lat="44.54766665355248" lon="9.30662826156428"><ele>813.0</ele><time>2026-04-19T14:52:41Z</time></trkpt><trkpt lat="44.547703333244186" lon="9.306513461326324"><ele>813.0</ele><time>2026-04-19T14:52:42Z</time></trkpt><trkpt lat="44.54772325070456" lon="9.30641138978534"><ele>813.0</ele><time>2026-04-19T14:52:43Z</time></trkpt><trkpt lat="44.54772109881504" lon="9.306309914348027"><ele>813.0</ele><time>2026-04-19T14:52:44Z</time></trkpt><trkpt lat="44.547699367867494" lon="9.306199347301753"><ele>813.0</ele><time>2026-04-19T14:52:45Z</time></trkpt><trkpt lat="44.54767514183777" lon="9.306073976789378"><ele>812.25</ele><time>2026-04-19T14:52:46Z</time></trkpt><trkpt lat="44.54766063864926" lon="9.305933921803"><ele>811.5</ele><time>2026-04-19T14:52:47Z</time></trkpt><trkpt lat="44.54764425031662" lon="9.305771420181514"><ele>810.75</ele><time>2026-04-19T14:52:48Z</time></trkpt><trkpt lat="44.54762905051879" lon="9.305584422535533"><ele>810.0</ele><time>2026-04-19T14:52:49Z</time></trkpt><trkpt lat="44.54761116169236" lon="9.305390498230121"><ele>809.75</ele><time>2026-04-19T14:52:50Z</time></trkpt><trkpt lat="44.54759838928203" lon="9.305223186821364"><ele>809.5</ele><time>2026-04-19T14:52:51Z</time></trkpt><trkpt lat="44.54758950280009" lon="9.305065754585462"><ele>809.25</ele><time>2026-04-19T14:52:52Z</time></trkpt><trkpt lat="44.54758624889252" lon="9.304902279858675"><ele>809.0</ele><time>2026-04-19T14:52:53Z</time></trkpt><trkpt lat="44.547573006479475" lon="9.304729084685901"><ele>808.5</ele><time>2026-04-19T14:52:54Z</time></trkpt><trkpt lat="44.54756342407494" lon="9.304565223641516"><ele>808.0</ele><time>2026-04-19T14:52:55Z</time></trkpt><trkpt lat="44.54755515819997" lon="9.304410056945763"><ele>807.5</ele><time>2026-04-19T14:52:56Z</time></trkpt><trkpt lat="44.547566470547615" lon="9.30425451609685"><ele>807.0</ele><time>2026-04-19T14:52:57Z</time></trkpt><trkpt lat="44.54758785244333" lon="9.304103059411919"><ele>807.0</ele><time>2026-04-19T14:52:58Z</time></trkpt><trkpt lat="44.547603050063024" lon="9.303976190258028"><ele>807.0</ele><time>2026-04-19T14:52:59Z</time></trkpt><trkpt lat="44.547620328195805" lon="9.303858051144905"><ele>807.0</ele><time>2026-04-19T14:53:00Z</time></trkpt><trkpt lat="44.547615556041556" lon="9.30373125779563"><ele>807.0</ele><time>2026-04-19T14:53:01Z</time></trkpt><trkpt lat="44.547604617451825" lon="9.303603490915764"><ele>807.0</ele><time>2026-04-19T14:53:02Z</time></trkpt><trkpt lat="44.54757400550537" lon="9.30351172703737"><ele>807.0</ele><time>2026-04-19T14:53:03Z</time></trkpt><trkpt lat="44.547524474573855" lon="9.303413464165963"><ele>807.0</ele><time>2026-04-19T14:53:04Z</time></trkpt><trkpt lat="44.54746567434614" lon="9.30331483948951"><ele>807.0</ele><time>2026-04-19T14:53:05Z</time></trkpt><trkpt lat="44.547408702207896" lon="9.303202789866594"><ele>807.0</ele><time>2026-04-19T14:53:06Z</time></trkpt><trkpt lat="44.54736591646154" lon="9.303087448490702"><ele>807.0</ele><time>2026-04-19T14:53:07Z</time></trkpt><trkpt lat="44.54731867876175" lon="9.302984259486294"><ele>807.0</ele><time>2026-04-19T14:53:08Z</time></trkpt><trkpt lat="44.54727091825607" lon="9.302884959604945"><ele>807.0</ele><time>2026-04-19T14:53:09Z</time></trkpt><trkpt lat="44.54721389416036" lon="9.302773488145263"><ele>807.0</ele><time>2026-04-19T14:53:10Z</time></trkpt><trkpt lat="44.54716805591232" lon="9.302690493691037"><ele>807.0</ele><time>2026-04-19T14:53:11Z</time></trkpt><trkpt lat="44.5471024052769" lon="9.302605909844626"><ele>807.0</ele><time>2026-04-19T14:53:13Z</time></trkpt><trkpt lat="44.54704521521126" lon="9.302555189016289"><ele>807.0</ele><time>2026-04-19T14:53:17Z</time></trkpt><trkpt lat="44.546996116446095" lon="9.302497685418633"><ele>807.0</ele><time>2026-04-19T14:53:30Z</time></trkpt><trkpt lat="44.547216866891176" lon="9.30236643421666"><ele>800.0</ele><time>2026-04-19T14:53:31Z</time></trkpt><trkpt lat="44.547080788383724" lon="9.302998408009982"><ele>802.0000000000001</ele><time>2026-04-19T14:53:36Z</time></trkpt><trkpt lat="44.547040320458336" lon="9.303085439692161"><ele>804.0</ele><time>2026-04-19T14:53:39Z</time></trkpt><trkpt lat="44.54701744764999" lon="9.303197947908233"><ele>806.0</ele><time>2026-04-19T14:53:41Z</time></trkpt><trkpt lat="44.54700690255823" lon="9.303333778631114"><ele>808.0</ele><time>2026-04-19T14:53:43Z</time></trkpt><trkpt lat="44.5469675273417" lon="9.303469984765663"><ele>810.0000000000001</ele><time>2026-04-19T14:53:45Z</time></trkpt><trkpt lat="44.547006609329756" lon="9.303547111241201"><ele>812.0</ele><time>2026-04-19T14:53:47Z</time></trkpt><trkpt lat="44.54701717366275" lon="9.303682869224831"><ele>812.0000000000001</ele><time>2026-04-19T14:53:48.999Z</time></trkpt><trkpt lat="44.54700640172882" lon="9.303773566993192"><ele>812.0</ele><time>2026-04-19T14:53:50.999Z</time></trkpt><trkpt lat="44.54700363734302" lon="9.303884836256454"><ele>812.0</ele><time>2026-04-19T14:53:53Z</time></trkpt><trkpt lat="44.546944875933164" lon="9.303964588902721"><ele>812.0</ele><time>2026-04-19T14:53:55Z</time></trkpt><trkpt lat="44.546907694868544" lon="9.304062485060548"><ele>812.0000000000001</ele><time>2026-04-19T14:53:57Z</time></trkpt><trkpt lat="44.5468741667368" lon="9.304175123441512"><ele>812.0</ele><time>2026-04-19T14:53:59Z</time></trkpt><trkpt lat="44.54684312044224" lon="9.304315991565343"><ele>817.0</ele><time>2026-04-19T14:54:01Z</time></trkpt><trkpt lat="44.546804035439294" lon="9.304425124358504"><ele>817.0</ele><time>2026-04-19T14:54:03Z</time></trkpt><trkpt lat="44.5467708319721" lon="9.304521990926409"><ele>817.0</ele><time>2026-04-19T14:54:05Z</time></trkpt><trkpt lat="44.54672341324141" lon="9.304614664408641"><ele>817.0</ele><time>2026-04-19T14:54:08Z</time></trkpt><trkpt lat="44.546738198428756" lon="9.304704658236847"><ele>817.0</ele><time>2026-04-19T14:55:46.999Z</time></trkpt></trkseg><trkseg><trkpt lat="44.54664392927025" lon="9.304641199373222"><ele>816.9999999999999</ele><time>2026-04-19T15:22:28.022Z</time></trkpt><trkpt lat="44.54658732581688" lon="9.304584529368396"><ele>817.0</ele><time>2026-04-19T15:23:10Z</time></trkpt><trkpt lat="44.54661465278022" lon="9.304668364703197"><ele>817.0</ele><time>2026-04-19T15:23:46.999Z</time></trkpt><trkpt lat="44.54655277696532" lon="9.304774791366839"><ele>817.0</ele><time>2026-04-19T15:24:04.999Z</time></trkpt><trkpt lat="44.5464281838293" lon="9.30481617221595"><ele>816.9999999999999</ele><time>2026-04-19T15:24:06.999Z</time></trkpt><trkpt lat="44.5463561987109" lon="9.304831168645498"><ele>817.0</ele><time>2026-04-19T15:24:07.999Z</time></trkpt><trkpt lat="44.54625108099901" lon="9.30481102374039"><ele>817.3333333333333</ele><time>2026-04-19T15:24:09.999Z</time></trkpt><trkpt lat="44.54617419182179" lon="9.304821150514194"><ele>817.6666666666666</ele><time>2026-04-19T15:24:10.999Z</time></trkpt><trkpt lat="44.54610499103463" lon="9.304825099458633"><ele>818.0</ele><time>2026-04-19T15:24:11.999Z</time></trkpt><trkpt lat="44.54599067729557" lon="9.30484146697166"><ele>818.3333333333333</ele><time>2026-04-19T15:24:13.999Z</time></trkpt><trkpt lat="44.54588178996136" lon="9.304895581947115"><ele>818.6666666666666</ele><time>2026-04-19T15:24:15.999Z</time></trkpt><trkpt lat="44.54582077368652" lon="9.304929146653928"><ele>819.0</ele><time>2026-04-19T15:24:16.999Z</time></trkpt><trkpt lat="44.545747719561405" lon="9.304945902923917"><ele>819.0</ele><time>2026-04-19T15:24:17.999Z</time></trkpt><trkpt lat="44.54563013540614" lon="9.304987390117113"><ele>819.0</ele><time>2026-04-19T15:24:19.999Z</time></trkpt><trkpt lat="44.54554905796443" lon="9.305076481249113"><ele>819.0</ele><time>2026-04-19T15:24:21.999Z</time></trkpt><trkpt lat="44.545508884255284" lon="9.305196780828764"><ele>819.0</ele><time>2026-04-19T15:24:23.999Z</time></trkpt><trkpt lat="44.54550051180217" lon="9.305351244566936"><ele>819.0</ele><time>2026-04-19T15:24:25.999Z</time></trkpt><trkpt lat="44.54545104958907" lon="9.305473449817244"><ele>819.0</ele><time>2026-04-19T15:24:27.999Z</time></trkpt><trkpt lat="44.54542178266842" lon="9.305555505195533"><ele>819.0</ele><time>2026-04-19T15:24:28.999Z</time></trkpt><trkpt lat="44.545365756174895" lon="9.305696063248016"><ele>819.0</ele><time>2026-04-19T15:24:30.999Z</time></trkpt><trkpt lat="44.545343808581976" lon="9.30577909817598"><ele>819.0</ele><time>2026-04-19T15:24:31.999Z</time></trkpt><trkpt lat="44.545294236241915" lon="9.305836236055285"><ele>819.0</ele><time>2026-04-19T15:24:32.999Z</time></trkpt><trkpt lat="44.54526721215703" lon="9.305920482752741"><ele>819.0</ele><time>2026-04-19T15:24:33.999Z</time></trkpt><trkpt lat="44.54522063475909" lon="9.30598385598616"><ele>819.0</ele><time>2026-04-19T15:24:34.999Z</time></trkpt><trkpt lat="44.545144199893414" lon="9.306080377008511"><ele>817.3333333333334</ele><time>2026-04-19T15:24:37Z</time></trkpt><trkpt lat="44.54507233449741" lon="9.306132155321604"><ele>815.6666666666667</ele><time>2026-04-19T15:24:39Z</time></trkpt><trkpt lat="44.544967345860215" lon="9.306156319357784"><ele>814.0</ele><time>2026-04-19T15:24:41Z</time></trkpt><trkpt lat="44.544897166048905" lon="9.30625273026814"><ele>812.3333333333334</ele><time>2026-04-19T15:24:42Z</time></trkpt><trkpt lat="44.54481598521165" lon="9.306274915905192"><ele>810.6666666666667</ele><time>2026-04-19T15:24:43Z</time></trkpt><trkpt lat="44.54473842801041" lon="9.306275162647205"><ele>809.0</ele><time>2026-04-19T15:24:44Z</time></trkpt><trkpt lat="44.544670903026166" lon="9.306280223489141"><ele>809.0000000000001</ele><time>2026-04-19T15:24:45Z</time></trkpt><trkpt lat="44.5446041651192" lon="9.306261812131062"><ele>809.0</ele><time>2026-04-19T15:24:46Z</time></trkpt><trkpt lat="44.544529657370596" lon="9.306236442071107"><ele>809.0</ele><time>2026-04-19T15:24:47Z</time></trkpt><trkpt lat="44.54445276420273" lon="9.30620345403494"><ele>809.0</ele><time>2026-04-19T15:24:48Z</time></trkpt><trkpt lat="44.54439048587829" lon="9.306137616553364"><ele>809.0000000000001</ele><time>2026-04-19T15:24:49Z</time></trkpt><trkpt lat="44.544336774082566" lon="9.306031898213174"><ele>809.0</ele><time>2026-04-19T15:24:50Z</time></trkpt><trkpt lat="44.544297150863784" lon="9.305909949095042"><ele>808.8000000000001</ele><time>2026-04-19T15:24:51Z</time></trkpt><trkpt lat="44.54425301255776" lon="9.30576062525741"><ele>808.6</ele><time>2026-04-19T15:24:52Z</time></trkpt><trkpt lat="44.5442070064871" lon="9.305588027290227"><ele>808.4</ele><time>2026-04-19T15:24:53Z</time></trkpt><trkpt lat="44.544177216678065" lon="9.305481437283223"><ele>808.2</ele><time>2026-04-19T15:24:54Z</time></trkpt><trkpt lat="44.54414368465368" lon="9.3053421413282"><ele>808.0</ele><time>2026-04-19T15:24:56Z</time></trkpt><trkpt lat="44.54409115560058" lon="9.305175358325483"><ele>808.5999999999999</ele><time>2026-04-19T15:24:58Z</time></trkpt><trkpt lat="44.544038532650944" lon="9.305060282657058"><ele>809.1999999999999</ele><time>2026-04-19T15:24:59Z</time></trkpt><trkpt lat="44.54397126001262" lon="9.304945445746666"><ele>809.8</ele><time>2026-04-19T15:25:00Z</time></trkpt><trkpt lat="44.543894208610226" lon="9.304870989628075"><ele>810.4</ele><time>2026-04-19T15:25:01Z</time></trkpt><trkpt lat="44.543814694652745" lon="9.304825504014183"><ele>811.0</ele><time>2026-04-19T15:25:02Z</time></trkpt><trkpt lat="44.543741346091416" lon="9.304797699434955"><ele>811.8</ele><time>2026-04-19T15:25:03Z</time></trkpt><trkpt lat="44.543667072038886" lon="9.304788094327765"><ele>812.5999999999999</ele><time>2026-04-19T15:25:04Z</time></trkpt><trkpt lat="44.54357851481263" lon="9.304755215664233"><ele>813.4</ele><time>2026-04-19T15:25:05Z</time></trkpt><trkpt lat="44.54347694353869" lon="9.304763966247442"><ele>814.2</ele><time>2026-04-19T15:25:06Z</time></trkpt><trkpt lat="44.54339032562439" lon="9.30479184946178"><ele>815.0</ele><time>2026-04-19T15:25:07Z</time></trkpt><trkpt lat="44.54332068754259" lon="9.30488597502213"><ele>815.0000000000001</ele><time>2026-04-19T15:25:08Z</time></trkpt><trkpt lat="44.54325453779618" lon="9.304960788248504"><ele>815.0</ele><time>2026-04-19T15:25:09Z</time></trkpt><trkpt lat="44.543196929852115" lon="9.3050489937008"><ele>815.0</ele><time>2026-04-19T15:25:10Z</time></trkpt><trkpt lat="44.54312376403449" lon="9.305099319959885"><ele>815.0</ele><time>2026-04-19T15:25:11Z</time></trkpt><trkpt lat="44.54301459766486" lon="9.305165548429546"><ele>815.0000000000001</ele><time>2026-04-19T15:25:13Z</time></trkpt><trkpt lat="44.5429657118494" lon="9.305094963042071"><ele>815.0</ele><time>2026-04-19T15:25:14Z</time></trkpt><trkpt lat="44.54290442360984" lon="9.304934163004143"><ele>815.0</ele><time>2026-04-19T15:25:16Z</time></trkpt><trkpt lat="44.542946518909154" lon="9.304793311370048"><ele>815.0</ele><time>2026-04-19T15:25:17Z</time></trkpt><trkpt lat="44.542956546436784" lon="9.304659837767256"><ele>815.0</ele><time>2026-04-19T15:25:18Z</time></trkpt><trkpt lat="44.54297433044803" lon="9.304504633558835"><ele>815.0</ele><time>2026-04-19T15:25:19Z</time></trkpt><trkpt lat="44.54298471754046" lon="9.304341202307032"><ele>815.0</ele><time>2026-04-19T15:25:20Z</time></trkpt><trkpt lat="44.543019505934744" lon="9.304176472783377"><ele>814.6</ele><time>2026-04-19T15:25:21Z</time></trkpt><trkpt lat="44.543075917389366" lon="9.304010673138846"><ele>814.2</ele><time>2026-04-19T15:25:22Z</time></trkpt><trkpt lat="44.5431136630837" lon="9.303868703598022"><ele>813.8</ele><time>2026-04-19T15:25:23Z</time></trkpt><trkpt lat="44.54313750092584" lon="9.303743136655699"><ele>813.4</ele><time>2026-04-19T15:25:24Z</time></trkpt><trkpt lat="44.54320635396154" lon="9.30363194051649"><ele>813.0</ele><time>2026-04-19T15:25:25Z</time></trkpt><trkpt lat="44.54328261136346" lon="9.303541300917946"><ele>813.0</ele><time>2026-04-19T15:25:26Z</time></trkpt><trkpt lat="44.543345908396034" lon="9.303467445595079"><ele>813.0</ele><time>2026-04-19T15:25:27Z</time></trkpt><trkpt lat="44.543404292789575" lon="9.303393542667566"><ele>813.0</ele><time>2026-04-19T15:25:28Z</time></trkpt><trkpt lat="44.54344711196113" lon="9.303295045827506"><ele>813.0</ele><time>2026-04-19T15:25:29Z</time></trkpt><trkpt lat="44.543473787174115" lon="9.303174365073055"><ele>813.0</ele><time>2026-04-19T15:25:30Z</time></trkpt><trkpt lat="44.543469702529634" lon="9.303049120437816"><ele>813.0</ele><time>2026-04-19T15:25:31Z</time></trkpt><trkpt lat="44.54342940827875" lon="9.302920498450684"><ele>813.25</ele><time>2026-04-19T15:25:32Z</time></trkpt><trkpt lat="44.543363750871464" lon="9.302804381096092"><ele>813.5</ele><time>2026-04-19T15:25:33Z</time></trkpt><trkpt lat="44.543279767463375" lon="9.302709514250278"><ele>813.75</ele><time>2026-04-19T15:25:34Z</time></trkpt><trkpt lat="44.54319004701479" lon="9.302599427094085"><ele>814.0</ele><time>2026-04-19T15:25:35Z</time></trkpt><trkpt lat="44.54314782826796" lon="9.302444586843"><ele>814.0</ele><time>2026-04-19T15:25:36Z</time></trkpt><trkpt lat="44.54310563349306" lon="9.302316007389638"><ele>814.0</ele><time>2026-04-19T15:25:37Z</time></trkpt><trkpt lat="44.54308977599206" lon="9.302184879542155"><ele>814.0</ele><time>2026-04-19T15:25:38Z</time></trkpt><trkpt lat="44.5430576635687" lon="9.302074729396601"><ele>814.0</ele><time>2026-04-19T15:25:39Z</time></trkpt><trkpt lat="44.542995759059664" lon="9.301968797771599"><ele>814.0</ele><time>2026-04-19T15:25:40Z</time></trkpt><trkpt lat="44.542915831042826" lon="9.301893119467222"><ele>816.9999999999999</ele><time>2026-04-19T15:25:41Z</time></trkpt><trkpt lat="44.54285973165491" lon="9.30181263780879"><ele>820.0</ele><time>2026-04-19T15:25:42Z</time></trkpt><trkpt lat="44.542792859370834" lon="9.301753322372678"><ele>823.0</ele><time>2026-04-19T15:25:43Z</time></trkpt><trkpt lat="44.54279478239974" lon="9.30165250278502"><ele>826.0</ele><time>2026-04-19T15:25:44Z</time></trkpt><trkpt lat="44.542804982094445" lon="9.301542280038698"><ele>828.9999999999999</ele><time>2026-04-19T15:25:45Z</time></trkpt><trkpt lat="44.54287116545303" lon="9.301431853775739"><ele>832.0</ele><time>2026-04-19T15:25:46Z</time></trkpt><trkpt lat="44.5429451929868" lon="9.301316608535167"><ele>824.6</ele><time>2026-04-19T15:25:47Z</time></trkpt><trkpt lat="44.54298547805034" lon="9.30118741519293"><ele>817.2</ele><time>2026-04-19T15:25:48Z</time></trkpt><trkpt lat="44.542999749506166" lon="9.30105403020708"><ele>809.8</ele><time>2026-04-19T15:25:49Z</time></trkpt><trkpt lat="44.542986849093204" lon="9.300895744305096"><ele>802.4</ele><time>2026-04-19T15:25:50Z</time></trkpt><trkpt lat="44.5429710128838" lon="9.300736688946094"><ele>795.0</ele><time>2026-04-19T15:25:50.999Z</time></trkpt><trkpt lat="44.54295436734337" lon="9.300558340403553"><ele>792.5</ele><time>2026-04-19T15:25:51.999Z</time></trkpt><trkpt lat="44.542952357938645" lon="9.300388364057302"><ele>790.0</ele><time>2026-04-19T15:25:52.999Z</time></trkpt><trkpt lat="44.542942580487995" lon="9.300230062615539"><ele>787.5</ele><time>2026-04-19T15:25:53.999Z</time></trkpt><trkpt lat="44.54291107866935" lon="9.300076093724119"><ele>785.0</ele><time>2026-04-19T15:25:54.999Z</time></trkpt><trkpt lat="44.54286648244721" lon="9.299900088851668"><ele>791.0</ele><time>2026-04-19T15:25:55.999Z</time></trkpt><trkpt lat="44.54286187304329" lon="9.299721182747799"><ele>797.0</ele><time>2026-04-19T15:25:56.999Z</time></trkpt><trkpt lat="44.54285400472564" lon="9.299562102292054"><ele>803.0</ele><time>2026-04-19T15:25:57.999Z</time></trkpt><trkpt lat="44.54282703964882" lon="9.29941912374976"><ele>809.0</ele><time>2026-04-19T15:25:58.999Z</time></trkpt><trkpt lat="44.542768522112006" lon="9.299291995473464"><ele>809.0000000000001</ele><time>2026-04-19T15:25:59.999Z</time></trkpt><trkpt lat="44.54273227587529" lon="9.299163429383928"><ele>809.0</ele><time>2026-04-19T15:26:00.999Z</time></trkpt><trkpt lat="44.542693894856065" lon="9.29905640555809"><ele>809.0</ele><time>2026-04-19T15:26:01.999Z</time></trkpt><trkpt lat="44.5426700131449" lon="9.298968109885035"><ele>809.0</ele><time>2026-04-19T15:26:02.999Z</time></trkpt><trkpt lat="44.54266313042933" lon="9.298876349833618"><ele>809.0000000000001</ele><time>2026-04-19T15:26:03.999Z</time></trkpt><trkpt lat="44.54272514243007" lon="9.29878403710476"><ele>809.0</ele><time>2026-04-19T15:26:04.999Z</time></trkpt><trkpt lat="44.5427962084826" lon="9.298710144856255"><ele>809.8000000000001</ele><time>2026-04-19T15:26:05.999Z</time></trkpt><trkpt lat="44.54286521625728" lon="9.298630122272524"><ele>810.6</ele><time>2026-04-19T15:26:06.999Z</time></trkpt><trkpt lat="44.54294502110444" lon="9.298543680469727"><ele>811.4</ele><time>2026-04-19T15:26:07.999Z</time></trkpt><trkpt lat="44.54301620704825" lon="9.2984601477806"><ele>812.2</ele><time>2026-04-19T15:26:08.999Z</time></trkpt><trkpt lat="44.543096121421016" lon="9.298371528511822"><ele>813.0</ele><time>2026-04-19T15:26:09.999Z</time></trkpt><trkpt lat="44.543183276116245" lon="9.298273434628948"><ele>808.25</ele><time>2026-04-19T15:26:10.999Z</time></trkpt><trkpt lat="44.543281259195396" lon="9.298199169544558"><ele>803.5</ele><time>2026-04-19T15:26:11.999Z</time></trkpt><trkpt lat="44.543399442296916" lon="9.298131634391002"><ele>798.75</ele><time>2026-04-19T15:26:12.999Z</time></trkpt><trkpt lat="44.54353505566838" lon="9.298093613904078"><ele>794.0</ele><time>2026-04-19T15:26:13.999Z</time></trkpt><trkpt lat="44.54365526729632" lon="9.29804172120911"><ele>790.8000000000001</ele><time>2026-04-19T15:26:14.999Z</time></trkpt><trkpt lat="44.54376322984913" lon="9.298001946247107"><ele>787.6</ele><time>2026-04-19T15:26:15.999Z</time></trkpt><trkpt lat="44.54385773895089" lon="9.2979644341052"><ele>784.4</ele><time>2026-04-19T15:26:16.999Z</time></trkpt><trkpt lat="44.54393886832198" lon="9.29792870659717"><ele>781.2</ele><time>2026-04-19T15:26:17.999Z</time></trkpt><trkpt lat="44.544007878331634" lon="9.297870692674154"><ele>778.0</ele><time>2026-04-19T15:26:18.999Z</time></trkpt><trkpt lat="44.54406223922359" lon="9.297778584366034"><ele>777.9999999999999</ele><time>2026-04-19T15:26:19.999Z</time></trkpt><trkpt lat="44.54410593321326" lon="9.297678071405237"><ele>778.0</ele><time>2026-04-19T15:26:20.999Z</time></trkpt><trkpt lat="44.54411520721352" lon="9.297562059824589"><ele>778.0</ele><time>2026-04-19T15:26:21.999Z</time></trkpt><trkpt lat="44.54410949460808" lon="9.29744016698714"><ele>778.0</ele><time>2026-04-19T15:26:22.999Z</time></trkpt><trkpt lat="44.544054700033314" lon="9.297346109083477"><ele>777.9999999999999</ele><time>2026-04-19T15:26:23.999Z</time></trkpt><trkpt lat="44.54396648856114" lon="9.297276615921549"><ele>778.0</ele><time>2026-04-19T15:26:24.999Z</time></trkpt><trkpt lat="44.543836046293286" lon="9.297257130401455"><ele>778.0</ele><time>2026-04-19T15:26:25.999Z</time></trkpt><trkpt lat="44.54372153582675" lon="9.297215536433933"><ele>778.0</ele><time>2026-04-19T15:26:26.999Z</time></trkpt><trkpt lat="44.543639420541375" lon="9.297175734845617"><ele>778.0</ele><time>2026-04-19T15:26:27.999Z</time></trkpt><trkpt lat="44.54356735704309" lon="9.29708883346282"><ele>778.0</ele><time>2026-04-19T15:26:29.999Z</time></trkpt><trkpt lat="44.54358676929099" lon="9.296975847249577"><ele>778.0</ele><time>2026-04-19T15:26:31.999Z</time></trkpt><trkpt lat="44.54370863851142" lon="9.296932602589585"><ele>778.0</ele><time>2026-04-19T15:26:33.999Z</time></trkpt><trkpt lat="44.54382179918668" lon="9.296964093248564"><ele>778.0</ele><time>2026-04-19T15:26:34.999Z</time></trkpt><trkpt lat="44.54391999626639" lon="9.296963965254827"><ele>778.0</ele><time>2026-04-19T15:26:35.999Z</time></trkpt><trkpt lat="44.544019189827225" lon="9.29695398350779"><ele>778.0</ele><time>2026-04-19T15:26:36.999Z</time></trkpt><trkpt lat="44.54410996410968" lon="9.296961602116394"><ele>778.0</ele><time>2026-04-19T15:26:37.999Z</time></trkpt><trkpt lat="44.54418606170404" lon="9.296984054868497"><ele>777.9999999999999</ele><time>2026-04-19T15:26:38.999Z</time></trkpt><trkpt lat="44.54427121327529" lon="9.297000931576058"><ele>778.0</ele><time>2026-04-19T15:26:39.999Z</time></trkpt><trkpt lat="44.544347710851575" lon="9.296995313962585"><ele>778.0</ele><time>2026-04-19T15:26:40.999Z</time></trkpt><trkpt lat="44.54442069421024" lon="9.296957480629743"><ele>778.0</ele><time>2026-04-19T15:26:42Z</time></trkpt><trkpt lat="44.54447735925517" lon="9.296885008619277"><ele>777.9999999999999</ele><time>2026-04-19T15:26:43Z</time></trkpt><trkpt lat="44.5445037119736" lon="9.296781997904928"><ele>778.0</ele><time>2026-04-19T15:26:44Z</time></trkpt><trkpt lat="44.54452161535333" lon="9.296660535437871"><ele>778.0</ele><time>2026-04-19T15:26:45Z</time></trkpt><trkpt lat="44.544490031110975" lon="9.296500040636307"><ele>778.0</ele><time>2026-04-19T15:26:46Z</time></trkpt><trkpt lat="44.54446683736672" lon="9.296342658417469"><ele>778.0</ele><time>2026-04-19T15:26:47Z</time></trkpt><trkpt lat="44.54445780165893" lon="9.296187416843637"><ele>778.0</ele><time>2026-04-19T15:26:48Z</time></trkpt><trkpt lat="44.544478352898224" lon="9.296067235196388"><ele>778.0</ele><time>2026-04-19T15:26:49Z</time></trkpt><trkpt lat="44.54445331434262" lon="9.295974279050801"><ele>777.5999999999999</ele><time>2026-04-19T15:26:50Z</time></trkpt><trkpt lat="44.54441659893475" lon="9.295864538381055"><ele>777.1999999999999</ele><time>2026-04-19T15:26:51Z</time></trkpt><trkpt lat="44.54432311489922" lon="9.295793937875587"><ele>776.8</ele><time>2026-04-19T15:26:52Z</time></trkpt><trkpt lat="44.54423255196286" lon="9.29574376487809"><ele>776.4</ele><time>2026-04-19T15:26:53Z</time></trkpt><trkpt lat="44.5441670398342" lon="9.295711654641135"><ele>776.0</ele><time>2026-04-19T15:26:54Z</time></trkpt><trkpt lat="44.54411207705691" lon="9.295590107178976"><ele>776.3333333333334</ele><time>2026-04-19T15:26:56Z</time></trkpt><trkpt lat="44.54414195802209" lon="9.295493238606294"><ele>776.6666666666667</ele><time>2026-04-19T15:26:57Z</time></trkpt><trkpt lat="44.54419442706881" lon="9.295377569554988"><ele>777.0</ele><time>2026-04-19T15:26:58Z</time></trkpt><trkpt lat="44.54425018065955" lon="9.295266494122084"><ele>777.3333333333333</ele><time>2026-04-19T15:26:59Z</time></trkpt><trkpt lat="44.544295558599096" lon="9.295161581399013"><ele>777.6666666666666</ele><time>2026-04-19T15:27:00Z</time></trkpt><trkpt lat="44.54435862548186" lon="9.295088021023801"><ele>778.0</ele><time>2026-04-19T15:27:01Z</time></trkpt><trkpt lat="44.54444278911687" lon="9.295036134560133"><ele>778.0</ele><time>2026-04-19T15:27:02Z</time></trkpt><trkpt lat="44.54453460047766" lon="9.295033666733513"><ele>778.0</ele><time>2026-04-19T15:27:03Z</time></trkpt><trkpt lat="44.544643395575186" lon="9.295045571539841"><ele>778.0</ele><time>2026-04-19T15:27:04Z</time></trkpt><trkpt lat="44.54475666101113" lon="9.295068889330828"><ele>778.0</ele><time>2026-04-19T15:27:05Z</time></trkpt><trkpt lat="44.54485514886977" lon="9.295054063257801"><ele>778.0</ele><time>2026-04-19T15:27:06Z</time></trkpt><trkpt lat="44.54496215452629" lon="9.294993116191954"><ele>774.25</ele><time>2026-04-19T15:27:07Z</time></trkpt><trkpt lat="44.54508112753384" lon="9.29491819635814"><ele>770.5</ele><time>2026-04-19T15:27:08Z</time></trkpt><trkpt lat="44.54521684148276" lon="9.294852656841245"><ele>766.75</ele><time>2026-04-19T15:27:09Z</time></trkpt><trkpt lat="44.545341824812226" lon="9.294805431177068"><ele>763.0</ele><time>2026-04-19T15:27:10Z</time></trkpt><trkpt lat="44.545453006475185" lon="9.294781397309054"><ele>764.2</ele><time>2026-04-19T15:27:11Z</time></trkpt><trkpt lat="44.54555676695662" lon="9.294750996118422"><ele>765.4</ele><time>2026-04-19T15:27:12Z</time></trkpt><trkpt lat="44.545663966646394" lon="9.29470266289281"><ele>766.6</ele><time>2026-04-19T15:27:13Z</time></trkpt><trkpt lat="44.545768280544515" lon="9.294656112058501"><ele>767.8000000000001</ele><time>2026-04-19T15:27:14Z</time></trkpt><trkpt lat="44.54585909052795" lon="9.294617281549787"><ele>769.0</ele><time>2026-04-19T15:27:15Z</time></trkpt><trkpt lat="44.545940441907874" lon="9.294582689274804"><ele>768.9999999999999</ele><time>2026-04-19T15:27:16Z</time></trkpt><trkpt lat="44.546015136192445" lon="9.294543493988341"><ele>769.0</ele><time>2026-04-19T15:27:17Z</time></trkpt><trkpt lat="44.546075974590444" lon="9.29449695707135"><ele>769.0</ele><time>2026-04-19T15:27:18Z</time></trkpt><trkpt lat="44.546113852010244" lon="9.294418594538465"><ele>769.0</ele><time>2026-04-19T15:27:19Z</time></trkpt><trkpt lat="44.546156950514835" lon="9.294319570720718"><ele>768.9999999999999</ele><time>2026-04-19T15:27:20Z</time></trkpt><trkpt lat="44.546157991487526" lon="9.29419104779282"><ele>769.0</ele><time>2026-04-19T15:27:21Z</time></trkpt><trkpt lat="44.54617914378105" lon="9.29404293647207"><ele>773.0</ele><time>2026-04-19T15:27:22Z</time></trkpt><trkpt lat="44.5462064639902" lon="9.293901121986671"><ele>777.0</ele><time>2026-04-19T15:27:23Z</time></trkpt><trkpt lat="44.54624974548098" lon="9.293757913231781"><ele>781.0</ele><time>2026-04-19T15:27:24Z</time></trkpt><trkpt lat="44.5463077413402" lon="9.29360959902834"><ele>785.0</ele><time>2026-04-19T15:27:25Z</time></trkpt><trkpt lat="44.54637495526629" lon="9.293463632930337"><ele>779.0</ele><time>2026-04-19T15:27:26Z</time></trkpt><trkpt lat="44.54643698063677" lon="9.29332672390812"><ele>773.0</ele><time>2026-04-19T15:27:27Z</time></trkpt><trkpt lat="44.54648511137475" lon="9.293189773675714"><ele>767.0</ele><time>2026-04-19T15:27:28Z</time></trkpt><trkpt lat="44.54653042844786" lon="9.293058985200881"><ele>761.0</ele><time>2026-04-19T15:27:29Z</time></trkpt><trkpt lat="44.546594065534414" lon="9.292927984096403"><ele>755.0</ele><time>2026-04-19T15:27:30Z</time></trkpt><trkpt lat="44.546668024467515" lon="9.292784742627406"><ele>755.0</ele><time>2026-04-19T15:27:31Z</time></trkpt><trkpt lat="44.54674377839276" lon="9.292669939544208"><ele>755.0</ele><time>2026-04-19T15:27:32Z</time></trkpt><trkpt lat="44.546822496409796" lon="9.292553533444062"><ele>755.0</ele><time>2026-04-19T15:27:33Z</time></trkpt><trkpt lat="44.54688734783842" lon="9.292463369333467"><ele>755.0</ele><time>2026-04-19T15:27:34Z</time></trkpt><trkpt lat="44.54694236128217" lon="9.292378674291463"><ele>755.0</ele><time>2026-04-19T15:27:35Z</time></trkpt><trkpt lat="44.54698554776797" lon="9.292294114736013"><ele>755.2</ele><time>2026-04-19T15:27:36Z</time></trkpt><trkpt lat="44.54702975241916" lon="9.292184451635203"><ele>755.4</ele><time>2026-04-19T15:27:37Z</time></trkpt><trkpt lat="44.5470441848165" lon="9.292061462675422"><ele>755.5999999999999</ele><time>2026-04-19T15:27:38Z</time></trkpt><trkpt lat="44.547050026275755" lon="9.291929502264038"><ele>755.8</ele><time>2026-04-19T15:27:39Z</time></trkpt><trkpt lat="44.547000170486186" lon="9.291786637642671"><ele>756.0</ele><time>2026-04-19T15:27:40Z</time></trkpt><trkpt lat="44.54692589413512" lon="9.291696527005787"><ele>756.0</ele><time>2026-04-19T15:27:41Z</time></trkpt><trkpt lat="44.546887355420424" lon="9.291602382088417"><ele>756.0</ele><time>2026-04-19T15:27:42Z</time></trkpt><trkpt lat="44.546839218168046" lon="9.29152537730225"><ele>756.0</ele><time>2026-04-19T15:27:43Z</time></trkpt><trkpt lat="44.546802942744485" lon="9.291450468489233"><ele>756.0</ele><time>2026-04-19T15:27:44Z</time></trkpt><trkpt lat="44.54678103283042" lon="9.291293833983753"><ele>756.0</ele><time>2026-04-19T15:27:46Z</time></trkpt><trkpt lat="44.54682723182029" lon="9.291219592709417"><ele>756.0</ele><time>2026-04-19T15:27:47Z</time></trkpt><trkpt lat="44.54689108402522" lon="9.291159260712737"><ele>758.1666666666666</ele><time>2026-04-19T15:27:48Z</time></trkpt><trkpt lat="44.54697334082323" lon="9.291119771607967"><ele>760.3333333333333</ele><time>2026-04-19T15:27:49Z</time></trkpt><trkpt lat="44.54706984870444" lon="9.29108375550375"><ele>762.5</ele><time>2026-04-19T15:27:50Z</time></trkpt><trkpt lat="44.54714342476331" lon="9.291042766646429"><ele>764.6666666666666</ele><time>2026-04-19T15:27:51Z</time></trkpt><trkpt lat="44.54720645639567" lon="9.290981673755246"><ele>766.8333333333333</ele><time>2026-04-19T15:27:52Z</time></trkpt><trkpt lat="44.5472626361569" lon="9.290885939271275"><ele>769.0</ele><time>2026-04-19T15:27:53Z</time></trkpt><trkpt lat="44.547285390840116" lon="9.290783158988829"><ele>763.8333333333333</ele><time>2026-04-19T15:27:54Z</time></trkpt><trkpt lat="44.54732067946432" lon="9.290692568946202"><ele>758.6666666666666</ele><time>2026-04-19T15:27:55Z</time></trkpt><trkpt lat="44.54738693772768" lon="9.290640362504359"><ele>753.5</ele><time>2026-04-19T15:27:55.999Z</time></trkpt><trkpt lat="44.54746651720378" lon="9.29063239258254"><ele>748.3333333333333</ele><time>2026-04-19T15:27:56.999Z</time></trkpt><trkpt lat="44.54755876848794" lon="9.290643491559052"><ele>743.1666666666666</ele><time>2026-04-19T15:27:57.999Z</time></trkpt><trkpt lat="44.54766106660482" lon="9.29064773379129"><ele>738.0</ele><time>2026-04-19T15:27:58.999Z</time></trkpt><trkpt lat="44.5477631408317" lon="9.29065217993508"><ele>738.0</ele><time>2026-04-19T15:27:59.999Z</time></trkpt><trkpt lat="44.547873339295414" lon="9.29065367241948"><ele>738.0</ele><time>2026-04-19T15:28:00.999Z</time></trkpt><trkpt lat="44.547999371865274" lon="9.290658335385269"><ele>738.0</ele><time>2026-04-19T15:28:01.999Z</time></trkpt><trkpt lat="44.548113726890115" lon="9.290664163755215"><ele>738.0</ele><time>2026-04-19T15:28:02.999Z</time></trkpt><trkpt lat="44.54820932682616" lon="9.290675139699047"><ele>738.0</ele><time>2026-04-19T15:28:03.999Z</time></trkpt><trkpt lat="44.54828881939641" lon="9.290687857108072"><ele>736.0</ele><time>2026-04-19T15:28:04.999Z</time></trkpt><trkpt lat="44.548358493374195" lon="9.29069222829317"><ele>734.0</ele><time>2026-04-19T15:28:05.999Z</time></trkpt><trkpt lat="44.54846414187188" lon="9.29059619201095"><ele>732.0</ele><time>2026-04-19T15:28:07.999Z</time></trkpt><trkpt lat="44.54848085053753" lon="9.290487835522248"><ele>730.0</ele><time>2026-04-19T15:28:08.999Z</time></trkpt><trkpt lat="44.54844679172655" lon="9.290358809829511"><ele>728.0</ele><time>2026-04-19T15:28:09.999Z</time></trkpt><trkpt lat="44.548427572752935" lon="9.290234743437942"><ele>728.0</ele><time>2026-04-19T15:28:10.999Z</time></trkpt><trkpt lat="44.548437146337605" lon="9.290099742059615"><ele>728.0</ele><time>2026-04-19T15:28:11.999Z</time></trkpt><trkpt lat="44.54845429994934" lon="9.289957904714068"><ele>728.0</ele><time>2026-04-19T15:28:12.999Z</time></trkpt><trkpt lat="44.54848607548873" lon="9.289792937541861"><ele>728.0</ele><time>2026-04-19T15:28:13.999Z</time></trkpt><trkpt lat="44.54851965036792" lon="9.289616588475234"><ele>727.75</ele><time>2026-04-19T15:28:14.999Z</time></trkpt><trkpt lat="44.54855020797831" lon="9.28940710714388"><ele>727.5</ele><time>2026-04-19T15:28:15.999Z</time></trkpt><trkpt lat="44.54858620712042" lon="9.289209891405658"><ele>727.25</ele><time>2026-04-19T15:28:16.999Z</time></trkpt><trkpt lat="44.54861865705309" lon="9.28902706335973"><ele>727.0</ele><time>2026-04-19T15:28:17.999Z</time></trkpt><trkpt lat="44.548643999162735" lon="9.288860882179028"><ele>728.8</ele><time>2026-04-19T15:28:18.999Z</time></trkpt><trkpt lat="44.548658905781224" lon="9.288694163751996"><ele>730.6</ele><time>2026-04-19T15:28:19.999Z</time></trkpt><trkpt lat="44.54867185568693" lon="9.288533219740405"><ele>732.4</ele><time>2026-04-19T15:28:20.999Z</time></trkpt><trkpt lat="44.54869070681468" lon="9.288385047499178"><ele>734.1999999999999</ele><time>2026-04-19T15:28:21.999Z</time></trkpt><trkpt lat="44.54873457852841" lon="9.288252562139503"><ele>736.0</ele><time>2026-04-19T15:28:22.999Z</time></trkpt><trkpt lat="44.5488116014597" lon="9.288107112157652"><ele>732.8</ele><time>2026-04-19T15:28:23.999Z</time></trkpt><trkpt lat="44.548883220836856" lon="9.2879830885762"><ele>729.5999999999999</ele><time>2026-04-19T15:28:24.999Z</time></trkpt><trkpt lat="44.54894697020351" lon="9.287875080780468"><ele>726.4</ele><time>2026-04-19T15:28:25.999Z</time></trkpt><trkpt lat="44.549012941400925" lon="9.287783177579131"><ele>723.2</ele><time>2026-04-19T15:28:26.999Z</time></trkpt><trkpt lat="44.54908696493758" lon="9.287709460079174"><ele>720.0</ele><time>2026-04-19T15:28:27.999Z</time></trkpt><trkpt lat="44.549179967207145" lon="9.287662916138851"><ele>720.0</ele><time>2026-04-19T15:28:28.999Z</time></trkpt><trkpt lat="44.54929865766548" lon="9.287639931217644"><ele>720.0</ele><time>2026-04-19T15:28:29.999Z</time></trkpt><trkpt lat="44.5494337335113" lon="9.287628816183181"><ele>720.0</ele><time>2026-04-19T15:28:30.999Z</time></trkpt><trkpt lat="44.5495401765693" lon="9.287630642298053"><ele>720.0</ele><time>2026-04-19T15:28:31.999Z</time></trkpt><trkpt lat="44.5496474559386" lon="9.2876125969228"><ele>716.4</ele><time>2026-04-19T15:28:32.999Z</time></trkpt><trkpt lat="44.54974672844833" lon="9.287595562075154"><ele>712.8</ele><time>2026-04-19T15:28:33.999Z</time></trkpt><trkpt lat="44.54983350032004" lon="9.287582907844943"><ele>709.2</ele><time>2026-04-19T15:28:34.999Z</time></trkpt><trkpt lat="44.549912371517145" lon="9.287524840920614"><ele>705.6</ele><time>2026-04-19T15:28:35.999Z</time></trkpt><trkpt lat="44.54998506914132" lon="9.287419830010336"><ele>702.0</ele><time>2026-04-19T15:28:36.999Z</time></trkpt><trkpt lat="44.55003047004975" lon="9.287311944899004"><ele>704.8</ele><time>2026-04-19T15:28:37.999Z</time></trkpt><trkpt lat="44.55006191413282" lon="9.287140508331998"><ele>707.6</ele><time>2026-04-19T15:28:38.999Z</time></trkpt><trkpt lat="44.55008429627432" lon="9.286974345868035"><ele>710.4</ele><time>2026-04-19T15:28:39.999Z</time></trkpt><trkpt lat="44.550090946467115" lon="9.286826052546372"><ele>713.1999999999999</ele><time>2026-04-19T15:28:40.999Z</time></trkpt><trkpt lat="44.550133393109235" lon="9.286712283403272"><ele>716.0</ele><time>2026-04-19T15:28:41.999Z</time></trkpt><trkpt lat="44.55020849275503" lon="9.286608066088215"><ele>716.0</ele><time>2026-04-19T15:28:42.999Z</time></trkpt><trkpt lat="44.55030631362319" lon="9.286520705202431"><ele>716.0</ele><time>2026-04-19T15:28:43.999Z</time></trkpt><trkpt lat="44.55039641782435" lon="9.28642865770723"><ele>716.0</ele><time>2026-04-19T15:28:44.999Z</time></trkpt><trkpt lat="44.55048402959969" lon="9.286325897425336"><ele>716.0</ele><time>2026-04-19T15:28:45.999Z</time></trkpt><trkpt lat="44.55054878637668" lon="9.286194866198175"><ele>713.1999999999999</ele><time>2026-04-19T15:28:46.999Z</time></trkpt><trkpt lat="44.55063967814802" lon="9.286115303525644"><ele>710.4</ele><time>2026-04-19T15:28:48Z</time></trkpt><trkpt lat="44.55073326698928" lon="9.286057609786996"><ele>707.6</ele><time>2026-04-19T15:28:49Z</time></trkpt><trkpt lat="44.55083026767533" lon="9.286005370996731"><ele>704.8</ele><time>2026-04-19T15:28:50Z</time></trkpt><trkpt lat="44.5509138525748" lon="9.285954023514142"><ele>702.0</ele><time>2026-04-19T15:28:51Z</time></trkpt><trkpt lat="44.55099189813221" lon="9.285898047022755"><ele>702.0</ele><time>2026-04-19T15:28:52Z</time></trkpt><trkpt lat="44.55105840808738" lon="9.285795724963304"><ele>702.0</ele><time>2026-04-19T15:28:53Z</time></trkpt><trkpt lat="44.551089537518784" lon="9.285677161817528"><ele>702.0</ele><time>2026-04-19T15:28:54Z</time></trkpt><trkpt lat="44.55111860166831" lon="9.28555434769474"><ele>702.0</ele><time>2026-04-19T15:28:55Z</time></trkpt><trkpt lat="44.55109700364096" lon="9.285395031785495"><ele>702.0</ele><time>2026-04-19T15:28:56Z</time></trkpt><trkpt lat="44.551054766943054" lon="9.285262853912052"><ele>701.25</ele><time>2026-04-19T15:28:57Z</time></trkpt><trkpt lat="44.550987270058464" lon="9.285134996271708"><ele>700.5</ele><time>2026-04-19T15:28:58Z</time></trkpt><trkpt lat="44.550896459489245" lon="9.285010581575486"><ele>699.75</ele><time>2026-04-19T15:28:59Z</time></trkpt><trkpt lat="44.55081298881162" lon="9.284906443183276"><ele>699.0</ele><time>2026-04-19T15:29:00Z</time></trkpt><trkpt lat="44.550723059752926" lon="9.284821265203398"><ele>696.5</ele><time>2026-04-19T15:29:01Z</time></trkpt><trkpt lat="44.55065413829853" lon="9.284730330652497"><ele>694.0</ele><time>2026-04-19T15:29:02Z</time></trkpt><trkpt lat="44.55060148574299" lon="9.284629024007561"><ele>691.5</ele><time>2026-04-19T15:29:03Z</time></trkpt><trkpt lat="44.55057492846308" lon="9.284516906631808"><ele>689.0</ele><time>2026-04-19T15:29:04Z</time></trkpt><trkpt lat="44.55056616751661" lon="9.284407251802053"><ele>686.5</ele><time>2026-04-19T15:29:05Z</time></trkpt><trkpt lat="44.550576108165075" lon="9.284301424288934"><ele>684.0</ele><time>2026-04-19T15:29:06Z</time></trkpt><trkpt lat="44.55059112077549" lon="9.28420474415204"><ele>684.0</ele><time>2026-04-19T15:29:07Z</time></trkpt><trkpt lat="44.55062180124585" lon="9.284087960410472"><ele>684.0</ele><time>2026-04-19T15:29:08Z</time></trkpt><trkpt lat="44.55065022530466" lon="9.283982591491235"><ele>684.0</ele><time>2026-04-19T15:29:09Z</time></trkpt><trkpt lat="44.55066817523132" lon="9.283888415785258"><ele>684.0</ele><time>2026-04-19T15:29:10Z</time></trkpt><trkpt lat="44.55066097870275" lon="9.28380023515632"><ele>684.0</ele><time>2026-04-19T15:29:11Z</time></trkpt><trkpt lat="44.55061450434486" lon="9.283722848752443"><ele>684.0</ele><time>2026-04-19T15:29:12Z</time></trkpt><trkpt lat="44.55055074752436" lon="9.283653835540209"><ele>682.8000000000001</ele><time>2026-04-19T15:29:13Z</time></trkpt><trkpt lat="44.55045034728452" lon="9.283653757899236"><ele>681.6</ele><time>2026-04-19T15:29:14Z</time></trkpt><trkpt lat="44.55033384517602" lon="9.283682171839496"><ele>680.4</ele><time>2026-04-19T15:29:15Z</time></trkpt><trkpt lat="44.55023332799576" lon="9.28371226296911"><ele>679.2</ele><time>2026-04-19T15:29:16Z</time></trkpt><trkpt lat="44.550135651642776" lon="9.2837369852196"><ele>678.0</ele><time>2026-04-19T15:29:17Z</time></trkpt><trkpt lat="44.55004239088968" lon="9.283737242356686"><ele>678.0</ele><time>2026-04-19T15:29:18Z</time></trkpt><trkpt lat="44.54995698231158" lon="9.28371356374308"><ele>678.0</ele><time>2026-04-19T15:29:19Z</time></trkpt><trkpt lat="44.549880306387294" lon="9.28367592435984"><ele>678.0</ele><time>2026-04-19T15:29:20Z</time></trkpt><trkpt lat="44.54982263378451" lon="9.283565378534021"><ele>678.0</ele><time>2026-04-19T15:29:21Z</time></trkpt><trkpt lat="44.5497870492627" lon="9.283395894146487"><ele>678.0</ele><time>2026-04-19T15:29:22Z</time></trkpt><trkpt lat="44.54976018510406" lon="9.283226083842214"><ele>674.5</ele><time>2026-04-19T15:29:23Z</time></trkpt><trkpt lat="44.549747464643175" lon="9.283028830281609"><ele>671.0</ele><time>2026-04-19T15:29:24Z</time></trkpt><trkpt lat="44.54973057542182" lon="9.282814299383173"><ele>667.5</ele><time>2026-04-19T15:29:25Z</time></trkpt><trkpt lat="44.549708826515115" lon="9.282624976981376"><ele>664.0</ele><time>2026-04-19T15:29:26Z</time></trkpt><trkpt lat="44.54970765234745" lon="9.282431518080768"><ele>663.25</ele><time>2026-04-19T15:29:27Z</time></trkpt><trkpt lat="44.54972097467613" lon="9.282239321200512"><ele>662.5</ele><time>2026-04-19T15:29:28Z</time></trkpt><trkpt lat="44.54974549509537" lon="9.282061241873786"><ele>661.75</ele><time>2026-04-19T15:29:29Z</time></trkpt><trkpt lat="44.549777765715874" lon="9.281903249016278"><ele>661.0</ele><time>2026-04-19T15:29:30Z</time></trkpt><trkpt lat="44.54981641277193" lon="9.28176814128201"><ele>661.0</ele><time>2026-04-19T15:29:31Z</time></trkpt><trkpt lat="44.54985492715303" lon="9.281638213564557"><ele>661.0</ele><time>2026-04-19T15:29:32Z</time></trkpt><trkpt lat="44.54987854482926" lon="9.28152836440536"><ele>661.0</ele><time>2026-04-19T15:29:33Z</time></trkpt><trkpt lat="44.549899897629366" lon="9.281438677955945"><ele>661.0</ele><time>2026-04-19T15:29:34Z</time></trkpt><trkpt lat="44.54993260908169" lon="9.28136195318777"><ele>661.0</ele><time>2026-04-19T15:29:35Z</time></trkpt><trkpt lat="44.54997031135358" lon="9.281284660613473"><ele>661.0</ele><time>2026-04-19T15:29:36Z</time></trkpt><trkpt lat="44.5500392979401" lon="9.281223385581189"><ele>661.0</ele><time>2026-04-19T15:29:37Z</time></trkpt><trkpt lat="44.55010991374449" lon="9.281296838879195"><ele>661.0</ele><time>2026-04-19T15:29:38Z</time></trkpt><trkpt lat="44.55008625016526" lon="9.281428390467138"><ele>661.0</ele><time>2026-04-19T15:29:40Z</time></trkpt><trkpt lat="44.550062881903315" lon="9.281525462877752"><ele>661.0</ele><time>2026-04-19T15:29:41Z</time></trkpt><trkpt lat="44.55003604694304" lon="9.281666591821496"><ele>661.0</ele><time>2026-04-19T15:29:42Z</time></trkpt><trkpt lat="44.55000264606423" lon="9.281802928248194"><ele>661.0</ele><time>2026-04-19T15:29:43Z</time></trkpt><trkpt lat="44.549982288794006" lon="9.281958243408484"><ele>661.0</ele><time>2026-04-19T15:29:44Z</time></trkpt><trkpt lat="44.54998286651213" lon="9.282124106846178"><ele>661.0</ele><time>2026-04-19T15:29:45Z</time></trkpt><trkpt lat="44.54999158335208" lon="9.282257522881139"><ele>661.0</ele><time>2026-04-19T15:29:46Z</time></trkpt><trkpt lat="44.55001197827074" lon="9.28237746763843"><ele>661.0</ele><time>2026-04-19T15:29:47Z</time></trkpt><trkpt lat="44.55005432509456" lon="9.282491830553452"><ele>661.5999999999999</ele><time>2026-04-19T15:29:48Z</time></trkpt><trkpt lat="44.55012459978589" lon="9.282620169377653"><ele>662.2</ele><time>2026-04-19T15:29:49Z</time></trkpt><trkpt lat="44.55023069338765" lon="9.282695862326957"><ele>662.8</ele><time>2026-04-19T15:29:50Z</time></trkpt><trkpt lat="44.55031589490583" lon="9.282773630033102"><ele>663.4000000000001</ele><time>2026-04-19T15:29:51Z</time></trkpt><trkpt lat="44.55040302314447" lon="9.282799258898907"><ele>664.0</ele><time>2026-04-19T15:29:52Z</time></trkpt><trkpt lat="44.55050536592871" lon="9.282784634521297"><ele>660.2</ele><time>2026-04-19T15:29:53Z</time></trkpt><trkpt lat="44.550607297004156" lon="9.282743153916162"><ele>656.4000000000001</ele><time>2026-04-19T15:29:54Z</time></trkpt><trkpt lat="44.55071133219882" lon="9.28269807768841"><ele>652.6</ele><time>2026-04-19T15:29:55Z</time></trkpt><trkpt lat="44.550828820417166" lon="9.282666799104025"><ele>648.8</ele><time>2026-04-19T15:29:56Z</time></trkpt><trkpt lat="44.550924299480386" lon="9.282676137082138"><ele>645.0</ele><time>2026-04-19T15:29:57Z</time></trkpt><trkpt lat="44.55099315752215" lon="9.282730632184386"><ele>645.0</ele><time>2026-04-19T15:29:58Z</time></trkpt><trkpt lat="44.55106992335796" lon="9.282838360103497"><ele>645.0</ele><time>2026-04-19T15:29:59Z</time></trkpt><trkpt lat="44.55116316741665" lon="9.282934751261461"><ele>645.0</ele><time>2026-04-19T15:30:00Z</time></trkpt><trkpt lat="44.55128053785904" lon="9.283020043158038"><ele>645.0</ele><time>2026-04-19T15:30:01Z</time></trkpt><trkpt lat="44.551384012884675" lon="9.283080052334949"><ele>645.0</ele><time>2026-04-19T15:30:02Z</time></trkpt><trkpt lat="44.55147349876809" lon="9.283161556552882"><ele>645.0</ele><time>2026-04-19T15:30:02.999Z</time></trkpt><trkpt lat="44.551553359031125" lon="9.283278048235431"><ele>645.0</ele><time>2026-04-19T15:30:03.999Z</time></trkpt><trkpt lat="44.551611510257715" lon="9.283401423653237"><ele>645.0</ele><time>2026-04-19T15:30:04.999Z</time></trkpt><trkpt lat="44.5516668421691" lon="9.283512464102143"><ele>645.0</ele><time>2026-04-19T15:30:05.999Z</time></trkpt><trkpt lat="44.55174635887336" lon="9.283590121251256"><ele>645.0</ele><time>2026-04-19T15:30:06.999Z</time></trkpt><trkpt lat="44.551837513297556" lon="9.283629221195035"><ele>645.0</ele><time>2026-04-19T15:30:07.999Z</time></trkpt><trkpt lat="44.551924193004645" lon="9.283626097044053"><ele>645.0</ele><time>2026-04-19T15:30:08.999Z</time></trkpt><trkpt lat="44.552001708659425" lon="9.283607596294798"><ele>645.0</ele><time>2026-04-19T15:30:09.999Z</time></trkpt><trkpt lat="44.55207820049851" lon="9.283497001735086"><ele>645.0</ele><time>2026-04-19T15:30:10.999Z</time></trkpt><trkpt lat="44.55217143271807" lon="9.283414496703552"><ele>642.1666666666666</ele><time>2026-04-19T15:30:11.999Z</time></trkpt><trkpt lat="44.55223774881995" lon="9.28331884278506"><ele>639.3333333333334</ele><time>2026-04-19T15:30:12.999Z</time></trkpt><trkpt lat="44.55231597112158" lon="9.28328711643285"><ele>636.5</ele><time>2026-04-19T15:30:13.999Z</time></trkpt><trkpt lat="44.552395288832834" lon="9.283290940269426"><ele>633.6666666666667</ele><time>2026-04-19T15:30:14.999Z</time></trkpt><trkpt lat="44.55247098248255" lon="9.283334211846402"><ele>630.8333333333334</ele><time>2026-04-19T15:30:15.999Z</time></trkpt><trkpt lat="44.55253092098163" lon="9.283428052687317"><ele>628.0</ele><time>2026-04-19T15:30:16.999Z</time></trkpt><trkpt lat="44.55256800809981" lon="9.28355191793361"><ele>628.0</ele><time>2026-04-19T15:30:17.999Z</time></trkpt><trkpt lat="44.55258092336677" lon="9.283693474850798"><ele>628.0</ele><time>2026-04-19T15:30:18.999Z</time></trkpt><trkpt lat="44.55259057437869" lon="9.28386055172377"><ele>628.0</ele><time>2026-04-19T15:30:19.999Z</time></trkpt><trkpt lat="44.55263450444263" lon="9.284028286920561"><ele>628.0</ele><time>2026-04-19T15:30:20.999Z</time></trkpt><trkpt lat="44.55270005086652" lon="9.284183155804705"><ele>630.25</ele><time>2026-04-19T15:30:21.999Z</time></trkpt><trkpt lat="44.552747783985545" lon="9.284330868657776"><ele>632.5</ele><time>2026-04-19T15:30:22.999Z</time></trkpt><trkpt lat="44.552767286451854" lon="9.284480999413924"><ele>634.75</ele><time>2026-04-19T15:30:23.999Z</time></trkpt><trkpt lat="44.55276736012492" lon="9.284642931722914"><ele>637.0</ele><time>2026-04-19T15:30:24.999Z</time></trkpt><trkpt lat="44.552753760987" lon="9.284804293043328"><ele>637.0</ele><time>2026-04-19T15:30:25.999Z</time></trkpt><trkpt lat="44.55273486050137" lon="9.284956449625646"><ele>637.0</ele><time>2026-04-19T15:30:26.999Z</time></trkpt><trkpt lat="44.55270963250179" lon="9.285089637190499"><ele>637.0</ele><time>2026-04-19T15:30:27.999Z</time></trkpt><trkpt lat="44.55269149688103" lon="9.285199994687213"><ele>637.0</ele><time>2026-04-19T15:30:28.999Z</time></trkpt><trkpt lat="44.55268276901179" lon="9.285297712227676"><ele>637.0</ele><time>2026-04-19T15:30:29.999Z</time></trkpt><trkpt lat="44.55270764158898" lon="9.285384347147216"><ele>637.0</ele><time>2026-04-19T15:30:30.999Z</time></trkpt><trkpt lat="44.55281222349726" lon="9.285445757288551"><ele>637.0</ele><time>2026-04-19T15:30:32.999Z</time></trkpt><trkpt lat="44.55287023785951" lon="9.285385685197706"><ele>637.0</ele><time>2026-04-19T15:30:33.999Z</time></trkpt><trkpt lat="44.55287651477676" lon="9.28525756035947"><ele>637.0</ele><time>2026-04-19T15:30:34.999Z</time></trkpt><trkpt lat="44.55286243047171" lon="9.28512454050222"><ele>637.0</ele><time>2026-04-19T15:30:35.999Z</time></trkpt><trkpt lat="44.55287093901965" lon="9.284980822678099"><ele>637.0</ele><time>2026-04-19T15:30:36.999Z</time></trkpt><trkpt lat="44.55291176118812" lon="9.284838086079423"><ele>630.0</ele><time>2026-04-19T15:30:37.999Z</time></trkpt><trkpt lat="44.55296534171799" lon="9.284695173016408"><ele>623.0</ele><time>2026-04-19T15:30:38.999Z</time></trkpt><trkpt lat="44.55301959356268" lon="9.284544046818349"><ele>616.0</ele><time>2026-04-19T15:30:39.999Z</time></trkpt><trkpt lat="44.55306548062972" lon="9.284389679052502"><ele>609.0</ele><time>2026-04-19T15:30:40.999Z</time></trkpt><trkpt lat="44.553114810775426" lon="9.28425817523962"><ele>609.0</ele><time>2026-04-19T15:30:41.999Z</time></trkpt><trkpt lat="44.55314660968112" lon="9.28413100590413"><ele>609.0</ele><time>2026-04-19T15:30:42.999Z</time></trkpt><trkpt lat="44.55316217763758" lon="9.284010706517623"><ele>609.0</ele><time>2026-04-19T15:30:43.999Z</time></trkpt><trkpt lat="44.553185606063074" lon="9.283869556587225"><ele>609.0</ele><time>2026-04-19T15:30:45.999Z</time></trkpt><trkpt lat="44.55327187481719" lon="9.283915910537369"><ele>609.0</ele><time>2026-04-19T15:30:47.999Z</time></trkpt><trkpt lat="44.553269955149375" lon="9.284107798768092"><ele>609.0</ele><time>2026-04-19T15:30:49.999Z</time></trkpt><trkpt lat="44.55323381657028" lon="9.284253344902002"><ele>609.0</ele><time>2026-04-19T15:30:50.999Z</time></trkpt><trkpt lat="44.553204287789974" lon="9.284426159504884"><ele>609.0</ele><time>2026-04-19T15:30:51.999Z</time></trkpt><trkpt lat="44.553177580285926" lon="9.284602565664013"><ele>609.0</ele><time>2026-04-19T15:30:52.999Z</time></trkpt><trkpt lat="44.553149793059994" lon="9.2847572864234"><ele>607.8</ele><time>2026-04-19T15:30:54Z</time></trkpt><trkpt lat="44.553123708613334" lon="9.284903142208774"><ele>606.5999999999999</ele><time>2026-04-19T15:30:55Z</time></trkpt><trkpt lat="44.55309284696497" lon="9.285027766443157"><ele>605.4</ele><time>2026-04-19T15:30:56Z</time></trkpt><trkpt lat="44.55305898932475" lon="9.285126477005143"><ele>604.1999999999999</ele><time>2026-04-19T15:30:57Z</time></trkpt><trkpt lat="44.553040868365564" lon="9.285213524350882"><ele>603.0</ele><time>2026-04-19T15:30:58Z</time></trkpt><trkpt lat="44.55308988879325" lon="9.285355037571973"><ele>603.0</ele><time>2026-04-19T15:31:00Z</time></trkpt><trkpt lat="44.55319676998063" lon="9.285318722680772"><ele>603.0</ele><time>2026-04-19T15:31:02Z</time></trkpt><trkpt lat="44.55324871477337" lon="9.285246671519948"><ele>603.0</ele><time>2026-04-19T15:31:03Z</time></trkpt><trkpt lat="44.55327705851679" lon="9.285122213394581"><ele>603.0</ele><time>2026-04-19T15:31:04Z</time></trkpt><trkpt lat="44.55331288353375" lon="9.285002819545957"><ele>603.0</ele><time>2026-04-19T15:31:05Z</time></trkpt><trkpt lat="44.55335148067894" lon="9.284894093338814"><ele>603.0</ele><time>2026-04-19T15:31:06Z</time></trkpt><trkpt lat="44.553402628946266" lon="9.284782106306167"><ele>603.0</ele><time>2026-04-19T15:31:07Z</time></trkpt><trkpt lat="44.55349615426921" lon="9.284685458333858"><ele>603.0</ele><time>2026-04-19T15:31:08Z</time></trkpt><trkpt lat="44.55358624533675" lon="9.284621882298548"><ele>603.0</ele><time>2026-04-19T15:31:09Z</time></trkpt><trkpt lat="44.55368652451641" lon="9.28459012975395"><ele>603.0</ele><time>2026-04-19T15:31:10Z</time></trkpt><trkpt lat="44.553795538230375" lon="9.284576826737116"><ele>601.75</ele><time>2026-04-19T15:31:11Z</time></trkpt><trkpt lat="44.55391161147887" lon="9.284600941483252"><ele>600.5</ele><time>2026-04-19T15:31:12Z</time></trkpt><trkpt lat="44.55403342881454" lon="9.284673342967611"><ele>599.25</ele><time>2026-04-19T15:31:13Z</time></trkpt><trkpt lat="44.55416148334498" lon="9.284761971591058"><ele>598.0</ele><time>2026-04-19T15:31:14Z</time></trkpt><trkpt lat="44.55429670617937" lon="9.284853030136878"><ele>597.75</ele><time>2026-04-19T15:31:15Z</time></trkpt><trkpt lat="44.55442976176032" lon="9.284943858034712"><ele>597.5</ele><time>2026-04-19T15:31:16Z</time></trkpt><trkpt lat="44.55454780609492" lon="9.285021150425242"><ele>597.25</ele><time>2026-04-19T15:31:17Z</time></trkpt><trkpt lat="44.5546512247471" lon="9.285093029893122"><ele>597.0</ele><time>2026-04-19T15:31:18Z</time></trkpt><trkpt lat="44.55473998867095" lon="9.285159202844124"><ele>597.0</ele><time>2026-04-19T15:31:19Z</time></trkpt><trkpt lat="44.55482477731463" lon="9.285219752046027"><ele>597.0</ele><time>2026-04-19T15:31:20Z</time></trkpt><trkpt lat="44.55490908544736" lon="9.285247417997144"><ele>597.0</ele><time>2026-04-19T15:31:21Z</time></trkpt><trkpt lat="44.554990556081094" lon="9.285221187146004"><ele>597.0</ele><time>2026-04-19T15:31:22Z</time></trkpt><trkpt lat="44.555073189909855" lon="9.285161774716032"><ele>597.0</ele><time>2026-04-19T15:31:23Z</time></trkpt><trkpt lat="44.55515728893083" lon="9.285088127181536"><ele>597.0</ele><time>2026-04-19T15:31:24Z</time></trkpt><trkpt lat="44.55520975660625" lon="9.284941516013562"><ele>597.0</ele><time>2026-04-19T15:31:25Z</time></trkpt><trkpt lat="44.55525849432689" lon="9.284792110483467"><ele>597.0</ele><time>2026-04-19T15:31:26Z</time></trkpt><trkpt lat="44.55531941436546" lon="9.284629056489905"><ele>597.0</ele><time>2026-04-19T15:31:27Z</time></trkpt><trkpt lat="44.55536684027218" lon="9.284459284673769"><ele>598.2</ele><time>2026-04-19T15:31:28Z</time></trkpt><trkpt lat="44.55540692692391" lon="9.284318762595223"><ele>599.4000000000001</ele><time>2026-04-19T15:31:29Z</time></trkpt><trkpt lat="44.555445924949716" lon="9.284182056567266"><ele>600.5999999999999</ele><time>2026-04-19T15:31:30Z</time></trkpt><trkpt lat="44.555465526178104" lon="9.284055438578518"><ele>601.8</ele><time>2026-04-19T15:31:31Z</time></trkpt><trkpt lat="44.55551031005085" lon="9.283956357167169"><ele>603.0</ele><time>2026-04-19T15:31:32Z</time></trkpt><trkpt lat="44.555542040924564" lon="9.283845125917091"><ele>603.6666666666666</ele><time>2026-04-19T15:31:33Z</time></trkpt><trkpt lat="44.555567431001606" lon="9.283756121974115"><ele>604.3333333333334</ele><time>2026-04-19T15:31:34Z</time></trkpt><trkpt lat="44.55560314048589" lon="9.283644216271504"><ele>605.0</ele><time>2026-04-19T15:31:36Z</time></trkpt><trkpt lat="44.5556313539827" lon="9.283532042415013"><ele>605.6666666666667</ele><time>2026-04-19T15:31:39Z</time></trkpt><trkpt lat="44.5555357947657" lon="9.283463145456247"><ele>606.3333333333334</ele><time>2026-04-19T15:31:40Z</time></trkpt><trkpt lat="44.5554664632705" lon="9.283401950067137"><ele>607.0</ele><time>2026-04-19T15:31:41Z</time></trkpt><trkpt lat="44.555404190509506" lon="9.283313167875665"><ele>605.75</ele><time>2026-04-19T15:31:42Z</time></trkpt><trkpt lat="44.55533983536957" lon="9.28319231871189"><ele>604.5</ele><time>2026-04-19T15:31:43Z</time></trkpt><trkpt lat="44.55528680163269" lon="9.283041931954582"><ele>603.25</ele><time>2026-04-19T15:31:44Z</time></trkpt><trkpt lat="44.555245943067376" lon="9.282889387685177"><ele>602.0</ele><time>2026-04-19T15:31:45Z</time></trkpt><trkpt lat="44.55520670910071" lon="9.282724761237326"><ele>602.0</ele><time>2026-04-19T15:31:46Z</time></trkpt><trkpt lat="44.55514826024023" lon="9.282562799135754"><ele>602.0</ele><time>2026-04-19T15:31:47Z</time></trkpt><trkpt lat="44.555070490638826" lon="9.282405993024138"><ele>602.0</ele><time>2026-04-19T15:31:48Z</time></trkpt><trkpt lat="44.55497935614752" lon="9.282250159870342"><ele>602.0</ele><time>2026-04-19T15:31:49Z</time></trkpt><trkpt lat="44.554892562060964" lon="9.282104517375137"><ele>607.5</ele><time>2026-04-19T15:31:50Z</time></trkpt><trkpt lat="44.554817217764736" lon="9.281973671670851"><ele>613.0</ele><time>2026-04-19T15:31:51Z</time></trkpt><trkpt lat="44.55473228851493" lon="9.281863182872675"><ele>618.5</ele><time>2026-04-19T15:31:52Z</time></trkpt><trkpt lat="44.5546431990555" lon="9.281747478428622"><ele>624.0</ele><time>2026-04-19T15:31:53Z</time></trkpt><trkpt lat="44.55454971398922" lon="9.281624456820754"><ele>624.5</ele><time>2026-04-19T15:31:54Z</time></trkpt><trkpt lat="44.55446635863089" lon="9.281481179224965"><ele>625.0</ele><time>2026-04-19T15:31:55Z</time></trkpt><trkpt lat="44.55440653242553" lon="9.281341634779302"><ele>625.5</ele><time>2026-04-19T15:31:56Z</time></trkpt><trkpt lat="44.55434426043577" lon="9.28122841715482"><ele>626.0</ele><time>2026-04-19T15:31:57Z</time></trkpt><trkpt lat="44.55426501963492" lon="9.28110747240825"><ele>626.0</ele><time>2026-04-19T15:31:58Z</time></trkpt><trkpt lat="44.5542071401064" lon="9.280948293989807"><ele>626.0</ele><time>2026-04-19T15:31:59Z</time></trkpt><trkpt lat="44.55403643142347" lon="9.280914491777125"><ele>626.0</ele><time>2026-04-19T15:32:00Z</time></trkpt><trkpt lat="44.55390733643793" lon="9.280840354435728"><ele>626.0</ele><time>2026-04-19T15:32:01Z</time></trkpt><trkpt lat="44.55379905224361" lon="9.280774319096524"><ele>624.25</ele><time>2026-04-19T15:32:02Z</time></trkpt><trkpt lat="44.55368587281123" lon="9.28070345099733"><ele>622.5</ele><time>2026-04-19T15:32:03Z</time></trkpt><trkpt lat="44.55356613185018" lon="9.28062672349565"><ele>620.75</ele><time>2026-04-19T15:32:04Z</time></trkpt><trkpt lat="44.553441110497324" lon="9.280548153935852"><ele>619.0</ele><time>2026-04-19T15:32:05Z</time></trkpt><trkpt lat="44.55333271208231" lon="9.280482814818752"><ele>619.0</ele><time>2026-04-19T15:32:06Z</time></trkpt><trkpt lat="44.55322020104153" lon="9.280413749254784"><ele>619.0</ele><time>2026-04-19T15:32:07Z</time></trkpt><trkpt lat="44.55311149161713" lon="9.280344594669588"><ele>619.0</ele><time>2026-04-19T15:32:07.999Z</time></trkpt><trkpt lat="44.553006877350136" lon="9.28028356255311"><ele>619.0</ele><time>2026-04-19T15:32:08.999Z</time></trkpt><trkpt lat="44.55288668957895" lon="9.280212271488113"><ele>617.25</ele><time>2026-04-19T15:32:09.999Z</time></trkpt><trkpt lat="44.55275966969627" lon="9.280126962583909"><ele>615.5</ele><time>2026-04-19T15:32:10.999Z</time></trkpt><trkpt lat="44.552645639385574" lon="9.280034055940515"><ele>613.75</ele><time>2026-04-19T15:32:11.999Z</time></trkpt><trkpt lat="44.55252983437965" lon="9.279939420256161"><ele>612.0</ele><time>2026-04-19T15:32:12.999Z</time></trkpt><trkpt lat="44.55240291965321" lon="9.279841405117892"><ele>611.25</ele><time>2026-04-19T15:32:13.999Z</time></trkpt><trkpt lat="44.552273701270664" lon="9.279731648351031"><ele>610.5</ele><time>2026-04-19T15:32:14.999Z</time></trkpt><trkpt lat="44.552155741333486" lon="9.279639436369258"><ele>609.75</ele><time>2026-04-19T15:32:15.999Z</time></trkpt><trkpt lat="44.55205007975631" lon="9.279555555334072"><ele>609.0</ele><time>2026-04-19T15:32:16.999Z</time></trkpt><trkpt lat="44.551938672299244" lon="9.27947097488377"><ele>609.0</ele><time>2026-04-19T15:32:17.999Z</time></trkpt><trkpt lat="44.55181979216434" lon="9.279377078872574"><ele>609.0</ele><time>2026-04-19T15:32:18.999Z</time></trkpt><trkpt lat="44.55169681440879" lon="9.27926699919209"><ele>609.0</ele><time>2026-04-19T15:32:19.999Z</time></trkpt><trkpt lat="44.55159044414052" lon="9.27914809513419"><ele>609.0</ele><time>2026-04-19T15:32:20.999Z</time></trkpt><trkpt lat="44.551509953906" lon="9.279017618473233"><ele>610.5</ele><time>2026-04-19T15:32:21.999Z</time></trkpt><trkpt lat="44.551439649352815" lon="9.278859811916357"><ele>612.0</ele><time>2026-04-19T15:32:22.999Z</time></trkpt><trkpt lat="44.55141398038954" lon="9.278666993004313"><ele>613.5</ele><time>2026-04-19T15:32:23.999Z</time></trkpt><trkpt lat="44.55140199554656" lon="9.278473614015532"><ele>615.0</ele><time>2026-04-19T15:32:24.999Z</time></trkpt><trkpt lat="44.551417406214696" lon="9.278260926226762"><ele>617.6666666666666</ele><time>2026-04-19T15:32:25.999Z</time></trkpt><trkpt lat="44.55141682912723" lon="9.278027100695416"><ele>620.3333333333333</ele><time>2026-04-19T15:32:26.999Z</time></trkpt><trkpt lat="44.55143506139424" lon="9.277806095214261"><ele>623.0</ele><time>2026-04-19T15:32:27.999Z</time></trkpt><trkpt lat="44.55145119236461" lon="9.277601365944458"><ele>623.0</ele><time>2026-04-19T15:32:28.999Z</time></trkpt><trkpt lat="44.551464749162044" lon="9.277392787504908"><ele>623.0</ele><time>2026-04-19T15:32:29.999Z</time></trkpt><trkpt lat="44.551486073402984" lon="9.277166664137003"><ele>623.0</ele><time>2026-04-19T15:32:30.999Z</time></trkpt><trkpt lat="44.55152509009773" lon="9.276951019790593"><ele>622.5</ele><time>2026-04-19T15:32:31.999Z</time></trkpt><trkpt lat="44.55157031932816" lon="9.276762253986764"><ele>622.0</ele><time>2026-04-19T15:32:32.999Z</time></trkpt><trkpt lat="44.55161647379895" lon="9.276568047430162"><ele>621.5</ele><time>2026-04-19T15:32:33.999Z</time></trkpt><trkpt lat="44.55166230210758" lon="9.276361553050103"><ele>621.0</ele><time>2026-04-19T15:32:34.999Z</time></trkpt><trkpt lat="44.551711141210184" lon="9.2761434903543"><ele>620.0</ele><time>2026-04-19T15:32:35.999Z</time></trkpt><trkpt lat="44.55175850177289" lon="9.275932485914945"><ele>619.0</ele><time>2026-04-19T15:32:36.999Z</time></trkpt><trkpt lat="44.55180097138469" lon="9.275747116417245"><ele>618.0</ele><time>2026-04-19T15:32:37.999Z</time></trkpt><trkpt lat="44.55184153819368" lon="9.275573772944979"><ele>617.0</ele><time>2026-04-19T15:32:38.999Z</time></trkpt><trkpt lat="44.551870856686165" lon="9.275426578668503"><ele>617.0</ele><time>2026-04-19T15:32:39.999Z</time></trkpt><trkpt lat="44.5518947575091" lon="9.275300026351921"><ele>617.0</ele><time>2026-04-19T15:32:40.999Z</time></trkpt><trkpt lat="44.5518860998014" lon="9.275162364474038"><ele>617.0</ele><time>2026-04-19T15:32:41.999Z</time></trkpt><trkpt lat="44.55183752732374" lon="9.275017072888147"><ele>617.0</ele><time>2026-04-19T15:32:42.999Z</time></trkpt><trkpt lat="44.551751071390875" lon="9.274875269417121"><ele>617.0</ele><time>2026-04-19T15:32:43.999Z</time></trkpt><trkpt lat="44.55166442194124" lon="9.274749444789418"><ele>620.5</ele><time>2026-04-19T15:32:44.999Z</time></trkpt><trkpt lat="44.551582507419525" lon="9.274614494610354"><ele>624.0</ele><time>2026-04-19T15:32:45.999Z</time></trkpt><trkpt lat="44.55152012448539" lon="9.274482143019364"><ele>627.5</ele><time>2026-04-19T15:32:46.999Z</time></trkpt><trkpt lat="44.55146931557216" lon="9.274330221243673"><ele>631.0</ele><time>2026-04-19T15:32:47.999Z</time></trkpt><trkpt lat="44.55144557043107" lon="9.274156360686916"><ele>631.0</ele><time>2026-04-19T15:32:48.999Z</time></trkpt><trkpt lat="44.551407069419135" lon="9.273973685874674"><ele>631.0</ele><time>2026-04-19T15:32:49.999Z</time></trkpt><trkpt lat="44.551365577091225" lon="9.273751989596208"><ele>631.0</ele><time>2026-04-19T15:32:50.999Z</time></trkpt><trkpt lat="44.55127339768925" lon="9.273533448754106"><ele>633.0</ele><time>2026-04-19T15:32:51.999Z</time></trkpt><trkpt lat="44.55116754958031" lon="9.273323833736933"><ele>635.0</ele><time>2026-04-19T15:32:52.999Z</time></trkpt><trkpt lat="44.551044754940676" lon="9.273112985787185"><ele>637.0</ele><time>2026-04-19T15:32:53.999Z</time></trkpt><trkpt lat="44.55091201641763" lon="9.272894516803392"><ele>637.0</ele><time>2026-04-19T15:32:54.999Z</time></trkpt><trkpt lat="44.55081890348607" lon="9.272750007384852"><ele>637.0</ele><time>2026-04-19T15:32:55.999Z</time></trkpt><trkpt lat="44.55071368113616" lon="9.27257556744959"><ele>637.0</ele><time>2026-04-19T15:32:56.999Z</time></trkpt><trkpt lat="44.550622158889894" lon="9.272411279802956"><ele>636.5</ele><time>2026-04-19T15:32:57.999Z</time></trkpt><trkpt lat="44.550527467072214" lon="9.272272069184345"><ele>636.0</ele><time>2026-04-19T15:32:58.999Z</time></trkpt><trkpt lat="44.55042735981113" lon="9.272126225997315"><ele>635.5</ele><time>2026-04-19T15:33:00Z</time></trkpt><trkpt lat="44.550300074266595" lon="9.272005021135238"><ele>635.0</ele><time>2026-04-19T15:33:01Z</time></trkpt><trkpt lat="44.55015364255086" lon="9.27190374163844"><ele>635.0</ele><time>2026-04-19T15:33:02Z</time></trkpt><trkpt lat="44.54998906694908" lon="9.271799531919953"><ele>635.0</ele><time>2026-04-19T15:33:03Z</time></trkpt><trkpt lat="44.54982241049248" lon="9.271684907647618"><ele>635.0</ele><time>2026-04-19T15:33:04Z</time></trkpt><trkpt lat="44.54967138295247" lon="9.27158918929472"><ele>634.75</ele><time>2026-04-19T15:33:05Z</time></trkpt><trkpt lat="44.5495358605742" lon="9.271491691679495"><ele>634.5</ele><time>2026-04-19T15:33:06Z</time></trkpt><trkpt lat="44.54941516718712" lon="9.27140207575455"><ele>634.25</ele><time>2026-04-19T15:33:07Z</time></trkpt><trkpt lat="44.54928168722577" lon="9.27132165888084"><ele>634.0</ele><time>2026-04-19T15:33:08Z</time></trkpt><trkpt lat="44.54914491494965" lon="9.271236469681066"><ele>634.0</ele><time>2026-04-19T15:33:09Z</time></trkpt><trkpt lat="44.54899938242591" lon="9.271162716614741"><ele>634.0</ele><time>2026-04-19T15:33:10Z</time></trkpt><trkpt lat="44.5488513463061" lon="9.271105980200543"><ele>634.0</ele><time>2026-04-19T15:33:11Z</time></trkpt><trkpt lat="44.548697551320444" lon="9.271049117550245"><ele>628.3333333333334</ele><time>2026-04-19T15:33:12Z</time></trkpt><trkpt lat="44.54854032834633" lon="9.270987618162614"><ele>622.6666666666666</ele><time>2026-04-19T15:33:13Z</time></trkpt><trkpt lat="44.5483814830263" lon="9.270908509604013"><ele>617.0</ele><time>2026-04-19T15:33:14Z</time></trkpt><trkpt lat="44.54823696802996" lon="9.270793734225055"><ele>617.0</ele><time>2026-04-19T15:33:15Z</time></trkpt><trkpt lat="44.54810257767331" lon="9.27069842517479"><ele>617.0</ele><time>2026-04-19T15:33:16Z</time></trkpt><trkpt lat="44.54797914135569" lon="9.270610724298871"><ele>617.0</ele><time>2026-04-19T15:33:17Z</time></trkpt><trkpt lat="44.54785158747614" lon="9.270500149876952"><ele>617.0</ele><time>2026-04-19T15:33:18Z</time></trkpt><trkpt lat="44.54772643922317" lon="9.270352668348279"><ele>616.3333333333333</ele><time>2026-04-19T15:33:19Z</time></trkpt><trkpt lat="44.54760036085077" lon="9.270194874030109"><ele>615.6666666666666</ele><time>2026-04-19T15:33:20Z</time></trkpt><trkpt lat="44.54750577897714" lon="9.270010213864783"><ele>615.0</ele><time>2026-04-19T15:33:21Z</time></trkpt><trkpt lat="44.547434250841334" lon="9.269787560159102"><ele>618.6666666666666</ele><time>2026-04-19T15:33:22Z</time></trkpt><trkpt lat="44.54735617642066" lon="9.269551990586905"><ele>622.3333333333333</ele><time>2026-04-19T15:33:23Z</time></trkpt><trkpt lat="44.54726983134448" lon="9.269340781846484"><ele>626.0</ele><time>2026-04-19T15:33:24Z</time></trkpt><trkpt lat="44.54721378666645" lon="9.269141519030482"><ele>626.0</ele><time>2026-04-19T15:33:25Z</time></trkpt><trkpt lat="44.54715625778476" lon="9.26895746149217"><ele>626.0</ele><time>2026-04-19T15:33:26Z</time></trkpt><trkpt lat="44.54708636818442" lon="9.268777575477829"><ele>626.0</ele><time>2026-04-19T15:33:27Z</time></trkpt><trkpt lat="44.54698629148065" lon="9.268607386457791"><ele>626.0</ele><time>2026-04-19T15:33:28Z</time></trkpt><trkpt lat="44.546854611903036" lon="9.268440340557547"><ele>625.6666666666666</ele><time>2026-04-19T15:33:29Z</time></trkpt><trkpt lat="44.54670239454539" lon="9.268264124675966"><ele>625.3333333333334</ele><time>2026-04-19T15:33:30Z</time></trkpt><trkpt lat="44.54656242577271" lon="9.26806420235958"><ele>625.0</ele><time>2026-04-19T15:33:31Z</time></trkpt><trkpt lat="44.54643560457719" lon="9.267904964502543"><ele>625.0</ele><time>2026-04-19T15:33:32Z</time></trkpt><trkpt lat="44.54631330805217" lon="9.267778484816317"><ele>625.0</ele><time>2026-04-19T15:33:33Z</time></trkpt><trkpt lat="44.54619980815482" lon="9.267629639474768"><ele>625.0</ele><time>2026-04-19T15:33:34Z</time></trkpt><trkpt lat="44.54608659037392" lon="9.267475354775883"><ele>623.75</ele><time>2026-04-19T15:33:35Z</time></trkpt><trkpt lat="44.54598799785996" lon="9.267348154245605"><ele>622.5</ele><time>2026-04-19T15:33:36Z</time></trkpt><trkpt lat="44.54593900146831" lon="9.267199994588474"><ele>621.25</ele><time>2026-04-19T15:33:37Z</time></trkpt><trkpt lat="44.545888587060105" lon="9.267035470349652"><ele>620.0</ele><time>2026-04-19T15:33:38Z</time></trkpt><trkpt lat="44.545861581485354" lon="9.266827226643288"><ele>620.0</ele><time>2026-04-19T15:33:39Z</time></trkpt><trkpt lat="44.5458383209769" lon="9.266621900289444"><ele>620.0</ele><time>2026-04-19T15:33:40Z</time></trkpt><trkpt lat="44.545818643618254" lon="9.266410697201138"><ele>620.0</ele><time>2026-04-19T15:33:41Z</time></trkpt><trkpt lat="44.54579186525832" lon="9.266193358120999"><ele>622.0</ele><time>2026-04-19T15:33:42Z</time></trkpt><trkpt lat="44.54574931174123" lon="9.265975986366929"><ele>624.0</ele><time>2026-04-19T15:33:43Z</time></trkpt><trkpt lat="44.54570171245246" lon="9.265756196871559"><ele>626.0</ele><time>2026-04-19T15:33:44Z</time></trkpt><trkpt lat="44.54564721581006" lon="9.265560395452848"><ele>628.6666666666666</ele><time>2026-04-19T15:33:45Z</time></trkpt><trkpt lat="44.54559277235648" lon="9.265358771262806"><ele>631.3333333333334</ele><time>2026-04-19T15:33:46Z</time></trkpt><trkpt lat="44.545538700674584" lon="9.265141232472534"><ele>634.0</ele><time>2026-04-19T15:33:47Z</time></trkpt><trkpt lat="44.5454868971292" lon="9.264933068837127"><ele>629.6666666666667</ele><time>2026-04-19T15:33:48Z</time></trkpt><trkpt lat="44.54542441636431" lon="9.264722332665775"><ele>625.3333333333334</ele><time>2026-04-19T15:33:49Z</time></trkpt><trkpt lat="44.54536293269134" lon="9.264500597757015"><ele>621.0</ele><time>2026-04-19T15:33:50Z</time></trkpt><trkpt lat="44.5452978463212" lon="9.264277346939583"><ele>621.0</ele><time>2026-04-19T15:33:51Z</time></trkpt><trkpt lat="44.545228484676414" lon="9.264073492149619"><ele>621.0</ele><time>2026-04-19T15:33:52Z</time></trkpt><trkpt lat="44.54516241253173" lon="9.263880389631515"><ele>621.0</ele><time>2026-04-19T15:33:53Z</time></trkpt><trkpt lat="44.54509922799018" lon="9.263689919783088"><ele>625.3333333333334</ele><time>2026-04-19T15:33:54Z</time></trkpt><trkpt lat="44.54504385870063" lon="9.263485496306167"><ele>629.6666666666667</ele><time>2026-04-19T15:33:55Z</time></trkpt><trkpt lat="44.544960817828574" lon="9.263289908484904"><ele>634.0</ele><time>2026-04-19T15:33:56Z</time></trkpt><trkpt lat="44.54488715589133" lon="9.263078222671778"><ele>633.0</ele><time>2026-04-19T15:33:57Z</time></trkpt><trkpt lat="44.54481995068274" lon="9.262878252241887"><ele>632.0</ele><time>2026-04-19T15:33:58Z</time></trkpt><trkpt lat="44.54414134259915" lon="9.26040729099004"><ele>632.0</ele><time>2026-04-19T15:34:12.229Z</time></trkpt><trkpt lat="44.5440179891696" lon="9.260399839298264"><ele>632.0</ele><time>2026-04-19T15:34:15.413Z</time></trkpt><trkpt lat="44.54393241326086" lon="9.260363290765289"><ele>632.0</ele><time>2026-04-19T15:34:16.418Z</time></trkpt><trkpt lat="44.54377869234694" lon="9.260298579630314"><ele>632.0</ele><time>2026-04-19T15:34:17.42Z</time></trkpt><trkpt lat="44.54365747303843" lon="9.260247550529629"><ele>629.5</ele><time>2026-04-19T15:34:18.415Z</time></trkpt><trkpt lat="44.54355092058939" lon="9.260202947911605"><ele>627.0</ele><time>2026-04-19T15:34:19.417Z</time></trkpt><trkpt lat="44.54337679785168" lon="9.260153789081853"><ele>624.5</ele><time>2026-04-19T15:34:20.418Z</time></trkpt><trkpt lat="44.54327629883265" lon="9.26008815878002"><ele>622.0</ele><time>2026-04-19T15:34:20.999Z</time></trkpt><trkpt lat="44.54313619532114" lon="9.260021019735616"><ele>622.0</ele><time>2026-04-19T15:34:21.999Z</time></trkpt><trkpt lat="44.542996217538175" lon="9.259972488516253"><ele>622.0</ele><time>2026-04-19T15:34:22.999Z</time></trkpt><trkpt lat="44.542851545889434" lon="9.259911635899227"><ele>622.0</ele><time>2026-04-19T15:34:23.999Z</time></trkpt><trkpt lat="44.54271781597236" lon="9.259853657495073"><ele>622.0</ele><time>2026-04-19T15:34:24.999Z</time></trkpt><trkpt lat="44.54257109079552" lon="9.25979548725079"><ele>622.5</ele><time>2026-04-19T15:34:25.999Z</time></trkpt><trkpt lat="44.54245637220694" lon="9.259751697782699"><ele>623.0</ele><time>2026-04-19T15:34:26.999Z</time></trkpt><trkpt lat="44.54233219313893" lon="9.259707025769865"><ele>623.5</ele><time>2026-04-19T15:34:27.999Z</time></trkpt><trkpt lat="44.54219782786924" lon="9.25971308399778"><ele>624.0</ele><time>2026-04-19T15:34:28.999Z</time></trkpt><trkpt lat="44.54206508425744" lon="9.259781264737102"><ele>624.75</ele><time>2026-04-19T15:34:29.999Z</time></trkpt><trkpt lat="44.541941347919725" lon="9.259845826061468"><ele>625.5</ele><time>2026-04-19T15:34:30.999Z</time></trkpt><trkpt lat="44.54185017440607" lon="9.259999080662988"><ele>626.25</ele><time>2026-04-19T15:34:31.999Z</time></trkpt><trkpt lat="44.54175206475737" lon="9.260139844098147"><ele>627.0</ele><time>2026-04-19T15:34:32.999Z</time></trkpt><trkpt lat="44.54164946605837" lon="9.260297220453944"><ele>627.0</ele><time>2026-04-19T15:34:33.999Z</time></trkpt><trkpt lat="44.54152657617137" lon="9.260456985428418"><ele>627.0</ele><time>2026-04-19T15:34:34.999Z</time></trkpt><trkpt lat="44.54140564540393" lon="9.260582672645004"><ele>627.0</ele><time>2026-04-19T15:34:35.999Z</time></trkpt><trkpt lat="44.54127611615734" lon="9.260684244793186"><ele>628.6666666666666</ele><time>2026-04-19T15:34:36.999Z</time></trkpt><trkpt lat="44.541118287554326" lon="9.260776114775293"><ele>630.3333333333333</ele><time>2026-04-19T15:34:37.999Z</time></trkpt><trkpt lat="44.540947592151994" lon="9.260832944506696"><ele>632.0</ele><time>2026-04-19T15:34:38.999Z</time></trkpt><trkpt lat="44.54074420184563" lon="9.260870497826076"><ele>632.0</ele><time>2026-04-19T15:34:39.999Z</time></trkpt><trkpt lat="44.540522243274104" lon="9.260888458178917"><ele>632.0</ele><time>2026-04-19T15:34:40.999Z</time></trkpt><trkpt lat="44.54028746312007" lon="9.26089414135048"><ele>635.3333333333333</ele><time>2026-04-19T15:34:41.999Z</time></trkpt><trkpt lat="44.54009106771699" lon="9.260919119728314"><ele>638.6666666666666</ele><time>2026-04-19T15:34:42.999Z</time></trkpt><trkpt lat="44.539936771973764" lon="9.26091014329968"><ele>642.0</ele><time>2026-04-19T15:34:43.999Z</time></trkpt><trkpt lat="44.5397919934765" lon="9.260920010492363"><ele>642.0</ele><time>2026-04-19T15:34:44.999Z</time></trkpt><trkpt lat="44.53961721259715" lon="9.260926653482715"><ele>642.0</ele><time>2026-04-19T15:34:45.999Z</time></trkpt><trkpt lat="44.53944150830296" lon="9.260932995808458"><ele>642.0</ele><time>2026-04-19T15:34:46.999Z</time></trkpt><trkpt lat="44.53926261869801" lon="9.260950914105686"><ele>641.0</ele><time>2026-04-19T15:34:47.999Z</time></trkpt><trkpt lat="44.53907618468496" lon="9.2609565000592"><ele>640.0</ele><time>2026-04-19T15:34:48.999Z</time></trkpt><trkpt lat="44.53887880644427" lon="9.2609619799469"><ele>639.0</ele><time>2026-04-19T15:34:49.999Z</time></trkpt><trkpt lat="44.53870212909514" lon="9.260964153572113"><ele>639.0</ele><time>2026-04-19T15:34:50.999Z</time></trkpt><trkpt lat="44.53854588499384" lon="9.260972022685083"><ele>639.0</ele><time>2026-04-19T15:34:51.999Z</time></trkpt><trkpt lat="44.53839150103666" lon="9.260971795515609"><ele>639.0</ele><time>2026-04-19T15:34:52.999Z</time></trkpt><trkpt lat="44.53823432446932" lon="9.26097743517604"><ele>639.0</ele><time>2026-04-19T15:34:53.999Z</time></trkpt><trkpt lat="44.538074862820345" lon="9.260977603572112"><ele>639.0</ele><time>2026-04-19T15:34:54.999Z</time></trkpt><trkpt lat="44.53793071508163" lon="9.260979597606743"><ele>639.0</ele><time>2026-04-19T15:34:55.999Z</time></trkpt><trkpt lat="44.537790470651295" lon="9.260978956947637"><ele>639.0</ele><time>2026-04-19T15:34:56.999Z</time></trkpt><trkpt lat="44.537642732276524" lon="9.260987296072146"><ele>638.0</ele><time>2026-04-19T15:34:57.999Z</time></trkpt><trkpt lat="44.53748509674931" lon="9.26099254426928"><ele>637.0</ele><time>2026-04-19T15:34:58.999Z</time></trkpt><trkpt lat="44.53732487122527" lon="9.260999086667765"><ele>636.0</ele><time>2026-04-19T15:34:59.999Z</time></trkpt><trkpt lat="44.53715954057484" lon="9.261008607277216"><ele>637.0</ele><time>2026-04-19T15:35:00.999Z</time></trkpt><trkpt lat="44.53699392420594" lon="9.261029616085828"><ele>638.0</ele><time>2026-04-19T15:35:01.999Z</time></trkpt><trkpt lat="44.53683541117611" lon="9.261026847270069"><ele>639.0</ele><time>2026-04-19T15:35:02.999Z</time></trkpt><trkpt lat="44.53667655922755" lon="9.261067292295014"><ele>639.0</ele><time>2026-04-19T15:35:03.999Z</time></trkpt><trkpt lat="44.53651194427409" lon="9.26109239928188"><ele>639.0</ele><time>2026-04-19T15:35:04.999Z</time></trkpt><trkpt lat="44.53633919788541" lon="9.261126074577932"><ele>639.0</ele><time>2026-04-19T15:35:05.999Z</time></trkpt><trkpt lat="44.53617472935817" lon="9.261152571854277"><ele>644.0</ele><time>2026-04-19T15:35:06.999Z</time></trkpt><trkpt lat="44.536027011082936" lon="9.261167600090046"><ele>649.0</ele><time>2026-04-19T15:35:07.999Z</time></trkpt><trkpt lat="44.535876829595644" lon="9.261159381365562"><ele>654.0</ele><time>2026-04-19T15:35:08.999Z</time></trkpt><trkpt lat="44.53574224374402" lon="9.261131896825995"><ele>659.0</ele><time>2026-04-19T15:35:09.999Z</time></trkpt><trkpt lat="44.535609615261784" lon="9.261125662334376"><ele>659.0</ele><time>2026-04-19T15:35:10.999Z</time></trkpt><trkpt lat="44.53545788426633" lon="9.26117841472339"><ele>659.0</ele><time>2026-04-19T15:35:11.999Z</time></trkpt><trkpt lat="44.53529384211156" lon="9.261283612961517"><ele>659.0</ele><time>2026-04-19T15:35:12.999Z</time></trkpt><trkpt lat="44.535126233967574" lon="9.261425651545347"><ele>652.0</ele><time>2026-04-19T15:35:13.999Z</time></trkpt><trkpt lat="44.53498004533815" lon="9.261574576361733"><ele>645.0</ele><time>2026-04-19T15:35:14.999Z</time></trkpt><trkpt lat="44.5348450312704" lon="9.261670254952863"><ele>638.0</ele><time>2026-04-19T15:35:15.999Z</time></trkpt><trkpt lat="44.53472971066761" lon="9.261759166985602"><ele>638.0</ele><time>2026-04-19T15:35:16.999Z</time></trkpt><trkpt lat="44.534598415057886" lon="9.261827065567076"><ele>638.0</ele><time>2026-04-19T15:35:17.999Z</time></trkpt><trkpt lat="44.53445538201222" lon="9.261883713068872"><ele>638.0</ele><time>2026-04-19T15:35:18.999Z</time></trkpt><trkpt lat="44.53434078186465" lon="9.261943774063884"><ele>638.0</ele><time>2026-04-19T15:35:19.999Z</time></trkpt><trkpt lat="44.53422370345413" lon="9.26197294431881"><ele>638.0</ele><time>2026-04-19T15:35:20.999Z</time></trkpt><trkpt lat="44.534103777715124" lon="9.261967455736393"><ele>638.0</ele><time>2026-04-19T15:35:21.999Z</time></trkpt><trkpt lat="44.53400104658946" lon="9.2619278022779"><ele>638.0</ele><time>2026-04-19T15:35:22.999Z</time></trkpt><trkpt lat="44.53392887954229" lon="9.261819680940965"><ele>638.0</ele><time>2026-04-19T15:35:23.999Z</time></trkpt><trkpt lat="44.53386055041724" lon="9.26169656501431"><ele>638.0</ele><time>2026-04-19T15:35:24.999Z</time></trkpt><trkpt lat="44.53382657993569" lon="9.261513902783129"><ele>642.3333333333333</ele><time>2026-04-19T15:35:25.999Z</time></trkpt><trkpt lat="44.53381581979078" lon="9.261292865923147"><ele>646.6666666666666</ele><time>2026-04-19T15:35:26.999Z</time></trkpt><trkpt lat="44.53382378494621" lon="9.261056885554238"><ele>651.0</ele><time>2026-04-19T15:35:27.999Z</time></trkpt><trkpt lat="44.53384517181296" lon="9.26080581013392"><ele>653.3333333333334</ele><time>2026-04-19T15:35:28.999Z</time></trkpt><trkpt lat="44.53385015886524" lon="9.260536834938843"><ele>655.6666666666667</ele><time>2026-04-19T15:35:29.999Z</time></trkpt><trkpt lat="44.533832678336665" lon="9.260240887134358"><ele>658.0</ele><time>2026-04-19T15:35:30.999Z</time></trkpt><trkpt lat="44.53382181833356" lon="9.259961279422413"><ele>658.3333333333334</ele><time>2026-04-19T15:35:31.999Z</time></trkpt><trkpt lat="44.53382712551117" lon="9.259717544563891"><ele>658.6666666666666</ele><time>2026-04-19T15:35:32.999Z</time></trkpt><trkpt lat="44.533840485292274" lon="9.259491767237058"><ele>659.0</ele><time>2026-04-19T15:35:33.999Z</time></trkpt><trkpt lat="44.533864421311314" lon="9.259251277905927"><ele>659.0</ele><time>2026-04-19T15:35:34.999Z</time></trkpt><trkpt lat="44.53387946168174" lon="9.258993861545223"><ele>659.0</ele><time>2026-04-19T15:35:35.999Z</time></trkpt><trkpt lat="44.53386904877387" lon="9.258724029258943"><ele>659.0</ele><time>2026-04-19T15:35:36.999Z</time></trkpt><trkpt lat="44.533852909360895" lon="9.258458982571527"><ele>659.0</ele><time>2026-04-19T15:35:37.999Z</time></trkpt><trkpt lat="44.533836738302035" lon="9.258235143561018"><ele>659.0</ele><time>2026-04-19T15:35:38.999Z</time></trkpt><trkpt lat="44.53382037762059" lon="9.258019183812484"><ele>659.0</ele><time>2026-04-19T15:35:39.999Z</time></trkpt><trkpt lat="44.533839540336835" lon="9.257772382643923"><ele>659.0</ele><time>2026-04-19T15:35:40.999Z</time></trkpt><trkpt lat="44.53388914156662" lon="9.257513828551529"><ele>659.0</ele><time>2026-04-19T15:35:41.999Z</time></trkpt><trkpt lat="44.533925852300776" lon="9.257226726185431"><ele>659.0</ele><time>2026-04-19T15:35:42.999Z</time></trkpt><trkpt lat="44.53394471167208" lon="9.25697401215886"><ele>659.0</ele><time>2026-04-19T15:35:43.999Z</time></trkpt><trkpt lat="44.533964529245324" lon="9.256747730464456"><ele>659.0</ele><time>2026-04-19T15:35:44.999Z</time></trkpt><trkpt lat="44.5339843775871" lon="9.256530510214226"><ele>659.0</ele><time>2026-04-19T15:35:45.999Z</time></trkpt><trkpt lat="44.53399928043883" lon="9.256333722376638"><ele>659.0</ele><time>2026-04-19T15:35:46.999Z</time></trkpt><trkpt lat="44.53402031858354" lon="9.256158106653048"><ele>659.0</ele><time>2026-04-19T15:35:47.999Z</time></trkpt><trkpt lat="44.53404211122266" lon="9.256011628512905"><ele>659.0</ele><time>2026-04-19T15:35:48.999Z</time></trkpt><trkpt lat="44.5340671950776" lon="9.255860611226694"><ele>659.0</ele><time>2026-04-19T15:35:49.999Z</time></trkpt><trkpt lat="44.534030089405604" lon="9.255705607754484"><ele>662.3333333333333</ele><time>2026-04-19T15:35:50.998Z</time></trkpt><trkpt lat="44.53395575981697" lon="9.255537808794722"><ele>665.6666666666666</ele><time>2026-04-19T15:35:51.998Z</time></trkpt><trkpt lat="44.533851761899676" lon="9.255387295935073"><ele>669.0</ele><time>2026-04-19T15:35:52.998Z</time></trkpt><trkpt lat="44.5337654848337" lon="9.25519926699191"><ele>667.6666666666666</ele><time>2026-04-19T15:35:53.998Z</time></trkpt><trkpt lat="44.53365428939717" lon="9.255033083091817"><ele>666.3333333333333</ele><time>2026-04-19T15:35:54.998Z</time></trkpt><trkpt lat="44.53351998469119" lon="9.254888000519726"><ele>665.0</ele><time>2026-04-19T15:35:55.998Z</time></trkpt><trkpt lat="44.53338672533658" lon="9.25475771422906"><ele>665.0</ele><time>2026-04-19T15:35:56.998Z</time></trkpt><trkpt lat="44.53325238665319" lon="9.25462735705075"><ele>665.0</ele><time>2026-04-19T15:35:57.998Z</time></trkpt><trkpt lat="44.53311555129471" lon="9.254495007563156"><ele>665.0</ele><time>2026-04-19T15:35:58.998Z</time></trkpt><trkpt lat="44.532994535395765" lon="9.254378499129754"><ele>661.0</ele><time>2026-04-19T15:35:59.998Z</time></trkpt><trkpt lat="44.5328744358411" lon="9.254289501024994"><ele>657.0</ele><time>2026-04-19T15:36:00.998Z</time></trkpt><trkpt lat="44.53276222363929" lon="9.254213805816226"><ele>653.0</ele><time>2026-04-19T15:36:01.998Z</time></trkpt><trkpt lat="44.53262365297473" lon="9.254186950952029"><ele>649.0</ele><time>2026-04-19T15:36:02.998Z</time></trkpt><trkpt lat="44.5324639273653" lon="9.25415739467361"><ele>649.0</ele><time>2026-04-19T15:36:03.998Z</time></trkpt><trkpt lat="44.53229284991857" lon="9.254145063891537"><ele>649.0</ele><time>2026-04-19T15:36:04.998Z</time></trkpt><trkpt lat="44.532132611866594" lon="9.254177683634417"><ele>649.0</ele><time>2026-04-19T15:36:05.998Z</time></trkpt><trkpt lat="44.531995908967836" lon="9.25420152513165"><ele>653.6666666666667</ele><time>2026-04-19T15:36:06.998Z</time></trkpt><trkpt lat="44.53185599522446" lon="9.25427593474523"><ele>658.3333333333334</ele><time>2026-04-19T15:36:07.998Z</time></trkpt><trkpt lat="44.53171465892708" lon="9.254390873808589"><ele>663.0</ele><time>2026-04-19T15:36:08.998Z</time></trkpt><trkpt lat="44.53157591380883" lon="9.254487605576537"><ele>663.0</ele><time>2026-04-19T15:36:09.998Z</time></trkpt><trkpt lat="44.5314402251953" lon="9.254625520202586"><ele>663.0</ele><time>2026-04-19T15:36:10.998Z</time></trkpt><trkpt lat="44.53132491335794" lon="9.25480021039876"><ele>663.0</ele><time>2026-04-19T15:36:11.998Z</time></trkpt><trkpt lat="44.53120357406794" lon="9.254982526132727"><ele>664.3333333333334</ele><time>2026-04-19T15:36:12.998Z</time></trkpt><trkpt lat="44.5310865113317" lon="9.255168251298073"><ele>665.6666666666667</ele><time>2026-04-19T15:36:13.998Z</time></trkpt><trkpt lat="44.53097099044943" lon="9.25537012915663"><ele>667.0</ele><time>2026-04-19T15:36:14.998Z</time></trkpt><trkpt lat="44.530858217591785" lon="9.255576361322062"><ele>661.0</ele><time>2026-04-19T15:36:15.998Z</time></trkpt><trkpt lat="44.530758178678674" lon="9.25576618576646"><ele>655.0</ele><time>2026-04-19T15:36:16.998Z</time></trkpt><trkpt lat="44.530677476604076" lon="9.255951244946358"><ele>649.0</ele><time>2026-04-19T15:36:17.998Z</time></trkpt><trkpt lat="44.530603315691316" lon="9.256154154834007"><ele>649.0</ele><time>2026-04-19T15:36:18.998Z</time></trkpt><trkpt lat="44.53053044646136" lon="9.256348117654632"><ele>649.0</ele><time>2026-04-19T15:36:19.998Z</time></trkpt><trkpt lat="44.5304709060142" lon="9.256520353215635"><ele>649.0</ele><time>2026-04-19T15:36:20.998Z</time></trkpt><trkpt lat="44.530432033913684" lon="9.256697415278916"><ele>649.0</ele><time>2026-04-19T15:36:21.998Z</time></trkpt><trkpt lat="44.530409145305136" lon="9.256901088766817"><ele>647.6666666666667</ele><time>2026-04-19T15:36:22.998Z</time></trkpt><trkpt lat="44.53040435006727" lon="9.2571367893474"><ele>646.3333333333334</ele><time>2026-04-19T15:36:23.998Z</time></trkpt><trkpt lat="44.530399939217574" lon="9.257412390338036"><ele>645.0</ele><time>2026-04-19T15:36:25Z</time></trkpt><trkpt lat="44.53039260733465" lon="9.257719101277234"><ele>645.5</ele><time>2026-04-19T15:36:26Z</time></trkpt><trkpt lat="44.53038116721903" lon="9.258055559754956"><ele>646.0</ele><time>2026-04-19T15:36:27Z</time></trkpt><trkpt lat="44.53039678635527" lon="9.258394804283613"><ele>646.0</ele><time>2026-04-19T15:36:28Z</time></trkpt><trkpt lat="44.53040330593989" lon="9.258679470556636"><ele>646.0</ele><time>2026-04-19T15:36:29Z</time></trkpt><trkpt lat="44.53041390300576" lon="9.258935901534917"><ele>646.0</ele><time>2026-04-19T15:36:30Z</time></trkpt><trkpt lat="44.53042529543352" lon="9.259180668591107"><ele>646.25</ele><time>2026-04-19T15:36:31Z</time></trkpt><trkpt lat="44.530433382372046" lon="9.259395894135208"><ele>646.5</ele><time>2026-04-19T15:36:32Z</time></trkpt><trkpt lat="44.53043664004728" lon="9.25959789961067"><ele>646.75</ele><time>2026-04-19T15:36:33Z</time></trkpt><trkpt lat="44.53042608764935" lon="9.259779494288535"><ele>647.0</ele><time>2026-04-19T15:36:34Z</time></trkpt><trkpt lat="44.530375592716226" lon="9.259968024840946"><ele>647.25</ele><time>2026-04-19T15:36:35Z</time></trkpt><trkpt lat="44.53027873101953" lon="9.260143821834912"><ele>647.5</ele><time>2026-04-19T15:36:36Z</time></trkpt><trkpt lat="44.53017431183481" lon="9.260305235012677"><ele>647.75</ele><time>2026-04-19T15:36:37Z</time></trkpt><trkpt lat="44.53005089079298" lon="9.260383543996724"><ele>648.0</ele><time>2026-04-19T15:36:38Z</time></trkpt><trkpt lat="44.52990511062649" lon="9.260465740078194"><ele>648.0</ele><time>2026-04-19T15:36:39Z</time></trkpt><trkpt lat="44.52973892554945" lon="9.260452128687696"><ele>648.0</ele><time>2026-04-19T15:36:40Z</time></trkpt><trkpt lat="44.52956693183414" lon="9.260452268617998"><ele>648.0</ele><time>2026-04-19T15:36:41Z</time></trkpt><trkpt lat="44.52942047886663" lon="9.260344269010162"><ele>653.3333333333334</ele><time>2026-04-19T15:36:42Z</time></trkpt><trkpt lat="44.52925033029992" lon="9.260239004518864"><ele>658.6666666666667</ele><time>2026-04-19T15:36:43Z</time></trkpt><trkpt lat="44.529088764406865" lon="9.260189581856828"><ele>664.0</ele><time>2026-04-19T15:36:44Z</time></trkpt><trkpt lat="44.52891432376083" lon="9.260128924865509"><ele>664.0</ele><time>2026-04-19T15:36:45Z</time></trkpt><trkpt lat="44.52875313242959" lon="9.260102242089188"><ele>664.0</ele><time>2026-04-19T15:36:46Z</time></trkpt><trkpt lat="44.52861234958153" lon="9.260076549603735"><ele>664.0</ele><time>2026-04-19T15:36:47Z</time></trkpt><trkpt lat="44.528477366773004" lon="9.26001163368659"><ele>664.0</ele><time>2026-04-19T15:36:48Z</time></trkpt><trkpt lat="44.52835870078071" lon="9.259888586374933"><ele>670.3333333333334</ele><time>2026-04-19T15:36:49Z</time></trkpt><trkpt lat="44.528210318941255" lon="9.259715554041067"><ele>676.6666666666666</ele><time>2026-04-19T15:36:50Z</time></trkpt><trkpt lat="44.52805857242774" lon="9.259535018091173"><ele>683.0</ele><time>2026-04-19T15:36:51Z</time></trkpt><trkpt lat="44.527896090255524" lon="9.259341719659126"><ele>683.6666666666666</ele><time>2026-04-19T15:36:52Z</time></trkpt><trkpt lat="44.52773757077998" lon="9.259183509017861"><ele>684.3333333333334</ele><time>2026-04-19T15:36:53Z</time></trkpt><trkpt lat="44.527576909719876" lon="9.259047712842136"><ele>685.0</ele><time>2026-04-19T15:36:54Z</time></trkpt><trkpt lat="44.527397177819246" lon="9.258931400612022"><ele>685.0</ele><time>2026-04-19T15:36:55Z</time></trkpt><trkpt lat="44.52722429247328" lon="9.258816201941503"><ele>685.0</ele><time>2026-04-19T15:36:56Z</time></trkpt><trkpt lat="44.5270690869773" lon="9.258705182396445"><ele>685.0</ele><time>2026-04-19T15:36:57Z</time></trkpt><trkpt lat="44.5269153237388" lon="9.258557748580621"><ele>680.0</ele><time>2026-04-19T15:36:58Z</time></trkpt><trkpt lat="44.52678511623833" lon="9.258430324445177"><ele>675.0</ele><time>2026-04-19T15:36:59Z</time></trkpt><trkpt lat="44.526666696933255" lon="9.258268756657039"><ele>670.0</ele><time>2026-04-19T15:37:00Z</time></trkpt><trkpt lat="44.52656630711061" lon="9.258060583392846"><ele>670.0</ele><time>2026-04-19T15:37:01Z</time></trkpt><trkpt lat="44.52650027008797" lon="9.257836755825778"><ele>670.0</ele><time>2026-04-19T15:37:02Z</time></trkpt><trkpt lat="44.526454638786774" lon="9.257641807027538"><ele>670.0</ele><time>2026-04-19T15:37:03Z</time></trkpt><trkpt lat="44.526430245298236" lon="9.257402211612929"><ele>669.0</ele><time>2026-04-19T15:37:04Z</time></trkpt><trkpt lat="44.52644501636241" lon="9.257160112620346"><ele>668.0</ele><time>2026-04-19T15:37:05Z</time></trkpt><trkpt lat="44.526478766811515" lon="9.256951586617252"><ele>667.0</ele><time>2026-04-19T15:37:06Z</time></trkpt><trkpt lat="44.52652223082316" lon="9.256719566119314"><ele>667.0</ele><time>2026-04-19T15:37:07Z</time></trkpt><trkpt lat="44.52659313626687" lon="9.256477950800011"><ele>667.0</ele><time>2026-04-19T15:37:08Z</time></trkpt><trkpt lat="44.5266177616792" lon="9.25621832428687"><ele>667.0</ele><time>2026-04-19T15:37:09Z</time></trkpt><trkpt lat="44.526738998640624" lon="9.25595412123918"><ele>663.5</ele><time>2026-04-19T15:37:10Z</time></trkpt><trkpt lat="44.52686580002034" lon="9.255673390222388"><ele>660.0</ele><time>2026-04-19T15:37:11Z</time></trkpt><trkpt lat="44.52698461469071" lon="9.255410340902305"><ele>667.0</ele><time>2026-04-19T15:37:12Z</time></trkpt><trkpt lat="44.52711427214994" lon="9.25514891038523"><ele>674.0</ele><time>2026-04-19T15:37:13Z</time></trkpt><trkpt lat="44.527257394369876" lon="9.25488708443213"><ele>665.5</ele><time>2026-04-19T15:37:14Z</time></trkpt><trkpt lat="44.52740055717239" lon="9.254625184042771"><ele>657.0</ele><time>2026-04-19T15:37:15Z</time></trkpt><trkpt lat="44.52754460561987" lon="9.254361664031991"><ele>657.0</ele><time>2026-04-19T15:37:16Z</time></trkpt><trkpt lat="44.527670122775795" lon="9.254132044741267"><ele>657.0</ele><time>2026-04-19T15:37:17Z</time></trkpt><trkpt lat="44.52778927985731" lon="9.253909912700815"><ele>657.0</ele><time>2026-04-19T15:37:18Z</time></trkpt><trkpt lat="44.52789897811927" lon="9.253708982531634"><ele>663.3333333333334</ele><time>2026-04-19T15:37:19Z</time></trkpt><trkpt lat="44.52800039226508" lon="9.253524465576824"><ele>669.6666666666667</ele><time>2026-04-19T15:37:20Z</time></trkpt><trkpt lat="44.528085348313645" lon="9.253339028151727"><ele>676.0</ele><time>2026-04-19T15:37:21Z</time></trkpt><trkpt lat="44.528179812346316" lon="9.253176161261386"><ele>675.0</ele><time>2026-04-19T15:37:22Z</time></trkpt><trkpt lat="44.528259488813305" lon="9.25303808459423"><ele>674.0</ele><time>2026-04-19T15:37:23Z</time></trkpt><trkpt lat="44.52831415470345" lon="9.25289488560619"><ele>673.0</ele><time>2026-04-19T15:37:24Z</time></trkpt><trkpt lat="44.52834111071923" lon="9.252743270073989"><ele>672.0</ele><time>2026-04-19T15:37:25Z</time></trkpt><trkpt lat="44.52834660376748" lon="9.252557181045802"><ele>672.0</ele><time>2026-04-19T15:37:26Z</time></trkpt><trkpt lat="44.52834751529222" lon="9.252350936532531"><ele>672.0</ele><time>2026-04-19T15:37:27Z</time></trkpt><trkpt lat="44.5283423684656" lon="9.25215605679063"><ele>672.0</ele><time>2026-04-19T15:37:28Z</time></trkpt><trkpt lat="44.528322232547985" lon="9.251947962436054"><ele>672.0</ele><time>2026-04-19T15:37:29Z</time></trkpt><trkpt lat="44.52827217988805" lon="9.25173240685957"><ele>672.5</ele><time>2026-04-19T15:37:30Z</time></trkpt><trkpt lat="44.52815939144861" lon="9.251483481579587"><ele>673.0</ele><time>2026-04-19T15:37:30.999Z</time></trkpt><trkpt lat="44.52809636788221" lon="9.25139130564426"><ele>673.5</ele><time>2026-04-19T15:37:31.999Z</time></trkpt><trkpt lat="44.527994310527575" lon="9.251249041921312"><ele>674.0</ele><time>2026-04-19T15:37:32.999Z</time></trkpt><trkpt lat="44.527879729740256" lon="9.251102513708945"><ele>668.0</ele><time>2026-04-19T15:37:33.999Z</time></trkpt><trkpt lat="44.527747529561786" lon="9.251001455748144"><ele>662.0</ele><time>2026-04-19T15:37:34.999Z</time></trkpt><trkpt lat="44.52760524136524" lon="9.250898166071025"><ele>656.0</ele><time>2026-04-19T15:37:35.999Z</time></trkpt><trkpt lat="44.52748763994183" lon="9.250767347283448"><ele>659.3333333333333</ele><time>2026-04-19T15:37:36.999Z</time></trkpt><trkpt lat="44.5273667836861" lon="9.250613786030518"><ele>662.6666666666666</ele><time>2026-04-19T15:37:37.999Z</time></trkpt><trkpt lat="44.527249314737546" lon="9.250442502836538"><ele>666.0</ele><time>2026-04-19T15:37:38.999Z</time></trkpt><trkpt lat="44.527125194820634" lon="9.250292876219351"><ele>665.6666666666666</ele><time>2026-04-19T15:37:39.999Z</time></trkpt><trkpt lat="44.52700983245997" lon="9.250118564871672"><ele>665.3333333333333</ele><time>2026-04-19T15:37:40.999Z</time></trkpt><trkpt lat="44.52688805557142" lon="9.249952864113993"><ele>665.0</ele><time>2026-04-19T15:37:41.999Z</time></trkpt><trkpt lat="44.526764400439376" lon="9.249781356059279"><ele>665.0</ele><time>2026-04-19T15:37:42.999Z</time></trkpt><trkpt lat="44.526656489428774" lon="9.24962101367921"><ele>665.0</ele><time>2026-04-19T15:37:43.999Z</time></trkpt><trkpt lat="44.52655411457657" lon="9.249457228912839"><ele>665.0</ele><time>2026-04-19T15:37:44.999Z</time></trkpt><trkpt lat="44.526441681007526" lon="9.249288758293922"><ele>665.0</ele><time>2026-04-19T15:37:45.999Z</time></trkpt><trkpt lat="44.52633808367594" lon="9.249124923852365"><ele>665.0</ele><time>2026-04-19T15:37:46.999Z</time></trkpt><trkpt lat="44.52627332951816" lon="9.24895299972319"><ele>665.0</ele><time>2026-04-19T15:37:47.999Z</time></trkpt><trkpt lat="44.52620199769038" lon="9.248803311666858"><ele>665.0</ele><time>2026-04-19T15:37:48.999Z</time></trkpt><trkpt lat="44.52612819114082" lon="9.248650252956281"><ele>664.5</ele><time>2026-04-19T15:37:49.999Z</time></trkpt><trkpt lat="44.52605703593679" lon="9.24850283013681"><ele>664.0</ele><time>2026-04-19T15:37:50.999Z</time></trkpt><trkpt lat="44.52599305033184" lon="9.248370261784963"><ele>663.5</ele><time>2026-04-19T15:37:51.999Z</time></trkpt><trkpt lat="44.52592843179177" lon="9.248241812555337"><ele>663.0</ele><time>2026-04-19T15:37:52.999Z</time></trkpt><trkpt lat="44.525862833598055" lon="9.248106614101436"><ele>664.0</ele><time>2026-04-19T15:37:53.999Z</time></trkpt><trkpt lat="44.52579665668725" lon="9.247962176754534"><ele>665.0</ele><time>2026-04-19T15:37:54.999Z</time></trkpt><trkpt lat="44.525731407551866" lon="9.24781942971009"><ele>666.0</ele><time>2026-04-19T15:37:55.999Z</time></trkpt><trkpt lat="44.52565712723415" lon="9.247681747600904"><ele>667.0</ele><time>2026-04-19T15:37:56.999Z</time></trkpt><trkpt lat="44.52558720840101" lon="9.247540695111693"><ele>667.0</ele><time>2026-04-19T15:37:57.999Z</time></trkpt><trkpt lat="44.525520335235036" lon="9.247419001169071"><ele>667.0</ele><time>2026-04-19T15:37:58.999Z</time></trkpt><trkpt lat="44.52545621448441" lon="9.2473046029829"><ele>667.0</ele><time>2026-04-19T15:37:59.999Z</time></trkpt><trkpt lat="44.525388944633015" lon="9.247184586530338"><ele>667.0</ele><time>2026-04-19T15:38:00.999Z</time></trkpt><trkpt lat="44.525312542355856" lon="9.247068620589955"><ele>667.0</ele><time>2026-04-19T15:38:01.999Z</time></trkpt><trkpt lat="44.52525913682396" lon="9.246915454952825"><ele>665.8</ele><time>2026-04-19T15:38:02.999Z</time></trkpt><trkpt lat="44.52521699067142" lon="9.246750863564479"><ele>664.6</ele><time>2026-04-19T15:38:03.999Z</time></trkpt><trkpt lat="44.52519504069648" lon="9.24660225514108"><ele>663.4</ele><time>2026-04-19T15:38:04.999Z</time></trkpt><trkpt lat="44.525202567740905" lon="9.2464749517077"><ele>662.1999999999999</ele><time>2026-04-19T15:38:05.999Z</time></trkpt><trkpt lat="44.525246617348245" lon="9.246323228039298"><ele>661.0</ele><time>2026-04-19T15:38:06.999Z</time></trkpt><trkpt lat="44.525278723084384" lon="9.246111479725219"><ele>660.3333333333334</ele><time>2026-04-19T15:38:07.999Z</time></trkpt><trkpt lat="44.52530479648865" lon="9.245870301164517"><ele>659.6666666666666</ele><time>2026-04-19T15:38:08.999Z</time></trkpt><trkpt lat="44.52532418827358" lon="9.245595603308704"><ele>659.0</ele><time>2026-04-19T15:38:09.999Z</time></trkpt><trkpt lat="44.52537589161683" lon="9.245352205407166"><ele>664.6666666666666</ele><time>2026-04-19T15:38:10.999Z</time></trkpt><trkpt lat="44.52541493239798" lon="9.245113270491501"><ele>670.3333333333334</ele><time>2026-04-19T15:38:11.999Z</time></trkpt><trkpt lat="44.52549296088896" lon="9.24487657888713"><ele>676.0</ele><time>2026-04-19T15:38:12.999Z</time></trkpt><trkpt lat="44.52556168922569" lon="9.244668474873745"><ele>676.0</ele><time>2026-04-19T15:38:13.999Z</time></trkpt><trkpt lat="44.52562266004474" lon="9.244474878023658"><ele>676.0</ele><time>2026-04-19T15:38:14.999Z</time></trkpt><trkpt lat="44.525679545167996" lon="9.244265734111334"><ele>676.0</ele><time>2026-04-19T15:38:15.999Z</time></trkpt><trkpt lat="44.525741571049025" lon="9.244046062919775"><ele>674.25</ele><time>2026-04-19T15:38:16.999Z</time></trkpt><trkpt lat="44.5257986314743" lon="9.243849267099312"><ele>672.5</ele><time>2026-04-19T15:38:17.999Z</time></trkpt><trkpt lat="44.525847168544225" lon="9.243663080834162"><ele>670.75</ele><time>2026-04-19T15:38:18.999Z</time></trkpt><trkpt lat="44.52591559963483" lon="9.243477688436558"><ele>669.0</ele><time>2026-04-19T15:38:19.999Z</time></trkpt><trkpt lat="44.52601484152632" lon="9.243299194202065"><ele>669.0</ele><time>2026-04-19T15:38:20.999Z</time></trkpt><trkpt lat="44.52611295810998" lon="9.243155556408578"><ele>669.0</ele><time>2026-04-19T15:38:21.999Z</time></trkpt><trkpt lat="44.52616856593689" lon="9.242992790425033"><ele>669.0</ele><time>2026-04-19T15:38:22.999Z</time></trkpt><trkpt lat="44.52619983759584" lon="9.242783070647784"><ele>669.0</ele><time>2026-04-19T15:38:23.999Z</time></trkpt><trkpt lat="44.52621760387654" lon="9.2425323659124"><ele>672.0</ele><time>2026-04-19T15:38:24.999Z</time></trkpt><trkpt lat="44.52623982603409" lon="9.242255550110617"><ele>675.0</ele><time>2026-04-19T15:38:25.999Z</time></trkpt><trkpt lat="44.52628118076989" lon="9.242010484069109"><ele>678.0</ele><time>2026-04-19T15:38:26.999Z</time></trkpt><trkpt lat="44.526301879480826" lon="9.241813841629982"><ele>678.0</ele><time>2026-04-19T15:38:27.999Z</time></trkpt><trkpt lat="44.52631998419916" lon="9.241642955207512"><ele>678.0</ele><time>2026-04-19T15:38:28.999Z</time></trkpt><trkpt lat="44.526337275816715" lon="9.241492384984939"><ele>678.0</ele><time>2026-04-19T15:38:29.999Z</time></trkpt><trkpt lat="44.52632597320824" lon="9.241343341970648"><ele>678.0</ele><time>2026-04-19T15:38:31Z</time></trkpt><trkpt lat="44.5262806214134" lon="9.241175889038372"><ele>674.6666666666666</ele><time>2026-04-19T15:38:32Z</time></trkpt><trkpt lat="44.526231670863005" lon="9.24097876064148"><ele>671.3333333333333</ele><time>2026-04-19T15:38:33Z</time></trkpt><trkpt lat="44.52617486119843" lon="9.240780668289021"><ele>668.0</ele><time>2026-04-19T15:38:34Z</time></trkpt><trkpt lat="44.526120201395536" lon="9.24057152995392"><ele>667.75</ele><time>2026-04-19T15:38:35Z</time></trkpt><trkpt lat="44.526069701934716" lon="9.240376392490285"><ele>667.5</ele><time>2026-04-19T15:38:36Z</time></trkpt><trkpt lat="44.5260306886627" lon="9.240185379638795"><ele>667.25</ele><time>2026-04-19T15:38:37Z</time></trkpt><trkpt lat="44.526022796648064" lon="9.239991997646412"><ele>667.0</ele><time>2026-04-19T15:38:38Z</time></trkpt><trkpt lat="44.52607373259344" lon="9.239810465775921"><ele>668.3333333333334</ele><time>2026-04-19T15:38:39Z</time></trkpt><trkpt lat="44.52611991224896" lon="9.239617745111849"><ele>669.6666666666666</ele><time>2026-04-19T15:38:40Z</time></trkpt><trkpt lat="44.52619910834496" lon="9.239428501564797"><ele>671.0</ele><time>2026-04-19T15:38:41Z</time></trkpt><trkpt lat="44.52627732207528" lon="9.239245082892731"><ele>674.75</ele><time>2026-04-19T15:38:42Z</time></trkpt><trkpt lat="44.526344202789446" lon="9.239085465042828"><ele>678.5</ele><time>2026-04-19T15:38:43Z</time></trkpt><trkpt lat="44.52639972228466" lon="9.238927949229653"><ele>682.25</ele><time>2026-04-19T15:38:44Z</time></trkpt><trkpt lat="44.52644217718146" lon="9.238750487480269"><ele>686.0</ele><time>2026-04-19T15:38:45Z</time></trkpt><trkpt lat="44.52644963590465" lon="9.23858059975368"><ele>687.5</ele><time>2026-04-19T15:38:46Z</time></trkpt><trkpt lat="44.52643040738572" lon="9.238420881345055"><ele>689.0</ele><time>2026-04-19T15:38:47Z</time></trkpt><trkpt lat="44.526384698307766" lon="9.238264978510431"><ele>690.5</ele><time>2026-04-19T15:38:48Z</time></trkpt><trkpt lat="44.526327464099865" lon="9.23811937964941"><ele>692.0</ele><time>2026-04-19T15:38:49Z</time></trkpt><trkpt lat="44.5262638674541" lon="9.237973980382609"><ele>686.75</ele><time>2026-04-19T15:38:50Z</time></trkpt><trkpt lat="44.52617138268337" lon="9.237827910364327"><ele>681.5</ele><time>2026-04-19T15:38:51Z</time></trkpt><trkpt lat="44.526071593464515" lon="9.237682936141402"><ele>676.25</ele><time>2026-04-19T15:38:52Z</time></trkpt><trkpt lat="44.5259924392341" lon="9.2375655829931"><ele>671.0</ele><time>2026-04-19T15:38:53Z</time></trkpt><trkpt lat="44.52592444639178" lon="9.237467322712632"><ele>671.0</ele><time>2026-04-19T15:38:54Z</time></trkpt><trkpt lat="44.52584469426908" lon="9.237375768564688"><ele>671.0</ele><time>2026-04-19T15:38:55Z</time></trkpt><trkpt lat="44.52574049844867" lon="9.237285887156833"><ele>671.0</ele><time>2026-04-19T15:38:56Z</time></trkpt><trkpt lat="44.52562228358167" lon="9.237196247351644"><ele>671.0</ele><time>2026-04-19T15:38:57Z</time></trkpt><trkpt lat="44.52551803687234" lon="9.237066337866079"><ele>672.5</ele><time>2026-04-19T15:38:58Z</time></trkpt><trkpt lat="44.52542523639901" lon="9.236952739425941"><ele>674.0</ele><time>2026-04-19T15:38:59Z</time></trkpt><trkpt lat="44.52535527820975" lon="9.236806328102396"><ele>675.5</ele><time>2026-04-19T15:39:00Z</time></trkpt><trkpt lat="44.52528752297498" lon="9.236669005596895"><ele>677.0</ele><time>2026-04-19T15:39:01Z</time></trkpt><trkpt lat="44.525218080520574" lon="9.23655267309405"><ele>683.0</ele><time>2026-04-19T15:39:02Z</time></trkpt><trkpt lat="44.52515251815217" lon="9.236427894936417"><ele>689.0</ele><time>2026-04-19T15:39:03Z</time></trkpt><trkpt lat="44.52508157243028" lon="9.236307788307286"><ele>695.0</ele><time>2026-04-19T15:39:04Z</time></trkpt><trkpt lat="44.52498069902594" lon="9.236204607546163"><ele>701.0</ele><time>2026-04-19T15:39:05Z</time></trkpt><trkpt lat="44.52486542356206" lon="9.236126106923225"><ele>701.0</ele><time>2026-04-19T15:39:06Z</time></trkpt><trkpt lat="44.524710214269064" lon="9.236053599035168"><ele>701.0</ele><time>2026-04-19T15:39:07Z</time></trkpt><trkpt lat="44.524526514748274" lon="9.236004766672155"><ele>701.0</ele><time>2026-04-19T15:39:08Z</time></trkpt><trkpt lat="44.524325891284136" lon="9.235917291933765"><ele>697.6666666666666</ele><time>2026-04-19T15:39:09Z</time></trkpt><trkpt lat="44.524103429571944" lon="9.235837611560456"><ele>694.3333333333334</ele><time>2026-04-19T15:39:10Z</time></trkpt><trkpt lat="44.52390043574006" lon="9.23577973356726"><ele>691.0</ele><time>2026-04-19T15:39:11Z</time></trkpt><trkpt lat="44.523739957158526" lon="9.235711227028226"><ele>693.0</ele><time>2026-04-19T15:39:12Z</time></trkpt><trkpt lat="44.523596374164036" lon="9.235641149494361"><ele>695.0</ele><time>2026-04-19T15:39:13Z</time></trkpt><trkpt lat="44.52346572897683" lon="9.235590469481517"><ele>697.0</ele><time>2026-04-19T15:39:14Z</time></trkpt><trkpt lat="44.52333390212691" lon="9.235546381207916"><ele>699.0</ele><time>2026-04-19T15:39:15Z</time></trkpt><trkpt lat="44.523202507722665" lon="9.235496837837719"><ele>699.0</ele><time>2026-04-19T15:39:16Z</time></trkpt><trkpt lat="44.523080349252" lon="9.235443622534415"><ele>699.0</ele><time>2026-04-19T15:39:17Z</time></trkpt><trkpt lat="44.522961816960354" lon="9.235375430424321"><ele>699.0</ele><time>2026-04-19T15:39:18Z</time></trkpt><trkpt lat="44.52283003871159" lon="9.235287266268461"><ele>699.0</ele><time>2026-04-19T15:39:19Z</time></trkpt><trkpt lat="44.522699249612685" lon="9.23518128497448"><ele>701.25</ele><time>2026-04-19T15:39:20Z</time></trkpt><trkpt lat="44.52258421235858" lon="9.235078780669353"><ele>703.5</ele><time>2026-04-19T15:39:21Z</time></trkpt><trkpt lat="44.522490948298135" lon="9.234973801367623"><ele>705.75</ele><time>2026-04-19T15:39:22Z</time></trkpt><trkpt lat="44.52239914178569" lon="9.23485811272257"><ele>708.0</ele><time>2026-04-19T15:39:23Z</time></trkpt><trkpt lat="44.522307395150165" lon="9.234739855075603"><ele>708.0</ele><time>2026-04-19T15:39:24Z</time></trkpt><trkpt lat="44.522222018408996" lon="9.23463676701363"><ele>708.0</ele><time>2026-04-19T15:39:25Z</time></trkpt><trkpt lat="44.52213146227084" lon="9.23452853111729"><ele>708.0</ele><time>2026-04-19T15:39:26Z</time></trkpt><trkpt lat="44.52205036293772" lon="9.234424206807974"><ele>708.0</ele><time>2026-04-19T15:39:27Z</time></trkpt><trkpt lat="44.52198403048756" lon="9.234331106523781"><ele>708.0</ele><time>2026-04-19T15:39:28Z</time></trkpt><trkpt lat="44.52192623235516" lon="9.23422898843154"><ele>706.25</ele><time>2026-04-19T15:39:29Z</time></trkpt><trkpt lat="44.52187937705773" lon="9.234102704692592"><ele>704.5</ele><time>2026-04-19T15:39:30Z</time></trkpt><trkpt lat="44.52184452826828" lon="9.233962235267509"><ele>702.75</ele><time>2026-04-19T15:39:31Z</time></trkpt><trkpt lat="44.52183330580625" lon="9.233794309064312"><ele>701.0</ele><time>2026-04-19T15:39:32Z</time></trkpt><trkpt lat="44.521816410432095" lon="9.233584356448727"><ele>701.0</ele><time>2026-04-19T15:39:33Z</time></trkpt><trkpt lat="44.52179129437444" lon="9.233323051804126"><ele>701.0</ele><time>2026-04-19T15:39:34Z</time></trkpt><trkpt lat="44.52177202048347" lon="9.233050844609188"><ele>701.0</ele><time>2026-04-19T15:39:35Z</time></trkpt><trkpt lat="44.52174037430646" lon="9.232826429457344"><ele>702.5</ele><time>2026-04-19T15:39:35.999Z</time></trkpt><trkpt lat="44.52169389119675" lon="9.232633403304012"><ele>704.0</ele><time>2026-04-19T15:39:36.999Z</time></trkpt><trkpt lat="44.52165691544038" lon="9.232444556883074"><ele>705.5</ele><time>2026-04-19T15:39:37.999Z</time></trkpt><trkpt lat="44.5215843810274" lon="9.232263227563827"><ele>707.0</ele><time>2026-04-19T15:39:38.999Z</time></trkpt><trkpt lat="44.521476784174816" lon="9.232104546392215"><ele>708.0</ele><time>2026-04-19T15:39:39.999Z</time></trkpt><trkpt lat="44.52138612404428" lon="9.231955799388086"><ele>709.0</ele><time>2026-04-19T15:39:40.999Z</time></trkpt><trkpt lat="44.52126230944877" lon="9.231814329891641"><ele>710.0</ele><time>2026-04-19T15:39:41.999Z</time></trkpt><trkpt lat="44.521118006703745" lon="9.231678531941926"><ele>710.0</ele><time>2026-04-19T15:39:42.999Z</time></trkpt><trkpt lat="44.5209470298171" lon="9.231560983915596"><ele>710.0</ele><time>2026-04-19T15:39:43.999Z</time></trkpt><trkpt lat="44.520785831996825" lon="9.231458774429312"><ele>710.0</ele><time>2026-04-19T15:39:44.999Z</time></trkpt><trkpt lat="44.520641878349394" lon="9.231331535544518"><ele>712.0</ele><time>2026-04-19T15:39:45.999Z</time></trkpt><trkpt lat="44.520505569354015" lon="9.231152694960674"><ele>714.0</ele><time>2026-04-19T15:39:46.999Z</time></trkpt><trkpt lat="44.52035669885006" lon="9.230958948379907"><ele>716.0</ele><time>2026-04-19T15:39:47.999Z</time></trkpt><trkpt lat="44.52022452632366" lon="9.23078805920406"><ele>726.3333333333333</ele><time>2026-04-19T15:39:48.999Z</time></trkpt><trkpt lat="44.52011378102012" lon="9.23062602953484"><ele>736.6666666666666</ele><time>2026-04-19T15:39:49.999Z</time></trkpt><trkpt lat="44.52001312697906" lon="9.230461934027895"><ele>747.0</ele><time>2026-04-19T15:39:50.999Z</time></trkpt><trkpt lat="44.51989832598205" lon="9.230305367683327"><ele>747.0</ele><time>2026-04-19T15:39:51.999Z</time></trkpt><trkpt lat="44.51975411360149" lon="9.23017393648945"><ele>747.0</ele><time>2026-04-19T15:39:52.999Z</time></trkpt><trkpt lat="44.519598692317736" lon="9.230065866654932"><ele>747.0</ele><time>2026-04-19T15:39:53.999Z</time></trkpt><trkpt lat="44.51942889095644" lon="9.229974424921963"><ele>749.0</ele><time>2026-04-19T15:39:54.999Z</time></trkpt><trkpt lat="44.5192650008476" lon="9.229906789956592"><ele>751.0</ele><time>2026-04-19T15:39:55.999Z</time></trkpt><trkpt lat="44.51908818761782" lon="9.22981752680509"><ele>753.0</ele><time>2026-04-19T15:39:56.999Z</time></trkpt><trkpt lat="44.51890589260566" lon="9.229741083494316"><ele>748.3333333333334</ele><time>2026-04-19T15:39:57.999Z</time></trkpt><trkpt lat="44.518725606365884" lon="9.229657340004476"><ele>743.6666666666667</ele><time>2026-04-19T15:39:58.999Z</time></trkpt><trkpt lat="44.518566254956376" lon="9.229585298412363"><ele>739.0</ele><time>2026-04-19T15:39:59.999Z</time></trkpt><trkpt lat="44.518424786116846" lon="9.229526653512698"><ele>739.0</ele><time>2026-04-19T15:40:00.999Z</time></trkpt><trkpt lat="44.51829429283107" lon="9.229466328828448"><ele>739.0</ele><time>2026-04-19T15:40:01.999Z</time></trkpt><trkpt lat="44.51814970520328" lon="9.229422166802367"><ele>739.0</ele><time>2026-04-19T15:40:02.999Z</time></trkpt><trkpt lat="44.51798373810569" lon="9.229426491333523"><ele>744.3333333333334</ele><time>2026-04-19T15:40:03.999Z</time></trkpt><trkpt lat="44.5177978214679" lon="9.229460627214644"><ele>749.6666666666666</ele><time>2026-04-19T15:40:04.999Z</time></trkpt><trkpt lat="44.51759519829329" lon="9.22949711196999"><ele>755.0</ele><time>2026-04-19T15:40:05.999Z</time></trkpt><trkpt lat="44.51739571557992" lon="9.229503598590004"><ele>755.0</ele><time>2026-04-19T15:40:06.999Z</time></trkpt><trkpt lat="44.51722679762557" lon="9.22948551577824"><ele>755.0</ele><time>2026-04-19T15:40:07.999Z</time></trkpt><trkpt lat="44.51707968518087" lon="9.229475987782845"><ele>755.0</ele><time>2026-04-19T15:40:08.999Z</time></trkpt><trkpt lat="44.51693969792659" lon="9.229508108815027"><ele>756.5</ele><time>2026-04-19T15:40:09.999Z</time></trkpt><trkpt lat="44.51678432122549" lon="9.229577080098638"><ele>758.0</ele><time>2026-04-19T15:40:10.999Z</time></trkpt><trkpt lat="44.51665072456443" lon="9.229645768944492"><ele>759.5</ele><time>2026-04-19T15:40:11.999Z</time></trkpt><trkpt lat="44.516532084936586" lon="9.229698088382273"><ele>761.0</ele><time>2026-04-19T15:40:12.999Z</time></trkpt><trkpt lat="44.5164094089777" lon="9.229724832944326"><ele>761.0</ele><time>2026-04-19T15:40:13.999Z</time></trkpt><trkpt lat="44.516274237107226" lon="9.229678774532633"><ele>761.0</ele><time>2026-04-19T15:40:14.999Z</time></trkpt><trkpt lat="44.51614318019509" lon="9.229596714924906"><ele>761.0</ele><time>2026-04-19T15:40:15.999Z</time></trkpt><trkpt lat="44.51605149013613" lon="9.229485254686224"><ele>761.0</ele><time>2026-04-19T15:40:16.999Z</time></trkpt><trkpt lat="44.515985420066826" lon="9.229352234519515"><ele>754.25</ele><time>2026-04-19T15:40:17.999Z</time></trkpt><trkpt lat="44.51592944397975" lon="9.229163621382893"><ele>747.5</ele><time>2026-04-19T15:40:18.999Z</time></trkpt><trkpt lat="44.515884804130984" lon="9.228980860381046"><ele>740.75</ele><time>2026-04-19T15:40:19.999Z</time></trkpt><trkpt lat="44.515853850522696" lon="9.228838420434432"><ele>734.0</ele><time>2026-04-19T15:40:20.999Z</time></trkpt><trkpt lat="44.51584391337773" lon="9.228704445708303"><ele>734.0</ele><time>2026-04-19T15:40:21.999Z</time></trkpt><trkpt lat="44.51587830396174" lon="9.228543051626936"><ele>734.0</ele><time>2026-04-19T15:40:22.999Z</time></trkpt><trkpt lat="44.51590621028381" lon="9.22832533803351"><ele>734.0</ele><time>2026-04-19T15:40:23.999Z</time></trkpt><trkpt lat="44.51595839396086" lon="9.2280858398053"><ele>734.3333333333333</ele><time>2026-04-19T15:40:24.999Z</time></trkpt><trkpt lat="44.51601204870095" lon="9.227853198039524"><ele>734.6666666666666</ele><time>2026-04-19T15:40:25.999Z</time></trkpt><trkpt lat="44.51607059091452" lon="9.227615872801474"><ele>735.0</ele><time>2026-04-19T15:40:26.999Z</time></trkpt><trkpt lat="44.516140177066255" lon="9.227362617982372"><ele>733.3333333333334</ele><time>2026-04-19T15:40:27.999Z</time></trkpt><trkpt lat="44.516209393998615" lon="9.227125383897201"><ele>731.6666666666667</ele><time>2026-04-19T15:40:28.999Z</time></trkpt><trkpt lat="44.51626790411167" lon="9.226917130565532"><ele>730.0</ele><time>2026-04-19T15:40:29.999Z</time></trkpt><trkpt lat="44.516320780536816" lon="9.226713788563536"><ele>745.0</ele><time>2026-04-19T15:40:30.999Z</time></trkpt><trkpt lat="44.516356759243386" lon="9.226499143458485"><ele>760.0</ele><time>2026-04-19T15:40:31.999Z</time></trkpt><trkpt lat="44.51637568455621" lon="9.226271192295368"><ele>775.0</ele><time>2026-04-19T15:40:32.999Z</time></trkpt><trkpt lat="44.516385870012556" lon="9.226072646367195"><ele>775.0</ele><time>2026-04-19T15:40:33.999Z</time></trkpt><trkpt lat="44.51640124457598" lon="9.225890424408256"><ele>775.0</ele><time>2026-04-19T15:40:34.999Z</time></trkpt><trkpt lat="44.51646635991757" lon="9.225687709351211"><ele>775.0</ele><time>2026-04-19T15:40:35.999Z</time></trkpt><trkpt lat="44.51653787578839" lon="9.225485470367206"><ele>775.8</ele><time>2026-04-19T15:40:37Z</time></trkpt><trkpt lat="44.516619072749144" lon="9.225343503431606"><ele>776.6</ele><time>2026-04-19T15:40:38Z</time></trkpt><trkpt lat="44.516672901887745" lon="9.225205606334029"><ele>777.4000000000001</ele><time>2026-04-19T15:40:39Z</time></trkpt><trkpt lat="44.51671225939018" lon="9.225098058030385"><ele>778.2</ele><time>2026-04-19T15:40:40Z</time></trkpt><trkpt lat="44.51671693835875" lon="9.22499045362643"><ele>779.0</ele><time>2026-04-19T15:40:41Z</time></trkpt><trkpt lat="44.51667686537182" lon="9.224866201234365"><ele>774.6</ele><time>2026-04-19T15:40:42Z</time></trkpt><trkpt lat="44.51659525509768" lon="9.22476012512089"><ele>770.2</ele><time>2026-04-19T15:40:43Z</time></trkpt><trkpt lat="44.516504168767284" lon="9.224723634113893"><ele>765.8000000000001</ele><time>2026-04-19T15:40:44Z</time></trkpt><trkpt lat="44.516400403823" lon="9.224765075420537"><ele>761.4000000000001</ele><time>2026-04-19T15:40:45Z</time></trkpt><trkpt lat="44.516271490601376" lon="9.22479035458565"><ele>757.0</ele><time>2026-04-19T15:40:46Z</time></trkpt><trkpt lat="44.5161373975877" lon="9.224733135891713"><ele>757.0</ele><time>2026-04-19T15:40:47Z</time></trkpt><trkpt lat="44.516021335656234" lon="9.224661901603312"><ele>757.0</ele><time>2026-04-19T15:40:48Z</time></trkpt><trkpt lat="44.515918754721106" lon="9.224607144360656"><ele>757.0</ele><time>2026-04-19T15:40:49Z</time></trkpt><trkpt lat="44.51585426369997" lon="9.224507178054768"><ele>757.0</ele><time>2026-04-19T15:40:50Z</time></trkpt><trkpt lat="44.51582100435678" lon="9.224344746721151"><ele>757.0</ele><time>2026-04-19T15:40:51Z</time></trkpt><trkpt lat="44.515800349411776" lon="9.22414858275586"><ele>757.0</ele><time>2026-04-19T15:40:52Z</time></trkpt><trkpt lat="44.51580839294501" lon="9.223946248490606"><ele>757.0</ele><time>2026-04-19T15:40:53Z</time></trkpt><trkpt lat="44.515812745666466" lon="9.2237795959396"><ele>757.0</ele><time>2026-04-19T15:40:54Z</time></trkpt><trkpt lat="44.51582009723266" lon="9.223661646136215"><ele>760.4000000000001</ele><time>2026-04-19T15:40:55Z</time></trkpt><trkpt lat="44.51579029719508" lon="9.223555383870941"><ele>763.8000000000001</ele><time>2026-04-19T15:40:56Z</time></trkpt><trkpt lat="44.51566544747469" lon="9.223492323454478"><ele>767.2</ele><time>2026-04-19T15:40:57Z</time></trkpt><trkpt lat="44.51553997087334" lon="9.22343260058256"><ele>770.6</ele><time>2026-04-19T15:40:58Z</time></trkpt><trkpt lat="44.515458031246915" lon="9.22334667696879"><ele>774.0</ele><time>2026-04-19T15:40:59Z</time></trkpt><trkpt lat="44.5154111820146" lon="9.223240096305602"><ele>773.8000000000001</ele><time>2026-04-19T15:41:00Z</time></trkpt><trkpt lat="44.51538077022304" lon="9.223131311714107"><ele>773.6</ele><time>2026-04-19T15:41:01Z</time></trkpt><trkpt lat="44.515426238675595" lon="9.223025614673672"><ele>773.4</ele><time>2026-04-19T15:41:02Z</time></trkpt><trkpt lat="44.515523595907005" lon="9.222970017028544"><ele>773.2</ele><time>2026-04-19T15:41:03Z</time></trkpt><trkpt lat="44.515611907723866" lon="9.222863593765616"><ele>773.0</ele><time>2026-04-19T15:41:04Z</time></trkpt><trkpt lat="44.51572224682672" lon="9.222761919456673"><ele>773.0</ele><time>2026-04-19T15:41:05Z</time></trkpt><trkpt lat="44.51581547990827" lon="9.22264862341409"><ele>773.0</ele><time>2026-04-19T15:41:06Z</time></trkpt><trkpt lat="44.51587933788929" lon="9.222521803783566"><ele>773.0</ele><time>2026-04-19T15:41:07Z</time></trkpt><trkpt lat="44.5159131508014" lon="9.222343219618349"><ele>773.0</ele><time>2026-04-19T15:41:08Z</time></trkpt><trkpt lat="44.51587622613639" lon="9.22220088246484"><ele>780.75</ele><time>2026-04-19T15:41:10Z</time></trkpt><trkpt lat="44.51578360910838" lon="9.222128200025285"><ele>788.5</ele><time>2026-04-19T15:41:11Z</time></trkpt><trkpt lat="44.51567860439842" lon="9.22210899161718"><ele>796.25</ele><time>2026-04-19T15:41:12Z</time></trkpt><trkpt lat="44.51555882530729" lon="9.222125498203955"><ele>804.0</ele><time>2026-04-19T15:41:13Z</time></trkpt><trkpt lat="44.51541967682947" lon="9.222164208337679"><ele>800.6666666666667</ele><time>2026-04-19T15:41:14Z</time></trkpt><trkpt lat="44.51526182456675" lon="9.222169725465234"><ele>797.3333333333334</ele><time>2026-04-19T15:41:15Z</time></trkpt><trkpt lat="44.51511675502273" lon="9.222146856700443"><ele>794.0</ele><time>2026-04-19T15:41:16Z</time></trkpt><trkpt lat="44.51495344213261" lon="9.22210382503188"><ele>794.0</ele><time>2026-04-19T15:41:17Z</time></trkpt><trkpt lat="44.51479079535348" lon="9.22215915437532"><ele>794.0</ele><time>2026-04-19T15:41:18Z</time></trkpt><trkpt lat="44.51462517516606" lon="9.22222073796746"><ele>794.0</ele><time>2026-04-19T15:41:19Z</time></trkpt><trkpt lat="44.514453174762984" lon="9.222243753312798"><ele>794.6666666666667</ele><time>2026-04-19T15:41:20Z</time></trkpt><trkpt lat="44.514285654516385" lon="9.222220817856154"><ele>795.3333333333333</ele><time>2026-04-19T15:41:21Z</time></trkpt><trkpt lat="44.51406115923683" lon="9.2222147320562"><ele>796.0</ele><time>2026-04-19T15:41:22Z</time></trkpt><trkpt lat="44.51385199266113" lon="9.222208035128242"><ele>796.6666666666666</ele><time>2026-04-19T15:41:23Z</time></trkpt><trkpt lat="44.51366762557573" lon="9.222193075733506"><ele>797.3333333333333</ele><time>2026-04-19T15:41:24Z</time></trkpt><trkpt lat="44.5135015439146" lon="9.222169437138474"><ele>798.0</ele><time>2026-04-19T15:41:25Z</time></trkpt><trkpt lat="44.513345010150616" lon="9.222128106811152"><ele>798.0</ele><time>2026-04-19T15:41:26Z</time></trkpt><trkpt lat="44.51319617682659" lon="9.222116649466095"><ele>798.0</ele><time>2026-04-19T15:41:27Z</time></trkpt><trkpt lat="44.513042848624366" lon="9.222105996120147"><ele>798.0</ele><time>2026-04-19T15:41:28Z</time></trkpt><trkpt lat="44.512898710404684" lon="9.222137526087565"><ele>798.0</ele><time>2026-04-19T15:41:29Z</time></trkpt><trkpt lat="44.512776199074125" lon="9.222159961660967"><ele>795.2</ele><time>2026-04-19T15:41:30Z</time></trkpt><trkpt lat="44.51266444775735" lon="9.2221764586048"><ele>792.4</ele><time>2026-04-19T15:41:31Z</time></trkpt><trkpt lat="44.512556901813774" lon="9.222221178264931"><ele>789.6</ele><time>2026-04-19T15:41:32Z</time></trkpt><trkpt lat="44.512466503799565" lon="9.222166658807621"><ele>786.8000000000001</ele><time>2026-04-19T15:41:33Z</time></trkpt><trkpt lat="44.51239339345774" lon="9.222033607639185"><ele>784.0</ele><time>2026-04-19T15:41:34Z</time></trkpt><trkpt lat="44.512279868437396" lon="9.221868403136337"><ele>784.0</ele><time>2026-04-19T15:41:35Z</time></trkpt><trkpt lat="44.51214803601014" lon="9.221686457074759"><ele>784.0</ele><time>2026-04-19T15:41:36Z</time></trkpt><trkpt lat="44.51200577297326" lon="9.221497771847874"><ele>784.0</ele><time>2026-04-19T15:41:37Z</time></trkpt><trkpt lat="44.51189804474655" lon="9.221328573862634"><ele>779.5</ele><time>2026-04-19T15:41:38Z</time></trkpt><trkpt lat="44.51183088500441" lon="9.221150945436944"><ele>775.0</ele><time>2026-04-19T15:41:39Z</time></trkpt><trkpt lat="44.51175573223768" lon="9.22099767688996"><ele>770.5</ele><time>2026-04-19T15:41:39.999Z</time></trkpt><trkpt lat="44.511666554498724" lon="9.220829550726432"><ele>766.0</ele><time>2026-04-19T15:41:40.999Z</time></trkpt><trkpt lat="44.51156011757868" lon="9.220685189724152"><ele>768.0</ele><time>2026-04-19T15:41:41.999Z</time></trkpt><trkpt lat="44.51146165796779" lon="9.220564090406175"><ele>770.0</ele><time>2026-04-19T15:41:42.999Z</time></trkpt><trkpt lat="44.51136185455833" lon="9.220435209171209"><ele>772.0</ele><time>2026-04-19T15:41:43.999Z</time></trkpt><trkpt lat="44.5112893754566" lon="9.220312372410019"><ele>774.0</ele><time>2026-04-19T15:41:44.999Z</time></trkpt><trkpt lat="44.51123586690525" lon="9.220225510526062"><ele>774.0</ele><time>2026-04-19T15:41:45.999Z</time></trkpt><trkpt lat="44.51121161721493" lon="9.220137726088794"><ele>774.0</ele><time>2026-04-19T15:41:46.999Z</time></trkpt><trkpt lat="44.51123056194" lon="9.22003556684874"><ele>774.0</ele><time>2026-04-19T15:41:47.999Z</time></trkpt><trkpt lat="44.511295214808264" lon="9.219919180994678"><ele>774.0</ele><time>2026-04-19T15:41:48.999Z</time></trkpt><trkpt lat="44.511403948269276" lon="9.219860225733544"><ele>774.0</ele><time>2026-04-19T15:41:49.999Z</time></trkpt><trkpt lat="44.51152927611829" lon="9.219743977203322"><ele>766.0</ele><time>2026-04-19T15:41:50.999Z</time></trkpt><trkpt lat="44.51167758724084" lon="9.219651064740496"><ele>758.0</ele><time>2026-04-19T15:41:51.999Z</time></trkpt><trkpt lat="44.51183553625831" lon="9.219538816778229"><ele>750.0</ele><time>2026-04-19T15:41:52.999Z</time></trkpt><trkpt lat="44.51196941248668" lon="9.219440822042733"><ele>752.3333333333334</ele><time>2026-04-19T15:41:53.999Z</time></trkpt><trkpt lat="44.51209267462906" lon="9.219355289508375"><ele>754.6666666666667</ele><time>2026-04-19T15:41:54.999Z</time></trkpt><trkpt lat="44.5122365828355" lon="9.219311389340332"><ele>757.0</ele><time>2026-04-19T15:41:55.999Z</time></trkpt><trkpt lat="44.512401613508445" lon="9.219279712619576"><ele>757.0</ele><time>2026-04-19T15:41:56.999Z</time></trkpt><trkpt lat="44.51256069869277" lon="9.219242383201514"><ele>757.0</ele><time>2026-04-19T15:41:57.999Z</time></trkpt><trkpt lat="44.51272264835411" lon="9.219241975406101"><ele>757.0</ele><time>2026-04-19T15:41:58.999Z</time></trkpt><trkpt lat="44.512885195876414" lon="9.219251762828039"><ele>759.0</ele><time>2026-04-19T15:41:59.999Z</time></trkpt><trkpt lat="44.513057608022386" lon="9.21926801455303"><ele>761.0</ele><time>2026-04-19T15:42:00.999Z</time></trkpt><trkpt lat="44.513213156946314" lon="9.21927389260165"><ele>763.0</ele><time>2026-04-19T15:42:01.999Z</time></trkpt><trkpt lat="44.51335676434961" lon="9.219260935026504"><ele>763.0</ele><time>2026-04-19T15:42:02.999Z</time></trkpt><trkpt lat="44.5134943157411" lon="9.219203987285578"><ele>763.0</ele><time>2026-04-19T15:42:03.999Z</time></trkpt><trkpt lat="44.513629773890244" lon="9.21912133035811"><ele>763.0</ele><time>2026-04-19T15:42:04.999Z</time></trkpt><trkpt lat="44.513774029790326" lon="9.219025327714055"><ele>758.0</ele><time>2026-04-19T15:42:05.999Z</time></trkpt><trkpt lat="44.51392266829221" lon="9.218915041695423"><ele>753.0</ele><time>2026-04-19T15:42:06.999Z</time></trkpt><trkpt lat="44.51405241427476" lon="9.218775693165698"><ele>748.0</ele><time>2026-04-19T15:42:07.999Z</time></trkpt><trkpt lat="44.51417593194205" lon="9.218684310413657"><ele>748.0</ele><time>2026-04-19T15:42:08.999Z</time></trkpt><trkpt lat="44.51427027991768" lon="9.218586932319392"><ele>748.0</ele><time>2026-04-19T15:42:09.999Z</time></trkpt><trkpt lat="44.514355011387984" lon="9.21849674560708"><ele>748.0</ele><time>2026-04-19T15:42:10.999Z</time></trkpt><trkpt lat="44.51440950937731" lon="9.21836157099833"><ele>748.0</ele><time>2026-04-19T15:42:11.999Z</time></trkpt><trkpt lat="44.51443730111879" lon="9.21819142184757"><ele>745.25</ele><time>2026-04-19T15:42:12.999Z</time></trkpt><trkpt lat="44.51450098402728" lon="9.218023892272987"><ele>742.5</ele><time>2026-04-19T15:42:13.999Z</time></trkpt><trkpt lat="44.514532112590956" lon="9.217889346302304"><ele>739.75</ele><time>2026-04-19T15:42:14.999Z</time></trkpt><trkpt lat="44.51451182646506" lon="9.217685509960495"><ele>737.0</ele><time>2026-04-19T15:42:15.999Z</time></trkpt><trkpt lat="44.51450603836259" lon="9.217459360159614"><ele>738.25</ele><time>2026-04-19T15:42:16.999Z</time></trkpt><trkpt lat="44.5144897276226" lon="9.217284445603365"><ele>739.5</ele><time>2026-04-19T15:42:17.999Z</time></trkpt><trkpt lat="44.51445455957107" lon="9.217126043902676"><ele>740.75</ele><time>2026-04-19T15:42:18.999Z</time></trkpt><trkpt lat="44.51445924984943" lon="9.216951775871834"><ele>742.0</ele><time>2026-04-19T15:42:19.999Z</time></trkpt><trkpt lat="44.51451375375182" lon="9.216786800919886"><ele>747.75</ele><time>2026-04-19T15:42:20.999Z</time></trkpt><trkpt lat="44.5145852795491" lon="9.216607259622048"><ele>753.5</ele><time>2026-04-19T15:42:21.999Z</time></trkpt><trkpt lat="44.51464061190036" lon="9.216433008990208"><ele>759.25</ele><time>2026-04-19T15:42:22.999Z</time></trkpt><trkpt lat="44.51471450657217" lon="9.21628004293905"><ele>765.0</ele><time>2026-04-19T15:42:23.999Z</time></trkpt><trkpt lat="44.51475896000401" lon="9.216132578663402"><ele>765.0</ele><time>2026-04-19T15:42:24.999Z</time></trkpt><trkpt lat="44.51481998138181" lon="9.21602478493077"><ele>765.0</ele><time>2026-04-19T15:42:25.999Z</time></trkpt><trkpt lat="44.51490172790757" lon="9.215939604942939"><ele>765.0</ele><time>2026-04-19T15:42:26.999Z</time></trkpt><trkpt lat="44.51498456389469" lon="9.21587075402687"><ele>765.0</ele><time>2026-04-19T15:42:27.999Z</time></trkpt><trkpt lat="44.51502967849612" lon="9.215777170034068"><ele>765.0</ele><time>2026-04-19T15:42:28.999Z</time></trkpt><trkpt lat="44.51505093244901" lon="9.215671608059912"><ele>765.0</ele><time>2026-04-19T15:42:29.999Z</time></trkpt><trkpt lat="44.51499854262291" lon="9.215537492481614"><ele>765.0</ele><time>2026-04-19T15:42:30.999Z</time></trkpt><trkpt lat="44.51489585111879" lon="9.215490415987627"><ele>765.0</ele><time>2026-04-19T15:42:31.999Z</time></trkpt><trkpt lat="44.51479938942446" lon="9.215507003411147"><ele>765.0</ele><time>2026-04-19T15:42:32.999Z</time></trkpt><trkpt lat="44.514701703536694" lon="9.215572876282021"><ele>765.0</ele><time>2026-04-19T15:42:33.999Z</time></trkpt><trkpt lat="44.51458052835031" lon="9.21565850688383"><ele>764.0</ele><time>2026-04-19T15:42:34.999Z</time></trkpt><trkpt lat="44.51446371514245" lon="9.215721887221727"><ele>763.0</ele><time>2026-04-19T15:42:35.999Z</time></trkpt><trkpt lat="44.514345801595965" lon="9.215757029398365"><ele>762.0</ele><time>2026-04-19T15:42:36.999Z</time></trkpt><trkpt lat="44.51424412102635" lon="9.215776474901457"><ele>761.0</ele><time>2026-04-19T15:42:37.999Z</time></trkpt><trkpt lat="44.51415109945229" lon="9.215789203479673"><ele>760.0</ele><time>2026-04-19T15:42:38.999Z</time></trkpt><trkpt lat="44.514081245231125" lon="9.215839112956091"><ele>760.0</ele><time>2026-04-19T15:42:39.999Z</time></trkpt><trkpt lat="44.51399992935656" lon="9.215808095281368"><ele>760.0</ele><time>2026-04-19T15:42:40.999Z</time></trkpt><trkpt lat="44.51390948769038" lon="9.215759416496399"><ele>760.0</ele><time>2026-04-19T15:42:41.999Z</time></trkpt><trkpt lat="44.51379222111806" lon="9.215660576376711"><ele>760.0</ele><time>2026-04-19T15:42:43Z</time></trkpt><trkpt lat="44.513708772412485" lon="9.21558102390084"><ele>760.0</ele><time>2026-04-19T15:42:44Z</time></trkpt><trkpt lat="44.51362351560935" lon="9.215498115319804"><ele>757.8333333333334</ele><time>2026-04-19T15:42:45Z</time></trkpt><trkpt lat="44.513547855465106" lon="9.215414195814931"><ele>755.6666666666667</ele><time>2026-04-19T15:42:46Z</time></trkpt><trkpt lat="44.51349494533158" lon="9.215313987878437"><ele>753.5</ele><time>2026-04-19T15:42:47Z</time></trkpt><trkpt lat="44.51347104178862" lon="9.215198627365426"><ele>751.3333333333334</ele><time>2026-04-19T15:42:48Z</time></trkpt><trkpt lat="44.51345970574268" lon="9.215087610433708"><ele>749.1666666666666</ele><time>2026-04-19T15:42:50Z</time></trkpt><trkpt lat="44.513521618565036" lon="9.21500590939685"><ele>747.0</ele><time>2026-04-19T15:42:51Z</time></trkpt><trkpt lat="44.51359564280927" lon="9.214921287508268"><ele>747.0</ele><time>2026-04-19T15:42:52Z</time></trkpt><trkpt lat="44.513675911996096" lon="9.21482547494706"><ele>747.0</ele><time>2026-04-19T15:42:53Z</time></trkpt><trkpt lat="44.51376410341151" lon="9.214733749155592"><ele>747.0</ele><time>2026-04-19T15:42:54Z</time></trkpt><trkpt lat="44.51385342181938" lon="9.214660019900426"><ele>747.0</ele><time>2026-04-19T15:42:55Z</time></trkpt><trkpt lat="44.51393035643912" lon="9.21458570726599"><ele>747.0</ele><time>2026-04-19T15:42:56Z</time></trkpt><trkpt lat="44.51400539973003" lon="9.214503443264732"><ele>747.6</ele><time>2026-04-19T15:42:57Z</time></trkpt><trkpt lat="44.514092062614935" lon="9.214421009363098"><ele>748.2</ele><time>2026-04-19T15:42:58Z</time></trkpt><trkpt lat="44.51416037216256" lon="9.21435210467069"><ele>748.8</ele><time>2026-04-19T15:42:59Z</time></trkpt><trkpt lat="44.51423993577153" lon="9.214285655158815"><ele>749.4</ele><time>2026-04-19T15:43:00Z</time></trkpt><trkpt lat="44.514304519593594" lon="9.21418397234645"><ele>750.0</ele><time>2026-04-19T15:43:01Z</time></trkpt><trkpt lat="44.51437274111847" lon="9.214062573846372"><ele>751.0</ele><time>2026-04-19T15:43:02Z</time></trkpt><trkpt lat="44.51444322447845" lon="9.2139302813456"><ele>752.0</ele><time>2026-04-19T15:43:03Z</time></trkpt><trkpt lat="44.514508915034384" lon="9.213815744152575"><ele>753.0</ele><time>2026-04-19T15:43:04Z</time></trkpt><trkpt lat="44.5145636840361" lon="9.21371791772878"><ele>754.0</ele><time>2026-04-19T15:43:05Z</time></trkpt><trkpt lat="44.51460852780603" lon="9.213611316559893"><ele>755.0</ele><time>2026-04-19T15:43:06Z</time></trkpt><trkpt lat="44.51463467663785" lon="9.213482922731625"><ele>756.2</ele><time>2026-04-19T15:43:07Z</time></trkpt><trkpt lat="44.5146354084398" lon="9.21333748880752"><ele>757.4</ele><time>2026-04-19T15:43:08Z</time></trkpt><trkpt lat="44.51460020881891" lon="9.213220730249589"><ele>758.5999999999999</ele><time>2026-04-19T15:43:09Z</time></trkpt><trkpt lat="44.514533503647606" lon="9.213135025046164"><ele>759.8</ele><time>2026-04-19T15:43:10Z</time></trkpt><trkpt lat="44.514441510281706" lon="9.21307710091754"><ele>761.0</ele><time>2026-04-19T15:43:11Z</time></trkpt><trkpt lat="44.514336316029016" lon="9.21308274158353"><ele>759.5</ele><time>2026-04-19T15:43:12Z</time></trkpt><trkpt lat="44.5142247115024" lon="9.213148322613417"><ele>758.0</ele><time>2026-04-19T15:43:13Z</time></trkpt><trkpt lat="44.51410074413393" lon="9.213262182405428"><ele>756.5</ele><time>2026-04-19T15:43:14Z</time></trkpt><trkpt lat="44.51396214328121" lon="9.213370914078276"><ele>755.0</ele><time>2026-04-19T15:43:15Z</time></trkpt><trkpt lat="44.513819900453534" lon="9.213494176032382"><ele>762.6666666666666</ele><time>2026-04-19T15:43:16Z</time></trkpt><trkpt lat="44.513680703856146" lon="9.213595923677182"><ele>770.3333333333333</ele><time>2026-04-19T15:43:17Z</time></trkpt><trkpt lat="44.51352422742007" lon="9.213698748164541"><ele>778.0</ele><time>2026-04-19T15:43:18Z</time></trkpt><trkpt lat="44.51336634136192" lon="9.213800636304926"><ele>778.0</ele><time>2026-04-19T15:43:19Z</time></trkpt><trkpt lat="44.513225643185926" lon="9.21388912890802"><ele>778.0</ele><time>2026-04-19T15:43:20Z</time></trkpt><trkpt lat="44.513104666556586" lon="9.213956942368885"><ele>778.0</ele><time>2026-04-19T15:43:21Z</time></trkpt><trkpt lat="44.51299566162373" lon="9.214039786661711"><ele>778.0</ele><time>2026-04-19T15:43:22Z</time></trkpt><trkpt lat="44.51288655817246" lon="9.214107244941342"><ele>773.4</ele><time>2026-04-19T15:43:23Z</time></trkpt><trkpt lat="44.51279888496495" lon="9.214175476103701"><ele>768.8</ele><time>2026-04-19T15:43:24Z</time></trkpt><trkpt lat="44.512720377758455" lon="9.214256133357646"><ele>764.2</ele><time>2026-04-19T15:43:25Z</time></trkpt><trkpt lat="44.512661562093285" lon="9.214351341232394"><ele>759.6</ele><time>2026-04-19T15:43:26Z</time></trkpt><trkpt lat="44.51258201560337" lon="9.21442092138602"><ele>755.0</ele><time>2026-04-19T15:43:27Z</time></trkpt><trkpt lat="44.512494777352494" lon="9.214431563709164"><ele>755.0</ele><time>2026-04-19T15:43:28Z</time></trkpt><trkpt lat="44.51241245564873" lon="9.214409646739465"><ele>755.0</ele><time>2026-04-19T15:43:29Z</time></trkpt><trkpt lat="44.51234864601482" lon="9.214347791708162"><ele>755.0</ele><time>2026-04-19T15:43:30Z</time></trkpt><trkpt lat="44.51230124951692" lon="9.214241201309981"><ele>755.0</ele><time>2026-04-19T15:43:31Z</time></trkpt><trkpt lat="44.51228510106408" lon="9.214119557075772"><ele>755.0</ele><time>2026-04-19T15:43:32Z</time></trkpt><trkpt lat="44.512285328148096" lon="9.214008357629726"><ele>755.0</ele><time>2026-04-19T15:43:33Z</time></trkpt><trkpt lat="44.5122906919008" lon="9.213896101042799"><ele>757.6</ele><time>2026-04-19T15:43:34Z</time></trkpt><trkpt lat="44.512295593058546" lon="9.21378080739873"><ele>760.2</ele><time>2026-04-19T15:43:35Z</time></trkpt><trkpt lat="44.51229974151354" lon="9.213661535493332"><ele>762.8</ele><time>2026-04-19T15:43:36Z</time></trkpt><trkpt lat="44.51230037601042" lon="9.213526802787673"><ele>765.4</ele><time>2026-04-19T15:43:37Z</time></trkpt><trkpt lat="44.51230149047849" lon="9.213373387768758"><ele>768.0</ele><time>2026-04-19T15:43:38Z</time></trkpt><trkpt lat="44.51230896835221" lon="9.213226861996068"><ele>766.2</ele><time>2026-04-19T15:43:39Z</time></trkpt><trkpt lat="44.512320579940884" lon="9.213101989160876"><ele>764.4</ele><time>2026-04-19T15:43:40Z</time></trkpt><trkpt lat="44.5123497361009" lon="9.212987827509382"><ele>762.6</ele><time>2026-04-19T15:43:41Z</time></trkpt><trkpt lat="44.51239527948767" lon="9.212883414024947"><ele>760.8000000000001</ele><time>2026-04-19T15:43:42Z</time></trkpt><trkpt lat="44.51247450309482" lon="9.212776430181593"><ele>759.0</ele><time>2026-04-19T15:43:43Z</time></trkpt><trkpt lat="44.51255237513259" lon="9.212672675940833"><ele>759.0</ele><time>2026-04-19T15:43:44Z</time></trkpt><trkpt lat="44.51262555440968" lon="9.212582244974968"><ele>759.0</ele><time>2026-04-19T15:43:45Z</time></trkpt><trkpt lat="44.51268651261172" lon="9.212470633353504"><ele>759.0</ele><time>2026-04-19T15:43:46Z</time></trkpt><trkpt lat="44.51274101865316" lon="9.212326675997023"><ele>759.0</ele><time>2026-04-19T15:43:47Z</time></trkpt><trkpt lat="44.512788177861886" lon="9.212174993594322"><ele>759.0</ele><time>2026-04-19T15:43:47.999Z</time></trkpt><trkpt lat="44.5128216395643" lon="9.21199280021045"><ele>757.0</ele><time>2026-04-19T15:43:48.999Z</time></trkpt><trkpt lat="44.512873928581655" lon="9.211795112002067"><ele>755.0</ele><time>2026-04-19T15:43:49.999Z</time></trkpt><trkpt lat="44.51291187902125" lon="9.211565232422865"><ele>753.0</ele><time>2026-04-19T15:43:50.999Z</time></trkpt><trkpt lat="44.512943961647466" lon="9.211356378123792"><ele>766.0</ele><time>2026-04-19T15:43:51.999Z</time></trkpt><trkpt lat="44.51297372509827" lon="9.211149386496215"><ele>779.0</ele><time>2026-04-19T15:43:52.999Z</time></trkpt><trkpt lat="44.51300393146303" lon="9.210932945784155"><ele>792.0</ele><time>2026-04-19T15:43:53.999Z</time></trkpt><trkpt lat="44.513040826166424" lon="9.210686523365462"><ele>792.3333333333333</ele><time>2026-04-19T15:43:54.999Z</time></trkpt><trkpt lat="44.513081823508266" lon="9.210416789215715"><ele>792.6666666666666</ele><time>2026-04-19T15:43:55.999Z</time></trkpt><trkpt lat="44.51312222939571" lon="9.210150946435737"><ele>793.0</ele><time>2026-04-19T15:43:56.999Z</time></trkpt><trkpt lat="44.5131600312425" lon="9.209902236543996"><ele>793.0</ele><time>2026-04-19T15:43:57.999Z</time></trkpt><trkpt lat="44.51310688374495" lon="9.210148628215256"><ele>793.0</ele><time>2026-04-19T15:43:58.999Z</time></trkpt><trkpt lat="44.51314467654836" lon="9.210021296529703"><ele>793.0</ele><time>2026-04-19T15:43:59.999Z</time></trkpt><trkpt lat="44.51316223391429" lon="9.209917051962465"><ele>793.0</ele><time>2026-04-19T15:44:00.999Z</time></trkpt><trkpt lat="44.51317777198704" lon="9.209816092746836"><ele>793.0</ele><time>2026-04-19T15:44:01.999Z</time></trkpt><trkpt lat="44.51318972515585" lon="9.209712816691773"><ele>793.8</ele><time>2026-04-19T15:44:02.999Z</time></trkpt><trkpt lat="44.51321513736085" lon="9.209558332071012"><ele>794.5999999999999</ele><time>2026-04-19T15:44:04.999Z</time></trkpt><trkpt lat="44.51317400714437" lon="9.209409245775294"><ele>795.4000000000001</ele><time>2026-04-19T15:44:06.999Z</time></trkpt><trkpt lat="44.51305546237941" lon="9.209338315528045"><ele>796.2</ele><time>2026-04-19T15:44:08.999Z</time></trkpt><trkpt lat="44.51297022774707" lon="9.209367726119831"><ele>797.0</ele><time>2026-04-19T15:44:09.999Z</time></trkpt><trkpt lat="44.5129028919243" lon="9.20944552597193"><ele>794.8333333333334</ele><time>2026-04-19T15:44:10.999Z</time></trkpt><trkpt lat="44.51284430861095" lon="9.209546140471275"><ele>792.6666666666667</ele><time>2026-04-19T15:44:11.999Z</time></trkpt><trkpt lat="44.51280855369707" lon="9.209621064651111"><ele>790.5</ele><time>2026-04-19T15:44:12.999Z</time></trkpt><trkpt lat="44.5127241638159" lon="9.209758150090499"><ele>788.3333333333333</ele><time>2026-04-19T15:44:14.999Z</time></trkpt><trkpt lat="44.51265827589222" lon="9.209778643407438"><ele>786.1666666666666</ele><time>2026-04-19T15:44:15.999Z</time></trkpt><trkpt lat="44.51258402815832" lon="9.209755220745002"><ele>784.0</ele><time>2026-04-19T15:44:16.999Z</time></trkpt><trkpt lat="44.51251752801147" lon="9.209700050675712"><ele>784.0</ele><time>2026-04-19T15:44:17.999Z</time></trkpt><trkpt lat="44.51245895768428" lon="9.209598887271605"><ele>784.0</ele><time>2026-04-19T15:44:18.999Z</time></trkpt><trkpt lat="44.512425160853105" lon="9.209448512827802"><ele>784.0</ele><time>2026-04-19T15:44:19.999Z</time></trkpt><trkpt lat="44.512380968145344" lon="9.209281357648615"><ele>784.0</ele><time>2026-04-19T15:44:20.999Z</time></trkpt><trkpt lat="44.51232783815618" lon="9.209109058438814"><ele>784.6</ele><time>2026-04-19T15:44:21.999Z</time></trkpt><trkpt lat="44.51228228398491" lon="9.20896826221973"><ele>785.2</ele><time>2026-04-19T15:44:22.999Z</time></trkpt><trkpt lat="44.51222153678137" lon="9.208831955617244"><ele>785.8000000000001</ele><time>2026-04-19T15:44:23.999Z</time></trkpt><trkpt lat="44.51215743641913" lon="9.208723910558628"><ele>786.4000000000001</ele><time>2026-04-19T15:44:24.999Z</time></trkpt><trkpt lat="44.51208889997468" lon="9.208610823999493"><ele>787.0</ele><time>2026-04-19T15:44:25.999Z</time></trkpt><trkpt lat="44.512021152219695" lon="9.20849872236696"><ele>787.0</ele><time>2026-04-19T15:44:26.999Z</time></trkpt><trkpt lat="44.5119522948554" lon="9.208391317801285"><ele>787.0</ele><time>2026-04-19T15:44:27.999Z</time></trkpt><trkpt lat="44.5118800529171" lon="9.208284153022865"><ele>787.0</ele><time>2026-04-19T15:44:28.999Z</time></trkpt><trkpt lat="44.511803309620085" lon="9.208175054952758"><ele>787.0</ele><time>2026-04-19T15:44:29.999Z</time></trkpt><trkpt lat="44.51170433465361" lon="9.208107524222854"><ele>787.0</ele><time>2026-04-19T15:44:30.999Z</time></trkpt><trkpt lat="44.51159349556749" lon="9.208078405281473"><ele>795.25</ele><time>2026-04-19T15:44:31.999Z</time></trkpt><trkpt lat="44.51147137770219" lon="9.208076858573106"><ele>803.5</ele><time>2026-04-19T15:44:32.999Z</time></trkpt><trkpt lat="44.51134616071344" lon="9.208083862959219"><ele>811.75</ele><time>2026-04-19T15:44:33.999Z</time></trkpt><trkpt lat="44.51122951979953" lon="9.208068719838261"><ele>820.0</ele><time>2026-04-19T15:44:34.999Z</time></trkpt><trkpt lat="44.511114184190646" lon="9.208073357752822"><ele>820.0</ele><time>2026-04-19T15:44:35.999Z</time></trkpt><trkpt lat="44.51098477892649" lon="9.20807317052326"><ele>820.0</ele><time>2026-04-19T15:44:36.999Z</time></trkpt><trkpt lat="44.51083816397519" lon="9.208075008503519"><ele>820.0</ele><time>2026-04-19T15:44:37.999Z</time></trkpt><trkpt lat="44.510700503294515" lon="9.208096657802306"><ele>820.0</ele><time>2026-04-19T15:44:38.999Z</time></trkpt><trkpt lat="44.51055776646914" lon="9.208144791682066"><ele>814.5</ele><time>2026-04-19T15:44:39.999Z</time></trkpt><trkpt lat="44.510431466920046" lon="9.208209550862678"><ele>809.0</ele><time>2026-04-19T15:44:40.999Z</time></trkpt><trkpt lat="44.51031568198137" lon="9.208269625401092"><ele>803.5</ele><time>2026-04-19T15:44:41.999Z</time></trkpt><trkpt lat="44.510204777658345" lon="9.208341568874514"><ele>798.0</ele><time>2026-04-19T15:44:42.999Z</time></trkpt><trkpt lat="44.510107180179695" lon="9.208424182299881"><ele>798.0</ele><time>2026-04-19T15:44:43.999Z</time></trkpt><trkpt lat="44.51001722490175" lon="9.208518536647606"><ele>798.0</ele><time>2026-04-19T15:44:44.999Z</time></trkpt><trkpt lat="44.50993251156774" lon="9.208626048425035"><ele>798.0</ele><time>2026-04-19T15:44:45.999Z</time></trkpt><trkpt lat="44.50985723791958" lon="9.208712466314196"><ele>798.0</ele><time>2026-04-19T15:44:46.999Z</time></trkpt><trkpt lat="44.50979574287465" lon="9.208796965233617"><ele>798.0</ele><time>2026-04-19T15:44:47.999Z</time></trkpt><trkpt lat="44.5097486372169" lon="9.208866232736021"><ele>798.0</ele><time>2026-04-19T15:44:49Z</time></trkpt><trkpt lat="44.509695211829055" lon="9.208913843437331"><ele>798.0</ele><time>2026-04-19T15:44:50Z</time></trkpt><trkpt lat="44.50962106126782" lon="9.209005354564228"><ele>798.0</ele><time>2026-04-19T15:44:51Z</time></trkpt><trkpt lat="44.50953353412376" lon="9.209006007683048"><ele>798.0</ele><time>2026-04-19T15:44:52Z</time></trkpt><trkpt lat="44.50944414004136" lon="9.208959741120855"><ele>798.0</ele><time>2026-04-19T15:44:53Z</time></trkpt><trkpt lat="44.50935908118777" lon="9.208872331506525"><ele>795.0</ele><time>2026-04-19T15:44:54Z</time></trkpt><trkpt lat="44.50930980165083" lon="9.208768211749543"><ele>792.0</ele><time>2026-04-19T15:44:55Z</time></trkpt><trkpt lat="44.50929187019512" lon="9.20865609244745"><ele>789.0</ele><time>2026-04-19T15:44:56Z</time></trkpt><trkpt lat="44.509304947688435" lon="9.208534229118008"><ele>786.0</ele><time>2026-04-19T15:44:57Z</time></trkpt><trkpt lat="44.509361098303586" lon="9.208429311002998"><ele>783.0</ele><time>2026-04-19T15:44:58Z</time></trkpt><trkpt lat="44.50941278636766" lon="9.208340370309932"><ele>780.0</ele><time>2026-04-19T15:44:59Z</time></trkpt><trkpt lat="44.5094756547517" lon="9.208273702559628"><ele>780.0</ele><time>2026-04-19T15:45:00Z</time></trkpt><trkpt lat="44.509534020171166" lon="9.208176247464197"><ele>780.0</ele><time>2026-04-19T15:45:01Z</time></trkpt><trkpt lat="44.50960169744813" lon="9.208097430615538"><ele>780.0</ele><time>2026-04-19T15:45:02Z</time></trkpt><trkpt lat="44.509648455200434" lon="9.208011099291566"><ele>780.0</ele><time>2026-04-19T15:45:03Z</time></trkpt><trkpt lat="44.509669408940034" lon="9.207925070135243"><ele>780.0</ele><time>2026-04-19T15:45:04Z</time></trkpt><trkpt lat="44.50966897028401" lon="9.207829514189509"><ele>780.0</ele><time>2026-04-19T15:45:05Z</time></trkpt><trkpt lat="44.50962746799932" lon="9.207740552808973"><ele>784.0</ele><time>2026-04-19T15:45:06Z</time></trkpt><trkpt lat="44.5095477911089" lon="9.207687854158754"><ele>788.0</ele><time>2026-04-19T15:45:07Z</time></trkpt><trkpt lat="44.5094499007837" lon="9.207672852795111"><ele>792.0</ele><time>2026-04-19T15:45:08Z</time></trkpt><trkpt lat="44.50934869444346" lon="9.207686675685608"><ele>796.0</ele><time>2026-04-19T15:45:09Z</time></trkpt><trkpt lat="44.50924416909544" lon="9.207693795512073"><ele>800.0</ele><time>2026-04-19T15:45:10Z</time></trkpt><trkpt lat="44.50915532612052" lon="9.207681180343872"><ele>800.0</ele><time>2026-04-19T15:45:11Z</time></trkpt><trkpt lat="44.50906859572511" lon="9.20764787859764"><ele>800.0</ele><time>2026-04-19T15:45:12Z</time></trkpt><trkpt lat="44.508968378109586" lon="9.207596345013966"><ele>800.0</ele><time>2026-04-19T15:45:13Z</time></trkpt><trkpt lat="44.5088688678413" lon="9.207552607213701"><ele>800.0</ele><time>2026-04-19T15:45:14Z</time></trkpt><trkpt lat="44.50878465945261" lon="9.207501982591914"><ele>800.0</ele><time>2026-04-19T15:45:15Z</time></trkpt><trkpt lat="44.508720387426216" lon="9.207423497085781"><ele>795.8333333333334</ele><time>2026-04-19T15:45:16Z</time></trkpt><trkpt lat="44.50864695919384" lon="9.207362166950103"><ele>791.6666666666667</ele><time>2026-04-19T15:45:17Z</time></trkpt><trkpt lat="44.508599062599274" lon="9.207230810459254"><ele>787.5</ele><time>2026-04-19T15:45:18Z</time></trkpt><trkpt lat="44.50855947853175" lon="9.207109030192287"><ele>783.3333333333333</ele><time>2026-04-19T15:45:19Z</time></trkpt><trkpt lat="44.50852758909003" lon="9.207006513120186"><ele>779.1666666666666</ele><time>2026-04-19T15:45:20Z</time></trkpt><trkpt lat="44.50850118858186" lon="9.206900959914522"><ele>775.0</ele><time>2026-04-19T15:45:21Z</time></trkpt><trkpt lat="44.50848411423182" lon="9.20678552959224"><ele>775.0</ele><time>2026-04-19T15:45:22Z</time></trkpt><trkpt lat="44.50850504447784" lon="9.20665638471757"><ele>775.0</ele><time>2026-04-19T15:45:23Z</time></trkpt><trkpt lat="44.508568559117954" lon="9.206523395002963"><ele>775.0</ele><time>2026-04-19T15:45:24Z</time></trkpt><trkpt lat="44.50862859957009" lon="9.206370438050572"><ele>775.0</ele><time>2026-04-19T15:45:25Z</time></trkpt><trkpt lat="44.50869000298206" lon="9.206189121320831"><ele>777.5</ele><time>2026-04-19T15:45:26Z</time></trkpt><trkpt lat="44.50876115989117" lon="9.2060317649873"><ele>780.0</ele><time>2026-04-19T15:45:27Z</time></trkpt><trkpt lat="44.50883950867061" lon="9.205862371043802"><ele>782.5</ele><time>2026-04-19T15:45:28Z</time></trkpt><trkpt lat="44.50892935707377" lon="9.205695752461407"><ele>785.0</ele><time>2026-04-19T15:45:29Z</time></trkpt><trkpt lat="44.50901368021269" lon="9.205544625107006"><ele>785.0</ele><time>2026-04-19T15:45:30Z</time></trkpt><trkpt lat="44.509092430726135" lon="9.205409637977027"><ele>785.0</ele><time>2026-04-19T15:45:31Z</time></trkpt><trkpt lat="44.50916655164252" lon="9.205259767037276"><ele>785.0</ele><time>2026-04-19T15:45:32Z</time></trkpt><trkpt lat="44.50924940085579" lon="9.205102291966044"><ele>785.0</ele><time>2026-04-19T15:45:33Z</time></trkpt><trkpt lat="44.50933101071592" lon="9.204971709562363"><ele>785.0</ele><time>2026-04-19T15:45:34Z</time></trkpt><trkpt lat="44.509409674006726" lon="9.20484140007282"><ele>785.0</ele><time>2026-04-19T15:45:35Z</time></trkpt><trkpt lat="44.50947260042358" lon="9.204692861591566"><ele>785.0</ele><time>2026-04-19T15:45:36Z</time></trkpt><trkpt lat="44.509504347101185" lon="9.204521648350262"><ele>785.0</ele><time>2026-04-19T15:45:37Z</time></trkpt><trkpt lat="44.509515542543944" lon="9.204322102945872"><ele>781.5</ele><time>2026-04-19T15:45:38Z</time></trkpt><trkpt lat="44.50952734913732" lon="9.204113022446153"><ele>778.0</ele><time>2026-04-19T15:45:39Z</time></trkpt><trkpt lat="44.50954757411733" lon="9.20392529456008"><ele>774.5</ele><time>2026-04-19T15:45:40Z</time></trkpt><trkpt lat="44.50956817284831" lon="9.203759055344264"><ele>771.0</ele><time>2026-04-19T15:45:41Z</time></trkpt><trkpt lat="44.50958305488162" lon="9.203597772157774"><ele>770.5</ele><time>2026-04-19T15:45:42Z</time></trkpt><trkpt lat="44.509577917021524" lon="9.203417571295843"><ele>770.0</ele><time>2026-04-19T15:45:43Z</time></trkpt><trkpt lat="44.50956327667506" lon="9.203240514472729"><ele>769.5</ele><time>2026-04-19T15:45:44Z</time></trkpt><trkpt lat="44.509552708632924" lon="9.203080884288582"><ele>769.0</ele><time>2026-04-19T15:45:45Z</time></trkpt><trkpt lat="44.509567076161815" lon="9.202920531490292"><ele>769.0</ele><time>2026-04-19T15:45:46Z</time></trkpt><trkpt lat="44.50962909692323" lon="9.202770147151396"><ele>769.0</ele><time>2026-04-19T15:45:47Z</time></trkpt><trkpt lat="44.50970663401577" lon="9.202621818043184"><ele>769.0</ele><time>2026-04-19T15:45:48Z</time></trkpt><trkpt lat="44.50978811598111" lon="9.202449419335125"><ele>769.0</ele><time>2026-04-19T15:45:49Z</time></trkpt><trkpt lat="44.50986064210271" lon="9.20225430111619"><ele>769.0</ele><time>2026-04-19T15:45:50Z</time></trkpt><trkpt lat="44.50993406527981" lon="9.202090529418538"><ele>769.0</ele><time>2026-04-19T15:45:51Z</time></trkpt><trkpt lat="44.509999748894174" lon="9.201936188012677"><ele>769.0</ele><time>2026-04-19T15:45:52Z</time></trkpt><trkpt lat="44.51006965973507" lon="9.201793254225802"><ele>769.0</ele><time>2026-04-19T15:45:53Z</time></trkpt><trkpt lat="44.51013291776542" lon="9.201631811708221"><ele>768.0</ele><time>2026-04-19T15:45:54Z</time></trkpt><trkpt lat="44.510190825162034" lon="9.201463326224353"><ele>767.0</ele><time>2026-04-19T15:45:54.999Z</time></trkpt><trkpt lat="44.51025081133703" lon="9.20130726554892"><ele>766.0</ele><time>2026-04-19T15:45:55.999Z</time></trkpt><trkpt lat="44.510307456142336" lon="9.201158436040439"><ele>765.0</ele><time>2026-04-19T15:45:56.999Z</time></trkpt><trkpt lat="44.51037181438867" lon="9.201000119336015"><ele>773.0</ele><time>2026-04-19T15:45:57.999Z</time></trkpt><trkpt lat="44.510431884949035" lon="9.200853226998449"><ele>781.0</ele><time>2026-04-19T15:45:58.999Z</time></trkpt><trkpt lat="44.51048369437246" lon="9.200721188908146"><ele>789.0</ele><time>2026-04-19T15:45:59.999Z</time></trkpt><trkpt lat="44.510510222659256" lon="9.200593573644856"><ele>797.0</ele><time>2026-04-19T15:46:00.999Z</time></trkpt><trkpt lat="44.5105026133556" lon="9.200433947607277"><ele>805.0</ele><time>2026-04-19T15:46:01.999Z</time></trkpt><trkpt lat="44.510484852624316" lon="9.200255898636224"><ele>805.0</ele><time>2026-04-19T15:46:02.999Z</time></trkpt><trkpt lat="44.51046580539305" lon="9.200085159478817"><ele>805.0</ele><time>2026-04-19T15:46:03.999Z</time></trkpt><trkpt lat="44.510437946040255" lon="9.199908079450871"><ele>805.0</ele><time>2026-04-19T15:46:04.999Z</time></trkpt><trkpt lat="44.51037897363416" lon="9.199734162550131"><ele>805.0</ele><time>2026-04-19T15:46:05.999Z</time></trkpt><trkpt lat="44.51029631505721" lon="9.199576437765712"><ele>799.75</ele><time>2026-04-19T15:46:06.999Z</time></trkpt><trkpt lat="44.51021978684298" lon="9.199422488403611"><ele>794.5</ele><time>2026-04-19T15:46:07.999Z</time></trkpt><trkpt lat="44.51013295306268" lon="9.199299557405835"><ele>789.25</ele><time>2026-04-19T15:46:08.999Z</time></trkpt><trkpt lat="44.510055249296606" lon="9.199159403583243"><ele>784.0</ele><time>2026-04-19T15:46:09.999Z</time></trkpt><trkpt lat="44.50997724915377" lon="9.199018747250589"><ele>788.25</ele><time>2026-04-19T15:46:10.999Z</time></trkpt><trkpt lat="44.50991517189021" lon="9.19890393427077"><ele>792.5</ele><time>2026-04-19T15:46:11.999Z</time></trkpt><trkpt lat="44.50986254895384" lon="9.198802477296288"><ele>796.75</ele><time>2026-04-19T15:46:12.999Z</time></trkpt><trkpt lat="44.50981507631102" lon="9.198716851407724"><ele>801.0</ele><time>2026-04-19T15:46:13.999Z</time></trkpt><trkpt lat="44.50963506098951" lon="9.198772729712392"><ele>795.75</ele><time>2026-04-19T15:46:14.999Z</time></trkpt><trkpt lat="44.50950258457879" lon="9.198730612438775"><ele>790.5</ele><time>2026-04-19T15:46:15.999Z</time></trkpt><trkpt lat="44.50936126591923" lon="9.19872153681772"><ele>785.25</ele><time>2026-04-19T15:46:16.999Z</time></trkpt><trkpt lat="44.50925290238214" lon="9.19875526446083"><ele>780.0</ele><time>2026-04-19T15:46:17.999Z</time></trkpt><trkpt lat="44.50916611370741" lon="9.198753203416912"><ele>780.0</ele><time>2026-04-19T15:46:18.999Z</time></trkpt><trkpt lat="44.509074033651245" lon="9.198729611197399"><ele>780.0</ele><time>2026-04-19T15:46:19.999Z</time></trkpt><trkpt lat="44.50900724577135" lon="9.198687618172245"><ele>780.0</ele><time>2026-04-19T15:46:20.999Z</time></trkpt><trkpt lat="44.508917712520585" lon="9.198529737382962"><ele>780.0</ele><time>2026-04-19T15:46:22.999Z</time></trkpt><trkpt lat="44.5089163258516" lon="9.198392825947872"><ele>780.0</ele><time>2026-04-19T15:46:23.999Z</time></trkpt><trkpt lat="44.50888603363027" lon="9.198242923392948"><ele>779.2</ele><time>2026-04-19T15:46:24.999Z</time></trkpt><trkpt lat="44.50887016383271" lon="9.198075076432408"><ele>778.4</ele><time>2026-04-19T15:46:25.999Z</time></trkpt><trkpt lat="44.50885547076191" lon="9.197933315703775"><ele>777.5999999999999</ele><time>2026-04-19T15:46:26.999Z</time></trkpt><trkpt lat="44.50884163200247" lon="9.197812201971228"><ele>776.8</ele><time>2026-04-19T15:46:27.999Z</time></trkpt><trkpt lat="44.508831783383414" lon="9.197699314943492"><ele>776.0</ele><time>2026-04-19T15:46:28.999Z</time></trkpt><trkpt lat="44.508836434840745" lon="9.19759347881239"><ele>776.0000000000001</ele><time>2026-04-19T15:46:29.999Z</time></trkpt><trkpt lat="44.50888881046967" lon="9.197518598739505"><ele>776.0</ele><time>2026-04-19T15:46:30.999Z</time></trkpt><trkpt lat="44.50893713967368" lon="9.197445057604668"><ele>776.0</ele><time>2026-04-19T15:46:31.999Z</time></trkpt><trkpt lat="44.50901990459279" lon="9.197407954943607"><ele>776.0</ele><time>2026-04-19T15:46:32.999Z</time></trkpt><trkpt lat="44.509121286743266" lon="9.19740237874315"><ele>776.0000000000001</ele><time>2026-04-19T15:46:33.999Z</time></trkpt><trkpt lat="44.50922145142046" lon="9.197399091727737"><ele>776.0</ele><time>2026-04-19T15:46:34.999Z</time></trkpt><trkpt lat="44.50929469152001" lon="9.19739102984008"><ele>776.0</ele><time>2026-04-19T15:46:35.999Z</time></trkpt><trkpt lat="44.509357493189974" lon="9.197375724519665"><ele>776.0</ele><time>2026-04-19T15:46:36.999Z</time></trkpt><trkpt lat="44.509469129161445" lon="9.197263263663293"><ele>776.0</ele><time>2026-04-19T15:46:38.999Z</time></trkpt><trkpt lat="44.50947816102151" lon="9.197133047722716"><ele>776.0</ele><time>2026-04-19T15:46:39.999Z</time></trkpt><trkpt lat="44.509461214746615" lon="9.197008574068828"><ele>776.0</ele><time>2026-04-19T15:46:40.999Z</time></trkpt><trkpt lat="44.509395663679356" lon="9.19692215118891"><ele>775.3333333333334</ele><time>2026-04-19T15:46:41.999Z</time></trkpt><trkpt lat="44.5093269095189" lon="9.196878496771895"><ele>774.6666666666667</ele><time>2026-04-19T15:46:42.999Z</time></trkpt><trkpt lat="44.509251467009165" lon="9.196873397181008"><ele>774.0</ele><time>2026-04-19T15:46:43.999Z</time></trkpt><trkpt lat="44.50918302993255" lon="9.196833031377007"><ele>773.3333333333333</ele><time>2026-04-19T15:46:44.999Z</time></trkpt><trkpt lat="44.50910945264289" lon="9.19681163641256"><ele>772.6666666666666</ele><time>2026-04-19T15:46:45.999Z</time></trkpt><trkpt lat="44.50902615607003" lon="9.196694909225167"><ele>772.0</ele><time>2026-04-19T15:46:47.999Z</time></trkpt><trkpt lat="44.50901706340422" lon="9.196575352974323"><ele>771.8</ele><time>2026-04-19T15:46:48.999Z</time></trkpt><trkpt lat="44.50902850027304" lon="9.196443077424322"><ele>771.6</ele><time>2026-04-19T15:46:49.999Z</time></trkpt><trkpt lat="44.50905068394284" lon="9.196299364106846"><ele>771.4</ele><time>2026-04-19T15:46:50.999Z</time></trkpt><trkpt lat="44.509067686157536" lon="9.196142772793522"><ele>771.1999999999999</ele><time>2026-04-19T15:46:51.999Z</time></trkpt><trkpt lat="44.509059428329834" lon="9.195992707335119"><ele>771.0</ele><time>2026-04-19T15:46:52.999Z</time></trkpt><trkpt lat="44.509036991053" lon="9.195846296671254"><ele>771.0</ele><time>2026-04-19T15:46:53.999Z</time></trkpt><trkpt lat="44.50900186464129" lon="9.195692116787335"><ele>771.0</ele><time>2026-04-19T15:46:55Z</time></trkpt><trkpt lat="44.50896536852875" lon="9.19555305725411"><ele>771.0</ele><time>2026-04-19T15:46:56Z</time></trkpt><trkpt lat="44.50893248335214" lon="9.195418363891015"><ele>771.0</ele><time>2026-04-19T15:46:57Z</time></trkpt><trkpt lat="44.50889892828378" lon="9.195277980638389"><ele>771.0</ele><time>2026-04-19T15:46:58Z</time></trkpt><trkpt lat="44.50887976992834" lon="9.195144974657453"><ele>770.8</ele><time>2026-04-19T15:46:59Z</time></trkpt><trkpt lat="44.50889429307356" lon="9.195024213398392"><ele>770.5999999999999</ele><time>2026-04-19T15:47:00Z</time></trkpt><trkpt lat="44.508939612266104" lon="9.19491195295243"><ele>770.4</ele><time>2026-04-19T15:47:01Z</time></trkpt><trkpt lat="44.50902396287674" lon="9.194815752741842"><ele>770.2</ele><time>2026-04-19T15:47:02Z</time></trkpt><trkpt lat="44.50913495160827" lon="9.194738574536757"><ele>770.0</ele><time>2026-04-19T15:47:03Z</time></trkpt><trkpt lat="44.50922209748545" lon="9.194699926046324"><ele>773.4</ele><time>2026-04-19T15:47:04Z</time></trkpt><trkpt lat="44.5092984574135" lon="9.19462731340892"><ele>776.8</ele><time>2026-04-19T15:47:05Z</time></trkpt><trkpt lat="44.509374331300755" lon="9.194528087437956"><ele>780.2</ele><time>2026-04-19T15:47:06Z</time></trkpt><trkpt lat="44.509446827409874" lon="9.194399277528277"><ele>783.6</ele><time>2026-04-19T15:47:07Z</time></trkpt><trkpt lat="44.50951826961646" lon="9.194251762652145"><ele>787.0</ele><time>2026-04-19T15:47:08Z</time></trkpt><trkpt lat="44.50957343027804" lon="9.194106150037243"><ele>783.5</ele><time>2026-04-19T15:47:09Z</time></trkpt><trkpt lat="44.50961401528209" lon="9.193960064742459"><ele>780.0</ele><time>2026-04-19T15:47:10Z</time></trkpt><trkpt lat="44.50964584275804" lon="9.19378810892759"><ele>776.5</ele><time>2026-04-19T15:47:11Z</time></trkpt><trkpt lat="44.509668403054896" lon="9.193605131303457"><ele>773.0</ele><time>2026-04-19T15:47:12Z</time></trkpt><trkpt lat="44.50968103741396" lon="9.193428629592336"><ele>773.0</ele><time>2026-04-19T15:47:13Z</time></trkpt><trkpt lat="44.50968103930533" lon="9.193233120413362"><ele>773.0</ele><time>2026-04-19T15:47:14Z</time></trkpt><trkpt lat="44.50967908162231" lon="9.193023117672247"><ele>773.0</ele><time>2026-04-19T15:47:15Z</time></trkpt><trkpt lat="44.50967426681733" lon="9.192800304434034"><ele>773.0</ele><time>2026-04-19T15:47:16Z</time></trkpt><trkpt lat="44.50966972215713" lon="9.19257449526285"><ele>776.3333333333334</ele><time>2026-04-19T15:47:17Z</time></trkpt><trkpt lat="44.50967680082742" lon="9.192370893704222"><ele>779.6666666666667</ele><time>2026-04-19T15:47:18Z</time></trkpt><trkpt lat="44.50969713779575" lon="9.192168966100652"><ele>783.0</ele><time>2026-04-19T15:47:19Z</time></trkpt><trkpt lat="44.50973037103569" lon="9.191950572998373"><ele>784.3333333333333</ele><time>2026-04-19T15:47:20.016Z</time></trkpt><trkpt lat="44.50977446237534" lon="9.191720935086504"><ele>785.6666666666666</ele><time>2026-04-19T15:47:21.022Z</time></trkpt><trkpt lat="44.50982334079965" lon="9.191514127228823"><ele>787.0</ele><time>2026-04-19T15:47:22.016Z</time></trkpt><trkpt lat="44.50986852680553" lon="9.191318506292053"><ele>784.5</ele><time>2026-04-19T15:47:23.022Z</time></trkpt><trkpt lat="44.509911708745335" lon="9.191116209536695"><ele>782.0</ele><time>2026-04-19T15:47:24.019Z</time></trkpt><trkpt lat="44.50991115277227" lon="9.191000242484824"><ele>779.5</ele><time>2026-04-19T15:47:25Z</time></trkpt><trkpt lat="44.50993028152071" lon="9.190782038022752"><ele>777.0</ele><time>2026-04-19T15:47:26Z</time></trkpt><trkpt lat="44.50993434934647" lon="9.190627083069197"><ele>777.0</ele><time>2026-04-19T15:47:27Z</time></trkpt><trkpt lat="44.50993846600117" lon="9.190438000620029"><ele>777.0</ele><time>2026-04-19T15:47:28Z</time></trkpt><trkpt lat="44.509889195744705" lon="9.19024184798787"><ele>777.0</ele><time>2026-04-19T15:47:29Z</time></trkpt><trkpt lat="44.509829047779924" lon="9.190038678978299"><ele>777.0</ele><time>2026-04-19T15:47:30Z</time></trkpt><trkpt lat="44.509770587769474" lon="9.189860582602888"><ele>779.5</ele><time>2026-04-19T15:47:31Z</time></trkpt><trkpt lat="44.50968928491293" lon="9.18970489748941"><ele>782.0</ele><time>2026-04-19T15:47:32Z</time></trkpt><trkpt lat="44.509588767311186" lon="9.189556719100652"><ele>784.5</ele><time>2026-04-19T15:47:33Z</time></trkpt><trkpt lat="44.50947531121654" lon="9.189411607502608"><ele>787.0</ele><time>2026-04-19T15:47:34Z</time></trkpt><trkpt lat="44.50934385809888" lon="9.189276849321326"><ele>787.6666666666666</ele><time>2026-04-19T15:47:35Z</time></trkpt><trkpt lat="44.509207453047765" lon="9.189138734889303"><ele>788.3333333333333</ele><time>2026-04-19T15:47:36Z</time></trkpt><trkpt lat="44.50907538474082" lon="9.189000410901045"><ele>789.0</ele><time>2026-04-19T15:47:37Z</time></trkpt><trkpt lat="44.50897242731186" lon="9.188848708547217"><ele>789.0</ele><time>2026-04-19T15:47:38Z</time></trkpt><trkpt lat="44.50888028162802" lon="9.188707951313742"><ele>789.0</ele><time>2026-04-19T15:47:39Z</time></trkpt><trkpt lat="44.508786549191385" lon="9.188563970470485"><ele>789.0</ele><time>2026-04-19T15:47:40Z</time></trkpt><trkpt lat="44.50870605682552" lon="9.188412387520097"><ele>789.0</ele><time>2026-04-19T15:47:41Z</time></trkpt><trkpt lat="44.50863890036795" lon="9.18824387845616"><ele>792.0</ele><time>2026-04-19T15:47:42Z</time></trkpt><trkpt lat="44.50858367602505" lon="9.188060693946891"><ele>795.0</ele><time>2026-04-19T15:47:43Z</time></trkpt><trkpt lat="44.508534400339045" lon="9.187870716532812"><ele>798.0</ele><time>2026-04-19T15:47:44Z</time></trkpt><trkpt lat="44.5084840428022" lon="9.187680229948988"><ele>801.0</ele><time>2026-04-19T15:47:45Z</time></trkpt><trkpt lat="44.508476290667545" lon="9.187472479124821"><ele>802.5</ele><time>2026-04-19T15:47:46Z</time></trkpt><trkpt lat="44.50848603946668" lon="9.187262027521475"><ele>804.0</ele><time>2026-04-19T15:47:47Z</time></trkpt><trkpt lat="44.50852991982514" lon="9.187073349212662"><ele>805.5</ele><time>2026-04-19T15:47:48Z</time></trkpt><trkpt lat="44.50857044744702" lon="9.18687111453362"><ele>807.0</ele><time>2026-04-19T15:47:49Z</time></trkpt><trkpt lat="44.508607644818355" lon="9.18668221810051"><ele>809.75</ele><time>2026-04-19T15:47:50Z</time></trkpt><trkpt lat="44.50863887233128" lon="9.18650891356531"><ele>812.5</ele><time>2026-04-19T15:47:51Z</time></trkpt><trkpt lat="44.50866661840071" lon="9.186329402908477"><ele>815.25</ele><time>2026-04-19T15:47:52Z</time></trkpt><trkpt lat="44.508689541907614" lon="9.186145177501412"><ele>818.0</ele><time>2026-04-19T15:47:53Z</time></trkpt><trkpt lat="44.50869445164004" lon="9.18595485931829"><ele>818.0</ele><time>2026-04-19T15:47:54Z</time></trkpt><trkpt lat="44.50872129083831" lon="9.185760463724922"><ele>818.0</ele><time>2026-04-19T15:47:55Z</time></trkpt><trkpt lat="44.50874864451158" lon="9.185560298361887"><ele>818.0</ele><time>2026-04-19T15:47:56Z</time></trkpt><trkpt lat="44.50877430765461" lon="9.185350977025486"><ele>818.0</ele><time>2026-04-19T15:47:57Z</time></trkpt><trkpt lat="44.50879995578226" lon="9.18513103244138"><ele>809.6666666666667</ele><time>2026-04-19T15:47:58Z</time></trkpt><trkpt lat="44.50883050104795" lon="9.184903170661554"><ele>801.3333333333333</ele><time>2026-04-19T15:47:59Z</time></trkpt><trkpt lat="44.50886225659432" lon="9.184670827479085"><ele>793.0</ele><time>2026-04-19T15:48:00Z</time></trkpt><trkpt lat="44.50888885624653" lon="9.184446984756946"><ele>793.0</ele><time>2026-04-19T15:48:00.999Z</time></trkpt><trkpt lat="44.50891762196178" lon="9.184218390042144"><ele>793.0</ele><time>2026-04-19T15:48:01.999Z</time></trkpt><trkpt lat="44.50894429013027" lon="9.184008245974136"><ele>793.0</ele><time>2026-04-19T15:48:02.999Z</time></trkpt><trkpt lat="44.50896874423876" lon="9.183802924437352"><ele>794.25</ele><time>2026-04-19T15:48:03.999Z</time></trkpt><trkpt lat="44.50899367869236" lon="9.183602745299252"><ele>795.5</ele><time>2026-04-19T15:48:04.999Z</time></trkpt><trkpt lat="44.50902240656109" lon="9.183404023601085"><ele>796.75</ele><time>2026-04-19T15:48:05.999Z</time></trkpt><trkpt lat="44.50905485764319" lon="9.183198995847853"><ele>798.0</ele><time>2026-04-19T15:48:06.999Z</time></trkpt><trkpt lat="44.509085636369704" lon="9.182984648781604"><ele>800.6666666666667</ele><time>2026-04-19T15:48:07.999Z</time></trkpt><trkpt lat="44.50911577020577" lon="9.182760544050383"><ele>803.3333333333334</ele><time>2026-04-19T15:48:08.999Z</time></trkpt><trkpt lat="44.50914522061909" lon="9.182528345533155"><ele>806.0</ele><time>2026-04-19T15:48:09.999Z</time></trkpt><trkpt lat="44.50918051635669" lon="9.18229451057869"><ele>813.0</ele><time>2026-04-19T15:48:10.999Z</time></trkpt><trkpt lat="44.50920954813477" lon="9.182076561023802"><ele>820.0</ele><time>2026-04-19T15:48:11.999Z</time></trkpt><trkpt lat="44.50923740996752" lon="9.181861365599499"><ele>827.0</ele><time>2026-04-19T15:48:13.016Z</time></trkpt><trkpt lat="44.50926552925295" lon="9.181652648411891"><ele>832.75</ele><time>2026-04-19T15:48:14.018Z</time></trkpt><trkpt lat="44.50928960778524" lon="9.181457512073644"><ele>838.5</ele><time>2026-04-19T15:48:15.015Z</time></trkpt><trkpt lat="44.50933012089013" lon="9.181281562283301"><ele>844.25</ele><time>2026-04-19T15:48:16.018Z</time></trkpt><trkpt lat="44.50936019865563" lon="9.181103880668095"><ele>850.0</ele><time>2026-04-19T15:48:17.016Z</time></trkpt><trkpt lat="44.509391194881175" lon="9.18092184247156"><ele>850.0</ele><time>2026-04-19T15:48:18.018Z</time></trkpt><trkpt lat="44.509422939052364" lon="9.180737192276087"><ele>850.0</ele><time>2026-04-19T15:48:19.021Z</time></trkpt><trkpt lat="44.51377824418667" lon="9.161950238057562"><ele>813.0</ele><time>2026-04-19T15:49:40.999Z</time></trkpt><trkpt lat="44.51383217382636" lon="9.161729070305627"><ele>776.0</ele><time>2026-04-19T15:49:41.999Z</time></trkpt><trkpt lat="44.51386795267704" lon="9.161498995069115"><ele>739.0</ele><time>2026-04-19T15:49:42.999Z</time></trkpt><trkpt lat="44.513900023530354" lon="9.161277947161281"><ele>733.6666666666667</ele><time>2026-04-19T15:49:43.998Z</time></trkpt><trkpt lat="44.51392521679544" lon="9.161060865380469"><ele>728.3333333333334</ele><time>2026-04-19T15:49:44.998Z</time></trkpt><trkpt lat="44.51395355434706" lon="9.160830048711347"><ele>723.0</ele><time>2026-04-19T15:49:45.998Z</time></trkpt><trkpt lat="44.51397203905524" lon="9.160602064812739"><ele>723.0</ele><time>2026-04-19T15:49:47Z</time></trkpt><trkpt lat="44.51398394307772" lon="9.160363229560621"><ele>723.0</ele><time>2026-04-19T15:49:48Z</time></trkpt><trkpt lat="44.51398944245018" lon="9.16011363323698"><ele>723.0</ele><time>2026-04-19T15:49:49Z</time></trkpt><trkpt lat="44.51399025576278" lon="9.159855356010269"><ele>725.6666666666666</ele><time>2026-04-19T15:49:50Z</time></trkpt><trkpt lat="44.51398589354905" lon="9.159591812370673"><ele>728.3333333333333</ele><time>2026-04-19T15:49:51Z</time></trkpt><trkpt lat="44.513967552956615" lon="9.15933121781208"><ele>731.0</ele><time>2026-04-19T15:49:52Z</time></trkpt><trkpt lat="44.513941169454164" lon="9.159068908473595"><ele>735.3333333333333</ele><time>2026-04-19T15:49:53Z</time></trkpt><trkpt lat="44.51390451773873" lon="9.158808149082692"><ele>739.6666666666666</ele><time>2026-04-19T15:49:54Z</time></trkpt><trkpt lat="44.51385882393492" lon="9.158544124177013"><ele>744.0</ele><time>2026-04-19T15:49:55Z</time></trkpt><trkpt lat="44.51380861662588" lon="9.158288133132116"><ele>743.0</ele><time>2026-04-19T15:49:56Z</time></trkpt><trkpt lat="44.51375503857385" lon="9.158046707813687"><ele>742.0</ele><time>2026-04-19T15:49:57Z</time></trkpt><trkpt lat="44.51369746935033" lon="9.157814196576929"><ele>741.0</ele><time>2026-04-19T15:49:58Z</time></trkpt><trkpt lat="44.51362946618916" lon="9.157583897748072"><ele>742.0</ele><time>2026-04-19T15:49:59Z</time></trkpt><trkpt lat="44.51355025192378" lon="9.157350906896015"><ele>743.0</ele><time>2026-04-19T15:50:00Z</time></trkpt><trkpt lat="44.51346275706613" lon="9.157116851228633"><ele>744.0</ele><time>2026-04-19T15:50:01Z</time></trkpt><trkpt lat="44.51336660550971" lon="9.156877302345881"><ele>744.0</ele><time>2026-04-19T15:50:02.017Z</time></trkpt><trkpt lat="44.51326354749359" lon="9.156645037710332"><ele>744.0</ele><time>2026-04-19T15:50:03.015Z</time></trkpt><trkpt lat="44.513152798532474" lon="9.156420700654978"><ele>744.0</ele><time>2026-04-19T15:50:04.016Z</time></trkpt><trkpt lat="44.513036465562564" lon="9.156203329865237"><ele>744.0</ele><time>2026-04-19T15:50:05.017Z</time></trkpt><trkpt lat="44.51292506256769" lon="9.156008656369865"><ele>744.0</ele><time>2026-04-19T15:50:06Z</time></trkpt><trkpt lat="44.51279252138725" lon="9.15584044595217"><ele>744.0</ele><time>2026-04-19T15:50:07Z</time></trkpt><trkpt lat="44.51264970228922" lon="9.15565901498607"><ele>745.3333333333334</ele><time>2026-04-19T15:50:08Z</time></trkpt><trkpt lat="44.51252075355599" lon="9.155495105037648"><ele>746.6666666666667</ele><time>2026-04-19T15:50:09Z</time></trkpt><trkpt lat="44.51238830544068" lon="9.155334131424393"><ele>748.0</ele><time>2026-04-19T15:50:10Z</time></trkpt><trkpt lat="44.51225034810956" lon="9.15518186680729"><ele>748.0</ele><time>2026-04-19T15:50:11Z</time></trkpt><trkpt lat="44.51210204523759" lon="9.155037202566914"><ele>748.0</ele><time>2026-04-19T15:50:12Z</time></trkpt><trkpt lat="44.51194723281357" lon="9.154888334144506"><ele>748.0</ele><time>2026-04-19T15:50:13Z</time></trkpt><trkpt lat="44.51178019107057" lon="9.154746311214005"><ele>749.3333333333334</ele><time>2026-04-19T15:50:14Z</time></trkpt><trkpt lat="44.511604775683196" lon="9.154615751613653"><ele>750.6666666666666</ele><time>2026-04-19T15:50:15Z</time></trkpt><trkpt lat="44.51142441602186" lon="9.154497532067833"><ele>752.0</ele><time>2026-04-19T15:50:16Z</time></trkpt><trkpt lat="44.51124263731422" lon="9.154393953033464"><ele>746.3333333333333</ele><time>2026-04-19T15:50:17Z</time></trkpt><trkpt lat="44.51106314149856" lon="9.154299406538067"><ele>740.6666666666666</ele><time>2026-04-19T15:50:18Z</time></trkpt><trkpt lat="44.51088963347765" lon="9.154219374279405"><ele>735.0</ele><time>2026-04-19T15:50:19Z</time></trkpt><trkpt lat="44.51072225182091" lon="9.154150849651822"><ele>735.0</ele><time>2026-04-19T15:50:20Z</time></trkpt><trkpt lat="44.51056824409299" lon="9.154084209096563"><ele>735.0</ele><time>2026-04-19T15:50:21Z</time></trkpt><trkpt lat="44.510412511011495" lon="9.154029495773141"><ele>735.0</ele><time>2026-04-19T15:50:22Z</time></trkpt><trkpt lat="44.51025775074805" lon="9.153970935208552"><ele>736.6666666666666</ele><time>2026-04-19T15:50:23Z</time></trkpt><trkpt lat="44.51008514368792" lon="9.15390970246167"><ele>738.3333333333333</ele><time>2026-04-19T15:50:24Z</time></trkpt><trkpt lat="44.50990983604049" lon="9.153838914268539"><ele>740.0</ele><time>2026-04-19T15:50:25Z</time></trkpt><trkpt lat="44.50973189675516" lon="9.153774175084973"><ele>739.0</ele><time>2026-04-19T15:50:26Z</time></trkpt><trkpt lat="44.509563215808775" lon="9.153713582783904"><ele>738.0</ele><time>2026-04-19T15:50:27Z</time></trkpt><trkpt lat="44.509392016128906" lon="9.153653021634053"><ele>737.0</ele><time>2026-04-19T15:50:28Z</time></trkpt><trkpt lat="44.50922146646936" lon="9.153585180591723"><ele>737.0</ele><time>2026-04-19T15:50:29Z</time></trkpt><trkpt lat="44.509054552559135" lon="9.153520197498858"><ele>737.0</ele><time>2026-04-19T15:50:30Z</time></trkpt><trkpt lat="44.508894822630936" lon="9.153456376667316"><ele>737.0</ele><time>2026-04-19T15:50:31Z</time></trkpt><trkpt lat="44.50873850767074" lon="9.153391784359014"><ele>739.3333333333333</ele><time>2026-04-19T15:50:32Z</time></trkpt><trkpt lat="44.508586093987425" lon="9.153314697007861"><ele>741.6666666666666</ele><time>2026-04-19T15:50:33Z</time></trkpt><trkpt lat="44.50843266247957" lon="9.153224498547587"><ele>744.0</ele><time>2026-04-19T15:50:34Z</time></trkpt><trkpt lat="44.50827399631908" lon="9.153127785161894"><ele>745.3333333333334</ele><time>2026-04-19T15:50:35Z</time></trkpt><trkpt lat="44.50812830805033" lon="9.153028581225445"><ele>746.6666666666667</ele><time>2026-04-19T15:50:36Z</time></trkpt><trkpt lat="44.50798840627552" lon="9.15292623614749"><ele>748.0</ele><time>2026-04-19T15:50:37.022Z</time></trkpt><trkpt lat="44.507859504237935" lon="9.152823197786553"><ele>743.0</ele><time>2026-04-19T15:50:38.015Z</time></trkpt><trkpt lat="44.507729611770245" lon="9.15270918318168"><ele>738.0</ele><time>2026-04-19T15:50:39.021Z</time></trkpt><trkpt lat="44.5075995563331" lon="9.152595769267709"><ele>733.0</ele><time>2026-04-19T15:50:40.02Z</time></trkpt><trkpt lat="44.507325673124065" lon="9.152332573582788"><ele>731.75</ele><time>2026-04-19T15:50:42Z</time></trkpt><trkpt lat="44.50720503446459" lon="9.152215423110553"><ele>730.5</ele><time>2026-04-19T15:50:42.999Z</time></trkpt><trkpt lat="44.507098392361414" lon="9.152112393077878"><ele>729.25</ele><time>2026-04-19T15:50:43.999Z</time></trkpt><trkpt lat="44.50698861222781" lon="9.152020258314005"><ele>728.0</ele><time>2026-04-19T15:50:44.999Z</time></trkpt><trkpt lat="44.50688145808253" lon="9.15190055949095"><ele>727.75</ele><time>2026-04-19T15:50:45.999Z</time></trkpt><trkpt lat="44.506761312995046" lon="9.151782361056952"><ele>727.5</ele><time>2026-04-19T15:50:46.999Z</time></trkpt><trkpt lat="44.5066388889358" lon="9.151660985555475"><ele>727.25</ele><time>2026-04-19T15:50:47.999Z</time></trkpt><trkpt lat="44.506522440864565" lon="9.151542780927837"><ele>727.0</ele><time>2026-04-19T15:50:48.999Z</time></trkpt><trkpt lat="44.50640269547675" lon="9.151427469815387"><ele>729.75</ele><time>2026-04-19T15:50:49.999Z</time></trkpt><trkpt lat="44.506282409965806" lon="9.151309776649827"><ele>732.5</ele><time>2026-04-19T15:50:50.999Z</time></trkpt><trkpt lat="44.50615738984086" lon="9.15119059510166"><ele>735.25</ele><time>2026-04-19T15:50:52.015Z</time></trkpt><trkpt lat="44.50603771750926" lon="9.151077428657487"><ele>738.0</ele><time>2026-04-19T15:50:53.023Z</time></trkpt><trkpt lat="44.50592372524592" lon="9.150962712275929"><ele>744.0</ele><time>2026-04-19T15:50:54.015Z</time></trkpt><trkpt lat="44.505807525349574" lon="9.150845382891331"><ele>750.0</ele><time>2026-04-19T15:50:55.016Z</time></trkpt><trkpt lat="44.50569175142807" lon="9.15072849343706"><ele>756.0</ele><time>2026-04-19T15:50:56.016Z</time></trkpt><trkpt lat="44.50438259173604" lon="9.149437900641141"><ele>750.25</ele><time>2026-04-19T15:51:07.999Z</time></trkpt><trkpt lat="44.50427467590972" lon="9.149323168094467"><ele>744.5</ele><time>2026-04-19T15:51:08.999Z</time></trkpt><trkpt lat="44.50416046838629" lon="9.149198275146924"><ele>738.75</ele><time>2026-04-19T15:51:09.999Z</time></trkpt><trkpt lat="44.5040497200661" lon="9.149058462390999"><ele>733.0</ele><time>2026-04-19T15:51:10.999Z</time></trkpt><trkpt lat="44.50392434322827" lon="9.148898384215329"><ele>733.0</ele><time>2026-04-19T15:51:11.999Z</time></trkpt><trkpt lat="44.503804888632146" lon="9.148726971411472"><ele>733.0</ele><time>2026-04-19T15:51:12.999Z</time></trkpt><trkpt lat="44.503699796809116" lon="9.148540823288306"><ele>733.0</ele><time>2026-04-19T15:51:13.999Z</time></trkpt><trkpt lat="44.5035903604383" lon="9.148367030996509"><ele>727.0</ele><time>2026-04-19T15:51:14.999Z</time></trkpt><trkpt lat="44.5034860651871" lon="9.148182010758985"><ele>721.0</ele><time>2026-04-19T15:51:15.999Z</time></trkpt><trkpt lat="44.5033869521471" lon="9.147986787725669"><ele>715.0</ele><time>2026-04-19T15:51:16.999Z</time></trkpt><trkpt lat="44.50329230191632" lon="9.147782065922009"><ele>715.0</ele><time>2026-04-19T15:51:17.999Z</time></trkpt><trkpt lat="44.503198402533535" lon="9.14757549111744"><ele>715.0</ele><time>2026-04-19T15:51:18.999Z</time></trkpt><trkpt lat="44.50311067676423" lon="9.147357880232015"><ele>715.0</ele><time>2026-04-19T15:51:19.999Z</time></trkpt><trkpt lat="44.503029851532446" lon="9.147139483281714"><ele>716.6666666666667</ele><time>2026-04-19T15:51:20.999Z</time></trkpt><trkpt lat="44.50296161635916" lon="9.146925749796857"><ele>718.3333333333334</ele><time>2026-04-19T15:51:21.999Z</time></trkpt><trkpt lat="44.50289770866964" lon="9.146714782673707"><ele>720.0</ele><time>2026-04-19T15:51:22.999Z</time></trkpt><trkpt lat="44.50284115973623" lon="9.146501319736796"><ele>715.6666666666666</ele><time>2026-04-19T15:51:23.999Z</time></trkpt><trkpt lat="44.502784811605856" lon="9.146289106095109"><ele>711.3333333333333</ele><time>2026-04-19T15:51:24.999Z</time></trkpt><trkpt lat="44.502727425763226" lon="9.14607559730966"><ele>707.0</ele><time>2026-04-19T15:51:25.999Z</time></trkpt><trkpt lat="44.50266484543909" lon="9.145863992398438"><ele>709.3333333333333</ele><time>2026-04-19T15:51:26.999Z</time></trkpt><trkpt lat="44.50260460700671" lon="9.14564831494118"><ele>711.6666666666666</ele><time>2026-04-19T15:51:27.999Z</time></trkpt><trkpt lat="44.50254607766716" lon="9.1454330720048"><ele>714.0</ele><time>2026-04-19T15:51:28.999Z</time></trkpt><trkpt lat="44.50248653306986" lon="9.145224693504787"><ele>714.0</ele><time>2026-04-19T15:51:29.999Z</time></trkpt><trkpt lat="44.50242796095041" lon="9.1449958120107"><ele>714.0</ele><time>2026-04-19T15:51:30.999Z</time></trkpt><trkpt lat="44.50236561936476" lon="9.14474583792885"><ele>714.0</ele><time>2026-04-19T15:51:31.999Z</time></trkpt><trkpt lat="44.50229849823411" lon="9.14447781298083"><ele>717.6666666666666</ele><time>2026-04-19T15:51:33.015Z</time></trkpt><trkpt lat="44.50222515306231" lon="9.144201176820486"><ele>721.3333333333333</ele><time>2026-04-19T15:51:34.016Z</time></trkpt><trkpt lat="44.502148417848396" lon="9.143917263107857"><ele>725.0</ele><time>2026-04-19T15:51:35.016Z</time></trkpt><trkpt lat="44.50207617177295" lon="9.143647445850034"><ele>720.0</ele><time>2026-04-19T15:51:36.015Z</time></trkpt><trkpt lat="44.502008358958925" lon="9.14338271676247"><ele>715.0</ele><time>2026-04-19T15:51:37.015Z</time></trkpt><trkpt lat="44.50102544016108" lon="9.140763000595499"><ele>708.5</ele><time>2026-04-19T15:51:41.716Z</time></trkpt><trkpt lat="44.50078754550449" lon="9.140231542876784"><ele>702.0</ele><time>2026-04-19T15:51:42.714Z</time></trkpt><trkpt lat="44.500442510512194" lon="9.139506183573175"><ele>697.3333333333334</ele><time>2026-04-19T15:51:55.999Z</time></trkpt><trkpt lat="44.50033186592857" lon="9.139326962828084"><ele>692.6666666666667</ele><time>2026-04-19T15:51:56.999Z</time></trkpt><trkpt lat="44.500262686763655" lon="9.139129753211337"><ele>688.0</ele><time>2026-04-19T15:51:57.999Z</time></trkpt><trkpt lat="44.500164279542304" lon="9.138947436991863"><ele>684.0</ele><time>2026-04-19T15:51:58.999Z</time></trkpt><trkpt lat="44.50005855393244" lon="9.138757101577713"><ele>680.0</ele><time>2026-04-19T15:51:59.999Z</time></trkpt><trkpt lat="44.49995048353584" lon="9.138565535014502"><ele>676.0</ele><time>2026-04-19T15:52:00.999Z</time></trkpt><trkpt lat="44.499837102142195" lon="9.138371489557311"><ele>675.3333333333334</ele><time>2026-04-19T15:52:02Z</time></trkpt><trkpt lat="44.49972242763573" lon="9.138181881817413"><ele>674.6666666666666</ele><time>2026-04-19T15:52:03Z</time></trkpt><trkpt lat="44.49960880833865" lon="9.13799658174727"><ele>674.0</ele><time>2026-04-19T15:52:04Z</time></trkpt><trkpt lat="44.49949339132135" lon="9.137810390013822"><ele>674.0</ele><time>2026-04-19T15:52:05Z</time></trkpt><trkpt lat="44.499375267882385" lon="9.137625079901552"><ele>674.0</ele><time>2026-04-19T15:52:06Z</time></trkpt><trkpt lat="44.49925196002489" lon="9.137438497495316"><ele>674.0</ele><time>2026-04-19T15:52:07Z</time></trkpt><trkpt lat="44.49912936918846" lon="9.137258831797137"><ele>670.0</ele><time>2026-04-19T15:52:08Z</time></trkpt><trkpt lat="44.49900757092871" lon="9.137085431070696"><ele>666.0</ele><time>2026-04-19T15:52:09Z</time></trkpt><trkpt lat="44.49888764236576" lon="9.136921190556995"><ele>662.0</ele><time>2026-04-19T15:52:10Z</time></trkpt><trkpt lat="44.49876833114926" lon="9.136758233190735"><ele>663.3333333333333</ele><time>2026-04-19T15:52:11Z</time></trkpt><trkpt lat="44.4986511399261" lon="9.136604572617843"><ele>664.6666666666666</ele><time>2026-04-19T15:52:12Z</time></trkpt><trkpt lat="44.49853085304899" lon="9.13645048818347"><ele>666.0</ele><time>2026-04-19T15:52:13Z</time></trkpt><trkpt lat="44.49840629431279" lon="9.136291408126246"><ele>662.6666666666666</ele><time>2026-04-19T15:52:14Z</time></trkpt><trkpt lat="44.4982789818573" lon="9.136127383817795"><ele>659.3333333333333</ele><time>2026-04-19T15:52:15Z</time></trkpt><trkpt lat="44.49814290003844" lon="9.135951849308052"><ele>656.0</ele><time>2026-04-19T15:52:16Z</time></trkpt><trkpt lat="44.4980087012517" lon="9.135778743786027"><ele>653.6666666666666</ele><time>2026-04-19T15:52:17Z</time></trkpt><trkpt lat="44.497873788166025" lon="9.135606566788704"><ele>651.3333333333334</ele><time>2026-04-19T15:52:18Z</time></trkpt><trkpt lat="44.497740149875774" lon="9.135437077730748"><ele>649.0</ele><time>2026-04-19T15:52:19Z</time></trkpt><trkpt lat="44.497606736039195" lon="9.135267873151893"><ele>649.0</ele><time>2026-04-19T15:52:20Z</time></trkpt><trkpt lat="44.49746201265259" lon="9.135115275142436"><ele>649.0</ele><time>2026-04-19T15:52:21Z</time></trkpt><trkpt lat="44.49733723364865" lon="9.13492572897185"><ele>649.0</ele><time>2026-04-19T15:52:22Z</time></trkpt><trkpt lat="44.497197334329925" lon="9.13474674015429"><ele>649.0</ele><time>2026-04-19T15:52:23Z</time></trkpt><trkpt lat="44.49706254198071" lon="9.13457279364588"><ele>649.0</ele><time>2026-04-19T15:52:24Z</time></trkpt><trkpt lat="44.49692847683877" lon="9.134399646108804"><ele>649.0</ele><time>2026-04-19T15:52:25Z</time></trkpt><trkpt lat="44.49678828463043" lon="9.134232969352574"><ele>649.0</ele><time>2026-04-19T15:52:26Z</time></trkpt><trkpt lat="44.49664898177657" lon="9.134072596693988"><ele>649.0</ele><time>2026-04-19T15:52:27Z</time></trkpt><trkpt lat="44.49651322292962" lon="9.13392056332191"><ele>649.0</ele><time>2026-04-19T15:52:28Z</time></trkpt><trkpt lat="44.49636972011658" lon="9.13376605269651"><ele>652.0</ele><time>2026-04-19T15:52:29.018Z</time></trkpt><trkpt lat="44.49622939887556" lon="9.133620927350762"><ele>655.0</ele><time>2026-04-19T15:52:30.017Z</time></trkpt><trkpt lat="44.49608465819572" lon="9.133480495292831"><ele>658.0</ele><time>2026-04-19T15:52:31.016Z</time></trkpt><trkpt lat="44.49594071242102" lon="9.133346922085856"><ele>658.0</ele><time>2026-04-19T15:52:32.017Z</time></trkpt><trkpt lat="44.495789659823856" lon="9.133233473231062"><ele>658.0</ele><time>2026-04-19T15:52:33.015Z</time></trkpt><trkpt lat="44.495652433319044" lon="9.133095320064346"><ele>658.0</ele><time>2026-04-19T15:52:34.021Z</time></trkpt><trkpt lat="44.49423015340142" lon="9.131883648482368"><ele>650.0</ele><time>2026-04-19T15:52:37.716Z</time></trkpt><trkpt lat="44.49400516696693" lon="9.131654854872385"><ele>642.0</ele><time>2026-04-19T15:52:45Z</time></trkpt><trkpt lat="44.49393306669555" lon="9.131702476830993"><ele>634.0</ele><time>2026-04-19T15:52:46Z</time></trkpt><trkpt lat="44.49379222315545" lon="9.131552172024323"><ele>629.5</ele><time>2026-04-19T15:52:47Z</time></trkpt><trkpt lat="44.49367100011833" lon="9.13143851884699"><ele>625.0</ele><time>2026-04-19T15:52:48Z</time></trkpt><trkpt lat="44.49355577777376" lon="9.131322888282876"><ele>620.5</ele><time>2026-04-19T15:52:49Z</time></trkpt><trkpt lat="44.49346286586324" lon="9.131196150449972"><ele>616.0</ele><time>2026-04-19T15:52:50Z</time></trkpt><trkpt lat="44.493385625120425" lon="9.131053759385738"><ele>616.0</ele><time>2026-04-19T15:52:51Z</time></trkpt><trkpt lat="44.49332224419398" lon="9.130889323249884"><ele>616.0</ele><time>2026-04-19T15:52:52Z</time></trkpt><trkpt lat="44.49326836484335" lon="9.130732586293101"><ele>616.0</ele><time>2026-04-19T15:52:53Z</time></trkpt><trkpt lat="44.493221571735596" lon="9.130581434406954"><ele>616.0</ele><time>2026-04-19T15:52:54Z</time></trkpt><trkpt lat="44.4931753196686" lon="9.130426610800544"><ele>613.0</ele><time>2026-04-19T15:52:55Z</time></trkpt><trkpt lat="44.493126742006176" lon="9.130281418810606"><ele>610.0</ele><time>2026-04-19T15:52:56Z</time></trkpt><trkpt lat="44.49308965851971" lon="9.13013211730467"><ele>607.0</ele><time>2026-04-19T15:52:57Z</time></trkpt><trkpt lat="44.49302577353659" lon="9.130015053983868"><ele>604.0</ele><time>2026-04-19T15:52:58Z</time></trkpt><trkpt lat="44.49294366599284" lon="9.12992635351651"><ele>601.0</ele><time>2026-04-19T15:52:59Z</time></trkpt><trkpt lat="44.49283764081635" lon="9.129874421915964"><ele>598.6</ele><time>2026-04-19T15:53:00Z</time></trkpt><trkpt lat="44.4927206260345" lon="9.129873744934125"><ele>596.2</ele><time>2026-04-19T15:53:01Z</time></trkpt><trkpt lat="44.49261895085995" lon="9.129934886223717"><ele>593.8</ele><time>2026-04-19T15:53:02Z</time></trkpt><trkpt lat="44.492552646596586" lon="9.130009424771236"><ele>591.4</ele><time>2026-04-19T15:53:03Z</time></trkpt><trkpt lat="44.492513950915615" lon="9.13012411826112"><ele>589.0</ele><time>2026-04-19T15:53:04Z</time></trkpt><trkpt lat="44.49247735999985" lon="9.130255675703417"><ele>589.0</ele><time>2026-04-19T15:53:05Z</time></trkpt><trkpt lat="44.492439267397415" lon="9.130391281147336"><ele>589.0</ele><time>2026-04-19T15:53:06Z</time></trkpt><trkpt lat="44.49238068520889" lon="9.130496162804182"><ele>589.0</ele><time>2026-04-19T15:53:07Z</time></trkpt><trkpt lat="44.49230738037984" lon="9.130571455577469"><ele>589.0</ele><time>2026-04-19T15:53:08Z</time></trkpt><trkpt lat="44.49223162322027" lon="9.13061633989707"><ele>589.0</ele><time>2026-04-19T15:53:09Z</time></trkpt><trkpt lat="44.49215568858318" lon="9.130644283918343"><ele>588.4</ele><time>2026-04-19T15:53:10Z</time></trkpt><trkpt lat="44.49207787070171" lon="9.130686395076276"><ele>587.8</ele><time>2026-04-19T15:53:10.999Z</time></trkpt><trkpt lat="44.491996718990876" lon="9.130726779754774"><ele>587.2</ele><time>2026-04-19T15:53:11.999Z</time></trkpt><trkpt lat="44.49187564409765" lon="9.130693768272671"><ele>586.6</ele><time>2026-04-19T15:53:12.999Z</time></trkpt><trkpt lat="44.49174815791852" lon="9.130714684741788"><ele>586.0</ele><time>2026-04-19T15:53:13.999Z</time></trkpt><trkpt lat="44.49160548412242" lon="9.130735589110746"><ele>587.5</ele><time>2026-04-19T15:53:14.999Z</time></trkpt><trkpt lat="44.49147594850283" lon="9.130751229707782"><ele>589.0</ele><time>2026-04-19T15:53:15.999Z</time></trkpt><trkpt lat="44.49134216871371" lon="9.13076687536513"><ele>590.5</ele><time>2026-04-19T15:53:16.999Z</time></trkpt><trkpt lat="44.49119890707575" lon="9.130783270944208"><ele>592.0</ele><time>2026-04-19T15:53:17.999Z</time></trkpt><trkpt lat="44.49106263921946" lon="9.130801593408941"><ele>599.0</ele><time>2026-04-19T15:53:18.999Z</time></trkpt><trkpt lat="44.49093870910423" lon="9.130820488775177"><ele>606.0</ele><time>2026-04-19T15:53:19.999Z</time></trkpt><trkpt lat="44.4908137313959" lon="9.130840813752346"><ele>613.0</ele><time>2026-04-19T15:53:20.999Z</time></trkpt><trkpt lat="44.49068679560877" lon="9.130850571465194"><ele>620.0</ele><time>2026-04-19T15:53:21.999Z</time></trkpt><trkpt lat="44.49054784148666" lon="9.13086261834691"><ele>622.25</ele><time>2026-04-19T15:53:22.999Z</time></trkpt><trkpt lat="44.49040109241647" lon="9.1308727916921"><ele>624.5</ele><time>2026-04-19T15:53:23.999Z</time></trkpt><trkpt lat="44.49025296802557" lon="9.130886049199495"><ele>626.75</ele><time>2026-04-19T15:53:24.999Z</time></trkpt><trkpt lat="44.49010152048652" lon="9.130897458777492"><ele>629.0</ele><time>2026-04-19T15:53:25.999Z</time></trkpt><trkpt lat="44.489947423634405" lon="9.130910611802053"><ele>629.0</ele><time>2026-04-19T15:53:26.999Z</time></trkpt><trkpt lat="44.489809160693966" lon="9.130924297033536"><ele>629.0</ele><time>2026-04-19T15:53:27.999Z</time></trkpt><trkpt lat="44.489670214173465" lon="9.130937579546073"><ele>629.0</ele><time>2026-04-19T15:53:28.999Z</time></trkpt><trkpt lat="44.48953203087101" lon="9.130959208810697"><ele>629.0</ele><time>2026-04-19T15:53:29.999Z</time></trkpt><trkpt lat="44.48938922652043" lon="9.130975670827299"><ele>630.6666666666666</ele><time>2026-04-19T15:53:30.999Z</time></trkpt><trkpt lat="44.489243705202185" lon="9.130986795353929"><ele>632.3333333333334</ele><time>2026-04-19T15:53:31.999Z</time></trkpt><trkpt lat="44.489094006992325" lon="9.130991374508843"><ele>634.0</ele><time>2026-04-19T15:53:32.999Z</time></trkpt><trkpt lat="44.48893907389154" lon="9.130987018766756"><ele>634.0</ele><time>2026-04-19T15:53:33.999Z</time></trkpt><trkpt lat="44.488783404031764" lon="9.130966555157109"><ele>634.0</ele><time>2026-04-19T15:53:34.999Z</time></trkpt><trkpt lat="44.48862381654051" lon="9.13093495048125"><ele>634.0</ele><time>2026-04-19T15:53:35.999Z</time></trkpt><trkpt lat="44.48846237066698" lon="9.130880471959308"><ele>635.6666666666667</ele><time>2026-04-19T15:53:36.999Z</time></trkpt><trkpt lat="44.488301046514046" lon="9.13080647557755"><ele>637.3333333333334</ele><time>2026-04-19T15:53:37.999Z</time></trkpt><trkpt lat="44.48813767684234" lon="9.13073025443478"><ele>639.0</ele><time>2026-04-19T15:53:38.999Z</time></trkpt><trkpt lat="44.48798794673942" lon="9.130660725107045"><ele>633.0</ele><time>2026-04-19T15:53:39.999Z</time></trkpt><trkpt lat="44.48784824877066" lon="9.13057994720798"><ele>627.0</ele><time>2026-04-19T15:53:40.999Z</time></trkpt><trkpt lat="44.487706417630456" lon="9.130494638004462"><ele>621.0</ele><time>2026-04-19T15:53:41.999Z</time></trkpt><trkpt lat="44.48756921773706" lon="9.130400049925461"><ele>621.0</ele><time>2026-04-19T15:53:42.999Z</time></trkpt><trkpt lat="44.48742864546985" lon="9.130311404860683"><ele>621.0</ele><time>2026-04-19T15:53:43.999Z</time></trkpt><trkpt lat="44.48728730759789" lon="9.130215719727122"><ele>621.0</ele><time>2026-04-19T15:53:44.999Z</time></trkpt><trkpt lat="44.48714680552118" lon="9.130123833165218"><ele>620.6666666666666</ele><time>2026-04-19T15:53:45.999Z</time></trkpt><trkpt lat="44.48700408786912" lon="9.130029442350484"><ele>620.3333333333333</ele><time>2026-04-19T15:53:46.999Z</time></trkpt><trkpt lat="44.48686352736378" lon="9.129935307642924"><ele>620.0</ele><time>2026-04-19T15:53:47.999Z</time></trkpt><trkpt lat="44.48673006038451" lon="9.129845355008838"><ele>620.0</ele><time>2026-04-19T15:53:48.999Z</time></trkpt><trkpt lat="44.486597310648435" lon="9.129754793686597"><ele>620.0</ele><time>2026-04-19T15:53:49.999Z</time></trkpt><trkpt lat="44.48646022135862" lon="9.129655881459797"><ele>620.0</ele><time>2026-04-19T15:53:50.999Z</time></trkpt><trkpt lat="44.48632395603553" lon="9.129540486829677"><ele>630.3333333333333</ele><time>2026-04-19T15:53:51.999Z</time></trkpt><trkpt lat="44.48619393145645" lon="9.129409608325195"><ele>640.6666666666666</ele><time>2026-04-19T15:53:52.999Z</time></trkpt><trkpt lat="44.48606673913959" lon="9.129263951973925"><ele>651.0</ele><time>2026-04-19T15:53:53.999Z</time></trkpt><trkpt lat="44.485946985180746" lon="9.129099179227422"><ele>644.3333333333334</ele><time>2026-04-19T15:53:54.999Z</time></trkpt><trkpt lat="44.4858506479051" lon="9.12891966282946"><ele>637.6666666666667</ele><time>2026-04-19T15:53:55.999Z</time></trkpt><trkpt lat="44.4857521652099" lon="9.128745517152495"><ele>631.0</ele><time>2026-04-19T15:53:56.999Z</time></trkpt><trkpt lat="44.48565416511419" lon="9.128562302857631"><ele>631.0</ele><time>2026-04-19T15:53:57.999Z</time></trkpt><trkpt lat="44.48555116537804" lon="9.128385053380736"><ele>631.0</ele><time>2026-04-19T15:53:58.999Z</time></trkpt><trkpt lat="44.485447166213646" lon="9.128203049150082"><ele>631.0</ele><time>2026-04-19T15:53:59.999Z</time></trkpt><trkpt lat="44.485345013889074" lon="9.128014525559298"><ele>632.3333333333334</ele><time>2026-04-19T15:54:00.999Z</time></trkpt><trkpt lat="44.48523499433644" lon="9.127828323243946"><ele>633.6666666666666</ele><time>2026-04-19T15:54:01.999Z</time></trkpt><trkpt lat="44.48512404525874" lon="9.12763558186062"><ele>635.0</ele><time>2026-04-19T15:54:02.999Z</time></trkpt><trkpt lat="44.48501182202853" lon="9.127438783770735"><ele>633.3333333333333</ele><time>2026-04-19T15:54:03.999Z</time></trkpt><trkpt lat="44.48489908818403" lon="9.127243375507287"><ele>631.6666666666666</ele><time>2026-04-19T15:54:04.999Z</time></trkpt><trkpt lat="44.48478834514694" lon="9.12705590744826"><ele>630.0</ele><time>2026-04-19T15:54:05.999Z</time></trkpt><trkpt lat="44.484703251085605" lon="9.126902106349286"><ele>630.0</ele><time>2026-04-19T15:54:06.999Z</time></trkpt><trkpt lat="44.484607105800464" lon="9.126756738686606"><ele>630.0</ele><time>2026-04-19T15:54:08Z</time></trkpt><trkpt lat="44.48450340736118" lon="9.126587617685592"><ele>630.0</ele><time>2026-04-19T15:54:09Z</time></trkpt><trkpt lat="44.48440179407987" lon="9.126410377941752"><ele>631.0</ele><time>2026-04-19T15:54:10Z</time></trkpt><trkpt lat="44.48430005933175" lon="9.126236606518477"><ele>632.0</ele><time>2026-04-19T15:54:11Z</time></trkpt><trkpt lat="44.484194431496995" lon="9.126063446515072"><ele>633.0</ele><time>2026-04-19T15:54:12Z</time></trkpt><trkpt lat="44.484094005108766" lon="9.125891271330628"><ele>631.3333333333334</ele><time>2026-04-19T15:54:13Z</time></trkpt><trkpt lat="44.483995105863784" lon="9.125705850224541"><ele>629.6666666666667</ele><time>2026-04-19T15:54:14Z</time></trkpt><trkpt lat="44.483887067586565" lon="9.125517095409512"><ele>628.0</ele><time>2026-04-19T15:54:15Z</time></trkpt><trkpt lat="44.483770000520956" lon="9.12530396170558"><ele>632.6666666666667</ele><time>2026-04-19T15:54:16Z</time></trkpt><trkpt lat="44.48364746268067" lon="9.125081201262521"><ele>637.3333333333334</ele><time>2026-04-19T15:54:17Z</time></trkpt><trkpt lat="44.4835142274684" lon="9.124853792155674"><ele>642.0</ele><time>2026-04-19T15:54:18Z</time></trkpt><trkpt lat="44.48336984025288" lon="9.124626765842883"><ele>642.0</ele><time>2026-04-19T15:54:19Z</time></trkpt><trkpt lat="44.483241344626066" lon="9.124374600787112"><ele>642.0</ele><time>2026-04-19T15:54:20Z</time></trkpt><trkpt lat="44.48310272878232" lon="9.124130720710456"><ele>642.0</ele><time>2026-04-19T15:54:21Z</time></trkpt><trkpt lat="44.4829618244666" lon="9.123894775464004"><ele>645.3333333333334</ele><time>2026-04-19T15:54:22Z</time></trkpt><trkpt lat="44.4827991033275" lon="9.123687564136109"><ele>648.6666666666667</ele><time>2026-04-19T15:54:23Z</time></trkpt><trkpt lat="44.48263684966492" lon="9.1235009377768"><ele>652.0</ele><time>2026-04-19T15:54:24Z</time></trkpt><trkpt lat="44.48247642036485" lon="9.123260572529166"><ele>652.0</ele><time>2026-04-19T15:54:25Z</time></trkpt><trkpt lat="44.48273146885615" lon="9.123623167280405"><ele>652.0</ele><time>2026-04-19T15:54:26Z</time></trkpt><trkpt lat="44.48259926826863" lon="9.123499801235527"><ele>652.0</ele><time>2026-04-19T15:54:27Z</time></trkpt><trkpt lat="44.48244934063441" lon="9.123389017838047"><ele>652.0</ele><time>2026-04-19T15:54:28Z</time></trkpt><trkpt lat="44.482310590804445" lon="9.123289458500025"><ele>652.0</ele><time>2026-04-19T15:54:29Z</time></trkpt><trkpt lat="44.482175859739556" lon="9.12321254867919"><ele>660.6666666666667</ele><time>2026-04-19T15:54:30Z</time></trkpt><trkpt lat="44.48203925353065" lon="9.123119879181"><ele>669.3333333333334</ele><time>2026-04-19T15:54:31Z</time></trkpt><trkpt lat="44.4819026460398" lon="9.123025010932784"><ele>678.0</ele><time>2026-04-19T15:54:32.019Z</time></trkpt><trkpt lat="44.481768026573754" lon="9.122931665982263"><ele>678.0</ele><time>2026-04-19T15:54:33.022Z</time></trkpt><trkpt lat="44.48163475214492" lon="9.122839050910217"><ele>678.0</ele><time>2026-04-19T15:54:34.017Z</time></trkpt><trkpt lat="44.4815016867512" lon="9.122745283252739"><ele>678.0</ele><time>2026-04-19T15:54:35.02Z</time></trkpt><trkpt lat="44.47960077049322" lon="9.121778918976172"><ele>733.0</ele><time>2026-04-19T15:54:38.714Z</time></trkpt><trkpt lat="44.4790161155952" lon="9.12144947911873"><ele>741.0</ele><time>2026-04-19T15:54:39.715Z</time></trkpt><trkpt lat="44.47843238521428" lon="9.121118741175268"><ele>741.0</ele><time>2026-04-19T15:54:40.715Z</time></trkpt><trkpt lat="44.4782531" lon="9.121017"><ele>741.0</ele><time>2026-04-19T15:54:41.711Z</time></trkpt><trkpt lat="44.470739937428824" lon="9.116795584567932"><ele>707.0</ele><time>2026-04-19T15:55:44.999Z</time></trkpt><trkpt lat="44.470441578530775" lon="9.116669303469914"><ele>673.0</ele><time>2026-04-19T15:55:45.999Z</time></trkpt><trkpt lat="44.47034324667517" lon="9.116615821212429"><ele>639.0</ele><time>2026-04-19T15:55:46.999Z</time></trkpt><trkpt lat="44.47021246411391" lon="9.116549088638529"><ele>633.5</ele><time>2026-04-19T15:55:47.999Z</time></trkpt><trkpt lat="44.47006529449193" lon="9.116493529821707"><ele>628.0</ele><time>2026-04-19T15:55:48.999Z</time></trkpt><trkpt lat="44.469912194470766" lon="9.116455992502084"><ele>622.5</ele><time>2026-04-19T15:55:49.999Z</time></trkpt><trkpt lat="44.46978520667521" lon="9.116408261898199"><ele>617.0</ele><time>2026-04-19T15:55:50.999Z</time></trkpt><trkpt lat="44.46964923391222" lon="9.116360059268025"><ele>616.75</ele><time>2026-04-19T15:55:51.999Z</time></trkpt><trkpt lat="44.46951875149073" lon="9.116291648590908"><ele>616.5</ele><time>2026-04-19T15:55:52.999Z</time></trkpt><trkpt lat="44.469386690318814" lon="9.116192019857385"><ele>616.25</ele><time>2026-04-19T15:55:53.999Z</time></trkpt><trkpt lat="44.46925768164602" lon="9.116106540620489"><ele>616.0</ele><time>2026-04-19T15:55:54.999Z</time></trkpt><trkpt lat="44.469137598652175" lon="9.116037684757124"><ele>616.0</ele><time>2026-04-19T15:55:55.999Z</time></trkpt><trkpt lat="44.469025054639395" lon="9.11597498303715"><ele>616.0</ele><time>2026-04-19T15:55:56.999Z</time></trkpt><trkpt lat="44.46891891679537" lon="9.115924512988375"><ele>616.0</ele><time>2026-04-19T15:55:57.999Z</time></trkpt><trkpt lat="44.46881176606866" lon="9.115882574235567"><ele>616.0</ele><time>2026-04-19T15:55:58.999Z</time></trkpt><trkpt lat="44.468702621798734" lon="9.115838870890007"><ele>616.0</ele><time>2026-04-19T15:55:59.999Z</time></trkpt><trkpt lat="44.46859421668755" lon="9.115793113489602"><ele>616.0</ele><time>2026-04-19T15:56:00.999Z</time></trkpt><trkpt lat="44.46848056118994" lon="9.115744478022497"><ele>616.0</ele><time>2026-04-19T15:56:01.999Z</time></trkpt><trkpt lat="44.46835098018171" lon="9.115698671889792"><ele>616.0</ele><time>2026-04-19T15:56:02.999Z</time></trkpt><trkpt lat="44.46821675643187" lon="9.115643772131833"><ele>617.5</ele><time>2026-04-19T15:56:03.999Z</time></trkpt><trkpt lat="44.46809652881771" lon="9.115603088243319"><ele>619.0</ele><time>2026-04-19T15:56:04.999Z</time></trkpt><trkpt lat="44.467996817413564" lon="9.115502073201327"><ele>620.5</ele><time>2026-04-19T15:56:05.999Z</time></trkpt><trkpt lat="44.46791129134524" lon="9.11537239679362"><ele>622.0</ele><time>2026-04-19T15:56:06.999Z</time></trkpt><trkpt lat="44.46784947079621" lon="9.115199258345907"><ele>622.0</ele><time>2026-04-19T15:56:07.999Z</time></trkpt><trkpt lat="44.467842009944896" lon="9.115003191507682"><ele>622.0</ele><time>2026-04-19T15:56:08.999Z</time></trkpt><trkpt lat="44.46782005870916" lon="9.11482813983372"><ele>622.0</ele><time>2026-04-19T15:56:09.999Z</time></trkpt><trkpt lat="44.467793993646126" lon="9.114664482530364"><ele>622.0</ele><time>2026-04-19T15:56:10.999Z</time></trkpt><trkpt lat="44.46772531609047" lon="9.11450041209963"><ele>614.0</ele><time>2026-04-19T15:56:11.999Z</time></trkpt><trkpt lat="44.467633507293016" lon="9.114332235274832"><ele>606.0</ele><time>2026-04-19T15:56:12.999Z</time></trkpt><trkpt lat="44.46754272174033" lon="9.114149047574575"><ele>598.0</ele><time>2026-04-19T15:56:14Z</time></trkpt><trkpt lat="44.46744203990187" lon="9.113950996605066"><ele>594.0</ele><time>2026-04-19T15:56:15Z</time></trkpt><trkpt lat="44.46733868673716" lon="9.113737020912987"><ele>590.0</ele><time>2026-04-19T15:56:16Z</time></trkpt><trkpt lat="44.467243401495494" lon="9.113528906234851"><ele>586.0</ele><time>2026-04-19T15:56:17Z</time></trkpt><trkpt lat="44.467151266684276" lon="9.11334645627717"><ele>589.6666666666667</ele><time>2026-04-19T15:56:18Z</time></trkpt><trkpt lat="44.46706086657228" lon="9.113164305500888"><ele>593.3333333333334</ele><time>2026-04-19T15:56:19Z</time></trkpt><trkpt lat="44.466971786151646" lon="9.112977432539157"><ele>597.0</ele><time>2026-04-19T15:56:20Z</time></trkpt><trkpt lat="44.46688438050909" lon="9.112799227671836"><ele>597.0</ele><time>2026-04-19T15:56:21Z</time></trkpt><trkpt lat="44.46679558157644" lon="9.11261298085713"><ele>597.0</ele><time>2026-04-19T15:56:22Z</time></trkpt><trkpt lat="44.46670327955503" lon="9.112425323463686"><ele>597.0</ele><time>2026-04-19T15:56:23Z</time></trkpt><trkpt lat="44.46661967325165" lon="9.112231927720627"><ele>593.6666666666666</ele><time>2026-04-19T15:56:24Z</time></trkpt><trkpt lat="44.466542406265646" lon="9.112050520022578"><ele>590.3333333333333</ele><time>2026-04-19T15:56:25Z</time></trkpt><trkpt lat="44.46649145646812" lon="9.111841070352362"><ele>587.0</ele><time>2026-04-19T15:56:26Z</time></trkpt><trkpt lat="44.466438289751125" lon="9.111630737687198"><ele>583.6666666666666</ele><time>2026-04-19T15:56:27Z</time></trkpt><trkpt lat="44.46638626946776" lon="9.111421143172644"><ele>580.3333333333334</ele><time>2026-04-19T15:56:28Z</time></trkpt><trkpt lat="44.46633614707718" lon="9.111199891511236"><ele>577.0</ele><time>2026-04-19T15:56:29Z</time></trkpt><trkpt lat="44.46627459639347" lon="9.110989344890074"><ele>582.25</ele><time>2026-04-19T15:56:30Z</time></trkpt><trkpt lat="44.466222461017104" lon="9.110784824189587"><ele>587.5</ele><time>2026-04-19T15:56:31Z</time></trkpt><trkpt lat="44.46617363873192" lon="9.110590704992395"><ele>592.75</ele><time>2026-04-19T15:56:32Z</time></trkpt><trkpt lat="44.4661257156828" lon="9.110406659680088"><ele>598.0</ele><time>2026-04-19T15:56:33Z</time></trkpt><trkpt lat="44.46607799414584" lon="9.110236691625534"><ele>598.0</ele><time>2026-04-19T15:56:34Z</time></trkpt><trkpt lat="44.46603670360513" lon="9.110064525085233"><ele>598.0</ele><time>2026-04-19T15:56:35Z</time></trkpt><trkpt lat="44.46600438907826" lon="9.109911519997468"><ele>598.0</ele><time>2026-04-19T15:56:36Z</time></trkpt><trkpt lat="44.46599342412503" lon="9.109758890610339"><ele>598.0</ele><time>2026-04-19T15:56:37Z</time></trkpt><trkpt lat="44.46600378970299" lon="9.109608999749646"><ele>597.75</ele><time>2026-04-19T15:56:38Z</time></trkpt><trkpt lat="44.46601792345808" lon="9.109457970859161"><ele>597.5</ele><time>2026-04-19T15:56:39Z</time></trkpt><trkpt lat="44.46604311188741" lon="9.109301012420293"><ele>597.25</ele><time>2026-04-19T15:56:40Z</time></trkpt><trkpt lat="44.46609049811344" lon="9.109137883032083"><ele>597.0</ele><time>2026-04-19T15:56:41Z</time></trkpt><trkpt lat="44.46615436550935" lon="9.108992653895577"><ele>599.0</ele><time>2026-04-19T15:56:42Z</time></trkpt><trkpt lat="44.46622871835692" lon="9.10883966519194"><ele>601.0</ele><time>2026-04-19T15:56:43Z</time></trkpt><trkpt lat="44.46630702046064" lon="9.108677929400196"><ele>603.0</ele><time>2026-04-19T15:56:44Z</time></trkpt><trkpt lat="44.46637136322753" lon="9.10852771932074"><ele>605.0</ele><time>2026-04-19T15:56:45Z</time></trkpt><trkpt lat="44.46642675191085" lon="9.108376176914597"><ele>595.5</ele><time>2026-04-19T15:56:46Z</time></trkpt><trkpt lat="44.46646355775508" lon="9.108212399402822"><ele>586.0</ele><time>2026-04-19T15:56:47Z</time></trkpt><trkpt lat="44.46648233268107" lon="9.10802025819873"><ele>576.5</ele><time>2026-04-19T15:56:48Z</time></trkpt><trkpt lat="44.46649050159434" lon="9.10782535218403"><ele>567.0</ele><time>2026-04-19T15:56:49Z</time></trkpt><trkpt lat="44.46650038958431" lon="9.107662342513018"><ele>567.0</ele><time>2026-04-19T15:56:50Z</time></trkpt><trkpt lat="44.46650775328496" lon="9.107506980119235"><ele>567.0</ele><time>2026-04-19T15:56:51Z</time></trkpt><trkpt lat="44.46648272941902" lon="9.107359106267802"><ele>567.0</ele><time>2026-04-19T15:56:52Z</time></trkpt><trkpt lat="44.46642271506874" lon="9.107226079136744"><ele>567.0</ele><time>2026-04-19T15:56:53Z</time></trkpt><trkpt lat="44.46633214441099" lon="9.107108174164349"><ele>567.75</ele><time>2026-04-19T15:56:54Z</time></trkpt><trkpt lat="44.46621778429319" lon="9.107018075898203"><ele>568.5</ele><time>2026-04-19T15:56:55Z</time></trkpt><trkpt lat="44.466077059491944" lon="9.106959253701353"><ele>569.25</ele><time>2026-04-19T15:56:56Z</time></trkpt><trkpt lat="44.465926356699114" lon="9.106916808870793"><ele>570.0</ele><time>2026-04-19T15:56:57Z</time></trkpt><trkpt lat="44.465797327264745" lon="9.106869044486379"><ele>570.0</ele><time>2026-04-19T15:56:58Z</time></trkpt><trkpt lat="44.465684459485864" lon="9.10682188752691"><ele>570.0</ele><time>2026-04-19T15:56:59Z</time></trkpt><trkpt lat="44.46559498474336" lon="9.106768246700746"><ele>570.0</ele><time>2026-04-19T15:57:00Z</time></trkpt><trkpt lat="44.46549389267887" lon="9.106695700924304"><ele>570.0</ele><time>2026-04-19T15:57:01Z</time></trkpt><trkpt lat="44.4654042411807" lon="9.106596849315336"><ele>570.0</ele><time>2026-04-19T15:57:02Z</time></trkpt><trkpt lat="44.465335445424095" lon="9.106462737516303"><ele>577.5</ele><time>2026-04-19T15:57:03Z</time></trkpt><trkpt lat="44.46528847304807" lon="9.106307599783467"><ele>585.0</ele><time>2026-04-19T15:57:04Z</time></trkpt><trkpt lat="44.46526181432848" lon="9.106137162099293"><ele>592.5</ele><time>2026-04-19T15:57:05Z</time></trkpt><trkpt lat="44.46527230172606" lon="9.105953306483066"><ele>600.0</ele><time>2026-04-19T15:57:06Z</time></trkpt><trkpt lat="44.465304909730676" lon="9.105775378717249"><ele>602.75</ele><time>2026-04-19T15:57:07Z</time></trkpt><trkpt lat="44.46538474136173" lon="9.10560886140055"><ele>605.5</ele><time>2026-04-19T15:57:08Z</time></trkpt><trkpt lat="44.46547505718865" lon="9.105446047410727"><ele>608.25</ele><time>2026-04-19T15:57:09Z</time></trkpt><trkpt lat="44.46556373067846" lon="9.105298333886603"><ele>611.0</ele><time>2026-04-19T15:57:10Z</time></trkpt><trkpt lat="44.46564159473164" lon="9.105162536844746"><ele>601.0</ele><time>2026-04-19T15:57:11Z</time></trkpt><trkpt lat="44.46571041044639" lon="9.105027321638422"><ele>591.0</ele><time>2026-04-19T15:57:12Z</time></trkpt><trkpt lat="44.46578436793772" lon="9.10489333495411"><ele>581.0</ele><time>2026-04-19T15:57:13Z</time></trkpt><trkpt lat="44.46584700606666" lon="9.104767240745714"><ele>571.0</ele><time>2026-04-19T15:57:14Z</time></trkpt><trkpt lat="44.4658943131531" lon="9.104628245778096"><ele>571.0</ele><time>2026-04-19T15:57:15Z</time></trkpt><trkpt lat="44.465935521219876" lon="9.104469287791462"><ele>571.0</ele><time>2026-04-19T15:57:16Z</time></trkpt><trkpt lat="44.46595744948416" lon="9.104300162710473"><ele>571.0</ele><time>2026-04-19T15:57:17Z</time></trkpt><trkpt lat="44.465962214756274" lon="9.104129011732633"><ele>571.0</ele><time>2026-04-19T15:57:18Z</time></trkpt><trkpt lat="44.465950308477886" lon="9.103972534626964"><ele>567.5</ele><time>2026-04-19T15:57:19Z</time></trkpt><trkpt lat="44.46591738363203" lon="9.103819405808764"><ele>564.0</ele><time>2026-04-19T15:57:20Z</time></trkpt><trkpt lat="44.46587237185181" lon="9.103676750449797"><ele>560.5</ele><time>2026-04-19T15:57:21Z</time></trkpt><trkpt lat="44.465809964510555" lon="9.103543851438413"><ele>557.0</ele><time>2026-04-19T15:57:22Z</time></trkpt><trkpt lat="44.46572019930787" lon="9.103414403518595"><ele>557.0</ele><time>2026-04-19T15:57:23Z</time></trkpt><trkpt lat="44.465613136497666" lon="9.103283457268853"><ele>557.0</ele><time>2026-04-19T15:57:24Z</time></trkpt><trkpt lat="44.465487232707616" lon="9.103178567443036"><ele>557.0</ele><time>2026-04-19T15:57:24.999Z</time></trkpt><trkpt lat="44.46537570148105" lon="9.103093786447083"><ele>557.0</ele><time>2026-04-19T15:57:25.999Z</time></trkpt><trkpt lat="44.46526859041798" lon="9.103013380483677"><ele>557.75</ele><time>2026-04-19T15:57:26.999Z</time></trkpt><trkpt lat="44.46514045019634" lon="9.102930922765749"><ele>558.5</ele><time>2026-04-19T15:57:27.999Z</time></trkpt><trkpt lat="44.46502156847814" lon="9.102821580384427"><ele>559.25</ele><time>2026-04-19T15:57:28.999Z</time></trkpt><trkpt lat="44.46491007269127" lon="9.102729609470389"><ele>560.0</ele><time>2026-04-19T15:57:29.999Z</time></trkpt><trkpt lat="44.46479645733868" lon="9.102645599956668"><ele>560.0</ele><time>2026-04-19T15:57:30.999Z</time></trkpt><trkpt lat="44.464688134054406" lon="9.102557747945166"><ele>560.0</ele><time>2026-04-19T15:57:31.999Z</time></trkpt><trkpt lat="44.46457700743571" lon="9.102468963748267"><ele>560.0</ele><time>2026-04-19T15:57:32.999Z</time></trkpt><trkpt lat="44.464465427413835" lon="9.10238770145603"><ele>560.0</ele><time>2026-04-19T15:57:33.999Z</time></trkpt><trkpt lat="44.46435088377809" lon="9.102302894607693"><ele>557.0</ele><time>2026-04-19T15:57:34.999Z</time></trkpt><trkpt lat="44.464235117148725" lon="9.102219426879715"><ele>554.0</ele><time>2026-04-19T15:57:35.999Z</time></trkpt><trkpt lat="44.46411939641554" lon="9.102135208379043"><ele>551.0</ele><time>2026-04-19T15:57:36.999Z</time></trkpt><trkpt lat="44.464005408494785" lon="9.102049697754367"><ele>548.0</ele><time>2026-04-19T15:57:37.999Z</time></trkpt><trkpt lat="44.463891009252016" lon="9.101966063577397"><ele>550.5</ele><time>2026-04-19T15:57:38.999Z</time></trkpt><trkpt lat="44.4637784174785" lon="9.10188343070782"><ele>553.0</ele><time>2026-04-19T15:57:39.999Z</time></trkpt><trkpt lat="44.463662729153" lon="9.101797255368687"><ele>555.5</ele><time>2026-04-19T15:57:40.999Z</time></trkpt><trkpt lat="44.463544877624926" lon="9.101709880219554"><ele>558.0</ele><time>2026-04-19T15:57:41.999Z</time></trkpt><trkpt lat="44.4634271821487" lon="9.101621976106692"><ele>557.5</ele><time>2026-04-19T15:57:42.999Z</time></trkpt><trkpt lat="44.463309353379266" lon="9.101537657289924"><ele>557.0</ele><time>2026-04-19T15:57:43.999Z</time></trkpt><trkpt lat="44.46318993144967" lon="9.101450486375073"><ele>556.5</ele><time>2026-04-19T15:57:44.999Z</time></trkpt><trkpt lat="44.46307078270707" lon="9.101362275227805"><ele>556.0</ele><time>2026-04-19T15:57:45.999Z</time></trkpt><trkpt lat="44.46294590905031" lon="9.101271493221095"><ele>556.0</ele><time>2026-04-19T15:57:46.999Z</time></trkpt><trkpt lat="44.46281826715493" lon="9.101176941563853"><ele>556.0</ele><time>2026-04-19T15:57:47.999Z</time></trkpt><trkpt lat="44.462696584571546" lon="9.101088803916978"><ele>556.0</ele><time>2026-04-19T15:57:48.999Z</time></trkpt><trkpt lat="44.4625627369238" lon="9.100997292876931"><ele>556.0</ele><time>2026-04-19T15:57:49.999Z</time></trkpt><trkpt lat="44.462431082227255" lon="9.100901567678898"><ele>556.0</ele><time>2026-04-19T15:57:50.999Z</time></trkpt><trkpt lat="44.46230123440621" lon="9.100806415010629"><ele>556.0</ele><time>2026-04-19T15:57:51.999Z</time></trkpt><trkpt lat="44.46217924833702" lon="9.100718296151516"><ele>556.0</ele><time>2026-04-19T15:57:52.999Z</time></trkpt><trkpt lat="44.462079629889445" lon="9.100629644780483"><ele>556.0</ele><time>2026-04-19T15:57:53.999Z</time></trkpt><trkpt lat="44.46198165653733" lon="9.100534551965874"><ele>556.75</ele><time>2026-04-19T15:57:54.999Z</time></trkpt><trkpt lat="44.461906351867256" lon="9.100420383565465"><ele>557.5</ele><time>2026-04-19T15:57:55.999Z</time></trkpt><trkpt lat="44.461846261496795" lon="9.100281458228157"><ele>558.25</ele><time>2026-04-19T15:57:56.999Z</time></trkpt><trkpt lat="44.461802894244954" lon="9.100134959719178"><ele>559.0</ele><time>2026-04-19T15:57:57.999Z</time></trkpt><trkpt lat="44.4617832159803" lon="9.099969313993341"><ele>555.0</ele><time>2026-04-19T15:57:58.999Z</time></trkpt><trkpt lat="44.4617824911765" lon="9.099783259992384"><ele>551.0</ele><time>2026-04-19T15:57:59.999Z</time></trkpt><trkpt lat="44.461777027562576" lon="9.099613796125636"><ele>547.0</ele><time>2026-04-19T15:58:00.999Z</time></trkpt><trkpt lat="44.46177560848697" lon="9.099456310838816"><ele>543.0</ele><time>2026-04-19T15:58:01.999Z</time></trkpt><trkpt lat="44.461743697506336" lon="9.099304354546478"><ele>543.0</ele><time>2026-04-19T15:58:02.999Z</time></trkpt><trkpt lat="44.46167948719139" lon="9.099160221576232"><ele>543.0</ele><time>2026-04-19T15:58:03.999Z</time></trkpt><trkpt lat="44.46159408958995" lon="9.09901315185155"><ele>543.0</ele><time>2026-04-19T15:58:04.999Z</time></trkpt><trkpt lat="44.461462905000154" lon="9.098909291110868"><ele>543.0</ele><time>2026-04-19T15:58:05.999Z</time></trkpt><trkpt lat="44.461331478178934" lon="9.098836774446617"><ele>544.5</ele><time>2026-04-19T15:58:06.999Z</time></trkpt><trkpt lat="44.46121720973026" lon="9.098763397775942"><ele>546.0</ele><time>2026-04-19T15:58:07.999Z</time></trkpt><trkpt lat="44.461102131921585" lon="9.098687798078906"><ele>547.5</ele><time>2026-04-19T15:58:08.999Z</time></trkpt><trkpt lat="44.46101426164821" lon="9.098552933282088"><ele>549.0</ele><time>2026-04-19T15:58:09.999Z</time></trkpt><trkpt lat="44.46093907720842" lon="9.09839153619392"><ele>546.25</ele><time>2026-04-19T15:58:10.999Z</time></trkpt><trkpt lat="44.460902808946784" lon="9.098194311832453"><ele>543.5</ele><time>2026-04-19T15:58:11.999Z</time></trkpt><trkpt lat="44.46088120338874" lon="9.09801180199576"><ele>540.75</ele><time>2026-04-19T15:58:12.999Z</time></trkpt><trkpt lat="44.460889940746924" lon="9.097834935308772"><ele>538.0</ele><time>2026-04-19T15:58:13.999Z</time></trkpt><trkpt lat="44.46092138435257" lon="9.097642297090024"><ele>538.0</ele><time>2026-04-19T15:58:14.999Z</time></trkpt><trkpt lat="44.46096334709557" lon="9.097441508091016"><ele>538.0</ele><time>2026-04-19T15:58:15.999Z</time></trkpt><trkpt lat="44.460997402275765" lon="9.09725568803588"><ele>538.0</ele><time>2026-04-19T15:58:16.999Z</time></trkpt><trkpt lat="44.46102441448533" lon="9.097081736828644"><ele>538.0</ele><time>2026-04-19T15:58:17.999Z</time></trkpt><trkpt lat="44.461051176992065" lon="9.096924279805881"><ele>538.5</ele><time>2026-04-19T15:58:18.999Z</time></trkpt><trkpt lat="44.46107686483974" lon="9.096771826977612"><ele>539.0</ele><time>2026-04-19T15:58:20Z</time></trkpt><trkpt lat="44.46109115765294" lon="9.0966144666017"><ele>539.5</ele><time>2026-04-19T15:58:21Z</time></trkpt><trkpt lat="44.46109413751606" lon="9.096433904186858"><ele>540.0</ele><time>2026-04-19T15:58:22Z</time></trkpt><trkpt lat="44.461081984895095" lon="9.096235694569188"><ele>535.75</ele><time>2026-04-19T15:58:23Z</time></trkpt><trkpt lat="44.461041613461035" lon="9.096064308666957"><ele>531.5</ele><time>2026-04-19T15:58:24Z</time></trkpt><trkpt lat="44.46098047454064" lon="9.09590051403391"><ele>527.25</ele><time>2026-04-19T15:58:25Z</time></trkpt><trkpt lat="44.46089833326655" lon="9.09572427191645"><ele>523.0</ele><time>2026-04-19T15:58:26Z</time></trkpt><trkpt lat="44.460792355207914" lon="9.095561941201227"><ele>516.3333333333334</ele><time>2026-04-19T15:58:27Z</time></trkpt><trkpt lat="44.46068889159342" lon="9.095416009104195"><ele>509.66666666666663</ele><time>2026-04-19T15:58:28Z</time></trkpt><trkpt lat="44.46058454776698" lon="9.095250056054303"><ele>503.0</ele><time>2026-04-19T15:58:29Z</time></trkpt><trkpt lat="44.460484623530334" lon="9.095095220083635"><ele>502.75</ele><time>2026-04-19T15:58:30Z</time></trkpt><trkpt lat="44.46039333384064" lon="9.0949441545801"><ele>502.5</ele><time>2026-04-19T15:58:31Z</time></trkpt><trkpt lat="44.460305258311" lon="9.094800502563151"><ele>502.25</ele><time>2026-04-19T15:58:32Z</time></trkpt><trkpt lat="44.46022055281207" lon="9.094666890130458"><ele>502.0</ele><time>2026-04-19T15:58:33Z</time></trkpt><trkpt lat="44.46013425414717" lon="9.094540195513382"><ele>502.0</ele><time>2026-04-19T15:58:34Z</time></trkpt><trkpt lat="44.460037735189744" lon="9.094425221805377"><ele>502.0</ele><time>2026-04-19T15:58:35Z</time></trkpt><trkpt lat="44.45992664312766" lon="9.094306261824425"><ele>502.0</ele><time>2026-04-19T15:58:36Z</time></trkpt><trkpt lat="44.45979498668541" lon="9.094240216465154"><ele>502.0</ele><time>2026-04-19T15:58:37Z</time></trkpt><trkpt lat="44.45965930700787" lon="9.09422202204159"><ele>502.5</ele><time>2026-04-19T15:58:38Z</time></trkpt><trkpt lat="44.459518984659226" lon="9.094219400510305"><ele>503.0</ele><time>2026-04-19T15:58:39Z</time></trkpt><trkpt lat="44.45937992400557" lon="9.094199380674054"><ele>503.5</ele><time>2026-04-19T15:58:40Z</time></trkpt><trkpt lat="44.459250578252956" lon="9.094148977570454"><ele>504.0</ele><time>2026-04-19T15:58:41Z</time></trkpt><trkpt lat="44.45913359100253" lon="9.09405961711828"><ele>499.0</ele><time>2026-04-19T15:58:42Z</time></trkpt><trkpt lat="44.45902163033399" lon="9.093962295695976"><ele>494.0</ele><time>2026-04-19T15:58:43Z</time></trkpt><trkpt lat="44.458909966634586" lon="9.09388260819661"><ele>489.0</ele><time>2026-04-19T15:58:44Z</time></trkpt><trkpt lat="44.45881251268434" lon="9.093794221977605"><ele>484.0</ele><time>2026-04-19T15:58:45Z</time></trkpt><trkpt lat="44.4587222517608" lon="9.093708237183451"><ele>491.6</ele><time>2026-04-19T15:58:46Z</time></trkpt><trkpt lat="44.458653619481936" lon="9.093614313523469"><ele>499.2</ele><time>2026-04-19T15:58:47Z</time></trkpt><trkpt lat="44.45860566982811" lon="9.093494485739615"><ele>506.80000000000007</ele><time>2026-04-19T15:58:48Z</time></trkpt><trkpt lat="44.458578877283514" lon="9.093352581714182"><ele>514.4</ele><time>2026-04-19T15:58:49Z</time></trkpt><trkpt lat="44.458587462824454" lon="9.093194934063318"><ele>522.0</ele><time>2026-04-19T15:58:50Z</time></trkpt><trkpt lat="44.45861510981695" lon="9.093062618680325"><ele>522.0</ele><time>2026-04-19T15:58:51Z</time></trkpt><trkpt lat="44.458667815925864" lon="9.092927085969787"><ele>522.0</ele><time>2026-04-19T15:58:52Z</time></trkpt><trkpt lat="44.45874213680512" lon="9.092782875492595"><ele>522.0</ele><time>2026-04-19T15:58:53Z</time></trkpt><trkpt lat="44.458800891163754" lon="9.092658609627891"><ele>522.0</ele><time>2026-04-19T15:58:54Z</time></trkpt><trkpt lat="44.45884100023824" lon="9.092525708839014"><ele>522.0</ele><time>2026-04-19T15:58:55Z</time></trkpt><trkpt lat="44.45889130558704" lon="9.092400767631723"><ele>513.0</ele><time>2026-04-19T15:58:56Z</time></trkpt><trkpt lat="44.45894697528398" lon="9.092255428196136"><ele>504.0</ele><time>2026-04-19T15:58:57Z</time></trkpt><trkpt lat="44.458991331541505" lon="9.092092139278618"><ele>495.0</ele><time>2026-04-19T15:58:58Z</time></trkpt><trkpt lat="44.459016457564694" lon="9.091900887898682"><ele>486.0</ele><time>2026-04-19T15:58:59Z</time></trkpt><trkpt lat="44.45902310509643" lon="9.091709279454717"><ele>482.5</ele><time>2026-04-19T15:59:00Z</time></trkpt><trkpt lat="44.45901271417775" lon="9.091506764985521"><ele>479.0</ele><time>2026-04-19T15:59:01Z</time></trkpt><trkpt lat="44.458989893660345" lon="9.09129950364381"><ele>475.5</ele><time>2026-04-19T15:59:02Z</time></trkpt><trkpt lat="44.45896274738035" lon="9.091094176569758"><ele>472.0</ele><time>2026-04-19T15:59:03Z</time></trkpt><trkpt lat="44.45895494969173" lon="9.090904419204096"><ele>469.6</ele><time>2026-04-19T15:59:04Z</time></trkpt><trkpt lat="44.45891441777787" lon="9.090743493415662"><ele>467.20000000000005</ele><time>2026-04-19T15:59:05Z</time></trkpt><trkpt lat="44.45888404649723" lon="9.090578894497932"><ele>464.8</ele><time>2026-04-19T15:59:06Z</time></trkpt><trkpt lat="44.458807207777795" lon="9.09047744641501"><ele>462.4</ele><time>2026-04-19T15:59:07Z</time></trkpt><trkpt lat="44.458762043112976" lon="9.09036197347167"><ele>460.0</ele><time>2026-04-19T15:59:08Z</time></trkpt><trkpt lat="44.458731406019545" lon="9.090232730235254"><ele>465.6</ele><time>2026-04-19T15:59:09Z</time></trkpt><trkpt lat="44.45870701648174" lon="9.090101413876681"><ele>471.2</ele><time>2026-04-19T15:59:10Z</time></trkpt><trkpt lat="44.458692105855654" lon="9.089982637510248"><ele>476.79999999999995</ele><time>2026-04-19T15:59:11Z</time></trkpt><trkpt lat="44.458693432270856" lon="9.08986057071739"><ele>482.4</ele><time>2026-04-19T15:59:12Z</time></trkpt><trkpt lat="44.458705528374054" lon="9.08973282393751"><ele>488.0</ele><time>2026-04-19T15:59:13Z</time></trkpt><trkpt lat="44.45873249219459" lon="9.089605142896646"><ele>488.0</ele><time>2026-04-19T15:59:14Z</time></trkpt><trkpt lat="44.45876787574263" lon="9.08946546169952"><ele>487.99999999999994</ele><time>2026-04-19T15:59:15Z</time></trkpt><trkpt lat="44.45880067954524" lon="9.089314693703809"><ele>487.99999999999994</ele><time>2026-04-19T15:59:16Z</time></trkpt><trkpt lat="44.458810168825096" lon="9.089171085751925"><ele>488.0</ele><time>2026-04-19T15:59:17Z</time></trkpt><trkpt lat="44.45880106387888" lon="9.089018138388631"><ele>488.0</ele><time>2026-04-19T15:59:18Z</time></trkpt><trkpt lat="44.45876397814844" lon="9.088855750990147"><ele>483.4</ele><time>2026-04-19T15:59:19Z</time></trkpt><trkpt lat="44.45871832544831" lon="9.088722965820862"><ele>478.79999999999995</ele><time>2026-04-19T15:59:20Z</time></trkpt><trkpt lat="44.458663642712075" lon="9.088623313095164"><ele>474.2</ele><time>2026-04-19T15:59:21Z</time></trkpt><trkpt lat="44.45858736749494" lon="9.088525373030686"><ele>469.6</ele><time>2026-04-19T15:59:22Z</time></trkpt><trkpt lat="44.45847860281651" lon="9.08843355237329"><ele>465.0</ele><time>2026-04-19T15:59:23Z</time></trkpt><trkpt lat="44.4583951897761" lon="9.088396197739655"><ele>465.0</ele><time>2026-04-19T15:59:24Z</time></trkpt><trkpt lat="44.45819537646863" lon="9.088289928100114"><ele>465.0</ele><time>2026-04-19T15:59:25Z</time></trkpt><trkpt lat="44.458070751779815" lon="9.088252284748181"><ele>465.0</ele><time>2026-04-19T15:59:26Z</time></trkpt><trkpt lat="44.457958360632844" lon="9.088210810414884"><ele>461.5</ele><time>2026-04-19T15:59:27Z</time></trkpt><trkpt lat="44.45783654528632" lon="9.088160521083193"><ele>458.0</ele><time>2026-04-19T15:59:28Z</time></trkpt><trkpt lat="44.457717401732666" lon="9.088110527728013"><ele>454.5</ele><time>2026-04-19T15:59:29Z</time></trkpt><trkpt lat="44.45760389338453" lon="9.088064410150846"><ele>451.0</ele><time>2026-04-19T15:59:30Z</time></trkpt><trkpt lat="44.457496492972766" lon="9.088020716004227"><ele>451.0</ele><time>2026-04-19T15:59:30.999Z</time></trkpt><trkpt lat="44.45740060324663" lon="9.08798063221593"><ele>451.0</ele><time>2026-04-19T15:59:31.999Z</time></trkpt><trkpt lat="44.45730990676973" lon="9.087942207520681"><ele>451.0</ele><time>2026-04-19T15:59:32.999Z</time></trkpt><trkpt lat="44.457227643321744" lon="9.087888175637515"><ele>451.0</ele><time>2026-04-19T15:59:33.999Z</time></trkpt><trkpt lat="44.457165640213546" lon="9.087791928757353"><ele>451.0</ele><time>2026-04-19T15:59:34.999Z</time></trkpt><trkpt lat="44.45709948877676" lon="9.087703627962943"><ele>449.5</ele><time>2026-04-19T15:59:35.999Z</time></trkpt><trkpt lat="44.45704104655302" lon="9.087597789238215"><ele>448.0</ele><time>2026-04-19T15:59:36.999Z</time></trkpt><trkpt lat="44.456988961481855" lon="9.087462971909874"><ele>446.5</ele><time>2026-04-19T15:59:37.999Z</time></trkpt><trkpt lat="44.456926616928996" lon="9.087306275914383"><ele>445.0</ele><time>2026-04-19T15:59:38.999Z</time></trkpt><trkpt lat="44.45685188320253" lon="9.08716601069831"><ele>445.0</ele><time>2026-04-19T15:59:39.999Z</time></trkpt><trkpt lat="44.456796163105516" lon="9.08703843217722"><ele>445.0</ele><time>2026-04-19T15:59:40.999Z</time></trkpt><trkpt lat="44.456714068655515" lon="9.086941521570377"><ele>445.0</ele><time>2026-04-19T15:59:41.999Z</time></trkpt><trkpt lat="44.45663968064929" lon="9.086844575628279"><ele>445.0</ele><time>2026-04-19T15:59:42.999Z</time></trkpt><trkpt lat="44.45654944428011" lon="9.086753802143301"><ele>445.0</ele><time>2026-04-19T15:59:43.999Z</time></trkpt><trkpt lat="44.456438086103645" lon="9.086685947583693"><ele>445.0</ele><time>2026-04-19T15:59:44.999Z</time></trkpt><trkpt lat="44.456314067203394" lon="9.086635690700419"><ele>445.0</ele><time>2026-04-19T15:59:45.999Z</time></trkpt><trkpt lat="44.45615213533567" lon="9.086628286573648"><ele>445.0</ele><time>2026-04-19T15:59:46.999Z</time></trkpt><trkpt lat="44.456003434764206" lon="9.086604825537842"><ele>445.0</ele><time>2026-04-19T15:59:47.999Z</time></trkpt><trkpt lat="44.45588909756155" lon="9.086596812336236"><ele>447.25</ele><time>2026-04-19T15:59:48.999Z</time></trkpt><trkpt lat="44.45574554277527" lon="9.086601147361902"><ele>449.5</ele><time>2026-04-19T15:59:49.999Z</time></trkpt><trkpt lat="44.45561195717475" lon="9.086588821386897"><ele>451.75</ele><time>2026-04-19T15:59:50.999Z</time></trkpt><trkpt lat="44.455506888455155" lon="9.086571452837022"><ele>454.0</ele><time>2026-04-19T15:59:51.999Z</time></trkpt><trkpt lat="44.45540831899466" lon="9.086562290708354"><ele>446.2</ele><time>2026-04-19T15:59:52.999Z</time></trkpt><trkpt lat="44.455311862064384" lon="9.086552318478113"><ele>438.4</ele><time>2026-04-19T15:59:53.999Z</time></trkpt><trkpt lat="44.45520304114346" lon="9.086542235121561"><ele>430.6</ele><time>2026-04-19T15:59:54.999Z</time></trkpt><trkpt lat="44.455088818869584" lon="9.08654316268697"><ele>422.8</ele><time>2026-04-19T15:59:55.999Z</time></trkpt><trkpt lat="44.45498532159823" lon="9.086538999499512"><ele>415.0</ele><time>2026-04-19T15:59:56.999Z</time></trkpt><trkpt lat="44.454884115183766" lon="9.08652819096485"><ele>415.0</ele><time>2026-04-19T15:59:57.999Z</time></trkpt><trkpt lat="44.454783548922975" lon="9.086523628861046"><ele>415.0</ele><time>2026-04-19T15:59:58.999Z</time></trkpt><trkpt lat="44.454680514229665" lon="9.086515769726933"><ele>415.0</ele><time>2026-04-19T15:59:59.999Z</time></trkpt><trkpt lat="44.454583393111264" lon="9.086512075388935"><ele>415.0</ele><time>2026-04-19T16:00:00.999Z</time></trkpt><trkpt lat="44.45448852822076" lon="9.086504900277378"><ele>415.0</ele><time>2026-04-19T16:00:01.999Z</time></trkpt><trkpt lat="44.454395310746364" lon="9.08649598856358"><ele>414.33333333333337</ele><time>2026-04-19T16:00:02.999Z</time></trkpt><trkpt lat="44.45430921395899" lon="9.086507726078207"><ele>413.6666666666667</ele><time>2026-04-19T16:00:03.999Z</time></trkpt><trkpt lat="44.45422364378128" lon="9.086541942365256"><ele>413.0</ele><time>2026-04-19T16:00:04.999Z</time></trkpt><trkpt lat="44.454142369874845" lon="9.086593751268772"><ele>412.33333333333337</ele><time>2026-04-19T16:00:05.999Z</time></trkpt><trkpt lat="44.45406968221429" lon="9.086665847570654"><ele>411.6666666666667</ele><time>2026-04-19T16:00:06.999Z</time></trkpt><trkpt lat="44.45400471583235" lon="9.086744400940589"><ele>411.0</ele><time>2026-04-19T16:00:07.999Z</time></trkpt><trkpt lat="44.453950826979764" lon="9.086812349894794"><ele>414.6666666666667</ele><time>2026-04-19T16:00:08.999Z</time></trkpt><trkpt lat="44.45389865595819" lon="9.086870687881973"><ele>418.33333333333337</ele><time>2026-04-19T16:00:09.999Z</time></trkpt><trkpt lat="44.453829604267604" lon="9.086921598073422"><ele>422.0</ele><time>2026-04-19T16:00:10.999Z</time></trkpt><trkpt lat="44.453756610078" lon="9.086948324080259"><ele>425.6666666666667</ele><time>2026-04-19T16:00:11.999Z</time></trkpt><trkpt lat="44.45367204901592" lon="9.086963725255407"><ele>429.33333333333337</ele><time>2026-04-19T16:00:12.999Z</time></trkpt><trkpt lat="44.45358117112552" lon="9.086948627670113"><ele>433.0</ele><time>2026-04-19T16:00:13.999Z</time></trkpt><trkpt lat="44.453491685934594" lon="9.086914477585875"><ele>433.0</ele><time>2026-04-19T16:00:14.999Z</time></trkpt><trkpt lat="44.453413279349036" lon="9.086847850935364"><ele>432.99999999999994</ele><time>2026-04-19T16:00:15.999Z</time></trkpt><trkpt lat="44.453323333471964" lon="9.086785188701233"><ele>432.99999999999994</ele><time>2026-04-19T16:00:16.999Z</time></trkpt><trkpt lat="44.453240180777215" lon="9.08669285606192"><ele>433.0</ele><time>2026-04-19T16:00:17.999Z</time></trkpt><trkpt lat="44.45316866951901" lon="9.086631579554398"><ele>433.0</ele><time>2026-04-19T16:00:18.999Z</time></trkpt><trkpt lat="44.45310490830538" lon="9.086574992718553"><ele>431.6666666666667</ele><time>2026-04-19T16:00:19.999Z</time></trkpt><trkpt lat="44.453034194803564" lon="9.086539718076619"><ele>430.33333333333337</ele><time>2026-04-19T16:00:20.999Z</time></trkpt><trkpt lat="44.45296035963071" lon="9.086517876009333"><ele>429.0</ele><time>2026-04-19T16:00:21.999Z</time></trkpt><trkpt lat="44.45288803926906" lon="9.086522115823595"><ele>427.66666666666663</ele><time>2026-04-19T16:00:22.999Z</time></trkpt><trkpt lat="44.452807391939395" lon="9.08654600398008"><ele>426.3333333333333</ele><time>2026-04-19T16:00:23.999Z</time></trkpt><trkpt lat="44.45272293501896" lon="9.08658406719514"><ele>425.0</ele><time>2026-04-19T16:00:24.999Z</time></trkpt><trkpt lat="44.45264858612775" lon="9.086625830652423"><ele>424.99999999999994</ele><time>2026-04-19T16:00:26Z</time></trkpt><trkpt lat="44.45258596733111" lon="9.086680184570067"><ele>425.0</ele><time>2026-04-19T16:00:27Z</time></trkpt><trkpt lat="44.45251943184948" lon="9.08672880863578"><ele>425.0</ele><time>2026-04-19T16:00:28Z</time></trkpt><trkpt lat="44.45244911471676" lon="9.086785037440471"><ele>425.0</ele><time>2026-04-19T16:00:29Z</time></trkpt><trkpt lat="44.45236019489346" lon="9.086841675967284"><ele>424.99999999999994</ele><time>2026-04-19T16:00:30Z</time></trkpt><trkpt lat="44.452272783728226" lon="9.086865201375131"><ele>425.0</ele><time>2026-04-19T16:00:31Z</time></trkpt><trkpt lat="44.452186631711285" lon="9.086858120796121"><ele>423.8</ele><time>2026-04-19T16:00:32Z</time></trkpt><trkpt lat="44.45209402528177" lon="9.086826088142043"><ele>422.6</ele><time>2026-04-19T16:00:33Z</time></trkpt><trkpt lat="44.45200536238763" lon="9.086766317426013"><ele>421.4</ele><time>2026-04-19T16:00:34Z</time></trkpt><trkpt lat="44.45192994475638" lon="9.086696093021352"><ele>420.2</ele><time>2026-04-19T16:00:35Z</time></trkpt><trkpt lat="44.45185703219223" lon="9.086634456867092"><ele>419.0</ele><time>2026-04-19T16:00:36Z</time></trkpt><trkpt lat="44.45178563955568" lon="9.086574769658068"><ele>418.99999999999994</ele><time>2026-04-19T16:00:37Z</time></trkpt><trkpt lat="44.45171740673643" lon="9.0865334434977"><ele>419.0</ele><time>2026-04-19T16:00:38Z</time></trkpt><trkpt lat="44.45164406639894" lon="9.086506761867557"><ele>419.0</ele><time>2026-04-19T16:00:39Z</time></trkpt><trkpt lat="44.45157078041213" lon="9.086508717741816"><ele>419.0</ele><time>2026-04-19T16:00:40Z</time></trkpt><trkpt lat="44.45150757709696" lon="9.08653038476393"><ele>419.0</ele><time>2026-04-19T16:00:41Z</time></trkpt><trkpt lat="44.45145337305149" lon="9.086576246190585"><ele>418.99999999999994</ele><time>2026-04-19T16:00:42Z</time></trkpt><trkpt lat="44.451393673362745" lon="9.086625356948595"><ele>419.0</ele><time>2026-04-19T16:00:43Z</time></trkpt><trkpt lat="44.451314144997205" lon="9.0866526583967"><ele>417.8333333333333</ele><time>2026-04-19T16:00:44Z</time></trkpt><trkpt lat="44.45125555043946" lon="9.08668805054679"><ele>416.66666666666663</ele><time>2026-04-19T16:00:45Z</time></trkpt><trkpt lat="44.45117387002418" lon="9.086714220598719"><ele>415.5</ele><time>2026-04-19T16:00:47Z</time></trkpt><trkpt lat="44.45107722128468" lon="9.086741639605085"><ele>414.33333333333337</ele><time>2026-04-19T16:00:49Z</time></trkpt><trkpt lat="44.4509988938111" lon="9.08675232442201"><ele>413.1666666666667</ele><time>2026-04-19T16:00:51Z</time></trkpt><trkpt lat="44.450935552642186" lon="9.086762990734618"><ele>412.0</ele><time>2026-04-19T16:00:54Z</time></trkpt><trkpt lat="44.45084452008144" lon="9.086768715822293"><ele>412.00000000000006</ele><time>2026-04-19T16:00:56Z</time></trkpt><trkpt lat="44.45074460981991" lon="9.086739365494253"><ele>412.0</ele><time>2026-04-19T16:00:58Z</time></trkpt><trkpt lat="44.450647815597385" lon="9.0866898187639"><ele>412.0</ele><time>2026-04-19T16:01:00Z</time></trkpt><trkpt lat="44.45057955039313" lon="9.086680657478077"><ele>412.0</ele><time>2026-04-19T16:01:01Z</time></trkpt><trkpt lat="44.450513429126495" lon="9.086699672443833"><ele>412.00000000000006</ele><time>2026-04-19T16:01:02Z</time></trkpt><trkpt lat="44.45043539004004" lon="9.086726294318764"><ele>412.0</ele><time>2026-04-19T16:01:03Z</time></trkpt><trkpt lat="44.45036474892871" lon="9.086793070132586"><ele>410.33333333333337</ele><time>2026-04-19T16:01:04Z</time></trkpt><trkpt lat="44.450302101649704" lon="9.08685976244104"><ele>408.6666666666667</ele><time>2026-04-19T16:01:05Z</time></trkpt><trkpt lat="44.45023702011186" lon="9.08691275522874"><ele>407.0</ele><time>2026-04-19T16:01:06Z</time></trkpt><trkpt lat="44.45017162956921" lon="9.086938236559654"><ele>405.33333333333337</ele><time>2026-04-19T16:01:07Z</time></trkpt><trkpt lat="44.45007327885184" lon="9.08693613711559"><ele>403.6666666666667</ele><time>2026-04-19T16:01:08Z</time></trkpt><trkpt lat="44.44997640989186" lon="9.086929706466103"><ele>402.0</ele><time>2026-04-19T16:01:09Z</time></trkpt><trkpt lat="44.44987417473483" lon="9.086932644803012"><ele>402.0</ele><time>2026-04-19T16:01:10Z</time></trkpt><trkpt lat="44.449761677513344" lon="9.08693425088699"><ele>402.0</ele><time>2026-04-19T16:01:11Z</time></trkpt><trkpt lat="44.44965107731391" lon="9.086935912193843"><ele>402.0</ele><time>2026-04-19T16:01:12Z</time></trkpt><trkpt lat="44.44955285092818" lon="9.086937748412339"><ele>402.0</ele><time>2026-04-19T16:01:13Z</time></trkpt><trkpt lat="44.44945499887231" lon="9.086926576257085"><ele>402.0</ele><time>2026-04-19T16:01:14Z</time></trkpt><trkpt lat="44.449358740304646" lon="9.086894808742636"><ele>401.40000000000003</ele><time>2026-04-19T16:01:15Z</time></trkpt><trkpt lat="44.44926651191616" lon="9.086851129342344"><ele>400.8</ele><time>2026-04-19T16:01:16Z</time></trkpt><trkpt lat="44.449170678179236" lon="9.08679808266754"><ele>400.2</ele><time>2026-04-19T16:01:17Z</time></trkpt><trkpt lat="44.449074564435996" lon="9.086757808759815"><ele>399.6</ele><time>2026-04-19T16:01:18Z</time></trkpt><trkpt lat="44.44898390828251" lon="9.086725588922848"><ele>399.0</ele><time>2026-04-19T16:01:19Z</time></trkpt><trkpt lat="44.448891247199185" lon="9.086709880348842"><ele>399.0</ele><time>2026-04-19T16:01:20Z</time></trkpt><trkpt lat="44.44879778217638" lon="9.086715791033193"><ele>399.0</ele><time>2026-04-19T16:01:21Z</time></trkpt><trkpt lat="44.44869152682139" lon="9.086748505863651"><ele>399.0</ele><time>2026-04-19T16:01:22Z</time></trkpt><trkpt lat="44.44857179211854" lon="9.086790620655078"><ele>399.0</ele><time>2026-04-19T16:01:23Z</time></trkpt><trkpt lat="44.44845510953851" lon="9.086845811017797"><ele>399.0</ele><time>2026-04-19T16:01:24Z</time></trkpt><trkpt lat="44.44832282039261" lon="9.086884416000602"><ele>396.33333333333337</ele><time>2026-04-19T16:01:25Z</time></trkpt><trkpt lat="44.4481685662949" lon="9.086953889890578"><ele>393.6666666666667</ele><time>2026-04-19T16:01:26Z</time></trkpt><trkpt lat="44.44802042750676" lon="9.087023096306194"><ele>391.0</ele><time>2026-04-19T16:01:27Z</time></trkpt><trkpt lat="44.44788550935849" lon="9.087073924133943"><ele>389.0</ele><time>2026-04-19T16:01:28Z</time></trkpt><trkpt lat="44.44776718016506" lon="9.087133863648118"><ele>387.0</ele><time>2026-04-19T16:01:29Z</time></trkpt><trkpt lat="44.447660411321465" lon="9.087222576374295"><ele>385.0</ele><time>2026-04-19T16:01:30Z</time></trkpt><trkpt lat="44.44755819832304" lon="9.087350278363187"><ele>383.0</ele><time>2026-04-19T16:01:31Z</time></trkpt><trkpt lat="44.447456218720454" lon="9.087486490493232"><ele>383.0</ele><time>2026-04-19T16:01:32Z</time></trkpt><trkpt lat="44.447335452602495" lon="9.087635405720947"><ele>383.0</ele><time>2026-04-19T16:01:33Z</time></trkpt><trkpt lat="44.44720349786261" lon="9.087791616994062"><ele>383.0</ele><time>2026-04-19T16:01:33.999Z</time></trkpt><trkpt lat="44.44707639826303" lon="9.087945629774952"><ele>382.0</ele><time>2026-04-19T16:01:34.999Z</time></trkpt><trkpt lat="44.44695017123509" lon="9.0880942564447"><ele>381.0</ele><time>2026-04-19T16:01:35.999Z</time></trkpt><trkpt lat="44.446813984017254" lon="9.088239430071608"><ele>380.0</ele><time>2026-04-19T16:01:36.999Z</time></trkpt><trkpt lat="44.446673420533116" lon="9.088368219657287"><ele>380.0</ele><time>2026-04-19T16:01:37.999Z</time></trkpt><trkpt lat="44.44653508785361" lon="9.08848247044183"><ele>380.0</ele><time>2026-04-19T16:01:38.999Z</time></trkpt><trkpt lat="44.446398903696064" lon="9.088587057522728"><ele>380.0</ele><time>2026-04-19T16:01:39.999Z</time></trkpt><trkpt lat="44.44626617509991" lon="9.08869272579936"><ele>375.75</ele><time>2026-04-19T16:01:40.999Z</time></trkpt><trkpt lat="44.446140774120494" lon="9.088801856003219"><ele>371.5</ele><time>2026-04-19T16:01:41.999Z</time></trkpt><trkpt lat="44.4460194668086" lon="9.088900176802113"><ele>367.25</ele><time>2026-04-19T16:01:42.999Z</time></trkpt><trkpt lat="44.4458985361455" lon="9.088980139811401"><ele>363.0</ele><time>2026-04-19T16:01:43.999Z</time></trkpt><trkpt lat="44.445781547732416" lon="9.089054080280853"><ele>363.0</ele><time>2026-04-19T16:01:44.999Z</time></trkpt><trkpt lat="44.44565161929962" lon="9.089073310426778"><ele>363.0</ele><time>2026-04-19T16:01:45.999Z</time></trkpt><trkpt lat="44.44551940691922" lon="9.08905619215297"><ele>363.0</ele><time>2026-04-19T16:01:46.999Z</time></trkpt><trkpt lat="44.44538087345294" lon="9.089001895184348"><ele>363.0</ele><time>2026-04-19T16:01:47.999Z</time></trkpt><trkpt lat="44.44525008317969" lon="9.088914624604246"><ele>362.75</ele><time>2026-04-19T16:01:48.999Z</time></trkpt><trkpt lat="44.44512874209862" lon="9.08880434010212"><ele>362.5</ele><time>2026-04-19T16:01:49.999Z</time></trkpt><trkpt lat="44.44500638922824" lon="9.088686933763203"><ele>362.25</ele><time>2026-04-19T16:01:50.999Z</time></trkpt><trkpt lat="44.44491341879927" lon="9.088592732840702"><ele>362.0</ele><time>2026-04-19T16:01:51.999Z</time></trkpt><trkpt lat="44.44480773993061" lon="9.088508455642216"><ele>362.0</ele><time>2026-04-19T16:01:52.999Z</time></trkpt><trkpt lat="44.44470852034618" lon="9.088449527203432"><ele>362.0</ele><time>2026-04-19T16:01:53.999Z</time></trkpt><trkpt lat="44.4446149594806" lon="9.088423169522224"><ele>362.0</ele><time>2026-04-19T16:01:54.999Z</time></trkpt><trkpt lat="44.44450411850313" lon="9.08846147891041"><ele>362.0</ele><time>2026-04-19T16:01:55.999Z</time></trkpt><trkpt lat="44.444416385495764" lon="9.088574037092643"><ele>362.0</ele><time>2026-04-19T16:01:56.999Z</time></trkpt><trkpt lat="44.44431630213465" lon="9.088680428859833"><ele>362.0</ele><time>2026-04-19T16:01:57.999Z</time></trkpt><trkpt lat="44.444213624710805" lon="9.08883153533412"><ele>362.0</ele><time>2026-04-19T16:01:58.999Z</time></trkpt><trkpt lat="44.44411841939522" lon="9.088964303785305"><ele>362.0</ele><time>2026-04-19T16:01:59.999Z</time></trkpt><trkpt lat="44.44403689956945" lon="9.089080767046816"><ele>362.0</ele><time>2026-04-19T16:02:00.999Z</time></trkpt><trkpt lat="44.443977927701866" lon="9.089219675698244"><ele>362.0</ele><time>2026-04-19T16:02:01.999Z</time></trkpt><trkpt lat="44.44394267017812" lon="9.089368685908713"><ele>362.0</ele><time>2026-04-19T16:02:02.999Z</time></trkpt><trkpt lat="44.443920529931944" lon="9.08954252313346"><ele>362.0</ele><time>2026-04-19T16:02:03.999Z</time></trkpt><trkpt lat="44.443903526804924" lon="9.089728145695828"><ele>362.0</ele><time>2026-04-19T16:02:04.999Z</time></trkpt><trkpt lat="44.44386801499747" lon="9.089927408705346"><ele>367.6666666666667</ele><time>2026-04-19T16:02:05.999Z</time></trkpt><trkpt lat="44.44380280913629" lon="9.090118561337984"><ele>373.3333333333333</ele><time>2026-04-19T16:02:06.999Z</time></trkpt><trkpt lat="44.443704774396444" lon="9.090317083906083"><ele>379.0</ele><time>2026-04-19T16:02:07.999Z</time></trkpt><trkpt lat="44.443630850921615" lon="9.090506814559173"><ele>371.0</ele><time>2026-04-19T16:02:08.999Z</time></trkpt><trkpt lat="44.443560810310466" lon="9.09069300156634"><ele>363.0</ele><time>2026-04-19T16:02:09.999Z</time></trkpt><trkpt lat="44.44348470818563" lon="9.090872171439015"><ele>355.0</ele><time>2026-04-19T16:02:10.999Z</time></trkpt><trkpt lat="44.44342568261816" lon="9.091038731137946"><ele>347.0</ele><time>2026-04-19T16:02:11.999Z</time></trkpt><trkpt lat="44.443350018220116" lon="9.091187816216939"><ele>347.0</ele><time>2026-04-19T16:02:12.999Z</time></trkpt><trkpt lat="44.443300594704475" lon="9.091243857138217"><ele>347.0</ele><time>2026-04-19T16:02:13.999Z</time></trkpt><trkpt lat="44.44320615762141" lon="9.091315910025354"><ele>347.0</ele><time>2026-04-19T16:02:14.999Z</time></trkpt><trkpt lat="44.443090151881606" lon="9.091366765875422"><ele>347.0</ele><time>2026-04-19T16:02:15.999Z</time></trkpt><trkpt lat="44.44298922372776" lon="9.09141802095841"><ele>347.0</ele><time>2026-04-19T16:02:16.999Z</time></trkpt><trkpt lat="44.44289591273079" lon="9.091468986706138"><ele>347.20000000000005</ele><time>2026-04-19T16:02:17.999Z</time></trkpt><trkpt lat="44.44280356303709" lon="9.091509289200838"><ele>347.4</ele><time>2026-04-19T16:02:18.999Z</time></trkpt><trkpt lat="44.442722457278265" lon="9.091467878526261"><ele>347.6</ele><time>2026-04-19T16:02:19.999Z</time></trkpt><trkpt lat="44.44264758000068" lon="9.091380215498567"><ele>347.79999999999995</ele><time>2026-04-19T16:02:20.999Z</time></trkpt><trkpt lat="44.44255998365992" lon="9.09125277842426"><ele>348.0</ele><time>2026-04-19T16:02:21.999Z</time></trkpt><trkpt lat="44.442484577921306" lon="9.091112630929322"><ele>348.0</ele><time>2026-04-19T16:02:22.999Z</time></trkpt><trkpt lat="44.4424146758174" lon="9.090961958021833"><ele>348.0</ele><time>2026-04-19T16:02:23.999Z</time></trkpt><trkpt lat="44.44236172701159" lon="9.090795932473181"><ele>348.0</ele><time>2026-04-19T16:02:24.999Z</time></trkpt><trkpt lat="44.44233190480933" lon="9.09062176336624"><ele>348.0</ele><time>2026-04-19T16:02:25.999Z</time></trkpt><trkpt lat="44.44234055714352" lon="9.090454623692878"><ele>347.5</ele><time>2026-04-19T16:02:26.999Z</time></trkpt><trkpt lat="44.44237853764503" lon="9.090266923311896"><ele>347.0</ele><time>2026-04-19T16:02:27.999Z</time></trkpt><trkpt lat="44.44244980268035" lon="9.090093983901932"><ele>346.5</ele><time>2026-04-19T16:02:28.999Z</time></trkpt><trkpt lat="44.44247461469882" lon="9.089919690311632"><ele>346.0</ele><time>2026-04-19T16:02:29.999Z</time></trkpt><trkpt lat="44.44250962304032" lon="9.089742780782354"><ele>344.5</ele><time>2026-04-19T16:02:30.999Z</time></trkpt><trkpt lat="44.4425148287446" lon="9.089559396043242"><ele>343.0</ele><time>2026-04-19T16:02:32Z</time></trkpt><trkpt lat="44.44249123918495" lon="9.089391409125858"><ele>341.5</ele><time>2026-04-19T16:02:33Z</time></trkpt><trkpt lat="44.44243073595147" lon="9.08922559216674"><ele>340.0</ele><time>2026-04-19T16:02:34Z</time></trkpt><trkpt lat="44.44236044819759" lon="9.089064220758884"><ele>336.5</ele><time>2026-04-19T16:02:35Z</time></trkpt><trkpt lat="44.442265553291186" lon="9.088904253599665"><ele>333.0</ele><time>2026-04-19T16:02:36Z</time></trkpt><trkpt lat="44.442172710534784" lon="9.088724386753093"><ele>329.5</ele><time>2026-04-19T16:02:37Z</time></trkpt><trkpt lat="44.442103768039814" lon="9.08856219369096"><ele>326.0</ele><time>2026-04-19T16:02:38Z</time></trkpt><trkpt lat="44.442045725765176" lon="9.088389259605508"><ele>338.0</ele><time>2026-04-19T16:02:39Z</time></trkpt><trkpt lat="44.44200089280533" lon="9.088185796307698"><ele>350.0</ele><time>2026-04-19T16:02:40Z</time></trkpt><trkpt lat="44.44196868644084" lon="9.087967876653659"><ele>362.0</ele><time>2026-04-19T16:02:41Z</time></trkpt><trkpt lat="44.441932043241565" lon="9.08774111517818"><ele>362.0</ele><time>2026-04-19T16:02:42Z</time></trkpt><trkpt lat="44.4418939408328" lon="9.087523244022169"><ele>362.0</ele><time>2026-04-19T16:02:43Z</time></trkpt><trkpt lat="44.441856488889705" lon="9.087317527372822"><ele>362.0</ele><time>2026-04-19T16:02:44Z</time></trkpt><trkpt lat="44.441828332355165" lon="9.08714091286881"><ele>362.0</ele><time>2026-04-19T16:02:45Z</time></trkpt><trkpt lat="44.44179010369688" lon="9.08697695216562"><ele>358.5</ele><time>2026-04-19T16:02:46Z</time></trkpt><trkpt lat="44.44173869137917" lon="9.086826210422991"><ele>355.0</ele><time>2026-04-19T16:02:47Z</time></trkpt><trkpt lat="44.44167400743669" lon="9.08666055321539"><ele>351.5</ele><time>2026-04-19T16:02:48Z</time></trkpt><trkpt lat="44.44156499309732" lon="9.086523920753674"><ele>348.0</ele><time>2026-04-19T16:02:49Z</time></trkpt><trkpt lat="44.44145663325015" lon="9.086369632664614"><ele>348.0</ele><time>2026-04-19T16:02:50Z</time></trkpt><trkpt lat="44.44134514450298" lon="9.08619888237636"><ele>348.0</ele><time>2026-04-19T16:02:51Z</time></trkpt><trkpt lat="44.441255921422474" lon="9.086069649177114"><ele>348.0</ele><time>2026-04-19T16:02:52Z</time></trkpt><trkpt lat="44.4411732046977" lon="9.085942520370757"><ele>348.0</ele><time>2026-04-19T16:02:53Z</time></trkpt><trkpt lat="44.44109764327553" lon="9.085805861469012"><ele>343.75</ele><time>2026-04-19T16:02:54Z</time></trkpt><trkpt lat="44.44103078434159" lon="9.08564776540197"><ele>339.5</ele><time>2026-04-19T16:02:55Z</time></trkpt><trkpt lat="44.44096860750963" lon="9.085464076196422"><ele>335.25</ele><time>2026-04-19T16:02:56Z</time></trkpt><trkpt lat="44.44091074828912" lon="9.085268123192497"><ele>331.0</ele><time>2026-04-19T16:02:57Z</time></trkpt><trkpt lat="44.440845074935616" lon="9.08508782897879"><ele>329.25</ele><time>2026-04-19T16:02:58Z</time></trkpt><trkpt lat="44.44079262521522" lon="9.084901123992905"><ele>327.5</ele><time>2026-04-19T16:02:59Z</time></trkpt><trkpt lat="44.44073891272068" lon="9.084713544259694"><ele>325.75</ele><time>2026-04-19T16:03:00Z</time></trkpt><trkpt lat="44.440686579504735" lon="9.084520991273482"><ele>324.0</ele><time>2026-04-19T16:03:01Z</time></trkpt><trkpt lat="44.440634289980224" lon="9.084323940966728"><ele>324.0</ele><time>2026-04-19T16:03:02Z</time></trkpt><trkpt lat="44.44058271429477" lon="9.084137256047011"><ele>324.0</ele><time>2026-04-19T16:03:03Z</time></trkpt><trkpt lat="44.440521387796856" lon="9.083962624315"><ele>324.0</ele><time>2026-04-19T16:03:04Z</time></trkpt><trkpt lat="44.44044723894545" lon="9.08379078732875"><ele>324.0</ele><time>2026-04-19T16:03:05Z</time></trkpt><trkpt lat="44.4403600891278" lon="9.083624469695716"><ele>327.0</ele><time>2026-04-19T16:03:06Z</time></trkpt><trkpt lat="44.440252768076164" lon="9.083471619396303"><ele>330.0</ele><time>2026-04-19T16:03:07Z</time></trkpt><trkpt lat="44.44013865786246" lon="9.083325636238413"><ele>333.0</ele><time>2026-04-19T16:03:08Z</time></trkpt><trkpt lat="44.44001522978936" lon="9.083187296871918"><ele>327.0</ele><time>2026-04-19T16:03:09Z</time></trkpt><trkpt lat="44.43988610679186" lon="9.08304706274584"><ele>321.0</ele><time>2026-04-19T16:03:10Z</time></trkpt><trkpt lat="44.43975713022515" lon="9.082911846704523"><ele>315.0</ele><time>2026-04-19T16:03:11Z</time></trkpt><trkpt lat="44.43963660079844" lon="9.082779266317056"><ele>313.25</ele><time>2026-04-19T16:03:12Z</time></trkpt><trkpt lat="44.439525663613956" lon="9.082654711393324"><ele>311.5</ele><time>2026-04-19T16:03:13Z</time></trkpt><trkpt lat="44.43941504230405" lon="9.082531143242345"><ele>309.75</ele><time>2026-04-19T16:03:14Z</time></trkpt><trkpt lat="44.43930548143618" lon="9.082399195826184"><ele>308.0</ele><time>2026-04-19T16:03:15Z</time></trkpt><trkpt lat="44.43920093299293" lon="9.08225489918223"><ele>308.0</ele><time>2026-04-19T16:03:16Z</time></trkpt><trkpt lat="44.43912537493751" lon="9.082091571651205"><ele>308.0</ele><time>2026-04-19T16:03:17Z</time></trkpt><trkpt lat="44.439031623328454" lon="9.081950731711204"><ele>308.0</ele><time>2026-04-19T16:03:18Z</time></trkpt><trkpt lat="44.43895444288142" lon="9.081767698887484"><ele>308.0</ele><time>2026-04-19T16:03:19Z</time></trkpt><trkpt lat="44.438874816354065" lon="9.081567247543902"><ele>305.6666666666667</ele><time>2026-04-19T16:03:20Z</time></trkpt><trkpt lat="44.43878975002874" lon="9.081362343948634"><ele>303.3333333333333</ele><time>2026-04-19T16:03:21Z</time></trkpt><trkpt lat="44.43871395043346" lon="9.081176086190824"><ele>301.0</ele><time>2026-04-19T16:03:22Z</time></trkpt><trkpt lat="44.43865504309025" lon="9.08097871855663"><ele>301.0</ele><time>2026-04-19T16:03:23Z</time></trkpt><trkpt lat="44.43857175978111" lon="9.080814759572078"><ele>301.0</ele><time>2026-04-19T16:03:24Z</time></trkpt><trkpt lat="44.43850321442305" lon="9.080633983449527"><ele>301.0</ele><time>2026-04-19T16:03:25Z</time></trkpt><trkpt lat="44.43843378964439" lon="9.080460760352333"><ele>301.0</ele><time>2026-04-19T16:03:26Z</time></trkpt><trkpt lat="44.43837096992157" lon="9.080279247954428"><ele>302.25</ele><time>2026-04-19T16:03:27Z</time></trkpt><trkpt lat="44.43831559042654" lon="9.080081980132592"><ele>303.5</ele><time>2026-04-19T16:03:28Z</time></trkpt><trkpt lat="44.438278262682076" lon="9.079881965762356"><ele>304.75</ele><time>2026-04-19T16:03:29Z</time></trkpt><trkpt lat="44.438260918886705" lon="9.079691794413076"><ele>306.0</ele><time>2026-04-19T16:03:30Z</time></trkpt><trkpt lat="44.43824908672021" lon="9.079496101500373"><ele>306.25</ele><time>2026-04-19T16:03:31Z</time></trkpt><trkpt lat="44.438240560974926" lon="9.079298564438927"><ele>306.5</ele><time>2026-04-19T16:03:32Z</time></trkpt><trkpt lat="44.43823860416892" lon="9.079108023539174"><ele>306.75</ele><time>2026-04-19T16:03:33Z</time></trkpt><trkpt lat="44.438233265968094" lon="9.078931443775385"><ele>307.0</ele><time>2026-04-19T16:03:34Z</time></trkpt><trkpt lat="44.43824121584441" lon="9.078751069839132"><ele>309.25</ele><time>2026-04-19T16:03:35Z</time></trkpt><trkpt lat="44.43827292720231" lon="9.078559457153267"><ele>311.5</ele><time>2026-04-19T16:03:36Z</time></trkpt><trkpt lat="44.43835365012266" lon="9.078384336742308"><ele>313.75</ele><time>2026-04-19T16:03:37Z</time></trkpt><trkpt lat="44.43842951479951" lon="9.078230741922075"><ele>316.0</ele><time>2026-04-19T16:03:38Z</time></trkpt><trkpt lat="44.438493880044604" lon="9.07806987427401"><ele>321.0</ele><time>2026-04-19T16:03:39Z</time></trkpt><trkpt lat="44.43857561438943" lon="9.077919051947632"><ele>326.0</ele><time>2026-04-19T16:03:40Z</time></trkpt><trkpt lat="44.438651575023556" lon="9.077770636595652"><ele>331.0</ele><time>2026-04-19T16:03:40.999Z</time></trkpt><trkpt lat="44.43872142047951" lon="9.077633111204916"><ele>336.0</ele><time>2026-04-19T16:03:41.999Z</time></trkpt><trkpt lat="44.43879008347473" lon="9.077498389890723"><ele>333.8</ele><time>2026-04-19T16:03:42.999Z</time></trkpt><trkpt lat="44.438856464570996" lon="9.077360077646222"><ele>331.6</ele><time>2026-04-19T16:03:43.999Z</time></trkpt><trkpt lat="44.43892080705475" lon="9.077230651922164"><ele>329.4</ele><time>2026-04-19T16:03:44.999Z</time></trkpt><trkpt lat="44.43897773446232" lon="9.077104490411573"><ele>327.2</ele><time>2026-04-19T16:03:45.999Z</time></trkpt><trkpt lat="44.43903884170343" lon="9.076986493209908"><ele>325.0</ele><time>2026-04-19T16:03:46.999Z</time></trkpt><trkpt lat="44.43911020073635" lon="9.076863732779676"><ele>325.0</ele><time>2026-04-19T16:03:47.999Z</time></trkpt><trkpt lat="44.43919657630741" lon="9.076752594585152"><ele>325.0</ele><time>2026-04-19T16:03:48.999Z</time></trkpt><trkpt lat="44.43930239751113" lon="9.076665767113413"><ele>325.0</ele><time>2026-04-19T16:03:49.999Z</time></trkpt><trkpt lat="44.439410253178345" lon="9.076594745124599"><ele>325.0</ele><time>2026-04-19T16:03:50.999Z</time></trkpt><trkpt lat="44.4395211090379" lon="9.07654684819913"><ele>326.8</ele><time>2026-04-19T16:03:51.999Z</time></trkpt><trkpt lat="44.43961064105846" lon="9.076475708031323"><ele>328.6</ele><time>2026-04-19T16:03:52.999Z</time></trkpt><trkpt lat="44.439710171874374" lon="9.076398147984222"><ele>330.4</ele><time>2026-04-19T16:03:53.999Z</time></trkpt><trkpt lat="44.439809711131865" lon="9.076335531199721"><ele>332.2</ele><time>2026-04-19T16:03:54.999Z</time></trkpt><trkpt lat="44.43989526351024" lon="9.076224329167355"><ele>334.0</ele><time>2026-04-19T16:03:55.999Z</time></trkpt><trkpt lat="44.439972250736176" lon="9.076089671187876"><ele>325.5</ele><time>2026-04-19T16:03:56.999Z</time></trkpt><trkpt lat="44.4400369233595" lon="9.07593759412051"><ele>317.0</ele><time>2026-04-19T16:03:57.999Z</time></trkpt><trkpt lat="44.440079492223134" lon="9.075749883439578"><ele>308.5</ele><time>2026-04-19T16:03:58.999Z</time></trkpt><trkpt lat="44.44009715670567" lon="9.075575854418183"><ele>300.0</ele><time>2026-04-19T16:03:59.999Z</time></trkpt><trkpt lat="44.440093938454844" lon="9.075403916410801"><ele>300.0</ele><time>2026-04-19T16:04:00.999Z</time></trkpt><trkpt lat="44.44006979732211" lon="9.07523743449748"><ele>300.0</ele><time>2026-04-19T16:04:01.999Z</time></trkpt><trkpt lat="44.44002649222434" lon="9.075072475536079"><ele>300.0</ele><time>2026-04-19T16:04:02.999Z</time></trkpt><trkpt lat="44.43997952382705" lon="9.074923455681676"><ele>300.0</ele><time>2026-04-19T16:04:03.999Z</time></trkpt><trkpt lat="44.43994279636135" lon="9.074774902517772"><ele>300.25</ele><time>2026-04-19T16:04:04.999Z</time></trkpt><trkpt lat="44.439917428792846" lon="9.074635446196048"><ele>300.5</ele><time>2026-04-19T16:04:05.999Z</time></trkpt><trkpt lat="44.439920361337606" lon="9.074487800053044"><ele>300.75</ele><time>2026-04-19T16:04:06.999Z</time></trkpt><trkpt lat="44.43994009647632" lon="9.0743151901088"><ele>301.0</ele><time>2026-04-19T16:04:07.999Z</time></trkpt><trkpt lat="44.43998524574494" lon="9.074135549252277"><ele>304.25</ele><time>2026-04-19T16:04:08.999Z</time></trkpt><trkpt lat="44.44003684724222" lon="9.073930938349278"><ele>307.5</ele><time>2026-04-19T16:04:09.999Z</time></trkpt><trkpt lat="44.44008113879125" lon="9.073743931974022"><ele>310.75</ele><time>2026-04-19T16:04:10.999Z</time></trkpt><trkpt lat="44.44011974906484" lon="9.07358102369234"><ele>314.0</ele><time>2026-04-19T16:04:11.999Z</time></trkpt><trkpt lat="44.440156996328405" lon="9.0734285993106"><ele>318.5</ele><time>2026-04-19T16:04:12.999Z</time></trkpt><trkpt lat="44.44018423763828" lon="9.0732566574341"><ele>323.0</ele><time>2026-04-19T16:04:13.999Z</time></trkpt><trkpt lat="44.440237944683844" lon="9.073101551913116"><ele>327.5</ele><time>2026-04-19T16:04:14.999Z</time></trkpt><trkpt lat="44.440322082429525" lon="9.072994169979763"><ele>332.0</ele><time>2026-04-19T16:04:15.999Z</time></trkpt><trkpt lat="44.44040343469488" lon="9.072882064414877"><ele>320.25</ele><time>2026-04-19T16:04:16.999Z</time></trkpt><trkpt lat="44.44049126889465" lon="9.072757588600007"><ele>308.5</ele><time>2026-04-19T16:04:17.999Z</time></trkpt><trkpt lat="44.440578945566344" lon="9.072644789851974"><ele>296.75</ele><time>2026-04-19T16:04:18.999Z</time></trkpt><trkpt lat="44.44065865430498" lon="9.072545465081832"><ele>285.0</ele><time>2026-04-19T16:04:19.999Z</time></trkpt><trkpt lat="44.44073478607658" lon="9.072438524099613"><ele>285.0</ele><time>2026-04-19T16:04:20.999Z</time></trkpt><trkpt lat="44.44079169220761" lon="9.07230726875924"><ele>285.0</ele><time>2026-04-19T16:04:21.999Z</time></trkpt><trkpt lat="44.44082703383863" lon="9.072144440380564"><ele>285.0</ele><time>2026-04-19T16:04:22.999Z</time></trkpt><trkpt lat="44.440827422759305" lon="9.071966750065354"><ele>285.0</ele><time>2026-04-19T16:04:23.999Z</time></trkpt><trkpt lat="44.4408004935937" lon="9.07178072229196"><ele>283.75</ele><time>2026-04-19T16:04:24.999Z</time></trkpt><trkpt lat="44.44075978550931" lon="9.071596190184447"><ele>282.5</ele><time>2026-04-19T16:04:25.999Z</time></trkpt><trkpt lat="44.44073325316144" lon="9.071426689614457"><ele>281.25</ele><time>2026-04-19T16:04:26.999Z</time></trkpt><trkpt lat="44.44069726619058" lon="9.071261859473152"><ele>280.0</ele><time>2026-04-19T16:04:27.999Z</time></trkpt><trkpt lat="44.44067797249743" lon="9.071092785819811"><ele>280.0</ele><time>2026-04-19T16:04:28.999Z</time></trkpt><trkpt lat="44.44065308484713" lon="9.070943284239233"><ele>280.0</ele><time>2026-04-19T16:04:29.999Z</time></trkpt><trkpt lat="44.44062975467605" lon="9.070799047336997"><ele>280.0</ele><time>2026-04-19T16:04:30.999Z</time></trkpt><trkpt lat="44.44061961682129" lon="9.070667494030044"><ele>280.0</ele><time>2026-04-19T16:04:31.999Z</time></trkpt><trkpt lat="44.440652397914626" lon="9.070524278639017"><ele>280.0</ele><time>2026-04-19T16:04:32.999Z</time></trkpt><trkpt lat="44.44068666048836" lon="9.070364165140811"><ele>282.0</ele><time>2026-04-19T16:04:33.999Z</time></trkpt><trkpt lat="44.44078116522189" lon="9.070226983146954"><ele>284.0</ele><time>2026-04-19T16:04:34.999Z</time></trkpt><trkpt lat="44.4408806717169" lon="9.070103353285772"><ele>286.0</ele><time>2026-04-19T16:04:35.999Z</time></trkpt><trkpt lat="44.44097233298371" lon="9.070003732175936"><ele>288.0</ele><time>2026-04-19T16:04:36.999Z</time></trkpt><trkpt lat="44.441043308759866" lon="9.069892152310928"><ele>289.6</ele><time>2026-04-19T16:04:38Z</time></trkpt><trkpt lat="44.44110231050347" lon="9.069768013552867"><ele>291.20000000000005</ele><time>2026-04-19T16:04:39Z</time></trkpt><trkpt lat="44.44115266883097" lon="9.069631480326505"><ele>292.8</ele><time>2026-04-19T16:04:40Z</time></trkpt><trkpt lat="44.4411897440221" lon="9.06949732838322"><ele>294.40000000000003</ele><time>2026-04-19T16:04:41Z</time></trkpt><trkpt lat="44.441203952539254" lon="9.069348541635032"><ele>296.0</ele><time>2026-04-19T16:04:42Z</time></trkpt><trkpt lat="44.44118622005619" lon="9.069186992426038"><ele>295.75</ele><time>2026-04-19T16:04:43Z</time></trkpt><trkpt lat="44.44114738803416" lon="9.069023422395377"><ele>295.5</ele><time>2026-04-19T16:04:44Z</time></trkpt><trkpt lat="44.4411008395312" lon="9.068858091651782"><ele>295.25</ele><time>2026-04-19T16:04:45Z</time></trkpt><trkpt lat="44.44106578933729" lon="9.068709377046483"><ele>295.0</ele><time>2026-04-19T16:04:46Z</time></trkpt><trkpt lat="44.44106132381115" lon="9.068538657849594"><ele>295.0</ele><time>2026-04-19T16:04:47Z</time></trkpt><trkpt lat="44.441089805339715" lon="9.068358733927186"><ele>295.0</ele><time>2026-04-19T16:04:48Z</time></trkpt><trkpt lat="44.441135942163484" lon="9.068187252012649"><ele>295.0</ele><time>2026-04-19T16:04:49Z</time></trkpt><trkpt lat="44.441199156898264" lon="9.06804481872587"><ele>295.0</ele><time>2026-04-19T16:04:50Z</time></trkpt><trkpt lat="44.441265106316465" lon="9.067916450952831"><ele>290.25</ele><time>2026-04-19T16:04:51Z</time></trkpt><trkpt lat="44.44132738994765" lon="9.067770826048667"><ele>285.5</ele><time>2026-04-19T16:04:52Z</time></trkpt><trkpt lat="44.441395597122266" lon="9.067640392377026"><ele>280.75</ele><time>2026-04-19T16:04:53Z</time></trkpt><trkpt lat="44.44147072999678" lon="9.06752995812355"><ele>276.0</ele><time>2026-04-19T16:04:54Z</time></trkpt><trkpt lat="44.44155537828617" lon="9.067421669601197"><ele>276.0</ele><time>2026-04-19T16:04:55Z</time></trkpt><trkpt lat="44.44164065228492" lon="9.067308108709351"><ele>276.0</ele><time>2026-04-19T16:04:56Z</time></trkpt><trkpt lat="44.441722576302226" lon="9.067196473392285"><ele>276.0</ele><time>2026-04-19T16:04:57Z</time></trkpt><trkpt lat="44.44182012976475" lon="9.067096839037246"><ele>276.0</ele><time>2026-04-19T16:04:58Z</time></trkpt><trkpt lat="44.44189990115402" lon="9.066994516330452"><ele>276.0</ele><time>2026-04-19T16:04:59Z</time></trkpt><trkpt lat="44.44196887513619" lon="9.066886560505797"><ele>276.0</ele><time>2026-04-19T16:05:00Z</time></trkpt><trkpt lat="44.44204647018505" lon="9.066786526319964"><ele>276.0</ele><time>2026-04-19T16:05:01Z</time></trkpt><trkpt lat="44.44211132452858" lon="9.06665577207268"><ele>276.0</ele><time>2026-04-19T16:05:02Z</time></trkpt><trkpt lat="44.442155683458004" lon="9.06650085310077"><ele>276.0</ele><time>2026-04-19T16:05:03Z</time></trkpt><trkpt lat="44.442175020817615" lon="9.066352219831982"><ele>276.0</ele><time>2026-04-19T16:05:04Z</time></trkpt><trkpt lat="44.442169782766435" lon="9.066189774549343"><ele>276.0</ele><time>2026-04-19T16:05:05Z</time></trkpt><trkpt lat="44.44213612069234" lon="9.06601743025409"><ele>276.0</ele><time>2026-04-19T16:05:06Z</time></trkpt><trkpt lat="44.4420891577075" lon="9.065836737372654"><ele>276.0</ele><time>2026-04-19T16:05:07Z</time></trkpt><trkpt lat="44.44204138145486" lon="9.065661369926143"><ele>276.2</ele><time>2026-04-19T16:05:08Z</time></trkpt><trkpt lat="44.44200465201251" lon="9.065510961381301"><ele>276.40000000000003</ele><time>2026-04-19T16:05:09Z</time></trkpt><trkpt lat="44.4419643574814" lon="9.065350043278954"><ele>276.6</ele><time>2026-04-19T16:05:10Z</time></trkpt><trkpt lat="44.44193566820401" lon="9.065206002990408"><ele>276.8</ele><time>2026-04-19T16:05:11Z</time></trkpt><trkpt lat="44.4419289627051" lon="9.06506305189119"><ele>277.0</ele><time>2026-04-19T16:05:12Z</time></trkpt><trkpt lat="44.44196129116304" lon="9.064930854298368"><ele>277.0</ele><time>2026-04-19T16:05:13Z</time></trkpt><trkpt lat="44.4420374413843" lon="9.064811836677357"><ele>277.0</ele><time>2026-04-19T16:05:14Z</time></trkpt><trkpt lat="44.44212381733483" lon="9.064716230209632"><ele>277.0</ele><time>2026-04-19T16:05:15Z</time></trkpt><trkpt lat="44.442217680155586" lon="9.064626451918643"><ele>277.0</ele><time>2026-04-19T16:05:16Z</time></trkpt><trkpt lat="44.44230601031688" lon="9.064535528804534"><ele>277.0</ele><time>2026-04-19T16:05:17Z</time></trkpt><trkpt lat="44.44238563198087" lon="9.064445085575409"><ele>270.2</ele><time>2026-04-19T16:05:18Z</time></trkpt><trkpt lat="44.44245661809784" lon="9.06432999628497"><ele>263.4</ele><time>2026-04-19T16:05:19Z</time></trkpt><trkpt lat="44.44248013682275" lon="9.06420160102525"><ele>256.6</ele><time>2026-04-19T16:05:20Z</time></trkpt><trkpt lat="44.44247593505339" lon="9.064055413814557"><ele>249.8</ele><time>2026-04-19T16:05:21Z</time></trkpt><trkpt lat="44.4424537650047" lon="9.063887165871035"><ele>243.0</ele><time>2026-04-19T16:05:22Z</time></trkpt><trkpt lat="44.442408844650124" lon="9.06370191193422"><ele>241.75</ele><time>2026-04-19T16:05:23Z</time></trkpt><trkpt lat="44.44238086295506" lon="9.063494693742232"><ele>240.5</ele><time>2026-04-19T16:05:24Z</time></trkpt><trkpt lat="44.442348078695794" lon="9.063309973473993"><ele>239.25</ele><time>2026-04-19T16:05:25Z</time></trkpt><trkpt lat="44.44232216885463" lon="9.063138041166523"><ele>238.0</ele><time>2026-04-19T16:05:26Z</time></trkpt><trkpt lat="44.442296312358984" lon="9.062974504198026"><ele>235.75</ele><time>2026-04-19T16:05:27Z</time></trkpt><trkpt lat="44.44226825840134" lon="9.062812577454743"><ele>233.5</ele><time>2026-04-19T16:05:28Z</time></trkpt><trkpt lat="44.44223740107776" lon="9.062654894839032"><ele>231.25</ele><time>2026-04-19T16:05:29Z</time></trkpt><trkpt lat="44.442211171766" lon="9.06249062740595"><ele>229.0</ele><time>2026-04-19T16:05:30Z</time></trkpt><trkpt lat="44.44219826679401" lon="9.062311104364078"><ele>228.5</ele><time>2026-04-19T16:05:31Z</time></trkpt><trkpt lat="44.44219848883" lon="9.06212324327212"><ele>228.0</ele><time>2026-04-19T16:05:32Z</time></trkpt><trkpt lat="44.44222871733801" lon="9.061949340155296"><ele>227.5</ele><time>2026-04-19T16:05:33Z</time></trkpt><trkpt lat="44.44226222276604" lon="9.061773545407439"><ele>227.0</ele><time>2026-04-19T16:05:34Z</time></trkpt><trkpt lat="44.44230904492028" lon="9.061605682879074"><ele>226.5</ele><time>2026-04-19T16:05:35Z</time></trkpt><trkpt lat="44.44233805363173" lon="9.061444637085605"><ele>226.0</ele><time>2026-04-19T16:05:36Z</time></trkpt><trkpt lat="44.442364573849744" lon="9.061285283886795"><ele>225.5</ele><time>2026-04-19T16:05:37Z</time></trkpt><trkpt lat="44.44237084469065" lon="9.0611116582207"><ele>225.0</ele><time>2026-04-19T16:05:38Z</time></trkpt><trkpt lat="44.44235450106963" lon="9.060921115442792"><ele>224.0</ele><time>2026-04-19T16:05:39Z</time></trkpt><trkpt lat="44.44232057641059" lon="9.060722333516056"><ele>223.0</ele><time>2026-04-19T16:05:40Z</time></trkpt><trkpt lat="44.44228079588423" lon="9.06051139458676"><ele>222.0</ele><time>2026-04-19T16:05:41Z</time></trkpt><trkpt lat="44.442242679201875" lon="9.060317653989962"><ele>221.0</ele><time>2026-04-19T16:05:42Z</time></trkpt><trkpt lat="44.44221205680898" lon="9.060131222728865"><ele>221.0</ele><time>2026-04-19T16:05:43Z</time></trkpt><trkpt lat="44.44218382932886" lon="9.059955044047834"><ele>221.0</ele><time>2026-04-19T16:05:44Z</time></trkpt><trkpt lat="44.44217680098349" lon="9.059778391380728"><ele>221.0</ele><time>2026-04-19T16:05:45Z</time></trkpt><trkpt lat="44.44219388966052" lon="9.059577591208615"><ele>221.0</ele><time>2026-04-19T16:05:45.999Z</time></trkpt><trkpt lat="44.442214294514294" lon="9.059382109453068"><ele>220.5</ele><time>2026-04-19T16:05:46.999Z</time></trkpt><trkpt lat="44.44223951356198" lon="9.059200074304725"><ele>220.0</ele><time>2026-04-19T16:05:47.999Z</time></trkpt><trkpt lat="44.44225783712929" lon="9.059015935712683"><ele>219.5</ele><time>2026-04-19T16:05:48.999Z</time></trkpt><trkpt lat="44.44230965984517" lon="9.058838046192239"><ele>219.0</ele><time>2026-04-19T16:05:49.999Z</time></trkpt><trkpt lat="44.44234436200413" lon="9.058663137963594"><ele>219.0</ele><time>2026-04-19T16:05:50.999Z</time></trkpt><trkpt lat="44.442414703328694" lon="9.058499034653401"><ele>219.0</ele><time>2026-04-19T16:05:51.999Z</time></trkpt><trkpt lat="44.44248169747315" lon="9.058334430993698"><ele>219.0</ele><time>2026-04-19T16:05:52.999Z</time></trkpt><trkpt lat="44.44254030016647" lon="9.058179847095554"><ele>219.0</ele><time>2026-04-19T16:05:53.999Z</time></trkpt><trkpt lat="44.442602618132796" lon="9.058045530705622"><ele>221.79999999999998</ele><time>2026-04-19T16:05:54.999Z</time></trkpt><trkpt lat="44.442666793913276" lon="9.057916761234415"><ele>224.59999999999997</ele><time>2026-04-19T16:05:55.999Z</time></trkpt><trkpt lat="44.44271746348178" lon="9.057785194290199"><ele>227.4</ele><time>2026-04-19T16:05:56.999Z</time></trkpt><trkpt lat="44.442752477097756" lon="9.057629496117174"><ele>230.2</ele><time>2026-04-19T16:05:57.999Z</time></trkpt><trkpt lat="44.442776432322155" lon="9.057476400049442"><ele>233.0</ele><time>2026-04-19T16:05:58.999Z</time></trkpt><trkpt lat="44.44274894269016" lon="9.057300563375183"><ele>236.5</ele><time>2026-04-19T16:05:59.999Z</time></trkpt><trkpt lat="44.44273179585833" lon="9.0571214376534"><ele>240.0</ele><time>2026-04-19T16:06:00.999Z</time></trkpt><trkpt lat="44.44271489086526" lon="9.056925544908728"><ele>243.5</ele><time>2026-04-19T16:06:01.999Z</time></trkpt><trkpt lat="44.442715306280874" lon="9.0567293514914"><ele>247.0</ele><time>2026-04-19T16:06:02.999Z</time></trkpt><trkpt lat="44.442725395194614" lon="9.056547909935059"><ele>247.0</ele><time>2026-04-19T16:06:03.999Z</time></trkpt><trkpt lat="44.442736733136144" lon="9.056358533563293"><ele>247.0</ele><time>2026-04-19T16:06:04.999Z</time></trkpt><trkpt lat="44.442769989256576" lon="9.05617116582692"><ele>247.0</ele><time>2026-04-19T16:06:05.999Z</time></trkpt><trkpt lat="44.44278273815154" lon="9.055987866428838"><ele>247.0</ele><time>2026-04-19T16:06:06.999Z</time></trkpt><trkpt lat="44.44280803851946" lon="9.055811672919319"><ele>245.75</ele><time>2026-04-19T16:06:07.999Z</time></trkpt><trkpt lat="44.44285815422133" lon="9.055645098416438"><ele>244.5</ele><time>2026-04-19T16:06:08.999Z</time></trkpt><trkpt lat="44.442925119610955" lon="9.055477449876687"><ele>243.25</ele><time>2026-04-19T16:06:09.999Z</time></trkpt><trkpt lat="44.44299034087643" lon="9.055314330415737"><ele>242.0</ele><time>2026-04-19T16:06:10.999Z</time></trkpt><trkpt lat="44.44303590460132" lon="9.05515804324703"><ele>230.25</ele><time>2026-04-19T16:06:11.999Z</time></trkpt><trkpt lat="44.44307632246086" lon="9.055000973319224"><ele>218.5</ele><time>2026-04-19T16:06:12.999Z</time></trkpt><trkpt lat="44.443125910403396" lon="9.054842319435982"><ele>206.75</ele><time>2026-04-19T16:06:13.999Z</time></trkpt><trkpt lat="44.443175716370654" lon="9.05469344616917"><ele>195.0</ele><time>2026-04-19T16:06:14.999Z</time></trkpt><trkpt lat="44.44322719368077" lon="9.054562793289938"><ele>194.0</ele><time>2026-04-19T16:06:15.999Z</time></trkpt><trkpt lat="44.44327248122488" lon="9.054432379842554"><ele>193.0</ele><time>2026-04-19T16:06:16.999Z</time></trkpt><trkpt lat="44.44330339001281" lon="9.054313658447304"><ele>192.0</ele><time>2026-04-19T16:06:17.999Z</time></trkpt><trkpt lat="44.443309894752076" lon="9.054177706838589"><ele>191.0</ele><time>2026-04-19T16:06:18.999Z</time></trkpt><trkpt lat="44.44327549510261" lon="9.054046015637619"><ele>190.0</ele><time>2026-04-19T16:06:19.999Z</time></trkpt><trkpt lat="44.44320574261448" lon="9.05391018755973"><ele>188.5</ele><time>2026-04-19T16:06:20.999Z</time></trkpt><trkpt lat="44.44310527769583" lon="9.053798296258528"><ele>187.0</ele><time>2026-04-19T16:06:21.999Z</time></trkpt><trkpt lat="44.44297899420956" lon="9.053723721541596"><ele>185.5</ele><time>2026-04-19T16:06:22.999Z</time></trkpt><trkpt lat="44.442830849693074" lon="9.053665728016918"><ele>184.0</ele><time>2026-04-19T16:06:23.999Z</time></trkpt><trkpt lat="44.44270246951521" lon="9.053613583102603"><ele>184.0</ele><time>2026-04-19T16:06:24.999Z</time></trkpt><trkpt lat="44.44258698241551" lon="9.053548514270284"><ele>184.0</ele><time>2026-04-19T16:06:25.999Z</time></trkpt><trkpt lat="44.44247353237669" lon="9.053471239906035"><ele>184.0</ele><time>2026-04-19T16:06:26.999Z</time></trkpt><trkpt lat="44.442363438645195" lon="9.053381395445056"><ele>184.0</ele><time>2026-04-19T16:06:27.999Z</time></trkpt><trkpt lat="44.44225056457392" lon="9.053275642770618"><ele>182.5</ele><time>2026-04-19T16:06:28.999Z</time></trkpt><trkpt lat="44.44215711078539" lon="9.053168429416923"><ele>181.0</ele><time>2026-04-19T16:06:29.999Z</time></trkpt><trkpt lat="44.442072965364" lon="9.053068093326058"><ele>179.5</ele><time>2026-04-19T16:06:30.999Z</time></trkpt><trkpt lat="44.44197815913717" lon="9.05297692569828"><ele>178.0</ele><time>2026-04-19T16:06:31.999Z</time></trkpt><trkpt lat="44.4418828361352" lon="9.052876448556365"><ele>178.0</ele><time>2026-04-19T16:06:32.999Z</time></trkpt><trkpt lat="44.4417963739841" lon="9.052774216433257"><ele>178.0</ele><time>2026-04-19T16:06:33.999Z</time></trkpt><trkpt lat="44.44172013447265" lon="9.052669157937483"><ele>178.0</ele><time>2026-04-19T16:06:34.999Z</time></trkpt><trkpt lat="44.4416869240973" lon="9.05254313574651"><ele>178.0</ele><time>2026-04-19T16:06:35.999Z</time></trkpt><trkpt lat="44.441666087696646" lon="9.052399476054184"><ele>178.0</ele><time>2026-04-19T16:06:36.999Z</time></trkpt><trkpt lat="44.44167662031629" lon="9.052241550032303"><ele>178.0</ele><time>2026-04-19T16:06:37.999Z</time></trkpt><trkpt lat="44.44170550221247" lon="9.052078877902632"><ele>178.0</ele><time>2026-04-19T16:06:38.999Z</time></trkpt><trkpt lat="44.441738692701335" lon="9.051937908940682"><ele>178.0</ele><time>2026-04-19T16:06:39.999Z</time></trkpt><trkpt lat="44.4417503271428" lon="9.051805249416763"><ele>178.0</ele><time>2026-04-19T16:06:40.999Z</time></trkpt><trkpt lat="44.4417530242314" lon="9.051671588940065"><ele>178.0</ele><time>2026-04-19T16:06:41.999Z</time></trkpt><trkpt lat="44.44172582242469" lon="9.051532489537344"><ele>177.25</ele><time>2026-04-19T16:06:42.999Z</time></trkpt><trkpt lat="44.44167437850614" lon="9.051385383037694"><ele>176.5</ele><time>2026-04-19T16:06:44Z</time></trkpt><trkpt lat="44.44158764867261" lon="9.051252713314772"><ele>175.75</ele><time>2026-04-19T16:06:45Z</time></trkpt><trkpt lat="44.44148057119639" lon="9.051105645364476"><ele>175.0</ele><time>2026-04-19T16:06:46Z</time></trkpt><trkpt lat="44.441387168963594" lon="9.0509686957171"><ele>175.0</ele><time>2026-04-19T16:06:47Z</time></trkpt><trkpt lat="44.44130502132675" lon="9.05084261499706"><ele>175.0</ele><time>2026-04-19T16:06:48Z</time></trkpt><trkpt lat="44.44122789769599" lon="9.050735369346778"><ele>175.0</ele><time>2026-04-19T16:06:49Z</time></trkpt><trkpt lat="44.44115109800082" lon="9.050609467519443"><ele>175.0</ele><time>2026-04-19T16:06:50Z</time></trkpt><trkpt lat="44.44107904849857" lon="9.050502383967533"><ele>173.75</ele><time>2026-04-19T16:06:51Z</time></trkpt><trkpt lat="44.44100542675856" lon="9.050399830546592"><ele>172.5</ele><time>2026-04-19T16:06:52Z</time></trkpt><trkpt lat="44.44093963008407" lon="9.0502764144709"><ele>171.25</ele><time>2026-04-19T16:06:53Z</time></trkpt><trkpt lat="44.44088156916057" lon="9.050135195059731"><ele>170.0</ele><time>2026-04-19T16:06:54Z</time></trkpt><trkpt lat="44.44082656259312" lon="9.049971110327968"><ele>169.0</ele><time>2026-04-19T16:06:55Z</time></trkpt><trkpt lat="44.440768714759486" lon="9.049793233512338"><ele>168.0</ele><time>2026-04-19T16:06:56Z</time></trkpt><trkpt lat="44.44070257448721" lon="9.049623105863878"><ele>167.0</ele><time>2026-04-19T16:06:57Z</time></trkpt><trkpt lat="44.44065218257588" lon="9.049466241137477"><ele>166.0</ele><time>2026-04-19T16:06:58Z</time></trkpt><trkpt lat="44.44060341992959" lon="9.049313045018694"><ele>166.0</ele><time>2026-04-19T16:06:59Z</time></trkpt><trkpt lat="44.440543837203194" lon="9.04915104635623"><ele>166.0</ele><time>2026-04-19T16:07:00Z</time></trkpt><trkpt lat="44.44048868665286" lon="9.048979896181448"><ele>166.0</ele><time>2026-04-19T16:07:01Z</time></trkpt><trkpt lat="44.44045741474776" lon="9.048811249255742"><ele>166.0</ele><time>2026-04-19T16:07:02Z</time></trkpt><trkpt lat="44.44045706274736" lon="9.04864977906457"><ele>164.5</ele><time>2026-04-19T16:07:03Z</time></trkpt><trkpt lat="44.440476531510974" lon="9.048493506056815"><ele>163.0</ele><time>2026-04-19T16:07:04Z</time></trkpt><trkpt lat="44.440508717568" lon="9.048339422805913"><ele>161.5</ele><time>2026-04-19T16:07:05Z</time></trkpt><trkpt lat="44.44056715915494" lon="9.048183697139537"><ele>160.0</ele><time>2026-04-19T16:07:06Z</time></trkpt><trkpt lat="44.440625643099686" lon="9.048021248881518"><ele>159.75</ele><time>2026-04-19T16:07:07Z</time></trkpt><trkpt lat="44.4406807860925" lon="9.047852504444519"><ele>159.5</ele><time>2026-04-19T16:07:08Z</time></trkpt><trkpt lat="44.440716340374465" lon="9.04768076809576"><ele>159.25</ele><time>2026-04-19T16:07:09Z</time></trkpt><trkpt lat="44.44074829732086" lon="9.047475462650151"><ele>159.0</ele><time>2026-04-19T16:07:10Z</time></trkpt><trkpt lat="44.44077660624745" lon="9.047234845514117"><ele>161.33333333333334</ele><time>2026-04-19T16:07:11Z</time></trkpt><trkpt lat="44.440807861182016" lon="9.046959671550235"><ele>163.66666666666669</ele><time>2026-04-19T16:07:12Z</time></trkpt><trkpt lat="44.44086492007235" lon="9.046663269335129"><ele>166.0</ele><time>2026-04-19T16:07:13Z</time></trkpt><trkpt lat="44.44090967697095" lon="9.04635735535807"><ele>169.66666666666669</ele><time>2026-04-19T16:07:14Z</time></trkpt><trkpt lat="44.44095391382388" lon="9.046054995788621"><ele>173.33333333333334</ele><time>2026-04-19T16:07:15Z</time></trkpt><trkpt lat="44.441000158589155" lon="9.045740672701221"><ele>177.0</ele><time>2026-04-19T16:07:16Z</time></trkpt><trkpt lat="44.44104444287567" lon="9.045440672846118"><ele>180.0</ele><time>2026-04-19T16:07:17Z</time></trkpt><trkpt lat="44.441084844752496" lon="9.045160454035493"><ele>183.0</ele><time>2026-04-19T16:07:18Z</time></trkpt><trkpt lat="44.44112523908545" lon="9.044897542434002"><ele>186.0</ele><time>2026-04-19T16:07:19Z</time></trkpt><trkpt lat="44.441175824223635" lon="9.04464315670954"><ele>187.66666666666666</ele><time>2026-04-19T16:07:20Z</time></trkpt><trkpt lat="44.44124178248735" lon="9.044412993856021"><ele>189.33333333333331</ele><time>2026-04-19T16:07:21Z</time></trkpt><trkpt lat="44.44134406369949" lon="9.044222799441448"><ele>191.0</ele><time>2026-04-19T16:07:22Z</time></trkpt><trkpt lat="44.441424218518826" lon="9.044016210702914"><ele>183.33333333333331</ele><time>2026-04-19T16:07:23Z</time></trkpt><trkpt lat="44.441505842539385" lon="9.043791595125342"><ele>175.66666666666666</ele><time>2026-04-19T16:07:24Z</time></trkpt><trkpt lat="44.441572664277665" lon="9.043516107737698"><ele>168.0</ele><time>2026-04-19T16:07:25Z</time></trkpt><trkpt lat="44.44162983438609" lon="9.043212122368125"><ele>168.0</ele><time>2026-04-19T16:07:26Z</time></trkpt><trkpt lat="44.44168317590322" lon="9.04294105410716"><ele>168.0</ele><time>2026-04-19T16:07:27Z</time></trkpt><trkpt lat="44.44172387060973" lon="9.042705970290308"><ele>168.0</ele><time>2026-04-19T16:07:28Z</time></trkpt><trkpt lat="44.44177354047177" lon="9.042511193956166"><ele>169.0</ele><time>2026-04-19T16:07:29Z</time></trkpt><trkpt lat="44.441802103620766" lon="9.042362627361943"><ele>170.0</ele><time>2026-04-19T16:07:30Z</time></trkpt><trkpt lat="44.441845749503926" lon="9.042238138703667"><ele>171.0</ele><time>2026-04-19T16:07:31Z</time></trkpt><trkpt lat="44.44191944489632" lon="9.042131805518196"><ele>172.0</ele><time>2026-04-19T16:07:32Z</time></trkpt><trkpt lat="44.442021861073535" lon="9.042047872348537"><ele>173.0</ele><time>2026-04-19T16:07:33Z</time></trkpt><trkpt lat="44.4421663325729" lon="9.041992380199252"><ele>173.0</ele><time>2026-04-19T16:07:34Z</time></trkpt><trkpt lat="44.442330193569724" lon="9.041950240308076"><ele>173.0</ele><time>2026-04-19T16:07:35Z</time></trkpt><trkpt lat="44.442495437241185" lon="9.041917797984732"><ele>173.0</ele><time>2026-04-19T16:07:36Z</time></trkpt><trkpt lat="44.44265660826103" lon="9.041889426391775"><ele>173.0</ele><time>2026-04-19T16:07:37Z</time></trkpt><trkpt lat="44.44282405754118" lon="9.041864914275731"><ele>173.0</ele><time>2026-04-19T16:07:38Z</time></trkpt><trkpt lat="44.44297691115065" lon="9.041844774401406"><ele>173.0</ele><time>2026-04-19T16:07:39Z</time></trkpt><trkpt lat="44.443114425140095" lon="9.041828736651226"><ele>169.25</ele><time>2026-04-19T16:07:40Z</time></trkpt><trkpt lat="44.44323716127239" lon="9.041812816191362"><ele>165.5</ele><time>2026-04-19T16:07:41Z</time></trkpt><trkpt lat="44.4433540522698" lon="9.041786882171817"><ele>161.75</ele><time>2026-04-19T16:07:42Z</time></trkpt><trkpt lat="44.44347991109461" lon="9.041737557688473"><ele>158.0</ele><time>2026-04-19T16:07:43Z</time></trkpt><trkpt lat="44.443598881122654" lon="9.041639862228665"><ele>157.0</ele><time>2026-04-19T16:07:44Z</time></trkpt><trkpt lat="44.44370783411346" lon="9.041492106322275"><ele>156.0</ele><time>2026-04-19T16:07:45Z</time></trkpt><trkpt lat="44.44383361520617" lon="9.041296928081403"><ele>155.0</ele><time>2026-04-19T16:07:46Z</time></trkpt><trkpt lat="44.44396530247793" lon="9.04106874445535"><ele>155.0</ele><time>2026-04-19T16:07:47Z</time></trkpt><trkpt lat="44.44410147343865" lon="9.040842804925994"><ele>155.0</ele><time>2026-04-19T16:07:48Z</time></trkpt><trkpt lat="44.44421757673643" lon="9.040675993443784"><ele>155.0</ele><time>2026-04-19T16:07:49Z</time></trkpt><trkpt lat="44.44434229328581" lon="9.04048633455003"><ele>161.66666666666666</ele><time>2026-04-19T16:07:50Z</time></trkpt><trkpt lat="44.44448259105372" lon="9.040281961526366"><ele>168.33333333333334</ele><time>2026-04-19T16:07:51Z</time></trkpt><trkpt lat="44.4446278299758" lon="9.04008981844838"><ele>175.0</ele><time>2026-04-19T16:07:52Z</time></trkpt><trkpt lat="44.444774897439856" lon="9.03990890342049"><ele>175.0</ele><time>2026-04-19T16:07:52.999Z</time></trkpt><trkpt lat="44.444925015720486" lon="9.039723945106731"><ele>175.0</ele><time>2026-04-19T16:07:53.999Z</time></trkpt><trkpt lat="44.44507979966332" lon="9.039534132139933"><ele>175.0</ele><time>2026-04-19T16:07:54.999Z</time></trkpt><trkpt lat="44.44522642307917" lon="9.039362031781694"><ele>175.0</ele><time>2026-04-19T16:07:55.999Z</time></trkpt><trkpt lat="44.44536297209324" lon="9.039209002796147"><ele>175.0</ele><time>2026-04-19T16:07:56.999Z</time></trkpt><trkpt lat="44.44549553415864" lon="9.039052801772277"><ele>175.0</ele><time>2026-04-19T16:07:57.999Z</time></trkpt><trkpt lat="44.44564954755694" lon="9.038886632932712"><ele>174.33333333333334</ele><time>2026-04-19T16:07:58.999Z</time></trkpt><trkpt lat="44.44581035284798" lon="9.03867658342831"><ele>173.66666666666666</ele><time>2026-04-19T16:07:59.999Z</time></trkpt><trkpt lat="44.44593954535351" lon="9.038520587055032"><ele>173.0</ele><time>2026-04-19T16:08:00.999Z</time></trkpt><trkpt lat="44.446063959899" lon="9.038358134473118"><ele>178.75</ele><time>2026-04-19T16:08:01.999Z</time></trkpt><trkpt lat="44.44617547066427" lon="9.038222341060832"><ele>184.5</ele><time>2026-04-19T16:08:02.999Z</time></trkpt><trkpt lat="44.44629944134224" lon="9.038114785425625"><ele>190.25</ele><time>2026-04-19T16:08:03.999Z</time></trkpt><trkpt lat="44.446438454101816" lon="9.038039948101229"><ele>196.0</ele><time>2026-04-19T16:08:04.999Z</time></trkpt><trkpt lat="44.446604840138534" lon="9.037967234910377"><ele>196.0</ele><time>2026-04-19T16:08:05.999Z</time></trkpt><trkpt lat="44.446751532495604" lon="9.037902314221432"><ele>196.0</ele><time>2026-04-19T16:08:06.999Z</time></trkpt><trkpt lat="44.4468913699646" lon="9.037850093052514"><ele>196.0</ele><time>2026-04-19T16:08:07.999Z</time></trkpt><trkpt lat="44.44704284230564" lon="9.037831692419262"><ele>190.0</ele><time>2026-04-19T16:08:08.999Z</time></trkpt><trkpt lat="44.44719882477396" lon="9.037848558794522"><ele>184.0</ele><time>2026-04-19T16:08:09.999Z</time></trkpt><trkpt lat="44.44734625629166" lon="9.037869091822078"><ele>178.0</ele><time>2026-04-19T16:08:10.999Z</time></trkpt><trkpt lat="44.44749130482164" lon="9.037856901850185"><ele>178.0</ele><time>2026-04-19T16:08:11.999Z</time></trkpt><trkpt lat="44.44765765095993" lon="9.03780922054901"><ele>178.0</ele><time>2026-04-19T16:08:12.999Z</time></trkpt><trkpt lat="44.447834204031096" lon="9.03772550903432"><ele>178.0</ele><time>2026-04-19T16:08:13.999Z</time></trkpt><trkpt lat="44.44798493079152" lon="9.037640832662621"><ele>180.0</ele><time>2026-04-19T16:08:14.999Z</time></trkpt><trkpt lat="44.44813016750732" lon="9.037566052135125"><ele>182.0</ele><time>2026-04-19T16:08:15.999Z</time></trkpt><trkpt lat="44.44827040249541" lon="9.03750142307178"><ele>184.0</ele><time>2026-04-19T16:08:16.999Z</time></trkpt><trkpt lat="44.4484088229922" lon="9.03747439188778"><ele>186.0</ele><time>2026-04-19T16:08:17.999Z</time></trkpt><trkpt lat="44.448574188583784" lon="9.037464289613418"><ele>178.0</ele><time>2026-04-19T16:08:18.999Z</time></trkpt><trkpt lat="44.4487396851841" lon="9.03747287665701"><ele>170.0</ele><time>2026-04-19T16:08:19.999Z</time></trkpt><trkpt lat="44.448878760451855" lon="9.037491774827823"><ele>162.0</ele><time>2026-04-19T16:08:20.999Z</time></trkpt><trkpt lat="44.44901143018139" lon="9.03745042507328"><ele>154.0</ele><time>2026-04-19T16:08:21.999Z</time></trkpt><trkpt lat="44.44914605993504" lon="9.0373989055253"><ele>152.0</ele><time>2026-04-19T16:08:22.999Z</time></trkpt><trkpt lat="44.44927152817923" lon="9.037306646295868"><ele>150.0</ele><time>2026-04-19T16:08:23.999Z</time></trkpt><trkpt lat="44.4493234203609" lon="9.037131071788062"><ele>148.0</ele><time>2026-04-19T16:08:24.999Z</time></trkpt><trkpt lat="44.4493212493051" lon="9.03700831361159"><ele>146.0</ele><time>2026-04-19T16:08:25.999Z</time></trkpt><trkpt lat="44.44929951548396" lon="9.036901949794466"><ele>144.0</ele><time>2026-04-19T16:08:26.999Z</time></trkpt><trkpt lat="44.44922508616696" lon="9.036848282387432"><ele>144.0</ele><time>2026-04-19T16:08:27.999Z</time></trkpt><trkpt lat="44.44916363492549" lon="9.036683243626587"><ele>144.0</ele><time>2026-04-19T16:08:28.999Z</time></trkpt><trkpt lat="44.449075187094884" lon="9.036513883408219"><ele>144.0</ele><time>2026-04-19T16:08:29.999Z</time></trkpt><trkpt lat="44.44901721254894" lon="9.036354122961342"><ele>144.0</ele><time>2026-04-19T16:08:30.999Z</time></trkpt><trkpt lat="44.44899167903981" lon="9.036181782216412"><ele>143.66666666666666</ele><time>2026-04-19T16:08:31.999Z</time></trkpt><trkpt lat="44.44901733626971" lon="9.035979756574898"><ele>143.33333333333331</ele><time>2026-04-19T16:08:32.999Z</time></trkpt><trkpt lat="44.44906148513511" lon="9.035765104289073"><ele>143.0</ele><time>2026-04-19T16:08:33.999Z</time></trkpt><trkpt lat="44.44909412861931" lon="9.035533397595284"><ele>143.0</ele><time>2026-04-19T16:08:34.999Z</time></trkpt><trkpt lat="44.44911616481923" lon="9.03527592081523"><ele>143.0</ele><time>2026-04-19T16:08:35.999Z</time></trkpt><trkpt lat="44.449148103388474" lon="9.035027310201627"><ele>143.0</ele><time>2026-04-19T16:08:36.999Z</time></trkpt><trkpt lat="44.449195792218" lon="9.034789935529412"><ele>150.0</ele><time>2026-04-19T16:08:37.999Z</time></trkpt><trkpt lat="44.44928012556588" lon="9.034563492351133"><ele>157.0</ele><time>2026-04-19T16:08:38.999Z</time></trkpt><trkpt lat="44.44934874475147" lon="9.03434610598683"><ele>164.0</ele><time>2026-04-19T16:08:39.999Z</time></trkpt><trkpt lat="44.449418614847474" lon="9.03415244128697"><ele>171.0</ele><time>2026-04-19T16:08:40.999Z</time></trkpt><trkpt lat="44.44950394437618" lon="9.033985715891978"><ele>178.0</ele><time>2026-04-19T16:08:41.999Z</time></trkpt><trkpt lat="44.44961918186657" lon="9.03389397940476"><ele>185.0</ele><time>2026-04-19T16:08:42.999Z</time></trkpt><trkpt lat="44.449737497734404" lon="9.033771869839958"><ele>192.0</ele><time>2026-04-19T16:08:43.999Z</time></trkpt><trkpt lat="44.44984958906885" lon="9.033656602378075"><ele>186.39999999999998</ele><time>2026-04-19T16:08:44.999Z</time></trkpt><trkpt lat="44.44994954330324" lon="9.033556523568658"><ele>180.79999999999998</ele><time>2026-04-19T16:08:45.999Z</time></trkpt><trkpt lat="44.45004319018219" lon="9.033475445063655"><ele>175.2</ele><time>2026-04-19T16:08:46.999Z</time></trkpt><trkpt lat="44.450134952816434" lon="9.033404854896911"><ele>169.6</ele><time>2026-04-19T16:08:47.999Z</time></trkpt><trkpt lat="44.450220404074" lon="9.033324107282928"><ele>164.0</ele><time>2026-04-19T16:08:48.999Z</time></trkpt><trkpt lat="44.45033795150459" lon="9.033300140917405"><ele>164.0</ele><time>2026-04-19T16:08:50Z</time></trkpt><trkpt lat="44.45042984942037" lon="9.033235557108902"><ele>164.0</ele><time>2026-04-19T16:08:51Z</time></trkpt><trkpt lat="44.45052445301785" lon="9.033182026288657"><ele>164.0</ele><time>2026-04-19T16:08:52Z</time></trkpt><trkpt lat="44.45061290882419" lon="9.033143427922424"><ele>164.0</ele><time>2026-04-19T16:08:53Z</time></trkpt><trkpt lat="44.45069459337629" lon="9.03310335678118"><ele>164.0</ele><time>2026-04-19T16:08:54Z</time></trkpt><trkpt lat="44.450768154936256" lon="9.033080741150922"><ele>157.83333333333331</ele><time>2026-04-19T16:08:55Z</time></trkpt><trkpt lat="44.450841426562576" lon="9.033061462085659"><ele>151.66666666666666</ele><time>2026-04-19T16:08:56Z</time></trkpt><trkpt lat="44.450924692034604" lon="9.033040528083738"><ele>145.5</ele><time>2026-04-19T16:08:57Z</time></trkpt><trkpt lat="44.451015437336004" lon="9.033006518250547"><ele>139.33333333333334</ele><time>2026-04-19T16:08:58Z</time></trkpt><trkpt lat="44.45109096825796" lon="9.032967616631144"><ele>133.16666666666669</ele><time>2026-04-19T16:08:59Z</time></trkpt><trkpt lat="44.45116619044407" lon="9.032941475565632"><ele>127.0</ele><time>2026-04-19T16:09:00Z</time></trkpt><trkpt lat="44.45124339585153" lon="9.03290392463819"><ele>126.33333333333334</ele><time>2026-04-19T16:09:01Z</time></trkpt><trkpt lat="44.45130509496406" lon="9.03284005356209"><ele>125.66666666666667</ele><time>2026-04-19T16:09:02Z</time></trkpt><trkpt lat="44.451365358013916" lon="9.0327591373183"><ele>125.0</ele><time>2026-04-19T16:09:03Z</time></trkpt><trkpt lat="44.45140589512418" lon="9.032673948082461"><ele>124.33333333333334</ele><time>2026-04-19T16:09:04Z</time></trkpt><trkpt lat="44.45142577877746" lon="9.032569491074598"><ele>123.66666666666667</ele><time>2026-04-19T16:09:05Z</time></trkpt><trkpt lat="44.45143266698535" lon="9.032451297952528"><ele>123.0</ele><time>2026-04-19T16:09:06Z</time></trkpt><trkpt lat="44.451412698121906" lon="9.032324074828626"><ele>123.0</ele><time>2026-04-19T16:09:07Z</time></trkpt><trkpt lat="44.45137264059176" lon="9.032211217723047"><ele>123.00000000000001</ele><time>2026-04-19T16:09:08Z</time></trkpt><trkpt lat="44.45130896976044" lon="9.03209048303945"><ele>123.00000000000001</ele><time>2026-04-19T16:09:09Z</time></trkpt><trkpt lat="44.451234304664396" lon="9.032002764562819"><ele>123.0</ele><time>2026-04-19T16:09:10Z</time></trkpt><trkpt lat="44.45115307472196" lon="9.031928415627075"><ele>123.0</ele><time>2026-04-19T16:09:11Z</time></trkpt><trkpt lat="44.45105644961499" lon="9.031846630630286"><ele>123.0</ele><time>2026-04-19T16:09:12Z</time></trkpt><trkpt lat="44.45093452605245" lon="9.031744095879068"><ele>123.0</ele><time>2026-04-19T16:09:13Z</time></trkpt><trkpt lat="44.450786660992065" lon="9.031621865130676"><ele>123.0</ele><time>2026-04-19T16:09:14Z</time></trkpt><trkpt lat="44.450662300648894" lon="9.031527368391583"><ele>123.5</ele><time>2026-04-19T16:09:15Z</time></trkpt><trkpt lat="44.450576415642715" lon="9.031414509415491"><ele>124.0</ele><time>2026-04-19T16:09:16Z</time></trkpt><trkpt lat="44.45047034244076" lon="9.031309109427921"><ele>124.5</ele><time>2026-04-19T16:09:17Z</time></trkpt><trkpt lat="44.45036955976796" lon="9.031179756321372"><ele>125.0</ele><time>2026-04-19T16:09:18Z</time></trkpt><trkpt lat="44.45028031038925" lon="9.031007317671042"><ele>129.25</ele><time>2026-04-19T16:09:19Z</time></trkpt><trkpt lat="44.4502064900348" lon="9.030824245393454"><ele>133.5</ele><time>2026-04-19T16:09:20Z</time></trkpt><trkpt lat="44.45019092295562" lon="9.030643700946056"><ele>137.75</ele><time>2026-04-19T16:09:21Z</time></trkpt><trkpt lat="44.450163643619106" lon="9.030465029547956"><ele>142.0</ele><time>2026-04-19T16:09:22Z</time></trkpt><trkpt lat="44.45017660338326" lon="9.03025139736244"><ele>142.0</ele><time>2026-04-19T16:09:23Z</time></trkpt><trkpt lat="44.45023041334764" lon="9.030052262756586"><ele>142.0</ele><time>2026-04-19T16:09:24Z</time></trkpt><trkpt lat="44.4502858510058" lon="9.029885305087731"><ele>142.0</ele><time>2026-04-19T16:09:25Z</time></trkpt><trkpt lat="44.45033321470693" lon="9.029739909858513"><ele>142.0</ele><time>2026-04-19T16:09:26Z</time></trkpt><trkpt lat="44.450424690273266" lon="9.029611100478919"><ele>135.4</ele><time>2026-04-19T16:09:27Z</time></trkpt><trkpt lat="44.450503934531966" lon="9.0295045384555"><ele>128.79999999999998</ele><time>2026-04-19T16:09:28Z</time></trkpt><trkpt lat="44.45057696795262" lon="9.029403283220612"><ele>122.2</ele><time>2026-04-19T16:09:29Z</time></trkpt><trkpt lat="44.45063669464423" lon="9.029323629408998"><ele>115.6</ele><time>2026-04-19T16:09:30Z</time></trkpt><trkpt lat="44.450701157121934" lon="9.029249117003689"><ele>109.0</ele><time>2026-04-19T16:09:31Z</time></trkpt><trkpt lat="44.450749813638105" lon="9.029174623731326"><ele>110.16666666666667</ele><time>2026-04-19T16:09:32Z</time></trkpt><trkpt lat="44.45080078456993" lon="9.029076224970254"><ele>111.33333333333334</ele><time>2026-04-19T16:09:33Z</time></trkpt><trkpt lat="44.45085521370095" lon="9.02897803947392"><ele>112.5</ele><time>2026-04-19T16:09:34Z</time></trkpt><trkpt lat="44.45089431686635" lon="9.028878115480127"><ele>113.66666666666666</ele><time>2026-04-19T16:09:35Z</time></trkpt><trkpt lat="44.45091947047097" lon="9.028766618236991"><ele>114.83333333333333</ele><time>2026-04-19T16:09:36Z</time></trkpt><trkpt lat="44.450919000874464" lon="9.028638822589558"><ele>116.0</ele><time>2026-04-19T16:09:37Z</time></trkpt><trkpt lat="44.4508935447348" lon="9.028513140075194"><ele>116.0</ele><time>2026-04-19T16:09:38Z</time></trkpt><trkpt lat="44.45084810741876" lon="9.0284155313967"><ele>116.0</ele><time>2026-04-19T16:09:39Z</time></trkpt><trkpt lat="44.45077189496559" lon="9.028317797192702"><ele>116.0</ele><time>2026-04-19T16:09:40Z</time></trkpt><trkpt lat="44.45067236369574" lon="9.028205569536116"><ele>116.0</ele><time>2026-04-19T16:09:41Z</time></trkpt><trkpt lat="44.45054680213731" lon="9.02806218940209"><ele>116.25</ele><time>2026-04-19T16:09:42Z</time></trkpt><trkpt lat="44.45042692314632" lon="9.02794932375173"><ele>116.5</ele><time>2026-04-19T16:09:43Z</time></trkpt><trkpt lat="44.450285022706545" lon="9.027853343129825"><ele>116.75</ele><time>2026-04-19T16:09:44Z</time></trkpt><trkpt lat="44.450172065681535" lon="9.027756668547838"><ele>117.0</ele><time>2026-04-19T16:09:45Z</time></trkpt><trkpt lat="44.45006246059653" lon="9.02765624746306"><ele>117.0</ele><time>2026-04-19T16:09:46Z</time></trkpt><trkpt lat="44.44997458020597" lon="9.027549937697227"><ele>117.0</ele><time>2026-04-19T16:09:47Z</time></trkpt><trkpt lat="44.44987567001627" lon="9.027441754360474"><ele>117.0</ele><time>2026-04-19T16:09:48Z</time></trkpt><trkpt lat="44.44976470903855" lon="9.027321424353266"><ele>117.0</ele><time>2026-04-19T16:09:49Z</time></trkpt><trkpt lat="44.449659316626494" lon="9.027201677203731"><ele>123.0</ele><time>2026-04-19T16:09:50Z</time></trkpt><trkpt lat="44.4495754321727" lon="9.027086453377668"><ele>129.0</ele><time>2026-04-19T16:09:51Z</time></trkpt><trkpt lat="44.44948580107206" lon="9.026971885700183"><ele>135.0</ele><time>2026-04-19T16:09:52Z</time></trkpt><trkpt lat="44.44940800585873" lon="9.026871231727977"><ele>141.0</ele><time>2026-04-19T16:09:53Z</time></trkpt><trkpt lat="44.44932855665013" lon="9.026761484567313"><ele>142.75</ele><time>2026-04-19T16:09:54Z</time></trkpt><trkpt lat="44.449259091866864" lon="9.026637792388962"><ele>144.5</ele><time>2026-04-19T16:09:55Z</time></trkpt><trkpt lat="44.44919106615622" lon="9.026503539919513"><ele>146.25</ele><time>2026-04-19T16:09:55.999Z</time></trkpt><trkpt lat="44.44912233337503" lon="9.026373373432438"><ele>148.0</ele><time>2026-04-19T16:09:57.017Z</time></trkpt><trkpt lat="44.44905263994702" lon="9.026247877417607"><ele>148.0</ele><time>2026-04-19T16:09:58.023Z</time></trkpt><trkpt lat="44.44898498857679" lon="9.026123226047291"><ele>148.0</ele><time>2026-04-19T16:09:59.015Z</time></trkpt><trkpt lat="44.44892332435836" lon="9.025998269307415"><ele>148.0</ele><time>2026-04-19T16:10:00.016Z</time></trkpt><trkpt lat="44.4488802577169" lon="9.025868558611633"><ele>148.0</ele><time>2026-04-19T16:10:01.015Z</time></trkpt><trkpt lat="44.44882613244082" lon="9.025731688454389"><ele>148.0</ele><time>2026-04-19T16:10:02.015Z</time></trkpt><trkpt lat="44.44876490547148" lon="9.025557352204247"><ele>150.0</ele><time>2026-04-19T16:10:04.016Z</time></trkpt><trkpt lat="44.4486191827678" lon="9.025113855010323"><ele>152.0</ele><time>2026-04-19T16:10:07.706Z</time></trkpt><trkpt lat="44.44860377336401" lon="9.02498132396543"><ele>154.0</ele><time>2026-04-19T16:10:08.706Z</time></trkpt><trkpt lat="44.44856031669199" lon="9.024861993506423"><ele>154.0</ele><time>2026-04-19T16:10:09.706Z</time></trkpt><trkpt lat="44.44854994509034" lon="9.02472882019822"><ele>154.0</ele><time>2026-04-19T16:10:10.706Z</time></trkpt><trkpt lat="44.44851011988388" lon="9.024606470463182"><ele>154.0</ele><time>2026-04-19T16:10:11.706Z</time></trkpt><trkpt lat="44.44850626362302" lon="9.024472267521398"><ele>154.0</ele><time>2026-04-19T16:10:12.706Z</time></trkpt><trkpt lat="44.448487619209104" lon="9.024342875990842"><ele>154.0</ele><time>2026-04-19T16:10:13.703Z</time></trkpt><trkpt lat="44.44844185275179" lon="9.024085169507806"><ele>144.66666666666669</ele><time>2026-04-19T16:10:15.707Z</time></trkpt><trkpt lat="44.448447826607996" lon="9.023951391935478"><ele>135.33333333333334</ele><time>2026-04-19T16:10:16.706Z</time></trkpt><trkpt lat="44.44843834086575" lon="9.023819746373574"><ele>126.0</ele><time>2026-04-19T16:10:17.704Z</time></trkpt><trkpt lat="44.44842467071814" lon="9.02233022957481"><ele>118.25</ele><time>2026-04-19T16:10:18.999Z</time></trkpt><trkpt lat="44.4484547044565" lon="9.022155715524802"><ele>110.5</ele><time>2026-04-19T16:10:19.999Z</time></trkpt><trkpt lat="44.448464301737474" lon="9.02196343449271"><ele>102.75</ele><time>2026-04-19T16:10:20.999Z</time></trkpt><trkpt lat="44.44846550523748" lon="9.021761371450802"><ele>95.0</ele><time>2026-04-19T16:10:21.999Z</time></trkpt><trkpt lat="44.44846282167021" lon="9.021566224792501"><ele>95.0</ele><time>2026-04-19T16:10:22.999Z</time></trkpt><trkpt lat="44.448460399536145" lon="9.021415945858072"><ele>95.0</ele><time>2026-04-19T16:10:23.999Z</time></trkpt><trkpt lat="44.448461808385794" lon="9.02122512709914"><ele>95.0</ele><time>2026-04-19T16:10:24.999Z</time></trkpt><trkpt lat="44.448485867412266" lon="9.021029942025791"><ele>95.0</ele><time>2026-04-19T16:10:25.999Z</time></trkpt><trkpt lat="44.44851031894023" lon="9.020826398080738"><ele>97.25</ele><time>2026-04-19T16:10:26.999Z</time></trkpt><trkpt lat="44.44854034638869" lon="9.020625737211574"><ele>99.5</ele><time>2026-04-19T16:10:27.999Z</time></trkpt><trkpt lat="44.44857193350787" lon="9.0204194825348"><ele>101.75</ele><time>2026-04-19T16:10:28.999Z</time></trkpt><trkpt lat="44.44860610637292" lon="9.020218412734774"><ele>104.0</ele><time>2026-04-19T16:10:29.999Z</time></trkpt><trkpt lat="44.448640221268" lon="9.02000792144822"><ele>102.33333333333333</ele><time>2026-04-19T16:10:30.999Z</time></trkpt><trkpt lat="44.44868724102592" lon="9.019792317841729"><ele>100.66666666666666</ele><time>2026-04-19T16:10:31.999Z</time></trkpt><trkpt lat="44.44869951130523" lon="9.01957598368874"><ele>99.0</ele><time>2026-04-19T16:10:32.999Z</time></trkpt><trkpt lat="44.448724208461094" lon="9.019366786017116"><ele>99.0</ele><time>2026-04-19T16:10:33.999Z</time></trkpt><trkpt lat="44.44874489972479" lon="9.019157995864942"><ele>99.0</ele><time>2026-04-19T16:10:34.999Z</time></trkpt><trkpt lat="44.448780088888974" lon="9.018933853699977"><ele>99.0</ele><time>2026-04-19T16:10:35.999Z</time></trkpt><trkpt lat="44.44880022104564" lon="9.018691524956505"><ele>94.33333333333333</ele><time>2026-04-19T16:10:36.999Z</time></trkpt><trkpt lat="44.44881704327005" lon="9.018427857374677"><ele>89.66666666666666</ele><time>2026-04-19T16:10:37.999Z</time></trkpt><trkpt lat="44.44882788511898" lon="9.01815479562839"><ele>85.0</ele><time>2026-04-19T16:10:38.999Z</time></trkpt><trkpt lat="44.448830671429754" lon="9.017904872728808"><ele>84.66666666666666</ele><time>2026-04-19T16:10:39.999Z</time></trkpt><trkpt lat="44.44883151281868" lon="9.017673845862701"><ele>84.33333333333333</ele><time>2026-04-19T16:10:40.999Z</time></trkpt><trkpt lat="44.44883202480462" lon="9.017454862009412"><ele>84.0</ele><time>2026-04-19T16:10:41.999Z</time></trkpt><trkpt lat="44.4488175477241" lon="9.017250015875081"><ele>84.0</ele><time>2026-04-19T16:10:42.999Z</time></trkpt><trkpt lat="44.44881932113834" lon="9.017058118332697"><ele>84.0</ele><time>2026-04-19T16:10:43.999Z</time></trkpt><trkpt lat="44.44881524694771" lon="9.01688294327247"><ele>84.0</ele><time>2026-04-19T16:10:44.999Z</time></trkpt><trkpt lat="44.44882588444983" lon="9.016716849573747"><ele>84.0</ele><time>2026-04-19T16:10:45.999Z</time></trkpt><trkpt lat="44.44882610245912" lon="9.016560737074748"><ele>83.80000000000001</ele><time>2026-04-19T16:10:46.999Z</time></trkpt><trkpt lat="44.44882502895133" lon="9.016399567286484"><ele>83.60000000000001</ele><time>2026-04-19T16:10:47.999Z</time></trkpt><trkpt lat="44.44882459227246" lon="9.016234291094383"><ele>83.4</ele><time>2026-04-19T16:10:48.999Z</time></trkpt><trkpt lat="44.44882599410559" lon="9.016075917054664"><ele>83.2</ele><time>2026-04-19T16:10:49.999Z</time></trkpt><trkpt lat="44.44882683861627" lon="9.01593215706752"><ele>83.0</ele><time>2026-04-19T16:10:50.999Z</time></trkpt><trkpt lat="44.44883003311245" lon="9.015801073686841"><ele>82.66666666666667</ele><time>2026-04-19T16:10:51.999Z</time></trkpt><trkpt lat="44.44882932748728" lon="9.015678392476222"><ele>82.33333333333334</ele><time>2026-04-19T16:10:52.999Z</time></trkpt><trkpt lat="44.44882743747818" lon="9.015562536505296"><ele>82.0</ele><time>2026-04-19T16:10:53.999Z</time></trkpt><trkpt lat="44.448823041561276" lon="9.015450178883327"><ele>81.66666666666667</ele><time>2026-04-19T16:10:54.999Z</time></trkpt><trkpt lat="44.44881676173579" lon="9.015344930356525"><ele>81.33333333333333</ele><time>2026-04-19T16:10:56Z</time></trkpt><trkpt lat="44.44881166909929" lon="9.015236876358868"><ele>81.0</ele><time>2026-04-19T16:10:57Z</time></trkpt><trkpt lat="44.448809618311586" lon="9.015127155396462"><ele>81.0</ele><time>2026-04-19T16:10:58Z</time></trkpt><trkpt lat="44.4488055356604" lon="9.015028021284488"><ele>81.0</ele><time>2026-04-19T16:10:59Z</time></trkpt><trkpt lat="44.44880194150226" lon="9.014930070210918"><ele>81.0</ele><time>2026-04-19T16:11:00Z</time></trkpt><trkpt lat="44.44878798974559" lon="9.014816611751852"><ele>81.0</ele><time>2026-04-19T16:11:01Z</time></trkpt><trkpt lat="44.44877110338124" lon="9.014684666840505"><ele>81.0</ele><time>2026-04-19T16:11:02Z</time></trkpt><trkpt lat="44.448766140681556" lon="9.01451860452061"><ele>81.0</ele><time>2026-04-19T16:11:03Z</time></trkpt><trkpt lat="44.448775735931115" lon="9.014337373653703"><ele>81.5</ele><time>2026-04-19T16:11:04Z</time></trkpt><trkpt lat="44.44877908927453" lon="9.014164069076358"><ele>82.0</ele><time>2026-04-19T16:11:05Z</time></trkpt><trkpt lat="44.44877699846556" lon="9.013999373513458"><ele>82.5</ele><time>2026-04-19T16:11:06Z</time></trkpt><trkpt lat="44.448771802350755" lon="9.013840626819283"><ele>83.0</ele><time>2026-04-19T16:11:07Z</time></trkpt><trkpt lat="44.44876262797382" lon="9.013681687709486"><ele>83.0</ele><time>2026-04-19T16:11:08Z</time></trkpt><trkpt lat="44.44875034208136" lon="9.013512022390573"><ele>83.0</ele><time>2026-04-19T16:11:09Z</time></trkpt><trkpt lat="44.44873871359041" lon="9.013334591017964"><ele>83.0</ele><time>2026-04-19T16:11:10Z</time></trkpt><trkpt lat="44.44872273698748" lon="9.01314654293446"><ele>83.0</ele><time>2026-04-19T16:11:11Z</time></trkpt><trkpt lat="44.44869873692063" lon="9.012953586192703"><ele>82.75</ele><time>2026-04-19T16:11:12Z</time></trkpt><trkpt lat="44.44867810928619" lon="9.012772290257628"><ele>82.5</ele><time>2026-04-19T16:11:13Z</time></trkpt><trkpt lat="44.44865751506652" lon="9.012596959244513"><ele>82.25</ele><time>2026-04-19T16:11:14Z</time></trkpt><trkpt lat="44.44863502924772" lon="9.012405923558507"><ele>82.0</ele><time>2026-04-19T16:11:15Z</time></trkpt><trkpt lat="44.44861126631055" lon="9.012219550680596"><ele>82.0</ele><time>2026-04-19T16:11:16Z</time></trkpt><trkpt lat="44.44858605105026" lon="9.012046152296948"><ele>82.0</ele><time>2026-04-19T16:11:17Z</time></trkpt><trkpt lat="44.44855801275762" lon="9.01186830378634"><ele>82.0</ele><time>2026-04-19T16:11:18Z</time></trkpt><trkpt lat="44.44853040488341" lon="9.011694221138537"><ele>82.0</ele><time>2026-04-19T16:11:19Z</time></trkpt><trkpt lat="44.448505069912976" lon="9.011536954907372"><ele>81.39999999999999</ele><time>2026-04-19T16:11:20Z</time></trkpt><trkpt lat="44.44847175083198" lon="9.011384589638038"><ele>80.8</ele><time>2026-04-19T16:11:21Z</time></trkpt><trkpt lat="44.44844464328271" lon="9.011242153014924"><ele>80.2</ele><time>2026-04-19T16:11:22Z</time></trkpt><trkpt lat="44.44841843681552" lon="9.011103784788435"><ele>79.6</ele><time>2026-04-19T16:11:23Z</time></trkpt><trkpt lat="44.44840047205551" lon="9.010943131648038"><ele>79.0</ele><time>2026-04-19T16:11:24Z</time></trkpt><trkpt lat="44.44836344872187" lon="9.010761321286495"><ele>79.0</ele><time>2026-04-19T16:11:25Z</time></trkpt><trkpt lat="44.44832484586727" lon="9.01057553687846"><ele>79.0</ele><time>2026-04-19T16:11:26Z</time></trkpt><trkpt lat="44.44829251826931" lon="9.01042186984174"><ele>79.0</ele><time>2026-04-19T16:11:27Z</time></trkpt><trkpt lat="44.448247897776" lon="9.01029676772066"><ele>79.0</ele><time>2026-04-19T16:11:28Z</time></trkpt><trkpt lat="44.44822413510324" lon="9.010175991562722"><ele>79.0</ele><time>2026-04-19T16:11:29Z</time></trkpt><trkpt lat="44.44819707381436" lon="9.010063385951947"><ele>79.0</ele><time>2026-04-19T16:11:30Z</time></trkpt><trkpt lat="44.44817149315007" lon="9.009952927526054"><ele>79.0</ele><time>2026-04-19T16:11:31Z</time></trkpt><trkpt lat="44.44815932633556" lon="9.009833641440741"><ele>79.0</ele><time>2026-04-19T16:11:32Z</time></trkpt><trkpt lat="44.4481206305767" lon="9.009731138532704"><ele>79.0</ele><time>2026-04-19T16:11:33Z</time></trkpt><trkpt lat="44.44808948713816" lon="9.009573827408937"><ele>79.0</ele><time>2026-04-19T16:11:35Z</time></trkpt><trkpt lat="44.448062436399695" lon="9.00946164334656"><ele>79.0</ele><time>2026-04-19T16:11:37Z</time></trkpt><trkpt lat="44.44803184941405" lon="9.009354184126561"><ele>79.0</ele><time>2026-04-19T16:11:40Z</time></trkpt><trkpt lat="44.44800387405703" lon="9.00918039044044"><ele>79.0</ele><time>2026-04-19T16:11:42Z</time></trkpt><trkpt lat="44.4479626137958" lon="9.009040786679824"><ele>79.0</ele><time>2026-04-19T16:11:43Z</time></trkpt><trkpt lat="44.447921144657926" lon="9.008890374585276"><ele>79.0</ele><time>2026-04-19T16:11:44Z</time></trkpt><trkpt lat="44.447882913939374" lon="9.008730879703988"><ele>78.8</ele><time>2026-04-19T16:11:45Z</time></trkpt><trkpt lat="44.44783334148844" lon="9.008564246080207"><ele>78.60000000000001</ele><time>2026-04-19T16:11:46Z</time></trkpt><trkpt lat="44.44778572451297" lon="9.008418799643298"><ele>78.4</ele><time>2026-04-19T16:11:47Z</time></trkpt><trkpt lat="44.44774417665945" lon="9.008297878534599"><ele>78.2</ele><time>2026-04-19T16:11:48Z</time></trkpt><trkpt lat="44.447716102581" lon="9.008158845509865"><ele>78.0</ele><time>2026-04-19T16:11:49Z</time></trkpt><trkpt lat="44.44766994218422" lon="9.008019894711047"><ele>78.0</ele><time>2026-04-19T16:11:50Z</time></trkpt><trkpt lat="44.44761867390148" lon="9.007865568725602"><ele>78.0</ele><time>2026-04-19T16:11:51Z</time></trkpt><trkpt lat="44.447565513880534" lon="9.00770581292572"><ele>78.0</ele><time>2026-04-19T16:11:52Z</time></trkpt><trkpt lat="44.447507338242424" lon="9.007531454917887"><ele>78.0</ele><time>2026-04-19T16:11:53Z</time></trkpt><trkpt lat="44.44746151806298" lon="9.007394127385593"><ele>77.5</ele><time>2026-04-19T16:11:54Z</time></trkpt><trkpt lat="44.44733546092425" lon="9.006987414792155"><ele>77.0</ele><time>2026-04-19T16:11:55Z</time></trkpt><trkpt lat="44.44727352450949" lon="9.00680189439013"><ele>76.5</ele><time>2026-04-19T16:11:56Z</time></trkpt><trkpt lat="44.44720667491757" lon="9.006632893883284"><ele>76.0</ele><time>2026-04-19T16:11:57Z</time></trkpt><trkpt lat="44.44715372564721" lon="9.00645112999416"><ele>75.5</ele><time>2026-04-19T16:11:58Z</time></trkpt><trkpt lat="44.447101453555064" lon="9.006261830956776"><ele>75.0</ele><time>2026-04-19T16:11:59Z</time></trkpt><trkpt lat="44.44705044286728" lon="9.00606408742142"><ele>79.5</ele><time>2026-04-19T16:12:00Z</time></trkpt><trkpt lat="44.44700393409872" lon="9.005855328309519"><ele>84.0</ele><time>2026-04-19T16:12:01Z</time></trkpt><trkpt lat="44.44697077453669" lon="9.005664833960976"><ele>88.5</ele><time>2026-04-19T16:12:02Z</time></trkpt><trkpt lat="44.446942503385344" lon="9.005479440836204"><ele>93.0</ele><time>2026-04-19T16:12:03Z</time></trkpt><trkpt lat="44.44691235561595" lon="9.005278935453736"><ele>93.0</ele><time>2026-04-19T16:12:03.999Z</time></trkpt><trkpt lat="44.446884516633666" lon="9.005081352513772"><ele>93.0</ele><time>2026-04-19T16:12:04.999Z</time></trkpt><trkpt lat="44.44686028650073" lon="9.004900574911536"><ele>93.0</ele><time>2026-04-19T16:12:05.999Z</time></trkpt><trkpt lat="44.446838391688" lon="9.004715932863975"><ele>93.0</ele><time>2026-04-19T16:12:06.999Z</time></trkpt><trkpt lat="44.4468232719718" lon="9.004519147927079"><ele>92.66666666666667</ele><time>2026-04-19T16:12:07.999Z</time></trkpt><trkpt lat="44.44680862901631" lon="9.004311963800857"><ele>92.33333333333334</ele><time>2026-04-19T16:12:08.999Z</time></trkpt><trkpt lat="44.44680023698812" lon="9.00409931807276"><ele>92.0</ele><time>2026-04-19T16:12:09.999Z</time></trkpt><trkpt lat="44.44680348012704" lon="9.003888081568217"><ele>91.0</ele><time>2026-04-19T16:12:10.999Z</time></trkpt><trkpt lat="44.446816306440944" lon="9.003694983994947"><ele>90.0</ele><time>2026-04-19T16:12:11.999Z</time></trkpt><trkpt lat="44.446827943269575" lon="9.003515179018395"><ele>89.0</ele><time>2026-04-19T16:12:12.999Z</time></trkpt><trkpt lat="44.44684411994798" lon="9.00333525630797"><ele>88.0</ele><time>2026-04-19T16:12:13.999Z</time></trkpt><trkpt lat="44.446862403467094" lon="9.003161922865145"><ele>86.0</ele><time>2026-04-19T16:12:14.999Z</time></trkpt><trkpt lat="44.44688194176245" lon="9.002997486680993"><ele>84.0</ele><time>2026-04-19T16:12:15.999Z</time></trkpt><trkpt lat="44.446918204016065" lon="9.002828045718628"><ele>82.0</ele><time>2026-04-19T16:12:16.999Z</time></trkpt><trkpt lat="44.44694253569358" lon="9.00265527681602"><ele>80.0</ele><time>2026-04-19T16:12:17.999Z</time></trkpt><trkpt lat="44.44695797250451" lon="9.002460496766147"><ele>79.0</ele><time>2026-04-19T16:12:18.999Z</time></trkpt><trkpt lat="44.446979290604155" lon="9.002274269100207"><ele>78.0</ele><time>2026-04-19T16:12:19.999Z</time></trkpt><trkpt lat="44.447005053134" lon="9.00208757670156"><ele>77.0</ele><time>2026-04-19T16:12:20.999Z</time></trkpt><trkpt lat="44.447027304816785" lon="9.001891678916024"><ele>76.0</ele><time>2026-04-19T16:12:21.999Z</time></trkpt><trkpt lat="44.44705460844284" lon="9.001699703501288"><ele>76.5</ele><time>2026-04-19T16:12:22.999Z</time></trkpt><trkpt lat="44.44707906471731" lon="9.001504423117888"><ele>77.0</ele><time>2026-04-19T16:12:23.999Z</time></trkpt><trkpt lat="44.44710635460058" lon="9.001310631259786"><ele>77.5</ele><time>2026-04-19T16:12:24.999Z</time></trkpt><trkpt lat="44.447142365121884" lon="9.001113083423046"><ele>78.0</ele><time>2026-04-19T16:12:25.999Z</time></trkpt><trkpt lat="44.44718474245255" lon="9.000921672968033"><ele>77.0</ele><time>2026-04-19T16:12:26.999Z</time></trkpt><trkpt lat="44.447237688360005" lon="9.000741703221774"><ele>76.0</ele><time>2026-04-19T16:12:27.999Z</time></trkpt><trkpt lat="44.44728803480365" lon="9.000556021135582"><ele>75.0</ele><time>2026-04-19T16:12:28.999Z</time></trkpt><trkpt lat="44.44734003685834" lon="9.000349833570557"><ele>74.0</ele><time>2026-04-19T16:12:29.999Z</time></trkpt><trkpt lat="44.44739169822414" lon="9.00012724859243"><ele>74.0</ele><time>2026-04-19T16:12:30.999Z</time></trkpt><trkpt lat="44.44744650487004" lon="8.999907145893593"><ele>74.0</ele><time>2026-04-19T16:12:31.999Z</time></trkpt><trkpt lat="44.447488322995" lon="8.999731425401063"><ele>74.0</ele><time>2026-04-19T16:12:32.999Z</time></trkpt><trkpt lat="44.44753882024477" lon="8.999545772886043"><ele>74.0</ele><time>2026-04-19T16:12:33.999Z</time></trkpt><trkpt lat="44.4475667330335" lon="8.999370681254007"><ele>74.0</ele><time>2026-04-19T16:12:34.999Z</time></trkpt><trkpt lat="44.44762591255649" lon="8.999208519518708"><ele>74.0</ele><time>2026-04-19T16:12:35.999Z</time></trkpt><trkpt lat="44.447653682755934" lon="8.999042198215472"><ele>74.0</ele><time>2026-04-19T16:12:36.999Z</time></trkpt><trkpt lat="44.447691984719036" lon="8.998884699650915"><ele>74.0</ele><time>2026-04-19T16:12:37.999Z</time></trkpt><trkpt lat="44.447737313335935" lon="8.998711423534305"><ele>73.8</ele><time>2026-04-19T16:12:38.999Z</time></trkpt><trkpt lat="44.44778424331616" lon="8.998552792501096"><ele>73.60000000000001</ele><time>2026-04-19T16:12:39.999Z</time></trkpt><trkpt lat="44.44782314276835" lon="8.998405722004337"><ele>73.4</ele><time>2026-04-19T16:12:40.999Z</time></trkpt><trkpt lat="44.447858360081035" lon="8.99826668033773"><ele>73.2</ele><time>2026-04-19T16:12:41.999Z</time></trkpt><trkpt lat="44.447892001731034" lon="8.998138026032576"><ele>73.0</ele><time>2026-04-19T16:12:42.999Z</time></trkpt><trkpt lat="44.44792631130448" lon="8.998013007063587"><ele>73.0</ele><time>2026-04-19T16:12:43.999Z</time></trkpt><trkpt lat="44.4479568317288" lon="8.997892120534395"><ele>73.0</ele><time>2026-04-19T16:12:44.999Z</time></trkpt><trkpt lat="44.44798712833092" lon="8.997781960553377"><ele>73.0</ele><time>2026-04-19T16:12:45.999Z</time></trkpt><trkpt lat="44.448014366512005" lon="8.997680358246306"><ele>73.0</ele><time>2026-04-19T16:12:46.999Z</time></trkpt><trkpt lat="44.44804237154786" lon="8.997571278372144"><ele>73.0</ele><time>2026-04-19T16:12:47.999Z</time></trkpt><trkpt lat="44.448068531683205" lon="8.997465642879716"><ele>73.0</ele><time>2026-04-19T16:12:48.999Z</time></trkpt><trkpt lat="44.4480917037503" lon="8.997378213126854"><ele>72.33333333333333</ele><time>2026-04-19T16:12:49.999Z</time></trkpt><trkpt lat="44.448127384309295" lon="8.99724205484277"><ele>71.66666666666666</ele><time>2026-04-19T16:12:51.999Z</time></trkpt><trkpt lat="44.44815322150998" lon="8.997137650837914"><ele>71.0</ele><time>2026-04-19T16:12:53.999Z</time></trkpt><trkpt lat="44.44819367230134" lon="8.996990756745873"><ele>70.33333333333333</ele><time>2026-04-19T16:13:07Z</time></trkpt><trkpt lat="44.44821613043789" lon="8.996903421866937"><ele>69.66666666666667</ele><time>2026-04-19T16:13:08Z</time></trkpt><trkpt lat="44.448243370492186" lon="8.996795482552905"><ele>69.0</ele><time>2026-04-19T16:13:09Z</time></trkpt><trkpt lat="44.44827526798839" lon="8.99666701890571"><ele>68.75</ele><time>2026-04-19T16:13:10Z</time></trkpt><trkpt lat="44.44831246733403" lon="8.99651416079135"><ele>68.5</ele><time>2026-04-19T16:13:11Z</time></trkpt><trkpt lat="44.44835110872046" lon="8.996361667496947"><ele>68.25</ele><time>2026-04-19T16:13:12Z</time></trkpt><trkpt lat="44.448396922597446" lon="8.996194706200288"><ele>68.0</ele><time>2026-04-19T16:13:13Z</time></trkpt><trkpt lat="44.44844115106701" lon="8.996027621625993"><ele>68.0</ele><time>2026-04-19T16:13:14Z</time></trkpt><trkpt lat="44.44848924201616" lon="8.995853621701404"><ele>68.0</ele><time>2026-04-19T16:13:15Z</time></trkpt><trkpt lat="44.448538659318494" lon="8.995661205276466"><ele>68.0</ele><time>2026-04-19T16:13:16Z</time></trkpt><trkpt lat="44.44858887442688" lon="8.995468697443288"><ele>68.0</ele><time>2026-04-19T16:13:17Z</time></trkpt><trkpt lat="44.44864580831343" lon="8.995279260247322"><ele>68.0</ele><time>2026-04-19T16:13:18Z</time></trkpt><trkpt lat="44.44870061599215" lon="8.99507447525234"><ele>68.0</ele><time>2026-04-19T16:13:19Z</time></trkpt><trkpt lat="44.4487541281521" lon="8.994864767262744"><ele>68.0</ele><time>2026-04-19T16:13:20Z</time></trkpt><trkpt lat="44.448812871863105" lon="8.994642182764357"><ele>68.0</ele><time>2026-04-19T16:13:21Z</time></trkpt><trkpt lat="44.44887384002627" lon="8.994406587592895"><ele>68.0</ele><time>2026-04-19T16:13:22Z</time></trkpt><trkpt lat="44.44893271681345" lon="8.994171328619194"><ele>68.0</ele><time>2026-04-19T16:13:23Z</time></trkpt><trkpt lat="44.44899236401954" lon="8.993953670055856"><ele>68.0</ele><time>2026-04-19T16:13:24Z</time></trkpt><trkpt lat="44.44905896637873" lon="8.993734749527198"><ele>68.0</ele><time>2026-04-19T16:13:25Z</time></trkpt><trkpt lat="44.44913453572204" lon="8.993513665645702"><ele>68.0</ele><time>2026-04-19T16:13:26Z</time></trkpt><trkpt lat="44.449225497802686" lon="8.993301473144415"><ele>68.66666666666667</ele><time>2026-04-19T16:13:27Z</time></trkpt><trkpt lat="44.449326727249655" lon="8.993092808543873"><ele>69.33333333333333</ele><time>2026-04-19T16:13:28Z</time></trkpt><trkpt lat="44.44943025418407" lon="8.992897472516022"><ele>70.0</ele><time>2026-04-19T16:13:29Z</time></trkpt><trkpt lat="44.449530058746944" lon="8.99272378795026"><ele>69.66666666666666</ele><time>2026-04-19T16:13:30Z</time></trkpt><trkpt lat="44.44963183522703" lon="8.992550533983232"><ele>69.33333333333333</ele><time>2026-04-19T16:13:31Z</time></trkpt><trkpt lat="44.44973575226454" lon="8.99238354843292"><ele>69.0</ele><time>2026-04-19T16:13:32Z</time></trkpt><trkpt lat="44.44982667199599" lon="8.992225662232077"><ele>67.66666666666667</ele><time>2026-04-19T16:13:33Z</time></trkpt><trkpt lat="44.44992453547351" lon="8.992069325422326"><ele>66.33333333333334</ele><time>2026-04-19T16:13:34Z</time></trkpt><trkpt lat="44.45003360159787" lon="8.991918010352453"><ele>65.0</ele><time>2026-04-19T16:13:35Z</time></trkpt><trkpt lat="44.45016591246112" lon="8.99178192500577"><ele>67.66666666666667</ele><time>2026-04-19T16:13:36Z</time></trkpt><trkpt lat="44.450300679093544" lon="8.991668217558614"><ele>70.33333333333333</ele><time>2026-04-19T16:13:37Z</time></trkpt><trkpt lat="44.45043527255056" lon="8.991589981256718"><ele>73.0</ele><time>2026-04-19T16:13:38Z</time></trkpt><trkpt lat="44.45058247574291" lon="8.991537181302492"><ele>73.0</ele><time>2026-04-19T16:13:39Z</time></trkpt><trkpt lat="44.4507433822133" lon="8.991510021820996"><ele>73.0</ele><time>2026-04-19T16:13:40Z</time></trkpt><trkpt lat="44.45090730143187" lon="8.991496329385264"><ele>73.0</ele><time>2026-04-19T16:13:41Z</time></trkpt><trkpt lat="44.45105623986275" lon="8.991516030437456"><ele>73.0</ele><time>2026-04-19T16:13:42Z</time></trkpt><trkpt lat="44.45120292964517" lon="8.991555472045581"><ele>73.0</ele><time>2026-04-19T16:13:43Z</time></trkpt><trkpt lat="44.45133881289518" lon="8.991598582138955"><ele>73.0</ele><time>2026-04-19T16:13:44Z</time></trkpt><trkpt lat="44.451461036585414" lon="8.991618511223912"><ele>73.0</ele><time>2026-04-19T16:13:45Z</time></trkpt><trkpt lat="44.45159005264098" lon="8.991612530032386"><ele>71.5</ele><time>2026-04-19T16:13:46Z</time></trkpt><trkpt lat="44.451725665562655" lon="8.991573949424748"><ele>70.0</ele><time>2026-04-19T16:13:47Z</time></trkpt><trkpt lat="44.45186290511471" lon="8.99149554764886"><ele>68.5</ele><time>2026-04-19T16:13:48Z</time></trkpt><trkpt lat="44.451984417523214" lon="8.991397127938816"><ele>67.0</ele><time>2026-04-19T16:13:49Z</time></trkpt><trkpt lat="44.45210347729517" lon="8.991266752542202"><ele>66.0</ele><time>2026-04-19T16:13:50Z</time></trkpt><trkpt lat="44.45222719814726" lon="8.99111229917898"><ele>65.0</ele><time>2026-04-19T16:13:51Z</time></trkpt><trkpt lat="44.452360297753216" lon="8.990941682653801"><ele>64.0</ele><time>2026-04-19T16:13:52Z</time></trkpt><trkpt lat="44.45246762086151" lon="8.990776590632297"><ele>64.0</ele><time>2026-04-19T16:13:53Z</time></trkpt><trkpt lat="44.452557340543855" lon="8.990613898731748"><ele>64.0</ele><time>2026-04-19T16:13:54Z</time></trkpt><trkpt lat="44.45265179442509" lon="8.990440592011081"><ele>64.0</ele><time>2026-04-19T16:13:55Z</time></trkpt><trkpt lat="44.4527443391688" lon="8.99025191121922"><ele>64.0</ele><time>2026-04-19T16:13:56Z</time></trkpt><trkpt lat="44.45282876027614" lon="8.990044222401622"><ele>64.0</ele><time>2026-04-19T16:13:57Z</time></trkpt><trkpt lat="44.452904293249084" lon="8.989833567867716"><ele>64.0</ele><time>2026-04-19T16:13:58Z</time></trkpt><trkpt lat="44.45296647786809" lon="8.989636573683773"><ele>62.666666666666664</ele><time>2026-04-19T16:13:59Z</time></trkpt><trkpt lat="44.453030337379865" lon="8.989427721956252"><ele>61.33333333333333</ele><time>2026-04-19T16:14:00Z</time></trkpt><trkpt lat="44.4530933479027" lon="8.989204665694423"><ele>60.0</ele><time>2026-04-19T16:14:01Z</time></trkpt><trkpt lat="44.453150001970634" lon="8.988976384036027"><ele>60.0</ele><time>2026-04-19T16:14:02Z</time></trkpt><trkpt lat="44.45320270797308" lon="8.988764889241045"><ele>60.0</ele><time>2026-04-19T16:14:03Z</time></trkpt><trkpt lat="44.45325139228177" lon="8.988578548546636"><ele>60.0</ele><time>2026-04-19T16:14:04Z</time></trkpt><trkpt lat="44.453305464582535" lon="8.988390865306938"><ele>60.0</ele><time>2026-04-19T16:14:05Z</time></trkpt><trkpt lat="44.453357430327465" lon="8.98819583241391"><ele>59.66666666666667</ele><time>2026-04-19T16:14:06Z</time></trkpt><trkpt lat="44.45341165537801" lon="8.987996504831973"><ele>59.333333333333336</ele><time>2026-04-19T16:14:06.999Z</time></trkpt><trkpt lat="44.45346538400968" lon="8.987791172732397"><ele>59.0</ele><time>2026-04-19T16:14:07.999Z</time></trkpt><trkpt lat="44.453520170883245" lon="8.987582611568438"><ele>62.5</ele><time>2026-04-19T16:14:08.999Z</time></trkpt><trkpt lat="44.45357123338764" lon="8.987387871309664"><ele>66.0</ele><time>2026-04-19T16:14:09.999Z</time></trkpt><trkpt lat="44.45361936224976" lon="8.987198955214652"><ele>69.5</ele><time>2026-04-19T16:14:10.999Z</time></trkpt><trkpt lat="44.453670288232175" lon="8.987007959642703"><ele>73.0</ele><time>2026-04-19T16:14:11.999Z</time></trkpt><trkpt lat="44.45372159824398" lon="8.986812231815342"><ele>76.66666666666666</ele><time>2026-04-19T16:14:12.999Z</time></trkpt><trkpt lat="44.45376572777035" lon="8.986602900502431"><ele>80.33333333333333</ele><time>2026-04-19T16:14:13.999Z</time></trkpt><trkpt lat="44.453806175786426" lon="8.986390357028679"><ele>84.0</ele><time>2026-04-19T16:14:14.999Z</time></trkpt><trkpt lat="44.45383625073999" lon="8.986175089839454"><ele>75.0</ele><time>2026-04-19T16:14:15.999Z</time></trkpt><trkpt lat="44.45386240230937" lon="8.985949085962682"><ele>66.0</ele><time>2026-04-19T16:14:16.999Z</time></trkpt><trkpt lat="44.45387998129926" lon="8.985726847196554"><ele>57.0</ele><time>2026-04-19T16:14:17.999Z</time></trkpt><trkpt lat="44.453891725353756" lon="8.985493424403948"><ele>56.66666666666667</ele><time>2026-04-19T16:14:18.999Z</time></trkpt><trkpt lat="44.45389855001421" lon="8.98526078396504"><ele>56.333333333333336</ele><time>2026-04-19T16:14:19.999Z</time></trkpt><trkpt lat="44.45389913418744" lon="8.98503167051054"><ele>56.0</ele><time>2026-04-19T16:14:20.999Z</time></trkpt><trkpt lat="44.45388864831067" lon="8.984822921629368"><ele>56.0</ele><time>2026-04-19T16:14:21.999Z</time></trkpt><trkpt lat="44.45387456429603" lon="8.984612816676954"><ele>56.0</ele><time>2026-04-19T16:14:22.999Z</time></trkpt><trkpt lat="44.45384841753316" lon="8.984402716735131"><ele>56.0</ele><time>2026-04-19T16:14:23.999Z</time></trkpt><trkpt lat="44.45381814498072" lon="8.984183314878285"><ele>56.66666666666667</ele><time>2026-04-19T16:14:24.999Z</time></trkpt><trkpt lat="44.45377974594698" lon="8.983961976875282"><ele>57.33333333333333</ele><time>2026-04-19T16:14:25.999Z</time></trkpt><trkpt lat="44.45373319898691" lon="8.983743047819939"><ele>58.0</ele><time>2026-04-19T16:14:26.999Z</time></trkpt><trkpt lat="44.45368194854497" lon="8.983516380532041"><ele>57.25</ele><time>2026-04-19T16:14:27.999Z</time></trkpt><trkpt lat="44.45363117799164" lon="8.983300570055935"><ele>56.5</ele><time>2026-04-19T16:14:28.999Z</time></trkpt><trkpt lat="44.45358350461077" lon="8.983107510491754"><ele>55.75</ele><time>2026-04-19T16:14:29.999Z</time></trkpt><trkpt lat="44.45353869615129" lon="8.98292611481206"><ele>55.0</ele><time>2026-04-19T16:14:30.999Z</time></trkpt><trkpt lat="44.4534986435334" lon="8.982758847200973"><ele>55.0</ele><time>2026-04-19T16:14:31.999Z</time></trkpt><trkpt lat="44.453461970427455" lon="8.982602277221027"><ele>55.0</ele><time>2026-04-19T16:14:32.999Z</time></trkpt><trkpt lat="44.453428470445715" lon="8.982462358782323"><ele>55.0</ele><time>2026-04-19T16:14:33.999Z</time></trkpt><trkpt lat="44.45339283752618" lon="8.98230891101833"><ele>55.0</ele><time>2026-04-19T16:14:34.999Z</time></trkpt><trkpt lat="44.4533491634124" lon="8.982122291804703"><ele>54.8</ele><time>2026-04-19T16:14:35.999Z</time></trkpt><trkpt lat="44.45331034417287" lon="8.981966303452731"><ele>54.6</ele><time>2026-04-19T16:14:36.999Z</time></trkpt><trkpt lat="44.453276069017434" lon="8.981822545629264"><ele>54.400000000000006</ele><time>2026-04-19T16:14:37.999Z</time></trkpt><trkpt lat="44.453238215952695" lon="8.981670592054064"><ele>54.2</ele><time>2026-04-19T16:14:38.999Z</time></trkpt><trkpt lat="44.453208088364896" lon="8.981540539071327"><ele>54.0</ele><time>2026-04-19T16:14:39.999Z</time></trkpt><trkpt lat="44.453174870356" lon="8.981419830699918"><ele>53.833333333333336</ele><time>2026-04-19T16:14:40.999Z</time></trkpt><trkpt lat="44.453147525645385" lon="8.981314597745522"><ele>53.66666666666667</ele><time>2026-04-19T16:14:41.999Z</time></trkpt><trkpt lat="44.45312230449599" lon="8.981220241793192"><ele>53.5</ele><time>2026-04-19T16:14:42.999Z</time></trkpt><trkpt lat="44.45307858077309" lon="8.98103644039956"><ele>53.333333333333336</ele><time>2026-04-19T16:14:44.999Z</time></trkpt><trkpt lat="44.45305563204695" lon="8.980953324271608"><ele>53.16666666666667</ele><time>2026-04-19T16:14:47.999Z</time></trkpt><trkpt lat="44.4530179660286" lon="8.980836273172685"><ele>53.0</ele><time>2026-04-19T16:14:56.999Z</time></trkpt><trkpt lat="44.45299293469371" lon="8.980727403860365"><ele>53.0</ele><time>2026-04-19T16:14:57.999Z</time></trkpt><trkpt lat="44.452959150802506" lon="8.980584286731668"><ele>53.0</ele><time>2026-04-19T16:14:58.999Z</time></trkpt><trkpt lat="44.4529416935773" lon="8.980431760850637"><ele>53.0</ele><time>2026-04-19T16:14:59.999Z</time></trkpt><trkpt lat="44.452904465782396" lon="8.980262303336676"><ele>53.0</ele><time>2026-04-19T16:15:00.999Z</time></trkpt><trkpt lat="44.45286739951787" lon="8.980102327885243"><ele>56.5</ele><time>2026-04-19T16:15:01.999Z</time></trkpt><trkpt lat="44.452829068811724" lon="8.979942652213154"><ele>60.0</ele><time>2026-04-19T16:15:02.999Z</time></trkpt><trkpt lat="44.452794894877755" lon="8.979800292409456"><ele>63.5</ele><time>2026-04-19T16:15:03.999Z</time></trkpt><trkpt lat="44.45274261024806" lon="8.979655199078465"><ele>67.0</ele><time>2026-04-19T16:15:04.999Z</time></trkpt><trkpt lat="44.452701358310875" lon="8.97949804091963"><ele>67.0</ele><time>2026-04-19T16:15:05.999Z</time></trkpt><trkpt lat="44.452662849799445" lon="8.979311996441544"><ele>67.0</ele><time>2026-04-19T16:15:06.999Z</time></trkpt><trkpt lat="44.4526237127359" lon="8.97914913725454"><ele>67.0</ele><time>2026-04-19T16:15:08Z</time></trkpt><trkpt lat="44.45257374588416" lon="8.97897684439363"><ele>67.0</ele><time>2026-04-19T16:15:09Z</time></trkpt><trkpt lat="44.45251987301594" lon="8.97880763762547"><ele>66.75</ele><time>2026-04-19T16:15:10Z</time></trkpt><trkpt lat="44.452465032624396" lon="8.978640774016641"><ele>66.5</ele><time>2026-04-19T16:15:11Z</time></trkpt><trkpt lat="44.45240269590026" lon="8.978479792308393"><ele>66.25</ele><time>2026-04-19T16:15:12Z</time></trkpt><trkpt lat="44.452338214433595" lon="8.978306577425384"><ele>66.0</ele><time>2026-04-19T16:15:13Z</time></trkpt><trkpt lat="44.45226722230468" lon="8.97812293050409"><ele>66.0</ele><time>2026-04-19T16:15:14Z</time></trkpt><trkpt lat="44.45219059963808" lon="8.97793593636673"><ele>66.0</ele><time>2026-04-19T16:15:15Z</time></trkpt><trkpt lat="44.45211907084366" lon="8.977767999369211"><ele>66.0</ele><time>2026-04-19T16:15:16Z</time></trkpt><trkpt lat="44.452047405108914" lon="8.977608262847573"><ele>66.0</ele><time>2026-04-19T16:15:17Z</time></trkpt><trkpt lat="44.45197276928872" lon="8.977450069177562"><ele>66.0</ele><time>2026-04-19T16:15:18Z</time></trkpt><trkpt lat="44.45189787878106" lon="8.977290479846664"><ele>66.0</ele><time>2026-04-19T16:15:19Z</time></trkpt><trkpt lat="44.45181709716818" lon="8.977126433705248"><ele>66.0</ele><time>2026-04-19T16:15:20Z</time></trkpt><trkpt lat="44.4517315731109" lon="8.976968036732393"><ele>66.0</ele><time>2026-04-19T16:15:21Z</time></trkpt><trkpt lat="44.45164816783759" lon="8.976809401298892"><ele>63.75</ele><time>2026-04-19T16:15:22Z</time></trkpt><trkpt lat="44.45155886962445" lon="8.976644903079864"><ele>61.5</ele><time>2026-04-19T16:15:23Z</time></trkpt><trkpt lat="44.45146613445985" lon="8.976483928117549"><ele>59.25</ele><time>2026-04-19T16:15:24Z</time></trkpt><trkpt lat="44.4513749587436" lon="8.976334596145568"><ele>57.0</ele><time>2026-04-19T16:15:25Z</time></trkpt><trkpt lat="44.45129063385139" lon="8.976194955294254"><ele>55.0</ele><time>2026-04-19T16:15:26Z</time></trkpt><trkpt lat="44.451199384306705" lon="8.976046669261795"><ele>53.0</ele><time>2026-04-19T16:15:27Z</time></trkpt><trkpt lat="44.45109862082974" lon="8.97590145777331"><ele>51.0</ele><time>2026-04-19T16:15:28Z</time></trkpt><trkpt lat="44.451007305419964" lon="8.975763978725293"><ele>49.0</ele><time>2026-04-19T16:15:29Z</time></trkpt><trkpt lat="44.45091448013686" lon="8.975632145541896"><ele>49.0</ele><time>2026-04-19T16:15:30Z</time></trkpt><trkpt lat="44.45081817061504" lon="8.975494475416358"><ele>49.0</ele><time>2026-04-19T16:15:31Z</time></trkpt><trkpt lat="44.45071139358598" lon="8.975351800769142"><ele>49.0</ele><time>2026-04-19T16:15:32Z</time></trkpt><trkpt lat="44.45059748632177" lon="8.975197789493448"><ele>49.0</ele><time>2026-04-19T16:15:33Z</time></trkpt><trkpt lat="44.450475942635585" lon="8.97503965306963"><ele>52.0</ele><time>2026-04-19T16:15:34Z</time></trkpt><trkpt lat="44.45034802588405" lon="8.97487762495902"><ele>55.0</ele><time>2026-04-19T16:15:35Z</time></trkpt><trkpt lat="44.450233537801786" lon="8.97472975649972"><ele>58.0</ele><time>2026-04-19T16:15:36Z</time></trkpt><trkpt lat="44.45012450812775" lon="8.974586275556543"><ele>58.0</ele><time>2026-04-19T16:15:37Z</time></trkpt><trkpt lat="44.4500156666209" lon="8.974445077945319"><ele>58.0</ele><time>2026-04-19T16:15:38Z</time></trkpt><trkpt lat="44.44990746223174" lon="8.97430866094557"><ele>58.0</ele><time>2026-04-19T16:15:39Z</time></trkpt><trkpt lat="44.449800955839144" lon="8.974163110807458"><ele>58.0</ele><time>2026-04-19T16:15:40Z</time></trkpt><trkpt lat="44.449684133334976" lon="8.974014139896742"><ele>57.5</ele><time>2026-04-19T16:15:41Z</time></trkpt><trkpt lat="44.44958182547898" lon="8.973878866589693"><ele>57.0</ele><time>2026-04-19T16:15:42Z</time></trkpt><trkpt lat="44.4494811953641" lon="8.973750110537704"><ele>56.5</ele><time>2026-04-19T16:15:43Z</time></trkpt><trkpt lat="44.449374977413335" lon="8.973618545123557"><ele>56.0</ele><time>2026-04-19T16:15:44Z</time></trkpt><trkpt lat="44.44927333507458" lon="8.973480434917466"><ele>54.0</ele><time>2026-04-19T16:15:45Z</time></trkpt><trkpt lat="44.44916030120754" lon="8.973346659428584"><ele>52.0</ele><time>2026-04-19T16:15:46Z</time></trkpt><trkpt lat="44.44906218462322" lon="8.9732182859303"><ele>50.0</ele><time>2026-04-19T16:15:47Z</time></trkpt><trkpt lat="44.448958277941564" lon="8.973103074487723"><ele>48.0</ele><time>2026-04-19T16:15:48Z</time></trkpt><trkpt lat="44.4488550439695" lon="8.972979968553373"><ele>47.25</ele><time>2026-04-19T16:15:49Z</time></trkpt><trkpt lat="44.44876384899406" lon="8.972866438500734"><ele>46.5</ele><time>2026-04-19T16:15:50Z</time></trkpt><trkpt lat="44.44866776164797" lon="8.972747732245029"><ele>45.75</ele><time>2026-04-19T16:15:51Z</time></trkpt><trkpt lat="44.44856391598051" lon="8.972625364890078"><ele>45.0</ele><time>2026-04-19T16:15:52Z</time></trkpt><trkpt lat="44.44846305764091" lon="8.972509385716693"><ele>45.0</ele><time>2026-04-19T16:15:53Z</time></trkpt><trkpt lat="44.4483726313331" lon="8.972405222279411"><ele>45.0</ele><time>2026-04-19T16:15:54Z</time></trkpt><trkpt lat="44.448292188996795" lon="8.97231284200163"><ele>45.0</ele><time>2026-04-19T16:15:55Z</time></trkpt><trkpt lat="44.44822442317373" lon="8.972227989885644"><ele>45.0</ele><time>2026-04-19T16:15:56Z</time></trkpt><trkpt lat="44.44816759212653" lon="8.97215816188495"><ele>45.0</ele><time>2026-04-19T16:15:57Z</time></trkpt><trkpt lat="44.44811727249229" lon="8.972101574796634"><ele>45.0</ele><time>2026-04-19T16:15:58Z</time></trkpt><trkpt lat="44.448035161121076" lon="8.971995943722739"><ele>45.0</ele><time>2026-04-19T16:16:00Z</time></trkpt><trkpt lat="44.44796494398595" lon="8.971920372320827"><ele>45.0</ele><time>2026-04-19T16:16:02Z</time></trkpt><trkpt lat="44.4479016131378" lon="8.971837238149222"><ele>45.0</ele><time>2026-04-19T16:16:04Z</time></trkpt><trkpt lat="44.44781186103946" lon="8.971726968629678"><ele>45.0</ele><time>2026-04-19T16:16:06Z</time></trkpt><trkpt lat="44.44775792545543" lon="8.971653134166312"><ele>45.333333333333336</ele><time>2026-04-19T16:16:07Z</time></trkpt><trkpt lat="44.447686598799166" lon="8.971579824604463"><ele>45.666666666666664</ele><time>2026-04-19T16:16:08Z</time></trkpt><trkpt lat="44.44762006674619" lon="8.971506551115404"><ele>46.0</ele><time>2026-04-19T16:16:09Z</time></trkpt><trkpt lat="44.44754762903188" lon="8.97142199292"><ele>46.33333333333333</ele><time>2026-04-19T16:16:10Z</time></trkpt><trkpt lat="44.44748359333693" lon="8.971343121152579"><ele>46.666666666666664</ele><time>2026-04-19T16:16:11Z</time></trkpt><trkpt lat="44.44742127382847" lon="8.971261608810618"><ele>47.0</ele><time>2026-04-19T16:16:12Z</time></trkpt><trkpt lat="44.4473564316782" lon="8.971181446743648"><ele>47.0</ele><time>2026-04-19T16:16:12.999Z</time></trkpt><trkpt lat="44.447281039782936" lon="8.971092411015062"><ele>47.0</ele><time>2026-04-19T16:16:13.999Z</time></trkpt><trkpt lat="44.447200862009524" lon="8.970996720134428"><ele>47.0</ele><time>2026-04-19T16:16:14.999Z</time></trkpt><trkpt lat="44.447113729805" lon="8.970899383884761"><ele>47.0</ele><time>2026-04-19T16:16:15.999Z</time></trkpt><trkpt lat="44.44701955691295" lon="8.970795567214568"><ele>47.0</ele><time>2026-04-19T16:16:16.999Z</time></trkpt><trkpt lat="44.44691802946132" lon="8.970675547088137"><ele>46.5</ele><time>2026-04-19T16:16:17.999Z</time></trkpt><trkpt lat="44.44682888640125" lon="8.970554379976464"><ele>46.0</ele><time>2026-04-19T16:16:18.999Z</time></trkpt><trkpt lat="44.446742364491186" lon="8.97043042870949"><ele>45.5</ele><time>2026-04-19T16:16:19.999Z</time></trkpt><trkpt lat="44.446644851372675" lon="8.970332025309911"><ele>45.0</ele><time>2026-04-19T16:16:20.999Z</time></trkpt><trkpt lat="44.44654239080243" lon="8.970200379256614"><ele>45.0</ele><time>2026-04-19T16:16:21.999Z</time></trkpt><trkpt lat="44.44644920320339" lon="8.970049515658896"><ele>45.0</ele><time>2026-04-19T16:16:22.999Z</time></trkpt><trkpt lat="44.446349530893194" lon="8.969918525468817"><ele>45.0</ele><time>2026-04-19T16:16:23.999Z</time></trkpt><trkpt lat="44.44624578205302" lon="8.96979791556638"><ele>45.0</ele><time>2026-04-19T16:16:24.999Z</time></trkpt><trkpt lat="44.44613544419306" lon="8.969651558164754"><ele>45.0</ele><time>2026-04-19T16:16:25.999Z</time></trkpt><trkpt lat="44.44601896316586" lon="8.969493753353559"><ele>45.0</ele><time>2026-04-19T16:16:26.999Z</time></trkpt><trkpt lat="44.44589688398008" lon="8.969334408250116"><ele>45.0</ele><time>2026-04-19T16:16:27.999Z</time></trkpt><trkpt lat="44.44578977954607" lon="8.96918702871228"><ele>44.75</ele><time>2026-04-19T16:16:28.999Z</time></trkpt><trkpt lat="44.44568240260565" lon="8.96904516952634"><ele>44.5</ele><time>2026-04-19T16:16:29.999Z</time></trkpt><trkpt lat="44.44558380697979" lon="8.968904107829593"><ele>44.25</ele><time>2026-04-19T16:16:30.999Z</time></trkpt><trkpt lat="44.445479877157574" lon="8.968767496867827"><ele>44.0</ele><time>2026-04-19T16:16:31.999Z</time></trkpt><trkpt lat="44.445376763106" lon="8.968619477479784"><ele>44.0</ele><time>2026-04-19T16:16:32.999Z</time></trkpt><trkpt lat="44.445275559645964" lon="8.968478873473961"><ele>44.0</ele><time>2026-04-19T16:16:33.999Z</time></trkpt><trkpt lat="44.4451776939234" lon="8.968341307721847"><ele>44.0</ele><time>2026-04-19T16:16:34.999Z</time></trkpt><trkpt lat="44.44508261437745" lon="8.968207957505737"><ele>44.0</ele><time>2026-04-19T16:16:35.999Z</time></trkpt><trkpt lat="44.44498187115648" lon="8.968064495853389"><ele>43.75</ele><time>2026-04-19T16:16:36.999Z</time></trkpt><trkpt lat="44.44487616500102" lon="8.967920898687145"><ele>43.5</ele><time>2026-04-19T16:16:37.999Z</time></trkpt><trkpt lat="44.44477413850292" lon="8.967779085455495"><ele>43.25</ele><time>2026-04-19T16:16:38.999Z</time></trkpt><trkpt lat="44.4446785573614" lon="8.967651340654898"><ele>43.0</ele><time>2026-04-19T16:16:39.999Z</time></trkpt><trkpt lat="44.44457845119654" lon="8.967517153447613"><ele>42.66666666666667</ele><time>2026-04-19T16:16:40.999Z</time></trkpt><trkpt lat="44.44446952116693" lon="8.967375954200481"><ele>42.333333333333336</ele><time>2026-04-19T16:16:41.999Z</time></trkpt><trkpt lat="44.44436011546504" lon="8.96723042906038"><ele>42.0</ele><time>2026-04-19T16:16:42.999Z</time></trkpt><trkpt lat="44.44424687196421" lon="8.967089575501168"><ele>42.0</ele><time>2026-04-19T16:16:43.999Z</time></trkpt><trkpt lat="44.44412553528254" lon="8.96694597576183"><ele>42.0</ele><time>2026-04-19T16:16:44.999Z</time></trkpt><trkpt lat="44.44400546605365" lon="8.966804369129106"><ele>42.0</ele><time>2026-04-19T16:16:45.999Z</time></trkpt><trkpt lat="44.44388753699764" lon="8.966687780862529"><ele>42.0</ele><time>2026-04-19T16:16:46.999Z</time></trkpt><trkpt lat="44.44377055015086" lon="8.966565599452103"><ele>42.0</ele><time>2026-04-19T16:16:47.999Z</time></trkpt><trkpt lat="44.443653739685466" lon="8.966451784896332"><ele>42.0</ele><time>2026-04-19T16:16:48.999Z</time></trkpt><trkpt lat="44.44354392338292" lon="8.966346878943861"><ele>42.0</ele><time>2026-04-19T16:16:49.999Z</time></trkpt><trkpt lat="44.44344310379399" lon="8.966250025493295"><ele>42.0</ele><time>2026-04-19T16:16:50.999Z</time></trkpt><trkpt lat="44.443337054501995" lon="8.966167713820091"><ele>42.0</ele><time>2026-04-19T16:16:51.999Z</time></trkpt><trkpt lat="44.443224788023166" lon="8.966073178462956"><ele>42.0</ele><time>2026-04-19T16:16:52.999Z</time></trkpt><trkpt lat="44.443104815299435" lon="8.965970884567096"><ele>42.0</ele><time>2026-04-19T16:16:53.999Z</time></trkpt><trkpt lat="44.44299757980666" lon="8.965870241939431"><ele>41.75</ele><time>2026-04-19T16:16:54.999Z</time></trkpt><trkpt lat="44.442892122696726" lon="8.96578443158256"><ele>41.5</ele><time>2026-04-19T16:16:55.999Z</time></trkpt><trkpt lat="44.4427942384364" lon="8.965695372578164"><ele>41.25</ele><time>2026-04-19T16:16:56.999Z</time></trkpt><trkpt lat="44.4426870627136" lon="8.965620746848119"><ele>41.0</ele><time>2026-04-19T16:16:57.999Z</time></trkpt><trkpt lat="44.442589759597325" lon="8.965534068124182"><ele>41.0</ele><time>2026-04-19T16:16:58.999Z</time></trkpt><trkpt lat="44.442495155589896" lon="8.965461171394628"><ele>41.0</ele><time>2026-04-19T16:16:59.999Z</time></trkpt><trkpt lat="44.44240605802403" lon="8.965402539399776"><ele>41.0</ele><time>2026-04-19T16:17:00.999Z</time></trkpt><trkpt lat="44.44232878172031" lon="8.965340396910019"><ele>41.0</ele><time>2026-04-19T16:17:01.999Z</time></trkpt><trkpt lat="44.4422596013267" lon="8.965316902754497"><ele>41.0</ele><time>2026-04-19T16:17:02.999Z</time></trkpt><trkpt lat="44.44219829542574" lon="8.965262828885692"><ele>41.0</ele><time>2026-04-19T16:17:03.999Z</time></trkpt><trkpt lat="44.44208911329736" lon="8.965212070349395"><ele>40.599999999999994</ele><time>2026-04-19T16:17:05.999Z</time></trkpt><trkpt lat="44.44200561862901" lon="8.965161482198907"><ele>40.199999999999996</ele><time>2026-04-19T16:17:07.999Z</time></trkpt><trkpt lat="44.44188536876877" lon="8.965051659203445"><ele>39.8</ele><time>2026-04-19T16:17:09.999Z</time></trkpt><trkpt lat="44.44180085590634" lon="8.964995164013022"><ele>39.4</ele><time>2026-04-19T16:17:10.999Z</time></trkpt><trkpt lat="44.441701287669105" lon="8.964926975336265"><ele>39.0</ele><time>2026-04-19T16:17:11.999Z</time></trkpt><trkpt lat="44.44159778104433" lon="8.964853786911835"><ele>38.5</ele><time>2026-04-19T16:17:12.999Z</time></trkpt><trkpt lat="44.44148706750557" lon="8.964775530314986"><ele>38.0</ele><time>2026-04-19T16:17:14Z</time></trkpt><trkpt lat="44.44138025108237" lon="8.964707769407408"><ele>37.5</ele><time>2026-04-19T16:17:15Z</time></trkpt><trkpt lat="44.44125712469821" lon="8.964638614168658"><ele>37.0</ele><time>2026-04-19T16:17:16Z</time></trkpt><trkpt lat="44.44111521364989" lon="8.964551380843252"><ele>38.0</ele><time>2026-04-19T16:17:17Z</time></trkpt><trkpt lat="44.44096877181015" lon="8.964462568962025"><ele>39.0</ele><time>2026-04-19T16:17:18Z</time></trkpt><trkpt lat="44.4408275976641" lon="8.96438838047969"><ele>40.0</ele><time>2026-04-19T16:17:19Z</time></trkpt><trkpt lat="44.440699321411124" lon="8.964314989241881"><ele>41.0</ele><time>2026-04-19T16:17:20Z</time></trkpt><trkpt lat="44.44056944186485" lon="8.964249220821886"><ele>40.25</ele><time>2026-04-19T16:17:21Z</time></trkpt><trkpt lat="44.44043421757106" lon="8.964180856552723"><ele>39.5</ele><time>2026-04-19T16:17:22Z</time></trkpt><trkpt lat="44.440314475765454" lon="8.964125995719789"><ele>38.75</ele><time>2026-04-19T16:17:23Z</time></trkpt><trkpt lat="44.440190244565954" lon="8.964076137339642"><ele>38.0</ele><time>2026-04-19T16:17:24Z</time></trkpt><trkpt lat="44.440054598627015" lon="8.964019971152764"><ele>38.0</ele><time>2026-04-19T16:17:25Z</time></trkpt><trkpt lat="44.439932148313936" lon="8.963974280999107"><ele>38.0</ele><time>2026-04-19T16:17:26Z</time></trkpt><trkpt lat="44.4398199084465" lon="8.9639322757251"><ele>38.0</ele><time>2026-04-19T16:17:27Z</time></trkpt><trkpt lat="44.43970423799064" lon="8.963892125664717"><ele>38.0</ele><time>2026-04-19T16:17:28Z</time></trkpt><trkpt lat="44.43957266051076" lon="8.963848271855495"><ele>37.75</ele><time>2026-04-19T16:17:29Z</time></trkpt><trkpt lat="44.43946247091423" lon="8.963798642395567"><ele>37.5</ele><time>2026-04-19T16:17:30Z</time></trkpt><trkpt lat="44.43934030938893" lon="8.963756015500934"><ele>37.25</ele><time>2026-04-19T16:17:31Z</time></trkpt><trkpt lat="44.43920320980396" lon="8.963715684406482"><ele>37.0</ele><time>2026-04-19T16:17:32Z</time></trkpt><trkpt lat="44.43908167370124" lon="8.963686175946663"><ele>37.0</ele><time>2026-04-19T16:17:33Z</time></trkpt><trkpt lat="44.438963849649916" lon="8.963660946139756"><ele>37.0</ele><time>2026-04-19T16:17:34Z</time></trkpt><trkpt lat="44.43884625070368" lon="8.963624920866286"><ele>37.0</ele><time>2026-04-19T16:17:35Z</time></trkpt><trkpt lat="44.43872336908969" lon="8.963590710026352"><ele>37.0</ele><time>2026-04-19T16:17:36Z</time></trkpt><trkpt lat="44.438607447098654" lon="8.963563243312759"><ele>37.25</ele><time>2026-04-19T16:17:37Z</time></trkpt><trkpt lat="44.438492547923786" lon="8.963528720248515"><ele>37.5</ele><time>2026-04-19T16:17:38Z</time></trkpt><trkpt lat="44.438375969531705" lon="8.96350580665186"><ele>37.75</ele><time>2026-04-19T16:17:39Z</time></trkpt><trkpt lat="44.43825688980237" lon="8.963484654445082"><ele>38.0</ele><time>2026-04-19T16:17:40Z</time></trkpt><trkpt lat="44.438140288788645" lon="8.963470018023123"><ele>38.0</ele><time>2026-04-19T16:17:41Z</time></trkpt><trkpt lat="44.438023179391934" lon="8.963452126855792"><ele>38.0</ele><time>2026-04-19T16:17:42Z</time></trkpt><trkpt lat="44.437894447747" lon="8.963422174759172"><ele>38.0</ele><time>2026-04-19T16:17:43Z</time></trkpt><trkpt lat="44.437753564999184" lon="8.963396277866515"><ele>38.0</ele><time>2026-04-19T16:17:44Z</time></trkpt><trkpt lat="44.43759647226727" lon="8.963366842511151"><ele>37.25</ele><time>2026-04-19T16:17:45Z</time></trkpt><trkpt lat="44.43743032341223" lon="8.963336104675607"><ele>36.5</ele><time>2026-04-19T16:17:46Z</time></trkpt><trkpt lat="44.43728830501248" lon="8.963300843582502"><ele>35.75</ele><time>2026-04-19T16:17:47Z</time></trkpt><trkpt lat="44.43715339630926" lon="8.963274817296934"><ele>35.0</ele><time>2026-04-19T16:17:48Z</time></trkpt><trkpt lat="44.43702419864318" lon="8.963245637780668"><ele>35.0</ele><time>2026-04-19T16:17:49Z</time></trkpt><trkpt lat="44.436886461999244" lon="8.963224702599152"><ele>35.0</ele><time>2026-04-19T16:17:50Z</time></trkpt><trkpt lat="44.436743900249326" lon="8.963199637623683"><ele>35.0</ele><time>2026-04-19T16:17:51Z</time></trkpt><trkpt lat="44.43661034589254" lon="8.963171262054464"><ele>35.0</ele><time>2026-04-19T16:17:52Z</time></trkpt><trkpt lat="44.43648217699239" lon="8.963146544294455"><ele>35.0</ele><time>2026-04-19T16:17:53Z</time></trkpt><trkpt lat="44.43636889364608" lon="8.963130174395992"><ele>35.0</ele><time>2026-04-19T16:17:54Z</time></trkpt><trkpt lat="44.436264993407974" lon="8.963117689286458"><ele>35.0</ele><time>2026-04-19T16:17:55Z</time></trkpt><trkpt lat="44.43616779617236" lon="8.96310821839449"><ele>35.0</ele><time>2026-04-19T16:17:56Z</time></trkpt><trkpt lat="44.436082660458204" lon="8.963098709452055"><ele>35.0</ele><time>2026-04-19T16:17:57Z</time></trkpt><trkpt lat="44.43600345007847" lon="8.96308169696963"><ele>34.6</ele><time>2026-04-19T16:17:58Z</time></trkpt><trkpt lat="44.435924481026284" lon="8.963069346582854"><ele>34.2</ele><time>2026-04-19T16:17:59Z</time></trkpt><trkpt lat="44.435831675990485" lon="8.963026704336457"><ele>33.8</ele><time>2026-04-19T16:18:00Z</time></trkpt><trkpt lat="44.43573427035681" lon="8.962985193273003"><ele>33.4</ele><time>2026-04-19T16:18:01Z</time></trkpt><trkpt lat="44.435637635926035" lon="8.962937722436052"><ele>33.0</ele><time>2026-04-19T16:18:02Z</time></trkpt><trkpt lat="44.43553160037655" lon="8.962889706733208"><ele>34.25</ele><time>2026-04-19T16:18:03Z</time></trkpt><trkpt lat="44.43542910310841" lon="8.962836909082746"><ele>35.5</ele><time>2026-04-19T16:18:04Z</time></trkpt><trkpt lat="44.43531081651736" lon="8.962787023042528"><ele>36.75</ele><time>2026-04-19T16:18:05Z</time></trkpt><trkpt lat="44.43518321131832" lon="8.962734954276533"><ele>38.0</ele><time>2026-04-19T16:18:06Z</time></trkpt><trkpt lat="44.43506260294234" lon="8.96267297836987"><ele>38.0</ele><time>2026-04-19T16:18:07Z</time></trkpt><trkpt lat="44.43493740575491" lon="8.962622160128587"><ele>38.0</ele><time>2026-04-19T16:18:08Z</time></trkpt><trkpt lat="44.434812588441496" lon="8.962554390757456"><ele>38.0</ele><time>2026-04-19T16:18:09Z</time></trkpt><trkpt lat="44.43468187234921" lon="8.962477746320253"><ele>38.0</ele><time>2026-04-19T16:18:10Z</time></trkpt><trkpt lat="44.434542831849214" lon="8.96240441849115"><ele>36.25</ele><time>2026-04-19T16:18:11Z</time></trkpt><trkpt lat="44.43441667046319" lon="8.962337178416707"><ele>34.5</ele><time>2026-04-19T16:18:12Z</time></trkpt><trkpt lat="44.43431070583532" lon="8.962269962676269"><ele>32.75</ele><time>2026-04-19T16:18:13Z</time></trkpt><trkpt lat="44.434214144646525" lon="8.962197382999069"><ele>31.0</ele><time>2026-04-19T16:18:14Z</time></trkpt><trkpt lat="44.43412899859227" lon="8.962131428706403"><ele>31.000000000000004</ele><time>2026-04-19T16:18:15Z</time></trkpt><trkpt lat="44.434045671454754" lon="8.96207267209113"><ele>31.0</ele><time>2026-04-19T16:18:16Z</time></trkpt><trkpt lat="44.433968925746164" lon="8.96201407178636"><ele>31.0</ele><time>2026-04-19T16:18:17Z</time></trkpt><trkpt lat="44.433898610830276" lon="8.961959712797864"><ele>31.0</ele><time>2026-04-19T16:18:18Z</time></trkpt><trkpt lat="44.433836811097" lon="8.961913263383902"><ele>31.000000000000004</ele><time>2026-04-19T16:18:19Z</time></trkpt><trkpt lat="44.43374323384648" lon="8.961840067258501"><ele>31.0</ele><time>2026-04-19T16:18:20.999Z</time></trkpt><trkpt lat="44.433664167742336" lon="8.961767180987671"><ele>31.0</ele><time>2026-04-19T16:18:47.999Z</time></trkpt><trkpt lat="44.433603494724935" lon="8.96170650115384"><ele>31.0</ele><time>2026-04-19T16:18:48.999Z</time></trkpt><trkpt lat="44.43352647955307" lon="8.961640470494892"><ele>31.0</ele><time>2026-04-19T16:18:49.999Z</time></trkpt><trkpt lat="44.4334395375394" lon="8.961569182080678"><ele>31.0</ele><time>2026-04-19T16:18:50.999Z</time></trkpt><trkpt lat="44.43335813016071" lon="8.96148764140475"><ele>31.0</ele><time>2026-04-19T16:18:51.999Z</time></trkpt><trkpt lat="44.43327610639485" lon="8.961403152350435"><ele>31.0</ele><time>2026-04-19T16:18:52.999Z</time></trkpt><trkpt lat="44.433182691798955" lon="8.961317590638956"><ele>31.0</ele><time>2026-04-19T16:18:53.999Z</time></trkpt><trkpt lat="44.43309308253426" lon="8.961223660534763"><ele>31.0</ele><time>2026-04-19T16:18:54.999Z</time></trkpt><trkpt lat="44.43299331988346" lon="8.961115338798363"><ele>31.0</ele><time>2026-04-19T16:18:55.999Z</time></trkpt><trkpt lat="44.432890258708895" lon="8.960989374762148"><ele>31.5</ele><time>2026-04-19T16:18:56.999Z</time></trkpt><trkpt lat="44.43277719918254" lon="8.960863175987521"><ele>32.0</ele><time>2026-04-19T16:18:57.999Z</time></trkpt><trkpt lat="44.432670674727405" lon="8.960739513756652"><ele>32.5</ele><time>2026-04-19T16:18:58.999Z</time></trkpt><trkpt lat="44.43255442818932" lon="8.960618969150602"><ele>33.0</ele><time>2026-04-19T16:18:59.999Z</time></trkpt><trkpt lat="44.432440540954474" lon="8.96047807962448"><ele>33.0</ele><time>2026-04-19T16:19:00.999Z</time></trkpt><trkpt lat="44.43232835488773" lon="8.960342993310277"><ele>33.0</ele><time>2026-04-19T16:19:01.999Z</time></trkpt><trkpt lat="44.432208498878836" lon="8.960207767272916"><ele>33.0</ele><time>2026-04-19T16:19:02.999Z</time></trkpt><trkpt lat="44.43208376618536" lon="8.960077429121771"><ele>32.333333333333336</ele><time>2026-04-19T16:19:03.999Z</time></trkpt><trkpt lat="44.431962387192975" lon="8.959941086471861"><ele>31.666666666666668</ele><time>2026-04-19T16:19:04.999Z</time></trkpt><trkpt lat="44.43184421764119" lon="8.959795311969168"><ele>31.0</ele><time>2026-04-19T16:19:05.999Z</time></trkpt><trkpt lat="44.43172584266134" lon="8.959660508944076"><ele>31.0</ele><time>2026-04-19T16:19:06.999Z</time></trkpt><trkpt lat="44.43161027259174" lon="8.95953405437388"><ele>31.0</ele><time>2026-04-19T16:19:07.999Z</time></trkpt><trkpt lat="44.43150098186287" lon="8.959401611572737"><ele>31.0</ele><time>2026-04-19T16:19:08.999Z</time></trkpt><trkpt lat="44.431382726713984" lon="8.95926777855208"><ele>31.0</ele><time>2026-04-19T16:19:09.999Z</time></trkpt><trkpt lat="44.43125914766178" lon="8.95913940852716"><ele>31.333333333333336</ele><time>2026-04-19T16:19:10.999Z</time></trkpt><trkpt lat="44.43113236581269" lon="8.958996876069511"><ele>31.666666666666664</ele><time>2026-04-19T16:19:11.999Z</time></trkpt><trkpt lat="44.43100750814465" lon="8.958850639387876"><ele>32.0</ele><time>2026-04-19T16:19:12.999Z</time></trkpt><trkpt lat="44.43088098092251" lon="8.958718485823848"><ele>32.0</ele><time>2026-04-19T16:19:13.999Z</time></trkpt><trkpt lat="44.430765103748335" lon="8.958587617486115"><ele>32.0</ele><time>2026-04-19T16:19:14.999Z</time></trkpt><trkpt lat="44.430652432174625" lon="8.958460644359555"><ele>32.0</ele><time>2026-04-19T16:19:15.999Z</time></trkpt><trkpt lat="44.430532780177245" lon="8.9583281369337"><ele>32.0</ele><time>2026-04-19T16:19:16.999Z</time></trkpt><trkpt lat="44.43040947585591" lon="8.95818997506814"><ele>30.666666666666664</ele><time>2026-04-19T16:19:17.999Z</time></trkpt><trkpt lat="44.430286711027684" lon="8.95804217827235"><ele>29.333333333333336</ele><time>2026-04-19T16:19:18.999Z</time></trkpt><trkpt lat="44.43016224517595" lon="8.957906032558775"><ele>28.0</ele><time>2026-04-19T16:19:20Z</time></trkpt><trkpt lat="44.430052612511524" lon="8.957778997260865"><ele>28.0</ele><time>2026-04-19T16:19:21Z</time></trkpt><trkpt lat="44.42993986612178" lon="8.957644487402929"><ele>28.0</ele><time>2026-04-19T16:19:22Z</time></trkpt><trkpt lat="44.42982396054395" lon="8.957509642855063"><ele>28.0</ele><time>2026-04-19T16:19:23Z</time></trkpt><trkpt lat="44.42970557136639" lon="8.957366783878241"><ele>29.0</ele><time>2026-04-19T16:19:24Z</time></trkpt><trkpt lat="44.42959901755199" lon="8.957227865078139"><ele>30.0</ele><time>2026-04-19T16:19:25Z</time></trkpt><trkpt lat="44.42950398184413" lon="8.95709596684638"><ele>31.0</ele><time>2026-04-19T16:19:26Z</time></trkpt><trkpt lat="44.42940459290596" lon="8.95696210654292"><ele>32.0</ele><time>2026-04-19T16:19:27Z</time></trkpt><trkpt lat="44.429304118584085" lon="8.956828468718609"><ele>30.75</ele><time>2026-04-19T16:19:28Z</time></trkpt><trkpt lat="44.42921958597737" lon="8.956695341537927"><ele>29.5</ele><time>2026-04-19T16:19:29Z</time></trkpt><trkpt lat="44.42913766659216" lon="8.956572239627183"><ele>28.25</ele><time>2026-04-19T16:19:30Z</time></trkpt><trkpt lat="44.429055454474074" lon="8.956436254936644"><ele>27.0</ele><time>2026-04-19T16:19:31Z</time></trkpt><trkpt lat="44.42897055266832" lon="8.956275746334184"><ele>27.0</ele><time>2026-04-19T16:19:32Z</time></trkpt><trkpt lat="44.42887525412474" lon="8.956119573419144"><ele>27.0</ele><time>2026-04-19T16:19:33Z</time></trkpt><trkpt lat="44.42878390684663" lon="8.955953910510765"><ele>27.0</ele><time>2026-04-19T16:19:34Z</time></trkpt><trkpt lat="44.42870555026836" lon="8.955803564888523"><ele>27.0</ele><time>2026-04-19T16:19:35Z</time></trkpt><trkpt lat="44.428635494715934" lon="8.955661923814164"><ele>29.5</ele><time>2026-04-19T16:19:36Z</time></trkpt><trkpt lat="44.428572638795416" lon="8.955525315349997"><ele>32.0</ele><time>2026-04-19T16:19:37Z</time></trkpt><trkpt lat="44.42850779258823" lon="8.955382596400314"><ele>34.5</ele><time>2026-04-19T16:19:38Z</time></trkpt><trkpt lat="44.42844469259862" lon="8.955230510878884"><ele>37.0</ele><time>2026-04-19T16:19:39Z</time></trkpt><trkpt lat="44.42838358835114" lon="8.955088712526866"><ele>35.5</ele><time>2026-04-19T16:19:40Z</time></trkpt><trkpt lat="44.42832170439294" lon="8.954945061600945"><ele>34.0</ele><time>2026-04-19T16:19:41Z</time></trkpt><trkpt lat="44.42826632113706" lon="8.954792895815721"><ele>32.5</ele><time>2026-04-19T16:19:42Z</time></trkpt><trkpt lat="44.42820545631267" lon="8.954631318856359"><ele>31.0</ele><time>2026-04-19T16:19:43Z</time></trkpt><trkpt lat="44.42814195755959" lon="8.954458536331616"><ele>31.0</ele><time>2026-04-19T16:19:44Z</time></trkpt><trkpt lat="44.42809018042981" lon="8.954308004310686"><ele>31.0</ele><time>2026-04-19T16:19:45Z</time></trkpt><trkpt lat="44.42804424310691" lon="8.95415829494969"><ele>31.0</ele><time>2026-04-19T16:19:46Z</time></trkpt><trkpt lat="44.42800090422459" lon="8.954002409421117"><ele>31.0</ele><time>2026-04-19T16:19:47Z</time></trkpt><trkpt lat="44.42796033839322" lon="8.953845163478"><ele>35.6</ele><time>2026-04-19T16:19:48Z</time></trkpt><trkpt lat="44.4279252639888" lon="8.953699862363605"><ele>40.2</ele><time>2026-04-19T16:19:49Z</time></trkpt><trkpt lat="44.42791022468184" lon="8.953542741063663"><ele>44.800000000000004</ele><time>2026-04-19T16:19:50Z</time></trkpt><trkpt lat="44.42787952029299" lon="8.953403304069695"><ele>49.400000000000006</ele><time>2026-04-19T16:19:51Z</time></trkpt><trkpt lat="44.42784911698755" lon="8.953265234220734"><ele>54.0</ele><time>2026-04-19T16:19:52Z</time></trkpt><trkpt lat="44.42782047088832" lon="8.953132194575632"><ele>54.0</ele><time>2026-04-19T16:19:53Z</time></trkpt><trkpt lat="44.427794891538845" lon="8.953011808613331"><ele>54.00000000000001</ele><time>2026-04-19T16:19:54Z</time></trkpt><trkpt lat="44.427774923782636" lon="8.952917832996095"><ele>54.00000000000001</ele><time>2026-04-19T16:19:55Z</time></trkpt><trkpt lat="44.427745828961164" lon="8.952780901738347"><ele>54.0</ele><time>2026-04-19T16:19:56Z</time></trkpt><trkpt lat="44.427713902322" lon="8.952629490374123"><ele>54.0</ele><time>2026-04-19T16:19:57Z</time></trkpt><trkpt lat="44.427680064959894" lon="8.952467826232"><ele>51.400000000000006</ele><time>2026-04-19T16:19:58Z</time></trkpt><trkpt lat="44.4276334041589" lon="8.952309873251346"><ele>48.800000000000004</ele><time>2026-04-19T16:19:59Z</time></trkpt><trkpt lat="44.42760385270606" lon="8.952139933540325"><ele>46.2</ele><time>2026-04-19T16:20:00Z</time></trkpt><trkpt lat="44.42758030338207" lon="8.952008534066758"><ele>43.599999999999994</ele><time>2026-04-19T16:20:01Z</time></trkpt><trkpt lat="44.42754046002229" lon="8.951875844475985"><ele>41.0</ele><time>2026-04-19T16:20:02Z</time></trkpt><trkpt lat="44.42751618743814" lon="8.951748647335533"><ele>38.4</ele><time>2026-04-19T16:20:03Z</time></trkpt><trkpt lat="44.42749688760815" lon="8.951629275319664"><ele>35.8</ele><time>2026-04-19T16:20:04Z</time></trkpt><trkpt lat="44.42746602982143" lon="8.951496836974343"><ele>33.199999999999996</ele><time>2026-04-19T16:20:05Z</time></trkpt><trkpt lat="44.42744193387787" lon="8.951347947015632"><ele>30.599999999999998</ele><time>2026-04-19T16:20:06Z</time></trkpt><trkpt lat="44.42741424275568" lon="8.951205851149606"><ele>28.0</ele><time>2026-04-19T16:20:07Z</time></trkpt><trkpt lat="44.4273844220013" lon="8.951082292098235"><ele>28.0</ele><time>2026-04-19T16:20:08Z</time></trkpt><trkpt lat="44.4273557884493" lon="8.950948047257143"><ele>27.999999999999996</ele><time>2026-04-19T16:20:09Z</time></trkpt><trkpt lat="44.42732465975457" lon="8.950801419292116"><ele>27.999999999999996</ele><time>2026-04-19T16:20:10Z</time></trkpt><trkpt lat="44.42728826257602" lon="8.95066530104696"><ele>28.0</ele><time>2026-04-19T16:20:11Z</time></trkpt><trkpt lat="44.4272486563388" lon="8.950531492550974"><ele>28.0</ele><time>2026-04-19T16:20:12Z</time></trkpt><trkpt lat="44.42720060739589" lon="8.950393766635898"><ele>29.0</ele><time>2026-04-19T16:20:13Z</time></trkpt><trkpt lat="44.42714363360797" lon="8.95024947215162"><ele>30.0</ele><time>2026-04-19T16:20:14Z</time></trkpt><trkpt lat="44.427081772999315" lon="8.950100530376146"><ele>31.0</ele><time>2026-04-19T16:20:15Z</time></trkpt><trkpt lat="44.42701458967445" lon="8.949972286617447"><ele>32.0</ele><time>2026-04-19T16:20:16Z</time></trkpt><trkpt lat="44.426949963355376" lon="8.949843067702387"><ele>32.0</ele><time>2026-04-19T16:20:17Z</time></trkpt><trkpt lat="44.42688160767799" lon="8.949723998286553"><ele>32.0</ele><time>2026-04-19T16:20:18Z</time></trkpt><trkpt lat="44.426805647908154" lon="8.94959936261256"><ele>32.0</ele><time>2026-04-19T16:20:19Z</time></trkpt><trkpt lat="44.42673338439815" lon="8.949474246613345"><ele>32.0</ele><time>2026-04-19T16:20:20Z</time></trkpt><trkpt lat="44.42665868114366" lon="8.949364972841089"><ele>32.0</ele><time>2026-04-19T16:20:21Z</time></trkpt><trkpt lat="44.4265865748455" lon="8.949279821659928"><ele>30.75</ele><time>2026-04-19T16:20:22Z</time></trkpt><trkpt lat="44.42651308766424" lon="8.94918266547524"><ele>29.5</ele><time>2026-04-19T16:20:23Z</time></trkpt><trkpt lat="44.4264218784415" lon="8.949082948154953"><ele>28.25</ele><time>2026-04-19T16:20:24Z</time></trkpt><trkpt lat="44.42632257002923" lon="8.948979071047514"><ele>27.0</ele><time>2026-04-19T16:20:25Z</time></trkpt><trkpt lat="44.42622645542455" lon="8.948886037835996"><ele>27.0</ele><time>2026-04-19T16:20:25.999Z</time></trkpt><trkpt lat="44.4261306251227" lon="8.948801111883315"><ele>27.0</ele><time>2026-04-19T16:20:26.999Z</time></trkpt><trkpt lat="44.42600762125043" lon="8.948733166409692"><ele>27.0</ele><time>2026-04-19T16:20:27.999Z</time></trkpt><trkpt lat="44.42588197805532" lon="8.948654708188638"><ele>27.0</ele><time>2026-04-19T16:20:28.999Z</time></trkpt><trkpt lat="44.425755564567" lon="8.948585982551851"><ele>27.0</ele><time>2026-04-19T16:20:29.999Z</time></trkpt><trkpt lat="44.425634251629674" lon="8.948532812714628"><ele>27.0</ele><time>2026-04-19T16:20:30.999Z</time></trkpt><trkpt lat="44.42551433253738" lon="8.94848857596715"><ele>27.0</ele><time>2026-04-19T16:20:32.016Z</time></trkpt><trkpt lat="44.42539493077642" lon="8.948454752209294"><ele>27.0</ele><time>2026-04-19T16:20:33.016Z</time></trkpt><trkpt lat="44.42527526035924" lon="8.948425015474786"><ele>27.5</ele><time>2026-04-19T16:20:34.017Z</time></trkpt><trkpt lat="44.42515515407216" lon="8.948400841814184"><ele>28.0</ele><time>2026-04-19T16:20:35.02Z</time></trkpt><trkpt lat="44.425020092208335" lon="8.948381943636525"><ele>28.5</ele><time>2026-04-19T16:20:35.999Z</time></trkpt><trkpt lat="44.42490451904268" lon="8.948362052307976"><ele>29.0</ele><time>2026-04-19T16:20:36.999Z</time></trkpt><trkpt lat="44.42479500381589" lon="8.948367846957344"><ele>28.0</ele><time>2026-04-19T16:20:37.999Z</time></trkpt><trkpt lat="44.424699833211385" lon="8.948356874980439"><ele>27.0</ele><time>2026-04-19T16:20:38.999Z</time></trkpt><trkpt lat="44.42457747719401" lon="8.948340907422706"><ele>26.0</ele><time>2026-04-19T16:20:39.999Z</time></trkpt><trkpt lat="44.42445306850228" lon="8.948307558813532"><ele>25.0</ele><time>2026-04-19T16:20:40.999Z</time></trkpt><trkpt lat="44.42436750964166" lon="8.94827811592958"><ele>24.0</ele><time>2026-04-19T16:20:41.999Z</time></trkpt><trkpt lat="44.42427138598867" lon="8.948268232860746"><ele>23.833333333333332</ele><time>2026-04-19T16:20:42.999Z</time></trkpt><trkpt lat="44.42418666750372" lon="8.948252157469561"><ele>23.666666666666668</ele><time>2026-04-19T16:20:43.999Z</time></trkpt><trkpt lat="44.42410780285643" lon="8.948245589226554"><ele>23.5</ele><time>2026-04-19T16:20:44.999Z</time></trkpt><trkpt lat="44.424042327601796" lon="8.948241228494616"><ele>23.333333333333336</ele><time>2026-04-19T16:20:45.999Z</time></trkpt><trkpt lat="44.42392827841721" lon="8.948239032781611"><ele>23.166666666666668</ele><time>2026-04-19T16:20:47.999Z</time></trkpt><trkpt lat="44.42386217824536" lon="8.948234148258296"><ele>23.0</ele><time>2026-04-19T16:20:50.999Z</time></trkpt><trkpt lat="44.423760569659855" lon="8.94820738483587"><ele>23.0</ele><time>2026-04-19T16:21:16.999Z</time></trkpt><trkpt lat="44.42366702570339" lon="8.9481870318999"><ele>23.0</ele><time>2026-04-19T16:21:17.999Z</time></trkpt><trkpt lat="44.4235708536556" lon="8.948175572773899"><ele>23.0</ele><time>2026-04-19T16:21:18.999Z</time></trkpt><trkpt lat="44.42348429630536" lon="8.948164105564505"><ele>23.0</ele><time>2026-04-19T16:21:19.999Z</time></trkpt><trkpt lat="44.42340760255124" lon="8.94814987860773"><ele>23.0</ele><time>2026-04-19T16:21:20.999Z</time></trkpt><trkpt lat="44.42333889035001" lon="8.94814670268036"><ele>23.0</ele><time>2026-04-19T16:21:21.999Z</time></trkpt><trkpt lat="44.42322540323679" lon="8.948136750739451"><ele>23.0</ele><time>2026-04-19T16:21:23.999Z</time></trkpt><trkpt lat="44.42314349153442" lon="8.948132468623388"><ele>23.0</ele><time>2026-04-19T16:21:26Z</time></trkpt><trkpt lat="44.42307576208728" lon="8.948138034584808"><ele>23.0</ele><time>2026-04-19T16:21:42Z</time></trkpt><trkpt lat="44.42298228559151" lon="8.948123574271152"><ele>23.0</ele><time>2026-04-19T16:21:44Z</time></trkpt><trkpt lat="44.42288268364357" lon="8.948111644843568"><ele>23.0</ele><time>2026-04-19T16:21:46Z</time></trkpt><trkpt lat="44.42275086122295" lon="8.948098664189367"><ele>23.5</ele><time>2026-04-19T16:21:48Z</time></trkpt><trkpt lat="44.422674288351956" lon="8.948089117057782"><ele>24.0</ele><time>2026-04-19T16:21:49Z</time></trkpt><trkpt lat="44.422592553041156" lon="8.948079528928412"><ele>24.5</ele><time>2026-04-19T16:21:50Z</time></trkpt><trkpt lat="44.42252250032047" lon="8.948065863072898"><ele>25.0</ele><time>2026-04-19T16:21:51Z</time></trkpt><trkpt lat="44.422403560099" lon="8.948024599208528"><ele>25.499999999999996</ele><time>2026-04-19T16:21:53Z</time></trkpt><trkpt lat="44.42232707252296" lon="8.948009484298428"><ele>26.0</ele><time>2026-04-19T16:21:54Z</time></trkpt><trkpt lat="44.42223652410566" lon="8.948105495408795"><ele>25.0</ele><time>2026-04-19T16:21:55Z</time></trkpt><trkpt lat="44.42213480789248" lon="8.94815548334498"><ele>24.0</ele><time>2026-04-19T16:21:56Z</time></trkpt><trkpt lat="44.42205281854521" lon="8.948239084691343"><ele>23.0</ele><time>2026-04-19T16:21:57Z</time></trkpt><trkpt lat="44.42194901998816" lon="8.948330300317032"><ele>22.0</ele><time>2026-04-19T16:21:58Z</time></trkpt><trkpt lat="44.42183297424671" lon="8.948432286281323"><ele>27.666666666666664</ele><time>2026-04-19T16:21:59Z</time></trkpt><trkpt lat="44.42170849038802" lon="8.94854591390103"><ele>33.333333333333336</ele><time>2026-04-19T16:22:00Z</time></trkpt><trkpt lat="44.42156264838157" lon="8.94865798538975"><ele>39.0</ele><time>2026-04-19T16:22:01Z</time></trkpt><trkpt lat="44.42141743362309" lon="8.948786573116687"><ele>35.666666666666664</ele><time>2026-04-19T16:22:02Z</time></trkpt><trkpt lat="44.42127064062075" lon="8.948931506899207"><ele>32.33333333333333</ele><time>2026-04-19T16:22:03Z</time></trkpt><trkpt lat="44.42113961332919" lon="8.949062863010184"><ele>29.0</ele><time>2026-04-19T16:22:04Z</time></trkpt><trkpt lat="44.42100965316629" lon="8.949165237132558"><ele>33.33333333333333</ele><time>2026-04-19T16:22:05Z</time></trkpt><trkpt lat="44.4208774385122" lon="8.9492842207775"><ele>37.666666666666664</ele><time>2026-04-19T16:22:06Z</time></trkpt><trkpt lat="44.420739488559995" lon="8.949396483156777"><ele>42.0</ele><time>2026-04-19T16:22:07Z</time></trkpt><trkpt lat="44.42060568674286" lon="8.949500470333755"><ele>38.0</ele><time>2026-04-19T16:22:08Z</time></trkpt><trkpt lat="44.42047810979113" lon="8.949602666699077"><ele>34.0</ele><time>2026-04-19T16:22:09Z</time></trkpt><trkpt lat="44.42036433835723" lon="8.949722733341327"><ele>30.0</ele><time>2026-04-19T16:22:10Z</time></trkpt><trkpt lat="44.42024159429346" lon="8.949860586769162"><ele>26.0</ele><time>2026-04-19T16:22:11Z</time></trkpt><trkpt lat="44.420125087477814" lon="8.950004759275735"><ele>27.0</ele><time>2026-04-19T16:22:12Z</time></trkpt><trkpt lat="44.42000206301323" lon="8.950172312364517"><ele>28.0</ele><time>2026-04-19T16:22:13Z</time></trkpt><trkpt lat="44.41987624371179" lon="8.950332551341313"><ele>29.0</ele><time>2026-04-19T16:22:14Z</time></trkpt><trkpt lat="44.41976107150118" lon="8.950475268955874"><ele>29.0</ele><time>2026-04-19T16:22:15Z</time></trkpt><trkpt lat="44.419655630242836" lon="8.9506103029478"><ele>29.0</ele><time>2026-04-19T16:22:16Z</time></trkpt><trkpt lat="44.41954278303734" lon="8.95074827113348"><ele>29.0</ele><time>2026-04-19T16:22:17Z</time></trkpt><trkpt lat="44.419435042513264" lon="8.950883846974682"><ele>29.0</ele><time>2026-04-19T16:22:18Z</time></trkpt><trkpt lat="44.419339633230685" lon="8.951005381963272"><ele>28.75</ele><time>2026-04-19T16:22:19Z</time></trkpt><trkpt lat="44.41924207318803" lon="8.951122383557331"><ele>28.5</ele><time>2026-04-19T16:22:20Z</time></trkpt><trkpt lat="44.41914261152033" lon="8.951249556587957"><ele>28.25</ele><time>2026-04-19T16:22:21Z</time></trkpt><trkpt lat="44.419040513078066" lon="8.951390481824255"><ele>28.0</ele><time>2026-04-19T16:22:22Z</time></trkpt><trkpt lat="44.41893164890731" lon="8.951511865714934"><ele>28.0</ele><time>2026-04-19T16:22:23Z</time></trkpt><trkpt lat="44.41883644910074" lon="8.95163021141543"><ele>28.0</ele><time>2026-04-19T16:22:24Z</time></trkpt><trkpt lat="44.4187274552916" lon="8.9517413219531"><ele>28.0</ele><time>2026-04-19T16:22:25Z</time></trkpt><trkpt lat="44.418608057373085" lon="8.951868743790074"><ele>28.0</ele><time>2026-04-19T16:22:26Z</time></trkpt><trkpt lat="44.418486289142834" lon="8.952017996756606"><ele>27.5</ele><time>2026-04-19T16:22:27Z</time></trkpt><trkpt lat="44.418371715876205" lon="8.952171370303828"><ele>27.0</ele><time>2026-04-19T16:22:28Z</time></trkpt><trkpt lat="44.41827406794181" lon="8.952294815948793"><ele>26.5</ele><time>2026-04-19T16:22:29Z</time></trkpt><trkpt lat="44.41817720633968" lon="8.952411783483791"><ele>26.0</ele><time>2026-04-19T16:22:30Z</time></trkpt><trkpt lat="44.41806080631697" lon="8.95255571185784"><ele>25.0</ele><time>2026-04-19T16:22:30.999Z</time></trkpt><trkpt lat="44.41795185000014" lon="8.952710665496365"><ele>24.0</ele><time>2026-04-19T16:22:31.999Z</time></trkpt><trkpt lat="44.417875174895684" lon="8.952843661338836"><ele>23.0</ele><time>2026-04-19T16:22:32.999Z</time></trkpt><trkpt lat="44.41778938534253" lon="8.95296206943995"><ele>22.0</ele><time>2026-04-19T16:22:33.999Z</time></trkpt><trkpt lat="44.41770465322651" lon="8.953066698651606"><ele>22.0</ele><time>2026-04-19T16:22:34.999Z</time></trkpt><trkpt lat="44.4176224997819" lon="8.953173479687589"><ele>22.0</ele><time>2026-04-19T16:22:35.999Z</time></trkpt><trkpt lat="44.4175657845405" lon="8.953276269099398"><ele>22.0</ele><time>2026-04-19T16:22:36.999Z</time></trkpt><trkpt lat="44.417505180208416" lon="8.953347684994723"><ele>22.0</ele><time>2026-04-19T16:22:37.999Z</time></trkpt><trkpt lat="44.41744348353425" lon="8.953424743563852"><ele>22.0</ele><time>2026-04-19T16:22:38.999Z</time></trkpt><trkpt lat="44.417373076909826" lon="8.953486914792176"><ele>22.166666666666664</ele><time>2026-04-19T16:22:39.999Z</time></trkpt><trkpt lat="44.4173051427079" lon="8.953571846703735"><ele>22.333333333333332</ele><time>2026-04-19T16:22:40.999Z</time></trkpt><trkpt lat="44.41724889576039" lon="8.953642104158826"><ele>22.5</ele><time>2026-04-19T16:22:41.999Z</time></trkpt><trkpt lat="44.41719568964924" lon="8.953710506747035"><ele>22.666666666666668</ele><time>2026-04-19T16:22:42.999Z</time></trkpt><trkpt lat="44.4171486912617" lon="8.953785248187225"><ele>22.833333333333336</ele><time>2026-04-19T16:22:43.999Z</time></trkpt><trkpt lat="44.4170832862606" lon="8.95387559754704"><ele>23.0</ele><time>2026-04-19T16:22:45.999Z</time></trkpt><trkpt lat="44.416993762881816" lon="8.953983629765046"><ele>23.166666666666668</ele><time>2026-04-19T16:22:47.999Z</time></trkpt><trkpt lat="44.41695184382492" lon="8.954052562439855"><ele>23.333333333333336</ele><time>2026-04-19T16:22:48.999Z</time></trkpt><trkpt lat="44.41689724750997" lon="8.954107102951088"><ele>23.5</ele><time>2026-04-19T16:22:49.999Z</time></trkpt><trkpt lat="44.416840562046104" lon="8.95417912796613"><ele>23.666666666666668</ele><time>2026-04-19T16:22:50.999Z</time></trkpt><trkpt lat="44.41676373424825" lon="8.954275548083743"><ele>23.833333333333332</ele><time>2026-04-19T16:22:51.999Z</time></trkpt><trkpt lat="44.41668568037081" lon="8.954374472048436"><ele>24.0</ele><time>2026-04-19T16:22:52.999Z</time></trkpt><trkpt lat="44.41661721035874" lon="8.954459543401272"><ele>24.2</ele><time>2026-04-19T16:22:53.999Z</time></trkpt><trkpt lat="44.41654810782447" lon="8.954546369434345"><ele>24.4</ele><time>2026-04-19T16:22:54.999Z</time></trkpt><trkpt lat="44.41646901997712" lon="8.954645741876044"><ele>24.6</ele><time>2026-04-19T16:22:55.999Z</time></trkpt><trkpt lat="44.41638683674386" lon="8.95474900284836"><ele>24.8</ele><time>2026-04-19T16:22:56.999Z</time></trkpt><trkpt lat="44.41630681548472" lon="8.954877238958632"><ele>25.0</ele><time>2026-04-19T16:22:57.999Z</time></trkpt><trkpt lat="44.41622016947369" lon="8.954960526170202"><ele>24.2</ele><time>2026-04-19T16:22:58.999Z</time></trkpt><trkpt lat="44.416144730074315" lon="8.955056197533798"><ele>23.4</ele><time>2026-04-19T16:22:59.999Z</time></trkpt><trkpt lat="44.416072519325134" lon="8.955168686538348"><ele>22.6</ele><time>2026-04-19T16:23:00.999Z</time></trkpt><trkpt lat="44.41600065145842" lon="8.955253299181598"><ele>21.8</ele><time>2026-04-19T16:23:01.999Z</time></trkpt><trkpt lat="44.415940670401774" lon="8.955336804361014"><ele>21.0</ele><time>2026-04-19T16:23:02.999Z</time></trkpt><trkpt lat="44.41587786959816" lon="8.955424525384828"><ele>21.0</ele><time>2026-04-19T16:23:03.999Z</time></trkpt><trkpt lat="44.415794646855055" lon="8.955499558510006"><ele>21.0</ele><time>2026-04-19T16:23:04.999Z</time></trkpt><trkpt lat="44.41571835566205" lon="8.955624865723275"><ele>21.0</ele><time>2026-04-19T16:23:05.999Z</time></trkpt><trkpt lat="44.41563595701857" lon="8.95572379550042"><ele>21.0</ele><time>2026-04-19T16:23:06.999Z</time></trkpt><trkpt lat="44.41556553059322" lon="8.955805807821264"><ele>21.0</ele><time>2026-04-19T16:23:07.999Z</time></trkpt><trkpt lat="44.41549811230513" lon="8.955874763907877"><ele>21.666666666666668</ele><time>2026-04-19T16:23:08.999Z</time></trkpt><trkpt lat="44.4154439285072" lon="8.95594090737182"><ele>22.333333333333336</ele><time>2026-04-19T16:23:09.999Z</time></trkpt><trkpt lat="44.415394073303574" lon="8.956000477516369"><ele>23.0</ele><time>2026-04-19T16:23:10.999Z</time></trkpt><trkpt lat="44.41532970292737" lon="8.956053820329359"><ele>23.666666666666668</ele><time>2026-04-19T16:23:12.999Z</time></trkpt><trkpt lat="44.41523350362993" lon="8.956104010721717"><ele>24.333333333333336</ele><time>2026-04-19T16:24:01Z</time></trkpt><trkpt lat="44.415122640614904" lon="8.956182324779233"><ele>25.0</ele><time>2026-04-19T16:24:03Z</time></trkpt><trkpt lat="44.41506029199411" lon="8.956264022905135"><ele>25.000000000000004</ele><time>2026-04-19T16:24:04Z</time></trkpt><trkpt lat="44.414999379075375" lon="8.956317589580403"><ele>25.0</ele><time>2026-04-19T16:24:05Z</time></trkpt><trkpt lat="44.414928272982564" lon="8.956356141965331"><ele>25.0</ele><time>2026-04-19T16:24:06Z</time></trkpt><trkpt lat="44.414868769893566" lon="8.956420607151717"><ele>25.0</ele><time>2026-04-19T16:24:07Z</time></trkpt><trkpt lat="44.41481550812707" lon="8.956475355443716"><ele>25.000000000000004</ele><time>2026-04-19T16:24:08Z</time></trkpt><trkpt lat="44.41468619734884" lon="8.956484429519847"><ele>25.0</ele><time>2026-04-19T16:24:10Z</time></trkpt><trkpt lat="44.41458458587657" lon="8.956457874779428"><ele>26.0</ele><time>2026-04-19T16:24:11Z</time></trkpt><trkpt lat="44.41447389818414" lon="8.956411525517192"><ele>27.0</ele><time>2026-04-19T16:24:12Z</time></trkpt><trkpt lat="44.414354938877295" lon="8.956356405651649"><ele>28.0</ele><time>2026-04-19T16:24:13Z</time></trkpt><trkpt lat="44.41419801570228" lon="8.95629227064476"><ele>29.0</ele><time>2026-04-19T16:24:14Z</time></trkpt><trkpt lat="44.41403567994777" lon="8.956225981372459"><ele>29.0</ele><time>2026-04-19T16:24:15Z</time></trkpt><trkpt lat="44.413877645789796" lon="8.956150646625568"><ele>29.0</ele><time>2026-04-19T16:24:16Z</time></trkpt><trkpt lat="44.41373416188608" lon="8.956086537939"><ele>29.0</ele><time>2026-04-19T16:24:17Z</time></trkpt><trkpt lat="44.413604850676386" lon="8.956013927142795"><ele>30.0</ele><time>2026-04-19T16:24:18Z</time></trkpt><trkpt lat="44.41348583812266" lon="8.955940944573197"><ele>31.0</ele><time>2026-04-19T16:24:19Z</time></trkpt><trkpt lat="44.413353871531775" lon="8.955868800444444"><ele>32.0</ele><time>2026-04-19T16:24:20Z</time></trkpt><trkpt lat="44.413199490275254" lon="8.95580779292698"><ele>33.0</ele><time>2026-04-19T16:24:21Z</time></trkpt><trkpt lat="44.41306312362541" lon="8.955747870857945"><ele>31.0</ele><time>2026-04-19T16:24:22Z</time></trkpt><trkpt lat="44.41291832395487" lon="8.955676911713823"><ele>29.0</ele><time>2026-04-19T16:24:23Z</time></trkpt><trkpt lat="44.41276211193138" lon="8.955611109771755"><ele>27.0</ele><time>2026-04-19T16:24:24Z</time></trkpt><trkpt lat="44.41260863493415" lon="8.955539878479529"><ele>27.0</ele><time>2026-04-19T16:24:25Z</time></trkpt><trkpt lat="44.412451162128875" lon="8.955464449567403"><ele>27.0</ele><time>2026-04-19T16:24:26Z</time></trkpt><trkpt lat="44.41230480788326" lon="8.955388921216288"><ele>27.0</ele><time>2026-04-19T16:24:27Z</time></trkpt><trkpt lat="44.41217148661606" lon="8.955328348957016"><ele>27.75</ele><time>2026-04-19T16:24:28Z</time></trkpt><trkpt lat="44.412038025303765" lon="8.955267383747772"><ele>28.5</ele><time>2026-04-19T16:24:29Z</time></trkpt><trkpt lat="44.41191336201858" lon="8.955208229358455"><ele>29.25</ele><time>2026-04-19T16:24:30Z</time></trkpt><trkpt lat="44.41180652930309" lon="8.955160623713136"><ele>30.0</ele><time>2026-04-19T16:24:31Z</time></trkpt><trkpt lat="44.411700859146684" lon="8.955117700322525"><ele>30.0</ele><time>2026-04-19T16:24:32Z</time></trkpt><trkpt lat="44.41162741792303" lon="8.955081732335683"><ele>30.0</ele><time>2026-04-19T16:24:33Z</time></trkpt><trkpt lat="44.411560442592055" lon="8.955057419934604"><ele>30.0</ele><time>2026-04-19T16:24:34Z</time></trkpt><trkpt lat="44.411461954927844" lon="8.955005236251377"><ele>30.0</ele><time>2026-04-19T16:24:35.999Z</time></trkpt><trkpt lat="44.4113873539245" lon="8.954958855515732"><ele>30.0</ele><time>2026-04-19T16:25:16.999Z</time></trkpt><trkpt lat="44.41128725498859" lon="8.95489342242668"><ele>30.0</ele><time>2026-04-19T16:25:18.999Z</time></trkpt><trkpt lat="44.41120683164457" lon="8.954875245572433"><ele>28.4</ele><time>2026-04-19T16:25:19.999Z</time></trkpt><trkpt lat="44.41113621949056" lon="8.954835905066076"><ele>26.8</ele><time>2026-04-19T16:25:20.999Z</time></trkpt><trkpt lat="44.41102804499212" lon="8.954800766782865"><ele>25.200000000000003</ele><time>2026-04-19T16:25:21.999Z</time></trkpt><trkpt lat="44.41091670163264" lon="8.954754292575249"><ele>23.6</ele><time>2026-04-19T16:25:22.999Z</time></trkpt><trkpt lat="44.41078414084458" lon="8.954710806663938"><ele>22.0</ele><time>2026-04-19T16:25:23.999Z</time></trkpt><trkpt lat="44.41064667491234" lon="8.95465742476394"><ele>22.0</ele><time>2026-04-19T16:25:24.999Z</time></trkpt><trkpt lat="44.41052527536726" lon="8.954605094285258"><ele>22.0</ele><time>2026-04-19T16:25:25.999Z</time></trkpt><trkpt lat="44.41040311347575" lon="8.954548592949555"><ele>22.0</ele><time>2026-04-19T16:25:26.999Z</time></trkpt><trkpt lat="44.4102832283281" lon="8.954495550936876"><ele>22.0</ele><time>2026-04-19T16:25:27.999Z</time></trkpt><trkpt lat="44.41017363781955" lon="8.954437231163578"><ele>20.75</ele><time>2026-04-19T16:25:28.999Z</time></trkpt><trkpt lat="44.41007688315698" lon="8.95438822858775"><ele>19.5</ele><time>2026-04-19T16:25:29.999Z</time></trkpt><trkpt lat="44.4099659090021" lon="8.954339411132908"><ele>18.25</ele><time>2026-04-19T16:25:30.999Z</time></trkpt><trkpt lat="44.409847063465556" lon="8.954282194559054"><ele>17.0</ele><time>2026-04-19T16:25:31.999Z</time></trkpt><trkpt lat="44.40973900837567" lon="8.954233801787865"><ele>16.75</ele><time>2026-04-19T16:25:32.999Z</time></trkpt><trkpt lat="44.40963248607099" lon="8.954180180357707"><ele>16.5</ele><time>2026-04-19T16:25:33.999Z</time></trkpt><trkpt lat="44.40952720975563" lon="8.954132423172036"><ele>16.25</ele><time>2026-04-19T16:25:34.999Z</time></trkpt><trkpt lat="44.4094134621307" lon="8.954078317481004"><ele>16.0</ele><time>2026-04-19T16:25:35.999Z</time></trkpt><trkpt lat="44.40929406797505" lon="8.954026365911435"><ele>16.0</ele><time>2026-04-19T16:25:36.999Z</time></trkpt><trkpt lat="44.40917320610068" lon="8.953968967938557"><ele>16.0</ele><time>2026-04-19T16:25:38Z</time></trkpt><trkpt lat="44.409041983841" lon="8.953903089678091"><ele>16.0</ele><time>2026-04-19T16:25:39Z</time></trkpt><trkpt lat="44.40891761435981" lon="8.95383988373009"><ele>16.0</ele><time>2026-04-19T16:25:40Z</time></trkpt><trkpt lat="44.408805951363505" lon="8.953779196343785"><ele>15.5</ele><time>2026-04-19T16:25:41Z</time></trkpt><trkpt lat="44.408693261790596" lon="8.953721670637275"><ele>15.0</ele><time>2026-04-19T16:25:42Z</time></trkpt><trkpt lat="44.408576337998824" lon="8.953660379482171"><ele>14.5</ele><time>2026-04-19T16:25:43Z</time></trkpt><trkpt lat="44.408472279427045" lon="8.953613258370039"><ele>14.0</ele><time>2026-04-19T16:25:44Z</time></trkpt><trkpt lat="44.408373031385516" lon="8.953563278458734"><ele>14.0</ele><time>2026-04-19T16:25:45Z</time></trkpt><trkpt lat="44.40826930077818" lon="8.953505027185884"><ele>13.999999999999998</ele><time>2026-04-19T16:25:46Z</time></trkpt><trkpt lat="44.408158482179495" lon="8.95346476687828"><ele>13.999999999999998</ele><time>2026-04-19T16:25:47Z</time></trkpt><trkpt lat="44.40805155911329" lon="8.953413216588746"><ele>14.0</ele><time>2026-04-19T16:25:48Z</time></trkpt><trkpt lat="44.40795928119421" lon="8.95336545196061"><ele>14.0</ele><time>2026-04-19T16:25:49Z</time></trkpt><trkpt lat="44.40787372457683" lon="8.953315932213844"><ele>14.333333333333334</ele><time>2026-04-19T16:25:50Z</time></trkpt><trkpt lat="44.40779809378434" lon="8.953293867573551"><ele>14.666666666666668</ele><time>2026-04-19T16:25:51Z</time></trkpt><trkpt lat="44.40772474963349" lon="8.953264261887835"><ele>15.0</ele><time>2026-04-19T16:25:52Z</time></trkpt><trkpt lat="44.40762837333904" lon="8.953205719157891"><ele>15.333333333333332</ele><time>2026-04-19T16:25:54Z</time></trkpt><trkpt lat="44.40756608500799" lon="8.953170044438574"><ele>15.666666666666666</ele><time>2026-04-19T16:25:56Z</time></trkpt><trkpt lat="44.40749411597876" lon="8.953131056541062"><ele>16.0</ele><time>2026-04-19T16:26:41Z</time></trkpt><trkpt lat="44.40737593430789" lon="8.953066330338588"><ele>15.999999999999998</ele><time>2026-04-19T16:26:42.999Z</time></trkpt><trkpt lat="44.40729210375887" lon="8.953035286437734"><ele>16.0</ele><time>2026-04-19T16:26:43.999Z</time></trkpt><trkpt lat="44.40721824083045" lon="8.95300743052814"><ele>16.0</ele><time>2026-04-19T16:26:44.999Z</time></trkpt><trkpt lat="44.40712689422391" lon="8.952977644439184"><ele>16.0</ele><time>2026-04-19T16:26:45.999Z</time></trkpt><trkpt lat="44.40704050965988" lon="8.952930905934421"><ele>15.999999999999998</ele><time>2026-04-19T16:26:46.999Z</time></trkpt><trkpt lat="44.406951785369316" lon="8.952885100681627"><ele>16.0</ele><time>2026-04-19T16:26:47.999Z</time></trkpt><trkpt lat="44.406854709671855" lon="8.952841859470347"><ele>15.5</ele><time>2026-04-19T16:26:48.999Z</time></trkpt><trkpt lat="44.40674811868893" lon="8.952790204217992"><ele>15.0</ele><time>2026-04-19T16:26:49.999Z</time></trkpt><trkpt lat="44.40663246252827" lon="8.952737570393603"><ele>14.5</ele><time>2026-04-19T16:26:50.999Z</time></trkpt><trkpt lat="44.406534508043855" lon="8.95268955177929"><ele>14.0</ele><time>2026-04-19T16:26:51.999Z</time></trkpt><trkpt lat="44.406425138946815" lon="8.952644809813613"><ele>13.75</ele><time>2026-04-19T16:26:52.999Z</time></trkpt><trkpt lat="44.40630707610065" lon="8.952583676797282"><ele>13.5</ele><time>2026-04-19T16:26:53.999Z</time></trkpt><trkpt lat="44.40618568945367" lon="8.952523335590021"><ele>13.25</ele><time>2026-04-19T16:26:54.999Z</time></trkpt><trkpt lat="44.40606410762955" lon="8.952464368624563"><ele>13.0</ele><time>2026-04-19T16:26:55.999Z</time></trkpt><trkpt lat="44.4059609961734" lon="8.952433398420794"><ele>12.8</ele><time>2026-04-19T16:26:56.999Z</time></trkpt><trkpt lat="44.40586191199302" lon="8.952355748702534"><ele>12.600000000000001</ele><time>2026-04-19T16:26:57.999Z</time></trkpt><trkpt lat="44.40574900869079" lon="8.952302290608623"><ele>12.399999999999999</ele><time>2026-04-19T16:26:58.999Z</time></trkpt><trkpt lat="44.40564717542056" lon="8.952245436464821"><ele>12.2</ele><time>2026-04-19T16:26:59.999Z</time></trkpt><trkpt lat="44.40555513661444" lon="8.952185411852286"><ele>12.0</ele><time>2026-04-19T16:27:00.999Z</time></trkpt><trkpt lat="44.40545831613923" lon="8.95213256856498"><ele>11.8</ele><time>2026-04-19T16:27:01.999Z</time></trkpt><trkpt lat="44.4053649696219" lon="8.95208219980245"><ele>11.6</ele><time>2026-04-19T16:27:03.016Z</time></trkpt><trkpt lat="44.40528173467307" lon="8.9520385932769"><ele>11.4</ele><time>2026-04-19T16:27:04.017Z</time></trkpt><trkpt lat="44.40519873950454" lon="8.951996256295498"><ele>11.200000000000001</ele><time>2026-04-19T16:27:05.015Z</time></trkpt><trkpt lat="44.40511195203455" lon="8.951953681624884"><ele>11.0</ele><time>2026-04-19T16:27:06.017Z</time></trkpt><trkpt lat="44.40486945216023" lon="8.95189915784537"><ele>11.0</ele><time>2026-04-19T16:27:08.999Z</time></trkpt><trkpt lat="44.404788087156426" lon="8.951882231826673"><ele>11.0</ele><time>2026-04-19T16:27:09.999Z</time></trkpt><trkpt lat="44.40472461643915" lon="8.951872332330307"><ele>11.0</ele><time>2026-04-19T16:27:10.999Z</time></trkpt><trkpt lat="44.40460215155957" lon="8.951836960244146"><ele>11.0</ele><time>2026-04-19T16:27:12.999Z</time></trkpt><trkpt lat="44.404539336725016" lon="8.951825995428766"><ele>11.0</ele><time>2026-04-19T16:27:19.999Z</time></trkpt><trkpt lat="44.40447583451716" lon="8.95181076489945"><ele>11.0</ele><time>2026-04-19T16:27:30.999Z</time></trkpt><trkpt lat="44.40437299265664" lon="8.951963784847928"><ele>11.4</ele><time>2026-04-19T16:27:32.999Z</time></trkpt><trkpt lat="44.40432588320408" lon="8.952157263351232"><ele>11.8</ele><time>2026-04-19T16:27:34.999Z</time></trkpt><trkpt lat="44.40429629837535" lon="8.952278104961747"><ele>12.200000000000001</ele><time>2026-04-19T16:27:35.999Z</time></trkpt><trkpt lat="44.40426544982942" lon="8.952410597295872"><ele>12.600000000000001</ele><time>2026-04-19T16:27:36.999Z</time></trkpt><trkpt lat="44.404231535241124" lon="8.952545201782193"><ele>13.0</ele><time>2026-04-19T16:27:37.999Z</time></trkpt><trkpt lat="44.404199715275155" lon="8.952664617462267"><ele>13.4</ele><time>2026-04-19T16:27:38.999Z</time></trkpt><trkpt lat="44.40416339191507" lon="8.95278281672836"><ele>13.8</ele><time>2026-04-19T16:27:39.999Z</time></trkpt><trkpt lat="44.404143531622736" lon="8.952900075359178"><ele>14.2</ele><time>2026-04-19T16:27:40.999Z</time></trkpt><trkpt lat="44.40412450779633" lon="8.953022758387363"><ele>14.6</ele><time>2026-04-19T16:27:41.999Z</time></trkpt><trkpt lat="44.404102784393174" lon="8.95315429810524"><ele>15.0</ele><time>2026-04-19T16:27:42.999Z</time></trkpt><trkpt lat="44.40407093250166" lon="8.953301209663717"><ele>15.4</ele><time>2026-04-19T16:27:44Z</time></trkpt><trkpt lat="44.4040138585641" lon="8.95346434754366"><ele>15.8</ele><time>2026-04-19T16:27:45Z</time></trkpt><trkpt lat="44.403980799173425" lon="8.953604744400723"><ele>16.2</ele><time>2026-04-19T16:27:46Z</time></trkpt><trkpt lat="44.40395710705268" lon="8.95372005251387"><ele>16.6</ele><time>2026-04-19T16:27:47Z</time></trkpt><trkpt lat="44.403924500704946" lon="8.953819502363894"><ele>17.0</ele><time>2026-04-19T16:27:48Z</time></trkpt><trkpt lat="44.40389528971565" lon="8.953929099954623"><ele>17.0</ele><time>2026-04-19T16:27:49Z</time></trkpt><trkpt lat="44.403873254485376" lon="8.954023485320231"><ele>17.0</ele><time>2026-04-19T16:27:50Z</time></trkpt><trkpt lat="44.40384901759189" lon="8.95410558566685"><ele>17.0</ele><time>2026-04-19T16:27:53Z</time></trkpt><trkpt lat="44.403809506239796" lon="8.954232083754386"><ele>17.0</ele><time>2026-04-19T16:28:13Z</time></trkpt><trkpt lat="44.40370868928259" lon="8.954288913428693"><ele>17.0</ele><time>2026-04-19T16:28:14Z</time></trkpt><trkpt lat="44.40364940820553" lon="8.95435664782273"><ele>17.0</ele><time>2026-04-19T16:28:15Z</time></trkpt><trkpt lat="44.40354127554933" lon="8.95443399138491"><ele>16.8</ele><time>2026-04-19T16:28:17Z</time></trkpt><trkpt lat="44.403452385849036" lon="8.954401607666798"><ele>16.6</ele><time>2026-04-19T16:28:18Z</time></trkpt><trkpt lat="44.40337030598593" lon="8.954371161155017"><ele>16.400000000000002</ele><time>2026-04-19T16:28:19Z</time></trkpt><trkpt lat="44.40323972044689" lon="8.95432068405367"><ele>16.2</ele><time>2026-04-19T16:28:20Z</time></trkpt><trkpt lat="44.4031115647683" lon="8.954281074714753"><ele>16.0</ele><time>2026-04-19T16:28:21Z</time></trkpt><trkpt lat="44.403030665117186" lon="8.954193557842787"><ele>15.0</ele><time>2026-04-19T16:28:22Z</time></trkpt><trkpt lat="44.40295139044736" lon="8.954172340262486"><ele>14.000000000000002</ele><time>2026-04-19T16:28:23Z</time></trkpt><trkpt lat="44.40287624518185" lon="8.954122347681706"><ele>13.0</ele><time>2026-04-19T16:28:24Z</time></trkpt><trkpt lat="44.402803003637956" lon="8.954089535456552"><ele>12.0</ele><time>2026-04-19T16:28:25Z</time></trkpt><trkpt lat="44.40268842365273" lon="8.954035944144366"><ele>11.0</ele><time>2026-04-19T16:28:27Z</time></trkpt><trkpt lat="44.40258083950247" lon="8.954008272467696"><ele>11.0</ele><time>2026-04-19T16:28:29Z</time></trkpt><trkpt lat="44.40248615639739" lon="8.95393608932678"><ele>11.0</ele><time>2026-04-19T16:28:31Z</time></trkpt><trkpt lat="44.40245259362429" lon="8.953847303698959"><ele>11.0</ele><time>2026-04-19T16:28:32Z</time></trkpt><trkpt lat="44.40240837890291" lon="8.953760877132275"><ele>11.0</ele><time>2026-04-19T16:28:33Z</time></trkpt><trkpt lat="44.40237794656379" lon="8.953677266806915"><ele>11.0</ele><time>2026-04-19T16:28:34Z</time></trkpt><trkpt lat="44.40232122223706" lon="8.953556995790418"><ele>11.0</ele><time>2026-04-19T16:28:36Z</time></trkpt><trkpt lat="44.402177144570985" lon="8.95361362565313"><ele>11.0</ele><time>2026-04-19T16:28:39Z</time></trkpt><trkpt lat="44.40204920210584" lon="8.953622522710834"><ele>11.0</ele><time>2026-04-19T16:28:40Z</time></trkpt><trkpt lat="44.401964821116316" lon="8.953824090139856"><ele>11.0</ele><time>2026-04-19T16:28:41Z</time></trkpt><trkpt lat="44.40186612201452" lon="8.95389778019918"><ele>11.0</ele><time>2026-04-19T16:28:42Z</time></trkpt><trkpt lat="44.401788736880796" lon="8.953935385718172"><ele>11.0</ele><time>2026-04-19T16:28:43Z</time></trkpt><trkpt lat="44.40171330947953" lon="8.953959152296536"><ele>11.0</ele><time>2026-04-19T16:28:44Z</time></trkpt><trkpt lat="44.40156373809283" lon="8.953944625249276"><ele>11.0</ele><time>2026-04-19T16:28:46Z</time></trkpt><trkpt lat="44.40145316365372" lon="8.95394981635952"><ele>11.0</ele><time>2026-04-19T16:28:47Z</time></trkpt><trkpt lat="44.40136202429915" lon="8.953968676889952"><ele>11.0</ele><time>2026-04-19T16:28:47.999Z</time></trkpt><trkpt lat="44.40129018467316" lon="8.953985218785117"><ele>11.5</ele><time>2026-04-19T16:28:49.999Z</time></trkpt><trkpt lat="44.401221474164366" lon="8.954007659775433"><ele>12.0</ele><time>2026-04-19T16:28:52.999Z</time></trkpt><trkpt lat="44.40113229013693" lon="8.954009920890355"><ele>12.5</ele><time>2026-04-19T16:28:56.999Z</time></trkpt><trkpt lat="44.40103662977948" lon="8.953966684730474"><ele>13.0</ele><time>2026-04-19T16:28:58.999Z</time></trkpt><trkpt lat="44.40093904160601" lon="8.953995848013724"><ele>13.500000000000002</ele><time>2026-04-19T16:29:00.999Z</time></trkpt><trkpt lat="44.40088227752338" lon="8.954086421915992"><ele>14.0</ele><time>2026-04-19T16:29:02.999Z</time></trkpt><trkpt lat="44.4008609445815" lon="8.9542473504661"><ele>15.6</ele><time>2026-04-19T16:29:04.999Z</time></trkpt><trkpt lat="44.400799268262645" lon="8.954300463613684"><ele>17.2</ele><time>2026-04-19T16:29:07.999Z</time></trkpt><trkpt lat="44.40089312249355" lon="8.954328557250266"><ele>18.8</ele><time>2026-04-19T16:30:22Z</time></trkpt><trkpt lat="44.4009463424941" lon="8.954392160446266"><ele>20.400000000000002</ele><time>2026-04-19T16:30:25Z</time></trkpt><trkpt lat="44.400817181768915" lon="8.954485196919805"><ele>22.0</ele><time>2026-04-19T16:30:26Z</time></trkpt><trkpt lat="44.400797850213834" lon="8.954611290817443"><ele>22.0</ele><time>2026-04-19T16:30:27Z</time></trkpt><trkpt lat="44.4008052562721" lon="8.954739316252452"><ele>22.0</ele><time>2026-04-19T16:30:28Z</time></trkpt><trkpt lat="44.400817996700624" lon="8.9548801067381"><ele>22.0</ele><time>2026-04-19T16:30:30Z</time></trkpt><trkpt lat="44.400811834444475" lon="8.955034373474039"><ele>22.0</ele><time>2026-04-19T16:30:32Z</time></trkpt><trkpt lat="44.40096000571741" lon="8.95504019384925"><ele>22.0</ele><time>2026-04-19T16:30:33Z</time></trkpt><trkpt lat="44.40110070075732" lon="8.954937688338049"><ele>22.0</ele><time>2026-04-19T16:30:35Z</time></trkpt><trkpt lat="44.40116082867722" lon="8.954905247981957"><ele>22.0</ele><time>2026-04-19T16:30:36Z</time></trkpt><trkpt lat="44.40122859338376" lon="8.955040368612206"><ele>22.0</ele><time>2026-04-19T16:30:40Z</time></trkpt><trkpt lat="44.40125499026955" lon="8.955149993465655"><ele>22.0</ele><time>2026-04-19T16:30:41Z</time></trkpt><trkpt lat="44.40124973556051" lon="8.955260511833803"><ele>25.5</ele><time>2026-04-19T16:30:43Z</time></trkpt><trkpt lat="44.401125995003746" lon="8.955337713147527"><ele>29.0</ele><time>2026-04-19T16:30:45Z</time></trkpt><trkpt lat="44.40101983146195" lon="8.955332777753664"><ele>32.5</ele><time>2026-04-19T16:30:46Z</time></trkpt><trkpt lat="44.40091431638652" lon="8.95533058847565"><ele>36.0</ele><time>2026-04-19T16:30:47Z</time></trkpt><trkpt lat="44.40078956879108" lon="8.95533275063455"><ele>36.0</ele><time>2026-04-19T16:30:48Z</time></trkpt><trkpt lat="44.40066741172068" lon="8.955333059731856"><ele>36.0</ele><time>2026-04-19T16:30:49Z</time></trkpt><trkpt lat="44.40058563023818" lon="8.955331062128677"><ele>36.0</ele><time>2026-04-19T16:30:50Z</time></trkpt><trkpt lat="44.40051291087185" lon="8.955325394322976"><ele>36.0</ele><time>2026-04-19T16:30:51Z</time></trkpt><trkpt lat="44.400447253966725" lon="8.955314544300363"><ele>36.0</ele><time>2026-04-19T16:30:52Z</time></trkpt><trkpt lat="44.40036542169892" lon="8.955241768125791"><ele>36.0</ele><time>2026-04-19T16:30:53Z</time></trkpt><trkpt lat="44.40028271644791" lon="8.955177415439616"><ele>38.4</ele><time>2026-04-19T16:30:54Z</time></trkpt><trkpt lat="44.40020419461894" lon="8.955142075294699"><ele>40.8</ele><time>2026-04-19T16:30:54.999Z</time></trkpt><trkpt lat="44.40009859965618" lon="8.95509662174015"><ele>43.199999999999996</ele><time>2026-04-19T16:30:56.999Z</time></trkpt><trkpt lat="44.40004778611456" lon="8.955155991010766"><ele>45.6</ele><time>2026-04-19T16:30:59.999Z</time></trkpt><trkpt lat="44.400111425282454" lon="8.955295581448507"><ele>48.0</ele><time>2026-04-19T16:31:05.999Z</time></trkpt><trkpt lat="44.400166662725425" lon="8.955364982326113"><ele>48.0</ele><time>2026-04-19T16:31:06.999Z</time></trkpt><trkpt lat="44.40023525944571" lon="8.955420726724501"><ele>48.0</ele><time>2026-04-19T16:31:07.999Z</time></trkpt><trkpt lat="44.400308963379686" lon="8.955483630616165"><ele>48.0</ele><time>2026-04-19T16:31:08.999Z</time></trkpt><trkpt lat="44.400403133348085" lon="8.955530438621166"><ele>48.0</ele><time>2026-04-19T16:31:09.999Z</time></trkpt><trkpt lat="44.400504614458356" lon="8.955602230031781"><ele>48.0</ele><time>2026-04-19T16:31:10.999Z</time></trkpt><trkpt lat="44.400600162098186" lon="8.955604603346108"><ele>47.333333333333336</ele><time>2026-04-19T16:31:11.999Z</time></trkpt><trkpt lat="44.40067494860529" lon="8.955633204595104"><ele>46.666666666666664</ele><time>2026-04-19T16:31:12.999Z</time></trkpt><trkpt lat="44.40074029246119" lon="8.95563527630464"><ele>46.0</ele><time>2026-04-19T16:31:13.999Z</time></trkpt><trkpt lat="44.40081667810034" lon="8.955677385710414"><ele>45.33333333333333</ele><time>2026-04-19T16:31:15.999Z</time></trkpt><trkpt lat="44.400887051131754" lon="8.955718900895832"><ele>44.666666666666664</ele><time>2026-04-19T16:31:18.999Z</time></trkpt><trkpt lat="44.40085985141059" lon="8.955878318112475"><ele>44.0</ele><time>2026-04-19T16:31:19.999Z</time></trkpt><trkpt lat="44.400836092614824" lon="8.955985892699804"><ele>44.0</ele><time>2026-04-19T16:31:20.999Z</time></trkpt><trkpt lat="44.40080723609776" lon="8.956110691692096"><ele>44.0</ele><time>2026-04-19T16:31:21.999Z</time></trkpt><trkpt lat="44.40077448182509" lon="8.956262039797627"><ele>44.0</ele><time>2026-04-19T16:31:22.999Z</time></trkpt><trkpt lat="44.400749375924725" lon="8.95639459394706"><ele>44.0</ele><time>2026-04-19T16:31:23.999Z</time></trkpt><trkpt lat="44.40071833103936" lon="8.956538371313059"><ele>44.0</ele><time>2026-04-19T16:31:24.999Z</time></trkpt><trkpt lat="44.40069030500202" lon="8.956688976012133"><ele>46.5</ele><time>2026-04-19T16:31:25.999Z</time></trkpt><trkpt lat="44.40065359770318" lon="8.956843998173628"><ele>49.0</ele><time>2026-04-19T16:31:26.999Z</time></trkpt><trkpt lat="44.40061528195026" lon="8.957009006792951"><ele>51.5</ele><time>2026-04-19T16:31:27.999Z</time></trkpt><trkpt lat="44.40058074667593" lon="8.957149417385992"><ele>54.0</ele><time>2026-04-19T16:31:28.999Z</time></trkpt><trkpt lat="44.400541643612286" lon="8.957289310770017"><ele>54.0</ele><time>2026-04-19T16:31:29.999Z</time></trkpt><trkpt lat="44.40050330742161" lon="8.957432447164393"><ele>54.00000000000001</ele><time>2026-04-19T16:31:30.999Z</time></trkpt><trkpt lat="44.400475503775105" lon="8.957582820150547"><ele>54.00000000000001</ele><time>2026-04-19T16:31:31.999Z</time></trkpt><trkpt lat="44.40044715677086" lon="8.957722957587825"><ele>54.0</ele><time>2026-04-19T16:31:32.999Z</time></trkpt><trkpt lat="44.40042529719628" lon="8.957861173957445"><ele>54.0</ele><time>2026-04-19T16:31:33.999Z</time></trkpt><trkpt lat="44.40039600904153" lon="8.957998772259756"><ele>53.800000000000004</ele><time>2026-04-19T16:31:34.999Z</time></trkpt><trkpt lat="44.400360302874155" lon="8.95814482347154"><ele>53.60000000000001</ele><time>2026-04-19T16:31:35.999Z</time></trkpt><trkpt lat="44.400327071545135" lon="8.958285002673323"><ele>53.4</ele><time>2026-04-19T16:31:36.999Z</time></trkpt><trkpt lat="44.400299629429796" lon="8.958436711325058"><ele>53.2</ele><time>2026-04-19T16:31:37.999Z</time></trkpt><trkpt lat="44.400252887851664" lon="8.958580859104327"><ele>53.0</ele><time>2026-04-19T16:31:38.999Z</time></trkpt><trkpt lat="44.40021694057961" lon="8.95871914400799"><ele>53.00000000000001</ele><time>2026-04-19T16:31:39.999Z</time></trkpt><trkpt lat="44.40017614935003" lon="8.958828206242147"><ele>53.0</ele><time>2026-04-19T16:31:40.999Z</time></trkpt><trkpt lat="44.400143248525644" lon="8.958939119667399"><ele>53.0</ele><time>2026-04-19T16:31:41.999Z</time></trkpt><trkpt lat="44.40011397064948" lon="8.959037231029617"><ele>53.0</ele><time>2026-04-19T16:31:42.999Z</time></trkpt><trkpt lat="44.40008002484296" lon="8.959147494718946"><ele>53.00000000000001</ele><time>2026-04-19T16:31:43.999Z</time></trkpt><trkpt lat="44.400043975282614" lon="8.95926459185504"><ele>53.0</ele><time>2026-04-19T16:31:44.999Z</time></trkpt><trkpt lat="44.40001017117904" lon="8.959374394706913"><ele>53.8</ele><time>2026-04-19T16:31:45.999Z</time></trkpt><trkpt lat="44.39997154472321" lon="8.959495624026697"><ele>54.599999999999994</ele><time>2026-04-19T16:31:46.999Z</time></trkpt><trkpt lat="44.39992771710781" lon="8.95962900752412"><ele>55.400000000000006</ele><time>2026-04-19T16:31:47.999Z</time></trkpt><trkpt lat="44.399886097102936" lon="8.959756134364179"><ele>56.2</ele><time>2026-04-19T16:31:48.999Z</time></trkpt><trkpt lat="44.39984211376516" lon="8.959890351800183"><ele>57.0</ele><time>2026-04-19T16:31:49.999Z</time></trkpt><trkpt lat="44.39979541318638" lon="8.960031182773486"><ele>56.8</ele><time>2026-04-19T16:31:50.999Z</time></trkpt><trkpt lat="44.39975109044987" lon="8.960199980507078"><ele>56.6</ele><time>2026-04-19T16:31:51.999Z</time></trkpt><trkpt lat="44.39971944837364" lon="8.960349012226745"><ele>56.39999999999999</ele><time>2026-04-19T16:31:52.999Z</time></trkpt><trkpt lat="44.39970611559445" lon="8.960486489010636"><ele>56.199999999999996</ele><time>2026-04-19T16:31:53.999Z</time></trkpt><trkpt lat="44.39969014441226" lon="8.960614142533819"><ele>56.0</ele><time>2026-04-19T16:31:54.999Z</time></trkpt><trkpt lat="44.399651888742724" lon="8.960727643530197"><ele>54.8</ele><time>2026-04-19T16:31:56Z</time></trkpt><trkpt lat="44.39961343293882" lon="8.96084590919225"><ele>53.599999999999994</ele><time>2026-04-19T16:31:57Z</time></trkpt><trkpt lat="44.39958222381577" lon="8.960952020145765"><ele>52.4</ele><time>2026-04-19T16:31:58Z</time></trkpt><trkpt lat="44.39954055404796" lon="8.96108686868002"><ele>51.2</ele><time>2026-04-19T16:32:00Z</time></trkpt><trkpt lat="44.39951680574631" lon="8.961222842189798"><ele>50.0</ele><time>2026-04-19T16:32:02Z</time></trkpt><trkpt lat="44.39949582177111" lon="8.961378658902165"><ele>48.833333333333336</ele><time>2026-04-19T16:32:04Z</time></trkpt><trkpt lat="44.39946070268405" lon="8.961535864888285"><ele>47.66666666666667</ele><time>2026-04-19T16:32:06Z</time></trkpt><trkpt lat="44.39942462965662" lon="8.961674133271865"><ele>46.5</ele><time>2026-04-19T16:32:08Z</time></trkpt><trkpt lat="44.399396034637995" lon="8.961752742085437"><ele>45.333333333333336</ele><time>2026-04-19T16:32:09Z</time></trkpt><trkpt lat="44.39936252484871" lon="8.96183735786965"><ele>44.16666666666667</ele><time>2026-04-19T16:32:10Z</time></trkpt><trkpt lat="44.39932078231677" lon="8.961926698606577"><ele>43.0</ele><time>2026-04-19T16:32:11Z</time></trkpt><trkpt lat="44.399273170861605" lon="8.962023086998887"><ele>42.599999999999994</ele><time>2026-04-19T16:32:12Z</time></trkpt><trkpt lat="44.39920885590651" lon="8.962122820153533"><ele>42.199999999999996</ele><time>2026-04-19T16:32:13Z</time></trkpt><trkpt lat="44.39913678556467" lon="8.962206654621207"><ele>41.8</ele><time>2026-04-19T16:32:14Z</time></trkpt><trkpt lat="44.39904890487951" lon="8.962294341900703"><ele>41.4</ele><time>2026-04-19T16:32:15Z</time></trkpt><trkpt lat="44.39897786867738" lon="8.962367196318572"><ele>41.0</ele><time>2026-04-19T16:32:16Z</time></trkpt><trkpt lat="44.398887223672645" lon="8.962452597906132"><ele>41.4</ele><time>2026-04-19T16:32:17Z</time></trkpt><trkpt lat="44.398798515346236" lon="8.962507839242692"><ele>41.8</ele><time>2026-04-19T16:32:18Z</time></trkpt><trkpt lat="44.3987228650333" lon="8.962556328944958"><ele>42.199999999999996</ele><time>2026-04-19T16:32:19Z</time></trkpt><trkpt lat="44.39863845176188" lon="8.962623743676808"><ele>42.599999999999994</ele><time>2026-04-19T16:32:20Z</time></trkpt><trkpt lat="44.398544812945424" lon="8.962696085513539"><ele>43.0</ele><time>2026-04-19T16:32:21Z</time></trkpt><trkpt lat="44.398462884722946" lon="8.962773696689776"><ele>43.0</ele><time>2026-04-19T16:32:22Z</time></trkpt><trkpt lat="44.398385699085374" lon="8.962852139263418"><ele>43.0</ele><time>2026-04-19T16:32:23Z</time></trkpt><trkpt lat="44.3983099135507" lon="8.962964958562875"><ele>43.0</ele><time>2026-04-19T16:32:24Z</time></trkpt><trkpt lat="44.39825536365411" lon="8.963075123204847"><ele>43.0</ele><time>2026-04-19T16:32:25Z</time></trkpt><trkpt lat="44.39819719725056" lon="8.96319355209734"><ele>43.0</ele><time>2026-04-19T16:32:26Z</time></trkpt><trkpt lat="44.39814956216016" lon="8.963332021665716"><ele>43.2</ele><time>2026-04-19T16:32:27Z</time></trkpt><trkpt lat="44.39811322620362" lon="8.96345455604626"><ele>43.4</ele><time>2026-04-19T16:32:28Z</time></trkpt><trkpt lat="44.39808465322396" lon="8.963565136473838"><ele>43.6</ele><time>2026-04-19T16:32:29Z</time></trkpt><trkpt lat="44.39806606945629" lon="8.963674186208525"><ele>43.800000000000004</ele><time>2026-04-19T16:32:30Z</time></trkpt><trkpt lat="44.398040169397056" lon="8.963805077007189"><ele>44.0</ele><time>2026-04-19T16:32:31Z</time></trkpt><trkpt lat="44.39799765173107" lon="8.96394843209684"><ele>44.0</ele><time>2026-04-19T16:32:32Z</time></trkpt><trkpt lat="44.39795051391803" lon="8.964083863616557"><ele>44.0</ele><time>2026-04-19T16:32:33Z</time></trkpt><trkpt lat="44.397900671034236" lon="8.964244344587756"><ele>44.0</ele><time>2026-04-19T16:32:34Z</time></trkpt><trkpt lat="44.39785511832" lon="8.964438642964916"><ele>44.0</ele><time>2026-04-19T16:32:35Z</time></trkpt><trkpt lat="44.397805863027116" lon="8.964621351345384"><ele>44.0</ele><time>2026-04-19T16:32:36Z</time></trkpt><trkpt lat="44.39775924273785" lon="8.964808405498452"><ele>44.0</ele><time>2026-04-19T16:32:37Z</time></trkpt><trkpt lat="44.397714518871524" lon="8.964972920839445"><ele>44.0</ele><time>2026-04-19T16:32:38Z</time></trkpt><trkpt lat="44.39767178097023" lon="8.965143289631076"><ele>44.0</ele><time>2026-04-19T16:32:39Z</time></trkpt><trkpt lat="44.397622722330134" lon="8.965324749042791"><ele>44.5</ele><time>2026-04-19T16:32:40Z</time></trkpt><trkpt lat="44.39757024701661" lon="8.965512873847777"><ele>45.0</ele><time>2026-04-19T16:32:41Z</time></trkpt><trkpt lat="44.39751861523877" lon="8.965701228819324"><ele>45.5</ele><time>2026-04-19T16:32:42Z</time></trkpt><trkpt lat="44.397468457085004" lon="8.96588519019952"><ele>46.0</ele><time>2026-04-19T16:32:43Z</time></trkpt><trkpt lat="44.3974277703058" lon="8.966045157433223"><ele>46.0</ele><time>2026-04-19T16:32:44Z</time></trkpt><trkpt lat="44.39736922712398" lon="8.966201792603176"><ele>46.0</ele><time>2026-04-19T16:32:45Z</time></trkpt><trkpt lat="44.3973184970215" lon="8.966364011433978"><ele>46.0</ele><time>2026-04-19T16:32:46Z</time></trkpt><trkpt lat="44.39726993944543" lon="8.966519805622093"><ele>46.0</ele><time>2026-04-19T16:32:47Z</time></trkpt><trkpt lat="44.397235308427554" lon="8.966675917325079"><ele>45.599999999999994</ele><time>2026-04-19T16:32:48Z</time></trkpt><trkpt lat="44.397192502917555" lon="8.966821799645349"><ele>45.2</ele><time>2026-04-19T16:32:49Z</time></trkpt><trkpt lat="44.397153681679875" lon="8.966963022754253"><ele>44.8</ele><time>2026-04-19T16:32:50Z</time></trkpt><trkpt lat="44.39712138670373" lon="8.967102057307185"><ele>44.400000000000006</ele><time>2026-04-19T16:32:51Z</time></trkpt><trkpt lat="44.397083485625174" lon="8.967264471693642"><ele>44.0</ele><time>2026-04-19T16:32:52Z</time></trkpt><trkpt lat="44.39703978318887" lon="8.967407816945833"><ele>43.33333333333333</ele><time>2026-04-19T16:32:53Z</time></trkpt><trkpt lat="44.397006686084424" lon="8.967520118854193"><ele>42.666666666666664</ele><time>2026-04-19T16:32:54Z</time></trkpt><trkpt lat="44.39696665398286" lon="8.967623935234316"><ele>42.0</ele><time>2026-04-19T16:32:55Z</time></trkpt><trkpt lat="44.396937239809944" lon="8.96771444241621"><ele>41.333333333333336</ele><time>2026-04-19T16:32:56Z</time></trkpt><trkpt lat="44.39691551603783" lon="8.967857381708722"><ele>40.66666666666667</ele><time>2026-04-19T16:32:58Z</time></trkpt><trkpt lat="44.3968964119828" lon="8.967944367263797"><ele>40.0</ele><time>2026-04-19T16:33:15.999Z</time></trkpt><trkpt lat="44.39684999552923" lon="8.9680938149161"><ele>39.66666666666667</ele><time>2026-04-19T16:33:17.999Z</time></trkpt><trkpt lat="44.39682256988521" lon="8.968185676736116"><ele>39.333333333333336</ele><time>2026-04-19T16:33:18.999Z</time></trkpt><trkpt lat="44.39678696878926" lon="8.968296913145583"><ele>39.0</ele><time>2026-04-19T16:33:19.999Z</time></trkpt><trkpt lat="44.396754983081756" lon="8.968407744233758"><ele>38.666666666666664</ele><time>2026-04-19T16:33:20.999Z</time></trkpt><trkpt lat="44.39671940352442" lon="8.968530192852988"><ele>38.33333333333333</ele><time>2026-04-19T16:33:21.999Z</time></trkpt><trkpt lat="44.39668089282769" lon="8.968676449010939"><ele>38.0</ele><time>2026-04-19T16:33:22.999Z</time></trkpt><trkpt lat="44.39664543229309" lon="8.968801196520461"><ele>38.0</ele><time>2026-04-19T16:33:23.999Z</time></trkpt><trkpt lat="44.39660613958091" lon="8.968939201528078"><ele>38.0</ele><time>2026-04-19T16:33:24.999Z</time></trkpt><trkpt lat="44.39656628129287" lon="8.969082232363585"><ele>38.0</ele><time>2026-04-19T16:33:25.999Z</time></trkpt><trkpt lat="44.396529369079964" lon="8.96921895395726"><ele>38.0</ele><time>2026-04-19T16:33:26.999Z</time></trkpt><trkpt lat="44.3964888008911" lon="8.96935512160642"><ele>38.0</ele><time>2026-04-19T16:33:27.999Z</time></trkpt><trkpt lat="44.39644795219143" lon="8.969493029688794"><ele>38.0</ele><time>2026-04-19T16:33:28.999Z</time></trkpt><trkpt lat="44.396417815147856" lon="8.969619269131194"><ele>38.0</ele><time>2026-04-19T16:33:29.999Z</time></trkpt><trkpt lat="44.396372566739835" lon="8.969738529308982"><ele>38.0</ele><time>2026-04-19T16:33:30.999Z</time></trkpt><trkpt lat="44.39631193110778" lon="8.969868259052397"><ele>38.0</ele><time>2026-04-19T16:33:31.999Z</time></trkpt><trkpt lat="44.396251559594106" lon="8.969986927659399"><ele>38.0</ele><time>2026-04-19T16:33:32.999Z</time></trkpt><trkpt lat="44.39619566694809" lon="8.970092702559795"><ele>39.0</ele><time>2026-04-19T16:33:33.999Z</time></trkpt><trkpt lat="44.3961467988287" lon="8.970197542035695"><ele>40.0</ele><time>2026-04-19T16:33:34.999Z</time></trkpt><trkpt lat="44.39611234582627" lon="8.970296995552223"><ele>41.0</ele><time>2026-04-19T16:33:35.999Z</time></trkpt><trkpt lat="44.39607826804934" lon="8.970410920467284"><ele>42.0</ele><time>2026-04-19T16:33:36.999Z</time></trkpt><trkpt lat="44.396063661583405" lon="8.97053137492081"><ele>43.0</ele><time>2026-04-19T16:33:37.999Z</time></trkpt><trkpt lat="44.39605707702769" lon="8.97064216289881"><ele>44.0</ele><time>2026-04-19T16:33:38.999Z</time></trkpt><trkpt lat="44.39606161585109" lon="8.970735831187687"><ele>44.0</ele><time>2026-04-19T16:33:39.999Z</time></trkpt><trkpt lat="44.396060807093285" lon="8.97082399040495"><ele>44.0</ele><time>2026-04-19T16:33:40.999Z</time></trkpt><trkpt lat="44.396062155144826" lon="8.970922028406951"><ele>44.0</ele><time>2026-04-19T16:33:41.999Z</time></trkpt><trkpt lat="44.39606878407941" lon="8.971015759932989"><ele>44.0</ele><time>2026-04-19T16:33:42.999Z</time></trkpt><trkpt lat="44.396094781997135" lon="8.971170321430543"><ele>44.0</ele><time>2026-04-19T16:33:44.999Z</time></trkpt><trkpt lat="44.39610418849982" lon="8.971258559540255"><ele>44.0</ele><time>2026-04-19T16:33:45.999Z</time></trkpt><trkpt lat="44.396103189217115" lon="8.971360202789073"><ele>43.6</ele><time>2026-04-19T16:33:46.999Z</time></trkpt><trkpt lat="44.39611121565672" lon="8.971453795627042"><ele>43.2</ele><time>2026-04-19T16:33:47.999Z</time></trkpt><trkpt lat="44.39612501773917" lon="8.971614735917692"><ele>42.800000000000004</ele><time>2026-04-19T16:33:49.999Z</time></trkpt><trkpt lat="44.39613658247762" lon="8.97178686248824"><ele>42.400000000000006</ele><time>2026-04-19T16:33:51.999Z</time></trkpt><trkpt lat="44.396153070985015" lon="8.97188053560181"><ele>42.0</ele><time>2026-04-19T16:33:52.999Z</time></trkpt><trkpt lat="44.3961596941905" lon="8.971994991015166"><ele>41.5</ele><time>2026-04-19T16:33:53.999Z</time></trkpt><trkpt lat="44.396171282163166" lon="8.972108564114372"><ele>41.0</ele><time>2026-04-19T16:33:54.999Z</time></trkpt><trkpt lat="44.396181371380955" lon="8.972220800379809"><ele>40.5</ele><time>2026-04-19T16:33:55.999Z</time></trkpt><trkpt lat="44.396181687950914" lon="8.97232716396957"><ele>40.0</ele><time>2026-04-19T16:33:56.999Z</time></trkpt><trkpt lat="44.39618714255457" lon="8.97243720812584"><ele>39.5</ele><time>2026-04-19T16:33:57.999Z</time></trkpt><trkpt lat="44.39618576312104" lon="8.972560281633028"><ele>39.0</ele><time>2026-04-19T16:33:58.999Z</time></trkpt><trkpt lat="44.39616634666449" lon="8.972672069744798"><ele>38.833333333333336</ele><time>2026-04-19T16:33:59.999Z</time></trkpt><trkpt lat="44.39613680347852" lon="8.972780801691425"><ele>38.666666666666664</ele><time>2026-04-19T16:34:00.999Z</time></trkpt><trkpt lat="44.39610599622193" lon="8.972884903033574"><ele>38.5</ele><time>2026-04-19T16:34:02Z</time></trkpt><trkpt lat="44.39607900894516" lon="8.972987584488116"><ele>38.33333333333333</ele><time>2026-04-19T16:34:03Z</time></trkpt><trkpt lat="44.396050183323666" lon="8.973100917925898"><ele>38.166666666666664</ele><time>2026-04-19T16:34:04Z</time></trkpt><trkpt lat="44.39602144601501" lon="8.97322131294471"><ele>38.0</ele><time>2026-04-19T16:34:05Z</time></trkpt><trkpt lat="44.39599319049676" lon="8.97333552115856"><ele>38.166666666666664</ele><time>2026-04-19T16:34:06Z</time></trkpt><trkpt lat="44.39596430097625" lon="8.973448021324003"><ele>38.33333333333333</ele><time>2026-04-19T16:34:07Z</time></trkpt><trkpt lat="44.395933365285096" lon="8.973563780001614"><ele>38.5</ele><time>2026-04-19T16:34:08Z</time></trkpt><trkpt lat="44.39590064298415" lon="8.973678780131223"><ele>38.666666666666664</ele><time>2026-04-19T16:34:09Z</time></trkpt><trkpt lat="44.3958749992776" lon="8.973798183239603"><ele>38.833333333333336</ele><time>2026-04-19T16:34:10Z</time></trkpt><trkpt lat="44.395848989891704" lon="8.97393021357184"><ele>39.0</ele><time>2026-04-19T16:34:11Z</time></trkpt><trkpt lat="44.39582098694239" lon="8.97404169837704"><ele>39.0</ele><time>2026-04-19T16:34:12Z</time></trkpt><trkpt lat="44.395789579935226" lon="8.974157248430075"><ele>39.0</ele><time>2026-04-19T16:34:13Z</time></trkpt><trkpt lat="44.39576013625749" lon="8.974266497783328"><ele>39.0</ele><time>2026-04-19T16:34:14Z</time></trkpt><trkpt lat="44.39572924485954" lon="8.97437514932956"><ele>39.0</ele><time>2026-04-19T16:34:15Z</time></trkpt><trkpt lat="44.39567776938466" lon="8.974465073861827"><ele>39.0</ele><time>2026-04-19T16:34:16Z</time></trkpt><trkpt lat="44.39563481847269" lon="8.974564811532533"><ele>39.0</ele><time>2026-04-19T16:34:17Z</time></trkpt><trkpt lat="44.395585972959374" lon="8.974682726689696"><ele>38.833333333333336</ele><time>2026-04-19T16:34:18Z</time></trkpt><trkpt lat="44.39554482560189" lon="8.974792738225268"><ele>38.666666666666664</ele><time>2026-04-19T16:34:19Z</time></trkpt><trkpt lat="44.39551131756153" lon="8.974890270922986"><ele>38.5</ele><time>2026-04-19T16:34:20Z</time></trkpt><trkpt lat="44.39547859432508" lon="8.974980525248524"><ele>38.33333333333333</ele><time>2026-04-19T16:34:21Z</time></trkpt><trkpt lat="44.395443419936264" lon="8.975078559723551"><ele>38.166666666666664</ele><time>2026-04-19T16:34:22Z</time></trkpt><trkpt lat="44.395409398948324" lon="8.97517268449756"><ele>38.0</ele><time>2026-04-19T16:34:23Z</time></trkpt><trkpt lat="44.39538268833638" lon="8.975253609746128"><ele>37.199999999999996</ele><time>2026-04-19T16:34:24Z</time></trkpt><trkpt lat="44.39534125830241" lon="8.97535407515371"><ele>36.4</ele><time>2026-04-19T16:34:26Z</time></trkpt><trkpt lat="44.39531052491726" lon="8.975438902116528"><ele>35.599999999999994</ele><time>2026-04-19T16:34:29Z</time></trkpt><trkpt lat="44.39524671398686" lon="8.975554790431366"><ele>34.8</ele><time>2026-04-19T16:34:51Z</time></trkpt><trkpt lat="44.39519198955017" lon="8.975615348232958"><ele>34.0</ele><time>2026-04-19T16:34:53Z</time></trkpt><trkpt lat="44.39531287581173" lon="8.975767393712108"><ele>34.0</ele><time>2026-04-19T16:34:55Z</time></trkpt><trkpt lat="44.395383016472515" lon="8.97580315399847"><ele>34.0</ele><time>2026-04-19T16:34:56Z</time></trkpt><trkpt lat="44.39546132763246" lon="8.975840601437504"><ele>34.0</ele><time>2026-04-19T16:34:57Z</time></trkpt><trkpt lat="44.395543058113006" lon="8.975871628159885"><ele>34.0</ele><time>2026-04-19T16:34:58Z</time></trkpt><trkpt lat="44.39562876843318" lon="8.97591479830174"><ele>34.0</ele><time>2026-04-19T16:34:59Z</time></trkpt><trkpt lat="44.39573616485821" lon="8.975950010404455"><ele>34.0</ele><time>2026-04-19T16:35:00Z</time></trkpt><trkpt lat="44.39585250929717" lon="8.976009720534822"><ele>36.0</ele><time>2026-04-19T16:35:01Z</time></trkpt><trkpt lat="44.395976131132954" lon="8.976055295120403"><ele>38.0</ele><time>2026-04-19T16:35:02Z</time></trkpt><trkpt lat="44.396116501821076" lon="8.976105782535065"><ele>40.0</ele><time>2026-04-19T16:35:03Z</time></trkpt><trkpt lat="44.39624858320823" lon="8.976152598724575"><ele>42.0</ele><time>2026-04-19T16:35:04Z</time></trkpt><trkpt lat="44.39636183348988" lon="8.976192241992837"><ele>43.75</ele><time>2026-04-19T16:35:05Z</time></trkpt><trkpt lat="44.396462552037406" lon="8.976228803060595"><ele>45.5</ele><time>2026-04-19T16:35:05.999Z</time></trkpt><trkpt lat="44.396573669439974" lon="8.976269379625474"><ele>47.25</ele><time>2026-04-19T16:35:06.999Z</time></trkpt><trkpt lat="44.39670479285183" lon="8.976317261770957"><ele>49.0</ele><time>2026-04-19T16:35:07.999Z</time></trkpt><trkpt lat="44.396812180039845" lon="8.976339772855527"><ele>49.0</ele><time>2026-04-19T16:35:08.999Z</time></trkpt><trkpt lat="44.396915959967366" lon="8.97637540597001"><ele>49.0</ele><time>2026-04-19T16:35:09.999Z</time></trkpt><trkpt lat="44.39703326203372" lon="8.976439128164603"><ele>49.0</ele><time>2026-04-19T16:35:10.999Z</time></trkpt><trkpt lat="44.39713661002178" lon="8.976480814243057"><ele>49.0</ele><time>2026-04-19T16:35:11.999Z</time></trkpt><trkpt lat="44.39722369396607" lon="8.976515634543297"><ele>49.0</ele><time>2026-04-19T16:35:12.999Z</time></trkpt><trkpt lat="44.397311033999856" lon="8.976547421846298"><ele>47.6</ele><time>2026-04-19T16:35:13.999Z</time></trkpt><trkpt lat="44.39739506748578" lon="8.976564304330823"><ele>46.2</ele><time>2026-04-19T16:35:14.999Z</time></trkpt><trkpt lat="44.39748493592139" lon="8.9765542818282"><ele>44.800000000000004</ele><time>2026-04-19T16:35:15.999Z</time></trkpt><trkpt lat="44.39758298774861" lon="8.976544407140613"><ele>43.400000000000006</ele><time>2026-04-19T16:35:16.999Z</time></trkpt><trkpt lat="44.39767417923988" lon="8.976491048256744"><ele>42.0</ele><time>2026-04-19T16:35:17.999Z</time></trkpt><trkpt lat="44.39776227857729" lon="8.976430053629468"><ele>42.0</ele><time>2026-04-19T16:35:18.999Z</time></trkpt><trkpt lat="44.397863976590784" lon="8.976340622956714"><ele>42.0</ele><time>2026-04-19T16:35:19.999Z</time></trkpt><trkpt lat="44.39796280287885" lon="8.976273295111465"><ele>42.0</ele><time>2026-04-19T16:35:20.999Z</time></trkpt><trkpt lat="44.398058013219" lon="8.976209906004515"><ele>42.0</ele><time>2026-04-19T16:35:21.999Z</time></trkpt><trkpt lat="44.398160548892506" lon="8.976139918119282"><ele>42.0</ele><time>2026-04-19T16:35:22.999Z</time></trkpt><trkpt lat="44.398261845607735" lon="8.976073962474244"><ele>42.0</ele><time>2026-04-19T16:35:23.999Z</time></trkpt><trkpt lat="44.39835852851531" lon="8.975990385130041"><ele>42.0</ele><time>2026-04-19T16:35:24.999Z</time></trkpt><trkpt lat="44.39846742075517" lon="8.975908591891056"><ele>42.0</ele><time>2026-04-19T16:35:25.999Z</time></trkpt><trkpt lat="44.398583168983656" lon="8.975819603330077"><ele>43.0</ele><time>2026-04-19T16:35:26.999Z</time></trkpt><trkpt lat="44.39868008381834" lon="8.975740053524211"><ele>44.0</ele><time>2026-04-19T16:35:27.999Z</time></trkpt><trkpt lat="44.398769205026895" lon="8.975654770775265"><ele>45.0</ele><time>2026-04-19T16:35:28.999Z</time></trkpt><trkpt lat="44.39886318431359" lon="8.97557250220742"><ele>46.0</ele><time>2026-04-19T16:35:29.999Z</time></trkpt><trkpt lat="44.39895939800366" lon="8.975490961287006"><ele>47.0</ele><time>2026-04-19T16:35:30.999Z</time></trkpt><trkpt lat="44.399058068445484" lon="8.975401019541945"><ele>47.0</ele><time>2026-04-19T16:35:31.999Z</time></trkpt><trkpt lat="44.39915411428461" lon="8.975307031939398"><ele>47.0</ele><time>2026-04-19T16:35:32.999Z</time></trkpt><trkpt lat="44.3992533710527" lon="8.975213429854543"><ele>47.0</ele><time>2026-04-19T16:35:33.999Z</time></trkpt><trkpt lat="44.39934589444342" lon="8.975142813547206"><ele>47.0</ele><time>2026-04-19T16:35:34.999Z</time></trkpt><trkpt lat="44.39943803194808" lon="8.975062247022036"><ele>48.6</ele><time>2026-04-19T16:35:35.999Z</time></trkpt><trkpt lat="44.39952419268901" lon="8.974992110166205"><ele>50.2</ele><time>2026-04-19T16:35:36.999Z</time></trkpt><trkpt lat="44.399612036552305" lon="8.97491624740321"><ele>51.8</ele><time>2026-04-19T16:35:37.999Z</time></trkpt><trkpt lat="44.399716985576624" lon="8.974869027599796"><ele>53.4</ele><time>2026-04-19T16:35:38.999Z</time></trkpt><trkpt lat="44.39982627403071" lon="8.974849213437254"><ele>55.0</ele><time>2026-04-19T16:35:39.999Z</time></trkpt><trkpt lat="44.399928070082645" lon="8.974875391539241"><ele>55.166666666666664</ele><time>2026-04-19T16:35:40.999Z</time></trkpt><trkpt lat="44.400020768537" lon="8.974921723247057"><ele>55.33333333333333</ele><time>2026-04-19T16:35:41.999Z</time></trkpt><trkpt lat="44.40010438545825" lon="8.974983252465657"><ele>55.5</ele><time>2026-04-19T16:35:42.999Z</time></trkpt><trkpt lat="44.40015892961008" lon="8.975063477593794"><ele>55.66666666666667</ele><time>2026-04-19T16:35:43.999Z</time></trkpt><trkpt lat="44.400209426639" lon="8.97514583311034"><ele>55.833333333333336</ele><time>2026-04-19T16:35:44.999Z</time></trkpt><trkpt lat="44.400248677193076" lon="8.97525391131398"><ele>56.0</ele><time>2026-04-19T16:35:45.999Z</time></trkpt><trkpt lat="44.400288181399794" lon="8.975364264171136"><ele>56.0</ele><time>2026-04-19T16:35:46.999Z</time></trkpt><trkpt lat="44.40033394886885" lon="8.975476044921331"><ele>55.99999999999999</ele><time>2026-04-19T16:35:47.999Z</time></trkpt><trkpt lat="44.40037902809978" lon="8.975599936134458"><ele>55.99999999999999</ele><time>2026-04-19T16:35:48.999Z</time></trkpt><trkpt lat="44.40042968417526" lon="8.975722928527542"><ele>56.0</ele><time>2026-04-19T16:35:49.999Z</time></trkpt><trkpt lat="44.400482044308774" lon="8.975852379458452"><ele>56.0</ele><time>2026-04-19T16:35:50.999Z</time></trkpt><trkpt lat="44.40053403681372" lon="8.975993353357083"><ele>56.0</ele><time>2026-04-19T16:35:51.999Z</time></trkpt><trkpt lat="44.40058172443935" lon="8.976122557267919"><ele>55.99999999999999</ele><time>2026-04-19T16:35:52.999Z</time></trkpt><trkpt lat="44.4006260010587" lon="8.97625182052009"><ele>55.99999999999999</ele><time>2026-04-19T16:35:53.999Z</time></trkpt><trkpt lat="44.400676203458424" lon="8.976380549089132"><ele>56.0</ele><time>2026-04-19T16:35:54.999Z</time></trkpt><trkpt lat="44.40072921419517" lon="8.976524758180178"><ele>56.0</ele><time>2026-04-19T16:35:55.999Z</time></trkpt><trkpt lat="44.40079129296206" lon="8.976671644892367"><ele>55.199999999999996</ele><time>2026-04-19T16:35:56.999Z</time></trkpt><trkpt lat="44.400861673571" lon="8.97679492707123"><ele>54.39999999999999</ele><time>2026-04-19T16:35:57.999Z</time></trkpt><trkpt lat="44.40093857193441" lon="8.976895576520334"><ele>53.6</ele><time>2026-04-19T16:35:58.999Z</time></trkpt><trkpt lat="44.40103617172981" lon="8.9769648364736"><ele>52.8</ele><time>2026-04-19T16:35:59.999Z</time></trkpt><trkpt lat="44.401140341481906" lon="8.977041460873892"><ele>52.0</ele><time>2026-04-19T16:36:00.999Z</time></trkpt><trkpt lat="44.40124252488245" lon="8.97708251632522"><ele>52.400000000000006</ele><time>2026-04-19T16:36:01.999Z</time></trkpt><trkpt lat="44.40134663990042" lon="8.97710084519081"><ele>52.800000000000004</ele><time>2026-04-19T16:36:02.999Z</time></trkpt><trkpt lat="44.40143289949621" lon="8.977151139747644"><ele>53.2</ele><time>2026-04-19T16:36:03.999Z</time></trkpt><trkpt lat="44.40150976443254" lon="8.977207387894191"><ele>53.6</ele><time>2026-04-19T16:36:04.999Z</time></trkpt><trkpt lat="44.40157450971521" lon="8.977284326186215"><ele>54.0</ele><time>2026-04-19T16:36:05.999Z</time></trkpt><trkpt lat="44.40162001712271" lon="8.977382070175892"><ele>54.0</ele><time>2026-04-19T16:36:06.999Z</time></trkpt><trkpt lat="44.40164569067192" lon="8.97748752354154"><ele>54.00000000000001</ele><time>2026-04-19T16:36:08Z</time></trkpt><trkpt lat="44.401676304823475" lon="8.9775912557133"><ele>54.00000000000001</ele><time>2026-04-19T16:36:09Z</time></trkpt><trkpt lat="44.401724233194045" lon="8.9777471437421"><ele>54.0</ele><time>2026-04-19T16:36:11Z</time></trkpt><trkpt lat="44.40176711221227" lon="8.977893927763166"><ele>54.0</ele><time>2026-04-19T16:36:13Z</time></trkpt><trkpt lat="44.40180309358443" lon="8.978024270317123"><ele>54.0</ele><time>2026-04-19T16:36:15Z</time></trkpt><trkpt lat="44.40180727982472" lon="8.978134722646764"><ele>54.00000000000001</ele><time>2026-04-19T16:36:17Z</time></trkpt><trkpt lat="44.40168579467615" lon="8.978236188839206"><ele>54.00000000000001</ele><time>2026-04-19T16:36:20Z</time></trkpt><trkpt lat="44.40159508384373" lon="8.978291910062598"><ele>54.0</ele><time>2026-04-19T16:36:22Z</time></trkpt><trkpt lat="44.401565399988584" lon="8.97837905803864"><ele>54.0</ele><time>2026-04-19T16:36:24Z</time></trkpt><trkpt lat="44.401619377361804" lon="8.978475603509207"><ele>52.400000000000006</ele><time>2026-04-19T16:36:26Z</time></trkpt><trkpt lat="44.40173292712917" lon="8.978497743117005"><ele>50.800000000000004</ele><time>2026-04-19T16:36:28Z</time></trkpt><trkpt lat="44.401798050656964" lon="8.978468426063204"><ele>49.2</ele><time>2026-04-19T16:36:29Z</time></trkpt><trkpt lat="44.401907489682564" lon="8.978444548165353"><ele>47.599999999999994</ele><time>2026-04-19T16:36:31Z</time></trkpt><trkpt lat="44.40199322547038" lon="8.978538922130094"><ele>46.0</ele><time>2026-04-19T16:36:33Z</time></trkpt><trkpt lat="44.402019770219994" lon="8.978697436632201"><ele>46.0</ele><time>2026-04-19T16:36:35Z</time></trkpt><trkpt lat="44.40202233627426" lon="8.978790903264994"><ele>46.0</ele><time>2026-04-19T16:36:36Z</time></trkpt><trkpt lat="44.40204157840129" lon="8.978903516929341"><ele>46.0</ele><time>2026-04-19T16:36:37Z</time></trkpt><trkpt lat="44.40206607676945" lon="8.979016051860466"><ele>46.0</ele><time>2026-04-19T16:36:38Z</time></trkpt><trkpt lat="44.40208519879114" lon="8.979133607246125"><ele>46.0</ele><time>2026-04-19T16:36:39Z</time></trkpt><trkpt lat="44.40209837399051" lon="8.97922789296035"><ele>46.0</ele><time>2026-04-19T16:36:40Z</time></trkpt><trkpt lat="44.4021211635486" lon="8.97932874329621"><ele>45.0</ele><time>2026-04-19T16:36:41Z</time></trkpt><trkpt lat="44.402138900761734" lon="8.97942100355566"><ele>45.0</ele><time>2026-04-19T16:36:42Z</time></trkpt><trkpt lat="44.402161137540055" lon="8.979508431424614"><ele>45.0</ele><time>2026-04-19T16:36:43Z</time></trkpt><trkpt lat="44.402192762385326" lon="8.979626211304732"><ele>54.0</ele><time>2026-04-19T16:36:45Z</time></trkpt><trkpt lat="44.40221999703777" lon="8.979732207707473"><ele>54.0</ele><time>2026-04-19T16:36:47Z</time></trkpt><trkpt lat="44.40223197719073" lon="8.979853346508948"><ele>54.0</ele><time>2026-04-19T16:36:51Z</time></trkpt></trkseg></trk></gpx>